<?xml version="1.0" encoding="UTF-8" standalone="no" ?>
<gpx xmlns="http://www.topografix.com/GPX/1/1" xmlns:xsi="http://www.w3.org/2001/XMLSchema-instance" xsi:schemaLocation="http://www.topografix.com/GPX/1/1 http://www.topografix.com/GPX/1/1/gpx.xsd" version="1.1" creator="VisuGPX - https://www.visugpx.com">
  <metadata>
    <name>Aup du pont en Ski de Rando</name>
  </metadata>
  <trk>
    <name><![CDATA[Aup du pont en Ski de Rando_1]]></name>
    <extensions>
      <line xmlns="http://www.topografix.com/GPX/gpx_style/0/2">
        <color>0000FF</color>
        <width>4</width>
      </line>
    </extensions>
    <trkseg>
      <trkpt lat="45.29017" lon="6.21734">
        <ele>1152.8</ele>
        <time>2022-01-27T08:06:35Z</time>
      </trkpt>
      <trkpt lat="45.28971" lon="6.21708">
        <ele>1148.1</ele>
        <time>2022-01-27T08:06:38Z</time>
      </trkpt>
      <trkpt lat="45.28973" lon="6.21714">
        <ele>1148.4</ele>
        <time>2022-01-27T08:06:39Z</time>
      </trkpt>
      <trkpt lat="45.2898" lon="6.21715">
        <ele>1149.6</ele>
        <time>2022-01-27T08:06:40Z</time>
      </trkpt>
      <trkpt lat="45.28986" lon="6.21713">
        <ele>1150.1</ele>
        <time>2022-01-27T08:06:41Z</time>
      </trkpt>
      <trkpt lat="45.28991" lon="6.21709">
        <ele>1150.5</ele>
        <time>2022-01-27T08:06:42Z</time>
      </trkpt>
      <trkpt lat="45.28995" lon="6.21707">
        <ele>1151.4</ele>
        <time>2022-01-27T08:06:43Z</time>
      </trkpt>
      <trkpt lat="45.28998" lon="6.21705">
        <ele>1151.6</ele>
        <time>2022-01-27T08:06:44Z</time>
      </trkpt>
      <trkpt lat="45.28999" lon="6.21705">
        <ele>1151.6</ele>
        <time>2022-01-27T08:06:46Z</time>
      </trkpt>
      <trkpt lat="45.29" lon="6.21704">
        <ele>1151.7</ele>
        <time>2022-01-27T08:06:48Z</time>
      </trkpt>
      <trkpt lat="45.29001" lon="6.21704">
        <ele>1151.7</ele>
        <time>2022-01-27T08:06:49Z</time>
      </trkpt>
      <trkpt lat="45.29001" lon="6.21703">
        <ele>1151.7</ele>
        <time>2022-01-27T08:06:50Z</time>
      </trkpt>
      <trkpt lat="45.29002" lon="6.21703">
        <ele>1151.8</ele>
        <time>2022-01-27T08:06:53Z</time>
      </trkpt>
      <trkpt lat="45.29009" lon="6.21712">
        <ele>1152.3</ele>
        <time>2022-01-27T08:07:51Z</time>
      </trkpt>
      <trkpt lat="45.29009" lon="6.21714">
        <ele>1152.3</ele>
        <time>2022-01-27T08:07:52Z</time>
      </trkpt>
      <trkpt lat="45.29009" lon="6.21713">
        <ele>1152.3</ele>
        <time>2022-01-27T08:07:55Z</time>
      </trkpt>
      <trkpt lat="45.29009" lon="6.21712">
        <ele>1152.4</ele>
        <time>2022-01-27T08:07:56Z</time>
      </trkpt>
      <trkpt lat="45.29009" lon="6.21711">
        <ele>1152.4</ele>
        <time>2022-01-27T08:07:57Z</time>
      </trkpt>
      <trkpt lat="45.2901" lon="6.21712">
        <ele>1152.4</ele>
        <time>2022-01-27T08:08:02Z</time>
      </trkpt>
      <trkpt lat="45.29014" lon="6.21709">
        <ele>1152.7</ele>
        <time>2022-01-27T08:08:42Z</time>
      </trkpt>
      <trkpt lat="45.29015" lon="6.2171">
        <ele>1152.8</ele>
        <time>2022-01-27T08:08:43Z</time>
      </trkpt>
      <trkpt lat="45.29017" lon="6.21712">
        <ele>1152.9</ele>
        <time>2022-01-27T08:08:44Z</time>
      </trkpt>
      <trkpt lat="45.29018" lon="6.21713">
        <ele>1153</ele>
        <time>2022-01-27T08:08:45Z</time>
      </trkpt>
      <trkpt lat="45.2902" lon="6.21714">
        <ele>1153</ele>
        <time>2022-01-27T08:08:46Z</time>
      </trkpt>
      <trkpt lat="45.29022" lon="6.21714">
        <ele>1153.2</ele>
        <time>2022-01-27T08:08:47Z</time>
      </trkpt>
      <trkpt lat="45.29023" lon="6.21714">
        <ele>1153.2</ele>
        <time>2022-01-27T08:08:48Z</time>
      </trkpt>
      <trkpt lat="45.29024" lon="6.21714">
        <ele>1153.3</ele>
        <time>2022-01-27T08:08:49Z</time>
      </trkpt>
      <trkpt lat="45.29025" lon="6.21714">
        <ele>1153.4</ele>
        <time>2022-01-27T08:08:50Z</time>
      </trkpt>
      <trkpt lat="45.29027" lon="6.21714">
        <ele>1153.5</ele>
        <time>2022-01-27T08:08:51Z</time>
      </trkpt>
      <trkpt lat="45.29028" lon="6.21714">
        <ele>1153.6</ele>
        <time>2022-01-27T08:08:52Z</time>
      </trkpt>
      <trkpt lat="45.29029" lon="6.21713">
        <ele>1153.7</ele>
        <time>2022-01-27T08:08:53Z</time>
      </trkpt>
      <trkpt lat="45.29031" lon="6.21713">
        <ele>1153.7</ele>
        <time>2022-01-27T08:08:54Z</time>
      </trkpt>
      <trkpt lat="45.29032" lon="6.21712">
        <ele>1153.9</ele>
        <time>2022-01-27T08:08:55Z</time>
      </trkpt>
      <trkpt lat="45.29033" lon="6.21712">
        <ele>1154.1</ele>
        <time>2022-01-27T08:08:56Z</time>
      </trkpt>
      <trkpt lat="45.29034" lon="6.21711">
        <ele>1154.3</ele>
        <time>2022-01-27T08:08:57Z</time>
      </trkpt>
      <trkpt lat="45.29035" lon="6.2171">
        <ele>1154.6</ele>
        <time>2022-01-27T08:08:59Z</time>
      </trkpt>
      <trkpt lat="45.29036" lon="6.21709">
        <ele>1154.8</ele>
        <time>2022-01-27T08:09:00Z</time>
      </trkpt>
      <trkpt lat="45.29037" lon="6.21708">
        <ele>1155</ele>
        <time>2022-01-27T08:09:01Z</time>
      </trkpt>
      <trkpt lat="45.29037" lon="6.21707">
        <ele>1155.2</ele>
        <time>2022-01-27T08:09:03Z</time>
      </trkpt>
      <trkpt lat="45.29038" lon="6.21707">
        <ele>1155.3</ele>
        <time>2022-01-27T08:09:04Z</time>
      </trkpt>
      <trkpt lat="45.29038" lon="6.21706">
        <ele>1155.4</ele>
        <time>2022-01-27T08:09:05Z</time>
      </trkpt>
      <trkpt lat="45.29039" lon="6.21706">
        <ele>1155.6</ele>
        <time>2022-01-27T08:09:07Z</time>
      </trkpt>
      <trkpt lat="45.2904" lon="6.21705">
        <ele>1155.7</ele>
        <time>2022-01-27T08:09:08Z</time>
      </trkpt>
      <trkpt lat="45.29042" lon="6.21704">
        <ele>1156.1</ele>
        <time>2022-01-27T08:09:10Z</time>
      </trkpt>
      <trkpt lat="45.29043" lon="6.21704">
        <ele>1156.3</ele>
        <time>2022-01-27T08:09:11Z</time>
      </trkpt>
      <trkpt lat="45.29044" lon="6.21702">
        <ele>1156.7</ele>
        <time>2022-01-27T08:09:13Z</time>
      </trkpt>
      <trkpt lat="45.29045" lon="6.21701">
        <ele>1156.9</ele>
        <time>2022-01-27T08:09:14Z</time>
      </trkpt>
      <trkpt lat="45.29046" lon="6.21701">
        <ele>1157.1</ele>
        <time>2022-01-27T08:09:15Z</time>
      </trkpt>
      <trkpt lat="45.29046" lon="6.217">
        <ele>1157.2</ele>
        <time>2022-01-27T08:09:16Z</time>
      </trkpt>
      <trkpt lat="45.29048" lon="6.21697">
        <ele>1157.7</ele>
        <time>2022-01-27T08:09:17Z</time>
      </trkpt>
      <trkpt lat="45.29049" lon="6.21696">
        <ele>1157.9</ele>
        <time>2022-01-27T08:09:18Z</time>
      </trkpt>
      <trkpt lat="45.2905" lon="6.21695">
        <ele>1158.1</ele>
        <time>2022-01-27T08:09:19Z</time>
      </trkpt>
      <trkpt lat="45.29051" lon="6.21694">
        <ele>1158.4</ele>
        <time>2022-01-27T08:09:20Z</time>
      </trkpt>
      <trkpt lat="45.29052" lon="6.21693">
        <ele>1158.7</ele>
        <time>2022-01-27T08:09:21Z</time>
      </trkpt>
      <trkpt lat="45.29053" lon="6.21691">
        <ele>1159</ele>
        <time>2022-01-27T08:09:22Z</time>
      </trkpt>
      <trkpt lat="45.29055" lon="6.2169">
        <ele>1159.4</ele>
        <time>2022-01-27T08:09:23Z</time>
      </trkpt>
      <trkpt lat="45.29057" lon="6.21687">
        <ele>1159.9</ele>
        <time>2022-01-27T08:09:25Z</time>
      </trkpt>
      <trkpt lat="45.29057" lon="6.21686">
        <ele>1160.1</ele>
        <time>2022-01-27T08:09:26Z</time>
      </trkpt>
      <trkpt lat="45.29058" lon="6.21685">
        <ele>1160.3</ele>
        <time>2022-01-27T08:09:27Z</time>
      </trkpt>
      <trkpt lat="45.29059" lon="6.21684">
        <ele>1160.5</ele>
        <time>2022-01-27T08:09:28Z</time>
      </trkpt>
      <trkpt lat="45.2906" lon="6.21683">
        <ele>1160.7</ele>
        <time>2022-01-27T08:09:29Z</time>
      </trkpt>
      <trkpt lat="45.29062" lon="6.21682">
        <ele>1161</ele>
        <time>2022-01-27T08:09:30Z</time>
      </trkpt>
      <trkpt lat="45.29064" lon="6.21682">
        <ele>1161.3</ele>
        <time>2022-01-27T08:09:31Z</time>
      </trkpt>
      <trkpt lat="45.29065" lon="6.21681">
        <ele>1161.6</ele>
        <time>2022-01-27T08:09:32Z</time>
      </trkpt>
      <trkpt lat="45.29066" lon="6.2168">
        <ele>1161.9</ele>
        <time>2022-01-27T08:09:33Z</time>
      </trkpt>
      <trkpt lat="45.29068" lon="6.21678">
        <ele>1162.3</ele>
        <time>2022-01-27T08:09:35Z</time>
      </trkpt>
      <trkpt lat="45.29069" lon="6.21676">
        <ele>1162.5</ele>
        <time>2022-01-27T08:09:36Z</time>
      </trkpt>
      <trkpt lat="45.29069" lon="6.21675">
        <ele>1162.7</ele>
        <time>2022-01-27T08:09:37Z</time>
      </trkpt>
      <trkpt lat="45.2907" lon="6.21673">
        <ele>1162.9</ele>
        <time>2022-01-27T08:09:38Z</time>
      </trkpt>
      <trkpt lat="45.2907" lon="6.21672">
        <ele>1163.1</ele>
        <time>2022-01-27T08:09:39Z</time>
      </trkpt>
      <trkpt lat="45.29073" lon="6.2167">
        <ele>1163.7</ele>
        <time>2022-01-27T08:09:43Z</time>
      </trkpt>
      <trkpt lat="45.29074" lon="6.2167">
        <ele>1163.8</ele>
        <time>2022-01-27T08:09:44Z</time>
      </trkpt>
      <trkpt lat="45.29074" lon="6.21669">
        <ele>1163.9</ele>
        <time>2022-01-27T08:09:45Z</time>
      </trkpt>
      <trkpt lat="45.29075" lon="6.21669">
        <ele>1166.8</ele>
        <time>2022-01-27T08:09:46Z</time>
      </trkpt>
      <trkpt lat="45.29074" lon="6.21669">
        <ele>1166.9</ele>
        <time>2022-01-27T08:09:48Z</time>
      </trkpt>
      <trkpt lat="45.29074" lon="6.2167">
        <ele>1167</ele>
        <time>2022-01-27T08:09:49Z</time>
      </trkpt>
      <trkpt lat="45.29073" lon="6.21669">
        <ele>1167.4</ele>
        <time>2022-01-27T08:09:55Z</time>
      </trkpt>
      <trkpt lat="45.29073" lon="6.21668">
        <ele>1167.6</ele>
        <time>2022-01-27T08:09:57Z</time>
      </trkpt>
      <trkpt lat="45.29072" lon="6.21666">
        <ele>1168</ele>
        <time>2022-01-27T08:10:03Z</time>
      </trkpt>
      <trkpt lat="45.29072" lon="6.21665">
        <ele>1168.2</ele>
        <time>2022-01-27T08:10:04Z</time>
      </trkpt>
      <trkpt lat="45.29072" lon="6.21664">
        <ele>1168.4</ele>
        <time>2022-01-27T08:10:05Z</time>
      </trkpt>
      <trkpt lat="45.29072" lon="6.21663">
        <ele>1168.6</ele>
        <time>2022-01-27T08:10:06Z</time>
      </trkpt>
      <trkpt lat="45.29072" lon="6.21661">
        <ele>1168.8</ele>
        <time>2022-01-27T08:10:07Z</time>
      </trkpt>
      <trkpt lat="45.29072" lon="6.2166">
        <ele>1169</ele>
        <time>2022-01-27T08:10:08Z</time>
      </trkpt>
      <trkpt lat="45.29073" lon="6.21659">
        <ele>1169.3</ele>
        <time>2022-01-27T08:10:09Z</time>
      </trkpt>
      <trkpt lat="45.29073" lon="6.21657">
        <ele>1169.6</ele>
        <time>2022-01-27T08:10:10Z</time>
      </trkpt>
      <trkpt lat="45.29074" lon="6.21655">
        <ele>1169.9</ele>
        <time>2022-01-27T08:10:11Z</time>
      </trkpt>
      <trkpt lat="45.29075" lon="6.21653">
        <ele>1170.4</ele>
        <time>2022-01-27T08:10:12Z</time>
      </trkpt>
      <trkpt lat="45.29076" lon="6.21652">
        <ele>1170.8</ele>
        <time>2022-01-27T08:10:14Z</time>
      </trkpt>
      <trkpt lat="45.29077" lon="6.2165">
        <ele>1171.3</ele>
        <time>2022-01-27T08:10:15Z</time>
      </trkpt>
      <trkpt lat="45.29079" lon="6.21648">
        <ele>1171.8</ele>
        <time>2022-01-27T08:10:16Z</time>
      </trkpt>
      <trkpt lat="45.2908" lon="6.21647">
        <ele>1172</ele>
        <time>2022-01-27T08:10:17Z</time>
      </trkpt>
      <trkpt lat="45.29081" lon="6.21647">
        <ele>1172.2</ele>
        <time>2022-01-27T08:10:18Z</time>
      </trkpt>
      <trkpt lat="45.29082" lon="6.21646">
        <ele>1172.6</ele>
        <time>2022-01-27T08:10:19Z</time>
      </trkpt>
      <trkpt lat="45.29084" lon="6.21646">
        <ele>1173</ele>
        <time>2022-01-27T08:10:20Z</time>
      </trkpt>
      <trkpt lat="45.29085" lon="6.21646">
        <ele>1173.2</ele>
        <time>2022-01-27T08:10:21Z</time>
      </trkpt>
      <trkpt lat="45.29086" lon="6.21646">
        <ele>1173.5</ele>
        <time>2022-01-27T08:10:22Z</time>
      </trkpt>
      <trkpt lat="45.29087" lon="6.21645">
        <ele>1173.8</ele>
        <time>2022-01-27T08:10:23Z</time>
      </trkpt>
      <trkpt lat="45.29088" lon="6.21645">
        <ele>1174</ele>
        <time>2022-01-27T08:10:24Z</time>
      </trkpt>
      <trkpt lat="45.29089" lon="6.21644">
        <ele>1174.3</ele>
        <time>2022-01-27T08:10:25Z</time>
      </trkpt>
      <trkpt lat="45.2909" lon="6.21643">
        <ele>1174.6</ele>
        <time>2022-01-27T08:10:26Z</time>
      </trkpt>
      <trkpt lat="45.29091" lon="6.21643">
        <ele>1174.8</ele>
        <time>2022-01-27T08:10:27Z</time>
      </trkpt>
      <trkpt lat="45.29091" lon="6.21642">
        <ele>1175</ele>
        <time>2022-01-27T08:10:28Z</time>
      </trkpt>
      <trkpt lat="45.29092" lon="6.2164">
        <ele>1175.3</ele>
        <time>2022-01-27T08:10:29Z</time>
      </trkpt>
      <trkpt lat="45.29093" lon="6.21639">
        <ele>1175.6</ele>
        <time>2022-01-27T08:10:30Z</time>
      </trkpt>
      <trkpt lat="45.29093" lon="6.21638">
        <ele>1175.7</ele>
        <time>2022-01-27T08:10:31Z</time>
      </trkpt>
      <trkpt lat="45.29093" lon="6.21637">
        <ele>1175.9</ele>
        <time>2022-01-27T08:10:32Z</time>
      </trkpt>
      <trkpt lat="45.29093" lon="6.21636">
        <ele>1176</ele>
        <time>2022-01-27T08:10:33Z</time>
      </trkpt>
      <trkpt lat="45.29093" lon="6.21635">
        <ele>1176.3</ele>
        <time>2022-01-27T08:10:35Z</time>
      </trkpt>
      <trkpt lat="45.29093" lon="6.21634">
        <ele>1176.5</ele>
        <time>2022-01-27T08:10:36Z</time>
      </trkpt>
      <trkpt lat="45.29093" lon="6.21633">
        <ele>1176.7</ele>
        <time>2022-01-27T08:10:37Z</time>
      </trkpt>
      <trkpt lat="45.29093" lon="6.21632">
        <ele>1176.8</ele>
        <time>2022-01-27T08:10:38Z</time>
      </trkpt>
      <trkpt lat="45.29092" lon="6.21631">
        <ele>1177.1</ele>
        <time>2022-01-27T08:10:39Z</time>
      </trkpt>
      <trkpt lat="45.29092" lon="6.21629">
        <ele>1177.4</ele>
        <time>2022-01-27T08:10:41Z</time>
      </trkpt>
      <trkpt lat="45.29092" lon="6.21628">
        <ele>1177.6</ele>
        <time>2022-01-27T08:10:42Z</time>
      </trkpt>
      <trkpt lat="45.29092" lon="6.21625">
        <ele>1178.1</ele>
        <time>2022-01-27T08:10:43Z</time>
      </trkpt>
      <trkpt lat="45.29092" lon="6.21623">
        <ele>1178.3</ele>
        <time>2022-01-27T08:10:44Z</time>
      </trkpt>
      <trkpt lat="45.29092" lon="6.21622">
        <ele>1178.6</ele>
        <time>2022-01-27T08:10:46Z</time>
      </trkpt>
      <trkpt lat="45.29093" lon="6.2162">
        <ele>1178.9</ele>
        <time>2022-01-27T08:10:47Z</time>
      </trkpt>
      <trkpt lat="45.29093" lon="6.21619">
        <ele>1179.1</ele>
        <time>2022-01-27T08:10:49Z</time>
      </trkpt>
      <trkpt lat="45.29093" lon="6.21618">
        <ele>1179.4</ele>
        <time>2022-01-27T08:10:50Z</time>
      </trkpt>
      <trkpt lat="45.29093" lon="6.21617">
        <ele>1179.6</ele>
        <time>2022-01-27T08:10:52Z</time>
      </trkpt>
      <trkpt lat="45.29094" lon="6.21615">
        <ele>1179.8</ele>
        <time>2022-01-27T08:10:53Z</time>
      </trkpt>
      <trkpt lat="45.29094" lon="6.21614">
        <ele>1180.1</ele>
        <time>2022-01-27T08:10:55Z</time>
      </trkpt>
      <trkpt lat="45.29094" lon="6.21612">
        <ele>1180.4</ele>
        <time>2022-01-27T08:10:56Z</time>
      </trkpt>
      <trkpt lat="45.29095" lon="6.2161">
        <ele>1180.7</ele>
        <time>2022-01-27T08:10:58Z</time>
      </trkpt>
      <trkpt lat="45.29095" lon="6.21609">
        <ele>1180.9</ele>
        <time>2022-01-27T08:10:59Z</time>
      </trkpt>
      <trkpt lat="45.29095" lon="6.21608">
        <ele>1181.1</ele>
        <time>2022-01-27T08:11:00Z</time>
      </trkpt>
      <trkpt lat="45.29095" lon="6.21606">
        <ele>1181.5</ele>
        <time>2022-01-27T08:11:01Z</time>
      </trkpt>
      <trkpt lat="45.29096" lon="6.21604">
        <ele>1181.8</ele>
        <time>2022-01-27T08:11:03Z</time>
      </trkpt>
      <trkpt lat="45.29096" lon="6.21602">
        <ele>1182.1</ele>
        <time>2022-01-27T08:11:04Z</time>
      </trkpt>
      <trkpt lat="45.29097" lon="6.216">
        <ele>1182.5</ele>
        <time>2022-01-27T08:11:06Z</time>
      </trkpt>
      <trkpt lat="45.29098" lon="6.21599">
        <ele>1182.8</ele>
        <time>2022-01-27T08:11:07Z</time>
      </trkpt>
      <trkpt lat="45.29098" lon="6.21598">
        <ele>1183.1</ele>
        <time>2022-01-27T08:11:08Z</time>
      </trkpt>
      <trkpt lat="45.29099" lon="6.21596">
        <ele>1183.4</ele>
        <time>2022-01-27T08:11:10Z</time>
      </trkpt>
      <trkpt lat="45.291" lon="6.21595">
        <ele>1183.8</ele>
        <time>2022-01-27T08:11:11Z</time>
      </trkpt>
      <trkpt lat="45.29101" lon="6.21594">
        <ele>1184</ele>
        <time>2022-01-27T08:11:12Z</time>
      </trkpt>
      <trkpt lat="45.29101" lon="6.21593">
        <ele>1184.2</ele>
        <time>2022-01-27T08:11:13Z</time>
      </trkpt>
      <trkpt lat="45.29101" lon="6.21592">
        <ele>1184.4</ele>
        <time>2022-01-27T08:11:14Z</time>
      </trkpt>
      <trkpt lat="45.29102" lon="6.2159">
        <ele>1184.7</ele>
        <time>2022-01-27T08:11:15Z</time>
      </trkpt>
      <trkpt lat="45.29102" lon="6.21588">
        <ele>1185</ele>
        <time>2022-01-27T08:11:16Z</time>
      </trkpt>
      <trkpt lat="45.29103" lon="6.21587">
        <ele>1185.2</ele>
        <time>2022-01-27T08:11:17Z</time>
      </trkpt>
      <trkpt lat="45.29103" lon="6.21586">
        <ele>1185.5</ele>
        <time>2022-01-27T08:11:18Z</time>
      </trkpt>
      <trkpt lat="45.29104" lon="6.21585">
        <ele>1185.7</ele>
        <time>2022-01-27T08:11:19Z</time>
      </trkpt>
      <trkpt lat="45.29104" lon="6.21584">
        <ele>1185.9</ele>
        <time>2022-01-27T08:11:20Z</time>
      </trkpt>
      <trkpt lat="45.29105" lon="6.21582">
        <ele>1186.4</ele>
        <time>2022-01-27T08:11:21Z</time>
      </trkpt>
      <trkpt lat="45.29106" lon="6.21581">
        <ele>1186.6</ele>
        <time>2022-01-27T08:11:22Z</time>
      </trkpt>
      <trkpt lat="45.29106" lon="6.2158">
        <ele>1186.8</ele>
        <time>2022-01-27T08:11:23Z</time>
      </trkpt>
      <trkpt lat="45.29107" lon="6.21579">
        <ele>1187</ele>
        <time>2022-01-27T08:11:24Z</time>
      </trkpt>
      <trkpt lat="45.29108" lon="6.21577">
        <ele>1187.3</ele>
        <time>2022-01-27T08:11:25Z</time>
      </trkpt>
      <trkpt lat="45.29108" lon="6.21576">
        <ele>1187.6</ele>
        <time>2022-01-27T08:11:26Z</time>
      </trkpt>
      <trkpt lat="45.29109" lon="6.21575">
        <ele>1187.9</ele>
        <time>2022-01-27T08:11:27Z</time>
      </trkpt>
      <trkpt lat="45.29109" lon="6.21574">
        <ele>1188.1</ele>
        <time>2022-01-27T08:11:28Z</time>
      </trkpt>
      <trkpt lat="45.2911" lon="6.21573">
        <ele>1188.3</ele>
        <time>2022-01-27T08:11:29Z</time>
      </trkpt>
      <trkpt lat="45.2911" lon="6.21571">
        <ele>1188.5</ele>
        <time>2022-01-27T08:11:30Z</time>
      </trkpt>
      <trkpt lat="45.29111" lon="6.2157">
        <ele>1188.8</ele>
        <time>2022-01-27T08:11:31Z</time>
      </trkpt>
      <trkpt lat="45.29111" lon="6.21569">
        <ele>1189.1</ele>
        <time>2022-01-27T08:11:32Z</time>
      </trkpt>
      <trkpt lat="45.29111" lon="6.21568">
        <ele>1189.2</ele>
        <time>2022-01-27T08:11:33Z</time>
      </trkpt>
      <trkpt lat="45.29112" lon="6.21566">
        <ele>1189.4</ele>
        <time>2022-01-27T08:11:34Z</time>
      </trkpt>
      <trkpt lat="45.29113" lon="6.21565">
        <ele>1189.8</ele>
        <time>2022-01-27T08:11:36Z</time>
      </trkpt>
      <trkpt lat="45.29113" lon="6.21564">
        <ele>1190</ele>
        <time>2022-01-27T08:11:37Z</time>
      </trkpt>
      <trkpt lat="45.29114" lon="6.21563">
        <ele>1190.2</ele>
        <time>2022-01-27T08:11:38Z</time>
      </trkpt>
      <trkpt lat="45.29114" lon="6.21562">
        <ele>1190.4</ele>
        <time>2022-01-27T08:11:39Z</time>
      </trkpt>
      <trkpt lat="45.29115" lon="6.21561">
        <ele>1190.6</ele>
        <time>2022-01-27T08:11:40Z</time>
      </trkpt>
      <trkpt lat="45.29116" lon="6.2156">
        <ele>1191</ele>
        <time>2022-01-27T08:11:41Z</time>
      </trkpt>
      <trkpt lat="45.29117" lon="6.21559">
        <ele>1191.2</ele>
        <time>2022-01-27T08:11:42Z</time>
      </trkpt>
      <trkpt lat="45.29118" lon="6.21559">
        <ele>1191.5</ele>
        <time>2022-01-27T08:11:44Z</time>
      </trkpt>
      <trkpt lat="45.2912" lon="6.21557">
        <ele>1192.1</ele>
        <time>2022-01-27T08:11:46Z</time>
      </trkpt>
      <trkpt lat="45.29121" lon="6.21557">
        <ele>1192.3</ele>
        <time>2022-01-27T08:11:47Z</time>
      </trkpt>
      <trkpt lat="45.29123" lon="6.21554">
        <ele>1192.9</ele>
        <time>2022-01-27T08:11:48Z</time>
      </trkpt>
      <trkpt lat="45.29123" lon="6.21552">
        <ele>1193.2</ele>
        <time>2022-01-27T08:11:50Z</time>
      </trkpt>
      <trkpt lat="45.29124" lon="6.21551">
        <ele>1193.5</ele>
        <time>2022-01-27T08:11:51Z</time>
      </trkpt>
      <trkpt lat="45.29124" lon="6.2155">
        <ele>1193.8</ele>
        <time>2022-01-27T08:11:53Z</time>
      </trkpt>
      <trkpt lat="45.29125" lon="6.21548">
        <ele>1194.1</ele>
        <time>2022-01-27T08:11:54Z</time>
      </trkpt>
      <trkpt lat="45.29126" lon="6.21547">
        <ele>1194.3</ele>
        <time>2022-01-27T08:11:55Z</time>
      </trkpt>
      <trkpt lat="45.29126" lon="6.21546">
        <ele>1194.6</ele>
        <time>2022-01-27T08:11:56Z</time>
      </trkpt>
      <trkpt lat="45.29127" lon="6.21544">
        <ele>1194.9</ele>
        <time>2022-01-27T08:11:58Z</time>
      </trkpt>
      <trkpt lat="45.29127" lon="6.21542">
        <ele>1195.3</ele>
        <time>2022-01-27T08:11:59Z</time>
      </trkpt>
      <trkpt lat="45.29127" lon="6.21538">
        <ele>1195.9</ele>
        <time>2022-01-27T08:12:01Z</time>
      </trkpt>
      <trkpt lat="45.29128" lon="6.21537">
        <ele>1196.1</ele>
        <time>2022-01-27T08:12:03Z</time>
      </trkpt>
      <trkpt lat="45.29128" lon="6.21536">
        <ele>1196.4</ele>
        <time>2022-01-27T08:12:05Z</time>
      </trkpt>
      <trkpt lat="45.2913" lon="6.21536">
        <ele>1196.7</ele>
        <time>2022-01-27T08:12:06Z</time>
      </trkpt>
      <trkpt lat="45.29131" lon="6.21535">
        <ele>1197</ele>
        <time>2022-01-27T08:12:08Z</time>
      </trkpt>
      <trkpt lat="45.29132" lon="6.21534">
        <ele>1197.3</ele>
        <time>2022-01-27T08:12:10Z</time>
      </trkpt>
      <trkpt lat="45.29133" lon="6.21532">
        <ele>1197.7</ele>
        <time>2022-01-27T08:12:11Z</time>
      </trkpt>
      <trkpt lat="45.29134" lon="6.21531">
        <ele>1198</ele>
        <time>2022-01-27T08:12:12Z</time>
      </trkpt>
      <trkpt lat="45.29134" lon="6.2153">
        <ele>1198.2</ele>
        <time>2022-01-27T08:12:14Z</time>
      </trkpt>
      <trkpt lat="45.29135" lon="6.21529">
        <ele>1198.4</ele>
        <time>2022-01-27T08:12:15Z</time>
      </trkpt>
      <trkpt lat="45.29135" lon="6.21528">
        <ele>1198.6</ele>
        <time>2022-01-27T08:12:16Z</time>
      </trkpt>
      <trkpt lat="45.29135" lon="6.21527">
        <ele>1198.8</ele>
        <time>2022-01-27T08:12:18Z</time>
      </trkpt>
      <trkpt lat="45.29136" lon="6.21526">
        <ele>1199</ele>
        <time>2022-01-27T08:12:19Z</time>
      </trkpt>
      <trkpt lat="45.29137" lon="6.21523">
        <ele>1199.5</ele>
        <time>2022-01-27T08:12:22Z</time>
      </trkpt>
      <trkpt lat="45.29137" lon="6.21522">
        <ele>1199.7</ele>
        <time>2022-01-27T08:12:23Z</time>
      </trkpt>
      <trkpt lat="45.29138" lon="6.21521">
        <ele>1200</ele>
        <time>2022-01-27T08:12:25Z</time>
      </trkpt>
      <trkpt lat="45.29139" lon="6.2152">
        <ele>1200.3</ele>
        <time>2022-01-27T08:12:26Z</time>
      </trkpt>
      <trkpt lat="45.2914" lon="6.21518">
        <ele>1200.8</ele>
        <time>2022-01-27T08:12:28Z</time>
      </trkpt>
      <trkpt lat="45.29141" lon="6.21517">
        <ele>1201.1</ele>
        <time>2022-01-27T08:12:29Z</time>
      </trkpt>
      <trkpt lat="45.29142" lon="6.21516">
        <ele>1201.3</ele>
        <time>2022-01-27T08:12:32Z</time>
      </trkpt>
      <trkpt lat="45.29143" lon="6.21515">
        <ele>1201.6</ele>
        <time>2022-01-27T08:12:33Z</time>
      </trkpt>
      <trkpt lat="45.29143" lon="6.21514">
        <ele>1201.8</ele>
        <time>2022-01-27T08:12:34Z</time>
      </trkpt>
      <trkpt lat="45.29144" lon="6.21513">
        <ele>1202.1</ele>
        <time>2022-01-27T08:12:35Z</time>
      </trkpt>
      <trkpt lat="45.29145" lon="6.21512">
        <ele>1202.3</ele>
        <time>2022-01-27T08:12:36Z</time>
      </trkpt>
      <trkpt lat="45.29146" lon="6.21511">
        <ele>1202.5</ele>
        <time>2022-01-27T08:12:38Z</time>
      </trkpt>
      <trkpt lat="45.29146" lon="6.2151">
        <ele>1202.7</ele>
        <time>2022-01-27T08:12:39Z</time>
      </trkpt>
      <trkpt lat="45.29147" lon="6.2151">
        <ele>1202.9</ele>
        <time>2022-01-27T08:12:40Z</time>
      </trkpt>
      <trkpt lat="45.29148" lon="6.21508">
        <ele>1203.3</ele>
        <time>2022-01-27T08:12:42Z</time>
      </trkpt>
      <trkpt lat="45.29149" lon="6.21507">
        <ele>1203.5</ele>
        <time>2022-01-27T08:12:43Z</time>
      </trkpt>
      <trkpt lat="45.29149" lon="6.21506">
        <ele>1203.9</ele>
        <time>2022-01-27T08:12:45Z</time>
      </trkpt>
      <trkpt lat="45.2915" lon="6.21505">
        <ele>1204.1</ele>
        <time>2022-01-27T08:12:46Z</time>
      </trkpt>
      <trkpt lat="45.29151" lon="6.21503">
        <ele>1204.4</ele>
        <time>2022-01-27T08:12:47Z</time>
      </trkpt>
      <trkpt lat="45.29151" lon="6.21502">
        <ele>1204.6</ele>
        <time>2022-01-27T08:12:49Z</time>
      </trkpt>
      <trkpt lat="45.29151" lon="6.21501">
        <ele>1204.8</ele>
        <time>2022-01-27T08:12:50Z</time>
      </trkpt>
      <trkpt lat="45.29152" lon="6.21499">
        <ele>1205.2</ele>
        <time>2022-01-27T08:12:51Z</time>
      </trkpt>
      <trkpt lat="45.29152" lon="6.21498">
        <ele>1205.3</ele>
        <time>2022-01-27T08:12:53Z</time>
      </trkpt>
      <trkpt lat="45.29152" lon="6.21497">
        <ele>1205.5</ele>
        <time>2022-01-27T08:12:54Z</time>
      </trkpt>
      <trkpt lat="45.29153" lon="6.21497">
        <ele>1205.7</ele>
        <time>2022-01-27T08:12:56Z</time>
      </trkpt>
      <trkpt lat="45.29154" lon="6.21496">
        <ele>1205.9</ele>
        <time>2022-01-27T08:12:57Z</time>
      </trkpt>
      <trkpt lat="45.29155" lon="6.21495">
        <ele>1206.2</ele>
        <time>2022-01-27T08:12:59Z</time>
      </trkpt>
      <trkpt lat="45.29156" lon="6.21495">
        <ele>1206.4</ele>
        <time>2022-01-27T08:13:00Z</time>
      </trkpt>
      <trkpt lat="45.29157" lon="6.21495">
        <ele>1206.9</ele>
        <time>2022-01-27T08:13:02Z</time>
      </trkpt>
      <trkpt lat="45.29158" lon="6.21494">
        <ele>1207</ele>
        <time>2022-01-27T08:13:03Z</time>
      </trkpt>
      <trkpt lat="45.29159" lon="6.21494">
        <ele>1207.2</ele>
        <time>2022-01-27T08:13:04Z</time>
      </trkpt>
      <trkpt lat="45.29159" lon="6.21493">
        <ele>1207.3</ele>
        <time>2022-01-27T08:13:05Z</time>
      </trkpt>
      <trkpt lat="45.2916" lon="6.21492">
        <ele>1207.7</ele>
        <time>2022-01-27T08:13:07Z</time>
      </trkpt>
      <trkpt lat="45.29161" lon="6.21492">
        <ele>1207.9</ele>
        <time>2022-01-27T08:13:08Z</time>
      </trkpt>
      <trkpt lat="45.29162" lon="6.21492">
        <ele>1208</ele>
        <time>2022-01-27T08:13:09Z</time>
      </trkpt>
      <trkpt lat="45.29162" lon="6.21491">
        <ele>1208.2</ele>
        <time>2022-01-27T08:13:10Z</time>
      </trkpt>
      <trkpt lat="45.29163" lon="6.21491">
        <ele>1208.3</ele>
        <time>2022-01-27T08:13:11Z</time>
      </trkpt>
      <trkpt lat="45.29164" lon="6.21491">
        <ele>1208.5</ele>
        <time>2022-01-27T08:13:12Z</time>
      </trkpt>
      <trkpt lat="45.29165" lon="6.21491">
        <ele>1208.8</ele>
        <time>2022-01-27T08:13:15Z</time>
      </trkpt>
      <trkpt lat="45.29166" lon="6.21491">
        <ele>1209.1</ele>
        <time>2022-01-27T08:13:17Z</time>
      </trkpt>
      <trkpt lat="45.29167" lon="6.21491">
        <ele>1209.2</ele>
        <time>2022-01-27T08:13:18Z</time>
      </trkpt>
      <trkpt lat="45.29168" lon="6.21491">
        <ele>1209.5</ele>
        <time>2022-01-27T08:13:20Z</time>
      </trkpt>
      <trkpt lat="45.29169" lon="6.2149">
        <ele>1210</ele>
        <time>2022-01-27T08:13:22Z</time>
      </trkpt>
      <trkpt lat="45.2917" lon="6.2149">
        <ele>1210.1</ele>
        <time>2022-01-27T08:13:23Z</time>
      </trkpt>
      <trkpt lat="45.2917" lon="6.21489">
        <ele>1210.3</ele>
        <time>2022-01-27T08:13:24Z</time>
      </trkpt>
      <trkpt lat="45.29171" lon="6.21489">
        <ele>1210.4</ele>
        <time>2022-01-27T08:13:25Z</time>
      </trkpt>
      <trkpt lat="45.29172" lon="6.21489">
        <ele>1210.6</ele>
        <time>2022-01-27T08:13:26Z</time>
      </trkpt>
      <trkpt lat="45.29174" lon="6.21488">
        <ele>1211.1</ele>
        <time>2022-01-27T08:13:28Z</time>
      </trkpt>
      <trkpt lat="45.29175" lon="6.21488">
        <ele>1211.4</ele>
        <time>2022-01-27T08:13:30Z</time>
      </trkpt>
      <trkpt lat="45.29175" lon="6.21487">
        <ele>1211.5</ele>
        <time>2022-01-27T08:13:31Z</time>
      </trkpt>
      <trkpt lat="45.29176" lon="6.21487">
        <ele>1211.7</ele>
        <time>2022-01-27T08:13:32Z</time>
      </trkpt>
      <trkpt lat="45.29177" lon="6.21487">
        <ele>1211.9</ele>
        <time>2022-01-27T08:13:34Z</time>
      </trkpt>
      <trkpt lat="45.29178" lon="6.21486">
        <ele>1212.2</ele>
        <time>2022-01-27T08:13:35Z</time>
      </trkpt>
      <trkpt lat="45.29179" lon="6.21484">
        <ele>1212.7</ele>
        <time>2022-01-27T08:13:37Z</time>
      </trkpt>
      <trkpt lat="45.2918" lon="6.21484">
        <ele>1212.8</ele>
        <time>2022-01-27T08:13:38Z</time>
      </trkpt>
      <trkpt lat="45.29181" lon="6.21483">
        <ele>1213</ele>
        <time>2022-01-27T08:13:39Z</time>
      </trkpt>
      <trkpt lat="45.29181" lon="6.21481">
        <ele>1213.3</ele>
        <time>2022-01-27T08:13:40Z</time>
      </trkpt>
      <trkpt lat="45.29182" lon="6.2148">
        <ele>1213.7</ele>
        <time>2022-01-27T08:13:42Z</time>
      </trkpt>
      <trkpt lat="45.29183" lon="6.21479">
        <ele>1213.9</ele>
        <time>2022-01-27T08:13:43Z</time>
      </trkpt>
      <trkpt lat="45.29183" lon="6.21478">
        <ele>1214.1</ele>
        <time>2022-01-27T08:13:44Z</time>
      </trkpt>
      <trkpt lat="45.29184" lon="6.21477">
        <ele>1214.4</ele>
        <time>2022-01-27T08:13:45Z</time>
      </trkpt>
      <trkpt lat="45.29184" lon="6.21476">
        <ele>1214.6</ele>
        <time>2022-01-27T08:13:47Z</time>
      </trkpt>
      <trkpt lat="45.29185" lon="6.21475">
        <ele>1214.7</ele>
        <time>2022-01-27T08:13:48Z</time>
      </trkpt>
      <trkpt lat="45.29185" lon="6.21474">
        <ele>1214.8</ele>
        <time>2022-01-27T08:13:49Z</time>
      </trkpt>
      <trkpt lat="45.29184" lon="6.21474">
        <ele>1215</ele>
        <time>2022-01-27T08:13:50Z</time>
      </trkpt>
      <trkpt lat="45.29184" lon="6.21473">
        <ele>1215</ele>
        <time>2022-01-27T08:13:51Z</time>
      </trkpt>
      <trkpt lat="45.29184" lon="6.21472">
        <ele>1215.3</ele>
        <time>2022-01-27T08:13:53Z</time>
      </trkpt>
      <trkpt lat="45.29185" lon="6.21471">
        <ele>1215.4</ele>
        <time>2022-01-27T08:13:54Z</time>
      </trkpt>
      <trkpt lat="45.29185" lon="6.2147">
        <ele>1215.6</ele>
        <time>2022-01-27T08:13:57Z</time>
      </trkpt>
      <trkpt lat="45.29184" lon="6.2147">
        <ele>1215.7</ele>
        <time>2022-01-27T08:13:58Z</time>
      </trkpt>
      <trkpt lat="45.29187" lon="6.21452">
        <ele>1218.8</ele>
        <time>2022-01-27T08:15:03Z</time>
      </trkpt>
      <trkpt lat="45.29189" lon="6.21452">
        <ele>1219.1</ele>
        <time>2022-01-27T08:15:04Z</time>
      </trkpt>
      <trkpt lat="45.29189" lon="6.21451">
        <ele>1219.3</ele>
        <time>2022-01-27T08:15:05Z</time>
      </trkpt>
      <trkpt lat="45.2919" lon="6.2145">
        <ele>1219.6</ele>
        <time>2022-01-27T08:15:06Z</time>
      </trkpt>
      <trkpt lat="45.29191" lon="6.21448">
        <ele>1219.9</ele>
        <time>2022-01-27T08:15:07Z</time>
      </trkpt>
      <trkpt lat="45.29191" lon="6.21447">
        <ele>1220.2</ele>
        <time>2022-01-27T08:15:09Z</time>
      </trkpt>
      <trkpt lat="45.29192" lon="6.21446">
        <ele>1220.4</ele>
        <time>2022-01-27T08:15:10Z</time>
      </trkpt>
      <trkpt lat="45.29192" lon="6.21445">
        <ele>1220.5</ele>
        <time>2022-01-27T08:15:11Z</time>
      </trkpt>
      <trkpt lat="45.29192" lon="6.21444">
        <ele>1220.8</ele>
        <time>2022-01-27T08:15:12Z</time>
      </trkpt>
      <trkpt lat="45.29192" lon="6.21443">
        <ele>1220.9</ele>
        <time>2022-01-27T08:15:13Z</time>
      </trkpt>
      <trkpt lat="45.29192" lon="6.21442">
        <ele>1221.2</ele>
        <time>2022-01-27T08:15:15Z</time>
      </trkpt>
      <trkpt lat="45.29193" lon="6.21441">
        <ele>1221.4</ele>
        <time>2022-01-27T08:15:16Z</time>
      </trkpt>
      <trkpt lat="45.29194" lon="6.2144">
        <ele>1221.7</ele>
        <time>2022-01-27T08:15:17Z</time>
      </trkpt>
      <trkpt lat="45.29195" lon="6.21439">
        <ele>1221.9</ele>
        <time>2022-01-27T08:15:18Z</time>
      </trkpt>
      <trkpt lat="45.29195" lon="6.21438">
        <ele>1222.2</ele>
        <time>2022-01-27T08:15:19Z</time>
      </trkpt>
      <trkpt lat="45.29196" lon="6.21438">
        <ele>1222.4</ele>
        <time>2022-01-27T08:15:20Z</time>
      </trkpt>
      <trkpt lat="45.29197" lon="6.21437">
        <ele>1222.7</ele>
        <time>2022-01-27T08:15:21Z</time>
      </trkpt>
      <trkpt lat="45.292" lon="6.21434">
        <ele>1223.5</ele>
        <time>2022-01-27T08:15:22Z</time>
      </trkpt>
      <trkpt lat="45.29201" lon="6.21432">
        <ele>1224</ele>
        <time>2022-01-27T08:15:23Z</time>
      </trkpt>
      <trkpt lat="45.29203" lon="6.21429">
        <ele>1224.6</ele>
        <time>2022-01-27T08:15:24Z</time>
      </trkpt>
      <trkpt lat="45.29204" lon="6.21427">
        <ele>1225.2</ele>
        <time>2022-01-27T08:16:25Z</time>
      </trkpt>
      <trkpt lat="45.29206" lon="6.21424">
        <ele>1225.8</ele>
        <time>2022-01-27T08:16:27Z</time>
      </trkpt>
      <trkpt lat="45.29208" lon="6.21422">
        <ele>1226.3</ele>
        <time>2022-01-27T08:16:28Z</time>
      </trkpt>
      <trkpt lat="45.29209" lon="6.21419">
        <ele>1226.9</ele>
        <time>2022-01-27T08:16:30Z</time>
      </trkpt>
      <trkpt lat="45.29211" lon="6.21417">
        <ele>1227.5</ele>
        <time>2022-01-27T08:16:31Z</time>
      </trkpt>
      <trkpt lat="45.29212" lon="6.21415">
        <ele>1228</ele>
        <time>2022-01-27T08:16:32Z</time>
      </trkpt>
      <trkpt lat="45.29214" lon="6.21412">
        <ele>1228.6</ele>
        <time>2022-01-27T08:16:33Z</time>
      </trkpt>
      <trkpt lat="45.29216" lon="6.2141">
        <ele>1229.2</ele>
        <time>2022-01-27T08:16:34Z</time>
      </trkpt>
      <trkpt lat="45.29217" lon="6.21407">
        <ele>1229.7</ele>
        <time>2022-01-27T08:16:35Z</time>
      </trkpt>
      <trkpt lat="45.29219" lon="6.21405">
        <ele>1230.4</ele>
        <time>2022-01-27T08:16:36Z</time>
      </trkpt>
      <trkpt lat="45.2922" lon="6.21404">
        <ele>1230.7</ele>
        <time>2022-01-27T08:16:38Z</time>
      </trkpt>
      <trkpt lat="45.29222" lon="6.21403">
        <ele>1231.1</ele>
        <time>2022-01-27T08:16:39Z</time>
      </trkpt>
      <trkpt lat="45.29223" lon="6.21402">
        <ele>1231.4</ele>
        <time>2022-01-27T08:16:41Z</time>
      </trkpt>
      <trkpt lat="45.29224" lon="6.21401">
        <ele>1231.8</ele>
        <time>2022-01-27T08:16:42Z</time>
      </trkpt>
      <trkpt lat="45.29226" lon="6.21401">
        <ele>1232.1</ele>
        <time>2022-01-27T08:16:44Z</time>
      </trkpt>
      <trkpt lat="45.29227" lon="6.214">
        <ele>1232.6</ele>
        <time>2022-01-27T08:16:45Z</time>
      </trkpt>
      <trkpt lat="45.29229" lon="6.214">
        <ele>1232.9</ele>
        <time>2022-01-27T08:16:47Z</time>
      </trkpt>
      <trkpt lat="45.2923" lon="6.21399">
        <ele>1233.2</ele>
        <time>2022-01-27T08:16:48Z</time>
      </trkpt>
      <trkpt lat="45.2923" lon="6.21398">
        <ele>1233.4</ele>
        <time>2022-01-27T08:16:49Z</time>
      </trkpt>
      <trkpt lat="45.29231" lon="6.21397">
        <ele>1233.6</ele>
        <time>2022-01-27T08:16:50Z</time>
      </trkpt>
      <trkpt lat="45.29232" lon="6.21397">
        <ele>1233.8</ele>
        <time>2022-01-27T08:16:51Z</time>
      </trkpt>
      <trkpt lat="45.29233" lon="6.21397">
        <ele>1234.2</ele>
        <time>2022-01-27T08:16:53Z</time>
      </trkpt>
      <trkpt lat="45.29234" lon="6.21397">
        <ele>1234.3</ele>
        <time>2022-01-27T08:16:54Z</time>
      </trkpt>
      <trkpt lat="45.29235" lon="6.21396">
        <ele>1234.5</ele>
        <time>2022-01-27T08:16:57Z</time>
      </trkpt>
      <trkpt lat="45.29233" lon="6.21397">
        <ele>1235.2</ele>
        <time>2022-01-27T08:17:23Z</time>
      </trkpt>
      <trkpt lat="45.29232" lon="6.21398">
        <ele>1235.4</ele>
        <time>2022-01-27T08:17:24Z</time>
      </trkpt>
      <trkpt lat="45.29232" lon="6.21399">
        <ele>1235.6</ele>
        <time>2022-01-27T08:17:26Z</time>
      </trkpt>
      <trkpt lat="45.29233" lon="6.21397">
        <ele>1236</ele>
        <time>2022-01-27T08:17:29Z</time>
      </trkpt>
      <trkpt lat="45.29233" lon="6.21398">
        <ele>1236.1</ele>
        <time>2022-01-27T08:17:30Z</time>
      </trkpt>
      <trkpt lat="45.29232" lon="6.21398">
        <ele>1236.1</ele>
        <time>2022-01-27T08:17:31Z</time>
      </trkpt>
      <trkpt lat="45.29234" lon="6.21396">
        <ele>1236.9</ele>
        <time>2022-01-27T08:17:34Z</time>
      </trkpt>
      <trkpt lat="45.29235" lon="6.21393">
        <ele>1237.5</ele>
        <time>2022-01-27T08:17:35Z</time>
      </trkpt>
      <trkpt lat="45.29236" lon="6.21391">
        <ele>1237.9</ele>
        <time>2022-01-27T08:17:37Z</time>
      </trkpt>
      <trkpt lat="45.29233" lon="6.21363">
        <ele>1242</ele>
        <time>2022-01-27T08:18:33Z</time>
      </trkpt>
      <trkpt lat="45.29234" lon="6.21362">
        <ele>1242.2</ele>
        <time>2022-01-27T08:18:35Z</time>
      </trkpt>
      <trkpt lat="45.29234" lon="6.21361">
        <ele>1242.4</ele>
        <time>2022-01-27T08:18:36Z</time>
      </trkpt>
      <trkpt lat="45.29234" lon="6.2136">
        <ele>1242.5</ele>
        <time>2022-01-27T08:18:37Z</time>
      </trkpt>
      <trkpt lat="45.29235" lon="6.21359">
        <ele>1242.7</ele>
        <time>2022-01-27T08:18:38Z</time>
      </trkpt>
      <trkpt lat="45.29235" lon="6.21358">
        <ele>1242.8</ele>
        <time>2022-01-27T08:18:39Z</time>
      </trkpt>
      <trkpt lat="45.29236" lon="6.21356">
        <ele>1243.1</ele>
        <time>2022-01-27T08:18:41Z</time>
      </trkpt>
      <trkpt lat="45.29236" lon="6.21355">
        <ele>1243.2</ele>
        <time>2022-01-27T08:18:42Z</time>
      </trkpt>
      <trkpt lat="45.29236" lon="6.21352">
        <ele>1243.6</ele>
        <time>2022-01-27T08:18:43Z</time>
      </trkpt>
      <trkpt lat="45.29237" lon="6.21349">
        <ele>1244</ele>
        <time>2022-01-27T08:18:45Z</time>
      </trkpt>
      <trkpt lat="45.29237" lon="6.21345">
        <ele>1244.5</ele>
        <time>2022-01-27T08:18:47Z</time>
      </trkpt>
      <trkpt lat="45.29237" lon="6.21343">
        <ele>1244.7</ele>
        <time>2022-01-27T08:18:48Z</time>
      </trkpt>
      <trkpt lat="45.29238" lon="6.21341">
        <ele>1245</ele>
        <time>2022-01-27T08:18:50Z</time>
      </trkpt>
      <trkpt lat="45.29238" lon="6.2134">
        <ele>1245.2</ele>
        <time>2022-01-27T08:18:51Z</time>
      </trkpt>
      <trkpt lat="45.2924" lon="6.21337">
        <ele>1245.6</ele>
        <time>2022-01-27T08:18:53Z</time>
      </trkpt>
      <trkpt lat="45.29241" lon="6.21336">
        <ele>1245.9</ele>
        <time>2022-01-27T08:18:55Z</time>
      </trkpt>
      <trkpt lat="45.29242" lon="6.21334">
        <ele>1246.2</ele>
        <time>2022-01-27T08:18:56Z</time>
      </trkpt>
      <trkpt lat="45.29244" lon="6.21332">
        <ele>1246.6</ele>
        <time>2022-01-27T08:18:58Z</time>
      </trkpt>
      <trkpt lat="45.29245" lon="6.21331">
        <ele>1246.8</ele>
        <time>2022-01-27T08:19:00Z</time>
      </trkpt>
      <trkpt lat="45.29246" lon="6.2133">
        <ele>1247</ele>
        <time>2022-01-27T08:19:01Z</time>
      </trkpt>
      <trkpt lat="45.29247" lon="6.21329">
        <ele>1247.3</ele>
        <time>2022-01-27T08:19:02Z</time>
      </trkpt>
      <trkpt lat="45.29248" lon="6.21328">
        <ele>1247.6</ele>
        <time>2022-01-27T08:19:04Z</time>
      </trkpt>
      <trkpt lat="45.29249" lon="6.21327">
        <ele>1247.7</ele>
        <time>2022-01-27T08:19:05Z</time>
      </trkpt>
      <trkpt lat="45.29249" lon="6.21326">
        <ele>1247.9</ele>
        <time>2022-01-27T08:19:06Z</time>
      </trkpt>
      <trkpt lat="45.2925" lon="6.21324">
        <ele>1248.1</ele>
        <time>2022-01-27T08:19:07Z</time>
      </trkpt>
      <trkpt lat="45.29251" lon="6.21322">
        <ele>1248.4</ele>
        <time>2022-01-27T08:19:09Z</time>
      </trkpt>
      <trkpt lat="45.29252" lon="6.21321">
        <ele>1248.7</ele>
        <time>2022-01-27T08:19:10Z</time>
      </trkpt>
      <trkpt lat="45.29253" lon="6.21319">
        <ele>1248.9</ele>
        <time>2022-01-27T08:19:12Z</time>
      </trkpt>
      <trkpt lat="45.29254" lon="6.21318">
        <ele>1249.2</ele>
        <time>2022-01-27T08:19:13Z</time>
      </trkpt>
      <trkpt lat="45.29256" lon="6.21316">
        <ele>1249.6</ele>
        <time>2022-01-27T08:19:15Z</time>
      </trkpt>
      <trkpt lat="45.29257" lon="6.21315">
        <ele>1249.8</ele>
        <time>2022-01-27T08:19:16Z</time>
      </trkpt>
      <trkpt lat="45.29257" lon="6.21314">
        <ele>1249.9</ele>
        <time>2022-01-27T08:19:17Z</time>
      </trkpt>
      <trkpt lat="45.29258" lon="6.21313">
        <ele>1250.1</ele>
        <time>2022-01-27T08:19:19Z</time>
      </trkpt>
      <trkpt lat="45.29259" lon="6.21312">
        <ele>1250.3</ele>
        <time>2022-01-27T08:19:20Z</time>
      </trkpt>
      <trkpt lat="45.2926" lon="6.21311">
        <ele>1250.5</ele>
        <time>2022-01-27T08:19:21Z</time>
      </trkpt>
      <trkpt lat="45.29262" lon="6.2131">
        <ele>1250.9</ele>
        <time>2022-01-27T08:19:24Z</time>
      </trkpt>
      <trkpt lat="45.29262" lon="6.21309">
        <ele>1251</ele>
        <time>2022-01-27T08:19:25Z</time>
      </trkpt>
      <trkpt lat="45.29263" lon="6.21309">
        <ele>1251.1</ele>
        <time>2022-01-27T08:19:26Z</time>
      </trkpt>
      <trkpt lat="45.29263" lon="6.21308">
        <ele>1251.2</ele>
        <time>2022-01-27T08:19:27Z</time>
      </trkpt>
      <trkpt lat="45.29264" lon="6.21307">
        <ele>1251.5</ele>
        <time>2022-01-27T08:19:28Z</time>
      </trkpt>
      <trkpt lat="45.29265" lon="6.21306">
        <ele>1251.6</ele>
        <time>2022-01-27T08:19:30Z</time>
      </trkpt>
      <trkpt lat="45.29265" lon="6.21305">
        <ele>1251.7</ele>
        <time>2022-01-27T08:19:31Z</time>
      </trkpt>
      <trkpt lat="45.29266" lon="6.21304">
        <ele>1252</ele>
        <time>2022-01-27T08:19:33Z</time>
      </trkpt>
      <trkpt lat="45.29267" lon="6.21303">
        <ele>1252.2</ele>
        <time>2022-01-27T08:19:35Z</time>
      </trkpt>
      <trkpt lat="45.29268" lon="6.21302">
        <ele>1252.5</ele>
        <time>2022-01-27T08:19:37Z</time>
      </trkpt>
      <trkpt lat="45.2927" lon="6.21301">
        <ele>1252.8</ele>
        <time>2022-01-27T08:19:39Z</time>
      </trkpt>
      <trkpt lat="45.29271" lon="6.213">
        <ele>1253</ele>
        <time>2022-01-27T08:19:40Z</time>
      </trkpt>
      <trkpt lat="45.29272" lon="6.213">
        <ele>1253.2</ele>
        <time>2022-01-27T08:19:42Z</time>
      </trkpt>
      <trkpt lat="45.29273" lon="6.21299">
        <ele>1253.4</ele>
        <time>2022-01-27T08:19:43Z</time>
      </trkpt>
      <trkpt lat="45.29274" lon="6.21297">
        <ele>1253.6</ele>
        <time>2022-01-27T08:19:44Z</time>
      </trkpt>
      <trkpt lat="45.29274" lon="6.21296">
        <ele>1253.8</ele>
        <time>2022-01-27T08:19:45Z</time>
      </trkpt>
      <trkpt lat="45.29275" lon="6.21295">
        <ele>1254</ele>
        <time>2022-01-27T08:19:47Z</time>
      </trkpt>
      <trkpt lat="45.29275" lon="6.21293">
        <ele>1254.3</ele>
        <time>2022-01-27T08:19:48Z</time>
      </trkpt>
      <trkpt lat="45.29276" lon="6.21292">
        <ele>1254.5</ele>
        <time>2022-01-27T08:19:50Z</time>
      </trkpt>
      <trkpt lat="45.29276" lon="6.21291">
        <ele>1254.6</ele>
        <time>2022-01-27T08:19:51Z</time>
      </trkpt>
      <trkpt lat="45.29277" lon="6.2129">
        <ele>1254.7</ele>
        <time>2022-01-27T08:19:52Z</time>
      </trkpt>
      <trkpt lat="45.29278" lon="6.21288">
        <ele>1255</ele>
        <time>2022-01-27T08:19:54Z</time>
      </trkpt>
      <trkpt lat="45.29278" lon="6.21287">
        <ele>1255.2</ele>
        <time>2022-01-27T08:19:55Z</time>
      </trkpt>
      <trkpt lat="45.29279" lon="6.21285">
        <ele>1255.5</ele>
        <time>2022-01-27T08:19:56Z</time>
      </trkpt>
      <trkpt lat="45.29279" lon="6.21284">
        <ele>1255.6</ele>
        <time>2022-01-27T08:19:57Z</time>
      </trkpt>
      <trkpt lat="45.29279" lon="6.21283">
        <ele>1255.7</ele>
        <time>2022-01-27T08:19:58Z</time>
      </trkpt>
      <trkpt lat="45.2928" lon="6.21282">
        <ele>1255.8</ele>
        <time>2022-01-27T08:19:59Z</time>
      </trkpt>
      <trkpt lat="45.2928" lon="6.21281">
        <ele>1256</ele>
        <time>2022-01-27T08:20:00Z</time>
      </trkpt>
      <trkpt lat="45.2928" lon="6.2128">
        <ele>1256.1</ele>
        <time>2022-01-27T08:20:01Z</time>
      </trkpt>
      <trkpt lat="45.2928" lon="6.21279">
        <ele>1256.2</ele>
        <time>2022-01-27T08:20:02Z</time>
      </trkpt>
      <trkpt lat="45.29281" lon="6.21276">
        <ele>1256.6</ele>
        <time>2022-01-27T08:20:04Z</time>
      </trkpt>
      <trkpt lat="45.29281" lon="6.21275">
        <ele>1256.7</ele>
        <time>2022-01-27T08:20:05Z</time>
      </trkpt>
      <trkpt lat="45.29282" lon="6.21275">
        <ele>1256.8</ele>
        <time>2022-01-27T08:20:06Z</time>
      </trkpt>
      <trkpt lat="45.29282" lon="6.21273">
        <ele>1257</ele>
        <time>2022-01-27T08:20:07Z</time>
      </trkpt>
      <trkpt lat="45.29283" lon="6.21273">
        <ele>1257.2</ele>
        <time>2022-01-27T08:20:08Z</time>
      </trkpt>
      <trkpt lat="45.29284" lon="6.21271">
        <ele>1257.4</ele>
        <time>2022-01-27T08:20:09Z</time>
      </trkpt>
      <trkpt lat="45.29285" lon="6.2127">
        <ele>1257.6</ele>
        <time>2022-01-27T08:20:10Z</time>
      </trkpt>
      <trkpt lat="45.29285" lon="6.21269">
        <ele>1257.9</ele>
        <time>2022-01-27T08:20:12Z</time>
      </trkpt>
      <trkpt lat="45.29286" lon="6.21267">
        <ele>1258</ele>
        <time>2022-01-27T08:20:13Z</time>
      </trkpt>
      <trkpt lat="45.29286" lon="6.21265">
        <ele>1258.3</ele>
        <time>2022-01-27T08:20:14Z</time>
      </trkpt>
      <trkpt lat="45.29286" lon="6.21263">
        <ele>1258.5</ele>
        <time>2022-01-27T08:20:16Z</time>
      </trkpt>
      <trkpt lat="45.29285" lon="6.21262">
        <ele>1258.7</ele>
        <time>2022-01-27T08:20:17Z</time>
      </trkpt>
      <trkpt lat="45.29286" lon="6.2126">
        <ele>1259</ele>
        <time>2022-01-27T08:20:18Z</time>
      </trkpt>
      <trkpt lat="45.29286" lon="6.21259">
        <ele>1259.1</ele>
        <time>2022-01-27T08:20:20Z</time>
      </trkpt>
      <trkpt lat="45.29286" lon="6.21258">
        <ele>1259.2</ele>
        <time>2022-01-27T08:20:21Z</time>
      </trkpt>
      <trkpt lat="45.29286" lon="6.21257">
        <ele>1259.3</ele>
        <time>2022-01-27T08:20:23Z</time>
      </trkpt>
      <trkpt lat="45.29287" lon="6.21256">
        <ele>1259.5</ele>
        <time>2022-01-27T08:20:24Z</time>
      </trkpt>
      <trkpt lat="45.29287" lon="6.21255">
        <ele>1259.6</ele>
        <time>2022-01-27T08:20:25Z</time>
      </trkpt>
      <trkpt lat="45.29287" lon="6.21254">
        <ele>1259.7</ele>
        <time>2022-01-27T08:20:26Z</time>
      </trkpt>
      <trkpt lat="45.29288" lon="6.21253">
        <ele>1260</ele>
        <time>2022-01-27T08:20:27Z</time>
      </trkpt>
      <trkpt lat="45.29289" lon="6.21251">
        <ele>1260.2</ele>
        <time>2022-01-27T08:20:29Z</time>
      </trkpt>
      <trkpt lat="45.2929" lon="6.2125">
        <ele>1260.4</ele>
        <time>2022-01-27T08:20:30Z</time>
      </trkpt>
      <trkpt lat="45.2929" lon="6.21249">
        <ele>1260.6</ele>
        <time>2022-01-27T08:20:31Z</time>
      </trkpt>
      <trkpt lat="45.29291" lon="6.21248">
        <ele>1260.7</ele>
        <time>2022-01-27T08:20:32Z</time>
      </trkpt>
      <trkpt lat="45.29291" lon="6.21247">
        <ele>1260.9</ele>
        <time>2022-01-27T08:20:33Z</time>
      </trkpt>
      <trkpt lat="45.29292" lon="6.21246">
        <ele>1261.2</ele>
        <time>2022-01-27T08:20:34Z</time>
      </trkpt>
      <trkpt lat="45.29293" lon="6.21245">
        <ele>1261.3</ele>
        <time>2022-01-27T08:20:35Z</time>
      </trkpt>
      <trkpt lat="45.29293" lon="6.21244">
        <ele>1261.5</ele>
        <time>2022-01-27T08:20:36Z</time>
      </trkpt>
      <trkpt lat="45.29294" lon="6.21242">
        <ele>1261.6</ele>
        <time>2022-01-27T08:20:37Z</time>
      </trkpt>
      <trkpt lat="45.29294" lon="6.21241">
        <ele>1261.8</ele>
        <time>2022-01-27T08:20:38Z</time>
      </trkpt>
      <trkpt lat="45.29294" lon="6.21239">
        <ele>1262</ele>
        <time>2022-01-27T08:20:39Z</time>
      </trkpt>
      <trkpt lat="45.29295" lon="6.21238">
        <ele>1262.2</ele>
        <time>2022-01-27T08:20:40Z</time>
      </trkpt>
      <trkpt lat="45.29295" lon="6.21237">
        <ele>1262.3</ele>
        <time>2022-01-27T08:20:41Z</time>
      </trkpt>
      <trkpt lat="45.29295" lon="6.21236">
        <ele>1262.5</ele>
        <time>2022-01-27T08:20:42Z</time>
      </trkpt>
      <trkpt lat="45.29295" lon="6.21234">
        <ele>1262.7</ele>
        <time>2022-01-27T08:20:43Z</time>
      </trkpt>
      <trkpt lat="45.29295" lon="6.21233">
        <ele>1262.9</ele>
        <time>2022-01-27T08:20:44Z</time>
      </trkpt>
      <trkpt lat="45.29296" lon="6.21232">
        <ele>1263</ele>
        <time>2022-01-27T08:20:45Z</time>
      </trkpt>
      <trkpt lat="45.29296" lon="6.21231">
        <ele>1263.1</ele>
        <time>2022-01-27T08:20:46Z</time>
      </trkpt>
      <trkpt lat="45.29296" lon="6.2123">
        <ele>1263.3</ele>
        <time>2022-01-27T08:20:47Z</time>
      </trkpt>
      <trkpt lat="45.29296" lon="6.21228">
        <ele>1263.5</ele>
        <time>2022-01-27T08:20:48Z</time>
      </trkpt>
      <trkpt lat="45.29297" lon="6.21227">
        <ele>1263.6</ele>
        <time>2022-01-27T08:20:49Z</time>
      </trkpt>
      <trkpt lat="45.29297" lon="6.21226">
        <ele>1263.8</ele>
        <time>2022-01-27T08:20:50Z</time>
      </trkpt>
      <trkpt lat="45.29297" lon="6.21224">
        <ele>1264</ele>
        <time>2022-01-27T08:20:52Z</time>
      </trkpt>
      <trkpt lat="45.29297" lon="6.21221">
        <ele>1264.4</ele>
        <time>2022-01-27T08:20:54Z</time>
      </trkpt>
      <trkpt lat="45.29297" lon="6.2122">
        <ele>1264.5</ele>
        <time>2022-01-27T08:20:55Z</time>
      </trkpt>
      <trkpt lat="45.29297" lon="6.21219">
        <ele>1264.7</ele>
        <time>2022-01-27T08:20:56Z</time>
      </trkpt>
      <trkpt lat="45.29298" lon="6.21218">
        <ele>1264.8</ele>
        <time>2022-01-27T08:20:57Z</time>
      </trkpt>
      <trkpt lat="45.29298" lon="6.21217">
        <ele>1265</ele>
        <time>2022-01-27T08:20:58Z</time>
      </trkpt>
      <trkpt lat="45.29298" lon="6.21215">
        <ele>1265.2</ele>
        <time>2022-01-27T08:20:59Z</time>
      </trkpt>
      <trkpt lat="45.29298" lon="6.21213">
        <ele>1265.4</ele>
        <time>2022-01-27T08:21:00Z</time>
      </trkpt>
      <trkpt lat="45.29298" lon="6.21211">
        <ele>1265.6</ele>
        <time>2022-01-27T08:21:02Z</time>
      </trkpt>
      <trkpt lat="45.29297" lon="6.21209">
        <ele>1265.9</ele>
        <time>2022-01-27T08:21:04Z</time>
      </trkpt>
      <trkpt lat="45.29297" lon="6.21208">
        <ele>1266</ele>
        <time>2022-01-27T08:21:05Z</time>
      </trkpt>
      <trkpt lat="45.29297" lon="6.21207">
        <ele>1266.2</ele>
        <time>2022-01-27T08:21:06Z</time>
      </trkpt>
      <trkpt lat="45.29297" lon="6.21206">
        <ele>1266.3</ele>
        <time>2022-01-27T08:21:07Z</time>
      </trkpt>
      <trkpt lat="45.29297" lon="6.21205">
        <ele>1266.4</ele>
        <time>2022-01-27T08:21:08Z</time>
      </trkpt>
      <trkpt lat="45.29296" lon="6.21204">
        <ele>1266.6</ele>
        <time>2022-01-27T08:21:09Z</time>
      </trkpt>
      <trkpt lat="45.29297" lon="6.21202">
        <ele>1266.8</ele>
        <time>2022-01-27T08:21:10Z</time>
      </trkpt>
      <trkpt lat="45.29297" lon="6.212">
        <ele>1267</ele>
        <time>2022-01-27T08:21:12Z</time>
      </trkpt>
      <trkpt lat="45.29296" lon="6.21197">
        <ele>1267.4</ele>
        <time>2022-01-27T08:21:14Z</time>
      </trkpt>
      <trkpt lat="45.29296" lon="6.21196">
        <ele>1267.5</ele>
        <time>2022-01-27T08:21:15Z</time>
      </trkpt>
      <trkpt lat="45.29296" lon="6.21194">
        <ele>1267.8</ele>
        <time>2022-01-27T08:21:17Z</time>
      </trkpt>
      <trkpt lat="45.29296" lon="6.21193">
        <ele>1267.9</ele>
        <time>2022-01-27T08:21:18Z</time>
      </trkpt>
      <trkpt lat="45.29296" lon="6.21191">
        <ele>1268.2</ele>
        <time>2022-01-27T08:21:19Z</time>
      </trkpt>
      <trkpt lat="45.29296" lon="6.2119">
        <ele>1268.4</ele>
        <time>2022-01-27T08:21:20Z</time>
      </trkpt>
      <trkpt lat="45.29296" lon="6.21189">
        <ele>1268.5</ele>
        <time>2022-01-27T08:21:22Z</time>
      </trkpt>
      <trkpt lat="45.29296" lon="6.21187">
        <ele>1268.7</ele>
        <time>2022-01-27T08:21:23Z</time>
      </trkpt>
      <trkpt lat="45.29297" lon="6.21185">
        <ele>1269</ele>
        <time>2022-01-27T08:21:24Z</time>
      </trkpt>
      <trkpt lat="45.29297" lon="6.21184">
        <ele>1269.2</ele>
        <time>2022-01-27T08:21:26Z</time>
      </trkpt>
      <trkpt lat="45.29297" lon="6.21182">
        <ele>1269.4</ele>
        <time>2022-01-27T08:21:27Z</time>
      </trkpt>
      <trkpt lat="45.29298" lon="6.2118">
        <ele>1269.7</ele>
        <time>2022-01-27T08:21:29Z</time>
      </trkpt>
      <trkpt lat="45.29298" lon="6.21178">
        <ele>1269.9</ele>
        <time>2022-01-27T08:21:30Z</time>
      </trkpt>
      <trkpt lat="45.29299" lon="6.21177">
        <ele>1270.1</ele>
        <time>2022-01-27T08:21:32Z</time>
      </trkpt>
      <trkpt lat="45.293" lon="6.21174">
        <ele>1270.5</ele>
        <time>2022-01-27T08:21:34Z</time>
      </trkpt>
      <trkpt lat="45.293" lon="6.21173">
        <ele>1270.6</ele>
        <time>2022-01-27T08:21:35Z</time>
      </trkpt>
      <trkpt lat="45.29301" lon="6.21172">
        <ele>1270.7</ele>
        <time>2022-01-27T08:21:36Z</time>
      </trkpt>
      <trkpt lat="45.29301" lon="6.21171">
        <ele>1270.9</ele>
        <time>2022-01-27T08:21:37Z</time>
      </trkpt>
      <trkpt lat="45.29301" lon="6.2117">
        <ele>1271.1</ele>
        <time>2022-01-27T08:21:38Z</time>
      </trkpt>
      <trkpt lat="45.29302" lon="6.21168">
        <ele>1271.3</ele>
        <time>2022-01-27T08:21:39Z</time>
      </trkpt>
      <trkpt lat="45.29302" lon="6.21167">
        <ele>1271.5</ele>
        <time>2022-01-27T08:21:40Z</time>
      </trkpt>
      <trkpt lat="45.29302" lon="6.21166">
        <ele>1271.6</ele>
        <time>2022-01-27T08:21:41Z</time>
      </trkpt>
      <trkpt lat="45.29302" lon="6.21164">
        <ele>1271.8</ele>
        <time>2022-01-27T08:21:42Z</time>
      </trkpt>
      <trkpt lat="45.29303" lon="6.21161">
        <ele>1272.2</ele>
        <time>2022-01-27T08:21:44Z</time>
      </trkpt>
      <trkpt lat="45.29303" lon="6.2116">
        <ele>1272.4</ele>
        <time>2022-01-27T08:21:45Z</time>
      </trkpt>
      <trkpt lat="45.29304" lon="6.21158">
        <ele>1272.6</ele>
        <time>2022-01-27T08:21:46Z</time>
      </trkpt>
      <trkpt lat="45.29304" lon="6.21157">
        <ele>1272.8</ele>
        <time>2022-01-27T08:21:48Z</time>
      </trkpt>
      <trkpt lat="45.29305" lon="6.21155">
        <ele>1273.1</ele>
        <time>2022-01-27T08:21:49Z</time>
      </trkpt>
      <trkpt lat="45.29305" lon="6.21154">
        <ele>1273.2</ele>
        <time>2022-01-27T08:21:50Z</time>
      </trkpt>
      <trkpt lat="45.29305" lon="6.21153">
        <ele>1273.3</ele>
        <time>2022-01-27T08:21:51Z</time>
      </trkpt>
      <trkpt lat="45.29306" lon="6.21152">
        <ele>1273.5</ele>
        <time>2022-01-27T08:21:52Z</time>
      </trkpt>
      <trkpt lat="45.29306" lon="6.2115">
        <ele>1273.7</ele>
        <time>2022-01-27T08:21:53Z</time>
      </trkpt>
      <trkpt lat="45.29307" lon="6.21148">
        <ele>1274</ele>
        <time>2022-01-27T08:21:54Z</time>
      </trkpt>
      <trkpt lat="45.29307" lon="6.21146">
        <ele>1274.2</ele>
        <time>2022-01-27T08:21:56Z</time>
      </trkpt>
      <trkpt lat="45.29308" lon="6.21145">
        <ele>1274.4</ele>
        <time>2022-01-27T08:21:57Z</time>
      </trkpt>
      <trkpt lat="45.29308" lon="6.21144">
        <ele>1274.6</ele>
        <time>2022-01-27T08:21:58Z</time>
      </trkpt>
      <trkpt lat="45.29309" lon="6.21143">
        <ele>1274.8</ele>
        <time>2022-01-27T08:21:59Z</time>
      </trkpt>
      <trkpt lat="45.29309" lon="6.21141">
        <ele>1275</ele>
        <time>2022-01-27T08:22:00Z</time>
      </trkpt>
      <trkpt lat="45.2931" lon="6.2114">
        <ele>1275.1</ele>
        <time>2022-01-27T08:22:01Z</time>
      </trkpt>
      <trkpt lat="45.2931" lon="6.21139">
        <ele>1275.3</ele>
        <time>2022-01-27T08:22:02Z</time>
      </trkpt>
      <trkpt lat="45.29311" lon="6.21138">
        <ele>1275.5</ele>
        <time>2022-01-27T08:22:03Z</time>
      </trkpt>
      <trkpt lat="45.29311" lon="6.21136">
        <ele>1275.7</ele>
        <time>2022-01-27T08:22:04Z</time>
      </trkpt>
      <trkpt lat="45.29312" lon="6.21135">
        <ele>1275.9</ele>
        <time>2022-01-27T08:22:05Z</time>
      </trkpt>
      <trkpt lat="45.29312" lon="6.21133">
        <ele>1276.1</ele>
        <time>2022-01-27T08:22:06Z</time>
      </trkpt>
      <trkpt lat="45.29312" lon="6.21132">
        <ele>1276.3</ele>
        <time>2022-01-27T08:22:08Z</time>
      </trkpt>
      <trkpt lat="45.29312" lon="6.21129">
        <ele>1276.6</ele>
        <time>2022-01-27T08:22:09Z</time>
      </trkpt>
      <trkpt lat="45.29312" lon="6.21128">
        <ele>1276.8</ele>
        <time>2022-01-27T08:22:11Z</time>
      </trkpt>
      <trkpt lat="45.29312" lon="6.21127">
        <ele>1276.9</ele>
        <time>2022-01-27T08:22:12Z</time>
      </trkpt>
      <trkpt lat="45.29312" lon="6.21125">
        <ele>1277.2</ele>
        <time>2022-01-27T08:22:13Z</time>
      </trkpt>
      <trkpt lat="45.29312" lon="6.21123">
        <ele>1277.4</ele>
        <time>2022-01-27T08:22:15Z</time>
      </trkpt>
      <trkpt lat="45.29312" lon="6.21122">
        <ele>1277.6</ele>
        <time>2022-01-27T08:22:16Z</time>
      </trkpt>
      <trkpt lat="45.29313" lon="6.2112">
        <ele>1277.8</ele>
        <time>2022-01-27T08:22:17Z</time>
      </trkpt>
      <trkpt lat="45.29313" lon="6.21117">
        <ele>1278.2</ele>
        <time>2022-01-27T08:22:19Z</time>
      </trkpt>
      <trkpt lat="45.29313" lon="6.21115">
        <ele>1278.4</ele>
        <time>2022-01-27T08:22:21Z</time>
      </trkpt>
      <trkpt lat="45.29314" lon="6.21113">
        <ele>1278.7</ele>
        <time>2022-01-27T08:22:22Z</time>
      </trkpt>
      <trkpt lat="45.29314" lon="6.21109">
        <ele>1279.2</ele>
        <time>2022-01-27T08:22:24Z</time>
      </trkpt>
      <trkpt lat="45.29314" lon="6.21108">
        <ele>1279.3</ele>
        <time>2022-01-27T08:22:26Z</time>
      </trkpt>
      <trkpt lat="45.29314" lon="6.21106">
        <ele>1279.5</ele>
        <time>2022-01-27T08:22:27Z</time>
      </trkpt>
      <trkpt lat="45.29314" lon="6.21105">
        <ele>1279.7</ele>
        <time>2022-01-27T08:22:30Z</time>
      </trkpt>
      <trkpt lat="45.29315" lon="6.21103">
        <ele>1279.9</ele>
        <time>2022-01-27T08:22:31Z</time>
      </trkpt>
      <trkpt lat="45.29315" lon="6.21102">
        <ele>1280.1</ele>
        <time>2022-01-27T08:22:32Z</time>
      </trkpt>
      <trkpt lat="45.29315" lon="6.21101">
        <ele>1280.2</ele>
        <time>2022-01-27T08:22:33Z</time>
      </trkpt>
      <trkpt lat="45.29315" lon="6.21099">
        <ele>1280.4</ele>
        <time>2022-01-27T08:22:34Z</time>
      </trkpt>
      <trkpt lat="45.29314" lon="6.21097">
        <ele>1280.7</ele>
        <time>2022-01-27T08:22:36Z</time>
      </trkpt>
      <trkpt lat="45.29314" lon="6.21096">
        <ele>1280.8</ele>
        <time>2022-01-27T08:22:37Z</time>
      </trkpt>
      <trkpt lat="45.29313" lon="6.21095">
        <ele>1281</ele>
        <time>2022-01-27T08:22:38Z</time>
      </trkpt>
      <trkpt lat="45.29313" lon="6.21094">
        <ele>1281.1</ele>
        <time>2022-01-27T08:22:39Z</time>
      </trkpt>
      <trkpt lat="45.29313" lon="6.21093">
        <ele>1281.3</ele>
        <time>2022-01-27T08:22:41Z</time>
      </trkpt>
      <trkpt lat="45.29313" lon="6.21091">
        <ele>1281.5</ele>
        <time>2022-01-27T08:22:42Z</time>
      </trkpt>
      <trkpt lat="45.29313" lon="6.21089">
        <ele>1281.8</ele>
        <time>2022-01-27T08:22:45Z</time>
      </trkpt>
      <trkpt lat="45.29313" lon="6.21088">
        <ele>1281.9</ele>
        <time>2022-01-27T08:22:46Z</time>
      </trkpt>
      <trkpt lat="45.29313" lon="6.21087">
        <ele>1282.1</ele>
        <time>2022-01-27T08:22:47Z</time>
      </trkpt>
      <trkpt lat="45.29313" lon="6.21086">
        <ele>1282.2</ele>
        <time>2022-01-27T08:22:48Z</time>
      </trkpt>
      <trkpt lat="45.29313" lon="6.21084">
        <ele>1282.4</ele>
        <time>2022-01-27T08:22:49Z</time>
      </trkpt>
      <trkpt lat="45.29314" lon="6.21082">
        <ele>1282.6</ele>
        <time>2022-01-27T08:22:50Z</time>
      </trkpt>
      <trkpt lat="45.29313" lon="6.21082">
        <ele>1282.7</ele>
        <time>2022-01-27T08:22:51Z</time>
      </trkpt>
      <trkpt lat="45.29313" lon="6.2108">
        <ele>1282.9</ele>
        <time>2022-01-27T08:22:52Z</time>
      </trkpt>
      <trkpt lat="45.29313" lon="6.21079">
        <ele>1283.1</ele>
        <time>2022-01-27T08:22:53Z</time>
      </trkpt>
      <trkpt lat="45.29313" lon="6.21077">
        <ele>1283.3</ele>
        <time>2022-01-27T08:22:55Z</time>
      </trkpt>
      <trkpt lat="45.29313" lon="6.21076">
        <ele>1283.4</ele>
        <time>2022-01-27T08:22:56Z</time>
      </trkpt>
      <trkpt lat="45.29313" lon="6.21075">
        <ele>1283.5</ele>
        <time>2022-01-27T08:22:57Z</time>
      </trkpt>
      <trkpt lat="45.29313" lon="6.21074">
        <ele>1283.7</ele>
        <time>2022-01-27T08:22:58Z</time>
      </trkpt>
      <trkpt lat="45.29313" lon="6.21072">
        <ele>1284</ele>
        <time>2022-01-27T08:23:00Z</time>
      </trkpt>
      <trkpt lat="45.29313" lon="6.21071">
        <ele>1284.1</ele>
        <time>2022-01-27T08:23:01Z</time>
      </trkpt>
      <trkpt lat="45.29313" lon="6.2107">
        <ele>1284.2</ele>
        <time>2022-01-27T08:23:02Z</time>
      </trkpt>
      <trkpt lat="45.29314" lon="6.21069">
        <ele>1284.3</ele>
        <time>2022-01-27T08:23:03Z</time>
      </trkpt>
      <trkpt lat="45.29314" lon="6.21067">
        <ele>1284.6</ele>
        <time>2022-01-27T08:23:05Z</time>
      </trkpt>
      <trkpt lat="45.29314" lon="6.21066">
        <ele>1284.8</ele>
        <time>2022-01-27T08:23:06Z</time>
      </trkpt>
      <trkpt lat="45.29314" lon="6.21064">
        <ele>1285</ele>
        <time>2022-01-27T08:23:08Z</time>
      </trkpt>
      <trkpt lat="45.29314" lon="6.21063">
        <ele>1285.2</ele>
        <time>2022-01-27T08:23:09Z</time>
      </trkpt>
      <trkpt lat="45.29315" lon="6.21061">
        <ele>1285.4</ele>
        <time>2022-01-27T08:23:10Z</time>
      </trkpt>
      <trkpt lat="45.29315" lon="6.2106">
        <ele>1285.5</ele>
        <time>2022-01-27T08:23:11Z</time>
      </trkpt>
      <trkpt lat="45.29315" lon="6.21058">
        <ele>1285.8</ele>
        <time>2022-01-27T08:23:13Z</time>
      </trkpt>
      <trkpt lat="45.29315" lon="6.21055">
        <ele>1286.1</ele>
        <time>2022-01-27T08:23:14Z</time>
      </trkpt>
      <trkpt lat="45.29316" lon="6.21054">
        <ele>1286.3</ele>
        <time>2022-01-27T08:23:16Z</time>
      </trkpt>
      <trkpt lat="45.29316" lon="6.21053">
        <ele>1286.4</ele>
        <time>2022-01-27T08:23:17Z</time>
      </trkpt>
      <trkpt lat="45.29317" lon="6.21051">
        <ele>1286.7</ele>
        <time>2022-01-27T08:23:18Z</time>
      </trkpt>
      <trkpt lat="45.29317" lon="6.2105">
        <ele>1286.9</ele>
        <time>2022-01-27T08:23:20Z</time>
      </trkpt>
      <trkpt lat="45.29318" lon="6.21049">
        <ele>1287</ele>
        <time>2022-01-27T08:23:21Z</time>
      </trkpt>
      <trkpt lat="45.29318" lon="6.21047">
        <ele>1287.3</ele>
        <time>2022-01-27T08:23:22Z</time>
      </trkpt>
      <trkpt lat="45.29318" lon="6.21045">
        <ele>1287.5</ele>
        <time>2022-01-27T08:23:24Z</time>
      </trkpt>
      <trkpt lat="45.29319" lon="6.21044">
        <ele>1287.7</ele>
        <time>2022-01-27T08:23:25Z</time>
      </trkpt>
      <trkpt lat="45.29319" lon="6.21043">
        <ele>1287.8</ele>
        <time>2022-01-27T08:23:26Z</time>
      </trkpt>
      <trkpt lat="45.29319" lon="6.21041">
        <ele>1288.1</ele>
        <time>2022-01-27T08:23:27Z</time>
      </trkpt>
      <trkpt lat="45.2932" lon="6.21039">
        <ele>1288.3</ele>
        <time>2022-01-27T08:23:29Z</time>
      </trkpt>
      <trkpt lat="45.2932" lon="6.21038">
        <ele>1288.5</ele>
        <time>2022-01-27T08:23:30Z</time>
      </trkpt>
      <trkpt lat="45.2932" lon="6.21037">
        <ele>1288.6</ele>
        <time>2022-01-27T08:23:31Z</time>
      </trkpt>
      <trkpt lat="45.2932" lon="6.21035">
        <ele>1288.8</ele>
        <time>2022-01-27T08:23:32Z</time>
      </trkpt>
      <trkpt lat="45.2932" lon="6.21033">
        <ele>1289</ele>
        <time>2022-01-27T08:23:34Z</time>
      </trkpt>
      <trkpt lat="45.2932" lon="6.21032">
        <ele>1289.2</ele>
        <time>2022-01-27T08:23:35Z</time>
      </trkpt>
      <trkpt lat="45.29321" lon="6.21031">
        <ele>1289.3</ele>
        <time>2022-01-27T08:23:36Z</time>
      </trkpt>
      <trkpt lat="45.29321" lon="6.21029">
        <ele>1289.5</ele>
        <time>2022-01-27T08:23:37Z</time>
      </trkpt>
      <trkpt lat="45.29321" lon="6.21028">
        <ele>1289.7</ele>
        <time>2022-01-27T08:23:39Z</time>
      </trkpt>
      <trkpt lat="45.29321" lon="6.21026">
        <ele>1289.9</ele>
        <time>2022-01-27T08:23:40Z</time>
      </trkpt>
      <trkpt lat="45.29322" lon="6.21025">
        <ele>1290.1</ele>
        <time>2022-01-27T08:23:42Z</time>
      </trkpt>
      <trkpt lat="45.29322" lon="6.21024">
        <ele>1290.3</ele>
        <time>2022-01-27T08:23:43Z</time>
      </trkpt>
      <trkpt lat="45.29322" lon="6.21023">
        <ele>1290.4</ele>
        <time>2022-01-27T08:23:44Z</time>
      </trkpt>
      <trkpt lat="45.29322" lon="6.21021">
        <ele>1290.6</ele>
        <time>2022-01-27T08:23:45Z</time>
      </trkpt>
      <trkpt lat="45.29322" lon="6.2102">
        <ele>1290.7</ele>
        <time>2022-01-27T08:23:46Z</time>
      </trkpt>
      <trkpt lat="45.29322" lon="6.21019">
        <ele>1290.8</ele>
        <time>2022-01-27T08:23:47Z</time>
      </trkpt>
      <trkpt lat="45.29321" lon="6.21018">
        <ele>1291</ele>
        <time>2022-01-27T08:23:48Z</time>
      </trkpt>
      <trkpt lat="45.29321" lon="6.21017">
        <ele>1291.1</ele>
        <time>2022-01-27T08:23:49Z</time>
      </trkpt>
      <trkpt lat="45.29321" lon="6.21015">
        <ele>1291.3</ele>
        <time>2022-01-27T08:23:50Z</time>
      </trkpt>
      <trkpt lat="45.29321" lon="6.21014">
        <ele>1291.5</ele>
        <time>2022-01-27T08:23:51Z</time>
      </trkpt>
      <trkpt lat="45.29321" lon="6.21013">
        <ele>1291.6</ele>
        <time>2022-01-27T08:23:52Z</time>
      </trkpt>
      <trkpt lat="45.29321" lon="6.21012">
        <ele>1291.8</ele>
        <time>2022-01-27T08:23:53Z</time>
      </trkpt>
      <trkpt lat="45.29321" lon="6.21011">
        <ele>1291.9</ele>
        <time>2022-01-27T08:23:54Z</time>
      </trkpt>
      <trkpt lat="45.29322" lon="6.21009">
        <ele>1292.1</ele>
        <time>2022-01-27T08:23:55Z</time>
      </trkpt>
      <trkpt lat="45.29322" lon="6.21008">
        <ele>1292.2</ele>
        <time>2022-01-27T08:23:56Z</time>
      </trkpt>
      <trkpt lat="45.29322" lon="6.21007">
        <ele>1292.4</ele>
        <time>2022-01-27T08:23:57Z</time>
      </trkpt>
      <trkpt lat="45.29322" lon="6.21006">
        <ele>1292.5</ele>
        <time>2022-01-27T08:23:58Z</time>
      </trkpt>
      <trkpt lat="45.29322" lon="6.21005">
        <ele>1292.6</ele>
        <time>2022-01-27T08:23:59Z</time>
      </trkpt>
      <trkpt lat="45.29322" lon="6.21004">
        <ele>1292.8</ele>
        <time>2022-01-27T08:24:00Z</time>
      </trkpt>
      <trkpt lat="45.29322" lon="6.21003">
        <ele>1292.9</ele>
        <time>2022-01-27T08:24:01Z</time>
      </trkpt>
      <trkpt lat="45.29322" lon="6.21002">
        <ele>1293</ele>
        <time>2022-01-27T08:24:02Z</time>
      </trkpt>
      <trkpt lat="45.29323" lon="6.21001">
        <ele>1293.1</ele>
        <time>2022-01-27T08:24:03Z</time>
      </trkpt>
      <trkpt lat="45.29324" lon="6.20999">
        <ele>1293.5</ele>
        <time>2022-01-27T08:24:05Z</time>
      </trkpt>
      <trkpt lat="45.29325" lon="6.20998">
        <ele>1293.7</ele>
        <time>2022-01-27T08:24:07Z</time>
      </trkpt>
      <trkpt lat="45.29325" lon="6.20997">
        <ele>1293.8</ele>
        <time>2022-01-27T08:24:08Z</time>
      </trkpt>
      <trkpt lat="45.29325" lon="6.20996">
        <ele>1293.9</ele>
        <time>2022-01-27T08:24:09Z</time>
      </trkpt>
      <trkpt lat="45.29325" lon="6.20995">
        <ele>1294.1</ele>
        <time>2022-01-27T08:24:10Z</time>
      </trkpt>
      <trkpt lat="45.29326" lon="6.20994">
        <ele>1294.2</ele>
        <time>2022-01-27T08:24:11Z</time>
      </trkpt>
      <trkpt lat="45.29327" lon="6.20992">
        <ele>1294.5</ele>
        <time>2022-01-27T08:24:12Z</time>
      </trkpt>
      <trkpt lat="45.29327" lon="6.20991">
        <ele>1294.7</ele>
        <time>2022-01-27T08:24:13Z</time>
      </trkpt>
      <trkpt lat="45.29328" lon="6.20989">
        <ele>1294.9</ele>
        <time>2022-01-27T08:24:15Z</time>
      </trkpt>
      <trkpt lat="45.29328" lon="6.20988">
        <ele>1295.1</ele>
        <time>2022-01-27T08:24:17Z</time>
      </trkpt>
      <trkpt lat="45.29329" lon="6.20987">
        <ele>1295.3</ele>
        <time>2022-01-27T08:24:19Z</time>
      </trkpt>
      <trkpt lat="45.2933" lon="6.20985">
        <ele>1295.5</ele>
        <time>2022-01-27T08:24:20Z</time>
      </trkpt>
      <trkpt lat="45.29331" lon="6.20983">
        <ele>1295.8</ele>
        <time>2022-01-27T08:24:24Z</time>
      </trkpt>
      <trkpt lat="45.29331" lon="6.20982">
        <ele>1296</ele>
        <time>2022-01-27T08:24:25Z</time>
      </trkpt>
      <trkpt lat="45.2933" lon="6.2098">
        <ele>1296.4</ele>
        <time>2022-01-27T08:24:27Z</time>
      </trkpt>
      <trkpt lat="45.29329" lon="6.2098">
        <ele>1296.6</ele>
        <time>2022-01-27T08:24:28Z</time>
      </trkpt>
      <trkpt lat="45.29328" lon="6.2098">
        <ele>1296.8</ele>
        <time>2022-01-27T08:24:30Z</time>
      </trkpt>
      <trkpt lat="45.29327" lon="6.2098">
        <ele>1296.9</ele>
        <time>2022-01-27T08:24:31Z</time>
      </trkpt>
      <trkpt lat="45.29326" lon="6.2098">
        <ele>1297.1</ele>
        <time>2022-01-27T08:24:33Z</time>
      </trkpt>
      <trkpt lat="45.29325" lon="6.2098">
        <ele>1297.3</ele>
        <time>2022-01-27T08:24:34Z</time>
      </trkpt>
      <trkpt lat="45.29324" lon="6.2098">
        <ele>1297.4</ele>
        <time>2022-01-27T08:24:35Z</time>
      </trkpt>
      <trkpt lat="45.29323" lon="6.2098">
        <ele>1297.7</ele>
        <time>2022-01-27T08:24:37Z</time>
      </trkpt>
      <trkpt lat="45.29322" lon="6.2098">
        <ele>1297.9</ele>
        <time>2022-01-27T08:24:38Z</time>
      </trkpt>
      <trkpt lat="45.29321" lon="6.20981">
        <ele>1298</ele>
        <time>2022-01-27T08:24:39Z</time>
      </trkpt>
      <trkpt lat="45.29319" lon="6.20981">
        <ele>1298.3</ele>
        <time>2022-01-27T08:24:40Z</time>
      </trkpt>
      <trkpt lat="45.29318" lon="6.20982">
        <ele>1298.4</ele>
        <time>2022-01-27T08:24:41Z</time>
      </trkpt>
      <trkpt lat="45.29316" lon="6.20981">
        <ele>1298.8</ele>
        <time>2022-01-27T08:24:43Z</time>
      </trkpt>
      <trkpt lat="45.29316" lon="6.2098">
        <ele>1299</ele>
        <time>2022-01-27T08:24:45Z</time>
      </trkpt>
      <trkpt lat="45.29317" lon="6.20981">
        <ele>1299.2</ele>
        <time>2022-01-27T08:24:50Z</time>
      </trkpt>
      <trkpt lat="45.29317" lon="6.2098">
        <ele>1299.3</ele>
        <time>2022-01-27T08:24:55Z</time>
      </trkpt>
      <trkpt lat="45.29324" lon="6.20977">
        <ele>1300.6</ele>
        <time>2022-01-27T08:25:18Z</time>
      </trkpt>
      <trkpt lat="45.29325" lon="6.20977">
        <ele>1300.8</ele>
        <time>2022-01-27T08:25:19Z</time>
      </trkpt>
      <trkpt lat="45.29326" lon="6.20977">
        <ele>1301.1</ele>
        <time>2022-01-27T08:25:20Z</time>
      </trkpt>
      <trkpt lat="45.29327" lon="6.20977">
        <ele>1301.2</ele>
        <time>2022-01-27T08:25:21Z</time>
      </trkpt>
      <trkpt lat="45.29327" lon="6.20976">
        <ele>1301.3</ele>
        <time>2022-01-27T08:25:22Z</time>
      </trkpt>
      <trkpt lat="45.29327" lon="6.20975">
        <ele>1301.4</ele>
        <time>2022-01-27T08:25:23Z</time>
      </trkpt>
      <trkpt lat="45.29328" lon="6.20974">
        <ele>1301.5</ele>
        <time>2022-01-27T08:25:24Z</time>
      </trkpt>
      <trkpt lat="45.29328" lon="6.20973">
        <ele>1301.7</ele>
        <time>2022-01-27T08:25:25Z</time>
      </trkpt>
      <trkpt lat="45.29327" lon="6.20972">
        <ele>1301.8</ele>
        <time>2022-01-27T08:25:26Z</time>
      </trkpt>
      <trkpt lat="45.29328" lon="6.2097">
        <ele>1302</ele>
        <time>2022-01-27T08:25:27Z</time>
      </trkpt>
      <trkpt lat="45.29328" lon="6.20969">
        <ele>1302.2</ele>
        <time>2022-01-27T08:25:28Z</time>
      </trkpt>
      <trkpt lat="45.29328" lon="6.20967">
        <ele>1302.4</ele>
        <time>2022-01-27T08:25:29Z</time>
      </trkpt>
      <trkpt lat="45.29329" lon="6.20966">
        <ele>1302.6</ele>
        <time>2022-01-27T08:25:30Z</time>
      </trkpt>
      <trkpt lat="45.29329" lon="6.20965">
        <ele>1302.7</ele>
        <time>2022-01-27T08:25:31Z</time>
      </trkpt>
      <trkpt lat="45.2933" lon="6.20964">
        <ele>1303</ele>
        <time>2022-01-27T08:25:32Z</time>
      </trkpt>
      <trkpt lat="45.29331" lon="6.20962">
        <ele>1303.2</ele>
        <time>2022-01-27T08:25:33Z</time>
      </trkpt>
      <trkpt lat="45.29333" lon="6.20959">
        <ele>1303.7</ele>
        <time>2022-01-27T08:25:34Z</time>
      </trkpt>
      <trkpt lat="45.29334" lon="6.20958">
        <ele>1303.9</ele>
        <time>2022-01-27T08:25:35Z</time>
      </trkpt>
      <trkpt lat="45.29334" lon="6.20957">
        <ele>1304.1</ele>
        <time>2022-01-27T08:25:36Z</time>
      </trkpt>
      <trkpt lat="45.29335" lon="6.20956">
        <ele>1304.2</ele>
        <time>2022-01-27T08:25:38Z</time>
      </trkpt>
      <trkpt lat="45.29336" lon="6.20956">
        <ele>1304.4</ele>
        <time>2022-01-27T08:25:40Z</time>
      </trkpt>
      <trkpt lat="45.29336" lon="6.20955">
        <ele>1304.6</ele>
        <time>2022-01-27T08:25:41Z</time>
      </trkpt>
      <trkpt lat="45.29337" lon="6.20955">
        <ele>1304.7</ele>
        <time>2022-01-27T08:25:42Z</time>
      </trkpt>
      <trkpt lat="45.29338" lon="6.20954">
        <ele>1304.8</ele>
        <time>2022-01-27T08:25:43Z</time>
      </trkpt>
      <trkpt lat="45.29338" lon="6.20953">
        <ele>1305</ele>
        <time>2022-01-27T08:25:44Z</time>
      </trkpt>
      <trkpt lat="45.29339" lon="6.20953">
        <ele>1305.2</ele>
        <time>2022-01-27T08:25:45Z</time>
      </trkpt>
      <trkpt lat="45.2934" lon="6.20952">
        <ele>1305.3</ele>
        <time>2022-01-27T08:25:46Z</time>
      </trkpt>
      <trkpt lat="45.29344" lon="6.20938">
        <ele>1307.2</ele>
        <time>2022-01-27T08:26:15Z</time>
      </trkpt>
      <trkpt lat="45.29344" lon="6.20937">
        <ele>1307.3</ele>
        <time>2022-01-27T08:26:16Z</time>
      </trkpt>
      <trkpt lat="45.29344" lon="6.20936">
        <ele>1307.5</ele>
        <time>2022-01-27T08:26:19Z</time>
      </trkpt>
      <trkpt lat="45.29344" lon="6.20933">
        <ele>1307.8</ele>
        <time>2022-01-27T08:26:20Z</time>
      </trkpt>
      <trkpt lat="45.29344" lon="6.20932">
        <ele>1308</ele>
        <time>2022-01-27T08:26:21Z</time>
      </trkpt>
      <trkpt lat="45.29344" lon="6.2093">
        <ele>1308.3</ele>
        <time>2022-01-27T08:26:23Z</time>
      </trkpt>
      <trkpt lat="45.29345" lon="6.20928">
        <ele>1308.4</ele>
        <time>2022-01-27T08:26:24Z</time>
      </trkpt>
      <trkpt lat="45.29345" lon="6.20925">
        <ele>1308.8</ele>
        <time>2022-01-27T08:26:25Z</time>
      </trkpt>
      <trkpt lat="45.29345" lon="6.20924">
        <ele>1309</ele>
        <time>2022-01-27T08:26:26Z</time>
      </trkpt>
      <trkpt lat="45.29345" lon="6.2092">
        <ele>1309.5</ele>
        <time>2022-01-27T08:26:28Z</time>
      </trkpt>
      <trkpt lat="45.29345" lon="6.20919">
        <ele>1309.6</ele>
        <time>2022-01-27T08:26:29Z</time>
      </trkpt>
      <trkpt lat="45.29345" lon="6.20917">
        <ele>1309.8</ele>
        <time>2022-01-27T08:26:30Z</time>
      </trkpt>
      <trkpt lat="45.29345" lon="6.20914">
        <ele>1310.2</ele>
        <time>2022-01-27T08:26:31Z</time>
      </trkpt>
      <trkpt lat="45.29345" lon="6.20913">
        <ele>1310.4</ele>
        <time>2022-01-27T08:26:33Z</time>
      </trkpt>
      <trkpt lat="45.29345" lon="6.20912">
        <ele>1310.6</ele>
        <time>2022-01-27T08:26:34Z</time>
      </trkpt>
      <trkpt lat="45.29345" lon="6.20907">
        <ele>1311.2</ele>
        <time>2022-01-27T08:26:36Z</time>
      </trkpt>
      <trkpt lat="45.29345" lon="6.20905">
        <ele>1311.3</ele>
        <time>2022-01-27T08:26:37Z</time>
      </trkpt>
      <trkpt lat="45.29345" lon="6.20904">
        <ele>1311.5</ele>
        <time>2022-01-27T08:26:38Z</time>
      </trkpt>
      <trkpt lat="45.29345" lon="6.20901">
        <ele>1311.9</ele>
        <time>2022-01-27T08:26:40Z</time>
      </trkpt>
      <trkpt lat="45.29346" lon="6.20899">
        <ele>1312.2</ele>
        <time>2022-01-27T08:26:42Z</time>
      </trkpt>
      <trkpt lat="45.29346" lon="6.20897">
        <ele>1312.4</ele>
        <time>2022-01-27T08:26:43Z</time>
      </trkpt>
      <trkpt lat="45.29346" lon="6.20895">
        <ele>1312.7</ele>
        <time>2022-01-27T08:26:45Z</time>
      </trkpt>
      <trkpt lat="45.29346" lon="6.20893">
        <ele>1312.9</ele>
        <time>2022-01-27T08:26:47Z</time>
      </trkpt>
      <trkpt lat="45.29347" lon="6.20892">
        <ele>1313</ele>
        <time>2022-01-27T08:26:48Z</time>
      </trkpt>
      <trkpt lat="45.29347" lon="6.2089">
        <ele>1313.3</ele>
        <time>2022-01-27T08:26:50Z</time>
      </trkpt>
      <trkpt lat="45.29347" lon="6.20889">
        <ele>1313.4</ele>
        <time>2022-01-27T08:26:52Z</time>
      </trkpt>
      <trkpt lat="45.29347" lon="6.20888">
        <ele>1313.6</ele>
        <time>2022-01-27T08:26:54Z</time>
      </trkpt>
      <trkpt lat="45.29348" lon="6.20883">
        <ele>1314.2</ele>
        <time>2022-01-27T08:27:01Z</time>
      </trkpt>
      <trkpt lat="45.29348" lon="6.20882">
        <ele>1314.3</ele>
        <time>2022-01-27T08:27:02Z</time>
      </trkpt>
      <trkpt lat="45.29348" lon="6.20881">
        <ele>1314.4</ele>
        <time>2022-01-27T08:27:03Z</time>
      </trkpt>
      <trkpt lat="45.29348" lon="6.2088">
        <ele>1314.6</ele>
        <time>2022-01-27T08:27:04Z</time>
      </trkpt>
      <trkpt lat="45.29348" lon="6.20879">
        <ele>1314.7</ele>
        <time>2022-01-27T08:27:05Z</time>
      </trkpt>
      <trkpt lat="45.29348" lon="6.20878">
        <ele>1314.8</ele>
        <time>2022-01-27T08:27:06Z</time>
      </trkpt>
      <trkpt lat="45.29348" lon="6.20877">
        <ele>1314.9</ele>
        <time>2022-01-27T08:27:09Z</time>
      </trkpt>
      <trkpt lat="45.29349" lon="6.20876">
        <ele>1315.2</ele>
        <time>2022-01-27T08:27:11Z</time>
      </trkpt>
      <trkpt lat="45.29349" lon="6.20875">
        <ele>1315.3</ele>
        <time>2022-01-27T08:27:12Z</time>
      </trkpt>
      <trkpt lat="45.29349" lon="6.20874">
        <ele>1315.4</ele>
        <time>2022-01-27T08:27:13Z</time>
      </trkpt>
      <trkpt lat="45.2935" lon="6.20873">
        <ele>1315.5</ele>
        <time>2022-01-27T08:27:14Z</time>
      </trkpt>
      <trkpt lat="45.29351" lon="6.20852">
        <ele>1318.2</ele>
        <time>2022-01-27T08:27:45Z</time>
      </trkpt>
      <trkpt lat="45.29352" lon="6.2085">
        <ele>1318.4</ele>
        <time>2022-01-27T08:27:46Z</time>
      </trkpt>
      <trkpt lat="45.29352" lon="6.20849">
        <ele>1318.7</ele>
        <time>2022-01-27T08:27:48Z</time>
      </trkpt>
      <trkpt lat="45.29352" lon="6.20848">
        <ele>1318.8</ele>
        <time>2022-01-27T08:27:49Z</time>
      </trkpt>
      <trkpt lat="45.29353" lon="6.20846">
        <ele>1319</ele>
        <time>2022-01-27T08:27:50Z</time>
      </trkpt>
      <trkpt lat="45.29353" lon="6.20845">
        <ele>1319.2</ele>
        <time>2022-01-27T08:27:52Z</time>
      </trkpt>
      <trkpt lat="45.29354" lon="6.20843">
        <ele>1319.4</ele>
        <time>2022-01-27T08:27:53Z</time>
      </trkpt>
      <trkpt lat="45.29355" lon="6.2084">
        <ele>1319.9</ele>
        <time>2022-01-27T08:27:55Z</time>
      </trkpt>
      <trkpt lat="45.29356" lon="6.20839">
        <ele>1320.1</ele>
        <time>2022-01-27T08:27:56Z</time>
      </trkpt>
      <trkpt lat="45.29357" lon="6.20837">
        <ele>1320.4</ele>
        <time>2022-01-27T08:27:58Z</time>
      </trkpt>
      <trkpt lat="45.29357" lon="6.20836">
        <ele>1320.5</ele>
        <time>2022-01-27T08:27:59Z</time>
      </trkpt>
      <trkpt lat="45.29358" lon="6.20835">
        <ele>1320.7</ele>
        <time>2022-01-27T08:28:00Z</time>
      </trkpt>
      <trkpt lat="45.2936" lon="6.20833">
        <ele>1321.1</ele>
        <time>2022-01-27T08:28:01Z</time>
      </trkpt>
      <trkpt lat="45.2936" lon="6.20832">
        <ele>1321.3</ele>
        <time>2022-01-27T08:28:03Z</time>
      </trkpt>
      <trkpt lat="45.29361" lon="6.2083">
        <ele>1321.5</ele>
        <time>2022-01-27T08:28:04Z</time>
      </trkpt>
      <trkpt lat="45.29362" lon="6.20829">
        <ele>1321.6</ele>
        <time>2022-01-27T08:28:05Z</time>
      </trkpt>
      <trkpt lat="45.29363" lon="6.20828">
        <ele>1321.9</ele>
        <time>2022-01-27T08:28:06Z</time>
      </trkpt>
      <trkpt lat="45.29363" lon="6.20827">
        <ele>1322.1</ele>
        <time>2022-01-27T08:28:07Z</time>
      </trkpt>
      <trkpt lat="45.29364" lon="6.20824">
        <ele>1322.4</ele>
        <time>2022-01-27T08:28:08Z</time>
      </trkpt>
      <trkpt lat="45.29364" lon="6.20823">
        <ele>1322.6</ele>
        <time>2022-01-27T08:28:09Z</time>
      </trkpt>
      <trkpt lat="45.29364" lon="6.20821">
        <ele>1322.9</ele>
        <time>2022-01-27T08:28:11Z</time>
      </trkpt>
      <trkpt lat="45.29365" lon="6.2082">
        <ele>1323</ele>
        <time>2022-01-27T08:28:12Z</time>
      </trkpt>
      <trkpt lat="45.29365" lon="6.20819">
        <ele>1323.1</ele>
        <time>2022-01-27T08:28:13Z</time>
      </trkpt>
      <trkpt lat="45.29365" lon="6.20818">
        <ele>1323.3</ele>
        <time>2022-01-27T08:28:14Z</time>
      </trkpt>
      <trkpt lat="45.29365" lon="6.20817">
        <ele>1323.4</ele>
        <time>2022-01-27T08:28:15Z</time>
      </trkpt>
      <trkpt lat="45.29365" lon="6.20815">
        <ele>1323.6</ele>
        <time>2022-01-27T08:28:16Z</time>
      </trkpt>
      <trkpt lat="45.29365" lon="6.20813">
        <ele>1323.8</ele>
        <time>2022-01-27T08:28:17Z</time>
      </trkpt>
      <trkpt lat="45.29365" lon="6.20812">
        <ele>1324</ele>
        <time>2022-01-27T08:28:18Z</time>
      </trkpt>
      <trkpt lat="45.29365" lon="6.20811">
        <ele>1324.1</ele>
        <time>2022-01-27T08:28:19Z</time>
      </trkpt>
      <trkpt lat="45.29365" lon="6.2081">
        <ele>1324.3</ele>
        <time>2022-01-27T08:28:20Z</time>
      </trkpt>
      <trkpt lat="45.29366" lon="6.20808">
        <ele>1324.5</ele>
        <time>2022-01-27T08:28:21Z</time>
      </trkpt>
      <trkpt lat="45.29366" lon="6.20807">
        <ele>1324.6</ele>
        <time>2022-01-27T08:28:22Z</time>
      </trkpt>
      <trkpt lat="45.29366" lon="6.20806">
        <ele>1324.7</ele>
        <time>2022-01-27T08:28:23Z</time>
      </trkpt>
      <trkpt lat="45.29366" lon="6.20805">
        <ele>1324.8</ele>
        <time>2022-01-27T08:28:24Z</time>
      </trkpt>
      <trkpt lat="45.29367" lon="6.20804">
        <ele>1325.1</ele>
        <time>2022-01-27T08:28:26Z</time>
      </trkpt>
      <trkpt lat="45.29367" lon="6.20803">
        <ele>1325.2</ele>
        <time>2022-01-27T08:28:27Z</time>
      </trkpt>
      <trkpt lat="45.29367" lon="6.20802">
        <ele>1325.3</ele>
        <time>2022-01-27T08:28:28Z</time>
      </trkpt>
      <trkpt lat="45.29368" lon="6.20801">
        <ele>1325.5</ele>
        <time>2022-01-27T08:28:30Z</time>
      </trkpt>
      <trkpt lat="45.29368" lon="6.208">
        <ele>1325.6</ele>
        <time>2022-01-27T08:28:31Z</time>
      </trkpt>
      <trkpt lat="45.29368" lon="6.20799">
        <ele>1325.7</ele>
        <time>2022-01-27T08:28:32Z</time>
      </trkpt>
      <trkpt lat="45.29368" lon="6.20798">
        <ele>1325.8</ele>
        <time>2022-01-27T08:28:33Z</time>
      </trkpt>
      <trkpt lat="45.29368" lon="6.20797">
        <ele>1326</ele>
        <time>2022-01-27T08:28:34Z</time>
      </trkpt>
      <trkpt lat="45.29368" lon="6.20796">
        <ele>1326.1</ele>
        <time>2022-01-27T08:28:35Z</time>
      </trkpt>
      <trkpt lat="45.29368" lon="6.20795">
        <ele>1326.3</ele>
        <time>2022-01-27T08:28:36Z</time>
      </trkpt>
      <trkpt lat="45.29368" lon="6.20793">
        <ele>1326.4</ele>
        <time>2022-01-27T08:28:37Z</time>
      </trkpt>
      <trkpt lat="45.29368" lon="6.20792">
        <ele>1326.6</ele>
        <time>2022-01-27T08:28:38Z</time>
      </trkpt>
      <trkpt lat="45.29368" lon="6.20791">
        <ele>1326.7</ele>
        <time>2022-01-27T08:28:39Z</time>
      </trkpt>
      <trkpt lat="45.29367" lon="6.2079">
        <ele>1326.9</ele>
        <time>2022-01-27T08:28:41Z</time>
      </trkpt>
      <trkpt lat="45.29367" lon="6.20789">
        <ele>1327</ele>
        <time>2022-01-27T08:28:43Z</time>
      </trkpt>
      <trkpt lat="45.29367" lon="6.20788">
        <ele>1327.1</ele>
        <time>2022-01-27T08:28:44Z</time>
      </trkpt>
      <trkpt lat="45.29367" lon="6.20787">
        <ele>1327.3</ele>
        <time>2022-01-27T08:28:46Z</time>
      </trkpt>
      <trkpt lat="45.29367" lon="6.20786">
        <ele>1327.4</ele>
        <time>2022-01-27T08:28:47Z</time>
      </trkpt>
      <trkpt lat="45.29367" lon="6.20785">
        <ele>1327.5</ele>
        <time>2022-01-27T08:28:49Z</time>
      </trkpt>
      <trkpt lat="45.29366" lon="6.20782">
        <ele>1327.9</ele>
        <time>2022-01-27T08:28:51Z</time>
      </trkpt>
      <trkpt lat="45.29365" lon="6.20781">
        <ele>1328.1</ele>
        <time>2022-01-27T08:28:52Z</time>
      </trkpt>
      <trkpt lat="45.29364" lon="6.2078">
        <ele>1328.4</ele>
        <time>2022-01-27T08:28:53Z</time>
      </trkpt>
      <trkpt lat="45.29363" lon="6.20779">
        <ele>1328.6</ele>
        <time>2022-01-27T08:28:54Z</time>
      </trkpt>
      <trkpt lat="45.29362" lon="6.20779">
        <ele>1328.8</ele>
        <time>2022-01-27T08:28:55Z</time>
      </trkpt>
      <trkpt lat="45.29361" lon="6.20778">
        <ele>1329</ele>
        <time>2022-01-27T08:28:56Z</time>
      </trkpt>
      <trkpt lat="45.2936" lon="6.20777">
        <ele>1329.3</ele>
        <time>2022-01-27T08:28:57Z</time>
      </trkpt>
      <trkpt lat="45.29359" lon="6.20776">
        <ele>1329.5</ele>
        <time>2022-01-27T08:28:59Z</time>
      </trkpt>
      <trkpt lat="45.29359" lon="6.20775">
        <ele>1329.6</ele>
        <time>2022-01-27T08:29:00Z</time>
      </trkpt>
      <trkpt lat="45.29358" lon="6.20774">
        <ele>1329.7</ele>
        <time>2022-01-27T08:29:01Z</time>
      </trkpt>
      <trkpt lat="45.29358" lon="6.20773">
        <ele>1329.8</ele>
        <time>2022-01-27T08:29:02Z</time>
      </trkpt>
      <trkpt lat="45.29358" lon="6.20772">
        <ele>1330</ele>
        <time>2022-01-27T08:29:04Z</time>
      </trkpt>
      <trkpt lat="45.29359" lon="6.20767">
        <ele>1330.7</ele>
        <time>2022-01-27T08:29:14Z</time>
      </trkpt>
      <trkpt lat="45.29359" lon="6.20766">
        <ele>1330.8</ele>
        <time>2022-01-27T08:29:15Z</time>
      </trkpt>
      <trkpt lat="45.2936" lon="6.20765">
        <ele>1331</ele>
        <time>2022-01-27T08:29:16Z</time>
      </trkpt>
      <trkpt lat="45.2936" lon="6.20764">
        <ele>1331.1</ele>
        <time>2022-01-27T08:29:17Z</time>
      </trkpt>
      <trkpt lat="45.2936" lon="6.20763">
        <ele>1331.2</ele>
        <time>2022-01-27T08:29:19Z</time>
      </trkpt>
      <trkpt lat="45.2936" lon="6.20762">
        <ele>1331.3</ele>
        <time>2022-01-27T08:29:20Z</time>
      </trkpt>
      <trkpt lat="45.2936" lon="6.2076">
        <ele>1331.5</ele>
        <time>2022-01-27T08:29:21Z</time>
      </trkpt>
      <trkpt lat="45.2936" lon="6.20759">
        <ele>1331.7</ele>
        <time>2022-01-27T08:29:23Z</time>
      </trkpt>
      <trkpt lat="45.2936" lon="6.20758">
        <ele>1331.8</ele>
        <time>2022-01-27T08:29:25Z</time>
      </trkpt>
      <trkpt lat="45.29362" lon="6.20751">
        <ele>1332.8</ele>
        <time>2022-01-27T08:29:36Z</time>
      </trkpt>
      <trkpt lat="45.29362" lon="6.2075">
        <ele>1332.9</ele>
        <time>2022-01-27T08:29:37Z</time>
      </trkpt>
      <trkpt lat="45.29362" lon="6.20749">
        <ele>1333.1</ele>
        <time>2022-01-27T08:29:38Z</time>
      </trkpt>
      <trkpt lat="45.29362" lon="6.20748">
        <ele>1333.2</ele>
        <time>2022-01-27T08:29:40Z</time>
      </trkpt>
      <trkpt lat="45.29361" lon="6.20746">
        <ele>1333.4</ele>
        <time>2022-01-27T08:29:41Z</time>
      </trkpt>
      <trkpt lat="45.29361" lon="6.20745">
        <ele>1333.6</ele>
        <time>2022-01-27T08:29:43Z</time>
      </trkpt>
      <trkpt lat="45.29361" lon="6.20744">
        <ele>1333.8</ele>
        <time>2022-01-27T08:29:44Z</time>
      </trkpt>
      <trkpt lat="45.2936" lon="6.20742">
        <ele>1333.9</ele>
        <time>2022-01-27T08:29:45Z</time>
      </trkpt>
      <trkpt lat="45.2936" lon="6.2074">
        <ele>1334.2</ele>
        <time>2022-01-27T08:29:46Z</time>
      </trkpt>
      <trkpt lat="45.2936" lon="6.20739">
        <ele>1334.4</ele>
        <time>2022-01-27T08:29:47Z</time>
      </trkpt>
      <trkpt lat="45.2936" lon="6.20738">
        <ele>1334.5</ele>
        <time>2022-01-27T08:29:48Z</time>
      </trkpt>
      <trkpt lat="45.2936" lon="6.20735">
        <ele>1334.8</ele>
        <time>2022-01-27T08:29:49Z</time>
      </trkpt>
      <trkpt lat="45.2936" lon="6.20734">
        <ele>1335</ele>
        <time>2022-01-27T08:29:50Z</time>
      </trkpt>
      <trkpt lat="45.2936" lon="6.20733">
        <ele>1335.2</ele>
        <time>2022-01-27T08:29:51Z</time>
      </trkpt>
      <trkpt lat="45.2936" lon="6.20731">
        <ele>1335.4</ele>
        <time>2022-01-27T08:29:52Z</time>
      </trkpt>
      <trkpt lat="45.29359" lon="6.20729">
        <ele>1335.7</ele>
        <time>2022-01-27T08:29:53Z</time>
      </trkpt>
      <trkpt lat="45.29359" lon="6.20728">
        <ele>1335.8</ele>
        <time>2022-01-27T08:29:54Z</time>
      </trkpt>
      <trkpt lat="45.29358" lon="6.20724">
        <ele>1336.3</ele>
        <time>2022-01-27T08:29:56Z</time>
      </trkpt>
      <trkpt lat="45.29357" lon="6.20723">
        <ele>1336.5</ele>
        <time>2022-01-27T08:29:57Z</time>
      </trkpt>
      <trkpt lat="45.29356" lon="6.20721">
        <ele>1336.8</ele>
        <time>2022-01-27T08:29:58Z</time>
      </trkpt>
      <trkpt lat="45.29356" lon="6.2072">
        <ele>1337</ele>
        <time>2022-01-27T08:29:59Z</time>
      </trkpt>
      <trkpt lat="45.29354" lon="6.20718">
        <ele>1337.4</ele>
        <time>2022-01-27T08:30:01Z</time>
      </trkpt>
      <trkpt lat="45.29353" lon="6.20717">
        <ele>1337.6</ele>
        <time>2022-01-27T08:30:02Z</time>
      </trkpt>
      <trkpt lat="45.29352" lon="6.20717">
        <ele>1337.7</ele>
        <time>2022-01-27T08:30:04Z</time>
      </trkpt>
      <trkpt lat="45.29351" lon="6.20717">
        <ele>1337.9</ele>
        <time>2022-01-27T08:30:05Z</time>
      </trkpt>
      <trkpt lat="45.2935" lon="6.20717">
        <ele>1338.1</ele>
        <time>2022-01-27T08:30:06Z</time>
      </trkpt>
      <trkpt lat="45.29349" lon="6.20716">
        <ele>1338.3</ele>
        <time>2022-01-27T08:30:08Z</time>
      </trkpt>
      <trkpt lat="45.29348" lon="6.20717">
        <ele>1338.6</ele>
        <time>2022-01-27T08:30:10Z</time>
      </trkpt>
      <trkpt lat="45.29347" lon="6.20718">
        <ele>1338.8</ele>
        <time>2022-01-27T08:30:12Z</time>
      </trkpt>
      <trkpt lat="45.29346" lon="6.20719">
        <ele>1338.9</ele>
        <time>2022-01-27T08:30:13Z</time>
      </trkpt>
      <trkpt lat="45.29345" lon="6.20721">
        <ele>1339.3</ele>
        <time>2022-01-27T08:30:15Z</time>
      </trkpt>
      <trkpt lat="45.29344" lon="6.20723">
        <ele>1339.6</ele>
        <time>2022-01-27T08:30:17Z</time>
      </trkpt>
      <trkpt lat="45.29344" lon="6.20724">
        <ele>1339.7</ele>
        <time>2022-01-27T08:30:18Z</time>
      </trkpt>
      <trkpt lat="45.29344" lon="6.20725">
        <ele>1339.8</ele>
        <time>2022-01-27T08:30:19Z</time>
      </trkpt>
      <trkpt lat="45.29345" lon="6.20727">
        <ele>1340.1</ele>
        <time>2022-01-27T08:30:20Z</time>
      </trkpt>
      <trkpt lat="45.29345" lon="6.20729">
        <ele>1340.4</ele>
        <time>2022-01-27T08:30:22Z</time>
      </trkpt>
      <trkpt lat="45.29345" lon="6.20731">
        <ele>1340.6</ele>
        <time>2022-01-27T08:30:23Z</time>
      </trkpt>
      <trkpt lat="45.29346" lon="6.20732">
        <ele>1340.7</ele>
        <time>2022-01-27T08:30:24Z</time>
      </trkpt>
      <trkpt lat="45.29346" lon="6.20733">
        <ele>1340.9</ele>
        <time>2022-01-27T08:30:25Z</time>
      </trkpt>
      <trkpt lat="45.29348" lon="6.20736">
        <ele>1341.4</ele>
        <time>2022-01-27T08:30:27Z</time>
      </trkpt>
      <trkpt lat="45.29349" lon="6.20737">
        <ele>1341.6</ele>
        <time>2022-01-27T08:30:28Z</time>
      </trkpt>
      <trkpt lat="45.2935" lon="6.20739">
        <ele>1341.8</ele>
        <time>2022-01-27T08:30:30Z</time>
      </trkpt>
      <trkpt lat="45.29351" lon="6.20739">
        <ele>1342</ele>
        <time>2022-01-27T08:30:32Z</time>
      </trkpt>
      <trkpt lat="45.2935" lon="6.20739">
        <ele>1342.2</ele>
        <time>2022-01-27T08:30:36Z</time>
      </trkpt>
      <trkpt lat="45.29349" lon="6.20738">
        <ele>1342.3</ele>
        <time>2022-01-27T08:30:37Z</time>
      </trkpt>
      <trkpt lat="45.29349" lon="6.20737">
        <ele>1342.5</ele>
        <time>2022-01-27T08:30:39Z</time>
      </trkpt>
      <trkpt lat="45.29348" lon="6.20737">
        <ele>1342.6</ele>
        <time>2022-01-27T08:30:40Z</time>
      </trkpt>
      <trkpt lat="45.29347" lon="6.20736">
        <ele>1342.8</ele>
        <time>2022-01-27T08:30:44Z</time>
      </trkpt>
      <trkpt lat="45.29347" lon="6.20737">
        <ele>1342.8</ele>
        <time>2022-01-27T08:30:46Z</time>
      </trkpt>
      <trkpt lat="45.29345" lon="6.20734">
        <ele>1343.3</ele>
        <time>2022-01-27T08:31:07Z</time>
      </trkpt>
      <trkpt lat="45.29345" lon="6.20733">
        <ele>1343.3</ele>
        <time>2022-01-27T08:31:08Z</time>
      </trkpt>
      <trkpt lat="45.29345" lon="6.20734">
        <ele>1343.4</ele>
        <time>2022-01-27T08:31:12Z</time>
      </trkpt>
      <trkpt lat="45.29347" lon="6.2073">
        <ele>1344</ele>
        <time>2022-01-27T08:35:34Z</time>
      </trkpt>
      <trkpt lat="45.29349" lon="6.20726">
        <ele>1344.6</ele>
        <time>2022-01-27T08:35:36Z</time>
      </trkpt>
      <trkpt lat="45.29349" lon="6.20722">
        <ele>1345.1</ele>
        <time>2022-01-27T08:35:37Z</time>
      </trkpt>
      <trkpt lat="45.2935" lon="6.20717">
        <ele>1345.7</ele>
        <time>2022-01-27T08:35:39Z</time>
      </trkpt>
      <trkpt lat="45.2935" lon="6.20715">
        <ele>1345.9</ele>
        <time>2022-01-27T08:35:40Z</time>
      </trkpt>
      <trkpt lat="45.2935" lon="6.2071">
        <ele>1346.5</ele>
        <time>2022-01-27T08:35:42Z</time>
      </trkpt>
      <trkpt lat="45.2935" lon="6.20708">
        <ele>1346.9</ele>
        <time>2022-01-27T08:35:43Z</time>
      </trkpt>
      <trkpt lat="45.2935" lon="6.20704">
        <ele>1347.3</ele>
        <time>2022-01-27T08:35:44Z</time>
      </trkpt>
      <trkpt lat="45.29351" lon="6.20701">
        <ele>1347.8</ele>
        <time>2022-01-27T08:35:46Z</time>
      </trkpt>
      <trkpt lat="45.29352" lon="6.20698">
        <ele>1348.1</ele>
        <time>2022-01-27T08:35:47Z</time>
      </trkpt>
      <trkpt lat="45.29352" lon="6.20695">
        <ele>1348.5</ele>
        <time>2022-01-27T08:35:49Z</time>
      </trkpt>
      <trkpt lat="45.29353" lon="6.20693">
        <ele>1348.8</ele>
        <time>2022-01-27T08:35:50Z</time>
      </trkpt>
      <trkpt lat="45.29355" lon="6.20691">
        <ele>1349.2</ele>
        <time>2022-01-27T08:35:52Z</time>
      </trkpt>
      <trkpt lat="45.29357" lon="6.20687">
        <ele>1349.8</ele>
        <time>2022-01-27T08:35:53Z</time>
      </trkpt>
      <trkpt lat="45.29357" lon="6.20686">
        <ele>1350</ele>
        <time>2022-01-27T08:35:54Z</time>
      </trkpt>
      <trkpt lat="45.29359" lon="6.20682">
        <ele>1350.5</ele>
        <time>2022-01-27T08:35:56Z</time>
      </trkpt>
      <trkpt lat="45.29359" lon="6.20681">
        <ele>1350.7</ele>
        <time>2022-01-27T08:35:57Z</time>
      </trkpt>
      <trkpt lat="45.2936" lon="6.20677">
        <ele>1351.2</ele>
        <time>2022-01-27T08:35:59Z</time>
      </trkpt>
      <trkpt lat="45.2936" lon="6.20676">
        <ele>1351.3</ele>
        <time>2022-01-27T08:36:00Z</time>
      </trkpt>
      <trkpt lat="45.2936" lon="6.20672">
        <ele>1351.8</ele>
        <time>2022-01-27T08:36:01Z</time>
      </trkpt>
      <trkpt lat="45.2936" lon="6.20671">
        <ele>1352</ele>
        <time>2022-01-27T08:36:02Z</time>
      </trkpt>
      <trkpt lat="45.2936" lon="6.20669">
        <ele>1352.2</ele>
        <time>2022-01-27T08:36:03Z</time>
      </trkpt>
      <trkpt lat="45.2936" lon="6.20666">
        <ele>1352.5</ele>
        <time>2022-01-27T08:36:05Z</time>
      </trkpt>
      <trkpt lat="45.2936" lon="6.20665">
        <ele>1352.7</ele>
        <time>2022-01-27T08:36:06Z</time>
      </trkpt>
      <trkpt lat="45.2936" lon="6.20664">
        <ele>1352.8</ele>
        <time>2022-01-27T08:36:07Z</time>
      </trkpt>
      <trkpt lat="45.29361" lon="6.2066">
        <ele>1353.3</ele>
        <time>2022-01-27T08:36:08Z</time>
      </trkpt>
      <trkpt lat="45.29362" lon="6.20656">
        <ele>1353.8</ele>
        <time>2022-01-27T08:36:10Z</time>
      </trkpt>
      <trkpt lat="45.29363" lon="6.20655">
        <ele>1354</ele>
        <time>2022-01-27T08:36:11Z</time>
      </trkpt>
      <trkpt lat="45.29364" lon="6.20652">
        <ele>1354.5</ele>
        <time>2022-01-27T08:36:13Z</time>
      </trkpt>
      <trkpt lat="45.29365" lon="6.2065">
        <ele>1354.7</ele>
        <time>2022-01-27T08:36:14Z</time>
      </trkpt>
      <trkpt lat="45.29365" lon="6.20649">
        <ele>1354.9</ele>
        <time>2022-01-27T08:36:15Z</time>
      </trkpt>
      <trkpt lat="45.29365" lon="6.20647">
        <ele>1355.1</ele>
        <time>2022-01-27T08:36:16Z</time>
      </trkpt>
      <trkpt lat="45.29365" lon="6.20645">
        <ele>1355.3</ele>
        <time>2022-01-27T08:36:17Z</time>
      </trkpt>
      <trkpt lat="45.29366" lon="6.20641">
        <ele>1355.9</ele>
        <time>2022-01-27T08:36:18Z</time>
      </trkpt>
      <trkpt lat="45.29366" lon="6.2064">
        <ele>1356</ele>
        <time>2022-01-27T08:36:19Z</time>
      </trkpt>
      <trkpt lat="45.29367" lon="6.20637">
        <ele>1356.5</ele>
        <time>2022-01-27T08:36:21Z</time>
      </trkpt>
      <trkpt lat="45.29368" lon="6.20635">
        <ele>1356.7</ele>
        <time>2022-01-27T08:36:22Z</time>
      </trkpt>
      <trkpt lat="45.29369" lon="6.20632">
        <ele>1357.1</ele>
        <time>2022-01-27T08:36:24Z</time>
      </trkpt>
      <trkpt lat="45.29369" lon="6.20631">
        <ele>1357.3</ele>
        <time>2022-01-27T08:36:25Z</time>
      </trkpt>
      <trkpt lat="45.2937" lon="6.20627">
        <ele>1357.7</ele>
        <time>2022-01-27T08:36:26Z</time>
      </trkpt>
      <trkpt lat="45.2937" lon="6.20626">
        <ele>1357.9</ele>
        <time>2022-01-27T08:36:27Z</time>
      </trkpt>
      <trkpt lat="45.2937" lon="6.20624">
        <ele>1358.1</ele>
        <time>2022-01-27T08:36:28Z</time>
      </trkpt>
      <trkpt lat="45.29371" lon="6.20623">
        <ele>1358.3</ele>
        <time>2022-01-27T08:36:30Z</time>
      </trkpt>
      <trkpt lat="45.29371" lon="6.20621">
        <ele>1358.6</ele>
        <time>2022-01-27T08:36:31Z</time>
      </trkpt>
      <trkpt lat="45.29371" lon="6.2062">
        <ele>1358.7</ele>
        <time>2022-01-27T08:36:32Z</time>
      </trkpt>
      <trkpt lat="45.29372" lon="6.20618">
        <ele>1358.9</ele>
        <time>2022-01-27T08:36:33Z</time>
      </trkpt>
      <trkpt lat="45.29372" lon="6.20616">
        <ele>1359.2</ele>
        <time>2022-01-27T08:36:34Z</time>
      </trkpt>
      <trkpt lat="45.29372" lon="6.20615">
        <ele>1359.4</ele>
        <time>2022-01-27T08:36:35Z</time>
      </trkpt>
      <trkpt lat="45.29373" lon="6.20614">
        <ele>1359.6</ele>
        <time>2022-01-27T08:36:36Z</time>
      </trkpt>
      <trkpt lat="45.29373" lon="6.20612">
        <ele>1359.7</ele>
        <time>2022-01-27T08:36:37Z</time>
      </trkpt>
      <trkpt lat="45.29373" lon="6.20611">
        <ele>1359.9</ele>
        <time>2022-01-27T08:36:38Z</time>
      </trkpt>
      <trkpt lat="45.29374" lon="6.20609">
        <ele>1360.2</ele>
        <time>2022-01-27T08:36:39Z</time>
      </trkpt>
      <trkpt lat="45.29374" lon="6.20607">
        <ele>1360.4</ele>
        <time>2022-01-27T08:36:40Z</time>
      </trkpt>
      <trkpt lat="45.29374" lon="6.20606">
        <ele>1360.5</ele>
        <time>2022-01-27T08:36:41Z</time>
      </trkpt>
      <trkpt lat="45.29374" lon="6.20605">
        <ele>1360.7</ele>
        <time>2022-01-27T08:36:42Z</time>
      </trkpt>
      <trkpt lat="45.29375" lon="6.20603">
        <ele>1360.9</ele>
        <time>2022-01-27T08:36:43Z</time>
      </trkpt>
      <trkpt lat="45.29375" lon="6.20601">
        <ele>1361.2</ele>
        <time>2022-01-27T08:36:44Z</time>
      </trkpt>
      <trkpt lat="45.29375" lon="6.206">
        <ele>1361.3</ele>
        <time>2022-01-27T08:36:45Z</time>
      </trkpt>
      <trkpt lat="45.29375" lon="6.20599">
        <ele>1361.5</ele>
        <time>2022-01-27T08:36:46Z</time>
      </trkpt>
      <trkpt lat="45.29376" lon="6.20597">
        <ele>1361.7</ele>
        <time>2022-01-27T08:36:47Z</time>
      </trkpt>
      <trkpt lat="45.29377" lon="6.20596">
        <ele>1362</ele>
        <time>2022-01-27T08:36:49Z</time>
      </trkpt>
      <trkpt lat="45.29377" lon="6.20595">
        <ele>1362.1</ele>
        <time>2022-01-27T08:36:50Z</time>
      </trkpt>
      <trkpt lat="45.29379" lon="6.20594">
        <ele>1362.3</ele>
        <time>2022-01-27T08:36:51Z</time>
      </trkpt>
      <trkpt lat="45.2938" lon="6.20593">
        <ele>1362.6</ele>
        <time>2022-01-27T08:36:52Z</time>
      </trkpt>
      <trkpt lat="45.29381" lon="6.20591">
        <ele>1362.9</ele>
        <time>2022-01-27T08:36:54Z</time>
      </trkpt>
      <trkpt lat="45.29381" lon="6.2059">
        <ele>1363.1</ele>
        <time>2022-01-27T08:36:55Z</time>
      </trkpt>
      <trkpt lat="45.29382" lon="6.20589">
        <ele>1363.2</ele>
        <time>2022-01-27T08:36:56Z</time>
      </trkpt>
      <trkpt lat="45.29383" lon="6.20588">
        <ele>1363.4</ele>
        <time>2022-01-27T08:36:57Z</time>
      </trkpt>
      <trkpt lat="45.29384" lon="6.20585">
        <ele>1363.8</ele>
        <time>2022-01-27T08:36:58Z</time>
      </trkpt>
      <trkpt lat="45.29384" lon="6.20583">
        <ele>1364.1</ele>
        <time>2022-01-27T08:36:59Z</time>
      </trkpt>
      <trkpt lat="45.29385" lon="6.2058">
        <ele>1364.5</ele>
        <time>2022-01-27T08:37:01Z</time>
      </trkpt>
      <trkpt lat="45.29385" lon="6.20578">
        <ele>1364.7</ele>
        <time>2022-01-27T08:37:02Z</time>
      </trkpt>
      <trkpt lat="45.29385" lon="6.20577">
        <ele>1364.9</ele>
        <time>2022-01-27T08:37:03Z</time>
      </trkpt>
      <trkpt lat="45.29385" lon="6.20574">
        <ele>1365.3</ele>
        <time>2022-01-27T08:37:04Z</time>
      </trkpt>
      <trkpt lat="45.29386" lon="6.20572">
        <ele>1365.5</ele>
        <time>2022-01-27T08:37:06Z</time>
      </trkpt>
      <trkpt lat="45.29386" lon="6.20571">
        <ele>1365.6</ele>
        <time>2022-01-27T08:37:07Z</time>
      </trkpt>
      <trkpt lat="45.29386" lon="6.20568">
        <ele>1366</ele>
        <time>2022-01-27T08:37:09Z</time>
      </trkpt>
      <trkpt lat="45.29386" lon="6.20567">
        <ele>1366.2</ele>
        <time>2022-01-27T08:37:10Z</time>
      </trkpt>
      <trkpt lat="45.29387" lon="6.20565">
        <ele>1366.4</ele>
        <time>2022-01-27T08:37:11Z</time>
      </trkpt>
      <trkpt lat="45.29387" lon="6.20564">
        <ele>1366.5</ele>
        <time>2022-01-27T08:37:12Z</time>
      </trkpt>
      <trkpt lat="45.29387" lon="6.20562">
        <ele>1366.8</ele>
        <time>2022-01-27T08:37:13Z</time>
      </trkpt>
      <trkpt lat="45.29388" lon="6.2056">
        <ele>1367</ele>
        <time>2022-01-27T08:37:14Z</time>
      </trkpt>
      <trkpt lat="45.29388" lon="6.20558">
        <ele>1367.3</ele>
        <time>2022-01-27T08:37:15Z</time>
      </trkpt>
      <trkpt lat="45.29389" lon="6.20555">
        <ele>1367.7</ele>
        <time>2022-01-27T08:37:16Z</time>
      </trkpt>
      <trkpt lat="45.29389" lon="6.20554">
        <ele>1367.9</ele>
        <time>2022-01-27T08:37:18Z</time>
      </trkpt>
      <trkpt lat="45.29389" lon="6.20552">
        <ele>1368.1</ele>
        <time>2022-01-27T08:37:19Z</time>
      </trkpt>
      <trkpt lat="45.29389" lon="6.20551">
        <ele>1368.2</ele>
        <time>2022-01-27T08:37:20Z</time>
      </trkpt>
      <trkpt lat="45.29389" lon="6.2055">
        <ele>1368.4</ele>
        <time>2022-01-27T08:37:21Z</time>
      </trkpt>
      <trkpt lat="45.2939" lon="6.20548">
        <ele>1368.6</ele>
        <time>2022-01-27T08:37:22Z</time>
      </trkpt>
      <trkpt lat="45.2939" lon="6.20545">
        <ele>1369</ele>
        <time>2022-01-27T08:37:24Z</time>
      </trkpt>
      <trkpt lat="45.2939" lon="6.20544">
        <ele>1369.1</ele>
        <time>2022-01-27T08:37:25Z</time>
      </trkpt>
      <trkpt lat="45.29391" lon="6.20543">
        <ele>1369.3</ele>
        <time>2022-01-27T08:37:26Z</time>
      </trkpt>
      <trkpt lat="45.29391" lon="6.20542">
        <ele>1369.4</ele>
        <time>2022-01-27T08:37:27Z</time>
      </trkpt>
      <trkpt lat="45.29392" lon="6.20541">
        <ele>1369.5</ele>
        <time>2022-01-27T08:37:28Z</time>
      </trkpt>
      <trkpt lat="45.29393" lon="6.2054">
        <ele>1369.7</ele>
        <time>2022-01-27T08:37:29Z</time>
      </trkpt>
      <trkpt lat="45.29393" lon="6.20539">
        <ele>1369.8</ele>
        <time>2022-01-27T08:37:30Z</time>
      </trkpt>
      <trkpt lat="45.29394" lon="6.20538">
        <ele>1369.9</ele>
        <time>2022-01-27T08:37:31Z</time>
      </trkpt>
      <trkpt lat="45.29394" lon="6.20537">
        <ele>1370</ele>
        <time>2022-01-27T08:37:32Z</time>
      </trkpt>
      <trkpt lat="45.29395" lon="6.20537">
        <ele>1370</ele>
        <time>2022-01-27T08:37:33Z</time>
      </trkpt>
      <trkpt lat="45.29395" lon="6.20536">
        <ele>1370.1</ele>
        <time>2022-01-27T08:37:34Z</time>
      </trkpt>
      <trkpt lat="45.29396" lon="6.20536">
        <ele>1370.2</ele>
        <time>2022-01-27T08:37:35Z</time>
      </trkpt>
      <trkpt lat="45.29397" lon="6.20535">
        <ele>1370.3</ele>
        <time>2022-01-27T08:37:38Z</time>
      </trkpt>
      <trkpt lat="45.29398" lon="6.20535">
        <ele>1370.4</ele>
        <time>2022-01-27T08:37:40Z</time>
      </trkpt>
      <trkpt lat="45.29398" lon="6.20534">
        <ele>1370.5</ele>
        <time>2022-01-27T08:37:41Z</time>
      </trkpt>
      <trkpt lat="45.29399" lon="6.20534">
        <ele>1370.6</ele>
        <time>2022-01-27T08:37:42Z</time>
      </trkpt>
      <trkpt lat="45.29399" lon="6.20533">
        <ele>1370.7</ele>
        <time>2022-01-27T08:37:43Z</time>
      </trkpt>
      <trkpt lat="45.29398" lon="6.2053">
        <ele>1371</ele>
        <time>2022-01-27T08:37:45Z</time>
      </trkpt>
      <trkpt lat="45.29397" lon="6.20529">
        <ele>1371.2</ele>
        <time>2022-01-27T08:37:51Z</time>
      </trkpt>
      <trkpt lat="45.29396" lon="6.20527">
        <ele>1371.4</ele>
        <time>2022-01-27T08:37:53Z</time>
      </trkpt>
      <trkpt lat="45.29395" lon="6.20525">
        <ele>1371.6</ele>
        <time>2022-01-27T08:37:54Z</time>
      </trkpt>
      <trkpt lat="45.29394" lon="6.20523">
        <ele>1371.8</ele>
        <time>2022-01-27T08:37:56Z</time>
      </trkpt>
      <trkpt lat="45.29393" lon="6.2052">
        <ele>1372</ele>
        <time>2022-01-27T08:37:57Z</time>
      </trkpt>
      <trkpt lat="45.29394" lon="6.20514">
        <ele>1372.6</ele>
        <time>2022-01-27T08:37:59Z</time>
      </trkpt>
      <trkpt lat="45.29394" lon="6.20512">
        <ele>1372.7</ele>
        <time>2022-01-27T08:38:01Z</time>
      </trkpt>
      <trkpt lat="45.29394" lon="6.2051">
        <ele>1372.9</ele>
        <time>2022-01-27T08:38:02Z</time>
      </trkpt>
      <trkpt lat="45.29395" lon="6.20506">
        <ele>1373.3</ele>
        <time>2022-01-27T08:38:04Z</time>
      </trkpt>
      <trkpt lat="45.29396" lon="6.20505">
        <ele>1373.4</ele>
        <time>2022-01-27T08:38:05Z</time>
      </trkpt>
      <trkpt lat="45.29396" lon="6.20503">
        <ele>1373.7</ele>
        <time>2022-01-27T08:38:07Z</time>
      </trkpt>
      <trkpt lat="45.29397" lon="6.20501">
        <ele>1373.8</ele>
        <time>2022-01-27T08:38:08Z</time>
      </trkpt>
      <trkpt lat="45.29398" lon="6.20499">
        <ele>1374.1</ele>
        <time>2022-01-27T08:38:09Z</time>
      </trkpt>
      <trkpt lat="45.29398" lon="6.20498">
        <ele>1374.2</ele>
        <time>2022-01-27T08:38:10Z</time>
      </trkpt>
      <trkpt lat="45.29399" lon="6.20495">
        <ele>1374.4</ele>
        <time>2022-01-27T08:38:11Z</time>
      </trkpt>
      <trkpt lat="45.29399" lon="6.20493">
        <ele>1374.6</ele>
        <time>2022-01-27T08:38:12Z</time>
      </trkpt>
      <trkpt lat="45.294" lon="6.20492">
        <ele>1374.7</ele>
        <time>2022-01-27T08:38:13Z</time>
      </trkpt>
      <trkpt lat="45.294" lon="6.20489">
        <ele>1374.9</ele>
        <time>2022-01-27T08:38:15Z</time>
      </trkpt>
      <trkpt lat="45.29401" lon="6.20488">
        <ele>1375</ele>
        <time>2022-01-27T08:38:16Z</time>
      </trkpt>
      <trkpt lat="45.29401" lon="6.20486">
        <ele>1375.1</ele>
        <time>2022-01-27T08:38:17Z</time>
      </trkpt>
      <trkpt lat="45.29402" lon="6.20484">
        <ele>1375.4</ele>
        <time>2022-01-27T08:38:18Z</time>
      </trkpt>
      <trkpt lat="45.29402" lon="6.20481">
        <ele>1375.6</ele>
        <time>2022-01-27T08:38:20Z</time>
      </trkpt>
      <trkpt lat="45.29403" lon="6.20479">
        <ele>1375.7</ele>
        <time>2022-01-27T08:38:21Z</time>
      </trkpt>
      <trkpt lat="45.29403" lon="6.20477">
        <ele>1375.8</ele>
        <time>2022-01-27T08:38:22Z</time>
      </trkpt>
      <trkpt lat="45.29404" lon="6.20476">
        <ele>1376</ele>
        <time>2022-01-27T08:38:23Z</time>
      </trkpt>
      <trkpt lat="45.29405" lon="6.20472">
        <ele>1376.3</ele>
        <time>2022-01-27T08:38:25Z</time>
      </trkpt>
      <trkpt lat="45.29405" lon="6.20469">
        <ele>1376.5</ele>
        <time>2022-01-27T08:38:26Z</time>
      </trkpt>
      <trkpt lat="45.29405" lon="6.20468">
        <ele>1376.6</ele>
        <time>2022-01-27T08:38:27Z</time>
      </trkpt>
      <trkpt lat="45.29405" lon="6.20466">
        <ele>1376.7</ele>
        <time>2022-01-27T08:38:28Z</time>
      </trkpt>
      <trkpt lat="45.29405" lon="6.20462">
        <ele>1377.1</ele>
        <time>2022-01-27T08:38:29Z</time>
      </trkpt>
      <trkpt lat="45.29405" lon="6.20461">
        <ele>1377.2</ele>
        <time>2022-01-27T08:38:30Z</time>
      </trkpt>
      <trkpt lat="45.29405" lon="6.20459">
        <ele>1377.4</ele>
        <time>2022-01-27T08:38:32Z</time>
      </trkpt>
      <trkpt lat="45.29405" lon="6.20457">
        <ele>1377.6</ele>
        <time>2022-01-27T08:38:33Z</time>
      </trkpt>
      <trkpt lat="45.29406" lon="6.20452">
        <ele>1378.1</ele>
        <time>2022-01-27T08:38:34Z</time>
      </trkpt>
      <trkpt lat="45.29406" lon="6.20451">
        <ele>1378.2</ele>
        <time>2022-01-27T08:38:35Z</time>
      </trkpt>
      <trkpt lat="45.29406" lon="6.20449">
        <ele>1378.4</ele>
        <time>2022-01-27T08:38:37Z</time>
      </trkpt>
      <trkpt lat="45.29406" lon="6.20447">
        <ele>1378.7</ele>
        <time>2022-01-27T08:38:38Z</time>
      </trkpt>
      <trkpt lat="45.29406" lon="6.20445">
        <ele>1378.9</ele>
        <time>2022-01-27T08:38:40Z</time>
      </trkpt>
      <trkpt lat="45.29406" lon="6.20443">
        <ele>1379.1</ele>
        <time>2022-01-27T08:38:41Z</time>
      </trkpt>
      <trkpt lat="45.29405" lon="6.20442">
        <ele>1379.2</ele>
        <time>2022-01-27T08:38:42Z</time>
      </trkpt>
      <trkpt lat="45.29405" lon="6.20441">
        <ele>1379.4</ele>
        <time>2022-01-27T08:38:43Z</time>
      </trkpt>
      <trkpt lat="45.29405" lon="6.20438">
        <ele>1379.6</ele>
        <time>2022-01-27T08:38:44Z</time>
      </trkpt>
      <trkpt lat="45.29405" lon="6.20437">
        <ele>1379.8</ele>
        <time>2022-01-27T08:38:46Z</time>
      </trkpt>
      <trkpt lat="45.29405" lon="6.20435">
        <ele>1379.9</ele>
        <time>2022-01-27T08:38:47Z</time>
      </trkpt>
      <trkpt lat="45.29406" lon="6.20434">
        <ele>1380</ele>
        <time>2022-01-27T08:38:48Z</time>
      </trkpt>
      <trkpt lat="45.29406" lon="6.2043">
        <ele>1380.4</ele>
        <time>2022-01-27T08:38:49Z</time>
      </trkpt>
      <trkpt lat="45.29407" lon="6.20428">
        <ele>1380.6</ele>
        <time>2022-01-27T08:38:51Z</time>
      </trkpt>
      <trkpt lat="45.29407" lon="6.20427">
        <ele>1380.7</ele>
        <time>2022-01-27T08:38:52Z</time>
      </trkpt>
      <trkpt lat="45.29407" lon="6.20426">
        <ele>1380.8</ele>
        <time>2022-01-27T08:38:53Z</time>
      </trkpt>
      <trkpt lat="45.29408" lon="6.20424">
        <ele>1380.9</ele>
        <time>2022-01-27T08:38:54Z</time>
      </trkpt>
      <trkpt lat="45.29408" lon="6.20423">
        <ele>1381</ele>
        <time>2022-01-27T08:38:56Z</time>
      </trkpt>
      <trkpt lat="45.29408" lon="6.20421">
        <ele>1381.1</ele>
        <time>2022-01-27T08:38:57Z</time>
      </trkpt>
      <trkpt lat="45.29408" lon="6.2042">
        <ele>1381.2</ele>
        <time>2022-01-27T08:38:58Z</time>
      </trkpt>
      <trkpt lat="45.29407" lon="6.20417">
        <ele>1381.4</ele>
        <time>2022-01-27T08:38:59Z</time>
      </trkpt>
      <trkpt lat="45.29407" lon="6.20416">
        <ele>1381.5</ele>
        <time>2022-01-27T08:39:01Z</time>
      </trkpt>
      <trkpt lat="45.29407" lon="6.20414">
        <ele>1381.6</ele>
        <time>2022-01-27T08:39:02Z</time>
      </trkpt>
      <trkpt lat="45.29406" lon="6.20413">
        <ele>1381.7</ele>
        <time>2022-01-27T08:39:03Z</time>
      </trkpt>
      <trkpt lat="45.29405" lon="6.2041">
        <ele>1381.9</ele>
        <time>2022-01-27T08:39:05Z</time>
      </trkpt>
      <trkpt lat="45.29405" lon="6.20408">
        <ele>1382</ele>
        <time>2022-01-27T08:39:06Z</time>
      </trkpt>
      <trkpt lat="45.29405" lon="6.20406">
        <ele>1382.1</ele>
        <time>2022-01-27T08:39:07Z</time>
      </trkpt>
      <trkpt lat="45.29405" lon="6.20405">
        <ele>1382.2</ele>
        <time>2022-01-27T08:39:08Z</time>
      </trkpt>
      <trkpt lat="45.29405" lon="6.20404">
        <ele>1382.2</ele>
        <time>2022-01-27T08:39:09Z</time>
      </trkpt>
      <trkpt lat="45.29405" lon="6.20402">
        <ele>1382.3</ele>
        <time>2022-01-27T08:39:11Z</time>
      </trkpt>
      <trkpt lat="45.29405" lon="6.20401">
        <ele>1382.4</ele>
        <time>2022-01-27T08:39:12Z</time>
      </trkpt>
      <trkpt lat="45.29405" lon="6.20399">
        <ele>1382.5</ele>
        <time>2022-01-27T08:39:14Z</time>
      </trkpt>
      <trkpt lat="45.29405" lon="6.20397">
        <ele>1382.7</ele>
        <time>2022-01-27T08:39:15Z</time>
      </trkpt>
      <trkpt lat="45.29405" lon="6.20395">
        <ele>1382.8</ele>
        <time>2022-01-27T08:39:17Z</time>
      </trkpt>
      <trkpt lat="45.29405" lon="6.20394">
        <ele>1382.9</ele>
        <time>2022-01-27T08:39:18Z</time>
      </trkpt>
      <trkpt lat="45.29405" lon="6.20391">
        <ele>1383.1</ele>
        <time>2022-01-27T08:39:19Z</time>
      </trkpt>
      <trkpt lat="45.29405" lon="6.2039">
        <ele>1383.2</ele>
        <time>2022-01-27T08:39:20Z</time>
      </trkpt>
      <trkpt lat="45.29405" lon="6.20388">
        <ele>1383.3</ele>
        <time>2022-01-27T08:39:21Z</time>
      </trkpt>
      <trkpt lat="45.29405" lon="6.20385">
        <ele>1383.5</ele>
        <time>2022-01-27T08:39:23Z</time>
      </trkpt>
      <trkpt lat="45.29405" lon="6.20384">
        <ele>1383.7</ele>
        <time>2022-01-27T08:39:24Z</time>
      </trkpt>
      <trkpt lat="45.29405" lon="6.20383">
        <ele>1383.8</ele>
        <time>2022-01-27T08:39:25Z</time>
      </trkpt>
      <trkpt lat="45.29404" lon="6.20379">
        <ele>1384.1</ele>
        <time>2022-01-27T08:39:26Z</time>
      </trkpt>
      <trkpt lat="45.29404" lon="6.20377">
        <ele>1384.2</ele>
        <time>2022-01-27T08:39:28Z</time>
      </trkpt>
      <trkpt lat="45.29404" lon="6.20376">
        <ele>1384.4</ele>
        <time>2022-01-27T08:39:29Z</time>
      </trkpt>
      <trkpt lat="45.29403" lon="6.20373">
        <ele>1384.6</ele>
        <time>2022-01-27T08:39:31Z</time>
      </trkpt>
      <trkpt lat="45.29403" lon="6.20372">
        <ele>1384.7</ele>
        <time>2022-01-27T08:39:32Z</time>
      </trkpt>
      <trkpt lat="45.29403" lon="6.20371">
        <ele>1384.8</ele>
        <time>2022-01-27T08:39:33Z</time>
      </trkpt>
      <trkpt lat="45.29403" lon="6.20368">
        <ele>1385</ele>
        <time>2022-01-27T08:39:35Z</time>
      </trkpt>
      <trkpt lat="45.29403" lon="6.20367">
        <ele>1385.1</ele>
        <time>2022-01-27T08:39:36Z</time>
      </trkpt>
      <trkpt lat="45.29403" lon="6.20363">
        <ele>1385.4</ele>
        <time>2022-01-27T08:39:38Z</time>
      </trkpt>
      <trkpt lat="45.29403" lon="6.20361">
        <ele>1385.5</ele>
        <time>2022-01-27T08:39:39Z</time>
      </trkpt>
      <trkpt lat="45.29403" lon="6.20359">
        <ele>1385.6</ele>
        <time>2022-01-27T08:39:41Z</time>
      </trkpt>
      <trkpt lat="45.29402" lon="6.20357">
        <ele>1385.8</ele>
        <time>2022-01-27T08:39:42Z</time>
      </trkpt>
      <trkpt lat="45.294" lon="6.20354">
        <ele>1386</ele>
        <time>2022-01-27T08:39:44Z</time>
      </trkpt>
      <trkpt lat="45.294" lon="6.20353">
        <ele>1386.1</ele>
        <time>2022-01-27T08:39:45Z</time>
      </trkpt>
      <trkpt lat="45.29399" lon="6.20351">
        <ele>1386.3</ele>
        <time>2022-01-27T08:39:47Z</time>
      </trkpt>
      <trkpt lat="45.29398" lon="6.20349">
        <ele>1386.4</ele>
        <time>2022-01-27T08:39:48Z</time>
      </trkpt>
      <trkpt lat="45.29397" lon="6.20347">
        <ele>1386.6</ele>
        <time>2022-01-27T08:39:50Z</time>
      </trkpt>
      <trkpt lat="45.29397" lon="6.20345">
        <ele>1386.8</ele>
        <time>2022-01-27T08:39:51Z</time>
      </trkpt>
      <trkpt lat="45.29396" lon="6.20342">
        <ele>1387</ele>
        <time>2022-01-27T08:39:53Z</time>
      </trkpt>
      <trkpt lat="45.29395" lon="6.20341">
        <ele>1387.1</ele>
        <time>2022-01-27T08:39:54Z</time>
      </trkpt>
      <trkpt lat="45.29395" lon="6.2034">
        <ele>1387.2</ele>
        <time>2022-01-27T08:39:55Z</time>
      </trkpt>
      <trkpt lat="45.29395" lon="6.20338">
        <ele>1387.4</ele>
        <time>2022-01-27T08:39:57Z</time>
      </trkpt>
      <trkpt lat="45.29395" lon="6.20337">
        <ele>1387.5</ele>
        <time>2022-01-27T08:39:58Z</time>
      </trkpt>
      <trkpt lat="45.29395" lon="6.20335">
        <ele>1387.7</ele>
        <time>2022-01-27T08:40:00Z</time>
      </trkpt>
      <trkpt lat="45.29395" lon="6.20332">
        <ele>1388</ele>
        <time>2022-01-27T08:40:01Z</time>
      </trkpt>
      <trkpt lat="45.29395" lon="6.2033">
        <ele>1388.1</ele>
        <time>2022-01-27T08:40:03Z</time>
      </trkpt>
      <trkpt lat="45.29395" lon="6.20329">
        <ele>1388.3</ele>
        <time>2022-01-27T08:40:04Z</time>
      </trkpt>
      <trkpt lat="45.29395" lon="6.20328">
        <ele>1388.4</ele>
        <time>2022-01-27T08:40:06Z</time>
      </trkpt>
      <trkpt lat="45.29395" lon="6.20326">
        <ele>1388.6</ele>
        <time>2022-01-27T08:40:07Z</time>
      </trkpt>
      <trkpt lat="45.29395" lon="6.20324">
        <ele>1388.8</ele>
        <time>2022-01-27T08:40:09Z</time>
      </trkpt>
      <trkpt lat="45.29395" lon="6.2032">
        <ele>1389.1</ele>
        <time>2022-01-27T08:40:10Z</time>
      </trkpt>
      <trkpt lat="45.29395" lon="6.20319">
        <ele>1389.2</ele>
        <time>2022-01-27T08:40:11Z</time>
      </trkpt>
      <trkpt lat="45.29395" lon="6.20318">
        <ele>1389.3</ele>
        <time>2022-01-27T08:40:12Z</time>
      </trkpt>
      <trkpt lat="45.29396" lon="6.20317">
        <ele>1389.5</ele>
        <time>2022-01-27T08:40:14Z</time>
      </trkpt>
      <trkpt lat="45.29396" lon="6.20314">
        <ele>1389.7</ele>
        <time>2022-01-27T08:40:15Z</time>
      </trkpt>
      <trkpt lat="45.29396" lon="6.20313">
        <ele>1389.8</ele>
        <time>2022-01-27T08:40:17Z</time>
      </trkpt>
      <trkpt lat="45.29396" lon="6.20311">
        <ele>1390</ele>
        <time>2022-01-27T08:40:18Z</time>
      </trkpt>
      <trkpt lat="45.29396" lon="6.20309">
        <ele>1390.2</ele>
        <time>2022-01-27T08:40:20Z</time>
      </trkpt>
      <trkpt lat="45.29396" lon="6.20307">
        <ele>1390.4</ele>
        <time>2022-01-27T08:40:21Z</time>
      </trkpt>
      <trkpt lat="45.29397" lon="6.20306">
        <ele>1390.5</ele>
        <time>2022-01-27T08:40:23Z</time>
      </trkpt>
      <trkpt lat="45.29397" lon="6.20305">
        <ele>1390.6</ele>
        <time>2022-01-27T08:40:24Z</time>
      </trkpt>
      <trkpt lat="45.29398" lon="6.20303">
        <ele>1390.8</ele>
        <time>2022-01-27T08:40:25Z</time>
      </trkpt>
      <trkpt lat="45.29398" lon="6.20302">
        <ele>1391</ele>
        <time>2022-01-27T08:40:26Z</time>
      </trkpt>
      <trkpt lat="45.29399" lon="6.203">
        <ele>1391.1</ele>
        <time>2022-01-27T08:40:28Z</time>
      </trkpt>
      <trkpt lat="45.294" lon="6.20297">
        <ele>1391.5</ele>
        <time>2022-01-27T08:40:30Z</time>
      </trkpt>
      <trkpt lat="45.294" lon="6.20296">
        <ele>1391.6</ele>
        <time>2022-01-27T08:40:31Z</time>
      </trkpt>
      <trkpt lat="45.29401" lon="6.20293">
        <ele>1391.9</ele>
        <time>2022-01-27T08:40:32Z</time>
      </trkpt>
      <trkpt lat="45.29401" lon="6.20292">
        <ele>1392</ele>
        <time>2022-01-27T08:40:34Z</time>
      </trkpt>
      <trkpt lat="45.29402" lon="6.2029">
        <ele>1392.2</ele>
        <time>2022-01-27T08:40:35Z</time>
      </trkpt>
      <trkpt lat="45.29402" lon="6.20289">
        <ele>1392.4</ele>
        <time>2022-01-27T08:40:37Z</time>
      </trkpt>
      <trkpt lat="45.29402" lon="6.20288">
        <ele>1392.5</ele>
        <time>2022-01-27T08:40:38Z</time>
      </trkpt>
      <trkpt lat="45.29403" lon="6.20286">
        <ele>1392.7</ele>
        <time>2022-01-27T08:40:39Z</time>
      </trkpt>
      <trkpt lat="45.29404" lon="6.20285">
        <ele>1392.9</ele>
        <time>2022-01-27T08:40:40Z</time>
      </trkpt>
      <trkpt lat="45.29404" lon="6.20284">
        <ele>1393</ele>
        <time>2022-01-27T08:40:41Z</time>
      </trkpt>
      <trkpt lat="45.29405" lon="6.20283">
        <ele>1393.2</ele>
        <time>2022-01-27T08:40:42Z</time>
      </trkpt>
      <trkpt lat="45.29405" lon="6.20282">
        <ele>1393.3</ele>
        <time>2022-01-27T08:40:43Z</time>
      </trkpt>
      <trkpt lat="45.29406" lon="6.2028">
        <ele>1393.7</ele>
        <time>2022-01-27T08:40:45Z</time>
      </trkpt>
      <trkpt lat="45.29407" lon="6.20279">
        <ele>1393.8</ele>
        <time>2022-01-27T08:40:46Z</time>
      </trkpt>
      <trkpt lat="45.29407" lon="6.20278">
        <ele>1394</ele>
        <time>2022-01-27T08:40:47Z</time>
      </trkpt>
      <trkpt lat="45.29408" lon="6.20277">
        <ele>1394.1</ele>
        <time>2022-01-27T08:40:48Z</time>
      </trkpt>
      <trkpt lat="45.29408" lon="6.20276">
        <ele>1394.3</ele>
        <time>2022-01-27T08:40:49Z</time>
      </trkpt>
      <trkpt lat="45.2941" lon="6.20274">
        <ele>1394.6</ele>
        <time>2022-01-27T08:40:50Z</time>
      </trkpt>
      <trkpt lat="45.2941" lon="6.20272">
        <ele>1394.8</ele>
        <time>2022-01-27T08:40:52Z</time>
      </trkpt>
      <trkpt lat="45.29411" lon="6.20272">
        <ele>1395</ele>
        <time>2022-01-27T08:40:53Z</time>
      </trkpt>
      <trkpt lat="45.29411" lon="6.20271">
        <ele>1395.1</ele>
        <time>2022-01-27T08:40:54Z</time>
      </trkpt>
      <trkpt lat="45.29412" lon="6.20269">
        <ele>1395.4</ele>
        <time>2022-01-27T08:40:55Z</time>
      </trkpt>
      <trkpt lat="45.29413" lon="6.20268">
        <ele>1395.7</ele>
        <time>2022-01-27T08:40:57Z</time>
      </trkpt>
      <trkpt lat="45.29413" lon="6.20267">
        <ele>1395.8</ele>
        <time>2022-01-27T08:40:58Z</time>
      </trkpt>
      <trkpt lat="45.29414" lon="6.20266">
        <ele>1396.1</ele>
        <time>2022-01-27T08:40:59Z</time>
      </trkpt>
      <trkpt lat="45.29415" lon="6.20265">
        <ele>1396.3</ele>
        <time>2022-01-27T08:41:00Z</time>
      </trkpt>
      <trkpt lat="45.29415" lon="6.20264">
        <ele>1396.5</ele>
        <time>2022-01-27T08:41:01Z</time>
      </trkpt>
      <trkpt lat="45.29416" lon="6.20263">
        <ele>1396.7</ele>
        <time>2022-01-27T08:41:02Z</time>
      </trkpt>
      <trkpt lat="45.29417" lon="6.20263">
        <ele>1396.9</ele>
        <time>2022-01-27T08:41:03Z</time>
      </trkpt>
      <trkpt lat="45.29417" lon="6.20262">
        <ele>1397</ele>
        <time>2022-01-27T08:41:04Z</time>
      </trkpt>
      <trkpt lat="45.29418" lon="6.20261">
        <ele>1397.3</ele>
        <time>2022-01-27T08:41:05Z</time>
      </trkpt>
      <trkpt lat="45.29419" lon="6.20261">
        <ele>1397.5</ele>
        <time>2022-01-27T08:41:06Z</time>
      </trkpt>
      <trkpt lat="45.29421" lon="6.2026">
        <ele>1397.8</ele>
        <time>2022-01-27T08:41:07Z</time>
      </trkpt>
      <trkpt lat="45.29422" lon="6.2026">
        <ele>1398.1</ele>
        <time>2022-01-27T08:41:09Z</time>
      </trkpt>
      <trkpt lat="45.29423" lon="6.20259">
        <ele>1398.4</ele>
        <time>2022-01-27T08:41:10Z</time>
      </trkpt>
      <trkpt lat="45.29424" lon="6.20258">
        <ele>1398.6</ele>
        <time>2022-01-27T08:41:11Z</time>
      </trkpt>
      <trkpt lat="45.29425" lon="6.20257">
        <ele>1398.8</ele>
        <time>2022-01-27T08:41:12Z</time>
      </trkpt>
      <trkpt lat="45.29426" lon="6.20255">
        <ele>1399.1</ele>
        <time>2022-01-27T08:41:14Z</time>
      </trkpt>
      <trkpt lat="45.29427" lon="6.20253">
        <ele>1399.4</ele>
        <time>2022-01-27T08:41:15Z</time>
      </trkpt>
      <trkpt lat="45.29428" lon="6.20251">
        <ele>1399.8</ele>
        <time>2022-01-27T08:41:17Z</time>
      </trkpt>
      <trkpt lat="45.29429" lon="6.2025">
        <ele>1400</ele>
        <time>2022-01-27T08:41:19Z</time>
      </trkpt>
      <trkpt lat="45.29429" lon="6.20248">
        <ele>1400.4</ele>
        <time>2022-01-27T08:41:20Z</time>
      </trkpt>
      <trkpt lat="45.2943" lon="6.20246">
        <ele>1400.6</ele>
        <time>2022-01-27T08:41:22Z</time>
      </trkpt>
      <trkpt lat="45.29431" lon="6.20244">
        <ele>1400.9</ele>
        <time>2022-01-27T08:41:23Z</time>
      </trkpt>
      <trkpt lat="45.29432" lon="6.20243">
        <ele>1401.2</ele>
        <time>2022-01-27T08:41:25Z</time>
      </trkpt>
      <trkpt lat="45.29433" lon="6.20242">
        <ele>1401.4</ele>
        <time>2022-01-27T08:41:26Z</time>
      </trkpt>
      <trkpt lat="45.29434" lon="6.20241">
        <ele>1401.6</ele>
        <time>2022-01-27T08:41:27Z</time>
      </trkpt>
      <trkpt lat="45.29435" lon="6.2024">
        <ele>1401.9</ele>
        <time>2022-01-27T08:41:29Z</time>
      </trkpt>
      <trkpt lat="45.29436" lon="6.20239">
        <ele>1402.2</ele>
        <time>2022-01-27T08:41:31Z</time>
      </trkpt>
      <trkpt lat="45.29437" lon="6.20238">
        <ele>1402.4</ele>
        <time>2022-01-27T08:41:32Z</time>
      </trkpt>
      <trkpt lat="45.29438" lon="6.20237">
        <ele>1402.6</ele>
        <time>2022-01-27T08:41:34Z</time>
      </trkpt>
      <trkpt lat="45.2944" lon="6.20235">
        <ele>1402.9</ele>
        <time>2022-01-27T08:41:35Z</time>
      </trkpt>
      <trkpt lat="45.29441" lon="6.20234">
        <ele>1403.2</ele>
        <time>2022-01-27T08:41:37Z</time>
      </trkpt>
      <trkpt lat="45.29441" lon="6.20232">
        <ele>1403.4</ele>
        <time>2022-01-27T08:41:39Z</time>
      </trkpt>
      <trkpt lat="45.29442" lon="6.20231">
        <ele>1403.6</ele>
        <time>2022-01-27T08:41:40Z</time>
      </trkpt>
      <trkpt lat="45.29442" lon="6.2023">
        <ele>1403.7</ele>
        <time>2022-01-27T08:41:41Z</time>
      </trkpt>
      <trkpt lat="45.29442" lon="6.20228">
        <ele>1404</ele>
        <time>2022-01-27T08:41:42Z</time>
      </trkpt>
      <trkpt lat="45.29442" lon="6.20226">
        <ele>1404.2</ele>
        <time>2022-01-27T08:41:44Z</time>
      </trkpt>
      <trkpt lat="45.29442" lon="6.20224">
        <ele>1404.4</ele>
        <time>2022-01-27T08:41:45Z</time>
      </trkpt>
      <trkpt lat="45.29443" lon="6.20223">
        <ele>1404.5</ele>
        <time>2022-01-27T08:41:46Z</time>
      </trkpt>
      <trkpt lat="45.29442" lon="6.2022">
        <ele>1404.8</ele>
        <time>2022-01-27T08:41:47Z</time>
      </trkpt>
      <trkpt lat="45.29442" lon="6.20219">
        <ele>1405.1</ele>
        <time>2022-01-27T08:41:49Z</time>
      </trkpt>
      <trkpt lat="45.29441" lon="6.20217">
        <ele>1405.3</ele>
        <time>2022-01-27T08:41:50Z</time>
      </trkpt>
      <trkpt lat="45.29441" lon="6.20216">
        <ele>1405.5</ele>
        <time>2022-01-27T08:41:51Z</time>
      </trkpt>
      <trkpt lat="45.2944" lon="6.20215">
        <ele>1405.6</ele>
        <time>2022-01-27T08:41:52Z</time>
      </trkpt>
      <trkpt lat="45.29439" lon="6.20213">
        <ele>1405.9</ele>
        <time>2022-01-27T08:41:53Z</time>
      </trkpt>
      <trkpt lat="45.29439" lon="6.20211">
        <ele>1406.2</ele>
        <time>2022-01-27T08:41:55Z</time>
      </trkpt>
      <trkpt lat="45.29439" lon="6.2021">
        <ele>1406.4</ele>
        <time>2022-01-27T08:41:56Z</time>
      </trkpt>
      <trkpt lat="45.29439" lon="6.20208">
        <ele>1406.5</ele>
        <time>2022-01-27T08:41:57Z</time>
      </trkpt>
      <trkpt lat="45.29439" lon="6.20207">
        <ele>1406.6</ele>
        <time>2022-01-27T08:41:58Z</time>
      </trkpt>
      <trkpt lat="45.29439" lon="6.20206">
        <ele>1406.8</ele>
        <time>2022-01-27T08:41:59Z</time>
      </trkpt>
      <trkpt lat="45.29438" lon="6.20204">
        <ele>1407</ele>
        <time>2022-01-27T08:42:00Z</time>
      </trkpt>
      <trkpt lat="45.29438" lon="6.20203">
        <ele>1407.2</ele>
        <time>2022-01-27T08:42:01Z</time>
      </trkpt>
      <trkpt lat="45.29438" lon="6.20202">
        <ele>1407.4</ele>
        <time>2022-01-27T08:42:02Z</time>
      </trkpt>
      <trkpt lat="45.29438" lon="6.20201">
        <ele>1407.6</ele>
        <time>2022-01-27T08:42:03Z</time>
      </trkpt>
      <trkpt lat="45.29438" lon="6.20199">
        <ele>1407.8</ele>
        <time>2022-01-27T08:42:04Z</time>
      </trkpt>
      <trkpt lat="45.29437" lon="6.20198">
        <ele>1408</ele>
        <time>2022-01-27T08:42:05Z</time>
      </trkpt>
      <trkpt lat="45.29437" lon="6.20197">
        <ele>1408.2</ele>
        <time>2022-01-27T08:42:06Z</time>
      </trkpt>
      <trkpt lat="45.29437" lon="6.20195">
        <ele>1408.4</ele>
        <time>2022-01-27T08:42:07Z</time>
      </trkpt>
      <trkpt lat="45.29437" lon="6.20194">
        <ele>1408.6</ele>
        <time>2022-01-27T08:42:08Z</time>
      </trkpt>
      <trkpt lat="45.29437" lon="6.20193">
        <ele>1408.8</ele>
        <time>2022-01-27T08:42:09Z</time>
      </trkpt>
      <trkpt lat="45.29437" lon="6.20191">
        <ele>1409.1</ele>
        <time>2022-01-27T08:42:10Z</time>
      </trkpt>
      <trkpt lat="45.29437" lon="6.2019">
        <ele>1409.2</ele>
        <time>2022-01-27T08:42:11Z</time>
      </trkpt>
      <trkpt lat="45.29437" lon="6.20189">
        <ele>1409.3</ele>
        <time>2022-01-27T08:42:12Z</time>
      </trkpt>
      <trkpt lat="45.29437" lon="6.20187">
        <ele>1409.5</ele>
        <time>2022-01-27T08:42:13Z</time>
      </trkpt>
      <trkpt lat="45.29437" lon="6.20186">
        <ele>1409.7</ele>
        <time>2022-01-27T08:42:14Z</time>
      </trkpt>
      <trkpt lat="45.29437" lon="6.20184">
        <ele>1409.9</ele>
        <time>2022-01-27T08:42:15Z</time>
      </trkpt>
      <trkpt lat="45.29438" lon="6.20183">
        <ele>1410.2</ele>
        <time>2022-01-27T08:42:16Z</time>
      </trkpt>
      <trkpt lat="45.29438" lon="6.20182">
        <ele>1410.3</ele>
        <time>2022-01-27T08:42:17Z</time>
      </trkpt>
      <trkpt lat="45.29438" lon="6.20181">
        <ele>1410.4</ele>
        <time>2022-01-27T08:42:18Z</time>
      </trkpt>
      <trkpt lat="45.29438" lon="6.2018">
        <ele>1410.5</ele>
        <time>2022-01-27T08:42:19Z</time>
      </trkpt>
      <trkpt lat="45.29438" lon="6.20179">
        <ele>1410.6</ele>
        <time>2022-01-27T08:42:20Z</time>
      </trkpt>
      <trkpt lat="45.29438" lon="6.20178">
        <ele>1410.7</ele>
        <time>2022-01-27T08:42:21Z</time>
      </trkpt>
      <trkpt lat="45.29438" lon="6.20177">
        <ele>1410.9</ele>
        <time>2022-01-27T08:42:23Z</time>
      </trkpt>
      <trkpt lat="45.29438" lon="6.20176">
        <ele>1411</ele>
        <time>2022-01-27T08:42:24Z</time>
      </trkpt>
      <trkpt lat="45.29439" lon="6.20175">
        <ele>1411</ele>
        <time>2022-01-27T08:42:25Z</time>
      </trkpt>
      <trkpt lat="45.29439" lon="6.20174">
        <ele>1411.1</ele>
        <time>2022-01-27T08:42:26Z</time>
      </trkpt>
      <trkpt lat="45.29439" lon="6.20173">
        <ele>1411.3</ele>
        <time>2022-01-27T08:42:27Z</time>
      </trkpt>
      <trkpt lat="45.2944" lon="6.20172">
        <ele>1411.4</ele>
        <time>2022-01-27T08:42:28Z</time>
      </trkpt>
      <trkpt lat="45.2944" lon="6.20171">
        <ele>1411.5</ele>
        <time>2022-01-27T08:42:29Z</time>
      </trkpt>
      <trkpt lat="45.2944" lon="6.2017">
        <ele>1411.7</ele>
        <time>2022-01-27T08:42:30Z</time>
      </trkpt>
      <trkpt lat="45.29441" lon="6.20169">
        <ele>1411.8</ele>
        <time>2022-01-27T08:42:31Z</time>
      </trkpt>
      <trkpt lat="45.29441" lon="6.20168">
        <ele>1412</ele>
        <time>2022-01-27T08:42:32Z</time>
      </trkpt>
      <trkpt lat="45.29441" lon="6.20167">
        <ele>1412.1</ele>
        <time>2022-01-27T08:42:33Z</time>
      </trkpt>
      <trkpt lat="45.29442" lon="6.20166">
        <ele>1412.2</ele>
        <time>2022-01-27T08:42:34Z</time>
      </trkpt>
      <trkpt lat="45.29442" lon="6.20165">
        <ele>1412.4</ele>
        <time>2022-01-27T08:42:35Z</time>
      </trkpt>
      <trkpt lat="45.29442" lon="6.20164">
        <ele>1412.5</ele>
        <time>2022-01-27T08:42:36Z</time>
      </trkpt>
      <trkpt lat="45.29443" lon="6.20163">
        <ele>1412.7</ele>
        <time>2022-01-27T08:42:37Z</time>
      </trkpt>
      <trkpt lat="45.29443" lon="6.20162">
        <ele>1412.8</ele>
        <time>2022-01-27T08:42:39Z</time>
      </trkpt>
      <trkpt lat="45.29443" lon="6.20159">
        <ele>1413.1</ele>
        <time>2022-01-27T08:42:41Z</time>
      </trkpt>
      <trkpt lat="45.29442" lon="6.20159">
        <ele>1413.3</ele>
        <time>2022-01-27T08:42:46Z</time>
      </trkpt>
      <trkpt lat="45.29442" lon="6.2016">
        <ele>1413.3</ele>
        <time>2022-01-27T08:42:47Z</time>
      </trkpt>
      <trkpt lat="45.29442" lon="6.20161">
        <ele>1413.5</ele>
        <time>2022-01-27T08:42:54Z</time>
      </trkpt>
      <trkpt lat="45.29443" lon="6.20161">
        <ele>1413.7</ele>
        <time>2022-01-27T08:42:57Z</time>
      </trkpt>
      <trkpt lat="45.29444" lon="6.20161">
        <ele>1413.8</ele>
        <time>2022-01-27T08:42:59Z</time>
      </trkpt>
      <trkpt lat="45.29446" lon="6.2016">
        <ele>1414.1</ele>
        <time>2022-01-27T08:43:01Z</time>
      </trkpt>
      <trkpt lat="45.29447" lon="6.2016">
        <ele>1414.5</ele>
        <time>2022-01-27T08:43:03Z</time>
      </trkpt>
      <trkpt lat="45.29448" lon="6.2016">
        <ele>1414.7</ele>
        <time>2022-01-27T08:43:04Z</time>
      </trkpt>
      <trkpt lat="45.2945" lon="6.20159">
        <ele>1414.9</ele>
        <time>2022-01-27T08:43:06Z</time>
      </trkpt>
      <trkpt lat="45.29451" lon="6.20159">
        <ele>1415.1</ele>
        <time>2022-01-27T08:43:07Z</time>
      </trkpt>
      <trkpt lat="45.29451" lon="6.20158">
        <ele>1415.2</ele>
        <time>2022-01-27T08:43:08Z</time>
      </trkpt>
      <trkpt lat="45.29452" lon="6.20158">
        <ele>1415.3</ele>
        <time>2022-01-27T08:43:09Z</time>
      </trkpt>
      <trkpt lat="45.29453" lon="6.20158">
        <ele>1415.5</ele>
        <time>2022-01-27T08:43:13Z</time>
      </trkpt>
      <trkpt lat="45.29453" lon="6.20157">
        <ele>1415.6</ele>
        <time>2022-01-27T08:43:14Z</time>
      </trkpt>
      <trkpt lat="45.29454" lon="6.20156">
        <ele>1415.9</ele>
        <time>2022-01-27T08:43:16Z</time>
      </trkpt>
      <trkpt lat="45.29456" lon="6.20154">
        <ele>1416.3</ele>
        <time>2022-01-27T08:43:18Z</time>
      </trkpt>
      <trkpt lat="45.29457" lon="6.20153">
        <ele>1416.5</ele>
        <time>2022-01-27T08:43:20Z</time>
      </trkpt>
      <trkpt lat="45.29458" lon="6.20152">
        <ele>1416.7</ele>
        <time>2022-01-27T08:43:21Z</time>
      </trkpt>
      <trkpt lat="45.29458" lon="6.20151">
        <ele>1416.8</ele>
        <time>2022-01-27T08:43:22Z</time>
      </trkpt>
      <trkpt lat="45.29459" lon="6.20151">
        <ele>1416.9</ele>
        <time>2022-01-27T08:43:23Z</time>
      </trkpt>
      <trkpt lat="45.2946" lon="6.2015">
        <ele>1417.1</ele>
        <time>2022-01-27T08:43:24Z</time>
      </trkpt>
      <trkpt lat="45.29461" lon="6.2015">
        <ele>1417.2</ele>
        <time>2022-01-27T08:43:26Z</time>
      </trkpt>
      <trkpt lat="45.29461" lon="6.20149">
        <ele>1417.3</ele>
        <time>2022-01-27T08:43:27Z</time>
      </trkpt>
      <trkpt lat="45.29462" lon="6.20149">
        <ele>1417.4</ele>
        <time>2022-01-27T08:43:28Z</time>
      </trkpt>
      <trkpt lat="45.29462" lon="6.20148">
        <ele>1417.5</ele>
        <time>2022-01-27T08:43:29Z</time>
      </trkpt>
      <trkpt lat="45.29462" lon="6.20146">
        <ele>1417.7</ele>
        <time>2022-01-27T08:43:30Z</time>
      </trkpt>
      <trkpt lat="45.29463" lon="6.20145">
        <ele>1417.8</ele>
        <time>2022-01-27T08:43:31Z</time>
      </trkpt>
      <trkpt lat="45.29463" lon="6.20144">
        <ele>1418</ele>
        <time>2022-01-27T08:43:32Z</time>
      </trkpt>
      <trkpt lat="45.29463" lon="6.20142">
        <ele>1418.2</ele>
        <time>2022-01-27T08:43:33Z</time>
      </trkpt>
      <trkpt lat="45.29464" lon="6.20141">
        <ele>1418.3</ele>
        <time>2022-01-27T08:43:34Z</time>
      </trkpt>
      <trkpt lat="45.29464" lon="6.2014">
        <ele>1418.5</ele>
        <time>2022-01-27T08:43:42Z</time>
      </trkpt>
      <trkpt lat="45.29464" lon="6.20139">
        <ele>1418.7</ele>
        <time>2022-01-27T08:43:44Z</time>
      </trkpt>
      <trkpt lat="45.29464" lon="6.20137">
        <ele>1418.8</ele>
        <time>2022-01-27T08:43:45Z</time>
      </trkpt>
      <trkpt lat="45.29465" lon="6.20136">
        <ele>1419</ele>
        <time>2022-01-27T08:43:46Z</time>
      </trkpt>
      <trkpt lat="45.29465" lon="6.20134">
        <ele>1419.3</ele>
        <time>2022-01-27T08:43:48Z</time>
      </trkpt>
      <trkpt lat="45.29465" lon="6.20133">
        <ele>1419.4</ele>
        <time>2022-01-27T08:43:49Z</time>
      </trkpt>
      <trkpt lat="45.29466" lon="6.2013">
        <ele>1419.8</ele>
        <time>2022-01-27T08:43:51Z</time>
      </trkpt>
      <trkpt lat="45.29467" lon="6.20128">
        <ele>1420.2</ele>
        <time>2022-01-27T08:43:52Z</time>
      </trkpt>
      <trkpt lat="45.29468" lon="6.20126">
        <ele>1420.4</ele>
        <time>2022-01-27T08:43:54Z</time>
      </trkpt>
      <trkpt lat="45.29468" lon="6.20125">
        <ele>1420.6</ele>
        <time>2022-01-27T08:43:55Z</time>
      </trkpt>
      <trkpt lat="45.29469" lon="6.20123">
        <ele>1420.9</ele>
        <time>2022-01-27T08:43:56Z</time>
      </trkpt>
      <trkpt lat="45.29469" lon="6.20122">
        <ele>1421.1</ele>
        <time>2022-01-27T08:43:57Z</time>
      </trkpt>
      <trkpt lat="45.2947" lon="6.2012">
        <ele>1421.4</ele>
        <time>2022-01-27T08:43:58Z</time>
      </trkpt>
      <trkpt lat="45.29471" lon="6.2012">
        <ele>1421.5</ele>
        <time>2022-01-27T08:43:59Z</time>
      </trkpt>
      <trkpt lat="45.29471" lon="6.20119">
        <ele>1421.6</ele>
        <time>2022-01-27T08:44:00Z</time>
      </trkpt>
      <trkpt lat="45.29472" lon="6.20118">
        <ele>1421.7</ele>
        <time>2022-01-27T08:44:01Z</time>
      </trkpt>
      <trkpt lat="45.29472" lon="6.20117">
        <ele>1421.9</ele>
        <time>2022-01-27T08:44:03Z</time>
      </trkpt>
      <trkpt lat="45.29472" lon="6.20116">
        <ele>1422</ele>
        <time>2022-01-27T08:44:04Z</time>
      </trkpt>
      <trkpt lat="45.29472" lon="6.20115">
        <ele>1422.2</ele>
        <time>2022-01-27T08:44:05Z</time>
      </trkpt>
      <trkpt lat="45.29472" lon="6.20114">
        <ele>1422.3</ele>
        <time>2022-01-27T08:44:06Z</time>
      </trkpt>
      <trkpt lat="45.29472" lon="6.20113">
        <ele>1422.5</ele>
        <time>2022-01-27T08:44:12Z</time>
      </trkpt>
      <trkpt lat="45.29472" lon="6.20112">
        <ele>1422.7</ele>
        <time>2022-01-27T08:44:14Z</time>
      </trkpt>
      <trkpt lat="45.29472" lon="6.20111">
        <ele>1422.9</ele>
        <time>2022-01-27T08:44:15Z</time>
      </trkpt>
      <trkpt lat="45.29472" lon="6.20109">
        <ele>1423.1</ele>
        <time>2022-01-27T08:44:16Z</time>
      </trkpt>
      <trkpt lat="45.29471" lon="6.20108">
        <ele>1423.2</ele>
        <time>2022-01-27T08:44:17Z</time>
      </trkpt>
      <trkpt lat="45.29471" lon="6.20107">
        <ele>1423.4</ele>
        <time>2022-01-27T08:44:18Z</time>
      </trkpt>
      <trkpt lat="45.29471" lon="6.20105">
        <ele>1423.6</ele>
        <time>2022-01-27T08:44:19Z</time>
      </trkpt>
      <trkpt lat="45.2947" lon="6.20103">
        <ele>1423.8</ele>
        <time>2022-01-27T08:44:20Z</time>
      </trkpt>
      <trkpt lat="45.29469" lon="6.20101">
        <ele>1424.2</ele>
        <time>2022-01-27T08:44:21Z</time>
      </trkpt>
      <trkpt lat="45.29468" lon="6.20098">
        <ele>1424.5</ele>
        <time>2022-01-27T08:44:22Z</time>
      </trkpt>
      <trkpt lat="45.29467" lon="6.20097">
        <ele>1424.7</ele>
        <time>2022-01-27T08:44:23Z</time>
      </trkpt>
      <trkpt lat="45.29467" lon="6.20096">
        <ele>1424.8</ele>
        <time>2022-01-27T08:44:24Z</time>
      </trkpt>
      <trkpt lat="45.29466" lon="6.20095">
        <ele>1425.1</ele>
        <time>2022-01-27T08:44:25Z</time>
      </trkpt>
      <trkpt lat="45.29466" lon="6.20093">
        <ele>1425.3</ele>
        <time>2022-01-27T08:44:26Z</time>
      </trkpt>
      <trkpt lat="45.29465" lon="6.20092">
        <ele>1425.5</ele>
        <time>2022-01-27T08:44:27Z</time>
      </trkpt>
      <trkpt lat="45.29465" lon="6.2009">
        <ele>1425.7</ele>
        <time>2022-01-27T08:44:28Z</time>
      </trkpt>
      <trkpt lat="45.29465" lon="6.20089">
        <ele>1425.9</ele>
        <time>2022-01-27T08:44:29Z</time>
      </trkpt>
      <trkpt lat="45.29465" lon="6.20088">
        <ele>1426.1</ele>
        <time>2022-01-27T08:44:30Z</time>
      </trkpt>
      <trkpt lat="45.29464" lon="6.20085">
        <ele>1426.4</ele>
        <time>2022-01-27T08:44:31Z</time>
      </trkpt>
      <trkpt lat="45.29464" lon="6.20084">
        <ele>1426.6</ele>
        <time>2022-01-27T08:44:32Z</time>
      </trkpt>
      <trkpt lat="45.29464" lon="6.20083">
        <ele>1426.7</ele>
        <time>2022-01-27T08:44:33Z</time>
      </trkpt>
      <trkpt lat="45.29465" lon="6.20082">
        <ele>1427</ele>
        <time>2022-01-27T08:44:35Z</time>
      </trkpt>
      <trkpt lat="45.29465" lon="6.20081">
        <ele>1427.1</ele>
        <time>2022-01-27T08:44:36Z</time>
      </trkpt>
      <trkpt lat="45.29465" lon="6.2008">
        <ele>1427.3</ele>
        <time>2022-01-27T08:44:37Z</time>
      </trkpt>
      <trkpt lat="45.29465" lon="6.20079">
        <ele>1427.5</ele>
        <time>2022-01-27T08:44:39Z</time>
      </trkpt>
      <trkpt lat="45.29466" lon="6.20078">
        <ele>1427.5</ele>
        <time>2022-01-27T08:44:40Z</time>
      </trkpt>
      <trkpt lat="45.29468" lon="6.2006">
        <ele>1430.2</ele>
        <time>2022-01-27T08:46:02Z</time>
      </trkpt>
      <trkpt lat="45.29468" lon="6.20059">
        <ele>1430.3</ele>
        <time>2022-01-27T08:46:03Z</time>
      </trkpt>
      <trkpt lat="45.29469" lon="6.20058">
        <ele>1430.6</ele>
        <time>2022-01-27T08:46:04Z</time>
      </trkpt>
      <trkpt lat="45.2947" lon="6.20056">
        <ele>1431</ele>
        <time>2022-01-27T08:46:06Z</time>
      </trkpt>
      <trkpt lat="45.29472" lon="6.20054">
        <ele>1431.3</ele>
        <time>2022-01-27T08:46:07Z</time>
      </trkpt>
      <trkpt lat="45.29472" lon="6.20053">
        <ele>1431.6</ele>
        <time>2022-01-27T08:46:09Z</time>
      </trkpt>
      <trkpt lat="45.29473" lon="6.20051">
        <ele>1431.8</ele>
        <time>2022-01-27T08:46:10Z</time>
      </trkpt>
      <trkpt lat="45.29475" lon="6.20048">
        <ele>1432.4</ele>
        <time>2022-01-27T08:46:12Z</time>
      </trkpt>
      <trkpt lat="45.29476" lon="6.20045">
        <ele>1432.9</ele>
        <time>2022-01-27T08:46:13Z</time>
      </trkpt>
      <trkpt lat="45.29476" lon="6.20043">
        <ele>1433.3</ele>
        <time>2022-01-27T08:46:15Z</time>
      </trkpt>
      <trkpt lat="45.29477" lon="6.20038">
        <ele>1433.9</ele>
        <time>2022-01-27T08:46:17Z</time>
      </trkpt>
      <trkpt lat="45.29477" lon="6.20037">
        <ele>1434</ele>
        <time>2022-01-27T08:46:18Z</time>
      </trkpt>
      <trkpt lat="45.29477" lon="6.20034">
        <ele>1434.5</ele>
        <time>2022-01-27T08:46:19Z</time>
      </trkpt>
      <trkpt lat="45.29477" lon="6.20033">
        <ele>1434.5</ele>
        <time>2022-01-27T08:46:20Z</time>
      </trkpt>
      <trkpt lat="45.29477" lon="6.20031">
        <ele>1435.2</ele>
        <time>2022-01-27T08:46:21Z</time>
      </trkpt>
      <trkpt lat="45.29476" lon="6.2003">
        <ele>1435.2</ele>
        <time>2022-01-27T08:46:22Z</time>
      </trkpt>
      <trkpt lat="45.29476" lon="6.20028">
        <ele>1435.3</ele>
        <time>2022-01-27T08:46:24Z</time>
      </trkpt>
      <trkpt lat="45.29476" lon="6.20027">
        <ele>1436</ele>
        <time>2022-01-27T08:46:25Z</time>
      </trkpt>
      <trkpt lat="45.29474" lon="6.20026">
        <ele>1436.6</ele>
        <time>2022-01-27T08:46:27Z</time>
      </trkpt>
      <trkpt lat="45.29473" lon="6.20027">
        <ele>1436.7</ele>
        <time>2022-01-27T08:46:29Z</time>
      </trkpt>
      <trkpt lat="45.29472" lon="6.20026">
        <ele>1437.4</ele>
        <time>2022-01-27T08:46:32Z</time>
      </trkpt>
      <trkpt lat="45.29471" lon="6.20026">
        <ele>1437.5</ele>
        <time>2022-01-27T08:46:33Z</time>
      </trkpt>
      <trkpt lat="45.29471" lon="6.20025">
        <ele>1437.5</ele>
        <time>2022-01-27T08:46:35Z</time>
      </trkpt>
      <trkpt lat="45.29477" lon="6.20016">
        <ele>1437.8</ele>
        <time>2022-01-27T08:46:55Z</time>
      </trkpt>
      <trkpt lat="45.29478" lon="6.20015">
        <ele>1438.5</ele>
        <time>2022-01-27T08:46:56Z</time>
      </trkpt>
      <trkpt lat="45.29478" lon="6.20014">
        <ele>1438.6</ele>
        <time>2022-01-27T08:46:57Z</time>
      </trkpt>
      <trkpt lat="45.2948" lon="6.20013">
        <ele>1438.1</ele>
        <time>2022-01-27T08:46:59Z</time>
      </trkpt>
      <trkpt lat="45.29481" lon="6.20011">
        <ele>1438.1</ele>
        <time>2022-01-27T08:47:01Z</time>
      </trkpt>
      <trkpt lat="45.29481" lon="6.2001">
        <ele>1438.8</ele>
        <time>2022-01-27T08:47:02Z</time>
      </trkpt>
      <trkpt lat="45.29482" lon="6.20007">
        <ele>1438.3</ele>
        <time>2022-01-27T08:47:03Z</time>
      </trkpt>
      <trkpt lat="45.29481" lon="6.20006">
        <ele>1439.5</ele>
        <time>2022-01-27T08:47:04Z</time>
      </trkpt>
      <trkpt lat="45.29481" lon="6.20005">
        <ele>1439.5</ele>
        <time>2022-01-27T08:47:05Z</time>
      </trkpt>
      <trkpt lat="45.29481" lon="6.20003">
        <ele>1439.6</ele>
        <time>2022-01-27T08:47:06Z</time>
      </trkpt>
      <trkpt lat="45.29481" lon="6.19999">
        <ele>1440.2</ele>
        <time>2022-01-27T08:47:07Z</time>
      </trkpt>
      <trkpt lat="45.2948" lon="6.19997">
        <ele>1440.8</ele>
        <time>2022-01-27T08:47:09Z</time>
      </trkpt>
      <trkpt lat="45.2948" lon="6.19995">
        <ele>1440.9</ele>
        <time>2022-01-27T08:47:10Z</time>
      </trkpt>
      <trkpt lat="45.2948" lon="6.19994">
        <ele>1440.9</ele>
        <time>2022-01-27T08:47:11Z</time>
      </trkpt>
      <trkpt lat="45.2948" lon="6.1999">
        <ele>1441.5</ele>
        <time>2022-01-27T08:47:12Z</time>
      </trkpt>
      <trkpt lat="45.29481" lon="6.19989">
        <ele>1442.1</ele>
        <time>2022-01-27T08:47:14Z</time>
      </trkpt>
      <trkpt lat="45.29481" lon="6.19987">
        <ele>1442.1</ele>
        <time>2022-01-27T08:47:15Z</time>
      </trkpt>
      <trkpt lat="45.29481" lon="6.19986">
        <ele>1442.2</ele>
        <time>2022-01-27T08:47:16Z</time>
      </trkpt>
      <trkpt lat="45.29481" lon="6.19985">
        <ele>1442.8</ele>
        <time>2022-01-27T08:47:17Z</time>
      </trkpt>
      <trkpt lat="45.29482" lon="6.19984">
        <ele>1442.3</ele>
        <time>2022-01-27T08:47:18Z</time>
      </trkpt>
      <trkpt lat="45.29482" lon="6.19982">
        <ele>1442.4</ele>
        <time>2022-01-27T08:47:20Z</time>
      </trkpt>
      <trkpt lat="45.29483" lon="6.1998">
        <ele>1443.1</ele>
        <time>2022-01-27T08:47:22Z</time>
      </trkpt>
      <trkpt lat="45.29484" lon="6.19979">
        <ele>1443.1</ele>
        <time>2022-01-27T08:47:23Z</time>
      </trkpt>
      <trkpt lat="45.29485" lon="6.19977">
        <ele>1443.3</ele>
        <time>2022-01-27T08:47:26Z</time>
      </trkpt>
      <trkpt lat="45.29486" lon="6.19975">
        <ele>1443.4</ele>
        <time>2022-01-27T08:47:27Z</time>
      </trkpt>
      <trkpt lat="45.29486" lon="6.19974">
        <ele>1443.5</ele>
        <time>2022-01-27T08:47:29Z</time>
      </trkpt>
      <trkpt lat="45.29487" lon="6.19973">
        <ele>1443.5</ele>
        <time>2022-01-27T08:47:30Z</time>
      </trkpt>
      <trkpt lat="45.29488" lon="6.1997">
        <ele>1443.8</ele>
        <time>2022-01-27T08:47:31Z</time>
      </trkpt>
      <trkpt lat="45.29489" lon="6.19969">
        <ele>1443.8</ele>
        <time>2022-01-27T08:47:33Z</time>
      </trkpt>
      <trkpt lat="45.29489" lon="6.19968">
        <ele>1444.5</ele>
        <time>2022-01-27T08:47:34Z</time>
      </trkpt>
      <trkpt lat="45.29489" lon="6.19967">
        <ele>1444.6</ele>
        <time>2022-01-27T08:47:35Z</time>
      </trkpt>
      <trkpt lat="45.2949" lon="6.19966">
        <ele>1444.6</ele>
        <time>2022-01-27T08:47:36Z</time>
      </trkpt>
      <trkpt lat="45.29491" lon="6.19965">
        <ele>1444.2</ele>
        <time>2022-01-27T08:47:38Z</time>
      </trkpt>
      <trkpt lat="45.29492" lon="6.19964">
        <ele>1444.3</ele>
        <time>2022-01-27T08:47:39Z</time>
      </trkpt>
      <trkpt lat="45.29493" lon="6.19963">
        <ele>1445</ele>
        <time>2022-01-27T08:47:41Z</time>
      </trkpt>
      <trkpt lat="45.29494" lon="6.19962">
        <ele>1444.6</ele>
        <time>2022-01-27T08:47:42Z</time>
      </trkpt>
      <trkpt lat="45.29495" lon="6.19962">
        <ele>1444.7</ele>
        <time>2022-01-27T08:47:43Z</time>
      </trkpt>
      <trkpt lat="45.29496" lon="6.19961">
        <ele>1444.7</ele>
        <time>2022-01-27T08:47:44Z</time>
      </trkpt>
      <trkpt lat="45.29497" lon="6.1996">
        <ele>1444.4</ele>
        <time>2022-01-27T08:47:46Z</time>
      </trkpt>
      <trkpt lat="45.29498" lon="6.1996">
        <ele>1444.5</ele>
        <time>2022-01-27T08:47:47Z</time>
      </trkpt>
      <trkpt lat="45.295" lon="6.19959">
        <ele>1444.8</ele>
        <time>2022-01-27T08:47:48Z</time>
      </trkpt>
      <trkpt lat="45.295" lon="6.19958">
        <ele>1444.8</ele>
        <time>2022-01-27T08:47:50Z</time>
      </trkpt>
      <trkpt lat="45.29501" lon="6.19958">
        <ele>1444.8</ele>
        <time>2022-01-27T08:47:51Z</time>
      </trkpt>
      <trkpt lat="45.29502" lon="6.19957">
        <ele>1444.9</ele>
        <time>2022-01-27T08:47:52Z</time>
      </trkpt>
      <trkpt lat="45.29502" lon="6.19956">
        <ele>1444.9</ele>
        <time>2022-01-27T08:47:53Z</time>
      </trkpt>
      <trkpt lat="45.29503" lon="6.19955">
        <ele>1444.8</ele>
        <time>2022-01-27T08:47:54Z</time>
      </trkpt>
      <trkpt lat="45.29503" lon="6.19954">
        <ele>1445.3</ele>
        <time>2022-01-27T08:47:56Z</time>
      </trkpt>
      <trkpt lat="45.29503" lon="6.19953">
        <ele>1445.3</ele>
        <time>2022-01-27T08:47:57Z</time>
      </trkpt>
      <trkpt lat="45.29503" lon="6.19952">
        <ele>1445.4</ele>
        <time>2022-01-27T08:47:58Z</time>
      </trkpt>
      <trkpt lat="45.29504" lon="6.19951">
        <ele>1445.4</ele>
        <time>2022-01-27T08:47:59Z</time>
      </trkpt>
      <trkpt lat="45.29504" lon="6.19949">
        <ele>1446</ele>
        <time>2022-01-27T08:48:00Z</time>
      </trkpt>
      <trkpt lat="45.29504" lon="6.19947">
        <ele>1446</ele>
        <time>2022-01-27T08:48:02Z</time>
      </trkpt>
      <trkpt lat="45.29504" lon="6.19946">
        <ele>1446.5</ele>
        <time>2022-01-27T08:48:03Z</time>
      </trkpt>
      <trkpt lat="45.29505" lon="6.19945">
        <ele>1446.6</ele>
        <time>2022-01-27T08:48:04Z</time>
      </trkpt>
      <trkpt lat="45.29505" lon="6.19944">
        <ele>1446.6</ele>
        <time>2022-01-27T08:48:05Z</time>
      </trkpt>
      <trkpt lat="45.29505" lon="6.19942">
        <ele>1446.7</ele>
        <time>2022-01-27T08:48:07Z</time>
      </trkpt>
      <trkpt lat="45.29505" lon="6.19941">
        <ele>1447.3</ele>
        <time>2022-01-27T08:48:09Z</time>
      </trkpt>
      <trkpt lat="45.29506" lon="6.1994">
        <ele>1447.3</ele>
        <time>2022-01-27T08:48:10Z</time>
      </trkpt>
      <trkpt lat="45.29507" lon="6.19937">
        <ele>1447.6</ele>
        <time>2022-01-27T08:48:12Z</time>
      </trkpt>
      <trkpt lat="45.29507" lon="6.19936">
        <ele>1447.7</ele>
        <time>2022-01-27T08:48:13Z</time>
      </trkpt>
      <trkpt lat="45.29508" lon="6.19935">
        <ele>1447.7</ele>
        <time>2022-01-27T08:48:14Z</time>
      </trkpt>
      <trkpt lat="45.29509" lon="6.19933">
        <ele>1448.3</ele>
        <time>2022-01-27T08:48:15Z</time>
      </trkpt>
      <trkpt lat="45.2951" lon="6.19931">
        <ele>1448.1</ele>
        <time>2022-01-27T08:48:17Z</time>
      </trkpt>
      <trkpt lat="45.2951" lon="6.1993">
        <ele>1448.2</ele>
        <time>2022-01-27T08:48:18Z</time>
      </trkpt>
      <trkpt lat="45.29511" lon="6.19929">
        <ele>1448.8</ele>
        <time>2022-01-27T08:48:19Z</time>
      </trkpt>
      <trkpt lat="45.29511" lon="6.19928">
        <ele>1448.8</ele>
        <time>2022-01-27T08:48:20Z</time>
      </trkpt>
      <trkpt lat="45.29512" lon="6.19927">
        <ele>1448.8</ele>
        <time>2022-01-27T08:48:21Z</time>
      </trkpt>
      <trkpt lat="45.29513" lon="6.19926">
        <ele>1448.8</ele>
        <time>2022-01-27T08:48:22Z</time>
      </trkpt>
      <trkpt lat="45.29514" lon="6.19924">
        <ele>1449.4</ele>
        <time>2022-01-27T08:48:23Z</time>
      </trkpt>
      <trkpt lat="45.29514" lon="6.19923">
        <ele>1449.5</ele>
        <time>2022-01-27T08:48:25Z</time>
      </trkpt>
      <trkpt lat="45.29515" lon="6.19922">
        <ele>1449.5</ele>
        <time>2022-01-27T08:48:26Z</time>
      </trkpt>
      <trkpt lat="45.29515" lon="6.1992">
        <ele>1450.1</ele>
        <time>2022-01-27T08:48:27Z</time>
      </trkpt>
      <trkpt lat="45.29516" lon="6.1992">
        <ele>1450.2</ele>
        <time>2022-01-27T08:48:28Z</time>
      </trkpt>
      <trkpt lat="45.29516" lon="6.19918">
        <ele>1450.2</ele>
        <time>2022-01-27T08:48:29Z</time>
      </trkpt>
      <trkpt lat="45.29517" lon="6.19916">
        <ele>1450.9</ele>
        <time>2022-01-27T08:48:31Z</time>
      </trkpt>
      <trkpt lat="45.29517" lon="6.19915">
        <ele>1450.9</ele>
        <time>2022-01-27T08:48:32Z</time>
      </trkpt>
      <trkpt lat="45.29518" lon="6.19914">
        <ele>1451</ele>
        <time>2022-01-27T08:48:33Z</time>
      </trkpt>
      <trkpt lat="45.29519" lon="6.19912">
        <ele>1451</ele>
        <time>2022-01-27T08:48:35Z</time>
      </trkpt>
      <trkpt lat="45.2952" lon="6.1991">
        <ele>1451.7</ele>
        <time>2022-01-27T08:48:37Z</time>
      </trkpt>
      <trkpt lat="45.29521" lon="6.19909">
        <ele>1451.8</ele>
        <time>2022-01-27T08:48:39Z</time>
      </trkpt>
      <trkpt lat="45.29521" lon="6.19908">
        <ele>1451.9</ele>
        <time>2022-01-27T08:48:40Z</time>
      </trkpt>
      <trkpt lat="45.29522" lon="6.19908">
        <ele>1452.5</ele>
        <time>2022-01-27T08:48:41Z</time>
      </trkpt>
      <trkpt lat="45.29522" lon="6.19906">
        <ele>1452.5</ele>
        <time>2022-01-27T08:48:42Z</time>
      </trkpt>
      <trkpt lat="45.29523" lon="6.19906">
        <ele>1452.6</ele>
        <time>2022-01-27T08:48:43Z</time>
      </trkpt>
      <trkpt lat="45.29523" lon="6.19905">
        <ele>1452.6</ele>
        <time>2022-01-27T08:48:44Z</time>
      </trkpt>
      <trkpt lat="45.29524" lon="6.19904">
        <ele>1452.8</ele>
        <time>2022-01-27T08:48:45Z</time>
      </trkpt>
      <trkpt lat="45.29525" lon="6.19904">
        <ele>1452.8</ele>
        <time>2022-01-27T08:48:46Z</time>
      </trkpt>
      <trkpt lat="45.29525" lon="6.19902">
        <ele>1453.4</ele>
        <time>2022-01-27T08:48:47Z</time>
      </trkpt>
      <trkpt lat="45.29526" lon="6.19902">
        <ele>1453.4</ele>
        <time>2022-01-27T08:48:48Z</time>
      </trkpt>
      <trkpt lat="45.29526" lon="6.19901">
        <ele>1453.5</ele>
        <time>2022-01-27T08:48:49Z</time>
      </trkpt>
      <trkpt lat="45.29527" lon="6.199">
        <ele>1453.5</ele>
        <time>2022-01-27T08:48:50Z</time>
      </trkpt>
      <trkpt lat="45.29527" lon="6.19898">
        <ele>1454.3</ele>
        <time>2022-01-27T08:48:51Z</time>
      </trkpt>
      <trkpt lat="45.29527" lon="6.19897">
        <ele>1454.3</ele>
        <time>2022-01-27T08:48:52Z</time>
      </trkpt>
      <trkpt lat="45.29527" lon="6.19896">
        <ele>1454.3</ele>
        <time>2022-01-27T08:48:53Z</time>
      </trkpt>
      <trkpt lat="45.29528" lon="6.19894">
        <ele>1454.9</ele>
        <time>2022-01-27T08:48:54Z</time>
      </trkpt>
      <trkpt lat="45.29528" lon="6.19893">
        <ele>1455</ele>
        <time>2022-01-27T08:48:55Z</time>
      </trkpt>
      <trkpt lat="45.29528" lon="6.19892">
        <ele>1455</ele>
        <time>2022-01-27T08:48:56Z</time>
      </trkpt>
      <trkpt lat="45.29528" lon="6.1989">
        <ele>1455.7</ele>
        <time>2022-01-27T08:48:57Z</time>
      </trkpt>
      <trkpt lat="45.29529" lon="6.19889">
        <ele>1455.7</ele>
        <time>2022-01-27T08:48:58Z</time>
      </trkpt>
      <trkpt lat="45.29529" lon="6.19888">
        <ele>1455.7</ele>
        <time>2022-01-27T08:48:59Z</time>
      </trkpt>
      <trkpt lat="45.29529" lon="6.19887">
        <ele>1455.8</ele>
        <time>2022-01-27T08:49:00Z</time>
      </trkpt>
      <trkpt lat="45.2953" lon="6.19886">
        <ele>1456.5</ele>
        <time>2022-01-27T08:49:01Z</time>
      </trkpt>
      <trkpt lat="45.29531" lon="6.19884">
        <ele>1456.6</ele>
        <time>2022-01-27T08:49:03Z</time>
      </trkpt>
      <trkpt lat="45.29532" lon="6.19882">
        <ele>1456.6</ele>
        <time>2022-01-27T08:49:04Z</time>
      </trkpt>
      <trkpt lat="45.29534" lon="6.1988">
        <ele>1457.4</ele>
        <time>2022-01-27T08:49:07Z</time>
      </trkpt>
      <trkpt lat="45.29534" lon="6.19879">
        <ele>1457.5</ele>
        <time>2022-01-27T08:49:09Z</time>
      </trkpt>
      <trkpt lat="45.29535" lon="6.19878">
        <ele>1457.5</ele>
        <time>2022-01-27T08:49:10Z</time>
      </trkpt>
      <trkpt lat="45.29535" lon="6.19876">
        <ele>1458.1</ele>
        <time>2022-01-27T08:49:11Z</time>
      </trkpt>
      <trkpt lat="45.29535" lon="6.19875">
        <ele>1458.2</ele>
        <time>2022-01-27T08:49:13Z</time>
      </trkpt>
      <trkpt lat="45.29535" lon="6.19874">
        <ele>1458.2</ele>
        <time>2022-01-27T08:49:14Z</time>
      </trkpt>
      <trkpt lat="45.29535" lon="6.19873">
        <ele>1458.8</ele>
        <time>2022-01-27T08:49:15Z</time>
      </trkpt>
      <trkpt lat="45.29535" lon="6.19872">
        <ele>1458.9</ele>
        <time>2022-01-27T08:49:17Z</time>
      </trkpt>
      <trkpt lat="45.29536" lon="6.1987">
        <ele>1458.9</ele>
        <time>2022-01-27T08:49:18Z</time>
      </trkpt>
      <trkpt lat="45.29536" lon="6.19868">
        <ele>1459.6</ele>
        <time>2022-01-27T08:49:19Z</time>
      </trkpt>
      <trkpt lat="45.29536" lon="6.19867">
        <ele>1459.6</ele>
        <time>2022-01-27T08:49:21Z</time>
      </trkpt>
      <trkpt lat="45.29537" lon="6.19866">
        <ele>1459.7</ele>
        <time>2022-01-27T08:49:22Z</time>
      </trkpt>
      <trkpt lat="45.29538" lon="6.19865">
        <ele>1460.3</ele>
        <time>2022-01-27T08:49:24Z</time>
      </trkpt>
      <trkpt lat="45.29538" lon="6.19863">
        <ele>1460.3</ele>
        <time>2022-01-27T08:49:25Z</time>
      </trkpt>
      <trkpt lat="45.29539" lon="6.19863">
        <ele>1460.3</ele>
        <time>2022-01-27T08:49:26Z</time>
      </trkpt>
      <trkpt lat="45.29539" lon="6.19861">
        <ele>1460.5</ele>
        <time>2022-01-27T08:49:27Z</time>
      </trkpt>
      <trkpt lat="45.2954" lon="6.19859">
        <ele>1461</ele>
        <time>2022-01-27T08:49:29Z</time>
      </trkpt>
      <trkpt lat="45.2954" lon="6.19858">
        <ele>1461.1</ele>
        <time>2022-01-27T08:49:31Z</time>
      </trkpt>
      <trkpt lat="45.2954" lon="6.19857">
        <ele>1461.1</ele>
        <time>2022-01-27T08:49:32Z</time>
      </trkpt>
      <trkpt lat="45.29541" lon="6.19856">
        <ele>1461.7</ele>
        <time>2022-01-27T08:49:33Z</time>
      </trkpt>
      <trkpt lat="45.29541" lon="6.19855">
        <ele>1461.8</ele>
        <time>2022-01-27T08:49:34Z</time>
      </trkpt>
      <trkpt lat="45.29542" lon="6.19853">
        <ele>1461.8</ele>
        <time>2022-01-27T08:49:37Z</time>
      </trkpt>
      <trkpt lat="45.29542" lon="6.19852">
        <ele>1462</ele>
        <time>2022-01-27T08:49:38Z</time>
      </trkpt>
      <trkpt lat="45.29543" lon="6.19851">
        <ele>1462.5</ele>
        <time>2022-01-27T08:49:39Z</time>
      </trkpt>
      <trkpt lat="45.29544" lon="6.1985">
        <ele>1462.6</ele>
        <time>2022-01-27T08:49:41Z</time>
      </trkpt>
      <trkpt lat="45.29545" lon="6.19848">
        <ele>1462.6</ele>
        <time>2022-01-27T08:49:43Z</time>
      </trkpt>
      <trkpt lat="45.29545" lon="6.19847">
        <ele>1463.4</ele>
        <time>2022-01-27T08:49:45Z</time>
      </trkpt>
      <trkpt lat="45.29546" lon="6.19846">
        <ele>1463.4</ele>
        <time>2022-01-27T08:49:46Z</time>
      </trkpt>
      <trkpt lat="45.29547" lon="6.19845">
        <ele>1463.4</ele>
        <time>2022-01-27T08:49:48Z</time>
      </trkpt>
      <trkpt lat="45.29547" lon="6.19844">
        <ele>1463.5</ele>
        <time>2022-01-27T08:49:49Z</time>
      </trkpt>
      <trkpt lat="45.29548" lon="6.19843">
        <ele>1463.6</ele>
        <time>2022-01-27T08:49:51Z</time>
      </trkpt>
      <trkpt lat="45.29549" lon="6.19841">
        <ele>1463.7</ele>
        <time>2022-01-27T08:49:53Z</time>
      </trkpt>
      <trkpt lat="45.2955" lon="6.19841">
        <ele>1463.8</ele>
        <time>2022-01-27T08:49:56Z</time>
      </trkpt>
      <trkpt lat="45.29549" lon="6.19842">
        <ele>1463.9</ele>
        <time>2022-01-27T08:49:58Z</time>
      </trkpt>
      <trkpt lat="45.2955" lon="6.19841">
        <ele>1464.1</ele>
        <time>2022-01-27T08:50:03Z</time>
      </trkpt>
      <trkpt lat="45.2955" lon="6.1984">
        <ele>1464.2</ele>
        <time>2022-01-27T08:50:04Z</time>
      </trkpt>
      <trkpt lat="45.29551" lon="6.19839">
        <ele>1464.3</ele>
        <time>2022-01-27T08:50:05Z</time>
      </trkpt>
      <trkpt lat="45.29552" lon="6.19838">
        <ele>1464.4</ele>
        <time>2022-01-27T08:50:07Z</time>
      </trkpt>
      <trkpt lat="45.29553" lon="6.19837">
        <ele>1464.6</ele>
        <time>2022-01-27T08:50:08Z</time>
      </trkpt>
      <trkpt lat="45.29554" lon="6.19835">
        <ele>1464.7</ele>
        <time>2022-01-27T08:50:10Z</time>
      </trkpt>
      <trkpt lat="45.29555" lon="6.19834">
        <ele>1464.8</ele>
        <time>2022-01-27T08:50:11Z</time>
      </trkpt>
      <trkpt lat="45.29556" lon="6.19832">
        <ele>1465</ele>
        <time>2022-01-27T08:50:12Z</time>
      </trkpt>
      <trkpt lat="45.29557" lon="6.19831">
        <ele>1465.2</ele>
        <time>2022-01-27T08:50:14Z</time>
      </trkpt>
      <trkpt lat="45.29557" lon="6.1983">
        <ele>1465.2</ele>
        <time>2022-01-27T08:50:15Z</time>
      </trkpt>
      <trkpt lat="45.29558" lon="6.19829">
        <ele>1465.3</ele>
        <time>2022-01-27T08:50:16Z</time>
      </trkpt>
      <trkpt lat="45.2956" lon="6.19827">
        <ele>1465.5</ele>
        <time>2022-01-27T08:50:17Z</time>
      </trkpt>
      <trkpt lat="45.2956" lon="6.19826">
        <ele>1465.6</ele>
        <time>2022-01-27T08:50:18Z</time>
      </trkpt>
      <trkpt lat="45.29561" lon="6.19825">
        <ele>1465.7</ele>
        <time>2022-01-27T08:50:19Z</time>
      </trkpt>
      <trkpt lat="45.29562" lon="6.19824">
        <ele>1465.8</ele>
        <time>2022-01-27T08:50:21Z</time>
      </trkpt>
      <trkpt lat="45.29563" lon="6.19822">
        <ele>1466.1</ele>
        <time>2022-01-27T08:50:23Z</time>
      </trkpt>
      <trkpt lat="45.29564" lon="6.1982">
        <ele>1466.2</ele>
        <time>2022-01-27T08:50:24Z</time>
      </trkpt>
      <trkpt lat="45.29564" lon="6.19819">
        <ele>1466.3</ele>
        <time>2022-01-27T08:50:26Z</time>
      </trkpt>
      <trkpt lat="45.29565" lon="6.19818">
        <ele>1466.4</ele>
        <time>2022-01-27T08:50:27Z</time>
      </trkpt>
      <trkpt lat="45.29565" lon="6.19817">
        <ele>1466.5</ele>
        <time>2022-01-27T08:50:28Z</time>
      </trkpt>
      <trkpt lat="45.29565" lon="6.19815">
        <ele>1466.6</ele>
        <time>2022-01-27T08:50:29Z</time>
      </trkpt>
      <trkpt lat="45.29565" lon="6.19814">
        <ele>1466.7</ele>
        <time>2022-01-27T08:50:30Z</time>
      </trkpt>
      <trkpt lat="45.29565" lon="6.19813">
        <ele>1466.8</ele>
        <time>2022-01-27T08:50:31Z</time>
      </trkpt>
      <trkpt lat="45.29566" lon="6.19811">
        <ele>1466.9</ele>
        <time>2022-01-27T08:50:32Z</time>
      </trkpt>
      <trkpt lat="45.29566" lon="6.19809">
        <ele>1467</ele>
        <time>2022-01-27T08:50:33Z</time>
      </trkpt>
      <trkpt lat="45.29566" lon="6.19808">
        <ele>1467.1</ele>
        <time>2022-01-27T08:50:34Z</time>
      </trkpt>
      <trkpt lat="45.29566" lon="6.19807">
        <ele>1467.2</ele>
        <time>2022-01-27T08:50:35Z</time>
      </trkpt>
      <trkpt lat="45.29566" lon="6.19806">
        <ele>1467.3</ele>
        <time>2022-01-27T08:50:36Z</time>
      </trkpt>
      <trkpt lat="45.29566" lon="6.19805">
        <ele>1467.3</ele>
        <time>2022-01-27T08:50:37Z</time>
      </trkpt>
      <trkpt lat="45.29566" lon="6.19803">
        <ele>1467.5</ele>
        <time>2022-01-27T08:50:38Z</time>
      </trkpt>
      <trkpt lat="45.29566" lon="6.19802">
        <ele>1467.6</ele>
        <time>2022-01-27T08:50:39Z</time>
      </trkpt>
      <trkpt lat="45.29566" lon="6.19801">
        <ele>1467.6</ele>
        <time>2022-01-27T08:50:40Z</time>
      </trkpt>
      <trkpt lat="45.29566" lon="6.198">
        <ele>1467.7</ele>
        <time>2022-01-27T08:50:41Z</time>
      </trkpt>
      <trkpt lat="45.29566" lon="6.19799">
        <ele>1467.8</ele>
        <time>2022-01-27T08:50:42Z</time>
      </trkpt>
      <trkpt lat="45.29567" lon="6.19798">
        <ele>1467.9</ele>
        <time>2022-01-27T08:50:43Z</time>
      </trkpt>
      <trkpt lat="45.29567" lon="6.19797">
        <ele>1467.9</ele>
        <time>2022-01-27T08:50:44Z</time>
      </trkpt>
      <trkpt lat="45.29567" lon="6.19796">
        <ele>1468</ele>
        <time>2022-01-27T08:50:45Z</time>
      </trkpt>
      <trkpt lat="45.29568" lon="6.19795">
        <ele>1468.1</ele>
        <time>2022-01-27T08:50:47Z</time>
      </trkpt>
      <trkpt lat="45.29569" lon="6.19794">
        <ele>1468.2</ele>
        <time>2022-01-27T08:50:48Z</time>
      </trkpt>
      <trkpt lat="45.2957" lon="6.19793">
        <ele>1468.4</ele>
        <time>2022-01-27T08:50:50Z</time>
      </trkpt>
      <trkpt lat="45.29571" lon="6.19792">
        <ele>1468.5</ele>
        <time>2022-01-27T08:50:51Z</time>
      </trkpt>
      <trkpt lat="45.29573" lon="6.19791">
        <ele>1468.7</ele>
        <time>2022-01-27T08:50:53Z</time>
      </trkpt>
      <trkpt lat="45.29574" lon="6.1979">
        <ele>1468.8</ele>
        <time>2022-01-27T08:50:55Z</time>
      </trkpt>
      <trkpt lat="45.29574" lon="6.19789">
        <ele>1468.9</ele>
        <time>2022-01-27T08:50:56Z</time>
      </trkpt>
      <trkpt lat="45.29574" lon="6.19788">
        <ele>1469</ele>
        <time>2022-01-27T08:50:57Z</time>
      </trkpt>
      <trkpt lat="45.29575" lon="6.19786">
        <ele>1469.1</ele>
        <time>2022-01-27T08:50:58Z</time>
      </trkpt>
      <trkpt lat="45.29576" lon="6.19785">
        <ele>1469.2</ele>
        <time>2022-01-27T08:51:00Z</time>
      </trkpt>
      <trkpt lat="45.29576" lon="6.19784">
        <ele>1469.3</ele>
        <time>2022-01-27T08:51:02Z</time>
      </trkpt>
      <trkpt lat="45.29576" lon="6.19782">
        <ele>1469.5</ele>
        <time>2022-01-27T08:51:03Z</time>
      </trkpt>
      <trkpt lat="45.29577" lon="6.19781">
        <ele>1469.5</ele>
        <time>2022-01-27T08:51:04Z</time>
      </trkpt>
      <trkpt lat="45.29577" lon="6.1978">
        <ele>1469.6</ele>
        <time>2022-01-27T08:51:06Z</time>
      </trkpt>
      <trkpt lat="45.29578" lon="6.19779">
        <ele>1469.7</ele>
        <time>2022-01-27T08:51:07Z</time>
      </trkpt>
      <trkpt lat="45.29578" lon="6.19778">
        <ele>1469.8</ele>
        <time>2022-01-27T08:51:08Z</time>
      </trkpt>
      <trkpt lat="45.29578" lon="6.19777">
        <ele>1469.8</ele>
        <time>2022-01-27T08:51:10Z</time>
      </trkpt>
      <trkpt lat="45.29577" lon="6.19776">
        <ele>1470</ele>
        <time>2022-01-27T08:51:12Z</time>
      </trkpt>
      <trkpt lat="45.29576" lon="6.19776">
        <ele>1470.1</ele>
        <time>2022-01-27T08:51:14Z</time>
      </trkpt>
      <trkpt lat="45.29575" lon="6.19776">
        <ele>1470.2</ele>
        <time>2022-01-27T08:51:15Z</time>
      </trkpt>
      <trkpt lat="45.29574" lon="6.19775">
        <ele>1470.3</ele>
        <time>2022-01-27T08:51:17Z</time>
      </trkpt>
      <trkpt lat="45.29573" lon="6.19774">
        <ele>1470.4</ele>
        <time>2022-01-27T08:51:18Z</time>
      </trkpt>
      <trkpt lat="45.29572" lon="6.19774">
        <ele>1470.5</ele>
        <time>2022-01-27T08:51:19Z</time>
      </trkpt>
      <trkpt lat="45.29571" lon="6.19773">
        <ele>1470.7</ele>
        <time>2022-01-27T08:51:21Z</time>
      </trkpt>
      <trkpt lat="45.2957" lon="6.19773">
        <ele>1470.7</ele>
        <time>2022-01-27T08:51:22Z</time>
      </trkpt>
      <trkpt lat="45.2957" lon="6.19772">
        <ele>1470.8</ele>
        <time>2022-01-27T08:51:23Z</time>
      </trkpt>
      <trkpt lat="45.2957" lon="6.19771">
        <ele>1470.9</ele>
        <time>2022-01-27T08:51:24Z</time>
      </trkpt>
      <trkpt lat="45.29571" lon="6.19771">
        <ele>1471</ele>
        <time>2022-01-27T08:51:25Z</time>
      </trkpt>
      <trkpt lat="45.29571" lon="6.1977">
        <ele>1471</ele>
        <time>2022-01-27T08:51:27Z</time>
      </trkpt>
      <trkpt lat="45.29572" lon="6.1977">
        <ele>1471.1</ele>
        <time>2022-01-27T08:51:28Z</time>
      </trkpt>
      <trkpt lat="45.29572" lon="6.19769">
        <ele>1471.1</ele>
        <time>2022-01-27T08:51:29Z</time>
      </trkpt>
      <trkpt lat="45.29573" lon="6.19769">
        <ele>1471.2</ele>
        <time>2022-01-27T08:51:30Z</time>
      </trkpt>
      <trkpt lat="45.29574" lon="6.19768">
        <ele>1471.4</ele>
        <time>2022-01-27T08:51:32Z</time>
      </trkpt>
      <trkpt lat="45.29575" lon="6.19768">
        <ele>1471.4</ele>
        <time>2022-01-27T08:51:33Z</time>
      </trkpt>
      <trkpt lat="45.29576" lon="6.19767">
        <ele>1471.5</ele>
        <time>2022-01-27T08:51:34Z</time>
      </trkpt>
      <trkpt lat="45.29577" lon="6.19766">
        <ele>1471.7</ele>
        <time>2022-01-27T08:51:37Z</time>
      </trkpt>
      <trkpt lat="45.29578" lon="6.19765">
        <ele>1471.8</ele>
        <time>2022-01-27T08:51:38Z</time>
      </trkpt>
      <trkpt lat="45.29579" lon="6.19765">
        <ele>1471.9</ele>
        <time>2022-01-27T08:51:39Z</time>
      </trkpt>
      <trkpt lat="45.2958" lon="6.19764">
        <ele>1472</ele>
        <time>2022-01-27T08:51:41Z</time>
      </trkpt>
      <trkpt lat="45.29581" lon="6.19763">
        <ele>1472.1</ele>
        <time>2022-01-27T08:51:43Z</time>
      </trkpt>
      <trkpt lat="45.29581" lon="6.19762">
        <ele>1472.2</ele>
        <time>2022-01-27T08:51:44Z</time>
      </trkpt>
      <trkpt lat="45.29582" lon="6.19761">
        <ele>1472.3</ele>
        <time>2022-01-27T08:51:46Z</time>
      </trkpt>
      <trkpt lat="45.29582" lon="6.1976">
        <ele>1472.4</ele>
        <time>2022-01-27T08:51:47Z</time>
      </trkpt>
      <trkpt lat="45.29583" lon="6.19759">
        <ele>1472.5</ele>
        <time>2022-01-27T08:51:48Z</time>
      </trkpt>
      <trkpt lat="45.29583" lon="6.19758">
        <ele>1472.6</ele>
        <time>2022-01-27T08:51:50Z</time>
      </trkpt>
      <trkpt lat="45.29584" lon="6.19757">
        <ele>1472.7</ele>
        <time>2022-01-27T08:51:52Z</time>
      </trkpt>
      <trkpt lat="45.29585" lon="6.19756">
        <ele>1472.7</ele>
        <time>2022-01-27T08:51:53Z</time>
      </trkpt>
      <trkpt lat="45.29586" lon="6.19755">
        <ele>1472.9</ele>
        <time>2022-01-27T08:51:56Z</time>
      </trkpt>
      <trkpt lat="45.29587" lon="6.19754">
        <ele>1473.1</ele>
        <time>2022-01-27T08:51:58Z</time>
      </trkpt>
      <trkpt lat="45.29588" lon="6.19753">
        <ele>1473.2</ele>
        <time>2022-01-27T08:52:00Z</time>
      </trkpt>
      <trkpt lat="45.29588" lon="6.19752">
        <ele>1473.2</ele>
        <time>2022-01-27T08:52:01Z</time>
      </trkpt>
      <trkpt lat="45.29589" lon="6.19752">
        <ele>1473.3</ele>
        <time>2022-01-27T08:52:02Z</time>
      </trkpt>
      <trkpt lat="45.29589" lon="6.19751">
        <ele>1473.3</ele>
        <time>2022-01-27T08:52:03Z</time>
      </trkpt>
      <trkpt lat="45.29589" lon="6.1975">
        <ele>1473.4</ele>
        <time>2022-01-27T08:52:05Z</time>
      </trkpt>
      <trkpt lat="45.29589" lon="6.19749">
        <ele>1473.5</ele>
        <time>2022-01-27T08:52:08Z</time>
      </trkpt>
      <trkpt lat="45.29589" lon="6.19747">
        <ele>1473.6</ele>
        <time>2022-01-27T08:52:09Z</time>
      </trkpt>
      <trkpt lat="45.2959" lon="6.19746">
        <ele>1473.7</ele>
        <time>2022-01-27T08:52:10Z</time>
      </trkpt>
      <trkpt lat="45.2959" lon="6.19745">
        <ele>1473.8</ele>
        <time>2022-01-27T08:52:11Z</time>
      </trkpt>
      <trkpt lat="45.2959" lon="6.19744">
        <ele>1473.8</ele>
        <time>2022-01-27T08:52:12Z</time>
      </trkpt>
      <trkpt lat="45.2959" lon="6.19743">
        <ele>1474</ele>
        <time>2022-01-27T08:52:14Z</time>
      </trkpt>
      <trkpt lat="45.29589" lon="6.19742">
        <ele>1474</ele>
        <time>2022-01-27T08:52:15Z</time>
      </trkpt>
      <trkpt lat="45.29589" lon="6.19741">
        <ele>1474.1</ele>
        <time>2022-01-27T08:52:16Z</time>
      </trkpt>
      <trkpt lat="45.29589" lon="6.19739">
        <ele>1474.2</ele>
        <time>2022-01-27T08:52:19Z</time>
      </trkpt>
      <trkpt lat="45.29589" lon="6.19738">
        <ele>1474.3</ele>
        <time>2022-01-27T08:52:20Z</time>
      </trkpt>
      <trkpt lat="45.29589" lon="6.19737">
        <ele>1474.4</ele>
        <time>2022-01-27T08:52:21Z</time>
      </trkpt>
      <trkpt lat="45.29589" lon="6.19736">
        <ele>1474.5</ele>
        <time>2022-01-27T08:52:22Z</time>
      </trkpt>
      <trkpt lat="45.29589" lon="6.19733">
        <ele>1474.7</ele>
        <time>2022-01-27T08:52:24Z</time>
      </trkpt>
      <trkpt lat="45.2959" lon="6.19732">
        <ele>1474.8</ele>
        <time>2022-01-27T08:52:25Z</time>
      </trkpt>
      <trkpt lat="45.2959" lon="6.1973">
        <ele>1474.9</ele>
        <time>2022-01-27T08:52:26Z</time>
      </trkpt>
      <trkpt lat="45.2959" lon="6.19727">
        <ele>1475.1</ele>
        <time>2022-01-27T08:52:28Z</time>
      </trkpt>
      <trkpt lat="45.2959" lon="6.19726">
        <ele>1475.2</ele>
        <time>2022-01-27T08:52:30Z</time>
      </trkpt>
      <trkpt lat="45.2959" lon="6.19725">
        <ele>1475.3</ele>
        <time>2022-01-27T08:52:31Z</time>
      </trkpt>
      <trkpt lat="45.2959" lon="6.19724">
        <ele>1475.3</ele>
        <time>2022-01-27T08:52:32Z</time>
      </trkpt>
      <trkpt lat="45.2959" lon="6.19722">
        <ele>1475.5</ele>
        <time>2022-01-27T08:52:34Z</time>
      </trkpt>
      <trkpt lat="45.29591" lon="6.19721">
        <ele>1475.6</ele>
        <time>2022-01-27T08:52:35Z</time>
      </trkpt>
      <trkpt lat="45.29591" lon="6.1972">
        <ele>1475.6</ele>
        <time>2022-01-27T08:52:36Z</time>
      </trkpt>
      <trkpt lat="45.29591" lon="6.19719">
        <ele>1475.7</ele>
        <time>2022-01-27T08:52:37Z</time>
      </trkpt>
      <trkpt lat="45.29592" lon="6.19718">
        <ele>1475.8</ele>
        <time>2022-01-27T08:52:38Z</time>
      </trkpt>
      <trkpt lat="45.29592" lon="6.19717">
        <ele>1475.9</ele>
        <time>2022-01-27T08:52:39Z</time>
      </trkpt>
      <trkpt lat="45.29592" lon="6.19716">
        <ele>1475.9</ele>
        <time>2022-01-27T08:52:40Z</time>
      </trkpt>
      <trkpt lat="45.29593" lon="6.19715">
        <ele>1476</ele>
        <time>2022-01-27T08:52:41Z</time>
      </trkpt>
      <trkpt lat="45.29593" lon="6.19713">
        <ele>1476.2</ele>
        <time>2022-01-27T08:52:43Z</time>
      </trkpt>
      <trkpt lat="45.29594" lon="6.19712">
        <ele>1476.3</ele>
        <time>2022-01-27T08:52:45Z</time>
      </trkpt>
      <trkpt lat="45.29595" lon="6.19711">
        <ele>1476.4</ele>
        <time>2022-01-27T08:52:47Z</time>
      </trkpt>
      <trkpt lat="45.29596" lon="6.1971">
        <ele>1476.5</ele>
        <time>2022-01-27T08:52:48Z</time>
      </trkpt>
      <trkpt lat="45.29597" lon="6.19709">
        <ele>1476.6</ele>
        <time>2022-01-27T08:52:50Z</time>
      </trkpt>
      <trkpt lat="45.29597" lon="6.19708">
        <ele>1476.7</ele>
        <time>2022-01-27T08:52:52Z</time>
      </trkpt>
      <trkpt lat="45.29599" lon="6.19707">
        <ele>1476.9</ele>
        <time>2022-01-27T08:52:53Z</time>
      </trkpt>
      <trkpt lat="45.296" lon="6.19706">
        <ele>1477</ele>
        <time>2022-01-27T08:52:55Z</time>
      </trkpt>
      <trkpt lat="45.296" lon="6.19705">
        <ele>1477.1</ele>
        <time>2022-01-27T08:52:56Z</time>
      </trkpt>
      <trkpt lat="45.29601" lon="6.19705">
        <ele>1477.1</ele>
        <time>2022-01-27T08:52:57Z</time>
      </trkpt>
      <trkpt lat="45.29601" lon="6.19704">
        <ele>1477.2</ele>
        <time>2022-01-27T08:52:58Z</time>
      </trkpt>
      <trkpt lat="45.29602" lon="6.19703">
        <ele>1477.4</ele>
        <time>2022-01-27T08:53:00Z</time>
      </trkpt>
      <trkpt lat="45.29603" lon="6.19702">
        <ele>1477.5</ele>
        <time>2022-01-27T08:53:02Z</time>
      </trkpt>
      <trkpt lat="45.29604" lon="6.19701">
        <ele>1477.6</ele>
        <time>2022-01-27T08:53:03Z</time>
      </trkpt>
      <trkpt lat="45.29604" lon="6.197">
        <ele>1477.6</ele>
        <time>2022-01-27T08:53:04Z</time>
      </trkpt>
      <trkpt lat="45.29604" lon="6.19699">
        <ele>1477.7</ele>
        <time>2022-01-27T08:53:06Z</time>
      </trkpt>
      <trkpt lat="45.29605" lon="6.19697">
        <ele>1477.9</ele>
        <time>2022-01-27T08:53:08Z</time>
      </trkpt>
      <trkpt lat="45.29605" lon="6.19696">
        <ele>1478</ele>
        <time>2022-01-27T08:53:09Z</time>
      </trkpt>
      <trkpt lat="45.29606" lon="6.19694">
        <ele>1478.1</ele>
        <time>2022-01-27T08:53:10Z</time>
      </trkpt>
      <trkpt lat="45.29606" lon="6.19693">
        <ele>1478.2</ele>
        <time>2022-01-27T08:53:12Z</time>
      </trkpt>
      <trkpt lat="45.29607" lon="6.19691">
        <ele>1478.3</ele>
        <time>2022-01-27T08:53:13Z</time>
      </trkpt>
      <trkpt lat="45.29608" lon="6.19689">
        <ele>1478.5</ele>
        <time>2022-01-27T08:53:14Z</time>
      </trkpt>
      <trkpt lat="45.29608" lon="6.19688">
        <ele>1478.6</ele>
        <time>2022-01-27T08:53:16Z</time>
      </trkpt>
      <trkpt lat="45.29609" lon="6.19687">
        <ele>1478.7</ele>
        <time>2022-01-27T08:53:17Z</time>
      </trkpt>
      <trkpt lat="45.29609" lon="6.19685">
        <ele>1478.8</ele>
        <time>2022-01-27T08:53:18Z</time>
      </trkpt>
      <trkpt lat="45.29609" lon="6.19683">
        <ele>1479</ele>
        <time>2022-01-27T08:53:19Z</time>
      </trkpt>
      <trkpt lat="45.29609" lon="6.19681">
        <ele>1479.1</ele>
        <time>2022-01-27T08:53:21Z</time>
      </trkpt>
      <trkpt lat="45.29609" lon="6.1968">
        <ele>1479.2</ele>
        <time>2022-01-27T08:53:22Z</time>
      </trkpt>
      <trkpt lat="45.2961" lon="6.19679">
        <ele>1479.2</ele>
        <time>2022-01-27T08:53:23Z</time>
      </trkpt>
      <trkpt lat="45.2961" lon="6.19678">
        <ele>1479.4</ele>
        <time>2022-01-27T08:53:24Z</time>
      </trkpt>
      <trkpt lat="45.2961" lon="6.19677">
        <ele>1479.4</ele>
        <time>2022-01-27T08:53:25Z</time>
      </trkpt>
      <trkpt lat="45.29611" lon="6.19676">
        <ele>1479.5</ele>
        <time>2022-01-27T08:53:26Z</time>
      </trkpt>
      <trkpt lat="45.29611" lon="6.19675">
        <ele>1479.6</ele>
        <time>2022-01-27T08:53:28Z</time>
      </trkpt>
      <trkpt lat="45.29612" lon="6.19673">
        <ele>1479.8</ele>
        <time>2022-01-27T08:53:29Z</time>
      </trkpt>
      <trkpt lat="45.29613" lon="6.19672">
        <ele>1479.9</ele>
        <time>2022-01-27T08:53:30Z</time>
      </trkpt>
      <trkpt lat="45.29613" lon="6.1967">
        <ele>1480</ele>
        <time>2022-01-27T08:53:31Z</time>
      </trkpt>
      <trkpt lat="45.29614" lon="6.19669">
        <ele>1480.1</ele>
        <time>2022-01-27T08:53:32Z</time>
      </trkpt>
      <trkpt lat="45.29614" lon="6.19668">
        <ele>1480.2</ele>
        <time>2022-01-27T08:53:33Z</time>
      </trkpt>
      <trkpt lat="45.29615" lon="6.19668">
        <ele>1480.2</ele>
        <time>2022-01-27T08:53:34Z</time>
      </trkpt>
      <trkpt lat="45.29615" lon="6.19667">
        <ele>1480.3</ele>
        <time>2022-01-27T08:53:35Z</time>
      </trkpt>
      <trkpt lat="45.29615" lon="6.19666">
        <ele>1480.4</ele>
        <time>2022-01-27T08:53:36Z</time>
      </trkpt>
      <trkpt lat="45.29616" lon="6.19665">
        <ele>1480.5</ele>
        <time>2022-01-27T08:53:37Z</time>
      </trkpt>
      <trkpt lat="45.29616" lon="6.19663">
        <ele>1480.6</ele>
        <time>2022-01-27T08:53:39Z</time>
      </trkpt>
      <trkpt lat="45.29617" lon="6.19663">
        <ele>1480.7</ele>
        <time>2022-01-27T08:53:40Z</time>
      </trkpt>
      <trkpt lat="45.29617" lon="6.19662">
        <ele>1480.7</ele>
        <time>2022-01-27T08:53:41Z</time>
      </trkpt>
      <trkpt lat="45.29618" lon="6.19661">
        <ele>1480.8</ele>
        <time>2022-01-27T08:53:42Z</time>
      </trkpt>
      <trkpt lat="45.29619" lon="6.19659">
        <ele>1481</ele>
        <time>2022-01-27T08:53:43Z</time>
      </trkpt>
      <trkpt lat="45.2962" lon="6.19657">
        <ele>1481.2</ele>
        <time>2022-01-27T08:53:46Z</time>
      </trkpt>
      <trkpt lat="45.2962" lon="6.19656">
        <ele>1481.3</ele>
        <time>2022-01-27T08:53:47Z</time>
      </trkpt>
      <trkpt lat="45.29621" lon="6.19655">
        <ele>1481.4</ele>
        <time>2022-01-27T08:53:48Z</time>
      </trkpt>
      <trkpt lat="45.29621" lon="6.19654">
        <ele>1481.4</ele>
        <time>2022-01-27T08:53:49Z</time>
      </trkpt>
      <trkpt lat="45.29622" lon="6.19653">
        <ele>1481.6</ele>
        <time>2022-01-27T08:53:51Z</time>
      </trkpt>
      <trkpt lat="45.29623" lon="6.19652">
        <ele>1481.6</ele>
        <time>2022-01-27T08:53:52Z</time>
      </trkpt>
      <trkpt lat="45.29623" lon="6.19651">
        <ele>1481.7</ele>
        <time>2022-01-27T08:53:53Z</time>
      </trkpt>
      <trkpt lat="45.29623" lon="6.19652">
        <ele>1481.7</ele>
        <time>2022-01-27T08:53:56Z</time>
      </trkpt>
      <trkpt lat="45.29622" lon="6.19652">
        <ele>1481.8</ele>
        <time>2022-01-27T08:53:57Z</time>
      </trkpt>
      <trkpt lat="45.29623" lon="6.19652">
        <ele>1481.8</ele>
        <time>2022-01-27T08:53:58Z</time>
      </trkpt>
      <trkpt lat="45.29623" lon="6.19651">
        <ele>1481.8</ele>
        <time>2022-01-27T08:53:59Z</time>
      </trkpt>
      <trkpt lat="45.29623" lon="6.1965">
        <ele>1481.9</ele>
        <time>2022-01-27T08:54:02Z</time>
      </trkpt>
      <trkpt lat="45.29624" lon="6.19648">
        <ele>1482.1</ele>
        <time>2022-01-27T08:54:04Z</time>
      </trkpt>
      <trkpt lat="45.29625" lon="6.19647">
        <ele>1482.2</ele>
        <time>2022-01-27T08:54:05Z</time>
      </trkpt>
      <trkpt lat="45.29626" lon="6.19645">
        <ele>1482.3</ele>
        <time>2022-01-27T08:54:06Z</time>
      </trkpt>
      <trkpt lat="45.29627" lon="6.19644">
        <ele>1482.5</ele>
        <time>2022-01-27T08:54:08Z</time>
      </trkpt>
      <trkpt lat="45.29627" lon="6.19643">
        <ele>1482.6</ele>
        <time>2022-01-27T08:54:09Z</time>
      </trkpt>
      <trkpt lat="45.29628" lon="6.19642">
        <ele>1482.6</ele>
        <time>2022-01-27T08:54:10Z</time>
      </trkpt>
      <trkpt lat="45.29629" lon="6.19642">
        <ele>1482.7</ele>
        <time>2022-01-27T08:54:11Z</time>
      </trkpt>
      <trkpt lat="45.2963" lon="6.19641">
        <ele>1482.8</ele>
        <time>2022-01-27T08:54:12Z</time>
      </trkpt>
      <trkpt lat="45.29631" lon="6.1964">
        <ele>1482.9</ele>
        <time>2022-01-27T08:54:13Z</time>
      </trkpt>
      <trkpt lat="45.29632" lon="6.1964">
        <ele>1483.1</ele>
        <time>2022-01-27T08:54:14Z</time>
      </trkpt>
      <trkpt lat="45.29633" lon="6.19639">
        <ele>1483.2</ele>
        <time>2022-01-27T08:54:15Z</time>
      </trkpt>
      <trkpt lat="45.29634" lon="6.19639">
        <ele>1483.3</ele>
        <time>2022-01-27T08:54:16Z</time>
      </trkpt>
      <trkpt lat="45.29635" lon="6.19638">
        <ele>1483.4</ele>
        <time>2022-01-27T08:54:17Z</time>
      </trkpt>
      <trkpt lat="45.29636" lon="6.19638">
        <ele>1483.5</ele>
        <time>2022-01-27T08:54:18Z</time>
      </trkpt>
      <trkpt lat="45.29637" lon="6.19638">
        <ele>1483.6</ele>
        <time>2022-01-27T08:54:19Z</time>
      </trkpt>
      <trkpt lat="45.29637" lon="6.19637">
        <ele>1483.7</ele>
        <time>2022-01-27T08:54:20Z</time>
      </trkpt>
      <trkpt lat="45.29638" lon="6.19636">
        <ele>1483.8</ele>
        <time>2022-01-27T08:54:21Z</time>
      </trkpt>
      <trkpt lat="45.29639" lon="6.19636">
        <ele>1483.9</ele>
        <time>2022-01-27T08:54:22Z</time>
      </trkpt>
      <trkpt lat="45.2964" lon="6.19635">
        <ele>1484</ele>
        <time>2022-01-27T08:54:24Z</time>
      </trkpt>
      <trkpt lat="45.2964" lon="6.19634">
        <ele>1484.1</ele>
        <time>2022-01-27T08:54:25Z</time>
      </trkpt>
      <trkpt lat="45.29641" lon="6.19634">
        <ele>1484.1</ele>
        <time>2022-01-27T08:54:26Z</time>
      </trkpt>
      <trkpt lat="45.29642" lon="6.19633">
        <ele>1484.2</ele>
        <time>2022-01-27T08:54:28Z</time>
      </trkpt>
      <trkpt lat="45.29642" lon="6.19632">
        <ele>1484.3</ele>
        <time>2022-01-27T08:54:29Z</time>
      </trkpt>
      <trkpt lat="45.29643" lon="6.19632">
        <ele>1484.3</ele>
        <time>2022-01-27T08:54:30Z</time>
      </trkpt>
      <trkpt lat="45.29643" lon="6.19631">
        <ele>1484.4</ele>
        <time>2022-01-27T08:54:31Z</time>
      </trkpt>
      <trkpt lat="45.29644" lon="6.19631">
        <ele>1484.5</ele>
        <time>2022-01-27T08:54:32Z</time>
      </trkpt>
      <trkpt lat="45.29645" lon="6.1963">
        <ele>1484.7</ele>
        <time>2022-01-27T08:54:34Z</time>
      </trkpt>
      <trkpt lat="45.29646" lon="6.19629">
        <ele>1484.7</ele>
        <time>2022-01-27T08:54:35Z</time>
      </trkpt>
      <trkpt lat="45.29647" lon="6.19628">
        <ele>1484.9</ele>
        <time>2022-01-27T08:54:37Z</time>
      </trkpt>
      <trkpt lat="45.29647" lon="6.19627">
        <ele>1484.9</ele>
        <time>2022-01-27T08:54:38Z</time>
      </trkpt>
      <trkpt lat="45.29648" lon="6.19627">
        <ele>1485</ele>
        <time>2022-01-27T08:54:39Z</time>
      </trkpt>
      <trkpt lat="45.29649" lon="6.19626">
        <ele>1485.1</ele>
        <time>2022-01-27T08:54:40Z</time>
      </trkpt>
      <trkpt lat="45.29649" lon="6.19625">
        <ele>1485.2</ele>
        <time>2022-01-27T08:54:41Z</time>
      </trkpt>
      <trkpt lat="45.2965" lon="6.19625">
        <ele>1485.3</ele>
        <time>2022-01-27T08:54:42Z</time>
      </trkpt>
      <trkpt lat="45.2965" lon="6.19624">
        <ele>1485.3</ele>
        <time>2022-01-27T08:54:43Z</time>
      </trkpt>
      <trkpt lat="45.29651" lon="6.19623">
        <ele>1485.4</ele>
        <time>2022-01-27T08:54:44Z</time>
      </trkpt>
      <trkpt lat="45.29651" lon="6.19622">
        <ele>1485.5</ele>
        <time>2022-01-27T08:54:45Z</time>
      </trkpt>
      <trkpt lat="45.29652" lon="6.19621">
        <ele>1485.6</ele>
        <time>2022-01-27T08:54:46Z</time>
      </trkpt>
      <trkpt lat="45.29653" lon="6.1962">
        <ele>1485.7</ele>
        <time>2022-01-27T08:54:48Z</time>
      </trkpt>
      <trkpt lat="45.29654" lon="6.19619">
        <ele>1485.8</ele>
        <time>2022-01-27T08:54:49Z</time>
      </trkpt>
      <trkpt lat="45.29654" lon="6.19618">
        <ele>1485.9</ele>
        <time>2022-01-27T08:54:50Z</time>
      </trkpt>
      <trkpt lat="45.29655" lon="6.19616">
        <ele>1486</ele>
        <time>2022-01-27T08:54:51Z</time>
      </trkpt>
      <trkpt lat="45.29656" lon="6.19615">
        <ele>1486.2</ele>
        <time>2022-01-27T08:54:53Z</time>
      </trkpt>
      <trkpt lat="45.29656" lon="6.19614">
        <ele>1486.3</ele>
        <time>2022-01-27T08:54:54Z</time>
      </trkpt>
      <trkpt lat="45.29656" lon="6.19613">
        <ele>1486.3</ele>
        <time>2022-01-27T08:54:55Z</time>
      </trkpt>
      <trkpt lat="45.29657" lon="6.19613">
        <ele>1486.4</ele>
        <time>2022-01-27T08:54:56Z</time>
      </trkpt>
      <trkpt lat="45.29657" lon="6.19612">
        <ele>1486.5</ele>
        <time>2022-01-27T08:54:57Z</time>
      </trkpt>
      <trkpt lat="45.29658" lon="6.19612">
        <ele>1486.5</ele>
        <time>2022-01-27T08:54:58Z</time>
      </trkpt>
      <trkpt lat="45.29658" lon="6.19611">
        <ele>1486.6</ele>
        <time>2022-01-27T08:54:59Z</time>
      </trkpt>
      <trkpt lat="45.29659" lon="6.1961">
        <ele>1486.7</ele>
        <time>2022-01-27T08:55:00Z</time>
      </trkpt>
      <trkpt lat="45.2966" lon="6.19609">
        <ele>1486.8</ele>
        <time>2022-01-27T08:55:02Z</time>
      </trkpt>
      <trkpt lat="45.29661" lon="6.19608">
        <ele>1486.9</ele>
        <time>2022-01-27T08:55:03Z</time>
      </trkpt>
      <trkpt lat="45.29661" lon="6.19607">
        <ele>1487</ele>
        <time>2022-01-27T08:55:04Z</time>
      </trkpt>
      <trkpt lat="45.29662" lon="6.19607">
        <ele>1487</ele>
        <time>2022-01-27T08:55:05Z</time>
      </trkpt>
      <trkpt lat="45.29662" lon="6.19606">
        <ele>1487.1</ele>
        <time>2022-01-27T08:55:06Z</time>
      </trkpt>
      <trkpt lat="45.29662" lon="6.19605">
        <ele>1487.2</ele>
        <time>2022-01-27T08:55:07Z</time>
      </trkpt>
      <trkpt lat="45.29663" lon="6.19605">
        <ele>1487.2</ele>
        <time>2022-01-27T08:55:08Z</time>
      </trkpt>
      <trkpt lat="45.29663" lon="6.19603">
        <ele>1487.3</ele>
        <time>2022-01-27T08:55:09Z</time>
      </trkpt>
      <trkpt lat="45.29663" lon="6.19602">
        <ele>1487.4</ele>
        <time>2022-01-27T08:55:11Z</time>
      </trkpt>
      <trkpt lat="45.29664" lon="6.19602">
        <ele>1487.5</ele>
        <time>2022-01-27T08:55:12Z</time>
      </trkpt>
      <trkpt lat="45.29665" lon="6.196">
        <ele>1487.6</ele>
        <time>2022-01-27T08:55:14Z</time>
      </trkpt>
      <trkpt lat="45.29665" lon="6.19599">
        <ele>1487.7</ele>
        <time>2022-01-27T08:55:15Z</time>
      </trkpt>
      <trkpt lat="45.29665" lon="6.19598">
        <ele>1487.8</ele>
        <time>2022-01-27T08:55:16Z</time>
      </trkpt>
      <trkpt lat="45.29666" lon="6.19598">
        <ele>1487.8</ele>
        <time>2022-01-27T08:55:17Z</time>
      </trkpt>
      <trkpt lat="45.29666" lon="6.19597">
        <ele>1487.9</ele>
        <time>2022-01-27T08:55:18Z</time>
      </trkpt>
      <trkpt lat="45.29667" lon="6.19596">
        <ele>1488</ele>
        <time>2022-01-27T08:55:19Z</time>
      </trkpt>
      <trkpt lat="45.29667" lon="6.19595">
        <ele>1488.1</ele>
        <time>2022-01-27T08:55:20Z</time>
      </trkpt>
      <trkpt lat="45.29667" lon="6.19594">
        <ele>1488.1</ele>
        <time>2022-01-27T08:55:21Z</time>
      </trkpt>
      <trkpt lat="45.29668" lon="6.19593">
        <ele>1488.2</ele>
        <time>2022-01-27T08:55:22Z</time>
      </trkpt>
      <trkpt lat="45.29669" lon="6.19592">
        <ele>1488.3</ele>
        <time>2022-01-27T08:55:23Z</time>
      </trkpt>
      <trkpt lat="45.2967" lon="6.19591">
        <ele>1488.5</ele>
        <time>2022-01-27T08:55:25Z</time>
      </trkpt>
      <trkpt lat="45.2967" lon="6.1959">
        <ele>1488.6</ele>
        <time>2022-01-27T08:55:26Z</time>
      </trkpt>
      <trkpt lat="45.29671" lon="6.19589">
        <ele>1488.6</ele>
        <time>2022-01-27T08:55:27Z</time>
      </trkpt>
      <trkpt lat="45.29672" lon="6.19589">
        <ele>1488.7</ele>
        <time>2022-01-27T08:55:28Z</time>
      </trkpt>
      <trkpt lat="45.29673" lon="6.19588">
        <ele>1488.9</ele>
        <time>2022-01-27T08:55:29Z</time>
      </trkpt>
      <trkpt lat="45.29673" lon="6.19587">
        <ele>1488.9</ele>
        <time>2022-01-27T08:55:30Z</time>
      </trkpt>
      <trkpt lat="45.29674" lon="6.19587">
        <ele>1489</ele>
        <time>2022-01-27T08:55:31Z</time>
      </trkpt>
      <trkpt lat="45.29675" lon="6.19586">
        <ele>1489.1</ele>
        <time>2022-01-27T08:55:32Z</time>
      </trkpt>
      <trkpt lat="45.29676" lon="6.19585">
        <ele>1489.3</ele>
        <time>2022-01-27T08:55:34Z</time>
      </trkpt>
      <trkpt lat="45.29677" lon="6.19584">
        <ele>1489.3</ele>
        <time>2022-01-27T08:55:35Z</time>
      </trkpt>
      <trkpt lat="45.29678" lon="6.19583">
        <ele>1489.5</ele>
        <time>2022-01-27T08:55:37Z</time>
      </trkpt>
      <trkpt lat="45.29679" lon="6.1958">
        <ele>1489.7</ele>
        <time>2022-01-27T08:55:39Z</time>
      </trkpt>
      <trkpt lat="45.2968" lon="6.19579">
        <ele>1489.9</ele>
        <time>2022-01-27T08:55:40Z</time>
      </trkpt>
      <trkpt lat="45.29681" lon="6.19578">
        <ele>1490</ele>
        <time>2022-01-27T08:55:41Z</time>
      </trkpt>
      <trkpt lat="45.29681" lon="6.19577">
        <ele>1490</ele>
        <time>2022-01-27T08:55:42Z</time>
      </trkpt>
      <trkpt lat="45.29682" lon="6.19576">
        <ele>1490.1</ele>
        <time>2022-01-27T08:55:43Z</time>
      </trkpt>
      <trkpt lat="45.29683" lon="6.19575">
        <ele>1490.3</ele>
        <time>2022-01-27T08:55:45Z</time>
      </trkpt>
      <trkpt lat="45.29684" lon="6.19574">
        <ele>1490.4</ele>
        <time>2022-01-27T08:55:46Z</time>
      </trkpt>
      <trkpt lat="45.29684" lon="6.19573">
        <ele>1490.4</ele>
        <time>2022-01-27T08:55:47Z</time>
      </trkpt>
      <trkpt lat="45.29685" lon="6.19573">
        <ele>1490.5</ele>
        <time>2022-01-27T08:55:48Z</time>
      </trkpt>
      <trkpt lat="45.29686" lon="6.19572">
        <ele>1490.7</ele>
        <time>2022-01-27T08:55:49Z</time>
      </trkpt>
      <trkpt lat="45.29687" lon="6.19571">
        <ele>1490.7</ele>
        <time>2022-01-27T08:55:50Z</time>
      </trkpt>
      <trkpt lat="45.29688" lon="6.1957">
        <ele>1490.9</ele>
        <time>2022-01-27T08:55:51Z</time>
      </trkpt>
      <trkpt lat="45.29689" lon="6.19569">
        <ele>1491</ele>
        <time>2022-01-27T08:55:53Z</time>
      </trkpt>
      <trkpt lat="45.2969" lon="6.19568">
        <ele>1491.1</ele>
        <time>2022-01-27T08:55:54Z</time>
      </trkpt>
      <trkpt lat="45.29691" lon="6.19567">
        <ele>1491.3</ele>
        <time>2022-01-27T08:55:55Z</time>
      </trkpt>
      <trkpt lat="45.29691" lon="6.19566">
        <ele>1491.3</ele>
        <time>2022-01-27T08:55:56Z</time>
      </trkpt>
      <trkpt lat="45.29692" lon="6.19565">
        <ele>1491.4</ele>
        <time>2022-01-27T08:55:57Z</time>
      </trkpt>
      <trkpt lat="45.29693" lon="6.19563">
        <ele>1491.6</ele>
        <time>2022-01-27T08:55:59Z</time>
      </trkpt>
      <trkpt lat="45.29694" lon="6.19563">
        <ele>1491.7</ele>
        <time>2022-01-27T08:56:00Z</time>
      </trkpt>
      <trkpt lat="45.29694" lon="6.19562">
        <ele>1491.8</ele>
        <time>2022-01-27T08:56:01Z</time>
      </trkpt>
      <trkpt lat="45.29695" lon="6.19561">
        <ele>1491.9</ele>
        <time>2022-01-27T08:56:02Z</time>
      </trkpt>
      <trkpt lat="45.29696" lon="6.1956">
        <ele>1492</ele>
        <time>2022-01-27T08:56:03Z</time>
      </trkpt>
      <trkpt lat="45.29697" lon="6.19559">
        <ele>1492.1</ele>
        <time>2022-01-27T08:56:04Z</time>
      </trkpt>
      <trkpt lat="45.29698" lon="6.19558">
        <ele>1492.2</ele>
        <time>2022-01-27T08:56:06Z</time>
      </trkpt>
      <trkpt lat="45.29698" lon="6.19557">
        <ele>1492.3</ele>
        <time>2022-01-27T08:56:07Z</time>
      </trkpt>
      <trkpt lat="45.29699" lon="6.19556">
        <ele>1492.4</ele>
        <time>2022-01-27T08:56:08Z</time>
      </trkpt>
      <trkpt lat="45.297" lon="6.19554">
        <ele>1492.6</ele>
        <time>2022-01-27T08:56:09Z</time>
      </trkpt>
      <trkpt lat="45.297" lon="6.19553">
        <ele>1492.6</ele>
        <time>2022-01-27T08:56:10Z</time>
      </trkpt>
      <trkpt lat="45.29701" lon="6.19553">
        <ele>1492.7</ele>
        <time>2022-01-27T08:56:11Z</time>
      </trkpt>
      <trkpt lat="45.29701" lon="6.19552">
        <ele>1492.8</ele>
        <time>2022-01-27T08:56:12Z</time>
      </trkpt>
      <trkpt lat="45.29702" lon="6.1955">
        <ele>1492.9</ele>
        <time>2022-01-27T08:56:14Z</time>
      </trkpt>
      <trkpt lat="45.29702" lon="6.19549">
        <ele>1493</ele>
        <time>2022-01-27T08:56:15Z</time>
      </trkpt>
      <trkpt lat="45.29703" lon="6.19549">
        <ele>1493.1</ele>
        <time>2022-01-27T08:56:16Z</time>
      </trkpt>
      <trkpt lat="45.29703" lon="6.19548">
        <ele>1493.2</ele>
        <time>2022-01-27T08:56:17Z</time>
      </trkpt>
      <trkpt lat="45.29704" lon="6.19547">
        <ele>1493.3</ele>
        <time>2022-01-27T08:56:18Z</time>
      </trkpt>
      <trkpt lat="45.29705" lon="6.19546">
        <ele>1493.4</ele>
        <time>2022-01-27T08:56:19Z</time>
      </trkpt>
      <trkpt lat="45.29705" lon="6.19545">
        <ele>1493.5</ele>
        <time>2022-01-27T08:56:20Z</time>
      </trkpt>
      <trkpt lat="45.29706" lon="6.19544">
        <ele>1493.6</ele>
        <time>2022-01-27T08:56:21Z</time>
      </trkpt>
      <trkpt lat="45.29707" lon="6.19543">
        <ele>1493.6</ele>
        <time>2022-01-27T08:56:22Z</time>
      </trkpt>
      <trkpt lat="45.29708" lon="6.19541">
        <ele>1493.8</ele>
        <time>2022-01-27T08:56:24Z</time>
      </trkpt>
      <trkpt lat="45.29709" lon="6.19541">
        <ele>1493.9</ele>
        <time>2022-01-27T08:56:25Z</time>
      </trkpt>
      <trkpt lat="45.29709" lon="6.1954">
        <ele>1494</ele>
        <time>2022-01-27T08:56:26Z</time>
      </trkpt>
      <trkpt lat="45.29709" lon="6.19539">
        <ele>1494</ele>
        <time>2022-01-27T08:56:27Z</time>
      </trkpt>
      <trkpt lat="45.29709" lon="6.1954">
        <ele>1494.1</ele>
        <time>2022-01-27T08:56:34Z</time>
      </trkpt>
      <trkpt lat="45.29708" lon="6.19541">
        <ele>1494.2</ele>
        <time>2022-01-27T08:56:36Z</time>
      </trkpt>
      <trkpt lat="45.29708" lon="6.19542">
        <ele>1494.3</ele>
        <time>2022-01-27T08:56:43Z</time>
      </trkpt>
      <trkpt lat="45.29712" lon="6.19537">
        <ele>1494.9</ele>
        <time>2022-01-27T08:56:52Z</time>
      </trkpt>
      <trkpt lat="45.29714" lon="6.19535">
        <ele>1495</ele>
        <time>2022-01-27T08:56:54Z</time>
      </trkpt>
      <trkpt lat="45.29715" lon="6.19534">
        <ele>1495.2</ele>
        <time>2022-01-27T08:56:55Z</time>
      </trkpt>
      <trkpt lat="45.29715" lon="6.19532">
        <ele>1495.3</ele>
        <time>2022-01-27T08:56:56Z</time>
      </trkpt>
      <trkpt lat="45.29716" lon="6.19531">
        <ele>1495.4</ele>
        <time>2022-01-27T08:56:57Z</time>
      </trkpt>
      <trkpt lat="45.29716" lon="6.1953">
        <ele>1495.5</ele>
        <time>2022-01-27T08:56:58Z</time>
      </trkpt>
      <trkpt lat="45.29716" lon="6.19529">
        <ele>1495.6</ele>
        <time>2022-01-27T08:57:00Z</time>
      </trkpt>
      <trkpt lat="45.29716" lon="6.19528">
        <ele>1495.6</ele>
        <time>2022-01-27T08:57:01Z</time>
      </trkpt>
      <trkpt lat="45.29717" lon="6.19527">
        <ele>1495.7</ele>
        <time>2022-01-27T08:57:03Z</time>
      </trkpt>
      <trkpt lat="45.29717" lon="6.19526">
        <ele>1495.8</ele>
        <time>2022-01-27T08:57:04Z</time>
      </trkpt>
      <trkpt lat="45.29719" lon="6.19523">
        <ele>1496.1</ele>
        <time>2022-01-27T08:57:05Z</time>
      </trkpt>
      <trkpt lat="45.2972" lon="6.19522">
        <ele>1496.2</ele>
        <time>2022-01-27T08:57:07Z</time>
      </trkpt>
      <trkpt lat="45.29721" lon="6.19521">
        <ele>1496.4</ele>
        <time>2022-01-27T08:57:08Z</time>
      </trkpt>
      <trkpt lat="45.29722" lon="6.1952">
        <ele>1496.5</ele>
        <time>2022-01-27T08:57:09Z</time>
      </trkpt>
      <trkpt lat="45.29723" lon="6.19518">
        <ele>1496.6</ele>
        <time>2022-01-27T08:57:11Z</time>
      </trkpt>
      <trkpt lat="45.29724" lon="6.19517">
        <ele>1496.8</ele>
        <time>2022-01-27T08:57:12Z</time>
      </trkpt>
      <trkpt lat="45.29726" lon="6.19516">
        <ele>1497</ele>
        <time>2022-01-27T08:57:13Z</time>
      </trkpt>
      <trkpt lat="45.29728" lon="6.19514">
        <ele>1497.2</ele>
        <time>2022-01-27T08:57:15Z</time>
      </trkpt>
      <trkpt lat="45.29728" lon="6.19513">
        <ele>1497.3</ele>
        <time>2022-01-27T08:57:16Z</time>
      </trkpt>
      <trkpt lat="45.29729" lon="6.19512">
        <ele>1497.4</ele>
        <time>2022-01-27T08:57:17Z</time>
      </trkpt>
      <trkpt lat="45.2973" lon="6.19511">
        <ele>1497.5</ele>
        <time>2022-01-27T08:57:18Z</time>
      </trkpt>
      <trkpt lat="45.29731" lon="6.19511">
        <ele>1497.6</ele>
        <time>2022-01-27T08:57:19Z</time>
      </trkpt>
      <trkpt lat="45.29732" lon="6.19509">
        <ele>1497.8</ele>
        <time>2022-01-27T08:57:20Z</time>
      </trkpt>
      <trkpt lat="45.29733" lon="6.19508">
        <ele>1497.8</ele>
        <time>2022-01-27T08:57:21Z</time>
      </trkpt>
      <trkpt lat="45.29733" lon="6.19507">
        <ele>1497.9</ele>
        <time>2022-01-27T08:57:22Z</time>
      </trkpt>
      <trkpt lat="45.29734" lon="6.19507">
        <ele>1498</ele>
        <time>2022-01-27T08:57:23Z</time>
      </trkpt>
      <trkpt lat="45.29735" lon="6.19506">
        <ele>1498.2</ele>
        <time>2022-01-27T08:57:24Z</time>
      </trkpt>
      <trkpt lat="45.29736" lon="6.19505">
        <ele>1498.3</ele>
        <time>2022-01-27T08:57:25Z</time>
      </trkpt>
      <trkpt lat="45.29737" lon="6.19504">
        <ele>1498.4</ele>
        <time>2022-01-27T08:57:26Z</time>
      </trkpt>
      <trkpt lat="45.29738" lon="6.19504">
        <ele>1498.5</ele>
        <time>2022-01-27T08:57:27Z</time>
      </trkpt>
      <trkpt lat="45.29739" lon="6.19503">
        <ele>1498.6</ele>
        <time>2022-01-27T08:57:28Z</time>
      </trkpt>
      <trkpt lat="45.2974" lon="6.19502">
        <ele>1498.7</ele>
        <time>2022-01-27T08:57:29Z</time>
      </trkpt>
      <trkpt lat="45.29741" lon="6.19501">
        <ele>1498.8</ele>
        <time>2022-01-27T08:57:30Z</time>
      </trkpt>
      <trkpt lat="45.29742" lon="6.195">
        <ele>1499</ele>
        <time>2022-01-27T08:57:31Z</time>
      </trkpt>
      <trkpt lat="45.29743" lon="6.19499">
        <ele>1499.1</ele>
        <time>2022-01-27T08:57:32Z</time>
      </trkpt>
      <trkpt lat="45.29744" lon="6.19498">
        <ele>1499.2</ele>
        <time>2022-01-27T08:57:34Z</time>
      </trkpt>
      <trkpt lat="45.29745" lon="6.19497">
        <ele>1499.3</ele>
        <time>2022-01-27T08:57:35Z</time>
      </trkpt>
      <trkpt lat="45.29745" lon="6.19496">
        <ele>1499.4</ele>
        <time>2022-01-27T08:57:36Z</time>
      </trkpt>
      <trkpt lat="45.29746" lon="6.19495">
        <ele>1499.5</ele>
        <time>2022-01-27T08:57:37Z</time>
      </trkpt>
      <trkpt lat="45.29747" lon="6.19494">
        <ele>1499.6</ele>
        <time>2022-01-27T08:57:38Z</time>
      </trkpt>
      <trkpt lat="45.29747" lon="6.19493">
        <ele>1499.7</ele>
        <time>2022-01-27T08:57:39Z</time>
      </trkpt>
      <trkpt lat="45.29748" lon="6.19492">
        <ele>1499.9</ele>
        <time>2022-01-27T08:57:40Z</time>
      </trkpt>
      <trkpt lat="45.29749" lon="6.1949">
        <ele>1500</ele>
        <time>2022-01-27T08:57:41Z</time>
      </trkpt>
      <trkpt lat="45.2975" lon="6.19489">
        <ele>1500.1</ele>
        <time>2022-01-27T08:57:42Z</time>
      </trkpt>
      <trkpt lat="45.2975" lon="6.19488">
        <ele>1500.2</ele>
        <time>2022-01-27T08:57:43Z</time>
      </trkpt>
      <trkpt lat="45.29751" lon="6.19488">
        <ele>1500.2</ele>
        <time>2022-01-27T08:57:44Z</time>
      </trkpt>
      <trkpt lat="45.29752" lon="6.19486">
        <ele>1500.4</ele>
        <time>2022-01-27T08:57:45Z</time>
      </trkpt>
      <trkpt lat="45.29752" lon="6.19485">
        <ele>1500.5</ele>
        <time>2022-01-27T08:57:46Z</time>
      </trkpt>
      <trkpt lat="45.29753" lon="6.19484">
        <ele>1500.5</ele>
        <time>2022-01-27T08:57:47Z</time>
      </trkpt>
      <trkpt lat="45.29753" lon="6.19483">
        <ele>1500.6</ele>
        <time>2022-01-27T08:57:48Z</time>
      </trkpt>
      <trkpt lat="45.29754" lon="6.19483">
        <ele>1500.7</ele>
        <time>2022-01-27T08:57:49Z</time>
      </trkpt>
      <trkpt lat="45.29755" lon="6.19482">
        <ele>1500.9</ele>
        <time>2022-01-27T08:57:50Z</time>
      </trkpt>
      <trkpt lat="45.29756" lon="6.19481">
        <ele>1501</ele>
        <time>2022-01-27T08:57:51Z</time>
      </trkpt>
      <trkpt lat="45.29756" lon="6.1948">
        <ele>1501</ele>
        <time>2022-01-27T08:57:52Z</time>
      </trkpt>
      <trkpt lat="45.29757" lon="6.1948">
        <ele>1501.1</ele>
        <time>2022-01-27T08:57:53Z</time>
      </trkpt>
      <trkpt lat="45.29758" lon="6.19479">
        <ele>1501.2</ele>
        <time>2022-01-27T08:57:54Z</time>
      </trkpt>
      <trkpt lat="45.29759" lon="6.19478">
        <ele>1501.4</ele>
        <time>2022-01-27T08:57:55Z</time>
      </trkpt>
      <trkpt lat="45.2976" lon="6.19477">
        <ele>1501.5</ele>
        <time>2022-01-27T08:57:56Z</time>
      </trkpt>
      <trkpt lat="45.2976" lon="6.19476">
        <ele>1501.6</ele>
        <time>2022-01-27T08:57:57Z</time>
      </trkpt>
      <trkpt lat="45.29761" lon="6.19475">
        <ele>1501.6</ele>
        <time>2022-01-27T08:57:58Z</time>
      </trkpt>
      <trkpt lat="45.29762" lon="6.19474">
        <ele>1501.7</ele>
        <time>2022-01-27T08:57:59Z</time>
      </trkpt>
      <trkpt lat="45.29763" lon="6.19473">
        <ele>1501.9</ele>
        <time>2022-01-27T08:58:00Z</time>
      </trkpt>
      <trkpt lat="45.29763" lon="6.19472">
        <ele>1502</ele>
        <time>2022-01-27T08:58:01Z</time>
      </trkpt>
      <trkpt lat="45.29764" lon="6.19471">
        <ele>1502</ele>
        <time>2022-01-27T08:58:02Z</time>
      </trkpt>
      <trkpt lat="45.29765" lon="6.1947">
        <ele>1502.2</ele>
        <time>2022-01-27T08:58:03Z</time>
      </trkpt>
      <trkpt lat="45.29767" lon="6.19468">
        <ele>1502.4</ele>
        <time>2022-01-27T08:58:05Z</time>
      </trkpt>
      <trkpt lat="45.29768" lon="6.19468">
        <ele>1502.5</ele>
        <time>2022-01-27T08:58:06Z</time>
      </trkpt>
      <trkpt lat="45.29769" lon="6.19466">
        <ele>1502.7</ele>
        <time>2022-01-27T08:58:07Z</time>
      </trkpt>
      <trkpt lat="45.2977" lon="6.19465">
        <ele>1502.8</ele>
        <time>2022-01-27T08:58:09Z</time>
      </trkpt>
      <trkpt lat="45.29771" lon="6.19464">
        <ele>1503</ele>
        <time>2022-01-27T08:58:10Z</time>
      </trkpt>
      <trkpt lat="45.29772" lon="6.19463">
        <ele>1503.1</ele>
        <time>2022-01-27T08:58:12Z</time>
      </trkpt>
      <trkpt lat="45.29773" lon="6.19462">
        <ele>1503.2</ele>
        <time>2022-01-27T08:58:13Z</time>
      </trkpt>
      <trkpt lat="45.29774" lon="6.19461">
        <ele>1503.3</ele>
        <time>2022-01-27T08:58:14Z</time>
      </trkpt>
      <trkpt lat="45.29775" lon="6.1946">
        <ele>1503.4</ele>
        <time>2022-01-27T08:58:16Z</time>
      </trkpt>
      <trkpt lat="45.29777" lon="6.19453">
        <ele>1504</ele>
        <time>2022-01-27T08:58:23Z</time>
      </trkpt>
      <trkpt lat="45.29777" lon="6.19452">
        <ele>1504.1</ele>
        <time>2022-01-27T08:58:24Z</time>
      </trkpt>
      <trkpt lat="45.29777" lon="6.1945">
        <ele>1504.2</ele>
        <time>2022-01-27T08:58:25Z</time>
      </trkpt>
      <trkpt lat="45.29778" lon="6.19449">
        <ele>1504.3</ele>
        <time>2022-01-27T08:58:26Z</time>
      </trkpt>
      <trkpt lat="45.29778" lon="6.19448">
        <ele>1504.4</ele>
        <time>2022-01-27T08:58:28Z</time>
      </trkpt>
      <trkpt lat="45.29779" lon="6.19445">
        <ele>1504.6</ele>
        <time>2022-01-27T08:58:30Z</time>
      </trkpt>
      <trkpt lat="45.2978" lon="6.19444">
        <ele>1504.7</ele>
        <time>2022-01-27T08:58:31Z</time>
      </trkpt>
      <trkpt lat="45.2978" lon="6.19443">
        <ele>1504.8</ele>
        <time>2022-01-27T08:58:32Z</time>
      </trkpt>
      <trkpt lat="45.29781" lon="6.19442">
        <ele>1504.9</ele>
        <time>2022-01-27T08:58:33Z</time>
      </trkpt>
      <trkpt lat="45.29782" lon="6.19441">
        <ele>1505.1</ele>
        <time>2022-01-27T08:58:34Z</time>
      </trkpt>
      <trkpt lat="45.29783" lon="6.19439">
        <ele>1505.2</ele>
        <time>2022-01-27T08:58:35Z</time>
      </trkpt>
      <trkpt lat="45.29784" lon="6.19438">
        <ele>1505.3</ele>
        <time>2022-01-27T08:58:36Z</time>
      </trkpt>
      <trkpt lat="45.29784" lon="6.19437">
        <ele>1505.4</ele>
        <time>2022-01-27T08:58:37Z</time>
      </trkpt>
      <trkpt lat="45.29785" lon="6.19436">
        <ele>1505.6</ele>
        <time>2022-01-27T08:58:38Z</time>
      </trkpt>
      <trkpt lat="45.29786" lon="6.19435">
        <ele>1505.7</ele>
        <time>2022-01-27T08:58:39Z</time>
      </trkpt>
      <trkpt lat="45.29787" lon="6.19433">
        <ele>1505.8</ele>
        <time>2022-01-27T08:58:40Z</time>
      </trkpt>
      <trkpt lat="45.29788" lon="6.19432">
        <ele>1505.9</ele>
        <time>2022-01-27T08:58:41Z</time>
      </trkpt>
      <trkpt lat="45.29788" lon="6.19431">
        <ele>1506</ele>
        <time>2022-01-27T08:58:42Z</time>
      </trkpt>
      <trkpt lat="45.29789" lon="6.1943">
        <ele>1506.1</ele>
        <time>2022-01-27T08:58:43Z</time>
      </trkpt>
      <trkpt lat="45.29789" lon="6.19429">
        <ele>1506.2</ele>
        <time>2022-01-27T08:58:44Z</time>
      </trkpt>
      <trkpt lat="45.2979" lon="6.19427">
        <ele>1506.3</ele>
        <time>2022-01-27T08:58:45Z</time>
      </trkpt>
      <trkpt lat="45.2979" lon="6.19426">
        <ele>1506.4</ele>
        <time>2022-01-27T08:58:46Z</time>
      </trkpt>
      <trkpt lat="45.29791" lon="6.19425">
        <ele>1506.5</ele>
        <time>2022-01-27T08:58:47Z</time>
      </trkpt>
      <trkpt lat="45.29791" lon="6.19424">
        <ele>1506.6</ele>
        <time>2022-01-27T08:58:48Z</time>
      </trkpt>
      <trkpt lat="45.29792" lon="6.19424">
        <ele>1506.7</ele>
        <time>2022-01-27T08:58:49Z</time>
      </trkpt>
      <trkpt lat="45.29792" lon="6.19422">
        <ele>1506.8</ele>
        <time>2022-01-27T08:58:50Z</time>
      </trkpt>
      <trkpt lat="45.29793" lon="6.19421">
        <ele>1506.9</ele>
        <time>2022-01-27T08:58:51Z</time>
      </trkpt>
      <trkpt lat="45.29793" lon="6.1942">
        <ele>1506.9</ele>
        <time>2022-01-27T08:58:52Z</time>
      </trkpt>
      <trkpt lat="45.29794" lon="6.19419">
        <ele>1507</ele>
        <time>2022-01-27T08:58:53Z</time>
      </trkpt>
      <trkpt lat="45.29794" lon="6.19418">
        <ele>1507.1</ele>
        <time>2022-01-27T08:58:54Z</time>
      </trkpt>
      <trkpt lat="45.29795" lon="6.19417">
        <ele>1507.2</ele>
        <time>2022-01-27T08:58:55Z</time>
      </trkpt>
      <trkpt lat="45.29796" lon="6.19416">
        <ele>1507.3</ele>
        <time>2022-01-27T08:58:58Z</time>
      </trkpt>
      <trkpt lat="45.29797" lon="6.19415">
        <ele>1507.5</ele>
        <time>2022-01-27T08:59:00Z</time>
      </trkpt>
      <trkpt lat="45.29797" lon="6.19414">
        <ele>1507.5</ele>
        <time>2022-01-27T08:59:01Z</time>
      </trkpt>
      <trkpt lat="45.29797" lon="6.19413">
        <ele>1507.6</ele>
        <time>2022-01-27T08:59:02Z</time>
      </trkpt>
      <trkpt lat="45.29796" lon="6.19412">
        <ele>1507.7</ele>
        <time>2022-01-27T08:59:04Z</time>
      </trkpt>
      <trkpt lat="45.29799" lon="6.19403">
        <ele>1508.4</ele>
        <time>2022-01-27T08:59:16Z</time>
      </trkpt>
      <trkpt lat="45.29799" lon="6.19402">
        <ele>1508.5</ele>
        <time>2022-01-27T08:59:17Z</time>
      </trkpt>
      <trkpt lat="45.298" lon="6.194">
        <ele>1508.6</ele>
        <time>2022-01-27T08:59:18Z</time>
      </trkpt>
      <trkpt lat="45.298" lon="6.19397">
        <ele>1508.8</ele>
        <time>2022-01-27T08:59:20Z</time>
      </trkpt>
      <trkpt lat="45.29801" lon="6.19396">
        <ele>1508.9</ele>
        <time>2022-01-27T08:59:21Z</time>
      </trkpt>
      <trkpt lat="45.29802" lon="6.19394">
        <ele>1509.1</ele>
        <time>2022-01-27T08:59:23Z</time>
      </trkpt>
      <trkpt lat="45.29802" lon="6.19391">
        <ele>1509.3</ele>
        <time>2022-01-27T08:59:25Z</time>
      </trkpt>
      <trkpt lat="45.29802" lon="6.1939">
        <ele>1509.4</ele>
        <time>2022-01-27T08:59:26Z</time>
      </trkpt>
      <trkpt lat="45.29802" lon="6.19389">
        <ele>1509.5</ele>
        <time>2022-01-27T08:59:27Z</time>
      </trkpt>
      <trkpt lat="45.29802" lon="6.19388">
        <ele>1509.6</ele>
        <time>2022-01-27T08:59:28Z</time>
      </trkpt>
      <trkpt lat="45.29802" lon="6.19386">
        <ele>1509.7</ele>
        <time>2022-01-27T08:59:29Z</time>
      </trkpt>
      <trkpt lat="45.29801" lon="6.19383">
        <ele>1509.9</ele>
        <time>2022-01-27T08:59:31Z</time>
      </trkpt>
      <trkpt lat="45.29801" lon="6.19381">
        <ele>1510</ele>
        <time>2022-01-27T08:59:32Z</time>
      </trkpt>
      <trkpt lat="45.29802" lon="6.1938">
        <ele>1510.1</ele>
        <time>2022-01-27T08:59:33Z</time>
      </trkpt>
      <trkpt lat="45.29802" lon="6.19379">
        <ele>1510.2</ele>
        <time>2022-01-27T08:59:34Z</time>
      </trkpt>
      <trkpt lat="45.29802" lon="6.19378">
        <ele>1510.3</ele>
        <time>2022-01-27T08:59:35Z</time>
      </trkpt>
      <trkpt lat="45.29802" lon="6.19377">
        <ele>1510.3</ele>
        <time>2022-01-27T08:59:36Z</time>
      </trkpt>
      <trkpt lat="45.29802" lon="6.19376">
        <ele>1510.4</ele>
        <time>2022-01-27T08:59:37Z</time>
      </trkpt>
      <trkpt lat="45.29802" lon="6.19375">
        <ele>1510.5</ele>
        <time>2022-01-27T08:59:38Z</time>
      </trkpt>
      <trkpt lat="45.29803" lon="6.19374">
        <ele>1510.6</ele>
        <time>2022-01-27T08:59:39Z</time>
      </trkpt>
      <trkpt lat="45.29803" lon="6.19373">
        <ele>1510.6</ele>
        <time>2022-01-27T08:59:40Z</time>
      </trkpt>
      <trkpt lat="45.29803" lon="6.19372">
        <ele>1510.7</ele>
        <time>2022-01-27T08:59:42Z</time>
      </trkpt>
      <trkpt lat="45.29803" lon="6.19371">
        <ele>1510.8</ele>
        <time>2022-01-27T08:59:43Z</time>
      </trkpt>
      <trkpt lat="45.29803" lon="6.1937">
        <ele>1510.9</ele>
        <time>2022-01-27T08:59:44Z</time>
      </trkpt>
      <trkpt lat="45.29804" lon="6.19368">
        <ele>1511</ele>
        <time>2022-01-27T08:59:46Z</time>
      </trkpt>
      <trkpt lat="45.29804" lon="6.19367">
        <ele>1511.1</ele>
        <time>2022-01-27T08:59:48Z</time>
      </trkpt>
      <trkpt lat="45.29804" lon="6.19366">
        <ele>1511.2</ele>
        <time>2022-01-27T08:59:49Z</time>
      </trkpt>
      <trkpt lat="45.29805" lon="6.19364">
        <ele>1511.3</ele>
        <time>2022-01-27T08:59:50Z</time>
      </trkpt>
      <trkpt lat="45.29805" lon="6.19363">
        <ele>1511.4</ele>
        <time>2022-01-27T08:59:51Z</time>
      </trkpt>
      <trkpt lat="45.29805" lon="6.19362">
        <ele>1511.5</ele>
        <time>2022-01-27T08:59:52Z</time>
      </trkpt>
      <trkpt lat="45.29806" lon="6.19361">
        <ele>1511.6</ele>
        <time>2022-01-27T08:59:53Z</time>
      </trkpt>
      <trkpt lat="45.29806" lon="6.1936">
        <ele>1511.7</ele>
        <time>2022-01-27T08:59:54Z</time>
      </trkpt>
      <trkpt lat="45.29807" lon="6.19359">
        <ele>1511.8</ele>
        <time>2022-01-27T08:59:55Z</time>
      </trkpt>
      <trkpt lat="45.29807" lon="6.19358">
        <ele>1511.8</ele>
        <time>2022-01-27T08:59:56Z</time>
      </trkpt>
      <trkpt lat="45.29807" lon="6.19357">
        <ele>1511.9</ele>
        <time>2022-01-27T08:59:57Z</time>
      </trkpt>
      <trkpt lat="45.29808" lon="6.19355">
        <ele>1512.1</ele>
        <time>2022-01-27T08:59:58Z</time>
      </trkpt>
      <trkpt lat="45.29809" lon="6.19355">
        <ele>1512.1</ele>
        <time>2022-01-27T08:59:59Z</time>
      </trkpt>
      <trkpt lat="45.29809" lon="6.19354">
        <ele>1512.2</ele>
        <time>2022-01-27T09:00:00Z</time>
      </trkpt>
      <trkpt lat="45.29809" lon="6.19353">
        <ele>1512.3</ele>
        <time>2022-01-27T09:00:01Z</time>
      </trkpt>
      <trkpt lat="45.2981" lon="6.19351">
        <ele>1512.4</ele>
        <time>2022-01-27T09:00:03Z</time>
      </trkpt>
      <trkpt lat="45.2981" lon="6.1935">
        <ele>1512.5</ele>
        <time>2022-01-27T09:00:04Z</time>
      </trkpt>
      <trkpt lat="45.29811" lon="6.19348">
        <ele>1512.6</ele>
        <time>2022-01-27T09:00:06Z</time>
      </trkpt>
      <trkpt lat="45.29811" lon="6.19347">
        <ele>1512.7</ele>
        <time>2022-01-27T09:00:07Z</time>
      </trkpt>
      <trkpt lat="45.29811" lon="6.19346">
        <ele>1512.8</ele>
        <time>2022-01-27T09:00:08Z</time>
      </trkpt>
      <trkpt lat="45.29812" lon="6.19345">
        <ele>1512.9</ele>
        <time>2022-01-27T09:00:09Z</time>
      </trkpt>
      <trkpt lat="45.29812" lon="6.19343">
        <ele>1513</ele>
        <time>2022-01-27T09:00:11Z</time>
      </trkpt>
      <trkpt lat="45.29813" lon="6.19342">
        <ele>1513.1</ele>
        <time>2022-01-27T09:00:12Z</time>
      </trkpt>
      <trkpt lat="45.29813" lon="6.19341">
        <ele>1513.2</ele>
        <time>2022-01-27T09:00:13Z</time>
      </trkpt>
      <trkpt lat="45.29813" lon="6.1934">
        <ele>1513.3</ele>
        <time>2022-01-27T09:00:14Z</time>
      </trkpt>
      <trkpt lat="45.29814" lon="6.19339">
        <ele>1513.4</ele>
        <time>2022-01-27T09:00:15Z</time>
      </trkpt>
      <trkpt lat="45.29814" lon="6.19338">
        <ele>1513.5</ele>
        <time>2022-01-27T09:00:16Z</time>
      </trkpt>
      <trkpt lat="45.29814" lon="6.19336">
        <ele>1513.6</ele>
        <time>2022-01-27T09:00:18Z</time>
      </trkpt>
      <trkpt lat="45.29814" lon="6.19335">
        <ele>1513.7</ele>
        <time>2022-01-27T09:00:20Z</time>
      </trkpt>
      <trkpt lat="45.29814" lon="6.19333">
        <ele>1513.8</ele>
        <time>2022-01-27T09:00:21Z</time>
      </trkpt>
      <trkpt lat="45.29815" lon="6.19332">
        <ele>1513.9</ele>
        <time>2022-01-27T09:00:23Z</time>
      </trkpt>
      <trkpt lat="45.29815" lon="6.19331">
        <ele>1514</ele>
        <time>2022-01-27T09:00:24Z</time>
      </trkpt>
      <trkpt lat="45.29815" lon="6.19329">
        <ele>1514.2</ele>
        <time>2022-01-27T09:00:26Z</time>
      </trkpt>
      <trkpt lat="45.29816" lon="6.19328">
        <ele>1514.2</ele>
        <time>2022-01-27T09:00:27Z</time>
      </trkpt>
      <trkpt lat="45.29816" lon="6.19327">
        <ele>1514.3</ele>
        <time>2022-01-27T09:00:28Z</time>
      </trkpt>
      <trkpt lat="45.29816" lon="6.19326">
        <ele>1514.3</ele>
        <time>2022-01-27T09:00:29Z</time>
      </trkpt>
      <trkpt lat="45.29816" lon="6.19325">
        <ele>1514.4</ele>
        <time>2022-01-27T09:00:30Z</time>
      </trkpt>
      <trkpt lat="45.29817" lon="6.19324">
        <ele>1514.5</ele>
        <time>2022-01-27T09:00:31Z</time>
      </trkpt>
      <trkpt lat="45.29817" lon="6.19323">
        <ele>1514.6</ele>
        <time>2022-01-27T09:00:32Z</time>
      </trkpt>
      <trkpt lat="45.29817" lon="6.19322">
        <ele>1514.7</ele>
        <time>2022-01-27T09:00:34Z</time>
      </trkpt>
      <trkpt lat="45.29818" lon="6.19321">
        <ele>1514.8</ele>
        <time>2022-01-27T09:00:35Z</time>
      </trkpt>
      <trkpt lat="45.29818" lon="6.19319">
        <ele>1514.9</ele>
        <time>2022-01-27T09:00:36Z</time>
      </trkpt>
      <trkpt lat="45.29818" lon="6.19318">
        <ele>1515</ele>
        <time>2022-01-27T09:00:37Z</time>
      </trkpt>
      <trkpt lat="45.29819" lon="6.19317">
        <ele>1515</ele>
        <time>2022-01-27T09:00:38Z</time>
      </trkpt>
      <trkpt lat="45.29819" lon="6.19316">
        <ele>1515.1</ele>
        <time>2022-01-27T09:00:39Z</time>
      </trkpt>
      <trkpt lat="45.29819" lon="6.19315">
        <ele>1515.2</ele>
        <time>2022-01-27T09:00:40Z</time>
      </trkpt>
      <trkpt lat="45.2982" lon="6.19313">
        <ele>1515.4</ele>
        <time>2022-01-27T09:00:41Z</time>
      </trkpt>
      <trkpt lat="45.2982" lon="6.19312">
        <ele>1515.4</ele>
        <time>2022-01-27T09:00:42Z</time>
      </trkpt>
      <trkpt lat="45.29821" lon="6.19309">
        <ele>1515.7</ele>
        <time>2022-01-27T09:00:43Z</time>
      </trkpt>
      <trkpt lat="45.29822" lon="6.19308">
        <ele>1515.8</ele>
        <time>2022-01-27T09:00:45Z</time>
      </trkpt>
      <trkpt lat="45.29822" lon="6.19307">
        <ele>1515.9</ele>
        <time>2022-01-27T09:00:46Z</time>
      </trkpt>
      <trkpt lat="45.29823" lon="6.19306">
        <ele>1516</ele>
        <time>2022-01-27T09:00:48Z</time>
      </trkpt>
      <trkpt lat="45.29823" lon="6.19304">
        <ele>1516.1</ele>
        <time>2022-01-27T09:00:49Z</time>
      </trkpt>
      <trkpt lat="45.29823" lon="6.19303">
        <ele>1516.2</ele>
        <time>2022-01-27T09:00:50Z</time>
      </trkpt>
      <trkpt lat="45.29824" lon="6.19301">
        <ele>1516.4</ele>
        <time>2022-01-27T09:00:51Z</time>
      </trkpt>
      <trkpt lat="45.29824" lon="6.19299">
        <ele>1516.5</ele>
        <time>2022-01-27T09:00:53Z</time>
      </trkpt>
      <trkpt lat="45.29824" lon="6.19298">
        <ele>1516.6</ele>
        <time>2022-01-27T09:00:54Z</time>
      </trkpt>
      <trkpt lat="45.29825" lon="6.19295">
        <ele>1516.8</ele>
        <time>2022-01-27T09:00:55Z</time>
      </trkpt>
      <trkpt lat="45.29825" lon="6.19294">
        <ele>1516.8</ele>
        <time>2022-01-27T09:00:56Z</time>
      </trkpt>
      <trkpt lat="45.29826" lon="6.19293">
        <ele>1517</ele>
        <time>2022-01-27T09:00:58Z</time>
      </trkpt>
      <trkpt lat="45.29826" lon="6.1929">
        <ele>1517.1</ele>
        <time>2022-01-27T09:00:59Z</time>
      </trkpt>
      <trkpt lat="45.29827" lon="6.19288">
        <ele>1517.3</ele>
        <time>2022-01-27T09:01:01Z</time>
      </trkpt>
      <trkpt lat="45.29827" lon="6.19287">
        <ele>1517.4</ele>
        <time>2022-01-27T09:01:02Z</time>
      </trkpt>
      <trkpt lat="45.29828" lon="6.19285">
        <ele>1517.6</ele>
        <time>2022-01-27T09:01:03Z</time>
      </trkpt>
      <trkpt lat="45.29828" lon="6.19284">
        <ele>1517.7</ele>
        <time>2022-01-27T09:01:04Z</time>
      </trkpt>
      <trkpt lat="45.29829" lon="6.19281">
        <ele>1517.9</ele>
        <time>2022-01-27T09:01:06Z</time>
      </trkpt>
      <trkpt lat="45.29829" lon="6.19279">
        <ele>1518</ele>
        <time>2022-01-27T09:01:07Z</time>
      </trkpt>
      <trkpt lat="45.29829" lon="6.19278">
        <ele>1518.1</ele>
        <time>2022-01-27T09:01:09Z</time>
      </trkpt>
      <trkpt lat="45.2983" lon="6.19276">
        <ele>1518.2</ele>
        <time>2022-01-27T09:01:10Z</time>
      </trkpt>
      <trkpt lat="45.2983" lon="6.19275">
        <ele>1518.3</ele>
        <time>2022-01-27T09:01:11Z</time>
      </trkpt>
      <trkpt lat="45.2983" lon="6.19274">
        <ele>1518.4</ele>
        <time>2022-01-27T09:01:12Z</time>
      </trkpt>
      <trkpt lat="45.29831" lon="6.19272">
        <ele>1518.5</ele>
        <time>2022-01-27T09:01:13Z</time>
      </trkpt>
      <trkpt lat="45.29831" lon="6.1927">
        <ele>1518.7</ele>
        <time>2022-01-27T09:01:14Z</time>
      </trkpt>
      <trkpt lat="45.29831" lon="6.19269">
        <ele>1518.8</ele>
        <time>2022-01-27T09:01:15Z</time>
      </trkpt>
      <trkpt lat="45.29831" lon="6.19267">
        <ele>1518.9</ele>
        <time>2022-01-27T09:01:16Z</time>
      </trkpt>
      <trkpt lat="45.29831" lon="6.19265">
        <ele>1519.1</ele>
        <time>2022-01-27T09:01:18Z</time>
      </trkpt>
      <trkpt lat="45.29831" lon="6.19264">
        <ele>1519.2</ele>
        <time>2022-01-27T09:01:19Z</time>
      </trkpt>
      <trkpt lat="45.29832" lon="6.19262">
        <ele>1519.3</ele>
        <time>2022-01-27T09:01:20Z</time>
      </trkpt>
      <trkpt lat="45.29832" lon="6.19259">
        <ele>1519.5</ele>
        <time>2022-01-27T09:01:21Z</time>
      </trkpt>
      <trkpt lat="45.29833" lon="6.19258">
        <ele>1519.6</ele>
        <time>2022-01-27T09:01:22Z</time>
      </trkpt>
      <trkpt lat="45.29833" lon="6.19257">
        <ele>1519.7</ele>
        <time>2022-01-27T09:01:23Z</time>
      </trkpt>
      <trkpt lat="45.29834" lon="6.19256">
        <ele>1519.8</ele>
        <time>2022-01-27T09:01:25Z</time>
      </trkpt>
      <trkpt lat="45.29834" lon="6.19254">
        <ele>1519.9</ele>
        <time>2022-01-27T09:01:26Z</time>
      </trkpt>
      <trkpt lat="45.29835" lon="6.19253">
        <ele>1520</ele>
        <time>2022-01-27T09:01:27Z</time>
      </trkpt>
      <trkpt lat="45.29835" lon="6.19252">
        <ele>1520.1</ele>
        <time>2022-01-27T09:01:28Z</time>
      </trkpt>
      <trkpt lat="45.29835" lon="6.19249">
        <ele>1520.3</ele>
        <time>2022-01-27T09:03:08Z</time>
      </trkpt>
      <trkpt lat="45.29835" lon="6.19248">
        <ele>1520.5</ele>
        <time>2022-01-27T09:03:09Z</time>
      </trkpt>
      <trkpt lat="45.29835" lon="6.19246">
        <ele>1520.6</ele>
        <time>2022-01-27T09:03:10Z</time>
      </trkpt>
      <trkpt lat="45.29835" lon="6.19245">
        <ele>1520.7</ele>
        <time>2022-01-27T09:03:11Z</time>
      </trkpt>
      <trkpt lat="45.29836" lon="6.19243">
        <ele>1520.8</ele>
        <time>2022-01-27T09:03:12Z</time>
      </trkpt>
      <trkpt lat="45.29836" lon="6.19242">
        <ele>1520.9</ele>
        <time>2022-01-27T09:03:13Z</time>
      </trkpt>
      <trkpt lat="45.29836" lon="6.19241">
        <ele>1521</ele>
        <time>2022-01-27T09:03:14Z</time>
      </trkpt>
      <trkpt lat="45.29836" lon="6.1924">
        <ele>1521.1</ele>
        <time>2022-01-27T09:03:15Z</time>
      </trkpt>
      <trkpt lat="45.29837" lon="6.19239">
        <ele>1521.2</ele>
        <time>2022-01-27T09:03:16Z</time>
      </trkpt>
      <trkpt lat="45.29838" lon="6.19237">
        <ele>1521.4</ele>
        <time>2022-01-27T09:03:17Z</time>
      </trkpt>
      <trkpt lat="45.29839" lon="6.19236">
        <ele>1521.5</ele>
        <time>2022-01-27T09:03:19Z</time>
      </trkpt>
      <trkpt lat="45.2984" lon="6.19235">
        <ele>1521.6</ele>
        <time>2022-01-27T09:03:20Z</time>
      </trkpt>
      <trkpt lat="45.29841" lon="6.19233">
        <ele>1521.8</ele>
        <time>2022-01-27T09:03:22Z</time>
      </trkpt>
      <trkpt lat="45.29841" lon="6.19231">
        <ele>1521.9</ele>
        <time>2022-01-27T09:03:23Z</time>
      </trkpt>
      <trkpt lat="45.29842" lon="6.19229">
        <ele>1522.1</ele>
        <time>2022-01-27T09:03:25Z</time>
      </trkpt>
      <trkpt lat="45.29843" lon="6.19225">
        <ele>1522.4</ele>
        <time>2022-01-27T09:03:27Z</time>
      </trkpt>
      <trkpt lat="45.29844" lon="6.19224">
        <ele>1522.5</ele>
        <time>2022-01-27T09:03:28Z</time>
      </trkpt>
      <trkpt lat="45.29844" lon="6.19222">
        <ele>1522.6</ele>
        <time>2022-01-27T09:03:29Z</time>
      </trkpt>
      <trkpt lat="45.29845" lon="6.19221">
        <ele>1522.7</ele>
        <time>2022-01-27T09:03:31Z</time>
      </trkpt>
      <trkpt lat="45.29846" lon="6.19218">
        <ele>1523</ele>
        <time>2022-01-27T09:03:32Z</time>
      </trkpt>
      <trkpt lat="45.29847" lon="6.19217">
        <ele>1523.1</ele>
        <time>2022-01-27T09:03:34Z</time>
      </trkpt>
      <trkpt lat="45.29847" lon="6.19216">
        <ele>1523.2</ele>
        <time>2022-01-27T09:03:35Z</time>
      </trkpt>
      <trkpt lat="45.29849" lon="6.19214">
        <ele>1523.4</ele>
        <time>2022-01-27T09:03:36Z</time>
      </trkpt>
      <trkpt lat="45.29849" lon="6.19212">
        <ele>1523.5</ele>
        <time>2022-01-27T09:03:38Z</time>
      </trkpt>
      <trkpt lat="45.2985" lon="6.19212">
        <ele>1523.6</ele>
        <time>2022-01-27T09:03:39Z</time>
      </trkpt>
      <trkpt lat="45.2985" lon="6.1921">
        <ele>1523.7</ele>
        <time>2022-01-27T09:03:40Z</time>
      </trkpt>
      <trkpt lat="45.29851" lon="6.19208">
        <ele>1523.9</ele>
        <time>2022-01-27T09:03:42Z</time>
      </trkpt>
      <trkpt lat="45.29852" lon="6.19207">
        <ele>1524</ele>
        <time>2022-01-27T09:03:43Z</time>
      </trkpt>
      <trkpt lat="45.29853" lon="6.19206">
        <ele>1524.1</ele>
        <time>2022-01-27T09:03:45Z</time>
      </trkpt>
      <trkpt lat="45.29854" lon="6.19205">
        <ele>1524.2</ele>
        <time>2022-01-27T09:03:46Z</time>
      </trkpt>
      <trkpt lat="45.29855" lon="6.19204">
        <ele>1524.3</ele>
        <time>2022-01-27T09:03:47Z</time>
      </trkpt>
      <trkpt lat="45.29856" lon="6.19202">
        <ele>1524.5</ele>
        <time>2022-01-27T09:03:49Z</time>
      </trkpt>
      <trkpt lat="45.29857" lon="6.19201">
        <ele>1524.6</ele>
        <time>2022-01-27T09:03:50Z</time>
      </trkpt>
      <trkpt lat="45.29858" lon="6.19198">
        <ele>1524.8</ele>
        <time>2022-01-27T09:03:52Z</time>
      </trkpt>
      <trkpt lat="45.29859" lon="6.19197">
        <ele>1525</ele>
        <time>2022-01-27T09:03:53Z</time>
      </trkpt>
      <trkpt lat="45.2986" lon="6.19194">
        <ele>1525.2</ele>
        <time>2022-01-27T09:03:55Z</time>
      </trkpt>
      <trkpt lat="45.2986" lon="6.19193">
        <ele>1525.3</ele>
        <time>2022-01-27T09:03:56Z</time>
      </trkpt>
      <trkpt lat="45.29861" lon="6.19192">
        <ele>1525.4</ele>
        <time>2022-01-27T09:03:57Z</time>
      </trkpt>
      <trkpt lat="45.29861" lon="6.19191">
        <ele>1525.5</ele>
        <time>2022-01-27T09:03:59Z</time>
      </trkpt>
      <trkpt lat="45.29862" lon="6.1919">
        <ele>1525.6</ele>
        <time>2022-01-27T09:04:00Z</time>
      </trkpt>
      <trkpt lat="45.29862" lon="6.19188">
        <ele>1525.7</ele>
        <time>2022-01-27T09:04:01Z</time>
      </trkpt>
      <trkpt lat="45.29863" lon="6.19187">
        <ele>1525.8</ele>
        <time>2022-01-27T09:04:02Z</time>
      </trkpt>
      <trkpt lat="45.29863" lon="6.19186">
        <ele>1525.9</ele>
        <time>2022-01-27T09:04:03Z</time>
      </trkpt>
      <trkpt lat="45.29864" lon="6.19185">
        <ele>1526</ele>
        <time>2022-01-27T09:04:04Z</time>
      </trkpt>
      <trkpt lat="45.29865" lon="6.19183">
        <ele>1526.1</ele>
        <time>2022-01-27T09:04:05Z</time>
      </trkpt>
      <trkpt lat="45.29865" lon="6.19181">
        <ele>1526.3</ele>
        <time>2022-01-27T09:04:07Z</time>
      </trkpt>
      <trkpt lat="45.29866" lon="6.19179">
        <ele>1526.5</ele>
        <time>2022-01-27T09:04:08Z</time>
      </trkpt>
      <trkpt lat="45.29867" lon="6.19178">
        <ele>1526.6</ele>
        <time>2022-01-27T09:04:10Z</time>
      </trkpt>
      <trkpt lat="45.29868" lon="6.19176">
        <ele>1526.8</ele>
        <time>2022-01-27T09:04:12Z</time>
      </trkpt>
      <trkpt lat="45.29868" lon="6.19175">
        <ele>1526.8</ele>
        <time>2022-01-27T09:04:13Z</time>
      </trkpt>
      <trkpt lat="45.29868" lon="6.19174">
        <ele>1526.9</ele>
        <time>2022-01-27T09:04:14Z</time>
      </trkpt>
      <trkpt lat="45.29869" lon="6.19171">
        <ele>1527.1</ele>
        <time>2022-01-27T09:04:15Z</time>
      </trkpt>
      <trkpt lat="45.29869" lon="6.19169">
        <ele>1527.3</ele>
        <time>2022-01-27T09:04:17Z</time>
      </trkpt>
      <trkpt lat="45.2987" lon="6.19169">
        <ele>1527.3</ele>
        <time>2022-01-27T09:04:18Z</time>
      </trkpt>
      <trkpt lat="45.2987" lon="6.19168">
        <ele>1527.4</ele>
        <time>2022-01-27T09:04:19Z</time>
      </trkpt>
      <trkpt lat="45.2987" lon="6.19166">
        <ele>1527.5</ele>
        <time>2022-01-27T09:04:20Z</time>
      </trkpt>
      <trkpt lat="45.29871" lon="6.19165">
        <ele>1527.6</ele>
        <time>2022-01-27T09:04:21Z</time>
      </trkpt>
      <trkpt lat="45.29872" lon="6.19163">
        <ele>1527.7</ele>
        <time>2022-01-27T09:04:22Z</time>
      </trkpt>
      <trkpt lat="45.29872" lon="6.19161">
        <ele>1527.9</ele>
        <time>2022-01-27T09:04:23Z</time>
      </trkpt>
      <trkpt lat="45.29873" lon="6.1916">
        <ele>1528</ele>
        <time>2022-01-27T09:04:24Z</time>
      </trkpt>
      <trkpt lat="45.29873" lon="6.19159">
        <ele>1528.1</ele>
        <time>2022-01-27T09:04:25Z</time>
      </trkpt>
      <trkpt lat="45.29873" lon="6.19158">
        <ele>1528.2</ele>
        <time>2022-01-27T09:04:26Z</time>
      </trkpt>
      <trkpt lat="45.29873" lon="6.19157">
        <ele>1528.3</ele>
        <time>2022-01-27T09:04:28Z</time>
      </trkpt>
      <trkpt lat="45.29874" lon="6.19156">
        <ele>1528.3</ele>
        <time>2022-01-27T09:04:29Z</time>
      </trkpt>
      <trkpt lat="45.29874" lon="6.19155">
        <ele>1528.4</ele>
        <time>2022-01-27T09:04:30Z</time>
      </trkpt>
      <trkpt lat="45.29875" lon="6.19152">
        <ele>1528.6</ele>
        <time>2022-01-27T09:04:32Z</time>
      </trkpt>
      <trkpt lat="45.29875" lon="6.19151">
        <ele>1528.7</ele>
        <time>2022-01-27T09:04:33Z</time>
      </trkpt>
      <trkpt lat="45.29875" lon="6.1915">
        <ele>1528.8</ele>
        <time>2022-01-27T09:04:34Z</time>
      </trkpt>
      <trkpt lat="45.29876" lon="6.19148">
        <ele>1528.9</ele>
        <time>2022-01-27T09:04:35Z</time>
      </trkpt>
      <trkpt lat="45.29876" lon="6.19146">
        <ele>1529.1</ele>
        <time>2022-01-27T09:04:37Z</time>
      </trkpt>
      <trkpt lat="45.29877" lon="6.19145">
        <ele>1529.2</ele>
        <time>2022-01-27T09:04:38Z</time>
      </trkpt>
      <trkpt lat="45.29878" lon="6.19144">
        <ele>1529.3</ele>
        <time>2022-01-27T09:04:40Z</time>
      </trkpt>
      <trkpt lat="45.29878" lon="6.19143">
        <ele>1529.4</ele>
        <time>2022-01-27T09:04:41Z</time>
      </trkpt>
      <trkpt lat="45.29879" lon="6.19141">
        <ele>1529.6</ele>
        <time>2022-01-27T09:04:42Z</time>
      </trkpt>
      <trkpt lat="45.2988" lon="6.1914">
        <ele>1529.7</ele>
        <time>2022-01-27T09:04:43Z</time>
      </trkpt>
      <trkpt lat="45.29881" lon="6.19138">
        <ele>1529.9</ele>
        <time>2022-01-27T09:04:44Z</time>
      </trkpt>
      <trkpt lat="45.29882" lon="6.19137">
        <ele>1530</ele>
        <time>2022-01-27T09:04:45Z</time>
      </trkpt>
      <trkpt lat="45.29882" lon="6.19136">
        <ele>1530.1</ele>
        <time>2022-01-27T09:04:46Z</time>
      </trkpt>
      <trkpt lat="45.29884" lon="6.19132">
        <ele>1530.3</ele>
        <time>2022-01-27T09:04:47Z</time>
      </trkpt>
      <trkpt lat="45.29884" lon="6.19131">
        <ele>1530.5</ele>
        <time>2022-01-27T09:04:48Z</time>
      </trkpt>
      <trkpt lat="45.29885" lon="6.19129">
        <ele>1530.6</ele>
        <time>2022-01-27T09:04:49Z</time>
      </trkpt>
      <trkpt lat="45.29886" lon="6.19126">
        <ele>1530.9</ele>
        <time>2022-01-27T09:04:51Z</time>
      </trkpt>
      <trkpt lat="45.29888" lon="6.19121">
        <ele>1531.2</ele>
        <time>2022-01-27T09:04:52Z</time>
      </trkpt>
      <trkpt lat="45.29888" lon="6.19119">
        <ele>1531.4</ele>
        <time>2022-01-27T09:04:54Z</time>
      </trkpt>
      <trkpt lat="45.29889" lon="6.19118">
        <ele>1531.5</ele>
        <time>2022-01-27T09:04:55Z</time>
      </trkpt>
      <trkpt lat="45.29889" lon="6.19117">
        <ele>1531.6</ele>
        <time>2022-01-27T09:04:56Z</time>
      </trkpt>
      <trkpt lat="45.2989" lon="6.19115">
        <ele>1531.7</ele>
        <time>2022-01-27T09:04:57Z</time>
      </trkpt>
      <trkpt lat="45.2989" lon="6.19114">
        <ele>1531.8</ele>
        <time>2022-01-27T09:05:00Z</time>
      </trkpt>
      <trkpt lat="45.29891" lon="6.19113">
        <ele>1531.9</ele>
        <time>2022-01-27T09:05:02Z</time>
      </trkpt>
      <trkpt lat="45.29891" lon="6.19112">
        <ele>1532</ele>
        <time>2022-01-27T09:05:03Z</time>
      </trkpt>
      <trkpt lat="45.29892" lon="6.19111">
        <ele>1532.1</ele>
        <time>2022-01-27T09:05:04Z</time>
      </trkpt>
      <trkpt lat="45.29892" lon="6.1911">
        <ele>1532.2</ele>
        <time>2022-01-27T09:05:07Z</time>
      </trkpt>
      <trkpt lat="45.29893" lon="6.1911">
        <ele>1532.3</ele>
        <time>2022-01-27T09:05:11Z</time>
      </trkpt>
      <trkpt lat="45.29893" lon="6.19109">
        <ele>1532.3</ele>
        <time>2022-01-27T09:05:12Z</time>
      </trkpt>
      <trkpt lat="45.29893" lon="6.19108">
        <ele>1532.4</ele>
        <time>2022-01-27T09:05:14Z</time>
      </trkpt>
      <trkpt lat="45.29894" lon="6.19108">
        <ele>1532.5</ele>
        <time>2022-01-27T09:05:15Z</time>
      </trkpt>
      <trkpt lat="45.29894" lon="6.19107">
        <ele>1532.6</ele>
        <time>2022-01-27T09:05:16Z</time>
      </trkpt>
      <trkpt lat="45.29895" lon="6.19106">
        <ele>1532.6</ele>
        <time>2022-01-27T09:05:17Z</time>
      </trkpt>
      <trkpt lat="45.29897" lon="6.19103">
        <ele>1532.9</ele>
        <time>2022-01-27T09:05:23Z</time>
      </trkpt>
      <trkpt lat="45.29897" lon="6.19102">
        <ele>1533</ele>
        <time>2022-01-27T09:05:24Z</time>
      </trkpt>
      <trkpt lat="45.29898" lon="6.19102">
        <ele>1533.1</ele>
        <time>2022-01-27T09:05:26Z</time>
      </trkpt>
      <trkpt lat="45.29899" lon="6.19101">
        <ele>1533.3</ele>
        <time>2022-01-27T09:05:27Z</time>
      </trkpt>
      <trkpt lat="45.299" lon="6.191">
        <ele>1533.3</ele>
        <time>2022-01-27T09:05:28Z</time>
      </trkpt>
      <trkpt lat="45.29901" lon="6.19099">
        <ele>1533.4</ele>
        <time>2022-01-27T09:05:29Z</time>
      </trkpt>
      <trkpt lat="45.29901" lon="6.19098">
        <ele>1533.5</ele>
        <time>2022-01-27T09:05:30Z</time>
      </trkpt>
      <trkpt lat="45.29903" lon="6.19096">
        <ele>1533.7</ele>
        <time>2022-01-27T09:05:31Z</time>
      </trkpt>
      <trkpt lat="45.29903" lon="6.19095">
        <ele>1533.8</ele>
        <time>2022-01-27T09:05:32Z</time>
      </trkpt>
      <trkpt lat="45.29904" lon="6.19094">
        <ele>1533.9</ele>
        <time>2022-01-27T09:05:33Z</time>
      </trkpt>
      <trkpt lat="45.29905" lon="6.19092">
        <ele>1534.1</ele>
        <time>2022-01-27T09:05:34Z</time>
      </trkpt>
      <trkpt lat="45.29907" lon="6.1909">
        <ele>1534.4</ele>
        <time>2022-01-27T09:05:36Z</time>
      </trkpt>
      <trkpt lat="45.29908" lon="6.19089">
        <ele>1534.5</ele>
        <time>2022-01-27T09:05:37Z</time>
      </trkpt>
      <trkpt lat="45.29909" lon="6.19086">
        <ele>1534.7</ele>
        <time>2022-01-27T09:05:38Z</time>
      </trkpt>
      <trkpt lat="45.2991" lon="6.19083">
        <ele>1534.9</ele>
        <time>2022-01-27T09:05:40Z</time>
      </trkpt>
      <trkpt lat="45.29911" lon="6.19082">
        <ele>1535</ele>
        <time>2022-01-27T09:05:41Z</time>
      </trkpt>
      <trkpt lat="45.29911" lon="6.19081">
        <ele>1535.1</ele>
        <time>2022-01-27T09:05:42Z</time>
      </trkpt>
      <trkpt lat="45.29912" lon="6.19078">
        <ele>1535.4</ele>
        <time>2022-01-27T09:05:44Z</time>
      </trkpt>
      <trkpt lat="45.29913" lon="6.19077">
        <ele>1535.5</ele>
        <time>2022-01-27T09:05:45Z</time>
      </trkpt>
      <trkpt lat="45.29913" lon="6.19075">
        <ele>1535.6</ele>
        <time>2022-01-27T09:05:46Z</time>
      </trkpt>
      <trkpt lat="45.29915" lon="6.19072">
        <ele>1535.8</ele>
        <time>2022-01-27T09:05:48Z</time>
      </trkpt>
      <trkpt lat="45.29915" lon="6.19071">
        <ele>1536</ele>
        <time>2022-01-27T09:05:49Z</time>
      </trkpt>
      <trkpt lat="45.29916" lon="6.1907">
        <ele>1536.1</ele>
        <time>2022-01-27T09:05:50Z</time>
      </trkpt>
      <trkpt lat="45.29917" lon="6.19069">
        <ele>1536.2</ele>
        <time>2022-01-27T09:05:52Z</time>
      </trkpt>
      <trkpt lat="45.29918" lon="6.19067">
        <ele>1536.3</ele>
        <time>2022-01-27T09:05:53Z</time>
      </trkpt>
      <trkpt lat="45.29919" lon="6.19066">
        <ele>1536.5</ele>
        <time>2022-01-27T09:05:54Z</time>
      </trkpt>
      <trkpt lat="45.29919" lon="6.19064">
        <ele>1536.7</ele>
        <time>2022-01-27T09:05:56Z</time>
      </trkpt>
      <trkpt lat="45.29921" lon="6.19061">
        <ele>1536.9</ele>
        <time>2022-01-27T09:05:57Z</time>
      </trkpt>
      <trkpt lat="45.29921" lon="6.1906">
        <ele>1537</ele>
        <time>2022-01-27T09:05:59Z</time>
      </trkpt>
      <trkpt lat="45.29921" lon="6.19059">
        <ele>1537</ele>
        <time>2022-01-27T09:06:00Z</time>
      </trkpt>
      <trkpt lat="45.29922" lon="6.19057">
        <ele>1537.2</ele>
        <time>2022-01-27T09:06:01Z</time>
      </trkpt>
      <trkpt lat="45.29922" lon="6.19056">
        <ele>1537.3</ele>
        <time>2022-01-27T09:06:03Z</time>
      </trkpt>
      <trkpt lat="45.29923" lon="6.19055">
        <ele>1537.4</ele>
        <time>2022-01-27T09:06:04Z</time>
      </trkpt>
      <trkpt lat="45.29924" lon="6.19053">
        <ele>1537.6</ele>
        <time>2022-01-27T09:06:05Z</time>
      </trkpt>
      <trkpt lat="45.29925" lon="6.19051">
        <ele>1537.7</ele>
        <time>2022-01-27T09:06:07Z</time>
      </trkpt>
      <trkpt lat="45.29926" lon="6.19049">
        <ele>1537.9</ele>
        <time>2022-01-27T09:06:08Z</time>
      </trkpt>
      <trkpt lat="45.29927" lon="6.19047">
        <ele>1538.1</ele>
        <time>2022-01-27T09:06:10Z</time>
      </trkpt>
      <trkpt lat="45.29928" lon="6.19046">
        <ele>1538.3</ele>
        <time>2022-01-27T09:06:11Z</time>
      </trkpt>
      <trkpt lat="45.29929" lon="6.19044">
        <ele>1538.4</ele>
        <time>2022-01-27T09:06:13Z</time>
      </trkpt>
      <trkpt lat="45.2993" lon="6.19043">
        <ele>1538.5</ele>
        <time>2022-01-27T09:06:14Z</time>
      </trkpt>
      <trkpt lat="45.29931" lon="6.19042">
        <ele>1538.6</ele>
        <time>2022-01-27T09:06:15Z</time>
      </trkpt>
      <trkpt lat="45.29932" lon="6.19041">
        <ele>1538.8</ele>
        <time>2022-01-27T09:06:16Z</time>
      </trkpt>
      <trkpt lat="45.29932" lon="6.1904">
        <ele>1538.9</ele>
        <time>2022-01-27T09:06:17Z</time>
      </trkpt>
      <trkpt lat="45.29933" lon="6.19038">
        <ele>1539</ele>
        <time>2022-01-27T09:06:18Z</time>
      </trkpt>
      <trkpt lat="45.29935" lon="6.19036">
        <ele>1539.2</ele>
        <time>2022-01-27T09:06:20Z</time>
      </trkpt>
      <trkpt lat="45.29936" lon="6.19035">
        <ele>1539.4</ele>
        <time>2022-01-27T09:06:22Z</time>
      </trkpt>
      <trkpt lat="45.29937" lon="6.19034">
        <ele>1539.5</ele>
        <time>2022-01-27T09:06:23Z</time>
      </trkpt>
      <trkpt lat="45.29937" lon="6.19033">
        <ele>1539.6</ele>
        <time>2022-01-27T09:06:24Z</time>
      </trkpt>
      <trkpt lat="45.29938" lon="6.19032">
        <ele>1539.7</ele>
        <time>2022-01-27T09:06:25Z</time>
      </trkpt>
      <trkpt lat="45.29939" lon="6.1903">
        <ele>1539.8</ele>
        <time>2022-01-27T09:06:26Z</time>
      </trkpt>
      <trkpt lat="45.2994" lon="6.19029">
        <ele>1539.9</ele>
        <time>2022-01-27T09:06:27Z</time>
      </trkpt>
      <trkpt lat="45.29941" lon="6.19028">
        <ele>1540</ele>
        <time>2022-01-27T09:06:28Z</time>
      </trkpt>
      <trkpt lat="45.29942" lon="6.19027">
        <ele>1540.2</ele>
        <time>2022-01-27T09:06:29Z</time>
      </trkpt>
      <trkpt lat="45.29942" lon="6.19026">
        <ele>1540.3</ele>
        <time>2022-01-27T09:06:30Z</time>
      </trkpt>
      <trkpt lat="45.29942" lon="6.19025">
        <ele>1540.4</ele>
        <time>2022-01-27T09:06:31Z</time>
      </trkpt>
      <trkpt lat="45.29943" lon="6.19024">
        <ele>1540.4</ele>
        <time>2022-01-27T09:06:32Z</time>
      </trkpt>
      <trkpt lat="45.29943" lon="6.19023">
        <ele>1540.6</ele>
        <time>2022-01-27T09:06:33Z</time>
      </trkpt>
      <trkpt lat="45.29944" lon="6.1902">
        <ele>1540.7</ele>
        <time>2022-01-27T09:06:34Z</time>
      </trkpt>
      <trkpt lat="45.29945" lon="6.1902">
        <ele>1540.8</ele>
        <time>2022-01-27T09:06:35Z</time>
      </trkpt>
      <trkpt lat="45.29945" lon="6.19019">
        <ele>1540.9</ele>
        <time>2022-01-27T09:06:36Z</time>
      </trkpt>
      <trkpt lat="45.29946" lon="6.19018">
        <ele>1541</ele>
        <time>2022-01-27T09:06:37Z</time>
      </trkpt>
      <trkpt lat="45.29946" lon="6.19017">
        <ele>1541.1</ele>
        <time>2022-01-27T09:06:38Z</time>
      </trkpt>
      <trkpt lat="45.29946" lon="6.19016">
        <ele>1541.1</ele>
        <time>2022-01-27T09:06:39Z</time>
      </trkpt>
      <trkpt lat="45.29947" lon="6.19015">
        <ele>1541.2</ele>
        <time>2022-01-27T09:06:40Z</time>
      </trkpt>
      <trkpt lat="45.29948" lon="6.19014">
        <ele>1541.3</ele>
        <time>2022-01-27T09:06:41Z</time>
      </trkpt>
      <trkpt lat="45.29948" lon="6.19013">
        <ele>1541.4</ele>
        <time>2022-01-27T09:06:43Z</time>
      </trkpt>
      <trkpt lat="45.29949" lon="6.19012">
        <ele>1541.5</ele>
        <time>2022-01-27T09:06:44Z</time>
      </trkpt>
      <trkpt lat="45.29949" lon="6.19011">
        <ele>1541.6</ele>
        <time>2022-01-27T09:06:46Z</time>
      </trkpt>
      <trkpt lat="45.29949" lon="6.1901">
        <ele>1541.7</ele>
        <time>2022-01-27T09:06:48Z</time>
      </trkpt>
      <trkpt lat="45.29949" lon="6.19009">
        <ele>1541.7</ele>
        <time>2022-01-27T09:06:49Z</time>
      </trkpt>
      <trkpt lat="45.2995" lon="6.19008">
        <ele>1541.8</ele>
        <time>2022-01-27T09:06:50Z</time>
      </trkpt>
      <trkpt lat="45.29949" lon="6.19004">
        <ele>1542.2</ele>
        <time>2022-01-27T09:06:59Z</time>
      </trkpt>
      <trkpt lat="45.29948" lon="6.19004">
        <ele>1542.2</ele>
        <time>2022-01-27T09:07:00Z</time>
      </trkpt>
      <trkpt lat="45.29948" lon="6.19003">
        <ele>1542.3</ele>
        <time>2022-01-27T09:07:01Z</time>
      </trkpt>
      <trkpt lat="45.29948" lon="6.19002">
        <ele>1542.3</ele>
        <time>2022-01-27T09:07:02Z</time>
      </trkpt>
      <trkpt lat="45.29949" lon="6.19001">
        <ele>1542.4</ele>
        <time>2022-01-27T09:07:04Z</time>
      </trkpt>
      <trkpt lat="45.29949" lon="6.18999">
        <ele>1542.5</ele>
        <time>2022-01-27T09:07:06Z</time>
      </trkpt>
      <trkpt lat="45.2995" lon="6.18998">
        <ele>1542.7</ele>
        <time>2022-01-27T09:07:07Z</time>
      </trkpt>
      <trkpt lat="45.29951" lon="6.18996">
        <ele>1542.8</ele>
        <time>2022-01-27T09:07:08Z</time>
      </trkpt>
      <trkpt lat="45.29951" lon="6.18995">
        <ele>1542.9</ele>
        <time>2022-01-27T09:07:09Z</time>
      </trkpt>
      <trkpt lat="45.29951" lon="6.18994">
        <ele>1543</ele>
        <time>2022-01-27T09:07:10Z</time>
      </trkpt>
      <trkpt lat="45.29952" lon="6.18992">
        <ele>1543.1</ele>
        <time>2022-01-27T09:07:11Z</time>
      </trkpt>
      <trkpt lat="45.29953" lon="6.18991">
        <ele>1543.3</ele>
        <time>2022-01-27T09:07:13Z</time>
      </trkpt>
      <trkpt lat="45.29953" lon="6.18989">
        <ele>1543.4</ele>
        <time>2022-01-27T09:07:14Z</time>
      </trkpt>
      <trkpt lat="45.29954" lon="6.18988">
        <ele>1543.5</ele>
        <time>2022-01-27T09:07:15Z</time>
      </trkpt>
      <trkpt lat="45.29955" lon="6.18986">
        <ele>1543.7</ele>
        <time>2022-01-27T09:07:17Z</time>
      </trkpt>
      <trkpt lat="45.29956" lon="6.18982">
        <ele>1543.9</ele>
        <time>2022-01-27T09:07:18Z</time>
      </trkpt>
      <trkpt lat="45.29957" lon="6.18981">
        <ele>1544.1</ele>
        <time>2022-01-27T09:07:19Z</time>
      </trkpt>
      <trkpt lat="45.29957" lon="6.18979">
        <ele>1544.3</ele>
        <time>2022-01-27T09:07:21Z</time>
      </trkpt>
      <trkpt lat="45.29958" lon="6.18977">
        <ele>1544.4</ele>
        <time>2022-01-27T09:07:23Z</time>
      </trkpt>
      <trkpt lat="45.29959" lon="6.18975">
        <ele>1544.6</ele>
        <time>2022-01-27T09:07:24Z</time>
      </trkpt>
      <trkpt lat="45.2996" lon="6.18973">
        <ele>1544.7</ele>
        <time>2022-01-27T09:07:26Z</time>
      </trkpt>
      <trkpt lat="45.29961" lon="6.18971">
        <ele>1544.9</ele>
        <time>2022-01-27T09:07:37Z</time>
      </trkpt>
      <trkpt lat="45.29962" lon="6.18969">
        <ele>1545.1</ele>
        <time>2022-01-27T09:07:38Z</time>
      </trkpt>
      <trkpt lat="45.29963" lon="6.18967">
        <ele>1545.2</ele>
        <time>2022-01-27T09:07:40Z</time>
      </trkpt>
      <trkpt lat="45.29963" lon="6.18965">
        <ele>1545.4</ele>
        <time>2022-01-27T09:07:41Z</time>
      </trkpt>
      <trkpt lat="45.29965" lon="6.18964">
        <ele>1545.6</ele>
        <time>2022-01-27T09:07:42Z</time>
      </trkpt>
      <trkpt lat="45.29966" lon="6.18963">
        <ele>1545.7</ele>
        <time>2022-01-27T09:07:43Z</time>
      </trkpt>
      <trkpt lat="45.29967" lon="6.18962">
        <ele>1545.8</ele>
        <time>2022-01-27T09:07:44Z</time>
      </trkpt>
      <trkpt lat="45.29968" lon="6.18961">
        <ele>1546</ele>
        <time>2022-01-27T09:07:45Z</time>
      </trkpt>
      <trkpt lat="45.2997" lon="6.18958">
        <ele>1546.3</ele>
        <time>2022-01-27T09:07:46Z</time>
      </trkpt>
      <trkpt lat="45.29972" lon="6.18957">
        <ele>1546.4</ele>
        <time>2022-01-27T09:07:48Z</time>
      </trkpt>
      <trkpt lat="45.29973" lon="6.18956">
        <ele>1546.5</ele>
        <time>2022-01-27T09:07:49Z</time>
      </trkpt>
      <trkpt lat="45.29973" lon="6.18955">
        <ele>1546.6</ele>
        <time>2022-01-27T09:07:50Z</time>
      </trkpt>
      <trkpt lat="45.29975" lon="6.18952">
        <ele>1546.9</ele>
        <time>2022-01-27T09:07:51Z</time>
      </trkpt>
      <trkpt lat="45.29975" lon="6.1895">
        <ele>1547</ele>
        <time>2022-01-27T09:07:53Z</time>
      </trkpt>
      <trkpt lat="45.29975" lon="6.18949">
        <ele>1547.1</ele>
        <time>2022-01-27T09:07:54Z</time>
      </trkpt>
      <trkpt lat="45.29976" lon="6.18948">
        <ele>1547.2</ele>
        <time>2022-01-27T09:07:55Z</time>
      </trkpt>
      <trkpt lat="45.29976" lon="6.18947">
        <ele>1547.3</ele>
        <time>2022-01-27T09:07:56Z</time>
      </trkpt>
      <trkpt lat="45.29977" lon="6.18945">
        <ele>1547.4</ele>
        <time>2022-01-27T09:07:57Z</time>
      </trkpt>
      <trkpt lat="45.29977" lon="6.18944">
        <ele>1547.5</ele>
        <time>2022-01-27T09:07:58Z</time>
      </trkpt>
      <trkpt lat="45.29978" lon="6.18943">
        <ele>1547.6</ele>
        <time>2022-01-27T09:08:00Z</time>
      </trkpt>
      <trkpt lat="45.29979" lon="6.1894">
        <ele>1547.8</ele>
        <time>2022-01-27T09:08:01Z</time>
      </trkpt>
      <trkpt lat="45.29979" lon="6.18939">
        <ele>1547.9</ele>
        <time>2022-01-27T09:08:03Z</time>
      </trkpt>
      <trkpt lat="45.29979" lon="6.18938">
        <ele>1548</ele>
        <time>2022-01-27T09:08:04Z</time>
      </trkpt>
      <trkpt lat="45.2998" lon="6.18937">
        <ele>1548.1</ele>
        <time>2022-01-27T09:08:05Z</time>
      </trkpt>
      <trkpt lat="45.29981" lon="6.18935">
        <ele>1548.2</ele>
        <time>2022-01-27T09:08:07Z</time>
      </trkpt>
      <trkpt lat="45.29982" lon="6.18933">
        <ele>1547.9</ele>
        <time>2022-01-27T09:08:10Z</time>
      </trkpt>
      <trkpt lat="45.29983" lon="6.18932">
        <ele>1547.9</ele>
        <time>2022-01-27T09:08:11Z</time>
      </trkpt>
      <trkpt lat="45.29983" lon="6.18931">
        <ele>1549.6</ele>
        <time>2022-01-27T09:08:12Z</time>
      </trkpt>
      <trkpt lat="45.29984" lon="6.1893">
        <ele>1549.6</ele>
        <time>2022-01-27T09:08:13Z</time>
      </trkpt>
      <trkpt lat="45.29985" lon="6.1893">
        <ele>1549.6</ele>
        <time>2022-01-27T09:08:15Z</time>
      </trkpt>
      <trkpt lat="45.29985" lon="6.18929">
        <ele>1549.4</ele>
        <time>2022-01-27T09:08:16Z</time>
      </trkpt>
      <trkpt lat="45.29986" lon="6.18929">
        <ele>1551</ele>
        <time>2022-01-27T09:08:17Z</time>
      </trkpt>
      <trkpt lat="45.29986" lon="6.18928">
        <ele>1551</ele>
        <time>2022-01-27T09:08:18Z</time>
      </trkpt>
      <trkpt lat="45.29987" lon="6.18928">
        <ele>1551</ele>
        <time>2022-01-27T09:08:19Z</time>
      </trkpt>
      <trkpt lat="45.29988" lon="6.18927">
        <ele>1551</ele>
        <time>2022-01-27T09:08:21Z</time>
      </trkpt>
      <trkpt lat="45.29989" lon="6.18927">
        <ele>1552.7</ele>
        <time>2022-01-27T09:08:22Z</time>
      </trkpt>
      <trkpt lat="45.2999" lon="6.18926">
        <ele>1552.7</ele>
        <time>2022-01-27T09:08:24Z</time>
      </trkpt>
      <trkpt lat="45.29991" lon="6.18926">
        <ele>1552.7</ele>
        <time>2022-01-27T09:08:26Z</time>
      </trkpt>
      <trkpt lat="45.29992" lon="6.18925">
        <ele>1552.7</ele>
        <time>2022-01-27T09:08:27Z</time>
      </trkpt>
      <trkpt lat="45.29993" lon="6.18924">
        <ele>1554.2</ele>
        <time>2022-01-27T09:08:31Z</time>
      </trkpt>
      <trkpt lat="45.29994" lon="6.18923">
        <ele>1554.2</ele>
        <time>2022-01-27T09:08:33Z</time>
      </trkpt>
      <trkpt lat="45.29994" lon="6.18922">
        <ele>1554.2</ele>
        <time>2022-01-27T09:08:35Z</time>
      </trkpt>
      <trkpt lat="45.29995" lon="6.18922">
        <ele>1554.2</ele>
        <time>2022-01-27T09:08:36Z</time>
      </trkpt>
      <trkpt lat="45.29995" lon="6.18921">
        <ele>1556.1</ele>
        <time>2022-01-27T09:08:37Z</time>
      </trkpt>
      <trkpt lat="45.29996" lon="6.1892">
        <ele>1555.8</ele>
        <time>2022-01-27T09:08:39Z</time>
      </trkpt>
      <trkpt lat="45.29996" lon="6.18919">
        <ele>1555.9</ele>
        <time>2022-01-27T09:08:40Z</time>
      </trkpt>
      <trkpt lat="45.29996" lon="6.18918">
        <ele>1555.9</ele>
        <time>2022-01-27T09:08:41Z</time>
      </trkpt>
      <trkpt lat="45.29996" lon="6.18917">
        <ele>1555.9</ele>
        <time>2022-01-27T09:08:42Z</time>
      </trkpt>
      <trkpt lat="45.29996" lon="6.18916">
        <ele>1555.6</ele>
        <time>2022-01-27T09:08:44Z</time>
      </trkpt>
      <trkpt lat="45.29996" lon="6.18915">
        <ele>1555.6</ele>
        <time>2022-01-27T09:08:45Z</time>
      </trkpt>
      <trkpt lat="45.29996" lon="6.18914">
        <ele>1555.7</ele>
        <time>2022-01-27T09:08:46Z</time>
      </trkpt>
      <trkpt lat="45.29996" lon="6.18913">
        <ele>1555.7</ele>
        <time>2022-01-27T09:08:47Z</time>
      </trkpt>
      <trkpt lat="45.29995" lon="6.18912">
        <ele>1555.5</ele>
        <time>2022-01-27T09:08:48Z</time>
      </trkpt>
      <trkpt lat="45.29995" lon="6.18911">
        <ele>1555.5</ele>
        <time>2022-01-27T09:08:49Z</time>
      </trkpt>
      <trkpt lat="45.29995" lon="6.1891">
        <ele>1555.5</ele>
        <time>2022-01-27T09:08:50Z</time>
      </trkpt>
      <trkpt lat="45.29994" lon="6.18908">
        <ele>1553.7</ele>
        <time>2022-01-27T09:08:52Z</time>
      </trkpt>
      <trkpt lat="45.29994" lon="6.18907">
        <ele>1553.6</ele>
        <time>2022-01-27T09:08:53Z</time>
      </trkpt>
      <trkpt lat="45.29994" lon="6.18906">
        <ele>1553.6</ele>
        <time>2022-01-27T09:08:54Z</time>
      </trkpt>
      <trkpt lat="45.29994" lon="6.18905">
        <ele>1553.7</ele>
        <time>2022-01-27T09:08:55Z</time>
      </trkpt>
      <trkpt lat="45.29994" lon="6.18904">
        <ele>1553.7</ele>
        <time>2022-01-27T09:08:56Z</time>
      </trkpt>
      <trkpt lat="45.29994" lon="6.18902">
        <ele>1553.6</ele>
        <time>2022-01-27T09:08:57Z</time>
      </trkpt>
      <trkpt lat="45.29993" lon="6.18902">
        <ele>1553.6</ele>
        <time>2022-01-27T09:08:58Z</time>
      </trkpt>
      <trkpt lat="45.29993" lon="6.18901">
        <ele>1553.6</ele>
        <time>2022-01-27T09:08:59Z</time>
      </trkpt>
      <trkpt lat="45.29993" lon="6.189">
        <ele>1553.6</ele>
        <time>2022-01-27T09:09:00Z</time>
      </trkpt>
      <trkpt lat="45.29993" lon="6.18899">
        <ele>1553.6</ele>
        <time>2022-01-27T09:09:01Z</time>
      </trkpt>
      <trkpt lat="45.29994" lon="6.18898">
        <ele>1553.6</ele>
        <time>2022-01-27T09:09:02Z</time>
      </trkpt>
      <trkpt lat="45.29994" lon="6.18897">
        <ele>1553.6</ele>
        <time>2022-01-27T09:09:03Z</time>
      </trkpt>
      <trkpt lat="45.29994" lon="6.18896">
        <ele>1553.6</ele>
        <time>2022-01-27T09:09:04Z</time>
      </trkpt>
      <trkpt lat="45.29994" lon="6.18895">
        <ele>1553.6</ele>
        <time>2022-01-27T09:09:05Z</time>
      </trkpt>
      <trkpt lat="45.29994" lon="6.18894">
        <ele>1553.7</ele>
        <time>2022-01-27T09:09:07Z</time>
      </trkpt>
      <trkpt lat="45.29995" lon="6.18893">
        <ele>1553.7</ele>
        <time>2022-01-27T09:09:08Z</time>
      </trkpt>
      <trkpt lat="45.29995" lon="6.18892">
        <ele>1555.4</ele>
        <time>2022-01-27T09:09:09Z</time>
      </trkpt>
      <trkpt lat="45.29995" lon="6.18891">
        <ele>1555.4</ele>
        <time>2022-01-27T09:09:11Z</time>
      </trkpt>
      <trkpt lat="45.29994" lon="6.18891">
        <ele>1553.8</ele>
        <time>2022-01-27T09:09:14Z</time>
      </trkpt>
      <trkpt lat="45.29994" lon="6.1889">
        <ele>1554</ele>
        <time>2022-01-27T09:09:22Z</time>
      </trkpt>
      <trkpt lat="45.29994" lon="6.18889">
        <ele>1554</ele>
        <time>2022-01-27T09:09:23Z</time>
      </trkpt>
      <trkpt lat="45.29994" lon="6.18888">
        <ele>1554</ele>
        <time>2022-01-27T09:09:24Z</time>
      </trkpt>
      <trkpt lat="45.29994" lon="6.18887">
        <ele>1554</ele>
        <time>2022-01-27T09:09:26Z</time>
      </trkpt>
      <trkpt lat="45.29995" lon="6.18886">
        <ele>1555.7</ele>
        <time>2022-01-27T09:09:27Z</time>
      </trkpt>
      <trkpt lat="45.29995" lon="6.18885">
        <ele>1555.8</ele>
        <time>2022-01-27T09:09:28Z</time>
      </trkpt>
      <trkpt lat="45.29995" lon="6.18884">
        <ele>1555.8</ele>
        <time>2022-01-27T09:09:29Z</time>
      </trkpt>
      <trkpt lat="45.29996" lon="6.18883">
        <ele>1555.8</ele>
        <time>2022-01-27T09:09:30Z</time>
      </trkpt>
      <trkpt lat="45.29997" lon="6.18882">
        <ele>1555.8</ele>
        <time>2022-01-27T09:09:31Z</time>
      </trkpt>
      <trkpt lat="45.29997" lon="6.1888">
        <ele>1555.9</ele>
        <time>2022-01-27T09:09:32Z</time>
      </trkpt>
      <trkpt lat="45.29998" lon="6.18879">
        <ele>1557.6</ele>
        <time>2022-01-27T09:09:33Z</time>
      </trkpt>
      <trkpt lat="45.29999" lon="6.18878">
        <ele>1557.6</ele>
        <time>2022-01-27T09:09:34Z</time>
      </trkpt>
      <trkpt lat="45.3" lon="6.18877">
        <ele>1557.7</ele>
        <time>2022-01-27T09:09:36Z</time>
      </trkpt>
      <trkpt lat="45.30001" lon="6.18876">
        <ele>1559.6</ele>
        <time>2022-01-27T09:09:37Z</time>
      </trkpt>
      <trkpt lat="45.30002" lon="6.18876">
        <ele>1559.6</ele>
        <time>2022-01-27T09:09:38Z</time>
      </trkpt>
      <trkpt lat="45.30003" lon="6.18876">
        <ele>1559.6</ele>
        <time>2022-01-27T09:09:40Z</time>
      </trkpt>
      <trkpt lat="45.30004" lon="6.18875">
        <ele>1561.6</ele>
        <time>2022-01-27T09:09:42Z</time>
      </trkpt>
      <trkpt lat="45.30005" lon="6.18875">
        <ele>1561.6</ele>
        <time>2022-01-27T09:09:43Z</time>
      </trkpt>
      <trkpt lat="45.30006" lon="6.18874">
        <ele>1561.6</ele>
        <time>2022-01-27T09:09:45Z</time>
      </trkpt>
      <trkpt lat="45.30007" lon="6.18872">
        <ele>1563.6</ele>
        <time>2022-01-27T09:09:47Z</time>
      </trkpt>
      <trkpt lat="45.30008" lon="6.1887">
        <ele>1563.6</ele>
        <time>2022-01-27T09:09:49Z</time>
      </trkpt>
      <trkpt lat="45.30008" lon="6.18869">
        <ele>1563.7</ele>
        <time>2022-01-27T09:09:51Z</time>
      </trkpt>
      <trkpt lat="45.30008" lon="6.18868">
        <ele>1563.7</ele>
        <time>2022-01-27T09:09:52Z</time>
      </trkpt>
      <trkpt lat="45.30009" lon="6.18867">
        <ele>1563.7</ele>
        <time>2022-01-27T09:09:53Z</time>
      </trkpt>
      <trkpt lat="45.30009" lon="6.18866">
        <ele>1563.7</ele>
        <time>2022-01-27T09:09:54Z</time>
      </trkpt>
      <trkpt lat="45.3001" lon="6.18865">
        <ele>1563.9</ele>
        <time>2022-01-27T09:09:56Z</time>
      </trkpt>
      <trkpt lat="45.3001" lon="6.18863">
        <ele>1565.8</ele>
        <time>2022-01-27T09:09:57Z</time>
      </trkpt>
      <trkpt lat="45.30011" lon="6.18862">
        <ele>1565.9</ele>
        <time>2022-01-27T09:09:59Z</time>
      </trkpt>
      <trkpt lat="45.30011" lon="6.18861">
        <ele>1565.9</ele>
        <time>2022-01-27T09:10:00Z</time>
      </trkpt>
      <trkpt lat="45.30011" lon="6.1886">
        <ele>1566.1</ele>
        <time>2022-01-27T09:10:01Z</time>
      </trkpt>
      <trkpt lat="45.30012" lon="6.18859">
        <ele>1566.1</ele>
        <time>2022-01-27T09:10:02Z</time>
      </trkpt>
      <trkpt lat="45.30012" lon="6.18858">
        <ele>1566.1</ele>
        <time>2022-01-27T09:10:03Z</time>
      </trkpt>
      <trkpt lat="45.30012" lon="6.18857">
        <ele>1566.1</ele>
        <time>2022-01-27T09:10:04Z</time>
      </trkpt>
      <trkpt lat="45.30012" lon="6.18856">
        <ele>1566.5</ele>
        <time>2022-01-27T09:10:05Z</time>
      </trkpt>
      <trkpt lat="45.30013" lon="6.18855">
        <ele>1566.5</ele>
        <time>2022-01-27T09:10:06Z</time>
      </trkpt>
      <trkpt lat="45.30013" lon="6.18854">
        <ele>1566.5</ele>
        <time>2022-01-27T09:10:07Z</time>
      </trkpt>
      <trkpt lat="45.30013" lon="6.18853">
        <ele>1566.5</ele>
        <time>2022-01-27T09:10:08Z</time>
      </trkpt>
      <trkpt lat="45.30013" lon="6.18852">
        <ele>1568.7</ele>
        <time>2022-01-27T09:10:11Z</time>
      </trkpt>
      <trkpt lat="45.30013" lon="6.18851">
        <ele>1568.8</ele>
        <time>2022-01-27T09:10:12Z</time>
      </trkpt>
      <trkpt lat="45.30013" lon="6.1885">
        <ele>1568.8</ele>
        <time>2022-01-27T09:10:13Z</time>
      </trkpt>
      <trkpt lat="45.30013" lon="6.18849">
        <ele>1568.8</ele>
        <time>2022-01-27T09:10:15Z</time>
      </trkpt>
      <trkpt lat="45.30014" lon="6.18847">
        <ele>1569.2</ele>
        <time>2022-01-27T09:10:17Z</time>
      </trkpt>
      <trkpt lat="45.30014" lon="6.18846">
        <ele>1569.2</ele>
        <time>2022-01-27T09:10:18Z</time>
      </trkpt>
      <trkpt lat="45.30014" lon="6.18845">
        <ele>1569.2</ele>
        <time>2022-01-27T09:10:19Z</time>
      </trkpt>
      <trkpt lat="45.30014" lon="6.18844">
        <ele>1569.3</ele>
        <time>2022-01-27T09:10:20Z</time>
      </trkpt>
      <trkpt lat="45.30014" lon="6.18843">
        <ele>1569.8</ele>
        <time>2022-01-27T09:10:21Z</time>
      </trkpt>
      <trkpt lat="45.30014" lon="6.18842">
        <ele>1569.8</ele>
        <time>2022-01-27T09:10:22Z</time>
      </trkpt>
      <trkpt lat="45.30014" lon="6.18841">
        <ele>1569.8</ele>
        <time>2022-01-27T09:10:23Z</time>
      </trkpt>
      <trkpt lat="45.30014" lon="6.18839">
        <ele>1570.3</ele>
        <time>2022-01-27T09:10:24Z</time>
      </trkpt>
      <trkpt lat="45.30014" lon="6.18838">
        <ele>1570.3</ele>
        <time>2022-01-27T09:10:25Z</time>
      </trkpt>
      <trkpt lat="45.30014" lon="6.18837">
        <ele>1570.3</ele>
        <time>2022-01-27T09:10:26Z</time>
      </trkpt>
      <trkpt lat="45.30014" lon="6.18835">
        <ele>1570.3</ele>
        <time>2022-01-27T09:10:27Z</time>
      </trkpt>
      <trkpt lat="45.30014" lon="6.18834">
        <ele>1570.9</ele>
        <time>2022-01-27T09:10:28Z</time>
      </trkpt>
      <trkpt lat="45.30015" lon="6.18833">
        <ele>1570.9</ele>
        <time>2022-01-27T09:10:29Z</time>
      </trkpt>
      <trkpt lat="45.30015" lon="6.18832">
        <ele>1570.9</ele>
        <time>2022-01-27T09:10:30Z</time>
      </trkpt>
      <trkpt lat="45.30015" lon="6.18831">
        <ele>1571.6</ele>
        <time>2022-01-27T09:10:31Z</time>
      </trkpt>
      <trkpt lat="45.30015" lon="6.18829">
        <ele>1571.6</ele>
        <time>2022-01-27T09:10:32Z</time>
      </trkpt>
      <trkpt lat="45.30015" lon="6.18828">
        <ele>1571.6</ele>
        <time>2022-01-27T09:10:33Z</time>
      </trkpt>
      <trkpt lat="45.30016" lon="6.18827">
        <ele>1571.6</ele>
        <time>2022-01-27T09:10:34Z</time>
      </trkpt>
      <trkpt lat="45.30016" lon="6.18826">
        <ele>1574.1</ele>
        <time>2022-01-27T09:10:35Z</time>
      </trkpt>
      <trkpt lat="45.30016" lon="6.18825">
        <ele>1574.1</ele>
        <time>2022-01-27T09:10:36Z</time>
      </trkpt>
      <trkpt lat="45.30017" lon="6.18824">
        <ele>1574.1</ele>
        <time>2022-01-27T09:10:37Z</time>
      </trkpt>
      <trkpt lat="45.30017" lon="6.18823">
        <ele>1574.1</ele>
        <time>2022-01-27T09:10:38Z</time>
      </trkpt>
      <trkpt lat="45.30018" lon="6.18822">
        <ele>1574.1</ele>
        <time>2022-01-27T09:10:39Z</time>
      </trkpt>
      <trkpt lat="45.30018" lon="6.18821">
        <ele>1575</ele>
        <time>2022-01-27T09:10:40Z</time>
      </trkpt>
      <trkpt lat="45.30019" lon="6.1882">
        <ele>1575</ele>
        <time>2022-01-27T09:10:41Z</time>
      </trkpt>
      <trkpt lat="45.30019" lon="6.18819">
        <ele>1576.8</ele>
        <time>2022-01-27T09:10:42Z</time>
      </trkpt>
      <trkpt lat="45.3002" lon="6.18818">
        <ele>1576.8</ele>
        <time>2022-01-27T09:10:43Z</time>
      </trkpt>
      <trkpt lat="45.3002" lon="6.18817">
        <ele>1577.6</ele>
        <time>2022-01-27T09:10:45Z</time>
      </trkpt>
      <trkpt lat="45.3002" lon="6.18816">
        <ele>1577.6</ele>
        <time>2022-01-27T09:10:46Z</time>
      </trkpt>
      <trkpt lat="45.30021" lon="6.18815">
        <ele>1577.6</ele>
        <time>2022-01-27T09:10:47Z</time>
      </trkpt>
      <trkpt lat="45.30021" lon="6.18814">
        <ele>1577.6</ele>
        <time>2022-01-27T09:10:48Z</time>
      </trkpt>
      <trkpt lat="45.30021" lon="6.18813">
        <ele>1578.5</ele>
        <time>2022-01-27T09:10:49Z</time>
      </trkpt>
      <trkpt lat="45.30021" lon="6.18812">
        <ele>1578.5</ele>
        <time>2022-01-27T09:10:50Z</time>
      </trkpt>
      <trkpt lat="45.30021" lon="6.1881">
        <ele>1578.5</ele>
        <time>2022-01-27T09:10:52Z</time>
      </trkpt>
      <trkpt lat="45.30021" lon="6.18809">
        <ele>1579.5</ele>
        <time>2022-01-27T09:10:54Z</time>
      </trkpt>
      <trkpt lat="45.30021" lon="6.18808">
        <ele>1579.5</ele>
        <time>2022-01-27T09:10:55Z</time>
      </trkpt>
      <trkpt lat="45.30021" lon="6.18807">
        <ele>1579.5</ele>
        <time>2022-01-27T09:10:56Z</time>
      </trkpt>
      <trkpt lat="45.30021" lon="6.18806">
        <ele>1579.5</ele>
        <time>2022-01-27T09:10:57Z</time>
      </trkpt>
      <trkpt lat="45.30021" lon="6.18805">
        <ele>1579.5</ele>
        <time>2022-01-27T09:10:58Z</time>
      </trkpt>
      <trkpt lat="45.30021" lon="6.18803">
        <ele>1580.5</ele>
        <time>2022-01-27T09:11:00Z</time>
      </trkpt>
      <trkpt lat="45.30021" lon="6.18801">
        <ele>1581.5</ele>
        <time>2022-01-27T09:11:03Z</time>
      </trkpt>
      <trkpt lat="45.30021" lon="6.18799">
        <ele>1581.5</ele>
        <time>2022-01-27T09:11:04Z</time>
      </trkpt>
      <trkpt lat="45.30021" lon="6.18798">
        <ele>1581.5</ele>
        <time>2022-01-27T09:11:06Z</time>
      </trkpt>
      <trkpt lat="45.3002" lon="6.18796">
        <ele>1582.4</ele>
        <time>2022-01-27T09:11:07Z</time>
      </trkpt>
      <trkpt lat="45.3002" lon="6.18795">
        <ele>1582.4</ele>
        <time>2022-01-27T09:11:10Z</time>
      </trkpt>
      <trkpt lat="45.30019" lon="6.18794">
        <ele>1582.4</ele>
        <time>2022-01-27T09:11:11Z</time>
      </trkpt>
      <trkpt lat="45.30018" lon="6.18793">
        <ele>1581</ele>
        <time>2022-01-27T09:11:14Z</time>
      </trkpt>
      <trkpt lat="45.30018" lon="6.18792">
        <ele>1581.9</ele>
        <time>2022-01-27T09:11:15Z</time>
      </trkpt>
      <trkpt lat="45.30018" lon="6.18791">
        <ele>1581.9</ele>
        <time>2022-01-27T09:11:16Z</time>
      </trkpt>
      <trkpt lat="45.30018" lon="6.1879">
        <ele>1581.9</ele>
        <time>2022-01-27T09:11:18Z</time>
      </trkpt>
      <trkpt lat="45.30018" lon="6.18789">
        <ele>1581.9</ele>
        <time>2022-01-27T09:11:19Z</time>
      </trkpt>
      <trkpt lat="45.30018" lon="6.18788">
        <ele>1581.9</ele>
        <time>2022-01-27T09:11:20Z</time>
      </trkpt>
      <trkpt lat="45.30019" lon="6.18787">
        <ele>1582.7</ele>
        <time>2022-01-27T09:11:21Z</time>
      </trkpt>
      <trkpt lat="45.30019" lon="6.18785">
        <ele>1583.9</ele>
        <time>2022-01-27T09:11:23Z</time>
      </trkpt>
      <trkpt lat="45.3002" lon="6.18785">
        <ele>1583.9</ele>
        <time>2022-01-27T09:11:24Z</time>
      </trkpt>
      <trkpt lat="45.3002" lon="6.18784">
        <ele>1583.9</ele>
        <time>2022-01-27T09:11:25Z</time>
      </trkpt>
      <trkpt lat="45.30021" lon="6.18783">
        <ele>1584.5</ele>
        <time>2022-01-27T09:11:26Z</time>
      </trkpt>
      <trkpt lat="45.30022" lon="6.18782">
        <ele>1584.5</ele>
        <time>2022-01-27T09:11:27Z</time>
      </trkpt>
      <trkpt lat="45.30022" lon="6.18781">
        <ele>1585.6</ele>
        <time>2022-01-27T09:11:29Z</time>
      </trkpt>
      <trkpt lat="45.30023" lon="6.1878">
        <ele>1585.6</ele>
        <time>2022-01-27T09:11:30Z</time>
      </trkpt>
      <trkpt lat="45.30023" lon="6.18779">
        <ele>1585.6</ele>
        <time>2022-01-27T09:11:31Z</time>
      </trkpt>
      <trkpt lat="45.30023" lon="6.18778">
        <ele>1586</ele>
        <time>2022-01-27T09:11:33Z</time>
      </trkpt>
      <trkpt lat="45.30024" lon="6.18777">
        <ele>1586</ele>
        <time>2022-01-27T09:11:34Z</time>
      </trkpt>
      <trkpt lat="45.30024" lon="6.18776">
        <ele>1586</ele>
        <time>2022-01-27T09:11:35Z</time>
      </trkpt>
      <trkpt lat="45.30024" lon="6.18775">
        <ele>1586</ele>
        <time>2022-01-27T09:11:36Z</time>
      </trkpt>
      <trkpt lat="45.30025" lon="6.18774">
        <ele>1587.3</ele>
        <time>2022-01-27T09:11:38Z</time>
      </trkpt>
      <trkpt lat="45.30026" lon="6.18773">
        <ele>1587.3</ele>
        <time>2022-01-27T09:11:39Z</time>
      </trkpt>
      <trkpt lat="45.30026" lon="6.18772">
        <ele>1587.3</ele>
        <time>2022-01-27T09:11:40Z</time>
      </trkpt>
      <trkpt lat="45.30027" lon="6.1877">
        <ele>1587.5</ele>
        <time>2022-01-27T09:11:42Z</time>
      </trkpt>
      <trkpt lat="45.30027" lon="6.18769">
        <ele>1587.5</ele>
        <time>2022-01-27T09:11:44Z</time>
      </trkpt>
      <trkpt lat="45.30028" lon="6.18769">
        <ele>1587.5</ele>
        <time>2022-01-27T09:11:45Z</time>
      </trkpt>
      <trkpt lat="45.30028" lon="6.18768">
        <ele>1588.4</ele>
        <time>2022-01-27T09:11:46Z</time>
      </trkpt>
      <trkpt lat="45.30029" lon="6.18767">
        <ele>1588.4</ele>
        <time>2022-01-27T09:11:48Z</time>
      </trkpt>
      <trkpt lat="45.3003" lon="6.18766">
        <ele>1588.4</ele>
        <time>2022-01-27T09:11:49Z</time>
      </trkpt>
      <trkpt lat="45.3003" lon="6.18765">
        <ele>1588.4</ele>
        <time>2022-01-27T09:11:50Z</time>
      </trkpt>
      <trkpt lat="45.30031" lon="6.18765">
        <ele>1588.4</ele>
        <time>2022-01-27T09:11:51Z</time>
      </trkpt>
      <trkpt lat="45.30031" lon="6.18764">
        <ele>1589.2</ele>
        <time>2022-01-27T09:11:52Z</time>
      </trkpt>
      <trkpt lat="45.30032" lon="6.18762">
        <ele>1589.2</ele>
        <time>2022-01-27T09:11:53Z</time>
      </trkpt>
      <trkpt lat="45.30032" lon="6.18761">
        <ele>1589.2</ele>
        <time>2022-01-27T09:11:55Z</time>
      </trkpt>
      <trkpt lat="45.30032" lon="6.1876">
        <ele>1589.2</ele>
        <time>2022-01-27T09:11:56Z</time>
      </trkpt>
      <trkpt lat="45.30032" lon="6.18759">
        <ele>1589.2</ele>
        <time>2022-01-27T09:11:57Z</time>
      </trkpt>
      <trkpt lat="45.30033" lon="6.18758">
        <ele>1589.2</ele>
        <time>2022-01-27T09:11:58Z</time>
      </trkpt>
      <trkpt lat="45.30033" lon="6.18757">
        <ele>1589.2</ele>
        <time>2022-01-27T09:11:59Z</time>
      </trkpt>
      <trkpt lat="45.30034" lon="6.18756">
        <ele>1589.2</ele>
        <time>2022-01-27T09:12:01Z</time>
      </trkpt>
      <trkpt lat="45.30034" lon="6.18755">
        <ele>1589.2</ele>
        <time>2022-01-27T09:12:02Z</time>
      </trkpt>
      <trkpt lat="45.30034" lon="6.18754">
        <ele>1589.9</ele>
        <time>2022-01-27T09:12:03Z</time>
      </trkpt>
      <trkpt lat="45.30035" lon="6.18753">
        <ele>1589.8</ele>
        <time>2022-01-27T09:12:04Z</time>
      </trkpt>
      <trkpt lat="45.30035" lon="6.18752">
        <ele>1589.8</ele>
        <time>2022-01-27T09:12:06Z</time>
      </trkpt>
      <trkpt lat="45.30036" lon="6.18752">
        <ele>1589.8</ele>
        <time>2022-01-27T09:12:07Z</time>
      </trkpt>
      <trkpt lat="45.30036" lon="6.1875">
        <ele>1589.8</ele>
        <time>2022-01-27T09:12:08Z</time>
      </trkpt>
      <trkpt lat="45.30037" lon="6.18749">
        <ele>1589.7</ele>
        <time>2022-01-27T09:12:10Z</time>
      </trkpt>
      <trkpt lat="45.30037" lon="6.18748">
        <ele>1590.4</ele>
        <time>2022-01-27T09:12:11Z</time>
      </trkpt>
      <trkpt lat="45.30038" lon="6.18747">
        <ele>1590.4</ele>
        <time>2022-01-27T09:12:13Z</time>
      </trkpt>
      <trkpt lat="45.30039" lon="6.18746">
        <ele>1590.4</ele>
        <time>2022-01-27T09:12:15Z</time>
      </trkpt>
      <trkpt lat="45.3004" lon="6.18745">
        <ele>1590.4</ele>
        <time>2022-01-27T09:12:17Z</time>
      </trkpt>
      <trkpt lat="45.3004" lon="6.18744">
        <ele>1590.9</ele>
        <time>2022-01-27T09:12:18Z</time>
      </trkpt>
      <trkpt lat="45.30041" lon="6.18743">
        <ele>1590.9</ele>
        <time>2022-01-27T09:12:20Z</time>
      </trkpt>
      <trkpt lat="45.30041" lon="6.18742">
        <ele>1590.9</ele>
        <time>2022-01-27T09:12:21Z</time>
      </trkpt>
      <trkpt lat="45.30041" lon="6.18741">
        <ele>1590.9</ele>
        <time>2022-01-27T09:12:22Z</time>
      </trkpt>
      <trkpt lat="45.30041" lon="6.1874">
        <ele>1590.8</ele>
        <time>2022-01-27T09:12:23Z</time>
      </trkpt>
      <trkpt lat="45.30041" lon="6.18739">
        <ele>1590.8</ele>
        <time>2022-01-27T09:12:25Z</time>
      </trkpt>
      <trkpt lat="45.30041" lon="6.18738">
        <ele>1590.8</ele>
        <time>2022-01-27T09:12:27Z</time>
      </trkpt>
      <trkpt lat="45.30041" lon="6.18736">
        <ele>1590.7</ele>
        <time>2022-01-27T09:12:29Z</time>
      </trkpt>
      <trkpt lat="45.30042" lon="6.18735">
        <ele>1590.7</ele>
        <time>2022-01-27T09:12:31Z</time>
      </trkpt>
      <trkpt lat="45.30043" lon="6.18734">
        <ele>1591.3</ele>
        <time>2022-01-27T09:12:33Z</time>
      </trkpt>
      <trkpt lat="45.30044" lon="6.18734">
        <ele>1591.3</ele>
        <time>2022-01-27T09:12:35Z</time>
      </trkpt>
      <trkpt lat="45.30045" lon="6.18732">
        <ele>1591.3</ele>
        <time>2022-01-27T09:12:37Z</time>
      </trkpt>
      <trkpt lat="45.30045" lon="6.18731">
        <ele>1591.3</ele>
        <time>2022-01-27T09:12:38Z</time>
      </trkpt>
      <trkpt lat="45.30046" lon="6.18731">
        <ele>1591.3</ele>
        <time>2022-01-27T09:12:39Z</time>
      </trkpt>
      <trkpt lat="45.30046" lon="6.1873">
        <ele>1591.3</ele>
        <time>2022-01-27T09:12:41Z</time>
      </trkpt>
      <trkpt lat="45.30046" lon="6.18729">
        <ele>1592</ele>
        <time>2022-01-27T09:12:42Z</time>
      </trkpt>
      <trkpt lat="45.30047" lon="6.18728">
        <ele>1592</ele>
        <time>2022-01-27T09:12:43Z</time>
      </trkpt>
      <trkpt lat="45.30047" lon="6.18727">
        <ele>1592</ele>
        <time>2022-01-27T09:12:44Z</time>
      </trkpt>
      <trkpt lat="45.30047" lon="6.18726">
        <ele>1592</ele>
        <time>2022-01-27T09:12:45Z</time>
      </trkpt>
      <trkpt lat="45.30047" lon="6.18725">
        <ele>1592</ele>
        <time>2022-01-27T09:12:46Z</time>
      </trkpt>
      <trkpt lat="45.30047" lon="6.18724">
        <ele>1592</ele>
        <time>2022-01-27T09:12:48Z</time>
      </trkpt>
      <trkpt lat="45.30047" lon="6.18723">
        <ele>1592</ele>
        <time>2022-01-27T09:12:49Z</time>
      </trkpt>
      <trkpt lat="45.30047" lon="6.18722">
        <ele>1592</ele>
        <time>2022-01-27T09:12:50Z</time>
      </trkpt>
      <trkpt lat="45.30047" lon="6.18721">
        <ele>1592</ele>
        <time>2022-01-27T09:12:52Z</time>
      </trkpt>
      <trkpt lat="45.30046" lon="6.18719">
        <ele>1592</ele>
        <time>2022-01-27T09:12:53Z</time>
      </trkpt>
      <trkpt lat="45.30046" lon="6.18718">
        <ele>1592.1</ele>
        <time>2022-01-27T09:12:55Z</time>
      </trkpt>
      <trkpt lat="45.30046" lon="6.18717">
        <ele>1591.4</ele>
        <time>2022-01-27T09:12:57Z</time>
      </trkpt>
      <trkpt lat="45.30046" lon="6.18716">
        <ele>1591.4</ele>
        <time>2022-01-27T09:12:58Z</time>
      </trkpt>
      <trkpt lat="45.30045" lon="6.18716">
        <ele>1591.4</ele>
        <time>2022-01-27T09:12:59Z</time>
      </trkpt>
      <trkpt lat="45.30045" lon="6.18715">
        <ele>1591.6</ele>
        <time>2022-01-27T09:13:00Z</time>
      </trkpt>
      <trkpt lat="45.30045" lon="6.18714">
        <ele>1591.6</ele>
        <time>2022-01-27T09:13:02Z</time>
      </trkpt>
      <trkpt lat="45.30045" lon="6.18713">
        <ele>1591.6</ele>
        <time>2022-01-27T09:13:03Z</time>
      </trkpt>
      <trkpt lat="45.30044" lon="6.18712">
        <ele>1591.6</ele>
        <time>2022-01-27T09:13:05Z</time>
      </trkpt>
      <trkpt lat="45.30044" lon="6.18711">
        <ele>1591.6</ele>
        <time>2022-01-27T09:13:07Z</time>
      </trkpt>
      <trkpt lat="45.30043" lon="6.18709">
        <ele>1591.8</ele>
        <time>2022-01-27T09:13:08Z</time>
      </trkpt>
      <trkpt lat="45.30043" lon="6.18708">
        <ele>1591.8</ele>
        <time>2022-01-27T09:13:09Z</time>
      </trkpt>
      <trkpt lat="45.30043" lon="6.18707">
        <ele>1591.2</ele>
        <time>2022-01-27T09:13:11Z</time>
      </trkpt>
      <trkpt lat="45.30043" lon="6.18706">
        <ele>1591.5</ele>
        <time>2022-01-27T09:13:12Z</time>
      </trkpt>
      <trkpt lat="45.30043" lon="6.18705">
        <ele>1591.5</ele>
        <time>2022-01-27T09:13:13Z</time>
      </trkpt>
      <trkpt lat="45.30043" lon="6.18704">
        <ele>1591.5</ele>
        <time>2022-01-27T09:13:14Z</time>
      </trkpt>
      <trkpt lat="45.30043" lon="6.18703">
        <ele>1591.5</ele>
        <time>2022-01-27T09:13:15Z</time>
      </trkpt>
      <trkpt lat="45.30043" lon="6.18702">
        <ele>1592.1</ele>
        <time>2022-01-27T09:13:16Z</time>
      </trkpt>
      <trkpt lat="45.30044" lon="6.18701">
        <ele>1592.4</ele>
        <time>2022-01-27T09:13:18Z</time>
      </trkpt>
      <trkpt lat="45.30044" lon="6.187">
        <ele>1592.4</ele>
        <time>2022-01-27T09:13:19Z</time>
      </trkpt>
      <trkpt lat="45.30045" lon="6.187">
        <ele>1592.4</ele>
        <time>2022-01-27T09:13:20Z</time>
      </trkpt>
      <trkpt lat="45.30046" lon="6.18699">
        <ele>1592.4</ele>
        <time>2022-01-27T09:13:22Z</time>
      </trkpt>
      <trkpt lat="45.30047" lon="6.18699">
        <ele>1593.1</ele>
        <time>2022-01-27T09:13:23Z</time>
      </trkpt>
      <trkpt lat="45.30048" lon="6.18699">
        <ele>1593.1</ele>
        <time>2022-01-27T09:13:24Z</time>
      </trkpt>
      <trkpt lat="45.30049" lon="6.18699">
        <ele>1593.1</ele>
        <time>2022-01-27T09:13:26Z</time>
      </trkpt>
      <trkpt lat="45.3005" lon="6.18698">
        <ele>1593.8</ele>
        <time>2022-01-27T09:13:28Z</time>
      </trkpt>
      <trkpt lat="45.30051" lon="6.18698">
        <ele>1593.8</ele>
        <time>2022-01-27T09:13:29Z</time>
      </trkpt>
      <trkpt lat="45.30051" lon="6.18697">
        <ele>1594.2</ele>
        <time>2022-01-27T09:13:30Z</time>
      </trkpt>
      <trkpt lat="45.30052" lon="6.18697">
        <ele>1594.2</ele>
        <time>2022-01-27T09:13:31Z</time>
      </trkpt>
      <trkpt lat="45.30052" lon="6.18696">
        <ele>1594.2</ele>
        <time>2022-01-27T09:13:32Z</time>
      </trkpt>
      <trkpt lat="45.30053" lon="6.18695">
        <ele>1595</ele>
        <time>2022-01-27T09:13:33Z</time>
      </trkpt>
      <trkpt lat="45.30053" lon="6.18694">
        <ele>1595</ele>
        <time>2022-01-27T09:13:34Z</time>
      </trkpt>
      <trkpt lat="45.30053" lon="6.18693">
        <ele>1595.4</ele>
        <time>2022-01-27T09:13:36Z</time>
      </trkpt>
      <trkpt lat="45.30053" lon="6.18692">
        <ele>1595.4</ele>
        <time>2022-01-27T09:13:37Z</time>
      </trkpt>
      <trkpt lat="45.30054" lon="6.18691">
        <ele>1595.4</ele>
        <time>2022-01-27T09:13:38Z</time>
      </trkpt>
      <trkpt lat="45.30054" lon="6.1869">
        <ele>1595.4</ele>
        <time>2022-01-27T09:13:39Z</time>
      </trkpt>
      <trkpt lat="45.30053" lon="6.18689">
        <ele>1595.4</ele>
        <time>2022-01-27T09:13:40Z</time>
      </trkpt>
      <trkpt lat="45.30053" lon="6.18688">
        <ele>1595.9</ele>
        <time>2022-01-27T09:13:42Z</time>
      </trkpt>
      <trkpt lat="45.30053" lon="6.18687">
        <ele>1595.9</ele>
        <time>2022-01-27T09:13:43Z</time>
      </trkpt>
      <trkpt lat="45.30053" lon="6.18685">
        <ele>1595.9</ele>
        <time>2022-01-27T09:13:45Z</time>
      </trkpt>
      <trkpt lat="45.30053" lon="6.18684">
        <ele>1596.4</ele>
        <time>2022-01-27T09:13:47Z</time>
      </trkpt>
      <trkpt lat="45.30053" lon="6.18683">
        <ele>1596.4</ele>
        <time>2022-01-27T09:13:48Z</time>
      </trkpt>
      <trkpt lat="45.30053" lon="6.18682">
        <ele>1596.4</ele>
        <time>2022-01-27T09:13:49Z</time>
      </trkpt>
      <trkpt lat="45.30054" lon="6.18681">
        <ele>1596.4</ele>
        <time>2022-01-27T09:13:50Z</time>
      </trkpt>
      <trkpt lat="45.30054" lon="6.1868">
        <ele>1597.1</ele>
        <time>2022-01-27T09:13:53Z</time>
      </trkpt>
      <trkpt lat="45.30054" lon="6.18679">
        <ele>1597.1</ele>
        <time>2022-01-27T09:13:55Z</time>
      </trkpt>
      <trkpt lat="45.30055" lon="6.18679">
        <ele>1597.1</ele>
        <time>2022-01-27T09:13:56Z</time>
      </trkpt>
      <trkpt lat="45.30055" lon="6.18678">
        <ele>1597.1</ele>
        <time>2022-01-27T09:13:58Z</time>
      </trkpt>
      <trkpt lat="45.30055" lon="6.18677">
        <ele>1597.9</ele>
        <time>2022-01-27T09:14:00Z</time>
      </trkpt>
      <trkpt lat="45.30056" lon="6.18677">
        <ele>1597.9</ele>
        <time>2022-01-27T09:14:01Z</time>
      </trkpt>
      <trkpt lat="45.30056" lon="6.18676">
        <ele>1597.9</ele>
        <time>2022-01-27T09:14:02Z</time>
      </trkpt>
      <trkpt lat="45.30056" lon="6.18675">
        <ele>1598.5</ele>
        <time>2022-01-27T09:14:05Z</time>
      </trkpt>
      <trkpt lat="45.30057" lon="6.18675">
        <ele>1598.5</ele>
        <time>2022-01-27T09:14:06Z</time>
      </trkpt>
      <trkpt lat="45.30057" lon="6.18674">
        <ele>1598.5</ele>
        <time>2022-01-27T09:14:46Z</time>
      </trkpt>
      <trkpt lat="45.30057" lon="6.18673">
        <ele>1598.5</ele>
        <time>2022-01-27T09:14:49Z</time>
      </trkpt>
      <trkpt lat="45.30058" lon="6.18673">
        <ele>1598.5</ele>
        <time>2022-01-27T09:14:50Z</time>
      </trkpt>
      <trkpt lat="45.30058" lon="6.18672">
        <ele>1598.5</ele>
        <time>2022-01-27T09:14:52Z</time>
      </trkpt>
      <trkpt lat="45.30058" lon="6.18671">
        <ele>1600.1</ele>
        <time>2022-01-27T09:14:54Z</time>
      </trkpt>
      <trkpt lat="45.30059" lon="6.1867">
        <ele>1600.1</ele>
        <time>2022-01-27T09:14:56Z</time>
      </trkpt>
      <trkpt lat="45.30059" lon="6.18669">
        <ele>1600.1</ele>
        <time>2022-01-27T09:14:57Z</time>
      </trkpt>
      <trkpt lat="45.3006" lon="6.18666">
        <ele>1600.8</ele>
        <time>2022-01-27T09:14:59Z</time>
      </trkpt>
      <trkpt lat="45.30061" lon="6.18664">
        <ele>1600.8</ele>
        <time>2022-01-27T09:15:00Z</time>
      </trkpt>
      <trkpt lat="45.30061" lon="6.18663">
        <ele>1601.5</ele>
        <time>2022-01-27T09:15:01Z</time>
      </trkpt>
      <trkpt lat="45.30062" lon="6.18662">
        <ele>1602.2</ele>
        <time>2022-01-27T09:15:03Z</time>
      </trkpt>
      <trkpt lat="45.30063" lon="6.18661">
        <ele>1602.2</ele>
        <time>2022-01-27T09:15:05Z</time>
      </trkpt>
      <trkpt lat="45.30064" lon="6.1866">
        <ele>1602.9</ele>
        <time>2022-01-27T09:15:06Z</time>
      </trkpt>
      <trkpt lat="45.30066" lon="6.18659">
        <ele>1602.9</ele>
        <time>2022-01-27T09:15:08Z</time>
      </trkpt>
      <trkpt lat="45.30067" lon="6.18658">
        <ele>1603.5</ele>
        <time>2022-01-27T09:15:10Z</time>
      </trkpt>
      <trkpt lat="45.30067" lon="6.18657">
        <ele>1604.2</ele>
        <time>2022-01-27T09:15:11Z</time>
      </trkpt>
      <trkpt lat="45.30068" lon="6.18657">
        <ele>1604.2</ele>
        <time>2022-01-27T09:15:12Z</time>
      </trkpt>
      <trkpt lat="45.30068" lon="6.18656">
        <ele>1604.2</ele>
        <time>2022-01-27T09:15:13Z</time>
      </trkpt>
      <trkpt lat="45.30068" lon="6.18655">
        <ele>1604.2</ele>
        <time>2022-01-27T09:15:14Z</time>
      </trkpt>
      <trkpt lat="45.30069" lon="6.18655">
        <ele>1604.8</ele>
        <time>2022-01-27T09:15:16Z</time>
      </trkpt>
      <trkpt lat="45.30069" lon="6.18654">
        <ele>1604.8</ele>
        <time>2022-01-27T09:15:17Z</time>
      </trkpt>
      <trkpt lat="45.3007" lon="6.18653">
        <ele>1604.8</ele>
        <time>2022-01-27T09:15:19Z</time>
      </trkpt>
      <trkpt lat="45.3007" lon="6.18652">
        <ele>1604.8</ele>
        <time>2022-01-27T09:15:21Z</time>
      </trkpt>
      <trkpt lat="45.30071" lon="6.18652">
        <ele>1605.4</ele>
        <time>2022-01-27T09:15:23Z</time>
      </trkpt>
      <trkpt lat="45.30071" lon="6.18651">
        <ele>1605.4</ele>
        <time>2022-01-27T09:15:24Z</time>
      </trkpt>
      <trkpt lat="45.30071" lon="6.1865">
        <ele>1605.9</ele>
        <time>2022-01-27T09:15:26Z</time>
      </trkpt>
      <trkpt lat="45.30072" lon="6.18649">
        <ele>1605.9</ele>
        <time>2022-01-27T09:15:28Z</time>
      </trkpt>
      <trkpt lat="45.30072" lon="6.18648">
        <ele>1605.9</ele>
        <time>2022-01-27T09:15:29Z</time>
      </trkpt>
      <trkpt lat="45.30073" lon="6.18647">
        <ele>1605.9</ele>
        <time>2022-01-27T09:15:31Z</time>
      </trkpt>
      <trkpt lat="45.30073" lon="6.18646">
        <ele>1605.9</ele>
        <time>2022-01-27T09:15:32Z</time>
      </trkpt>
      <trkpt lat="45.30073" lon="6.18645">
        <ele>1606.5</ele>
        <time>2022-01-27T09:15:33Z</time>
      </trkpt>
      <trkpt lat="45.30073" lon="6.18644">
        <ele>1607.1</ele>
        <time>2022-01-27T09:15:34Z</time>
      </trkpt>
      <trkpt lat="45.30073" lon="6.18643">
        <ele>1607.1</ele>
        <time>2022-01-27T09:15:35Z</time>
      </trkpt>
      <trkpt lat="45.30074" lon="6.18643">
        <ele>1607.1</ele>
        <time>2022-01-27T09:15:36Z</time>
      </trkpt>
      <trkpt lat="45.30074" lon="6.18642">
        <ele>1607.6</ele>
        <time>2022-01-27T09:15:37Z</time>
      </trkpt>
      <trkpt lat="45.30074" lon="6.18641">
        <ele>1607.6</ele>
        <time>2022-01-27T09:15:38Z</time>
      </trkpt>
      <trkpt lat="45.30075" lon="6.1864">
        <ele>1607.6</ele>
        <time>2022-01-27T09:15:39Z</time>
      </trkpt>
      <trkpt lat="45.30075" lon="6.18639">
        <ele>1607.6</ele>
        <time>2022-01-27T09:15:40Z</time>
      </trkpt>
      <trkpt lat="45.30075" lon="6.18638">
        <ele>1607.6</ele>
        <time>2022-01-27T09:15:42Z</time>
      </trkpt>
      <trkpt lat="45.30075" lon="6.18637">
        <ele>1608.2</ele>
        <time>2022-01-27T09:15:43Z</time>
      </trkpt>
      <trkpt lat="45.30075" lon="6.18636">
        <ele>1608.2</ele>
        <time>2022-01-27T09:15:44Z</time>
      </trkpt>
      <trkpt lat="45.30076" lon="6.18635">
        <ele>1608.2</ele>
        <time>2022-01-27T09:15:46Z</time>
      </trkpt>
      <trkpt lat="45.30076" lon="6.18634">
        <ele>1608.2</ele>
        <time>2022-01-27T09:15:48Z</time>
      </trkpt>
      <trkpt lat="45.30077" lon="6.18633">
        <ele>1609.5</ele>
        <time>2022-01-27T09:15:49Z</time>
      </trkpt>
      <trkpt lat="45.30077" lon="6.18632">
        <ele>1609.5</ele>
        <time>2022-01-27T09:15:51Z</time>
      </trkpt>
      <trkpt lat="45.30077" lon="6.18631">
        <ele>1609.5</ele>
        <time>2022-01-27T09:15:53Z</time>
      </trkpt>
      <trkpt lat="45.30078" lon="6.1863">
        <ele>1609.5</ele>
        <time>2022-01-27T09:15:54Z</time>
      </trkpt>
      <trkpt lat="45.30078" lon="6.18629">
        <ele>1609.5</ele>
        <time>2022-01-27T09:15:55Z</time>
      </trkpt>
      <trkpt lat="45.30078" lon="6.18627">
        <ele>1610.1</ele>
        <time>2022-01-27T09:15:57Z</time>
      </trkpt>
      <trkpt lat="45.30079" lon="6.18625">
        <ele>1610.1</ele>
        <time>2022-01-27T09:15:59Z</time>
      </trkpt>
      <trkpt lat="45.30079" lon="6.18624">
        <ele>1610.9</ele>
        <time>2022-01-27T09:16:01Z</time>
      </trkpt>
      <trkpt lat="45.30079" lon="6.18623">
        <ele>1611.5</ele>
        <time>2022-01-27T09:16:02Z</time>
      </trkpt>
      <trkpt lat="45.3008" lon="6.18623">
        <ele>1611.5</ele>
        <time>2022-01-27T09:16:03Z</time>
      </trkpt>
      <trkpt lat="45.30081" lon="6.18621">
        <ele>1611.5</ele>
        <time>2022-01-27T09:16:04Z</time>
      </trkpt>
      <trkpt lat="45.30081" lon="6.1862">
        <ele>1612.2</ele>
        <time>2022-01-27T09:16:06Z</time>
      </trkpt>
      <trkpt lat="45.30081" lon="6.18619">
        <ele>1612.2</ele>
        <time>2022-01-27T09:16:08Z</time>
      </trkpt>
      <trkpt lat="45.30082" lon="6.18617">
        <ele>1612.2</ele>
        <time>2022-01-27T09:16:24Z</time>
      </trkpt>
      <trkpt lat="45.30082" lon="6.18616">
        <ele>1613</ele>
        <time>2022-01-27T09:16:26Z</time>
      </trkpt>
      <trkpt lat="45.30083" lon="6.18615">
        <ele>1613.7</ele>
        <time>2022-01-27T09:16:27Z</time>
      </trkpt>
      <trkpt lat="45.30084" lon="6.18614">
        <ele>1613.7</ele>
        <time>2022-01-27T09:16:29Z</time>
      </trkpt>
      <trkpt lat="45.30085" lon="6.18613">
        <ele>1613.7</ele>
        <time>2022-01-27T09:16:31Z</time>
      </trkpt>
      <trkpt lat="45.30085" lon="6.18612">
        <ele>1613.7</ele>
        <time>2022-01-27T09:16:32Z</time>
      </trkpt>
      <trkpt lat="45.30086" lon="6.18611">
        <ele>1615.2</ele>
        <time>2022-01-27T09:16:34Z</time>
      </trkpt>
      <trkpt lat="45.30087" lon="6.18609">
        <ele>1615.2</ele>
        <time>2022-01-27T09:16:35Z</time>
      </trkpt>
      <trkpt lat="45.30087" lon="6.18608">
        <ele>1615.2</ele>
        <time>2022-01-27T09:16:37Z</time>
      </trkpt>
      <trkpt lat="45.30087" lon="6.18607">
        <ele>1615.9</ele>
        <time>2022-01-27T09:16:38Z</time>
      </trkpt>
      <trkpt lat="45.30088" lon="6.18605">
        <ele>1615.9</ele>
        <time>2022-01-27T09:16:40Z</time>
      </trkpt>
      <trkpt lat="45.30089" lon="6.18605">
        <ele>1616.7</ele>
        <time>2022-01-27T09:16:41Z</time>
      </trkpt>
      <trkpt lat="45.30089" lon="6.18604">
        <ele>1616.7</ele>
        <time>2022-01-27T09:16:42Z</time>
      </trkpt>
      <trkpt lat="45.30089" lon="6.18603">
        <ele>1616.7</ele>
        <time>2022-01-27T09:16:43Z</time>
      </trkpt>
      <trkpt lat="45.3009" lon="6.18602">
        <ele>1617.3</ele>
        <time>2022-01-27T09:16:44Z</time>
      </trkpt>
      <trkpt lat="45.30091" lon="6.18601">
        <ele>1617.3</ele>
        <time>2022-01-27T09:16:47Z</time>
      </trkpt>
      <trkpt lat="45.30091" lon="6.186">
        <ele>1617.3</ele>
        <time>2022-01-27T09:16:48Z</time>
      </trkpt>
      <trkpt lat="45.30092" lon="6.18599">
        <ele>1618.1</ele>
        <time>2022-01-27T09:16:49Z</time>
      </trkpt>
      <trkpt lat="45.30092" lon="6.18597">
        <ele>1618.7</ele>
        <time>2022-01-27T09:16:50Z</time>
      </trkpt>
      <trkpt lat="45.30093" lon="6.18596">
        <ele>1618.7</ele>
        <time>2022-01-27T09:16:52Z</time>
      </trkpt>
      <trkpt lat="45.30093" lon="6.18595">
        <ele>1618.7</ele>
        <time>2022-01-27T09:16:54Z</time>
      </trkpt>
      <trkpt lat="45.30094" lon="6.18594">
        <ele>1619.3</ele>
        <time>2022-01-27T09:16:55Z</time>
      </trkpt>
      <trkpt lat="45.30094" lon="6.18593">
        <ele>1619.3</ele>
        <time>2022-01-27T09:16:56Z</time>
      </trkpt>
      <trkpt lat="45.30095" lon="6.18592">
        <ele>1620</ele>
        <time>2022-01-27T09:16:57Z</time>
      </trkpt>
      <trkpt lat="45.30095" lon="6.18591">
        <ele>1620</ele>
        <time>2022-01-27T09:16:58Z</time>
      </trkpt>
      <trkpt lat="45.30095" lon="6.1859">
        <ele>1620.7</ele>
        <time>2022-01-27T09:16:59Z</time>
      </trkpt>
      <trkpt lat="45.30096" lon="6.18589">
        <ele>1620.7</ele>
        <time>2022-01-27T09:17:00Z</time>
      </trkpt>
      <trkpt lat="45.30096" lon="6.18588">
        <ele>1620.7</ele>
        <time>2022-01-27T09:17:01Z</time>
      </trkpt>
      <trkpt lat="45.30096" lon="6.18587">
        <ele>1620.7</ele>
        <time>2022-01-27T09:17:02Z</time>
      </trkpt>
      <trkpt lat="45.30097" lon="6.18587">
        <ele>1620.7</ele>
        <time>2022-01-27T09:17:03Z</time>
      </trkpt>
      <trkpt lat="45.30097" lon="6.18586">
        <ele>1621.4</ele>
        <time>2022-01-27T09:17:04Z</time>
      </trkpt>
      <trkpt lat="45.30097" lon="6.18584">
        <ele>1622.1</ele>
        <time>2022-01-27T09:17:05Z</time>
      </trkpt>
      <trkpt lat="45.30098" lon="6.18584">
        <ele>1622.1</ele>
        <time>2022-01-27T09:17:06Z</time>
      </trkpt>
      <trkpt lat="45.30098" lon="6.18583">
        <ele>1622.1</ele>
        <time>2022-01-27T09:17:07Z</time>
      </trkpt>
      <trkpt lat="45.30098" lon="6.18582">
        <ele>1622.1</ele>
        <time>2022-01-27T09:17:08Z</time>
      </trkpt>
      <trkpt lat="45.30099" lon="6.18581">
        <ele>1622.9</ele>
        <time>2022-01-27T09:17:09Z</time>
      </trkpt>
      <trkpt lat="45.30099" lon="6.1858">
        <ele>1622.9</ele>
        <time>2022-01-27T09:17:10Z</time>
      </trkpt>
      <trkpt lat="45.301" lon="6.18579">
        <ele>1622.9</ele>
        <time>2022-01-27T09:17:11Z</time>
      </trkpt>
      <trkpt lat="45.301" lon="6.18578">
        <ele>1622.9</ele>
        <time>2022-01-27T09:17:12Z</time>
      </trkpt>
      <trkpt lat="45.30101" lon="6.18577">
        <ele>1624.5</ele>
        <time>2022-01-27T09:17:13Z</time>
      </trkpt>
      <trkpt lat="45.30101" lon="6.18576">
        <ele>1624.5</ele>
        <time>2022-01-27T09:17:15Z</time>
      </trkpt>
      <trkpt lat="45.30102" lon="6.18575">
        <ele>1624.5</ele>
        <time>2022-01-27T09:17:16Z</time>
      </trkpt>
      <trkpt lat="45.30102" lon="6.18574">
        <ele>1624.5</ele>
        <time>2022-01-27T09:17:17Z</time>
      </trkpt>
      <trkpt lat="45.30102" lon="6.18573">
        <ele>1625.3</ele>
        <time>2022-01-27T09:17:19Z</time>
      </trkpt>
      <trkpt lat="45.30103" lon="6.18572">
        <ele>1625.3</ele>
        <time>2022-01-27T09:17:20Z</time>
      </trkpt>
      <trkpt lat="45.30104" lon="6.18564">
        <ele>1627.9</ele>
        <time>2022-01-27T09:17:35Z</time>
      </trkpt>
      <trkpt lat="45.30104" lon="6.18563">
        <ele>1627.9</ele>
        <time>2022-01-27T09:17:36Z</time>
      </trkpt>
      <trkpt lat="45.30103" lon="6.18562">
        <ele>1627</ele>
        <time>2022-01-27T09:17:37Z</time>
      </trkpt>
      <trkpt lat="45.30102" lon="6.18561">
        <ele>1627</ele>
        <time>2022-01-27T09:17:40Z</time>
      </trkpt>
      <trkpt lat="45.30101" lon="6.1856">
        <ele>1627.8</ele>
        <time>2022-01-27T09:17:41Z</time>
      </trkpt>
      <trkpt lat="45.301" lon="6.1856">
        <ele>1627.1</ele>
        <time>2022-01-27T09:17:43Z</time>
      </trkpt>
      <trkpt lat="45.301" lon="6.18559">
        <ele>1627.1</ele>
        <time>2022-01-27T09:17:44Z</time>
      </trkpt>
      <trkpt lat="45.30099" lon="6.18559">
        <ele>1627.1</ele>
        <time>2022-01-27T09:17:47Z</time>
      </trkpt>
      <trkpt lat="45.30099" lon="6.18558">
        <ele>1627.1</ele>
        <time>2022-01-27T09:17:48Z</time>
      </trkpt>
      <trkpt lat="45.30099" lon="6.18557">
        <ele>1627.1</ele>
        <time>2022-01-27T09:17:49Z</time>
      </trkpt>
      <trkpt lat="45.30098" lon="6.18556">
        <ele>1627.1</ele>
        <time>2022-01-27T09:17:50Z</time>
      </trkpt>
      <trkpt lat="45.30098" lon="6.18555">
        <ele>1628</ele>
        <time>2022-01-27T09:17:51Z</time>
      </trkpt>
      <trkpt lat="45.30097" lon="6.18554">
        <ele>1627.3</ele>
        <time>2022-01-27T09:17:52Z</time>
      </trkpt>
      <trkpt lat="45.30097" lon="6.18552">
        <ele>1627.3</ele>
        <time>2022-01-27T09:17:53Z</time>
      </trkpt>
      <trkpt lat="45.30097" lon="6.18551">
        <ele>1628.3</ele>
        <time>2022-01-27T09:17:54Z</time>
      </trkpt>
      <trkpt lat="45.30098" lon="6.1855">
        <ele>1629</ele>
        <time>2022-01-27T09:17:55Z</time>
      </trkpt>
      <trkpt lat="45.30099" lon="6.18549">
        <ele>1629</ele>
        <time>2022-01-27T09:17:57Z</time>
      </trkpt>
      <trkpt lat="45.30099" lon="6.18548">
        <ele>1629</ele>
        <time>2022-01-27T09:17:58Z</time>
      </trkpt>
      <trkpt lat="45.301" lon="6.18547">
        <ele>1630</ele>
        <time>2022-01-27T09:17:59Z</time>
      </trkpt>
      <trkpt lat="45.301" lon="6.18546">
        <ele>1630</ele>
        <time>2022-01-27T09:18:00Z</time>
      </trkpt>
      <trkpt lat="45.30101" lon="6.18545">
        <ele>1630.7</ele>
        <time>2022-01-27T09:18:02Z</time>
      </trkpt>
      <trkpt lat="45.30102" lon="6.18544">
        <ele>1630.7</ele>
        <time>2022-01-27T09:18:03Z</time>
      </trkpt>
      <trkpt lat="45.30103" lon="6.18543">
        <ele>1631.7</ele>
        <time>2022-01-27T09:18:05Z</time>
      </trkpt>
      <trkpt lat="45.30103" lon="6.18542">
        <ele>1632.5</ele>
        <time>2022-01-27T09:18:06Z</time>
      </trkpt>
      <trkpt lat="45.30104" lon="6.18542">
        <ele>1632.5</ele>
        <time>2022-01-27T09:18:07Z</time>
      </trkpt>
      <trkpt lat="45.30105" lon="6.1854">
        <ele>1632.5</ele>
        <time>2022-01-27T09:18:08Z</time>
      </trkpt>
      <trkpt lat="45.30106" lon="6.18539">
        <ele>1633.5</ele>
        <time>2022-01-27T09:18:10Z</time>
      </trkpt>
      <trkpt lat="45.30107" lon="6.18538">
        <ele>1634.5</ele>
        <time>2022-01-27T09:18:11Z</time>
      </trkpt>
      <trkpt lat="45.30108" lon="6.18537">
        <ele>1634.5</ele>
        <time>2022-01-27T09:18:13Z</time>
      </trkpt>
      <trkpt lat="45.30108" lon="6.18536">
        <ele>1634.5</ele>
        <time>2022-01-27T09:18:14Z</time>
      </trkpt>
      <trkpt lat="45.30108" lon="6.18535">
        <ele>1634.5</ele>
        <time>2022-01-27T09:18:15Z</time>
      </trkpt>
      <trkpt lat="45.30109" lon="6.18534">
        <ele>1635.5</ele>
        <time>2022-01-27T09:18:16Z</time>
      </trkpt>
      <trkpt lat="45.30109" lon="6.18533">
        <ele>1635.5</ele>
        <time>2022-01-27T09:18:17Z</time>
      </trkpt>
      <trkpt lat="45.30109" lon="6.18532">
        <ele>1635.5</ele>
        <time>2022-01-27T09:18:18Z</time>
      </trkpt>
      <trkpt lat="45.30109" lon="6.18531">
        <ele>1635.5</ele>
        <time>2022-01-27T09:18:19Z</time>
      </trkpt>
      <trkpt lat="45.3011" lon="6.1853">
        <ele>1638</ele>
        <time>2022-01-27T09:18:20Z</time>
      </trkpt>
      <trkpt lat="45.3011" lon="6.18529">
        <ele>1638</ele>
        <time>2022-01-27T09:18:21Z</time>
      </trkpt>
      <trkpt lat="45.3011" lon="6.18528">
        <ele>1638</ele>
        <time>2022-01-27T09:18:22Z</time>
      </trkpt>
      <trkpt lat="45.3011" lon="6.18527">
        <ele>1638</ele>
        <time>2022-01-27T09:18:23Z</time>
      </trkpt>
      <trkpt lat="45.3011" lon="6.18526">
        <ele>1639</ele>
        <time>2022-01-27T09:18:24Z</time>
      </trkpt>
      <trkpt lat="45.30109" lon="6.18524">
        <ele>1638.1</ele>
        <time>2022-01-27T09:18:25Z</time>
      </trkpt>
      <trkpt lat="45.30109" lon="6.18522">
        <ele>1638.1</ele>
        <time>2022-01-27T09:18:26Z</time>
      </trkpt>
      <trkpt lat="45.30109" lon="6.18521">
        <ele>1639</ele>
        <time>2022-01-27T09:18:27Z</time>
      </trkpt>
      <trkpt lat="45.30109" lon="6.1852">
        <ele>1639</ele>
        <time>2022-01-27T09:18:28Z</time>
      </trkpt>
      <trkpt lat="45.30109" lon="6.18518">
        <ele>1639</ele>
        <time>2022-01-27T09:18:30Z</time>
      </trkpt>
      <trkpt lat="45.30109" lon="6.18517">
        <ele>1639.8</ele>
        <time>2022-01-27T09:18:31Z</time>
      </trkpt>
      <trkpt lat="45.30109" lon="6.18516">
        <ele>1639.8</ele>
        <time>2022-01-27T09:18:33Z</time>
      </trkpt>
      <trkpt lat="45.30109" lon="6.18515">
        <ele>1639.8</ele>
        <time>2022-01-27T09:18:34Z</time>
      </trkpt>
      <trkpt lat="45.3011" lon="6.18514">
        <ele>1640.7</ele>
        <time>2022-01-27T09:18:35Z</time>
      </trkpt>
      <trkpt lat="45.3011" lon="6.18513">
        <ele>1640.7</ele>
        <time>2022-01-27T09:18:36Z</time>
      </trkpt>
      <trkpt lat="45.3011" lon="6.18512">
        <ele>1641.4</ele>
        <time>2022-01-27T09:18:38Z</time>
      </trkpt>
      <trkpt lat="45.30111" lon="6.18511">
        <ele>1641.4</ele>
        <time>2022-01-27T09:18:39Z</time>
      </trkpt>
      <trkpt lat="45.30111" lon="6.1851">
        <ele>1641.4</ele>
        <time>2022-01-27T09:18:40Z</time>
      </trkpt>
      <trkpt lat="45.30111" lon="6.18509">
        <ele>1641.4</ele>
        <time>2022-01-27T09:18:41Z</time>
      </trkpt>
      <trkpt lat="45.30111" lon="6.18508">
        <ele>1642.1</ele>
        <time>2022-01-27T09:18:42Z</time>
      </trkpt>
      <trkpt lat="45.30111" lon="6.18507">
        <ele>1642.1</ele>
        <time>2022-01-27T09:18:43Z</time>
      </trkpt>
      <trkpt lat="45.30111" lon="6.18505">
        <ele>1642.1</ele>
        <time>2022-01-27T09:18:45Z</time>
      </trkpt>
      <trkpt lat="45.3011" lon="6.18505">
        <ele>1642.1</ele>
        <time>2022-01-27T09:18:46Z</time>
      </trkpt>
      <trkpt lat="45.3011" lon="6.18504">
        <ele>1642.8</ele>
        <time>2022-01-27T09:18:47Z</time>
      </trkpt>
      <trkpt lat="45.3011" lon="6.18503">
        <ele>1642.8</ele>
        <time>2022-01-27T09:18:49Z</time>
      </trkpt>
      <trkpt lat="45.3011" lon="6.18502">
        <ele>1642.8</ele>
        <time>2022-01-27T09:18:50Z</time>
      </trkpt>
      <trkpt lat="45.3011" lon="6.185">
        <ele>1643.5</ele>
        <time>2022-01-27T09:18:51Z</time>
      </trkpt>
      <trkpt lat="45.3011" lon="6.18499">
        <ele>1643.5</ele>
        <time>2022-01-27T09:18:53Z</time>
      </trkpt>
      <trkpt lat="45.3011" lon="6.18498">
        <ele>1643.5</ele>
        <time>2022-01-27T09:18:54Z</time>
      </trkpt>
      <trkpt lat="45.30111" lon="6.18497">
        <ele>1643.5</ele>
        <time>2022-01-27T09:18:55Z</time>
      </trkpt>
      <trkpt lat="45.30111" lon="6.18496">
        <ele>1644.1</ele>
        <time>2022-01-27T09:18:57Z</time>
      </trkpt>
      <trkpt lat="45.30111" lon="6.18495">
        <ele>1644.1</ele>
        <time>2022-01-27T09:18:58Z</time>
      </trkpt>
      <trkpt lat="45.30111" lon="6.18494">
        <ele>1644.1</ele>
        <time>2022-01-27T09:18:59Z</time>
      </trkpt>
      <trkpt lat="45.30112" lon="6.18493">
        <ele>1644.1</ele>
        <time>2022-01-27T09:19:00Z</time>
      </trkpt>
      <trkpt lat="45.30112" lon="6.18492">
        <ele>1644.1</ele>
        <time>2022-01-27T09:19:01Z</time>
      </trkpt>
      <trkpt lat="45.30112" lon="6.18491">
        <ele>1644.7</ele>
        <time>2022-01-27T09:19:03Z</time>
      </trkpt>
      <trkpt lat="45.30113" lon="6.18491">
        <ele>1645.3</ele>
        <time>2022-01-27T09:19:04Z</time>
      </trkpt>
      <trkpt lat="45.30113" lon="6.18489">
        <ele>1645.3</ele>
        <time>2022-01-27T09:19:06Z</time>
      </trkpt>
      <trkpt lat="45.30114" lon="6.18488">
        <ele>1645.3</ele>
        <time>2022-01-27T09:19:07Z</time>
      </trkpt>
      <trkpt lat="45.30114" lon="6.18487">
        <ele>1645.8</ele>
        <time>2022-01-27T09:19:09Z</time>
      </trkpt>
      <trkpt lat="45.30114" lon="6.18486">
        <ele>1645.8</ele>
        <time>2022-01-27T09:19:10Z</time>
      </trkpt>
      <trkpt lat="45.30114" lon="6.18484">
        <ele>1645.8</ele>
        <time>2022-01-27T09:19:11Z</time>
      </trkpt>
      <trkpt lat="45.30114" lon="6.18483">
        <ele>1646.2</ele>
        <time>2022-01-27T09:19:13Z</time>
      </trkpt>
      <trkpt lat="45.30113" lon="6.18482">
        <ele>1646.2</ele>
        <time>2022-01-27T09:19:15Z</time>
      </trkpt>
      <trkpt lat="45.30112" lon="6.18481">
        <ele>1645.7</ele>
        <time>2022-01-27T09:19:18Z</time>
      </trkpt>
      <trkpt lat="45.30112" lon="6.18482">
        <ele>1645.7</ele>
        <time>2022-01-27T09:19:19Z</time>
      </trkpt>
      <trkpt lat="45.30111" lon="6.18482">
        <ele>1645.7</ele>
        <time>2022-01-27T09:19:20Z</time>
      </trkpt>
      <trkpt lat="45.3011" lon="6.18482">
        <ele>1645.7</ele>
        <time>2022-01-27T09:19:21Z</time>
      </trkpt>
      <trkpt lat="45.3011" lon="6.18483">
        <ele>1645.7</ele>
        <time>2022-01-27T09:19:22Z</time>
      </trkpt>
      <trkpt lat="45.30109" lon="6.18483">
        <ele>1644.7</ele>
        <time>2022-01-27T09:19:24Z</time>
      </trkpt>
      <trkpt lat="45.30108" lon="6.18483">
        <ele>1644.7</ele>
        <time>2022-01-27T09:19:25Z</time>
      </trkpt>
      <trkpt lat="45.30107" lon="6.18483">
        <ele>1644.7</ele>
        <time>2022-01-27T09:19:26Z</time>
      </trkpt>
      <trkpt lat="45.30107" lon="6.18482">
        <ele>1645.3</ele>
        <time>2022-01-27T09:19:28Z</time>
      </trkpt>
      <trkpt lat="45.30107" lon="6.18481">
        <ele>1645.3</ele>
        <time>2022-01-27T09:19:29Z</time>
      </trkpt>
      <trkpt lat="45.30107" lon="6.1848">
        <ele>1645.3</ele>
        <time>2022-01-27T09:19:30Z</time>
      </trkpt>
      <trkpt lat="45.30107" lon="6.18479">
        <ele>1645.3</ele>
        <time>2022-01-27T09:19:32Z</time>
      </trkpt>
      <trkpt lat="45.30108" lon="6.18478">
        <ele>1645.8</ele>
        <time>2022-01-27T09:19:33Z</time>
      </trkpt>
      <trkpt lat="45.30108" lon="6.18476">
        <ele>1645.8</ele>
        <time>2022-01-27T09:19:35Z</time>
      </trkpt>
      <trkpt lat="45.30108" lon="6.18475">
        <ele>1645.8</ele>
        <time>2022-01-27T09:19:37Z</time>
      </trkpt>
      <trkpt lat="45.30108" lon="6.18474">
        <ele>1646.3</ele>
        <time>2022-01-27T09:19:38Z</time>
      </trkpt>
      <trkpt lat="45.30109" lon="6.18472">
        <ele>1646.3</ele>
        <time>2022-01-27T09:19:40Z</time>
      </trkpt>
      <trkpt lat="45.30109" lon="6.18471">
        <ele>1646.3</ele>
        <time>2022-01-27T09:19:41Z</time>
      </trkpt>
      <trkpt lat="45.3011" lon="6.18471">
        <ele>1646.6</ele>
        <time>2022-01-27T09:19:42Z</time>
      </trkpt>
      <trkpt lat="45.3011" lon="6.1847">
        <ele>1646.6</ele>
        <time>2022-01-27T09:19:43Z</time>
      </trkpt>
      <trkpt lat="45.30112" lon="6.18469">
        <ele>1647.1</ele>
        <time>2022-01-27T09:19:45Z</time>
      </trkpt>
      <trkpt lat="45.30113" lon="6.18468">
        <ele>1647.4</ele>
        <time>2022-01-27T09:19:48Z</time>
      </trkpt>
      <trkpt lat="45.30114" lon="6.18468">
        <ele>1647.4</ele>
        <time>2022-01-27T09:19:50Z</time>
      </trkpt>
      <trkpt lat="45.30115" lon="6.18467">
        <ele>1647.4</ele>
        <time>2022-01-27T09:19:52Z</time>
      </trkpt>
      <trkpt lat="45.30116" lon="6.18466">
        <ele>1647.7</ele>
        <time>2022-01-27T09:19:53Z</time>
      </trkpt>
      <trkpt lat="45.30117" lon="6.18466">
        <ele>1648</ele>
        <time>2022-01-27T09:19:54Z</time>
      </trkpt>
      <trkpt lat="45.30118" lon="6.18465">
        <ele>1648</ele>
        <time>2022-01-27T09:19:56Z</time>
      </trkpt>
      <trkpt lat="45.30119" lon="6.18464">
        <ele>1648.3</ele>
        <time>2022-01-27T09:19:58Z</time>
      </trkpt>
      <trkpt lat="45.3012" lon="6.18463">
        <ele>1648.3</ele>
        <time>2022-01-27T09:20:00Z</time>
      </trkpt>
      <trkpt lat="45.30121" lon="6.18462">
        <ele>1648.3</ele>
        <time>2022-01-27T09:20:02Z</time>
      </trkpt>
      <trkpt lat="45.30122" lon="6.18462">
        <ele>1648.6</ele>
        <time>2022-01-27T09:20:03Z</time>
      </trkpt>
      <trkpt lat="45.30122" lon="6.18461">
        <ele>1648.9</ele>
        <time>2022-01-27T09:20:04Z</time>
      </trkpt>
      <trkpt lat="45.30123" lon="6.1846">
        <ele>1648.9</ele>
        <time>2022-01-27T09:20:06Z</time>
      </trkpt>
      <trkpt lat="45.30124" lon="6.18458">
        <ele>1648.9</ele>
        <time>2022-01-27T09:20:08Z</time>
      </trkpt>
      <trkpt lat="45.30124" lon="6.18457">
        <ele>1648.9</ele>
        <time>2022-01-27T09:20:09Z</time>
      </trkpt>
      <trkpt lat="45.30125" lon="6.18456">
        <ele>1649.4</ele>
        <time>2022-01-27T09:20:11Z</time>
      </trkpt>
      <trkpt lat="45.30125" lon="6.18455">
        <ele>1649.4</ele>
        <time>2022-01-27T09:20:13Z</time>
      </trkpt>
      <trkpt lat="45.30126" lon="6.18454">
        <ele>1649.4</ele>
        <time>2022-01-27T09:20:14Z</time>
      </trkpt>
      <trkpt lat="45.30126" lon="6.18453">
        <ele>1649.4</ele>
        <time>2022-01-27T09:20:15Z</time>
      </trkpt>
      <trkpt lat="45.30127" lon="6.18453">
        <ele>1649.7</ele>
        <time>2022-01-27T09:20:16Z</time>
      </trkpt>
      <trkpt lat="45.30127" lon="6.18452">
        <ele>1649.7</ele>
        <time>2022-01-27T09:20:17Z</time>
      </trkpt>
      <trkpt lat="45.30128" lon="6.18452">
        <ele>1650.1</ele>
        <time>2022-01-27T09:20:18Z</time>
      </trkpt>
      <trkpt lat="45.30129" lon="6.18451">
        <ele>1650.1</ele>
        <time>2022-01-27T09:20:21Z</time>
      </trkpt>
      <trkpt lat="45.3013" lon="6.18451">
        <ele>1650.1</ele>
        <time>2022-01-27T09:20:23Z</time>
      </trkpt>
      <trkpt lat="45.30131" lon="6.1845">
        <ele>1650.6</ele>
        <time>2022-01-27T09:20:24Z</time>
      </trkpt>
      <trkpt lat="45.30132" lon="6.1845">
        <ele>1650.6</ele>
        <time>2022-01-27T09:20:25Z</time>
      </trkpt>
      <trkpt lat="45.30132" lon="6.18449">
        <ele>1650.6</ele>
        <time>2022-01-27T09:20:26Z</time>
      </trkpt>
      <trkpt lat="45.30133" lon="6.18449">
        <ele>1650.8</ele>
        <time>2022-01-27T09:20:28Z</time>
      </trkpt>
      <trkpt lat="45.30133" lon="6.18448">
        <ele>1650.8</ele>
        <time>2022-01-27T09:20:29Z</time>
      </trkpt>
      <trkpt lat="45.30133" lon="6.18447">
        <ele>1650.8</ele>
        <time>2022-01-27T09:20:30Z</time>
      </trkpt>
      <trkpt lat="45.30133" lon="6.18446">
        <ele>1650.8</ele>
        <time>2022-01-27T09:20:32Z</time>
      </trkpt>
      <trkpt lat="45.30133" lon="6.18445">
        <ele>1650.8</ele>
        <time>2022-01-27T09:20:35Z</time>
      </trkpt>
      <trkpt lat="45.30133" lon="6.18441">
        <ele>1651.2</ele>
        <time>2022-01-27T09:20:40Z</time>
      </trkpt>
      <trkpt lat="45.30133" lon="6.18439">
        <ele>1651.5</ele>
        <time>2022-01-27T09:20:41Z</time>
      </trkpt>
      <trkpt lat="45.30134" lon="6.18439">
        <ele>1652</ele>
        <time>2022-01-27T09:20:42Z</time>
      </trkpt>
      <trkpt lat="45.30134" lon="6.18438">
        <ele>1652</ele>
        <time>2022-01-27T09:20:43Z</time>
      </trkpt>
      <trkpt lat="45.30135" lon="6.18437">
        <ele>1652</ele>
        <time>2022-01-27T09:20:44Z</time>
      </trkpt>
      <trkpt lat="45.30136" lon="6.18437">
        <ele>1652</ele>
        <time>2022-01-27T09:20:45Z</time>
      </trkpt>
      <trkpt lat="45.30137" lon="6.18437">
        <ele>1652.5</ele>
        <time>2022-01-27T09:20:49Z</time>
      </trkpt>
      <trkpt lat="45.30138" lon="6.18436">
        <ele>1652.5</ele>
        <time>2022-01-27T09:20:51Z</time>
      </trkpt>
      <trkpt lat="45.30139" lon="6.18436">
        <ele>1652.8</ele>
        <time>2022-01-27T09:20:53Z</time>
      </trkpt>
      <trkpt lat="45.30138" lon="6.18428">
        <ele>1653.1</ele>
        <time>2022-01-27T09:21:10Z</time>
      </trkpt>
      <trkpt lat="45.30136" lon="6.18426">
        <ele>1653</ele>
        <time>2022-01-27T09:21:12Z</time>
      </trkpt>
      <trkpt lat="45.30136" lon="6.18425">
        <ele>1653</ele>
        <time>2022-01-27T09:21:13Z</time>
      </trkpt>
      <trkpt lat="45.30136" lon="6.18424">
        <ele>1653</ele>
        <time>2022-01-27T09:21:15Z</time>
      </trkpt>
      <trkpt lat="45.30136" lon="6.18423">
        <ele>1653</ele>
        <time>2022-01-27T09:21:17Z</time>
      </trkpt>
      <trkpt lat="45.30135" lon="6.18422">
        <ele>1653.3</ele>
        <time>2022-01-27T09:21:18Z</time>
      </trkpt>
      <trkpt lat="45.30135" lon="6.18421">
        <ele>1653.3</ele>
        <time>2022-01-27T09:21:20Z</time>
      </trkpt>
      <trkpt lat="45.30135" lon="6.1842">
        <ele>1653.3</ele>
        <time>2022-01-27T09:21:21Z</time>
      </trkpt>
      <trkpt lat="45.30135" lon="6.18419">
        <ele>1653.3</ele>
        <time>2022-01-27T09:21:22Z</time>
      </trkpt>
      <trkpt lat="45.30134" lon="6.18415">
        <ele>1653.7</ele>
        <time>2022-01-27T09:21:24Z</time>
      </trkpt>
      <trkpt lat="45.30134" lon="6.18413">
        <ele>1654.1</ele>
        <time>2022-01-27T09:21:26Z</time>
      </trkpt>
      <trkpt lat="45.30133" lon="6.18412">
        <ele>1653.7</ele>
        <time>2022-01-27T09:21:27Z</time>
      </trkpt>
      <trkpt lat="45.30133" lon="6.18411">
        <ele>1653.7</ele>
        <time>2022-01-27T09:21:28Z</time>
      </trkpt>
      <trkpt lat="45.30133" lon="6.1841">
        <ele>1653.7</ele>
        <time>2022-01-27T09:21:29Z</time>
      </trkpt>
      <trkpt lat="45.30132" lon="6.1841">
        <ele>1654.2</ele>
        <time>2022-01-27T09:21:30Z</time>
      </trkpt>
      <trkpt lat="45.30132" lon="6.18408">
        <ele>1654.2</ele>
        <time>2022-01-27T09:21:31Z</time>
      </trkpt>
      <trkpt lat="45.30132" lon="6.18407">
        <ele>1654.2</ele>
        <time>2022-01-27T09:21:32Z</time>
      </trkpt>
      <trkpt lat="45.30131" lon="6.18406">
        <ele>1654.2</ele>
        <time>2022-01-27T09:21:33Z</time>
      </trkpt>
      <trkpt lat="45.30131" lon="6.18405">
        <ele>1654.7</ele>
        <time>2022-01-27T09:21:34Z</time>
      </trkpt>
      <trkpt lat="45.30131" lon="6.18404">
        <ele>1654.3</ele>
        <time>2022-01-27T09:21:35Z</time>
      </trkpt>
      <trkpt lat="45.3013" lon="6.18403">
        <ele>1654.3</ele>
        <time>2022-01-27T09:21:36Z</time>
      </trkpt>
      <trkpt lat="45.3013" lon="6.18402">
        <ele>1654.8</ele>
        <time>2022-01-27T09:21:37Z</time>
      </trkpt>
      <trkpt lat="45.3013" lon="6.184">
        <ele>1654.8</ele>
        <time>2022-01-27T09:21:38Z</time>
      </trkpt>
      <trkpt lat="45.30129" lon="6.18399">
        <ele>1654.8</ele>
        <time>2022-01-27T09:21:39Z</time>
      </trkpt>
      <trkpt lat="45.30129" lon="6.18398">
        <ele>1654.8</ele>
        <time>2022-01-27T09:21:40Z</time>
      </trkpt>
      <trkpt lat="45.30129" lon="6.18396">
        <ele>1655.3</ele>
        <time>2022-01-27T09:21:41Z</time>
      </trkpt>
      <trkpt lat="45.30129" lon="6.18395">
        <ele>1655.3</ele>
        <time>2022-01-27T09:21:42Z</time>
      </trkpt>
      <trkpt lat="45.30129" lon="6.18394">
        <ele>1655.3</ele>
        <time>2022-01-27T09:21:43Z</time>
      </trkpt>
      <trkpt lat="45.30129" lon="6.18393">
        <ele>1655.3</ele>
        <time>2022-01-27T09:21:44Z</time>
      </trkpt>
      <trkpt lat="45.30129" lon="6.18392">
        <ele>1655.9</ele>
        <time>2022-01-27T09:21:45Z</time>
      </trkpt>
      <trkpt lat="45.30129" lon="6.18391">
        <ele>1655.9</ele>
        <time>2022-01-27T09:21:46Z</time>
      </trkpt>
      <trkpt lat="45.30129" lon="6.1839">
        <ele>1655.9</ele>
        <time>2022-01-27T09:21:47Z</time>
      </trkpt>
      <trkpt lat="45.30129" lon="6.18389">
        <ele>1655.9</ele>
        <time>2022-01-27T09:21:48Z</time>
      </trkpt>
      <trkpt lat="45.30129" lon="6.18388">
        <ele>1656.4</ele>
        <time>2022-01-27T09:21:49Z</time>
      </trkpt>
      <trkpt lat="45.30129" lon="6.18387">
        <ele>1656.4</ele>
        <time>2022-01-27T09:21:50Z</time>
      </trkpt>
      <trkpt lat="45.30129" lon="6.18385">
        <ele>1656.4</ele>
        <time>2022-01-27T09:21:51Z</time>
      </trkpt>
      <trkpt lat="45.30129" lon="6.18384">
        <ele>1656.9</ele>
        <time>2022-01-27T09:21:52Z</time>
      </trkpt>
      <trkpt lat="45.3013" lon="6.18383">
        <ele>1656.9</ele>
        <time>2022-01-27T09:21:54Z</time>
      </trkpt>
      <trkpt lat="45.3013" lon="6.18382">
        <ele>1656.9</ele>
        <time>2022-01-27T09:21:55Z</time>
      </trkpt>
      <trkpt lat="45.3013" lon="6.1838">
        <ele>1657.4</ele>
        <time>2022-01-27T09:21:56Z</time>
      </trkpt>
      <trkpt lat="45.3013" lon="6.18378">
        <ele>1657.4</ele>
        <time>2022-01-27T09:21:58Z</time>
      </trkpt>
      <trkpt lat="45.3013" lon="6.18377">
        <ele>1657.4</ele>
        <time>2022-01-27T09:21:59Z</time>
      </trkpt>
      <trkpt lat="45.30131" lon="6.18376">
        <ele>1657.4</ele>
        <time>2022-01-27T09:22:01Z</time>
      </trkpt>
      <trkpt lat="45.30131" lon="6.18375">
        <ele>1658.2</ele>
        <time>2022-01-27T09:22:03Z</time>
      </trkpt>
      <trkpt lat="45.30132" lon="6.18374">
        <ele>1658.2</ele>
        <time>2022-01-27T09:22:04Z</time>
      </trkpt>
      <trkpt lat="45.30132" lon="6.18372">
        <ele>1658.2</ele>
        <time>2022-01-27T09:22:06Z</time>
      </trkpt>
      <trkpt lat="45.30133" lon="6.18372">
        <ele>1658.2</ele>
        <time>2022-01-27T09:22:08Z</time>
      </trkpt>
      <trkpt lat="45.30133" lon="6.18371">
        <ele>1658.8</ele>
        <time>2022-01-27T09:22:09Z</time>
      </trkpt>
      <trkpt lat="45.30134" lon="6.1837">
        <ele>1659.2</ele>
        <time>2022-01-27T09:22:10Z</time>
      </trkpt>
      <trkpt lat="45.30135" lon="6.18368">
        <ele>1659.2</ele>
        <time>2022-01-27T09:22:13Z</time>
      </trkpt>
      <trkpt lat="45.30135" lon="6.18367">
        <ele>1659.8</ele>
        <time>2022-01-27T09:22:14Z</time>
      </trkpt>
      <trkpt lat="45.30135" lon="6.18366">
        <ele>1659.8</ele>
        <time>2022-01-27T09:22:15Z</time>
      </trkpt>
      <trkpt lat="45.30136" lon="6.18365">
        <ele>1659.8</ele>
        <time>2022-01-27T09:22:16Z</time>
      </trkpt>
      <trkpt lat="45.30136" lon="6.18364">
        <ele>1659.8</ele>
        <time>2022-01-27T09:22:18Z</time>
      </trkpt>
      <trkpt lat="45.30136" lon="6.18363">
        <ele>1660.5</ele>
        <time>2022-01-27T09:22:19Z</time>
      </trkpt>
      <trkpt lat="45.30136" lon="6.18362">
        <ele>1660.5</ele>
        <time>2022-01-27T09:22:20Z</time>
      </trkpt>
      <trkpt lat="45.30136" lon="6.1836">
        <ele>1660.5</ele>
        <time>2022-01-27T09:22:22Z</time>
      </trkpt>
      <trkpt lat="45.30137" lon="6.18358">
        <ele>1661.6</ele>
        <time>2022-01-27T09:22:23Z</time>
      </trkpt>
      <trkpt lat="45.30137" lon="6.18357">
        <ele>1661.6</ele>
        <time>2022-01-27T09:22:24Z</time>
      </trkpt>
      <trkpt lat="45.30138" lon="6.18357">
        <ele>1661.6</ele>
        <time>2022-01-27T09:22:25Z</time>
      </trkpt>
      <trkpt lat="45.30139" lon="6.18355">
        <ele>1661.6</ele>
        <time>2022-01-27T09:22:27Z</time>
      </trkpt>
      <trkpt lat="45.30139" lon="6.18354">
        <ele>1662.3</ele>
        <time>2022-01-27T09:22:28Z</time>
      </trkpt>
      <trkpt lat="45.3014" lon="6.18353">
        <ele>1662.8</ele>
        <time>2022-01-27T09:22:29Z</time>
      </trkpt>
      <trkpt lat="45.3014" lon="6.18352">
        <ele>1662.8</ele>
        <time>2022-01-27T09:22:30Z</time>
      </trkpt>
      <trkpt lat="45.30141" lon="6.18351">
        <ele>1662.8</ele>
        <time>2022-01-27T09:22:32Z</time>
      </trkpt>
      <trkpt lat="45.30142" lon="6.1835">
        <ele>1663.5</ele>
        <time>2022-01-27T09:22:33Z</time>
      </trkpt>
      <trkpt lat="45.30143" lon="6.18348">
        <ele>1664</ele>
        <time>2022-01-27T09:22:34Z</time>
      </trkpt>
      <trkpt lat="45.30144" lon="6.18347">
        <ele>1664</ele>
        <time>2022-01-27T09:22:36Z</time>
      </trkpt>
      <trkpt lat="45.30145" lon="6.18345">
        <ele>1664.6</ele>
        <time>2022-01-27T09:22:38Z</time>
      </trkpt>
      <trkpt lat="45.30146" lon="6.18344">
        <ele>1664.6</ele>
        <time>2022-01-27T09:22:39Z</time>
      </trkpt>
      <trkpt lat="45.30146" lon="6.18343">
        <ele>1665.1</ele>
        <time>2022-01-27T09:22:40Z</time>
      </trkpt>
      <trkpt lat="45.30146" lon="6.18342">
        <ele>1665.1</ele>
        <time>2022-01-27T09:22:41Z</time>
      </trkpt>
      <trkpt lat="45.30147" lon="6.18342">
        <ele>1665.1</ele>
        <time>2022-01-27T09:22:42Z</time>
      </trkpt>
      <trkpt lat="45.30147" lon="6.18341">
        <ele>1665.7</ele>
        <time>2022-01-27T09:22:44Z</time>
      </trkpt>
      <trkpt lat="45.30147" lon="6.1834">
        <ele>1665.7</ele>
        <time>2022-01-27T09:22:45Z</time>
      </trkpt>
      <trkpt lat="45.30148" lon="6.18339">
        <ele>1665.7</ele>
        <time>2022-01-27T09:22:46Z</time>
      </trkpt>
      <trkpt lat="45.30149" lon="6.18337">
        <ele>1666.3</ele>
        <time>2022-01-27T09:22:47Z</time>
      </trkpt>
      <trkpt lat="45.30149" lon="6.18336">
        <ele>1666.9</ele>
        <time>2022-01-27T09:22:49Z</time>
      </trkpt>
      <trkpt lat="45.30149" lon="6.18335">
        <ele>1666.9</ele>
        <time>2022-01-27T09:22:50Z</time>
      </trkpt>
      <trkpt lat="45.30149" lon="6.18334">
        <ele>1666.9</ele>
        <time>2022-01-27T09:22:51Z</time>
      </trkpt>
      <trkpt lat="45.3015" lon="6.18333">
        <ele>1667.5</ele>
        <time>2022-01-27T09:22:52Z</time>
      </trkpt>
      <trkpt lat="45.3015" lon="6.18332">
        <ele>1667.5</ele>
        <time>2022-01-27T09:22:53Z</time>
      </trkpt>
      <trkpt lat="45.3015" lon="6.18331">
        <ele>1667.5</ele>
        <time>2022-01-27T09:22:54Z</time>
      </trkpt>
      <trkpt lat="45.3015" lon="6.1833">
        <ele>1667.5</ele>
        <time>2022-01-27T09:22:55Z</time>
      </trkpt>
      <trkpt lat="45.3015" lon="6.18329">
        <ele>1667.5</ele>
        <time>2022-01-27T09:22:56Z</time>
      </trkpt>
      <trkpt lat="45.3015" lon="6.18327">
        <ele>1668.1</ele>
        <time>2022-01-27T09:22:57Z</time>
      </trkpt>
      <trkpt lat="45.3015" lon="6.18325">
        <ele>1668.1</ele>
        <time>2022-01-27T09:22:59Z</time>
      </trkpt>
      <trkpt lat="45.3015" lon="6.18324">
        <ele>1668.8</ele>
        <time>2022-01-27T09:23:00Z</time>
      </trkpt>
      <trkpt lat="45.3015" lon="6.18323">
        <ele>1668.8</ele>
        <time>2022-01-27T09:23:01Z</time>
      </trkpt>
      <trkpt lat="45.30149" lon="6.18322">
        <ele>1668.8</ele>
        <time>2022-01-27T09:23:02Z</time>
      </trkpt>
      <trkpt lat="45.3015" lon="6.18321">
        <ele>1668.8</ele>
        <time>2022-01-27T09:23:03Z</time>
      </trkpt>
      <trkpt lat="45.3015" lon="6.1832">
        <ele>1668.8</ele>
        <time>2022-01-27T09:23:04Z</time>
      </trkpt>
      <trkpt lat="45.3015" lon="6.18319">
        <ele>1669.5</ele>
        <time>2022-01-27T09:23:06Z</time>
      </trkpt>
      <trkpt lat="45.30151" lon="6.18318">
        <ele>1669.5</ele>
        <time>2022-01-27T09:23:07Z</time>
      </trkpt>
      <trkpt lat="45.30151" lon="6.18317">
        <ele>1669.5</ele>
        <time>2022-01-27T09:23:08Z</time>
      </trkpt>
      <trkpt lat="45.30152" lon="6.18316">
        <ele>1669.5</ele>
        <time>2022-01-27T09:23:10Z</time>
      </trkpt>
      <trkpt lat="45.30152" lon="6.18315">
        <ele>1670.8</ele>
        <time>2022-01-27T09:23:11Z</time>
      </trkpt>
      <trkpt lat="45.30152" lon="6.18314">
        <ele>1670.8</ele>
        <time>2022-01-27T09:23:12Z</time>
      </trkpt>
      <trkpt lat="45.30153" lon="6.18313">
        <ele>1670.8</ele>
        <time>2022-01-27T09:23:14Z</time>
      </trkpt>
      <trkpt lat="45.30153" lon="6.18312">
        <ele>1670.8</ele>
        <time>2022-01-27T09:23:15Z</time>
      </trkpt>
      <trkpt lat="45.30153" lon="6.18311">
        <ele>1671.7</ele>
        <time>2022-01-27T09:23:17Z</time>
      </trkpt>
      <trkpt lat="45.30154" lon="6.1831">
        <ele>1671.7</ele>
        <time>2022-01-27T09:23:18Z</time>
      </trkpt>
      <trkpt lat="45.30154" lon="6.18309">
        <ele>1671.7</ele>
        <time>2022-01-27T09:24:32Z</time>
      </trkpt>
      <trkpt lat="45.30154" lon="6.18308">
        <ele>1671.7</ele>
        <time>2022-01-27T09:24:34Z</time>
      </trkpt>
      <trkpt lat="45.30154" lon="6.18304">
        <ele>1672.5</ele>
        <time>2022-01-27T09:24:35Z</time>
      </trkpt>
      <trkpt lat="45.30155" lon="6.18299">
        <ele>1673.9</ele>
        <time>2022-01-27T09:24:37Z</time>
      </trkpt>
      <trkpt lat="45.30156" lon="6.18297">
        <ele>1674.8</ele>
        <time>2022-01-27T09:24:38Z</time>
      </trkpt>
      <trkpt lat="45.30156" lon="6.18296">
        <ele>1674.8</ele>
        <time>2022-01-27T09:24:39Z</time>
      </trkpt>
      <trkpt lat="45.30156" lon="6.18295">
        <ele>1674.8</ele>
        <time>2022-01-27T09:24:40Z</time>
      </trkpt>
      <trkpt lat="45.30157" lon="6.18292">
        <ele>1675.7</ele>
        <time>2022-01-27T09:24:42Z</time>
      </trkpt>
      <trkpt lat="45.30158" lon="6.1829">
        <ele>1675.7</ele>
        <time>2022-01-27T09:24:43Z</time>
      </trkpt>
      <trkpt lat="45.30158" lon="6.18287">
        <ele>1677.1</ele>
        <time>2022-01-27T09:24:44Z</time>
      </trkpt>
      <trkpt lat="45.30158" lon="6.18286">
        <ele>1677.1</ele>
        <time>2022-01-27T09:24:45Z</time>
      </trkpt>
      <trkpt lat="45.30159" lon="6.18285">
        <ele>1678</ele>
        <time>2022-01-27T09:24:46Z</time>
      </trkpt>
      <trkpt lat="45.30159" lon="6.18281">
        <ele>1678.9</ele>
        <time>2022-01-27T09:24:47Z</time>
      </trkpt>
      <trkpt lat="45.3016" lon="6.18278">
        <ele>1678.9</ele>
        <time>2022-01-27T09:24:49Z</time>
      </trkpt>
      <trkpt lat="45.30161" lon="6.18277">
        <ele>1680.5</ele>
        <time>2022-01-27T09:24:51Z</time>
      </trkpt>
      <trkpt lat="45.30162" lon="6.18275">
        <ele>1680.5</ele>
        <time>2022-01-27T09:24:52Z</time>
      </trkpt>
      <trkpt lat="45.30162" lon="6.18274">
        <ele>1680.5</ele>
        <time>2022-01-27T09:24:53Z</time>
      </trkpt>
      <trkpt lat="45.30162" lon="6.18273">
        <ele>1681.5</ele>
        <time>2022-01-27T09:24:54Z</time>
      </trkpt>
      <trkpt lat="45.30163" lon="6.18272">
        <ele>1681.5</ele>
        <time>2022-01-27T09:24:55Z</time>
      </trkpt>
      <trkpt lat="45.30163" lon="6.18271">
        <ele>1681.5</ele>
        <time>2022-01-27T09:24:56Z</time>
      </trkpt>
      <trkpt lat="45.30164" lon="6.1827">
        <ele>1682.1</ele>
        <time>2022-01-27T09:24:57Z</time>
      </trkpt>
      <trkpt lat="45.30164" lon="6.18269">
        <ele>1682.1</ele>
        <time>2022-01-27T09:24:58Z</time>
      </trkpt>
      <trkpt lat="45.30165" lon="6.18268">
        <ele>1683.1</ele>
        <time>2022-01-27T09:24:59Z</time>
      </trkpt>
      <trkpt lat="45.30165" lon="6.18267">
        <ele>1683.1</ele>
        <time>2022-01-27T09:25:00Z</time>
      </trkpt>
      <trkpt lat="45.30166" lon="6.18267">
        <ele>1683.1</ele>
        <time>2022-01-27T09:25:01Z</time>
      </trkpt>
      <trkpt lat="45.30167" lon="6.18266">
        <ele>1683.1</ele>
        <time>2022-01-27T09:25:02Z</time>
      </trkpt>
      <trkpt lat="45.30167" lon="6.18265">
        <ele>1683.8</ele>
        <time>2022-01-27T09:25:03Z</time>
      </trkpt>
      <trkpt lat="45.30168" lon="6.18264">
        <ele>1683.8</ele>
        <time>2022-01-27T09:25:04Z</time>
      </trkpt>
      <trkpt lat="45.30168" lon="6.18262">
        <ele>1684.8</ele>
        <time>2022-01-27T09:25:07Z</time>
      </trkpt>
      <trkpt lat="45.30168" lon="6.18261">
        <ele>1684.8</ele>
        <time>2022-01-27T09:25:10Z</time>
      </trkpt>
      <trkpt lat="45.30168" lon="6.1826">
        <ele>1684.8</ele>
        <time>2022-01-27T09:25:11Z</time>
      </trkpt>
      <trkpt lat="45.30168" lon="6.18259">
        <ele>1685.8</ele>
        <time>2022-01-27T09:25:13Z</time>
      </trkpt>
      <trkpt lat="45.30169" lon="6.18258">
        <ele>1685.8</ele>
        <time>2022-01-27T09:25:15Z</time>
      </trkpt>
      <trkpt lat="45.30169" lon="6.18257">
        <ele>1685.8</ele>
        <time>2022-01-27T09:25:16Z</time>
      </trkpt>
      <trkpt lat="45.30169" lon="6.18256">
        <ele>1685.8</ele>
        <time>2022-01-27T09:25:18Z</time>
      </trkpt>
      <trkpt lat="45.30169" lon="6.18255">
        <ele>1686.8</ele>
        <time>2022-01-27T09:25:22Z</time>
      </trkpt>
      <trkpt lat="45.30169" lon="6.18254">
        <ele>1686.8</ele>
        <time>2022-01-27T09:25:24Z</time>
      </trkpt>
      <trkpt lat="45.30169" lon="6.18253">
        <ele>1686.8</ele>
        <time>2022-01-27T09:25:27Z</time>
      </trkpt>
      <trkpt lat="45.30169" lon="6.18252">
        <ele>1686.8</ele>
        <time>2022-01-27T09:25:28Z</time>
      </trkpt>
      <trkpt lat="45.3017" lon="6.18251">
        <ele>1686.8</ele>
        <time>2022-01-27T09:25:29Z</time>
      </trkpt>
      <trkpt lat="45.3017" lon="6.1825">
        <ele>1688.4</ele>
        <time>2022-01-27T09:25:31Z</time>
      </trkpt>
      <trkpt lat="45.30171" lon="6.18249">
        <ele>1688.4</ele>
        <time>2022-01-27T09:25:32Z</time>
      </trkpt>
      <trkpt lat="45.30172" lon="6.18248">
        <ele>1688.4</ele>
        <time>2022-01-27T09:25:34Z</time>
      </trkpt>
      <trkpt lat="45.30172" lon="6.18247">
        <ele>1689.3</ele>
        <time>2022-01-27T09:25:35Z</time>
      </trkpt>
      <trkpt lat="45.30172" lon="6.18245">
        <ele>1689.3</ele>
        <time>2022-01-27T09:25:37Z</time>
      </trkpt>
      <trkpt lat="45.30172" lon="6.18244">
        <ele>1689.3</ele>
        <time>2022-01-27T09:25:38Z</time>
      </trkpt>
      <trkpt lat="45.30172" lon="6.18243">
        <ele>1690.2</ele>
        <time>2022-01-27T09:25:40Z</time>
      </trkpt>
      <trkpt lat="45.30173" lon="6.18241">
        <ele>1690.2</ele>
        <time>2022-01-27T09:25:41Z</time>
      </trkpt>
      <trkpt lat="45.30173" lon="6.1824">
        <ele>1690.2</ele>
        <time>2022-01-27T09:25:42Z</time>
      </trkpt>
      <trkpt lat="45.30173" lon="6.18239">
        <ele>1690.8</ele>
        <time>2022-01-27T09:25:44Z</time>
      </trkpt>
      <trkpt lat="45.30173" lon="6.18238">
        <ele>1691.6</ele>
        <time>2022-01-27T09:25:45Z</time>
      </trkpt>
      <trkpt lat="45.30174" lon="6.18236">
        <ele>1691.6</ele>
        <time>2022-01-27T09:25:47Z</time>
      </trkpt>
      <trkpt lat="45.30174" lon="6.18235">
        <ele>1691.6</ele>
        <time>2022-01-27T09:25:48Z</time>
      </trkpt>
      <trkpt lat="45.30175" lon="6.18233">
        <ele>1692.4</ele>
        <time>2022-01-27T09:25:50Z</time>
      </trkpt>
      <trkpt lat="45.30176" lon="6.18231">
        <ele>1692.4</ele>
        <time>2022-01-27T09:25:52Z</time>
      </trkpt>
      <trkpt lat="45.30176" lon="6.1823">
        <ele>1693.7</ele>
        <time>2022-01-27T09:25:53Z</time>
      </trkpt>
      <trkpt lat="45.30177" lon="6.18229">
        <ele>1693.7</ele>
        <time>2022-01-27T09:25:54Z</time>
      </trkpt>
      <trkpt lat="45.30177" lon="6.18228">
        <ele>1693.7</ele>
        <time>2022-01-27T09:25:55Z</time>
      </trkpt>
      <trkpt lat="45.30178" lon="6.18228">
        <ele>1693.7</ele>
        <time>2022-01-27T09:25:56Z</time>
      </trkpt>
      <trkpt lat="45.30178" lon="6.18227">
        <ele>1693.7</ele>
        <time>2022-01-27T09:25:57Z</time>
      </trkpt>
      <trkpt lat="45.30178" lon="6.18226">
        <ele>1693.7</ele>
        <time>2022-01-27T09:25:58Z</time>
      </trkpt>
      <trkpt lat="45.30179" lon="6.18225">
        <ele>1694.6</ele>
        <time>2022-01-27T09:25:59Z</time>
      </trkpt>
      <trkpt lat="45.30179" lon="6.18224">
        <ele>1694.9</ele>
        <time>2022-01-27T09:26:00Z</time>
      </trkpt>
      <trkpt lat="45.3018" lon="6.18224">
        <ele>1694.9</ele>
        <time>2022-01-27T09:26:01Z</time>
      </trkpt>
      <trkpt lat="45.30181" lon="6.18223">
        <ele>1694.9</ele>
        <time>2022-01-27T09:26:02Z</time>
      </trkpt>
      <trkpt lat="45.30181" lon="6.18222">
        <ele>1694.9</ele>
        <time>2022-01-27T09:26:03Z</time>
      </trkpt>
      <trkpt lat="45.30182" lon="6.18221">
        <ele>1695.8</ele>
        <time>2022-01-27T09:26:04Z</time>
      </trkpt>
      <trkpt lat="45.30183" lon="6.1822">
        <ele>1696.2</ele>
        <time>2022-01-27T09:26:06Z</time>
      </trkpt>
      <trkpt lat="45.30183" lon="6.18219">
        <ele>1696.2</ele>
        <time>2022-01-27T09:26:07Z</time>
      </trkpt>
      <trkpt lat="45.30184" lon="6.18218">
        <ele>1696.2</ele>
        <time>2022-01-27T09:26:09Z</time>
      </trkpt>
      <trkpt lat="45.30184" lon="6.18217">
        <ele>1696.2</ele>
        <time>2022-01-27T09:26:10Z</time>
      </trkpt>
      <trkpt lat="45.30185" lon="6.18216">
        <ele>1697</ele>
        <time>2022-01-27T09:26:12Z</time>
      </trkpt>
      <trkpt lat="45.30185" lon="6.18215">
        <ele>1697.4</ele>
        <time>2022-01-27T09:26:14Z</time>
      </trkpt>
      <trkpt lat="45.30186" lon="6.18214">
        <ele>1697.4</ele>
        <time>2022-01-27T09:26:15Z</time>
      </trkpt>
      <trkpt lat="45.30186" lon="6.18213">
        <ele>1698.2</ele>
        <time>2022-01-27T09:26:17Z</time>
      </trkpt>
      <trkpt lat="45.30187" lon="6.18212">
        <ele>1698.2</ele>
        <time>2022-01-27T09:26:19Z</time>
      </trkpt>
      <trkpt lat="45.30187" lon="6.18211">
        <ele>1698.2</ele>
        <time>2022-01-27T09:26:20Z</time>
      </trkpt>
      <trkpt lat="45.30188" lon="6.18209">
        <ele>1698.2</ele>
        <time>2022-01-27T09:26:23Z</time>
      </trkpt>
      <trkpt lat="45.30188" lon="6.18208">
        <ele>1699</ele>
        <time>2022-01-27T09:26:27Z</time>
      </trkpt>
      <trkpt lat="45.30188" lon="6.18207">
        <ele>1699.5</ele>
        <time>2022-01-27T09:26:29Z</time>
      </trkpt>
      <trkpt lat="45.30188" lon="6.18206">
        <ele>1699.5</ele>
        <time>2022-01-27T09:26:30Z</time>
      </trkpt>
      <trkpt lat="45.30189" lon="6.18205">
        <ele>1699.5</ele>
        <time>2022-01-27T09:26:31Z</time>
      </trkpt>
      <trkpt lat="45.30189" lon="6.18203">
        <ele>1700.3</ele>
        <time>2022-01-27T09:26:33Z</time>
      </trkpt>
      <trkpt lat="45.3019" lon="6.18202">
        <ele>1700.3</ele>
        <time>2022-01-27T09:26:35Z</time>
      </trkpt>
      <trkpt lat="45.3019" lon="6.18201">
        <ele>1700.3</ele>
        <time>2022-01-27T09:26:36Z</time>
      </trkpt>
      <trkpt lat="45.3019" lon="6.182">
        <ele>1700.3</ele>
        <time>2022-01-27T09:26:37Z</time>
      </trkpt>
      <trkpt lat="45.30191" lon="6.18199">
        <ele>1701</ele>
        <time>2022-01-27T09:26:38Z</time>
      </trkpt>
      <trkpt lat="45.30191" lon="6.18198">
        <ele>1701</ele>
        <time>2022-01-27T09:26:39Z</time>
      </trkpt>
      <trkpt lat="45.30191" lon="6.18197">
        <ele>1701.7</ele>
        <time>2022-01-27T09:26:40Z</time>
      </trkpt>
      <trkpt lat="45.30192" lon="6.18197">
        <ele>1701.7</ele>
        <time>2022-01-27T09:26:41Z</time>
      </trkpt>
      <trkpt lat="45.30192" lon="6.18196">
        <ele>1701.7</ele>
        <time>2022-01-27T09:26:42Z</time>
      </trkpt>
      <trkpt lat="45.30192" lon="6.18195">
        <ele>1702.4</ele>
        <time>2022-01-27T09:26:43Z</time>
      </trkpt>
      <trkpt lat="45.30193" lon="6.18194">
        <ele>1702.4</ele>
        <time>2022-01-27T09:26:44Z</time>
      </trkpt>
      <trkpt lat="45.30193" lon="6.18193">
        <ele>1702.4</ele>
        <time>2022-01-27T09:26:46Z</time>
      </trkpt>
      <trkpt lat="45.30193" lon="6.18192">
        <ele>1702.4</ele>
        <time>2022-01-27T09:26:47Z</time>
      </trkpt>
      <trkpt lat="45.30193" lon="6.18191">
        <ele>1703.2</ele>
        <time>2022-01-27T09:26:48Z</time>
      </trkpt>
      <trkpt lat="45.30193" lon="6.1819">
        <ele>1703.2</ele>
        <time>2022-01-27T09:26:49Z</time>
      </trkpt>
      <trkpt lat="45.30193" lon="6.18189">
        <ele>1703.2</ele>
        <time>2022-01-27T09:26:51Z</time>
      </trkpt>
      <trkpt lat="45.30192" lon="6.18188">
        <ele>1703.2</ele>
        <time>2022-01-27T09:26:52Z</time>
      </trkpt>
      <trkpt lat="45.30192" lon="6.18187">
        <ele>1703.2</ele>
        <time>2022-01-27T09:26:53Z</time>
      </trkpt>
      <trkpt lat="45.30192" lon="6.18186">
        <ele>1704</ele>
        <time>2022-01-27T09:26:55Z</time>
      </trkpt>
      <trkpt lat="45.30192" lon="6.18185">
        <ele>1704</ele>
        <time>2022-01-27T09:26:57Z</time>
      </trkpt>
      <trkpt lat="45.30192" lon="6.18184">
        <ele>1704</ele>
        <time>2022-01-27T09:26:58Z</time>
      </trkpt>
      <trkpt lat="45.30192" lon="6.18183">
        <ele>1704</ele>
        <time>2022-01-27T09:26:59Z</time>
      </trkpt>
      <trkpt lat="45.30192" lon="6.18182">
        <ele>1704.8</ele>
        <time>2022-01-27T09:27:01Z</time>
      </trkpt>
      <trkpt lat="45.30193" lon="6.18182">
        <ele>1704.8</ele>
        <time>2022-01-27T09:27:02Z</time>
      </trkpt>
      <trkpt lat="45.30193" lon="6.1818">
        <ele>1704.8</ele>
        <time>2022-01-27T09:27:03Z</time>
      </trkpt>
      <trkpt lat="45.30193" lon="6.18179">
        <ele>1704.8</ele>
        <time>2022-01-27T09:27:05Z</time>
      </trkpt>
      <trkpt lat="45.30194" lon="6.18178">
        <ele>1705.6</ele>
        <time>2022-01-27T09:27:06Z</time>
      </trkpt>
      <trkpt lat="45.30194" lon="6.18177">
        <ele>1706.2</ele>
        <time>2022-01-27T09:27:08Z</time>
      </trkpt>
      <trkpt lat="45.30194" lon="6.18176">
        <ele>1706.2</ele>
        <time>2022-01-27T09:27:09Z</time>
      </trkpt>
      <trkpt lat="45.30195" lon="6.18175">
        <ele>1706.2</ele>
        <time>2022-01-27T09:27:10Z</time>
      </trkpt>
      <trkpt lat="45.30195" lon="6.18174">
        <ele>1707</ele>
        <time>2022-01-27T09:27:12Z</time>
      </trkpt>
      <trkpt lat="45.30196" lon="6.18173">
        <ele>1707</ele>
        <time>2022-01-27T09:27:13Z</time>
      </trkpt>
      <trkpt lat="45.30196" lon="6.18172">
        <ele>1707</ele>
        <time>2022-01-27T09:27:14Z</time>
      </trkpt>
      <trkpt lat="45.30196" lon="6.18171">
        <ele>1707</ele>
        <time>2022-01-27T09:27:15Z</time>
      </trkpt>
      <trkpt lat="45.30196" lon="6.18169">
        <ele>1707.8</ele>
        <time>2022-01-27T09:27:16Z</time>
      </trkpt>
      <trkpt lat="45.30197" lon="6.18168">
        <ele>1707.8</ele>
        <time>2022-01-27T09:27:17Z</time>
      </trkpt>
      <trkpt lat="45.30196" lon="6.18167">
        <ele>1707.8</ele>
        <time>2022-01-27T09:27:18Z</time>
      </trkpt>
      <trkpt lat="45.30196" lon="6.18166">
        <ele>1707.8</ele>
        <time>2022-01-27T09:27:20Z</time>
      </trkpt>
      <trkpt lat="45.30196" lon="6.18165">
        <ele>1708.6</ele>
        <time>2022-01-27T09:27:21Z</time>
      </trkpt>
      <trkpt lat="45.30196" lon="6.18164">
        <ele>1708.6</ele>
        <time>2022-01-27T09:27:22Z</time>
      </trkpt>
      <trkpt lat="45.30196" lon="6.18163">
        <ele>1708.6</ele>
        <time>2022-01-27T09:27:23Z</time>
      </trkpt>
      <trkpt lat="45.30196" lon="6.18162">
        <ele>1708.6</ele>
        <time>2022-01-27T09:27:25Z</time>
      </trkpt>
      <trkpt lat="45.30196" lon="6.18161">
        <ele>1709.3</ele>
        <time>2022-01-27T09:27:26Z</time>
      </trkpt>
      <trkpt lat="45.30196" lon="6.1816">
        <ele>1709.3</ele>
        <time>2022-01-27T09:27:27Z</time>
      </trkpt>
      <trkpt lat="45.30196" lon="6.18159">
        <ele>1709.3</ele>
        <time>2022-01-27T09:27:28Z</time>
      </trkpt>
      <trkpt lat="45.30196" lon="6.18158">
        <ele>1709.3</ele>
        <time>2022-01-27T09:27:30Z</time>
      </trkpt>
      <trkpt lat="45.30196" lon="6.18157">
        <ele>1710</ele>
        <time>2022-01-27T09:27:32Z</time>
      </trkpt>
      <trkpt lat="45.30196" lon="6.18155">
        <ele>1710</ele>
        <time>2022-01-27T09:27:33Z</time>
      </trkpt>
      <trkpt lat="45.30197" lon="6.18155">
        <ele>1710</ele>
        <time>2022-01-27T09:27:34Z</time>
      </trkpt>
      <trkpt lat="45.30197" lon="6.18154">
        <ele>1710</ele>
        <time>2022-01-27T09:27:35Z</time>
      </trkpt>
      <trkpt lat="45.30197" lon="6.18153">
        <ele>1710.7</ele>
        <time>2022-01-27T09:27:37Z</time>
      </trkpt>
      <trkpt lat="45.30197" lon="6.18151">
        <ele>1710.7</ele>
        <time>2022-01-27T09:27:38Z</time>
      </trkpt>
      <trkpt lat="45.30197" lon="6.1815">
        <ele>1711.2</ele>
        <time>2022-01-27T09:27:39Z</time>
      </trkpt>
      <trkpt lat="45.30197" lon="6.18149">
        <ele>1711.2</ele>
        <time>2022-01-27T09:27:41Z</time>
      </trkpt>
      <trkpt lat="45.30197" lon="6.18148">
        <ele>1711.9</ele>
        <time>2022-01-27T09:27:42Z</time>
      </trkpt>
      <trkpt lat="45.30197" lon="6.18147">
        <ele>1711.9</ele>
        <time>2022-01-27T09:27:43Z</time>
      </trkpt>
      <trkpt lat="45.30198" lon="6.18145">
        <ele>1711.9</ele>
        <time>2022-01-27T09:27:44Z</time>
      </trkpt>
      <trkpt lat="45.30198" lon="6.18144">
        <ele>1711.9</ele>
        <time>2022-01-27T09:27:45Z</time>
      </trkpt>
      <trkpt lat="45.30198" lon="6.18143">
        <ele>1712.6</ele>
        <time>2022-01-27T09:27:48Z</time>
      </trkpt>
      <trkpt lat="45.30198" lon="6.18142">
        <ele>1712.6</ele>
        <time>2022-01-27T09:27:49Z</time>
      </trkpt>
      <trkpt lat="45.30199" lon="6.18142">
        <ele>1712.6</ele>
        <time>2022-01-27T09:27:50Z</time>
      </trkpt>
      <trkpt lat="45.30199" lon="6.18141">
        <ele>1712.6</ele>
        <time>2022-01-27T09:27:51Z</time>
      </trkpt>
      <trkpt lat="45.30199" lon="6.1814">
        <ele>1712.6</ele>
        <time>2022-01-27T09:27:52Z</time>
      </trkpt>
      <trkpt lat="45.30199" lon="6.18139">
        <ele>1713.4</ele>
        <time>2022-01-27T09:27:53Z</time>
      </trkpt>
      <trkpt lat="45.302" lon="6.18139">
        <ele>1713.4</ele>
        <time>2022-01-27T09:27:54Z</time>
      </trkpt>
      <trkpt lat="45.30202" lon="6.18135">
        <ele>1714.5</ele>
        <time>2022-01-27T09:28:02Z</time>
      </trkpt>
      <trkpt lat="45.30203" lon="6.18134">
        <ele>1714.5</ele>
        <time>2022-01-27T09:28:03Z</time>
      </trkpt>
      <trkpt lat="45.30203" lon="6.18133">
        <ele>1714.9</ele>
        <time>2022-01-27T09:28:04Z</time>
      </trkpt>
      <trkpt lat="45.30204" lon="6.18132">
        <ele>1714.9</ele>
        <time>2022-01-27T09:28:05Z</time>
      </trkpt>
      <trkpt lat="45.30204" lon="6.18131">
        <ele>1715.6</ele>
        <time>2022-01-27T09:28:06Z</time>
      </trkpt>
      <trkpt lat="45.30204" lon="6.1813">
        <ele>1715.6</ele>
        <time>2022-01-27T09:28:07Z</time>
      </trkpt>
      <trkpt lat="45.30205" lon="6.18128">
        <ele>1715.6</ele>
        <time>2022-01-27T09:28:08Z</time>
      </trkpt>
      <trkpt lat="45.30205" lon="6.18127">
        <ele>1716.3</ele>
        <time>2022-01-27T09:28:09Z</time>
      </trkpt>
      <trkpt lat="45.30206" lon="6.18125">
        <ele>1716.3</ele>
        <time>2022-01-27T09:28:10Z</time>
      </trkpt>
      <trkpt lat="45.30206" lon="6.18124">
        <ele>1716.6</ele>
        <time>2022-01-27T09:28:11Z</time>
      </trkpt>
      <trkpt lat="45.30207" lon="6.18123">
        <ele>1716.6</ele>
        <time>2022-01-27T09:28:12Z</time>
      </trkpt>
      <trkpt lat="45.30208" lon="6.18121">
        <ele>1717.2</ele>
        <time>2022-01-27T09:28:13Z</time>
      </trkpt>
      <trkpt lat="45.30209" lon="6.18119">
        <ele>1717.2</ele>
        <time>2022-01-27T09:28:15Z</time>
      </trkpt>
      <trkpt lat="45.30209" lon="6.18118">
        <ele>1717.5</ele>
        <time>2022-01-27T09:28:16Z</time>
      </trkpt>
      <trkpt lat="45.3021" lon="6.18116">
        <ele>1718.2</ele>
        <time>2022-01-27T09:28:18Z</time>
      </trkpt>
      <trkpt lat="45.3021" lon="6.18115">
        <ele>1718.2</ele>
        <time>2022-01-27T09:28:19Z</time>
      </trkpt>
      <trkpt lat="45.3021" lon="6.18114">
        <ele>1718.8</ele>
        <time>2022-01-27T09:28:20Z</time>
      </trkpt>
      <trkpt lat="45.3021" lon="6.18113">
        <ele>1718.8</ele>
        <time>2022-01-27T09:28:21Z</time>
      </trkpt>
      <trkpt lat="45.3021" lon="6.18112">
        <ele>1718.8</ele>
        <time>2022-01-27T09:28:22Z</time>
      </trkpt>
      <trkpt lat="45.30211" lon="6.18111">
        <ele>1718.8</ele>
        <time>2022-01-27T09:28:23Z</time>
      </trkpt>
      <trkpt lat="45.30211" lon="6.1811">
        <ele>1718.8</ele>
        <time>2022-01-27T09:28:24Z</time>
      </trkpt>
      <trkpt lat="45.30211" lon="6.18109">
        <ele>1719.4</ele>
        <time>2022-01-27T09:28:26Z</time>
      </trkpt>
      <trkpt lat="45.30211" lon="6.18108">
        <ele>1719.4</ele>
        <time>2022-01-27T09:28:27Z</time>
      </trkpt>
      <trkpt lat="45.30211" lon="6.18107">
        <ele>1719.4</ele>
        <time>2022-01-27T09:28:28Z</time>
      </trkpt>
      <trkpt lat="45.30212" lon="6.18105">
        <ele>1720</ele>
        <time>2022-01-27T09:28:30Z</time>
      </trkpt>
      <trkpt lat="45.30212" lon="6.18104">
        <ele>1720.4</ele>
        <time>2022-01-27T09:28:32Z</time>
      </trkpt>
      <trkpt lat="45.30216" lon="6.18091">
        <ele>1722.9</ele>
        <time>2022-01-27T09:28:53Z</time>
      </trkpt>
      <trkpt lat="45.30215" lon="6.18087">
        <ele>1723.6</ele>
        <time>2022-01-27T09:28:54Z</time>
      </trkpt>
      <trkpt lat="45.30215" lon="6.18084">
        <ele>1723.1</ele>
        <time>2022-01-27T09:28:55Z</time>
      </trkpt>
      <trkpt lat="45.30214" lon="6.18082">
        <ele>1723.8</ele>
        <time>2022-01-27T09:28:56Z</time>
      </trkpt>
      <trkpt lat="45.30213" lon="6.18078">
        <ele>1724.6</ele>
        <time>2022-01-27T09:28:57Z</time>
      </trkpt>
      <trkpt lat="45.30213" lon="6.18077">
        <ele>1724.6</ele>
        <time>2022-01-27T09:28:58Z</time>
      </trkpt>
      <trkpt lat="45.30213" lon="6.18075">
        <ele>1725.2</ele>
        <time>2022-01-27T09:28:59Z</time>
      </trkpt>
      <trkpt lat="45.30213" lon="6.18074">
        <ele>1725.2</ele>
        <time>2022-01-27T09:29:00Z</time>
      </trkpt>
      <trkpt lat="45.30213" lon="6.18073">
        <ele>1725.2</ele>
        <time>2022-01-27T09:29:02Z</time>
      </trkpt>
      <trkpt lat="45.30214" lon="6.18072">
        <ele>1725.2</ele>
        <time>2022-01-27T09:29:03Z</time>
      </trkpt>
      <trkpt lat="45.30215" lon="6.18072">
        <ele>1725.2</ele>
        <time>2022-01-27T09:29:05Z</time>
      </trkpt>
      <trkpt lat="45.30216" lon="6.18072">
        <ele>1725.8</ele>
        <time>2022-01-27T09:29:07Z</time>
      </trkpt>
      <trkpt lat="45.30217" lon="6.18072">
        <ele>1725.8</ele>
        <time>2022-01-27T09:29:08Z</time>
      </trkpt>
      <trkpt lat="45.30218" lon="6.18071">
        <ele>1725.8</ele>
        <time>2022-01-27T09:29:10Z</time>
      </trkpt>
      <trkpt lat="45.30218" lon="6.1807">
        <ele>1726.4</ele>
        <time>2022-01-27T09:29:12Z</time>
      </trkpt>
      <trkpt lat="45.30223" lon="6.18056">
        <ele>1729.6</ele>
        <time>2022-01-27T09:29:56Z</time>
      </trkpt>
      <trkpt lat="45.30223" lon="6.18055">
        <ele>1729.6</ele>
        <time>2022-01-27T09:29:57Z</time>
      </trkpt>
      <trkpt lat="45.30223" lon="6.18054">
        <ele>1729.6</ele>
        <time>2022-01-27T09:29:58Z</time>
      </trkpt>
      <trkpt lat="45.30223" lon="6.18053">
        <ele>1730.2</ele>
        <time>2022-01-27T09:30:01Z</time>
      </trkpt>
      <trkpt lat="45.30224" lon="6.18053">
        <ele>1730.2</ele>
        <time>2022-01-27T09:30:03Z</time>
      </trkpt>
      <trkpt lat="45.30224" lon="6.18052">
        <ele>1730.2</ele>
        <time>2022-01-27T09:30:04Z</time>
      </trkpt>
      <trkpt lat="45.30224" lon="6.18051">
        <ele>1730.2</ele>
        <time>2022-01-27T09:30:06Z</time>
      </trkpt>
      <trkpt lat="45.30224" lon="6.1805">
        <ele>1730.2</ele>
        <time>2022-01-27T09:30:08Z</time>
      </trkpt>
      <trkpt lat="45.30225" lon="6.18036">
        <ele>1733.1</ele>
        <time>2022-01-27T09:30:39Z</time>
      </trkpt>
      <trkpt lat="45.30224" lon="6.18035">
        <ele>1733.1</ele>
        <time>2022-01-27T09:30:40Z</time>
      </trkpt>
      <trkpt lat="45.30224" lon="6.18034">
        <ele>1733.1</ele>
        <time>2022-01-27T09:30:41Z</time>
      </trkpt>
      <trkpt lat="45.30224" lon="6.18033">
        <ele>1732.4</ele>
        <time>2022-01-27T09:30:43Z</time>
      </trkpt>
      <trkpt lat="45.30224" lon="6.18031">
        <ele>1733.7</ele>
        <time>2022-01-27T09:30:44Z</time>
      </trkpt>
      <trkpt lat="45.30224" lon="6.1803">
        <ele>1733.7</ele>
        <time>2022-01-27T09:30:45Z</time>
      </trkpt>
      <trkpt lat="45.30225" lon="6.1803">
        <ele>1733.7</ele>
        <time>2022-01-27T09:30:46Z</time>
      </trkpt>
      <trkpt lat="45.30225" lon="6.18028">
        <ele>1733.7</ele>
        <time>2022-01-27T09:30:47Z</time>
      </trkpt>
      <trkpt lat="45.30225" lon="6.18027">
        <ele>1734.2</ele>
        <time>2022-01-27T09:30:48Z</time>
      </trkpt>
      <trkpt lat="45.30225" lon="6.18025">
        <ele>1734.2</ele>
        <time>2022-01-27T09:30:49Z</time>
      </trkpt>
      <trkpt lat="45.30225" lon="6.18024">
        <ele>1734.7</ele>
        <time>2022-01-27T09:30:50Z</time>
      </trkpt>
      <trkpt lat="45.30226" lon="6.18023">
        <ele>1734.7</ele>
        <time>2022-01-27T09:30:51Z</time>
      </trkpt>
      <trkpt lat="45.30226" lon="6.1802">
        <ele>1734.7</ele>
        <time>2022-01-27T09:30:52Z</time>
      </trkpt>
      <trkpt lat="45.30226" lon="6.18019">
        <ele>1735.2</ele>
        <time>2022-01-27T09:30:53Z</time>
      </trkpt>
      <trkpt lat="45.30227" lon="6.18018">
        <ele>1735.2</ele>
        <time>2022-01-27T09:30:54Z</time>
      </trkpt>
      <trkpt lat="45.30227" lon="6.18016">
        <ele>1735.2</ele>
        <time>2022-01-27T09:30:55Z</time>
      </trkpt>
      <trkpt lat="45.30227" lon="6.18015">
        <ele>1735.8</ele>
        <time>2022-01-27T09:30:56Z</time>
      </trkpt>
      <trkpt lat="45.30227" lon="6.18013">
        <ele>1736.5</ele>
        <time>2022-01-27T09:30:57Z</time>
      </trkpt>
      <trkpt lat="45.30228" lon="6.18012">
        <ele>1736.5</ele>
        <time>2022-01-27T09:30:58Z</time>
      </trkpt>
      <trkpt lat="45.30228" lon="6.1801">
        <ele>1737.1</ele>
        <time>2022-01-27T09:30:59Z</time>
      </trkpt>
      <trkpt lat="45.30228" lon="6.18008">
        <ele>1737.1</ele>
        <time>2022-01-27T09:31:00Z</time>
      </trkpt>
      <trkpt lat="45.30228" lon="6.18007">
        <ele>1737.1</ele>
        <time>2022-01-27T09:31:01Z</time>
      </trkpt>
      <trkpt lat="45.30229" lon="6.18006">
        <ele>1737.7</ele>
        <time>2022-01-27T09:31:02Z</time>
      </trkpt>
      <trkpt lat="45.30229" lon="6.18004">
        <ele>1737.7</ele>
        <time>2022-01-27T09:31:03Z</time>
      </trkpt>
      <trkpt lat="45.30229" lon="6.18002">
        <ele>1738.4</ele>
        <time>2022-01-27T09:31:04Z</time>
      </trkpt>
      <trkpt lat="45.3023" lon="6.18001">
        <ele>1738.4</ele>
        <time>2022-01-27T09:31:05Z</time>
      </trkpt>
      <trkpt lat="45.3023" lon="6.18">
        <ele>1738.4</ele>
        <time>2022-01-27T09:31:06Z</time>
      </trkpt>
      <trkpt lat="45.30231" lon="6.17999">
        <ele>1739.2</ele>
        <time>2022-01-27T09:31:07Z</time>
      </trkpt>
      <trkpt lat="45.30231" lon="6.17998">
        <ele>1740</ele>
        <time>2022-01-27T09:31:08Z</time>
      </trkpt>
      <trkpt lat="45.30232" lon="6.17996">
        <ele>1740</ele>
        <time>2022-01-27T09:31:09Z</time>
      </trkpt>
      <trkpt lat="45.30232" lon="6.17995">
        <ele>1740</ele>
        <time>2022-01-27T09:31:10Z</time>
      </trkpt>
      <trkpt lat="45.30232" lon="6.17994">
        <ele>1740</ele>
        <time>2022-01-27T09:31:11Z</time>
      </trkpt>
      <trkpt lat="45.30233" lon="6.17993">
        <ele>1740.7</ele>
        <time>2022-01-27T09:31:12Z</time>
      </trkpt>
      <trkpt lat="45.30233" lon="6.17992">
        <ele>1741.5</ele>
        <time>2022-01-27T09:31:13Z</time>
      </trkpt>
      <trkpt lat="45.30234" lon="6.1799">
        <ele>1741.5</ele>
        <time>2022-01-27T09:31:14Z</time>
      </trkpt>
      <trkpt lat="45.30235" lon="6.17989">
        <ele>1742.2</ele>
        <time>2022-01-27T09:31:15Z</time>
      </trkpt>
      <trkpt lat="45.30235" lon="6.17988">
        <ele>1742.2</ele>
        <time>2022-01-27T09:31:16Z</time>
      </trkpt>
      <trkpt lat="45.30237" lon="6.17986">
        <ele>1743.1</ele>
        <time>2022-01-27T09:31:17Z</time>
      </trkpt>
      <trkpt lat="45.30237" lon="6.17985">
        <ele>1743.8</ele>
        <time>2022-01-27T09:31:18Z</time>
      </trkpt>
      <trkpt lat="45.30238" lon="6.17984">
        <ele>1743.8</ele>
        <time>2022-01-27T09:31:19Z</time>
      </trkpt>
      <trkpt lat="45.30238" lon="6.17983">
        <ele>1743.8</ele>
        <time>2022-01-27T09:31:20Z</time>
      </trkpt>
      <trkpt lat="45.30239" lon="6.17982">
        <ele>1743.8</ele>
        <time>2022-01-27T09:31:22Z</time>
      </trkpt>
      <trkpt lat="45.30239" lon="6.17981">
        <ele>1745.3</ele>
        <time>2022-01-27T09:31:24Z</time>
      </trkpt>
      <trkpt lat="45.3024" lon="6.17981">
        <ele>1745.3</ele>
        <time>2022-01-27T09:31:25Z</time>
      </trkpt>
      <trkpt lat="45.3024" lon="6.1798">
        <ele>1745.3</ele>
        <time>2022-01-27T09:31:26Z</time>
      </trkpt>
      <trkpt lat="45.30241" lon="6.1798">
        <ele>1745.3</ele>
        <time>2022-01-27T09:31:29Z</time>
      </trkpt>
      <trkpt lat="45.30241" lon="6.17979">
        <ele>1745.3</ele>
        <time>2022-01-27T09:31:31Z</time>
      </trkpt>
      <trkpt lat="45.30241" lon="6.17978">
        <ele>1745.3</ele>
        <time>2022-01-27T09:31:34Z</time>
      </trkpt>
      <trkpt lat="45.30242" lon="6.17977">
        <ele>1745.3</ele>
        <time>2022-01-27T09:31:35Z</time>
      </trkpt>
      <trkpt lat="45.30242" lon="6.17976">
        <ele>1746</ele>
        <time>2022-01-27T09:31:37Z</time>
      </trkpt>
      <trkpt lat="45.30242" lon="6.17975">
        <ele>1746</ele>
        <time>2022-01-27T09:31:38Z</time>
      </trkpt>
      <trkpt lat="45.30242" lon="6.17974">
        <ele>1746</ele>
        <time>2022-01-27T09:31:39Z</time>
      </trkpt>
      <trkpt lat="45.30242" lon="6.17973">
        <ele>1747</ele>
        <time>2022-01-27T09:31:41Z</time>
      </trkpt>
      <trkpt lat="45.30243" lon="6.17972">
        <ele>1747.6</ele>
        <time>2022-01-27T09:31:43Z</time>
      </trkpt>
      <trkpt lat="45.30243" lon="6.17971">
        <ele>1747.6</ele>
        <time>2022-01-27T09:31:44Z</time>
      </trkpt>
      <trkpt lat="45.30244" lon="6.1797">
        <ele>1747.6</ele>
        <time>2022-01-27T09:31:46Z</time>
      </trkpt>
      <trkpt lat="45.30244" lon="6.17969">
        <ele>1747.6</ele>
        <time>2022-01-27T09:31:47Z</time>
      </trkpt>
      <trkpt lat="45.30244" lon="6.17968">
        <ele>1747.6</ele>
        <time>2022-01-27T09:31:49Z</time>
      </trkpt>
      <trkpt lat="45.30245" lon="6.17968">
        <ele>1748.3</ele>
        <time>2022-01-27T09:31:50Z</time>
      </trkpt>
      <trkpt lat="45.30245" lon="6.17967">
        <ele>1748.3</ele>
        <time>2022-01-27T09:31:51Z</time>
      </trkpt>
      <trkpt lat="45.30246" lon="6.17966">
        <ele>1749.3</ele>
        <time>2022-01-27T09:31:53Z</time>
      </trkpt>
      <trkpt lat="45.30246" lon="6.17965">
        <ele>1749.3</ele>
        <time>2022-01-27T09:31:55Z</time>
      </trkpt>
      <trkpt lat="45.30247" lon="6.17965">
        <ele>1749.3</ele>
        <time>2022-01-27T09:31:56Z</time>
      </trkpt>
      <trkpt lat="45.30247" lon="6.17964">
        <ele>1749.3</ele>
        <time>2022-01-27T09:31:57Z</time>
      </trkpt>
      <trkpt lat="45.30248" lon="6.17963">
        <ele>1750</ele>
        <time>2022-01-27T09:31:59Z</time>
      </trkpt>
      <trkpt lat="45.30248" lon="6.17962">
        <ele>1750</ele>
        <time>2022-01-27T09:32:01Z</time>
      </trkpt>
      <trkpt lat="45.30248" lon="6.17961">
        <ele>1750</ele>
        <time>2022-01-27T09:32:03Z</time>
      </trkpt>
      <trkpt lat="45.30248" lon="6.1796">
        <ele>1750</ele>
        <time>2022-01-27T09:32:04Z</time>
      </trkpt>
      <trkpt lat="45.30248" lon="6.17959">
        <ele>1750.7</ele>
        <time>2022-01-27T09:32:05Z</time>
      </trkpt>
      <trkpt lat="45.30248" lon="6.17958">
        <ele>1751.9</ele>
        <time>2022-01-27T09:32:07Z</time>
      </trkpt>
      <trkpt lat="45.30249" lon="6.17957">
        <ele>1751.9</ele>
        <time>2022-01-27T09:32:09Z</time>
      </trkpt>
      <trkpt lat="45.30249" lon="6.17956">
        <ele>1751.9</ele>
        <time>2022-01-27T09:32:10Z</time>
      </trkpt>
      <trkpt lat="45.30249" lon="6.17955">
        <ele>1751.9</ele>
        <time>2022-01-27T09:32:12Z</time>
      </trkpt>
      <trkpt lat="45.30249" lon="6.17954">
        <ele>1752.6</ele>
        <time>2022-01-27T09:32:14Z</time>
      </trkpt>
      <trkpt lat="45.3025" lon="6.17954">
        <ele>1752.6</ele>
        <time>2022-01-27T09:32:15Z</time>
      </trkpt>
      <trkpt lat="45.3025" lon="6.17953">
        <ele>1752.6</ele>
        <time>2022-01-27T09:32:16Z</time>
      </trkpt>
      <trkpt lat="45.30251" lon="6.17952">
        <ele>1752.6</ele>
        <time>2022-01-27T09:32:19Z</time>
      </trkpt>
      <trkpt lat="45.30251" lon="6.17951">
        <ele>1752.6</ele>
        <time>2022-01-27T09:32:20Z</time>
      </trkpt>
      <trkpt lat="45.30251" lon="6.1795">
        <ele>1753.4</ele>
        <time>2022-01-27T09:32:22Z</time>
      </trkpt>
      <trkpt lat="45.30251" lon="6.17949">
        <ele>1753.4</ele>
        <time>2022-01-27T09:32:25Z</time>
      </trkpt>
      <trkpt lat="45.30251" lon="6.17948">
        <ele>1753.4</ele>
        <time>2022-01-27T09:32:29Z</time>
      </trkpt>
      <trkpt lat="45.30251" lon="6.17947">
        <ele>1753.4</ele>
        <time>2022-01-27T09:32:30Z</time>
      </trkpt>
      <trkpt lat="45.30251" lon="6.17946">
        <ele>1755.4</ele>
        <time>2022-01-27T09:32:33Z</time>
      </trkpt>
      <trkpt lat="45.30252" lon="6.17945">
        <ele>1755.4</ele>
        <time>2022-01-27T09:32:34Z</time>
      </trkpt>
      <trkpt lat="45.30252" lon="6.17944">
        <ele>1755.4</ele>
        <time>2022-01-27T09:32:35Z</time>
      </trkpt>
      <trkpt lat="45.30252" lon="6.17943">
        <ele>1755.4</ele>
        <time>2022-01-27T09:32:37Z</time>
      </trkpt>
      <trkpt lat="45.30252" lon="6.17942">
        <ele>1756.1</ele>
        <time>2022-01-27T09:32:39Z</time>
      </trkpt>
      <trkpt lat="45.30252" lon="6.17941">
        <ele>1756.1</ele>
        <time>2022-01-27T09:32:40Z</time>
      </trkpt>
      <trkpt lat="45.30253" lon="6.1794">
        <ele>1756.1</ele>
        <time>2022-01-27T09:32:42Z</time>
      </trkpt>
      <trkpt lat="45.30253" lon="6.17939">
        <ele>1756.1</ele>
        <time>2022-01-27T09:32:44Z</time>
      </trkpt>
      <trkpt lat="45.30253" lon="6.17938">
        <ele>1756.1</ele>
        <time>2022-01-27T09:32:45Z</time>
      </trkpt>
      <trkpt lat="45.30254" lon="6.17938">
        <ele>1756.9</ele>
        <time>2022-01-27T09:32:46Z</time>
      </trkpt>
      <trkpt lat="45.30254" lon="6.17937">
        <ele>1756.9</ele>
        <time>2022-01-27T09:32:47Z</time>
      </trkpt>
      <trkpt lat="45.30255" lon="6.17936">
        <ele>1758.1</ele>
        <time>2022-01-27T09:32:49Z</time>
      </trkpt>
      <trkpt lat="45.30256" lon="6.17935">
        <ele>1758.1</ele>
        <time>2022-01-27T09:32:51Z</time>
      </trkpt>
      <trkpt lat="45.30256" lon="6.17934">
        <ele>1758.1</ele>
        <time>2022-01-27T09:32:53Z</time>
      </trkpt>
      <trkpt lat="45.30257" lon="6.17934">
        <ele>1758.8</ele>
        <time>2022-01-27T09:32:54Z</time>
      </trkpt>
      <trkpt lat="45.30257" lon="6.17933">
        <ele>1760.1</ele>
        <time>2022-01-27T09:32:55Z</time>
      </trkpt>
      <trkpt lat="45.30258" lon="6.17933">
        <ele>1760.1</ele>
        <time>2022-01-27T09:32:56Z</time>
      </trkpt>
      <trkpt lat="45.30258" lon="6.17932">
        <ele>1760.1</ele>
        <time>2022-01-27T09:32:57Z</time>
      </trkpt>
      <trkpt lat="45.30258" lon="6.17931">
        <ele>1760.1</ele>
        <time>2022-01-27T09:32:58Z</time>
      </trkpt>
      <trkpt lat="45.30259" lon="6.1793">
        <ele>1760.1</ele>
        <time>2022-01-27T09:32:59Z</time>
      </trkpt>
      <trkpt lat="45.3026" lon="6.17929">
        <ele>1760.8</ele>
        <time>2022-01-27T09:33:02Z</time>
      </trkpt>
      <trkpt lat="45.3026" lon="6.17928">
        <ele>1760.8</ele>
        <time>2022-01-27T09:33:04Z</time>
      </trkpt>
      <trkpt lat="45.30261" lon="6.17928">
        <ele>1762</ele>
        <time>2022-01-27T09:33:05Z</time>
      </trkpt>
      <trkpt lat="45.30261" lon="6.17927">
        <ele>1762</ele>
        <time>2022-01-27T09:33:06Z</time>
      </trkpt>
      <trkpt lat="45.30262" lon="6.17926">
        <ele>1762</ele>
        <time>2022-01-27T09:33:08Z</time>
      </trkpt>
      <trkpt lat="45.30262" lon="6.17925">
        <ele>1762.8</ele>
        <time>2022-01-27T09:33:09Z</time>
      </trkpt>
      <trkpt lat="45.30262" lon="6.17924">
        <ele>1762.8</ele>
        <time>2022-01-27T09:33:10Z</time>
      </trkpt>
      <trkpt lat="45.30263" lon="6.17923">
        <ele>1762.8</ele>
        <time>2022-01-27T09:33:12Z</time>
      </trkpt>
      <trkpt lat="45.30263" lon="6.17922">
        <ele>1762.8</ele>
        <time>2022-01-27T09:33:13Z</time>
      </trkpt>
      <trkpt lat="45.30263" lon="6.17921">
        <ele>1762.8</ele>
        <time>2022-01-27T09:33:14Z</time>
      </trkpt>
      <trkpt lat="45.30263" lon="6.1792">
        <ele>1764.7</ele>
        <time>2022-01-27T09:33:16Z</time>
      </trkpt>
      <trkpt lat="45.30264" lon="6.17919">
        <ele>1764.7</ele>
        <time>2022-01-27T09:33:17Z</time>
      </trkpt>
      <trkpt lat="45.30264" lon="6.17918">
        <ele>1764.7</ele>
        <time>2022-01-27T09:33:18Z</time>
      </trkpt>
      <trkpt lat="45.30264" lon="6.17917">
        <ele>1764.7</ele>
        <time>2022-01-27T09:33:20Z</time>
      </trkpt>
      <trkpt lat="45.30264" lon="6.17916">
        <ele>1765.6</ele>
        <time>2022-01-27T09:33:21Z</time>
      </trkpt>
      <trkpt lat="45.30264" lon="6.17915">
        <ele>1765.6</ele>
        <time>2022-01-27T09:33:23Z</time>
      </trkpt>
      <trkpt lat="45.30265" lon="6.17913">
        <ele>1765.6</ele>
        <time>2022-01-27T09:33:24Z</time>
      </trkpt>
      <trkpt lat="45.30265" lon="6.17912">
        <ele>1766.5</ele>
        <time>2022-01-27T09:33:26Z</time>
      </trkpt>
      <trkpt lat="45.30265" lon="6.17911">
        <ele>1766.5</ele>
        <time>2022-01-27T09:33:27Z</time>
      </trkpt>
      <trkpt lat="45.30266" lon="6.17911">
        <ele>1766.5</ele>
        <time>2022-01-27T09:33:28Z</time>
      </trkpt>
      <trkpt lat="45.30266" lon="6.1791">
        <ele>1766.5</ele>
        <time>2022-01-27T09:33:29Z</time>
      </trkpt>
      <trkpt lat="45.30266" lon="6.17909">
        <ele>1766.5</ele>
        <time>2022-01-27T09:33:30Z</time>
      </trkpt>
      <trkpt lat="45.30266" lon="6.17908">
        <ele>1767.6</ele>
        <time>2022-01-27T09:33:31Z</time>
      </trkpt>
      <trkpt lat="45.30267" lon="6.17908">
        <ele>1768.5</ele>
        <time>2022-01-27T09:33:32Z</time>
      </trkpt>
      <trkpt lat="45.30267" lon="6.17907">
        <ele>1768.5</ele>
        <time>2022-01-27T09:33:33Z</time>
      </trkpt>
      <trkpt lat="45.30267" lon="6.17906">
        <ele>1768.5</ele>
        <time>2022-01-27T09:33:34Z</time>
      </trkpt>
      <trkpt lat="45.30267" lon="6.17905">
        <ele>1768.5</ele>
        <time>2022-01-27T09:33:36Z</time>
      </trkpt>
      <trkpt lat="45.30268" lon="6.17904">
        <ele>1768.5</ele>
        <time>2022-01-27T09:33:38Z</time>
      </trkpt>
      <trkpt lat="45.30268" lon="6.17903">
        <ele>1769.4</ele>
        <time>2022-01-27T09:33:40Z</time>
      </trkpt>
      <trkpt lat="45.30269" lon="6.17903">
        <ele>1769.4</ele>
        <time>2022-01-27T09:33:42Z</time>
      </trkpt>
      <trkpt lat="45.30269" lon="6.17902">
        <ele>1769.4</ele>
        <time>2022-01-27T09:33:43Z</time>
      </trkpt>
      <trkpt lat="45.30269" lon="6.17901">
        <ele>1769.4</ele>
        <time>2022-01-27T09:33:45Z</time>
      </trkpt>
      <trkpt lat="45.30269" lon="6.179">
        <ele>1769.4</ele>
        <time>2022-01-27T09:33:48Z</time>
      </trkpt>
      <trkpt lat="45.3027" lon="6.17899">
        <ele>1771.5</ele>
        <time>2022-01-27T09:33:49Z</time>
      </trkpt>
      <trkpt lat="45.3027" lon="6.17898">
        <ele>1771.5</ele>
        <time>2022-01-27T09:33:51Z</time>
      </trkpt>
      <trkpt lat="45.3027" lon="6.17897">
        <ele>1771.5</ele>
        <time>2022-01-27T09:33:53Z</time>
      </trkpt>
      <trkpt lat="45.30271" lon="6.17896">
        <ele>1771.5</ele>
        <time>2022-01-27T09:33:54Z</time>
      </trkpt>
      <trkpt lat="45.30271" lon="6.17894">
        <ele>1772.4</ele>
        <time>2022-01-27T09:33:58Z</time>
      </trkpt>
      <trkpt lat="45.30271" lon="6.17893">
        <ele>1772.4</ele>
        <time>2022-01-27T09:33:59Z</time>
      </trkpt>
      <trkpt lat="45.30271" lon="6.17892">
        <ele>1772.4</ele>
        <time>2022-01-27T09:34:00Z</time>
      </trkpt>
      <trkpt lat="45.30271" lon="6.17891">
        <ele>1772.4</ele>
        <time>2022-01-27T09:34:02Z</time>
      </trkpt>
      <trkpt lat="45.30271" lon="6.1789">
        <ele>1773.3</ele>
        <time>2022-01-27T09:34:03Z</time>
      </trkpt>
      <trkpt lat="45.30271" lon="6.17889">
        <ele>1773.3</ele>
        <time>2022-01-27T09:34:04Z</time>
      </trkpt>
      <trkpt lat="45.30271" lon="6.17888">
        <ele>1773.3</ele>
        <time>2022-01-27T09:34:05Z</time>
      </trkpt>
      <trkpt lat="45.30271" lon="6.17887">
        <ele>1773.3</ele>
        <time>2022-01-27T09:34:06Z</time>
      </trkpt>
      <trkpt lat="45.3027" lon="6.17886">
        <ele>1774.1</ele>
        <time>2022-01-27T09:34:08Z</time>
      </trkpt>
      <trkpt lat="45.3027" lon="6.17885">
        <ele>1774.1</ele>
        <time>2022-01-27T09:34:09Z</time>
      </trkpt>
      <trkpt lat="45.3027" lon="6.17884">
        <ele>1774.1</ele>
        <time>2022-01-27T09:34:10Z</time>
      </trkpt>
      <trkpt lat="45.3027" lon="6.17883">
        <ele>1774.1</ele>
        <time>2022-01-27T09:34:12Z</time>
      </trkpt>
      <trkpt lat="45.3027" lon="6.17882">
        <ele>1775</ele>
        <time>2022-01-27T09:34:13Z</time>
      </trkpt>
      <trkpt lat="45.3027" lon="6.1788">
        <ele>1775</ele>
        <time>2022-01-27T09:34:15Z</time>
      </trkpt>
      <trkpt lat="45.3027" lon="6.17879">
        <ele>1775</ele>
        <time>2022-01-27T09:34:17Z</time>
      </trkpt>
      <trkpt lat="45.3027" lon="6.17878">
        <ele>1775.8</ele>
        <time>2022-01-27T09:34:20Z</time>
      </trkpt>
      <trkpt lat="45.3027" lon="6.17877">
        <ele>1775.8</ele>
        <time>2022-01-27T09:34:21Z</time>
      </trkpt>
      <trkpt lat="45.3027" lon="6.17876">
        <ele>1775.8</ele>
        <time>2022-01-27T09:34:23Z</time>
      </trkpt>
      <trkpt lat="45.3027" lon="6.17875">
        <ele>1775.8</ele>
        <time>2022-01-27T09:34:25Z</time>
      </trkpt>
      <trkpt lat="45.3027" lon="6.17874">
        <ele>1775.8</ele>
        <time>2022-01-27T09:34:26Z</time>
      </trkpt>
      <trkpt lat="45.3027" lon="6.17873">
        <ele>1776.7</ele>
        <time>2022-01-27T09:34:28Z</time>
      </trkpt>
      <trkpt lat="45.3027" lon="6.17872">
        <ele>1776.7</ele>
        <time>2022-01-27T09:34:30Z</time>
      </trkpt>
      <trkpt lat="45.3027" lon="6.17871">
        <ele>1776.7</ele>
        <time>2022-01-27T09:34:31Z</time>
      </trkpt>
      <trkpt lat="45.3027" lon="6.1787">
        <ele>1776.7</ele>
        <time>2022-01-27T09:34:32Z</time>
      </trkpt>
      <trkpt lat="45.3027" lon="6.17869">
        <ele>1777.6</ele>
        <time>2022-01-27T09:34:34Z</time>
      </trkpt>
      <trkpt lat="45.3027" lon="6.17868">
        <ele>1777.6</ele>
        <time>2022-01-27T09:34:35Z</time>
      </trkpt>
      <trkpt lat="45.3027" lon="6.17867">
        <ele>1777.6</ele>
        <time>2022-01-27T09:34:37Z</time>
      </trkpt>
      <trkpt lat="45.3027" lon="6.17866">
        <ele>1777.6</ele>
        <time>2022-01-27T09:34:38Z</time>
      </trkpt>
      <trkpt lat="45.3027" lon="6.17865">
        <ele>1777.6</ele>
        <time>2022-01-27T09:34:39Z</time>
      </trkpt>
      <trkpt lat="45.3027" lon="6.17864">
        <ele>1778.6</ele>
        <time>2022-01-27T09:34:41Z</time>
      </trkpt>
      <trkpt lat="45.3027" lon="6.17863">
        <ele>1778.6</ele>
        <time>2022-01-27T09:34:42Z</time>
      </trkpt>
      <trkpt lat="45.3027" lon="6.17862">
        <ele>1778.7</ele>
        <time>2022-01-27T09:34:43Z</time>
      </trkpt>
      <trkpt lat="45.3027" lon="6.17861">
        <ele>1778.8</ele>
        <time>2022-01-27T09:34:44Z</time>
      </trkpt>
      <trkpt lat="45.3027" lon="6.1786">
        <ele>1780</ele>
        <time>2022-01-27T09:34:45Z</time>
      </trkpt>
      <trkpt lat="45.3027" lon="6.17859">
        <ele>1780.1</ele>
        <time>2022-01-27T09:34:47Z</time>
      </trkpt>
      <trkpt lat="45.3027" lon="6.17858">
        <ele>1780.2</ele>
        <time>2022-01-27T09:34:48Z</time>
      </trkpt>
      <trkpt lat="45.30271" lon="6.17857">
        <ele>1780.4</ele>
        <time>2022-01-27T09:34:50Z</time>
      </trkpt>
      <trkpt lat="45.30271" lon="6.17856">
        <ele>1781.5</ele>
        <time>2022-01-27T09:34:51Z</time>
      </trkpt>
      <trkpt lat="45.30272" lon="6.17856">
        <ele>1781.7</ele>
        <time>2022-01-27T09:34:53Z</time>
      </trkpt>
      <trkpt lat="45.30272" lon="6.17857">
        <ele>1783.2</ele>
        <time>2022-01-27T09:34:54Z</time>
      </trkpt>
      <trkpt lat="45.30273" lon="6.17857">
        <ele>1782.4</ele>
        <time>2022-01-27T09:34:55Z</time>
      </trkpt>
      <trkpt lat="45.30274" lon="6.17858">
        <ele>1782.6</ele>
        <time>2022-01-27T09:34:57Z</time>
      </trkpt>
      <trkpt lat="45.30274" lon="6.17859">
        <ele>1782.7</ele>
        <time>2022-01-27T09:34:58Z</time>
      </trkpt>
      <trkpt lat="45.30275" lon="6.17861">
        <ele>1782.8</ele>
        <time>2022-01-27T09:35:00Z</time>
      </trkpt>
      <trkpt lat="45.30276" lon="6.17862">
        <ele>1783.6</ele>
        <time>2022-01-27T09:35:02Z</time>
      </trkpt>
      <trkpt lat="45.30276" lon="6.17863">
        <ele>1783.8</ele>
        <time>2022-01-27T09:35:04Z</time>
      </trkpt>
      <trkpt lat="45.30277" lon="6.17864">
        <ele>1783.9</ele>
        <time>2022-01-27T09:35:05Z</time>
      </trkpt>
      <trkpt lat="45.30277" lon="6.17866">
        <ele>1783.1</ele>
        <time>2022-01-27T09:35:07Z</time>
      </trkpt>
      <trkpt lat="45.30278" lon="6.17866">
        <ele>1783.2</ele>
        <time>2022-01-27T09:35:08Z</time>
      </trkpt>
      <trkpt lat="45.30279" lon="6.17868">
        <ele>1784.9</ele>
        <time>2022-01-27T09:35:11Z</time>
      </trkpt>
      <trkpt lat="45.30278" lon="6.17868">
        <ele>1783.4</ele>
        <time>2022-01-27T09:35:12Z</time>
      </trkpt>
      <trkpt lat="45.30279" lon="6.17869">
        <ele>1785.1</ele>
        <time>2022-01-27T09:35:13Z</time>
      </trkpt>
      <trkpt lat="45.3028" lon="6.17871">
        <ele>1784.4</ele>
        <time>2022-01-27T09:35:16Z</time>
      </trkpt>
      <trkpt lat="45.30281" lon="6.17872">
        <ele>1784.6</ele>
        <time>2022-01-27T09:35:18Z</time>
      </trkpt>
      <trkpt lat="45.30281" lon="6.17873">
        <ele>1784.8</ele>
        <time>2022-01-27T09:35:19Z</time>
      </trkpt>
      <trkpt lat="45.30282" lon="6.17875">
        <ele>1785.5</ele>
        <time>2022-01-27T09:35:21Z</time>
      </trkpt>
      <trkpt lat="45.30282" lon="6.17876">
        <ele>1785.6</ele>
        <time>2022-01-27T09:35:22Z</time>
      </trkpt>
      <trkpt lat="45.30283" lon="6.17878">
        <ele>1785</ele>
        <time>2022-01-27T09:35:25Z</time>
      </trkpt>
      <trkpt lat="45.30283" lon="6.17879">
        <ele>1785.2</ele>
        <time>2022-01-27T09:35:26Z</time>
      </trkpt>
      <trkpt lat="45.30284" lon="6.1788">
        <ele>1785.3</ele>
        <time>2022-01-27T09:35:27Z</time>
      </trkpt>
      <trkpt lat="45.30284" lon="6.17881">
        <ele>1785.4</ele>
        <time>2022-01-27T09:35:29Z</time>
      </trkpt>
      <trkpt lat="45.30285" lon="6.17882">
        <ele>1787</ele>
        <time>2022-01-27T09:35:31Z</time>
      </trkpt>
      <trkpt lat="45.30285" lon="6.17883">
        <ele>1786.3</ele>
        <time>2022-01-27T09:35:32Z</time>
      </trkpt>
      <trkpt lat="45.30285" lon="6.17884">
        <ele>1786.5</ele>
        <time>2022-01-27T09:35:34Z</time>
      </trkpt>
      <trkpt lat="45.30286" lon="6.17884">
        <ele>1786.6</ele>
        <time>2022-01-27T09:35:35Z</time>
      </trkpt>
      <trkpt lat="45.30286" lon="6.17885">
        <ele>1786.7</ele>
        <time>2022-01-27T09:35:36Z</time>
      </trkpt>
      <trkpt lat="45.30286" lon="6.17886">
        <ele>1787</ele>
        <time>2022-01-27T09:35:38Z</time>
      </trkpt>
      <trkpt lat="45.30287" lon="6.17887">
        <ele>1786.4</ele>
        <time>2022-01-27T09:35:40Z</time>
      </trkpt>
      <trkpt lat="45.30287" lon="6.17888">
        <ele>1786.6</ele>
        <time>2022-01-27T09:35:41Z</time>
      </trkpt>
      <trkpt lat="45.30287" lon="6.17889">
        <ele>1786.8</ele>
        <time>2022-01-27T09:35:44Z</time>
      </trkpt>
      <trkpt lat="45.30288" lon="6.17889">
        <ele>1788.2</ele>
        <time>2022-01-27T09:35:45Z</time>
      </trkpt>
      <trkpt lat="45.30288" lon="6.1789">
        <ele>1788.3</ele>
        <time>2022-01-27T09:35:47Z</time>
      </trkpt>
      <trkpt lat="45.30289" lon="6.1789">
        <ele>1788.7</ele>
        <time>2022-01-27T09:35:50Z</time>
      </trkpt>
      <trkpt lat="45.30289" lon="6.17891">
        <ele>1788.8</ele>
        <time>2022-01-27T09:35:51Z</time>
      </trkpt>
      <trkpt lat="45.3029" lon="6.17891">
        <ele>1788.3</ele>
        <time>2022-01-27T09:35:54Z</time>
      </trkpt>
      <trkpt lat="45.3029" lon="6.17892">
        <ele>1788.4</ele>
        <time>2022-01-27T09:35:55Z</time>
      </trkpt>
      <trkpt lat="45.30291" lon="6.17892">
        <ele>1789.9</ele>
        <time>2022-01-27T09:35:57Z</time>
      </trkpt>
      <trkpt lat="45.30291" lon="6.17893">
        <ele>1790.1</ele>
        <time>2022-01-27T09:35:58Z</time>
      </trkpt>
      <trkpt lat="45.30292" lon="6.17894">
        <ele>1790.3</ele>
        <time>2022-01-27T09:36:00Z</time>
      </trkpt>
      <trkpt lat="45.30292" lon="6.17895">
        <ele>1790.4</ele>
        <time>2022-01-27T09:36:01Z</time>
      </trkpt>
      <trkpt lat="45.30293" lon="6.17895">
        <ele>1789.6</ele>
        <time>2022-01-27T09:36:02Z</time>
      </trkpt>
      <trkpt lat="45.30293" lon="6.17896">
        <ele>1789.8</ele>
        <time>2022-01-27T09:36:03Z</time>
      </trkpt>
      <trkpt lat="45.30294" lon="6.17897">
        <ele>1791.3</ele>
        <time>2022-01-27T09:36:05Z</time>
      </trkpt>
      <trkpt lat="45.30295" lon="6.17897">
        <ele>1791.5</ele>
        <time>2022-01-27T09:36:06Z</time>
      </trkpt>
      <trkpt lat="45.30295" lon="6.17898">
        <ele>1791.6</ele>
        <time>2022-01-27T09:36:07Z</time>
      </trkpt>
      <trkpt lat="45.30296" lon="6.17899">
        <ele>1791.8</ele>
        <time>2022-01-27T09:36:09Z</time>
      </trkpt>
      <trkpt lat="45.30297" lon="6.179">
        <ele>1792.6</ele>
        <time>2022-01-27T09:36:11Z</time>
      </trkpt>
      <trkpt lat="45.30297" lon="6.17901">
        <ele>1792.8</ele>
        <time>2022-01-27T09:36:12Z</time>
      </trkpt>
      <trkpt lat="45.30298" lon="6.17901">
        <ele>1792.9</ele>
        <time>2022-01-27T09:36:13Z</time>
      </trkpt>
      <trkpt lat="45.30298" lon="6.17902">
        <ele>1793</ele>
        <time>2022-01-27T09:36:14Z</time>
      </trkpt>
      <trkpt lat="45.30299" lon="6.17903">
        <ele>1793.1</ele>
        <time>2022-01-27T09:36:15Z</time>
      </trkpt>
      <trkpt lat="45.303" lon="6.17904">
        <ele>1793.2</ele>
        <time>2022-01-27T09:36:16Z</time>
      </trkpt>
      <trkpt lat="45.30301" lon="6.17904">
        <ele>1794.1</ele>
        <time>2022-01-27T09:36:18Z</time>
      </trkpt>
      <trkpt lat="45.30301" lon="6.17905">
        <ele>1794.2</ele>
        <time>2022-01-27T09:36:19Z</time>
      </trkpt>
      <trkpt lat="45.30302" lon="6.17905">
        <ele>1794.3</ele>
        <time>2022-01-27T09:36:20Z</time>
      </trkpt>
      <trkpt lat="45.30303" lon="6.17905">
        <ele>1796.2</ele>
        <time>2022-01-27T09:36:22Z</time>
      </trkpt>
      <trkpt lat="45.30304" lon="6.17905">
        <ele>1796.4</ele>
        <time>2022-01-27T09:36:24Z</time>
      </trkpt>
      <trkpt lat="45.30305" lon="6.17905">
        <ele>1796.5</ele>
        <time>2022-01-27T09:36:26Z</time>
      </trkpt>
      <trkpt lat="45.30306" lon="6.17905">
        <ele>1796.8</ele>
        <time>2022-01-27T09:36:28Z</time>
      </trkpt>
      <trkpt lat="45.30307" lon="6.17906">
        <ele>1798.6</ele>
        <time>2022-01-27T09:36:30Z</time>
      </trkpt>
      <trkpt lat="45.30308" lon="6.17907">
        <ele>1799</ele>
        <time>2022-01-27T09:36:34Z</time>
      </trkpt>
      <trkpt lat="45.30309" lon="6.17907">
        <ele>1799.1</ele>
        <time>2022-01-27T09:36:35Z</time>
      </trkpt>
      <trkpt lat="45.30309" lon="6.17908">
        <ele>1800.6</ele>
        <time>2022-01-27T09:36:36Z</time>
      </trkpt>
      <trkpt lat="45.3031" lon="6.17908">
        <ele>1799.7</ele>
        <time>2022-01-27T09:36:37Z</time>
      </trkpt>
      <trkpt lat="45.30311" lon="6.17909">
        <ele>1799.7</ele>
        <time>2022-01-27T09:36:42Z</time>
      </trkpt>
      <trkpt lat="45.30312" lon="6.17909">
        <ele>1801.1</ele>
        <time>2022-01-27T09:36:43Z</time>
      </trkpt>
      <trkpt lat="45.30312" lon="6.1791">
        <ele>1801.1</ele>
        <time>2022-01-27T09:36:45Z</time>
      </trkpt>
      <trkpt lat="45.30313" lon="6.1791">
        <ele>1801.1</ele>
        <time>2022-01-27T09:36:46Z</time>
      </trkpt>
      <trkpt lat="45.30314" lon="6.1791">
        <ele>1801.1</ele>
        <time>2022-01-27T09:36:48Z</time>
      </trkpt>
      <trkpt lat="45.30314" lon="6.17911">
        <ele>1801.1</ele>
        <time>2022-01-27T09:36:49Z</time>
      </trkpt>
      <trkpt lat="45.30315" lon="6.17911">
        <ele>1802.4</ele>
        <time>2022-01-27T09:36:50Z</time>
      </trkpt>
      <trkpt lat="45.30316" lon="6.17912">
        <ele>1802.4</ele>
        <time>2022-01-27T09:36:52Z</time>
      </trkpt>
      <trkpt lat="45.30317" lon="6.17912">
        <ele>1802.4</ele>
        <time>2022-01-27T09:36:53Z</time>
      </trkpt>
      <trkpt lat="45.30318" lon="6.17913">
        <ele>1801.6</ele>
        <time>2022-01-27T09:36:54Z</time>
      </trkpt>
      <trkpt lat="45.30319" lon="6.17913">
        <ele>1802.8</ele>
        <time>2022-01-27T09:36:56Z</time>
      </trkpt>
      <trkpt lat="45.3032" lon="6.17913">
        <ele>1802.8</ele>
        <time>2022-01-27T09:36:58Z</time>
      </trkpt>
      <trkpt lat="45.30321" lon="6.17913">
        <ele>1802.8</ele>
        <time>2022-01-27T09:37:01Z</time>
      </trkpt>
      <trkpt lat="45.30321" lon="6.17914">
        <ele>1804.1</ele>
        <time>2022-01-27T09:37:02Z</time>
      </trkpt>
      <trkpt lat="45.30322" lon="6.17914">
        <ele>1804.1</ele>
        <time>2022-01-27T09:37:03Z</time>
      </trkpt>
      <trkpt lat="45.30323" lon="6.17914">
        <ele>1804.1</ele>
        <time>2022-01-27T09:37:07Z</time>
      </trkpt>
      <trkpt lat="45.30324" lon="6.17914">
        <ele>1804.1</ele>
        <time>2022-01-27T09:37:09Z</time>
      </trkpt>
      <trkpt lat="45.30324" lon="6.17913">
        <ele>1805.4</ele>
        <time>2022-01-27T09:37:10Z</time>
      </trkpt>
      <trkpt lat="45.30324" lon="6.17912">
        <ele>1806.3</ele>
        <time>2022-01-27T09:37:12Z</time>
      </trkpt>
      <trkpt lat="45.30324" lon="6.17911">
        <ele>1806.3</ele>
        <time>2022-01-27T09:37:13Z</time>
      </trkpt>
      <trkpt lat="45.30324" lon="6.1791">
        <ele>1806.3</ele>
        <time>2022-01-27T09:37:14Z</time>
      </trkpt>
      <trkpt lat="45.30325" lon="6.17908">
        <ele>1807.1</ele>
        <time>2022-01-27T09:37:17Z</time>
      </trkpt>
      <trkpt lat="45.30325" lon="6.17907">
        <ele>1807.1</ele>
        <time>2022-01-27T09:37:18Z</time>
      </trkpt>
      <trkpt lat="45.30325" lon="6.17906">
        <ele>1807.1</ele>
        <time>2022-01-27T09:37:20Z</time>
      </trkpt>
      <trkpt lat="45.30326" lon="6.17904">
        <ele>1807.1</ele>
        <time>2022-01-27T09:37:22Z</time>
      </trkpt>
      <trkpt lat="45.30326" lon="6.17903">
        <ele>1808</ele>
        <time>2022-01-27T09:37:23Z</time>
      </trkpt>
      <trkpt lat="45.30327" lon="6.17903">
        <ele>1808</ele>
        <time>2022-01-27T09:37:24Z</time>
      </trkpt>
      <trkpt lat="45.30327" lon="6.17902">
        <ele>1808</ele>
        <time>2022-01-27T09:37:25Z</time>
      </trkpt>
      <trkpt lat="45.30327" lon="6.17901">
        <ele>1809.3</ele>
        <time>2022-01-27T09:37:26Z</time>
      </trkpt>
      <trkpt lat="45.30327" lon="6.17899">
        <ele>1810.1</ele>
        <time>2022-01-27T09:37:28Z</time>
      </trkpt>
      <trkpt lat="45.30328" lon="6.17898">
        <ele>1810.1</ele>
        <time>2022-01-27T09:37:29Z</time>
      </trkpt>
      <trkpt lat="45.30328" lon="6.17897">
        <ele>1810.1</ele>
        <time>2022-01-27T09:37:31Z</time>
      </trkpt>
      <trkpt lat="45.30328" lon="6.17896">
        <ele>1810.1</ele>
        <time>2022-01-27T09:37:32Z</time>
      </trkpt>
      <trkpt lat="45.30328" lon="6.17895">
        <ele>1810.1</ele>
        <time>2022-01-27T09:37:33Z</time>
      </trkpt>
      <trkpt lat="45.30328" lon="6.17894">
        <ele>1811</ele>
        <time>2022-01-27T09:37:35Z</time>
      </trkpt>
      <trkpt lat="45.30328" lon="6.17893">
        <ele>1811</ele>
        <time>2022-01-27T09:37:37Z</time>
      </trkpt>
      <trkpt lat="45.30328" lon="6.17892">
        <ele>1811</ele>
        <time>2022-01-27T09:37:38Z</time>
      </trkpt>
      <trkpt lat="45.30329" lon="6.17891">
        <ele>1811</ele>
        <time>2022-01-27T09:37:40Z</time>
      </trkpt>
      <trkpt lat="45.30329" lon="6.1789">
        <ele>1811.8</ele>
        <time>2022-01-27T09:37:41Z</time>
      </trkpt>
      <trkpt lat="45.30329" lon="6.17889">
        <ele>1811.8</ele>
        <time>2022-01-27T09:37:43Z</time>
      </trkpt>
      <trkpt lat="45.30329" lon="6.17888">
        <ele>1811.8</ele>
        <time>2022-01-27T09:37:45Z</time>
      </trkpt>
      <trkpt lat="45.30329" lon="6.17887">
        <ele>1811.8</ele>
        <time>2022-01-27T09:37:46Z</time>
      </trkpt>
      <trkpt lat="45.30329" lon="6.17886">
        <ele>1812.6</ele>
        <time>2022-01-27T09:37:47Z</time>
      </trkpt>
      <trkpt lat="45.30329" lon="6.17885">
        <ele>1812.6</ele>
        <time>2022-01-27T09:37:50Z</time>
      </trkpt>
      <trkpt lat="45.30329" lon="6.17884">
        <ele>1812.6</ele>
        <time>2022-01-27T09:37:51Z</time>
      </trkpt>
      <trkpt lat="45.30329" lon="6.17883">
        <ele>1812.6</ele>
        <time>2022-01-27T09:37:52Z</time>
      </trkpt>
      <trkpt lat="45.30329" lon="6.17882">
        <ele>1812.6</ele>
        <time>2022-01-27T09:37:53Z</time>
      </trkpt>
      <trkpt lat="45.30329" lon="6.17881">
        <ele>1813.4</ele>
        <time>2022-01-27T09:37:55Z</time>
      </trkpt>
      <trkpt lat="45.30329" lon="6.1788">
        <ele>1813.4</ele>
        <time>2022-01-27T09:37:57Z</time>
      </trkpt>
      <trkpt lat="45.30329" lon="6.17879">
        <ele>1813.4</ele>
        <time>2022-01-27T09:38:00Z</time>
      </trkpt>
      <trkpt lat="45.3033" lon="6.17879">
        <ele>1813.4</ele>
        <time>2022-01-27T09:38:01Z</time>
      </trkpt>
      <trkpt lat="45.30331" lon="6.17879">
        <ele>1814.7</ele>
        <time>2022-01-27T09:38:03Z</time>
      </trkpt>
      <trkpt lat="45.30331" lon="6.1788">
        <ele>1814.7</ele>
        <time>2022-01-27T09:38:06Z</time>
      </trkpt>
      <trkpt lat="45.30332" lon="6.1788">
        <ele>1814.7</ele>
        <time>2022-01-27T09:38:07Z</time>
      </trkpt>
      <trkpt lat="45.30332" lon="6.17881">
        <ele>1814.7</ele>
        <time>2022-01-27T09:38:08Z</time>
      </trkpt>
      <trkpt lat="45.30333" lon="6.17881">
        <ele>1814.7</ele>
        <time>2022-01-27T09:38:09Z</time>
      </trkpt>
      <trkpt lat="45.30333" lon="6.17882">
        <ele>1816</ele>
        <time>2022-01-27T09:38:10Z</time>
      </trkpt>
      <trkpt lat="45.30333" lon="6.17883">
        <ele>1815.2</ele>
        <time>2022-01-27T09:38:11Z</time>
      </trkpt>
      <trkpt lat="45.30334" lon="6.17884">
        <ele>1815.2</ele>
        <time>2022-01-27T09:38:13Z</time>
      </trkpt>
      <trkpt lat="45.30335" lon="6.17886">
        <ele>1815.2</ele>
        <time>2022-01-27T09:38:14Z</time>
      </trkpt>
      <trkpt lat="45.30335" lon="6.17887">
        <ele>1814.4</ele>
        <time>2022-01-27T09:38:15Z</time>
      </trkpt>
      <trkpt lat="45.30335" lon="6.17889">
        <ele>1814.4</ele>
        <time>2022-01-27T09:38:16Z</time>
      </trkpt>
      <trkpt lat="45.30335" lon="6.1789">
        <ele>1814.4</ele>
        <time>2022-01-27T09:38:18Z</time>
      </trkpt>
      <trkpt lat="45.30336" lon="6.17891">
        <ele>1814.9</ele>
        <time>2022-01-27T09:38:20Z</time>
      </trkpt>
      <trkpt lat="45.30337" lon="6.17892">
        <ele>1814.9</ele>
        <time>2022-01-27T09:38:22Z</time>
      </trkpt>
      <trkpt lat="45.30338" lon="6.17893">
        <ele>1814.9</ele>
        <time>2022-01-27T09:38:24Z</time>
      </trkpt>
      <trkpt lat="45.30339" lon="6.17894">
        <ele>1814.9</ele>
        <time>2022-01-27T09:38:26Z</time>
      </trkpt>
      <trkpt lat="45.3034" lon="6.17894">
        <ele>1816.3</ele>
        <time>2022-01-27T09:38:28Z</time>
      </trkpt>
      <trkpt lat="45.3034" lon="6.17895">
        <ele>1816.3</ele>
        <time>2022-01-27T09:38:30Z</time>
      </trkpt>
      <trkpt lat="45.30341" lon="6.17895">
        <ele>1815.4</ele>
        <time>2022-01-27T09:38:32Z</time>
      </trkpt>
      <trkpt lat="45.30341" lon="6.17896">
        <ele>1815.4</ele>
        <time>2022-01-27T09:38:33Z</time>
      </trkpt>
      <trkpt lat="45.30342" lon="6.17897">
        <ele>1815.4</ele>
        <time>2022-01-27T09:38:35Z</time>
      </trkpt>
      <trkpt lat="45.30342" lon="6.17898">
        <ele>1816.7</ele>
        <time>2022-01-27T09:38:36Z</time>
      </trkpt>
      <trkpt lat="45.30343" lon="6.17898">
        <ele>1816.7</ele>
        <time>2022-01-27T09:38:37Z</time>
      </trkpt>
      <trkpt lat="45.30343" lon="6.17897">
        <ele>1816.7</ele>
        <time>2022-01-27T09:38:38Z</time>
      </trkpt>
      <trkpt lat="45.30344" lon="6.17897">
        <ele>1816.7</ele>
        <time>2022-01-27T09:38:39Z</time>
      </trkpt>
      <trkpt lat="45.30344" lon="6.17896">
        <ele>1816.7</ele>
        <time>2022-01-27T09:38:40Z</time>
      </trkpt>
      <trkpt lat="45.30345" lon="6.17895">
        <ele>1818.8</ele>
        <time>2022-01-27T09:38:41Z</time>
      </trkpt>
      <trkpt lat="45.30346" lon="6.17894">
        <ele>1818.8</ele>
        <time>2022-01-27T09:38:42Z</time>
      </trkpt>
      <trkpt lat="45.30346" lon="6.17893">
        <ele>1818.8</ele>
        <time>2022-01-27T09:38:43Z</time>
      </trkpt>
      <trkpt lat="45.30346" lon="6.17892">
        <ele>1818.8</ele>
        <time>2022-01-27T09:38:44Z</time>
      </trkpt>
      <trkpt lat="45.30346" lon="6.17891">
        <ele>1818.8</ele>
        <time>2022-01-27T09:38:46Z</time>
      </trkpt>
      <trkpt lat="45.30347" lon="6.1789">
        <ele>1819.6</ele>
        <time>2022-01-27T09:38:47Z</time>
      </trkpt>
      <trkpt lat="45.30347" lon="6.17888">
        <ele>1819.6</ele>
        <time>2022-01-27T09:38:48Z</time>
      </trkpt>
      <trkpt lat="45.30347" lon="6.17886">
        <ele>1820.4</ele>
        <time>2022-01-27T09:38:50Z</time>
      </trkpt>
      <trkpt lat="45.30347" lon="6.17884">
        <ele>1820.4</ele>
        <time>2022-01-27T09:38:52Z</time>
      </trkpt>
      <trkpt lat="45.30347" lon="6.17883">
        <ele>1820.4</ele>
        <time>2022-01-27T09:38:53Z</time>
      </trkpt>
      <trkpt lat="45.30347" lon="6.17882">
        <ele>1821.2</ele>
        <time>2022-01-27T09:38:55Z</time>
      </trkpt>
      <trkpt lat="45.30347" lon="6.17881">
        <ele>1821.2</ele>
        <time>2022-01-27T09:38:57Z</time>
      </trkpt>
      <trkpt lat="45.30347" lon="6.1788">
        <ele>1821.2</ele>
        <time>2022-01-27T09:39:01Z</time>
      </trkpt>
      <trkpt lat="45.30348" lon="6.17881">
        <ele>1821.2</ele>
        <time>2022-01-27T09:39:03Z</time>
      </trkpt>
      <trkpt lat="45.30348" lon="6.17882">
        <ele>1822.4</ele>
        <time>2022-01-27T09:39:05Z</time>
      </trkpt>
      <trkpt lat="45.30349" lon="6.17883">
        <ele>1821.6</ele>
        <time>2022-01-27T09:39:06Z</time>
      </trkpt>
      <trkpt lat="45.3035" lon="6.17884">
        <ele>1821.6</ele>
        <time>2022-01-27T09:39:07Z</time>
      </trkpt>
      <trkpt lat="45.3035" lon="6.17885">
        <ele>1821.6</ele>
        <time>2022-01-27T09:39:08Z</time>
      </trkpt>
      <trkpt lat="45.3035" lon="6.17886">
        <ele>1821.6</ele>
        <time>2022-01-27T09:39:10Z</time>
      </trkpt>
      <trkpt lat="45.30351" lon="6.17886">
        <ele>1821.6</ele>
        <time>2022-01-27T09:39:11Z</time>
      </trkpt>
      <trkpt lat="45.30351" lon="6.17887">
        <ele>1820.8</ele>
        <time>2022-01-27T09:39:12Z</time>
      </trkpt>
      <trkpt lat="45.30351" lon="6.17888">
        <ele>1820.8</ele>
        <time>2022-01-27T09:39:13Z</time>
      </trkpt>
      <trkpt lat="45.30351" lon="6.17889">
        <ele>1820.8</ele>
        <time>2022-01-27T09:39:15Z</time>
      </trkpt>
      <trkpt lat="45.30351" lon="6.1789">
        <ele>1822</ele>
        <time>2022-01-27T09:39:16Z</time>
      </trkpt>
      <trkpt lat="45.30351" lon="6.17891">
        <ele>1822</ele>
        <time>2022-01-27T09:39:17Z</time>
      </trkpt>
      <trkpt lat="45.30351" lon="6.17892">
        <ele>1821.2</ele>
        <time>2022-01-27T09:39:19Z</time>
      </trkpt>
      <trkpt lat="45.30352" lon="6.17892">
        <ele>1821.2</ele>
        <time>2022-01-27T09:39:20Z</time>
      </trkpt>
      <trkpt lat="45.30352" lon="6.17893">
        <ele>1821.2</ele>
        <time>2022-01-27T09:39:21Z</time>
      </trkpt>
      <trkpt lat="45.30353" lon="6.17894">
        <ele>1821.2</ele>
        <time>2022-01-27T09:39:22Z</time>
      </trkpt>
      <trkpt lat="45.30353" lon="6.17895">
        <ele>1821.2</ele>
        <time>2022-01-27T09:39:24Z</time>
      </trkpt>
      <trkpt lat="45.30354" lon="6.17895">
        <ele>1822.4</ele>
        <time>2022-01-27T09:39:25Z</time>
      </trkpt>
      <trkpt lat="45.30356" lon="6.17896">
        <ele>1821.6</ele>
        <time>2022-01-27T09:39:27Z</time>
      </trkpt>
      <trkpt lat="45.30357" lon="6.17896">
        <ele>1823</ele>
        <time>2022-01-27T09:39:29Z</time>
      </trkpt>
      <trkpt lat="45.30358" lon="6.17895">
        <ele>1823.8</ele>
        <time>2022-01-27T09:39:30Z</time>
      </trkpt>
      <trkpt lat="45.30359" lon="6.17894">
        <ele>1823.8</ele>
        <time>2022-01-27T09:39:32Z</time>
      </trkpt>
      <trkpt lat="45.3036" lon="6.17893">
        <ele>1823.8</ele>
        <time>2022-01-27T09:39:33Z</time>
      </trkpt>
      <trkpt lat="45.3036" lon="6.17892">
        <ele>1825.2</ele>
        <time>2022-01-27T09:39:34Z</time>
      </trkpt>
      <trkpt lat="45.30361" lon="6.17892">
        <ele>1825.2</ele>
        <time>2022-01-27T09:39:35Z</time>
      </trkpt>
      <trkpt lat="45.30361" lon="6.17891">
        <ele>1825.2</ele>
        <time>2022-01-27T09:39:36Z</time>
      </trkpt>
      <trkpt lat="45.30362" lon="6.17889">
        <ele>1826</ele>
        <time>2022-01-27T09:39:37Z</time>
      </trkpt>
      <trkpt lat="45.30363" lon="6.17888">
        <ele>1826</ele>
        <time>2022-01-27T09:39:39Z</time>
      </trkpt>
      <trkpt lat="45.30363" lon="6.17887">
        <ele>1826</ele>
        <time>2022-01-27T09:39:40Z</time>
      </trkpt>
      <trkpt lat="45.30363" lon="6.17886">
        <ele>1826.7</ele>
        <time>2022-01-27T09:39:41Z</time>
      </trkpt>
      <trkpt lat="45.30363" lon="6.17884">
        <ele>1828.2</ele>
        <time>2022-01-27T09:39:42Z</time>
      </trkpt>
      <trkpt lat="45.30363" lon="6.17883">
        <ele>1828.2</ele>
        <time>2022-01-27T09:39:44Z</time>
      </trkpt>
      <trkpt lat="45.30363" lon="6.17882">
        <ele>1828.9</ele>
        <time>2022-01-27T09:39:45Z</time>
      </trkpt>
      <trkpt lat="45.30363" lon="6.17881">
        <ele>1828.9</ele>
        <time>2022-01-27T09:39:46Z</time>
      </trkpt>
      <trkpt lat="45.30364" lon="6.17879">
        <ele>1828.9</ele>
        <time>2022-01-27T09:39:48Z</time>
      </trkpt>
      <trkpt lat="45.30363" lon="6.17878">
        <ele>1828.9</ele>
        <time>2022-01-27T09:39:49Z</time>
      </trkpt>
      <trkpt lat="45.30363" lon="6.17877">
        <ele>1829.7</ele>
        <time>2022-01-27T09:39:51Z</time>
      </trkpt>
      <trkpt lat="45.30364" lon="6.17876">
        <ele>1829.7</ele>
        <time>2022-01-27T09:39:52Z</time>
      </trkpt>
      <trkpt lat="45.30365" lon="6.17876">
        <ele>1829.7</ele>
        <time>2022-01-27T09:39:54Z</time>
      </trkpt>
      <trkpt lat="45.30365" lon="6.17877">
        <ele>1829.7</ele>
        <time>2022-01-27T09:39:56Z</time>
      </trkpt>
      <trkpt lat="45.30366" lon="6.17877">
        <ele>1831</ele>
        <time>2022-01-27T09:39:57Z</time>
      </trkpt>
      <trkpt lat="45.30367" lon="6.17878">
        <ele>1831</ele>
        <time>2022-01-27T09:39:58Z</time>
      </trkpt>
      <trkpt lat="45.30368" lon="6.17879">
        <ele>1830.3</ele>
        <time>2022-01-27T09:40:00Z</time>
      </trkpt>
      <trkpt lat="45.30368" lon="6.1788">
        <ele>1830.3</ele>
        <time>2022-01-27T09:40:01Z</time>
      </trkpt>
      <trkpt lat="45.30369" lon="6.17881">
        <ele>1831.5</ele>
        <time>2022-01-27T09:40:02Z</time>
      </trkpt>
      <trkpt lat="45.30369" lon="6.17882">
        <ele>1831.5</ele>
        <time>2022-01-27T09:40:03Z</time>
      </trkpt>
      <trkpt lat="45.3037" lon="6.17883">
        <ele>1830.8</ele>
        <time>2022-01-27T09:40:04Z</time>
      </trkpt>
      <trkpt lat="45.30371" lon="6.17884">
        <ele>1830.8</ele>
        <time>2022-01-27T09:40:06Z</time>
      </trkpt>
      <trkpt lat="45.30371" lon="6.17885">
        <ele>1830.8</ele>
        <time>2022-01-27T09:40:07Z</time>
      </trkpt>
      <trkpt lat="45.30372" lon="6.17886">
        <ele>1830.8</ele>
        <time>2022-01-27T09:40:08Z</time>
      </trkpt>
      <trkpt lat="45.30372" lon="6.17887">
        <ele>1831.2</ele>
        <time>2022-01-27T09:40:09Z</time>
      </trkpt>
      <trkpt lat="45.30373" lon="6.17888">
        <ele>1831.2</ele>
        <time>2022-01-27T09:40:10Z</time>
      </trkpt>
      <trkpt lat="45.30374" lon="6.17888">
        <ele>1831.2</ele>
        <time>2022-01-27T09:40:11Z</time>
      </trkpt>
      <trkpt lat="45.30375" lon="6.17889">
        <ele>1831.2</ele>
        <time>2022-01-27T09:40:12Z</time>
      </trkpt>
      <trkpt lat="45.30376" lon="6.17889">
        <ele>1832.3</ele>
        <time>2022-01-27T09:40:14Z</time>
      </trkpt>
      <trkpt lat="45.30377" lon="6.17889">
        <ele>1832.3</ele>
        <time>2022-01-27T09:40:16Z</time>
      </trkpt>
      <trkpt lat="45.30378" lon="6.17889">
        <ele>1832.3</ele>
        <time>2022-01-27T09:40:17Z</time>
      </trkpt>
      <trkpt lat="45.30379" lon="6.17889">
        <ele>1833.3</ele>
        <time>2022-01-27T09:40:19Z</time>
      </trkpt>
      <trkpt lat="45.3038" lon="6.17889">
        <ele>1833.3</ele>
        <time>2022-01-27T09:40:21Z</time>
      </trkpt>
      <trkpt lat="45.3038" lon="6.17888">
        <ele>1833.3</ele>
        <time>2022-01-27T09:40:22Z</time>
      </trkpt>
      <trkpt lat="45.30381" lon="6.17888">
        <ele>1833.3</ele>
        <time>2022-01-27T09:40:23Z</time>
      </trkpt>
      <trkpt lat="45.30382" lon="6.17888">
        <ele>1834.4</ele>
        <time>2022-01-27T09:40:25Z</time>
      </trkpt>
      <trkpt lat="45.30382" lon="6.17887">
        <ele>1834.4</ele>
        <time>2022-01-27T09:40:26Z</time>
      </trkpt>
      <trkpt lat="45.30383" lon="6.17886">
        <ele>1835.1</ele>
        <time>2022-01-27T09:40:27Z</time>
      </trkpt>
      <trkpt lat="45.30384" lon="6.17885">
        <ele>1835.1</ele>
        <time>2022-01-27T09:40:29Z</time>
      </trkpt>
      <trkpt lat="45.30384" lon="6.17884">
        <ele>1835.1</ele>
        <time>2022-01-27T09:40:31Z</time>
      </trkpt>
      <trkpt lat="45.30384" lon="6.17883">
        <ele>1835.1</ele>
        <time>2022-01-27T09:40:32Z</time>
      </trkpt>
      <trkpt lat="45.30384" lon="6.17882">
        <ele>1835.8</ele>
        <time>2022-01-27T09:40:34Z</time>
      </trkpt>
      <trkpt lat="45.30384" lon="6.17881">
        <ele>1835.8</ele>
        <time>2022-01-27T09:40:35Z</time>
      </trkpt>
      <trkpt lat="45.30384" lon="6.1788">
        <ele>1835.8</ele>
        <time>2022-01-27T09:40:36Z</time>
      </trkpt>
      <trkpt lat="45.30384" lon="6.17879">
        <ele>1835.8</ele>
        <time>2022-01-27T09:40:37Z</time>
      </trkpt>
      <trkpt lat="45.30384" lon="6.17878">
        <ele>1835.8</ele>
        <time>2022-01-27T09:40:38Z</time>
      </trkpt>
      <trkpt lat="45.30384" lon="6.17877">
        <ele>1836.4</ele>
        <time>2022-01-27T09:40:39Z</time>
      </trkpt>
      <trkpt lat="45.30385" lon="6.17875">
        <ele>1837.6</ele>
        <time>2022-01-27T09:40:42Z</time>
      </trkpt>
      <trkpt lat="45.30385" lon="6.17874">
        <ele>1837.6</ele>
        <time>2022-01-27T09:40:43Z</time>
      </trkpt>
      <trkpt lat="45.30386" lon="6.17873">
        <ele>1838.3</ele>
        <time>2022-01-27T09:40:45Z</time>
      </trkpt>
      <trkpt lat="45.30387" lon="6.17872">
        <ele>1838.3</ele>
        <time>2022-01-27T09:40:47Z</time>
      </trkpt>
      <trkpt lat="45.30387" lon="6.17871">
        <ele>1838.3</ele>
        <time>2022-01-27T09:40:49Z</time>
      </trkpt>
      <trkpt lat="45.30387" lon="6.17872">
        <ele>1839.6</ele>
        <time>2022-01-27T09:40:51Z</time>
      </trkpt>
      <trkpt lat="45.30387" lon="6.17873">
        <ele>1838.3</ele>
        <time>2022-01-27T09:40:58Z</time>
      </trkpt>
      <trkpt lat="45.30388" lon="6.17871">
        <ele>1839.6</ele>
        <time>2022-01-27T09:41:03Z</time>
      </trkpt>
      <trkpt lat="45.30388" lon="6.1787">
        <ele>1839.6</ele>
        <time>2022-01-27T09:41:04Z</time>
      </trkpt>
      <trkpt lat="45.30389" lon="6.1787">
        <ele>1839.6</ele>
        <time>2022-01-27T09:41:06Z</time>
      </trkpt>
      <trkpt lat="45.30389" lon="6.17869">
        <ele>1840.3</ele>
        <time>2022-01-27T09:41:07Z</time>
      </trkpt>
      <trkpt lat="45.3039" lon="6.17869">
        <ele>1840.3</ele>
        <time>2022-01-27T09:41:08Z</time>
      </trkpt>
      <trkpt lat="45.3039" lon="6.17868">
        <ele>1840.3</ele>
        <time>2022-01-27T09:41:09Z</time>
      </trkpt>
      <trkpt lat="45.30391" lon="6.17867">
        <ele>1841.5</ele>
        <time>2022-01-27T09:41:11Z</time>
      </trkpt>
      <trkpt lat="45.30391" lon="6.17866">
        <ele>1841.5</ele>
        <time>2022-01-27T09:41:12Z</time>
      </trkpt>
      <trkpt lat="45.30391" lon="6.17865">
        <ele>1841.5</ele>
        <time>2022-01-27T09:41:13Z</time>
      </trkpt>
      <trkpt lat="45.30391" lon="6.17864">
        <ele>1842.3</ele>
        <time>2022-01-27T09:41:15Z</time>
      </trkpt>
      <trkpt lat="45.30392" lon="6.17862">
        <ele>1842.3</ele>
        <time>2022-01-27T09:41:18Z</time>
      </trkpt>
      <trkpt lat="45.30393" lon="6.17862">
        <ele>1842.3</ele>
        <time>2022-01-27T09:41:19Z</time>
      </trkpt>
      <trkpt lat="45.30394" lon="6.17862">
        <ele>1843.3</ele>
        <time>2022-01-27T09:41:21Z</time>
      </trkpt>
      <trkpt lat="45.30395" lon="6.17862">
        <ele>1843.3</ele>
        <time>2022-01-27T09:41:22Z</time>
      </trkpt>
      <trkpt lat="45.30395" lon="6.17861">
        <ele>1843.3</ele>
        <time>2022-01-27T09:41:23Z</time>
      </trkpt>
      <trkpt lat="45.30396" lon="6.17861">
        <ele>1843.3</ele>
        <time>2022-01-27T09:41:24Z</time>
      </trkpt>
      <trkpt lat="45.30396" lon="6.1786">
        <ele>1845</ele>
        <time>2022-01-27T09:41:25Z</time>
      </trkpt>
      <trkpt lat="45.30397" lon="6.1786">
        <ele>1845</ele>
        <time>2022-01-27T09:41:26Z</time>
      </trkpt>
      <trkpt lat="45.30398" lon="6.17859">
        <ele>1845</ele>
        <time>2022-01-27T09:41:28Z</time>
      </trkpt>
      <trkpt lat="45.30399" lon="6.17858">
        <ele>1845</ele>
        <time>2022-01-27T09:41:31Z</time>
      </trkpt>
      <trkpt lat="45.304" lon="6.17857">
        <ele>1845.8</ele>
        <time>2022-01-27T09:41:35Z</time>
      </trkpt>
      <trkpt lat="45.30401" lon="6.17857">
        <ele>1846.6</ele>
        <time>2022-01-27T09:41:38Z</time>
      </trkpt>
      <trkpt lat="45.30402" lon="6.17856">
        <ele>1846.6</ele>
        <time>2022-01-27T09:41:39Z</time>
      </trkpt>
      <trkpt lat="45.30403" lon="6.17856">
        <ele>1847.4</ele>
        <time>2022-01-27T09:41:41Z</time>
      </trkpt>
      <trkpt lat="45.30404" lon="6.17856">
        <ele>1847.4</ele>
        <time>2022-01-27T09:41:43Z</time>
      </trkpt>
      <trkpt lat="45.30405" lon="6.17856">
        <ele>1847.4</ele>
        <time>2022-01-27T09:41:46Z</time>
      </trkpt>
      <trkpt lat="45.30406" lon="6.17856">
        <ele>1848.3</ele>
        <time>2022-01-27T09:41:48Z</time>
      </trkpt>
      <trkpt lat="45.30407" lon="6.17856">
        <ele>1848.3</ele>
        <time>2022-01-27T09:41:51Z</time>
      </trkpt>
      <trkpt lat="45.30408" lon="6.17856">
        <ele>1848.3</ele>
        <time>2022-01-27T09:41:53Z</time>
      </trkpt>
      <trkpt lat="45.30408" lon="6.17855">
        <ele>1848.3</ele>
        <time>2022-01-27T09:41:54Z</time>
      </trkpt>
      <trkpt lat="45.30408" lon="6.17854">
        <ele>1849.2</ele>
        <time>2022-01-27T09:41:56Z</time>
      </trkpt>
      <trkpt lat="45.30408" lon="6.17853">
        <ele>1849.2</ele>
        <time>2022-01-27T09:41:57Z</time>
      </trkpt>
      <trkpt lat="45.30409" lon="6.17852">
        <ele>1849.9</ele>
        <time>2022-01-27T09:41:58Z</time>
      </trkpt>
      <trkpt lat="45.30409" lon="6.17851">
        <ele>1849.9</ele>
        <time>2022-01-27T09:41:59Z</time>
      </trkpt>
      <trkpt lat="45.30409" lon="6.1785">
        <ele>1849.9</ele>
        <time>2022-01-27T09:42:02Z</time>
      </trkpt>
      <trkpt lat="45.30409" lon="6.17849">
        <ele>1849.9</ele>
        <time>2022-01-27T09:42:03Z</time>
      </trkpt>
      <trkpt lat="45.30409" lon="6.17848">
        <ele>1849.9</ele>
        <time>2022-01-27T09:42:05Z</time>
      </trkpt>
      <trkpt lat="45.30409" lon="6.17847">
        <ele>1850.5</ele>
        <time>2022-01-27T09:42:07Z</time>
      </trkpt>
      <trkpt lat="45.30408" lon="6.17846">
        <ele>1849.6</ele>
        <time>2022-01-27T09:42:08Z</time>
      </trkpt>
      <trkpt lat="45.30407" lon="6.17845">
        <ele>1849.6</ele>
        <time>2022-01-27T09:42:12Z</time>
      </trkpt>
      <trkpt lat="45.30408" lon="6.17845">
        <ele>1849.6</ele>
        <time>2022-01-27T09:42:13Z</time>
      </trkpt>
      <trkpt lat="45.30408" lon="6.17844">
        <ele>1849.6</ele>
        <time>2022-01-27T09:42:16Z</time>
      </trkpt>
      <trkpt lat="45.30409" lon="6.17844">
        <ele>1850.5</ele>
        <time>2022-01-27T09:42:20Z</time>
      </trkpt>
      <trkpt lat="45.3041" lon="6.17844">
        <ele>1850.5</ele>
        <time>2022-01-27T09:42:23Z</time>
      </trkpt>
      <trkpt lat="45.30411" lon="6.17844">
        <ele>1850.5</ele>
        <time>2022-01-27T09:42:26Z</time>
      </trkpt>
      <trkpt lat="45.30412" lon="6.17844">
        <ele>1851.5</ele>
        <time>2022-01-27T09:42:27Z</time>
      </trkpt>
      <trkpt lat="45.30413" lon="6.17844">
        <ele>1851.5</ele>
        <time>2022-01-27T09:42:28Z</time>
      </trkpt>
      <trkpt lat="45.30414" lon="6.17843">
        <ele>1852.1</ele>
        <time>2022-01-27T09:42:30Z</time>
      </trkpt>
      <trkpt lat="45.30416" lon="6.17843">
        <ele>1853.1</ele>
        <time>2022-01-27T09:42:33Z</time>
      </trkpt>
      <trkpt lat="45.30417" lon="6.17843">
        <ele>1853.1</ele>
        <time>2022-01-27T09:42:34Z</time>
      </trkpt>
      <trkpt lat="45.30417" lon="6.17844">
        <ele>1853.1</ele>
        <time>2022-01-27T09:42:35Z</time>
      </trkpt>
      <trkpt lat="45.30418" lon="6.17844">
        <ele>1854.2</ele>
        <time>2022-01-27T09:42:37Z</time>
      </trkpt>
      <trkpt lat="45.30419" lon="6.17843">
        <ele>1854.2</ele>
        <time>2022-01-27T09:42:38Z</time>
      </trkpt>
      <trkpt lat="45.30419" lon="6.17842">
        <ele>1854.2</ele>
        <time>2022-01-27T09:42:40Z</time>
      </trkpt>
      <trkpt lat="45.30419" lon="6.17841">
        <ele>1854.2</ele>
        <time>2022-01-27T09:42:41Z</time>
      </trkpt>
      <trkpt lat="45.30419" lon="6.17839">
        <ele>1854.8</ele>
        <time>2022-01-27T09:42:42Z</time>
      </trkpt>
      <trkpt lat="45.30419" lon="6.17838">
        <ele>1854.8</ele>
        <time>2022-01-27T09:42:44Z</time>
      </trkpt>
      <trkpt lat="45.30419" lon="6.17837">
        <ele>1854.8</ele>
        <time>2022-01-27T09:42:45Z</time>
      </trkpt>
      <trkpt lat="45.30418" lon="6.17836">
        <ele>1854.8</ele>
        <time>2022-01-27T09:42:46Z</time>
      </trkpt>
      <trkpt lat="45.30418" lon="6.17835">
        <ele>1855.5</ele>
        <time>2022-01-27T09:42:47Z</time>
      </trkpt>
      <trkpt lat="45.30418" lon="6.17834">
        <ele>1855.5</ele>
        <time>2022-01-27T09:42:48Z</time>
      </trkpt>
      <trkpt lat="45.30417" lon="6.17834">
        <ele>1855.5</ele>
        <time>2022-01-27T09:42:49Z</time>
      </trkpt>
      <trkpt lat="45.30417" lon="6.17833">
        <ele>1854.4</ele>
        <time>2022-01-27T09:42:50Z</time>
      </trkpt>
      <trkpt lat="45.30417" lon="6.17832">
        <ele>1854.4</ele>
        <time>2022-01-27T09:42:51Z</time>
      </trkpt>
      <trkpt lat="45.30416" lon="6.17832">
        <ele>1854.4</ele>
        <time>2022-01-27T09:42:53Z</time>
      </trkpt>
      <trkpt lat="45.30416" lon="6.17831">
        <ele>1854.4</ele>
        <time>2022-01-27T09:42:54Z</time>
      </trkpt>
      <trkpt lat="45.30415" lon="6.1783">
        <ele>1855.1</ele>
        <time>2022-01-27T09:42:56Z</time>
      </trkpt>
      <trkpt lat="45.30414" lon="6.1783">
        <ele>1854.1</ele>
        <time>2022-01-27T09:42:58Z</time>
      </trkpt>
      <trkpt lat="45.30414" lon="6.17829">
        <ele>1854.1</ele>
        <time>2022-01-27T09:42:59Z</time>
      </trkpt>
      <trkpt lat="45.30413" lon="6.17829">
        <ele>1854.1</ele>
        <time>2022-01-27T09:43:01Z</time>
      </trkpt>
      <trkpt lat="45.30413" lon="6.17828">
        <ele>1854.1</ele>
        <time>2022-01-27T09:43:03Z</time>
      </trkpt>
      <trkpt lat="45.30413" lon="6.17827">
        <ele>1854.1</ele>
        <time>2022-01-27T09:43:04Z</time>
      </trkpt>
      <trkpt lat="45.30413" lon="6.17826">
        <ele>1854.8</ele>
        <time>2022-01-27T09:43:06Z</time>
      </trkpt>
      <trkpt lat="45.30414" lon="6.17826">
        <ele>1854.8</ele>
        <time>2022-01-27T09:43:08Z</time>
      </trkpt>
      <trkpt lat="45.30415" lon="6.17826">
        <ele>1855.8</ele>
        <time>2022-01-27T09:43:10Z</time>
      </trkpt>
      <trkpt lat="45.30415" lon="6.17827">
        <ele>1855.1</ele>
        <time>2022-01-27T09:43:11Z</time>
      </trkpt>
      <trkpt lat="45.30416" lon="6.17827">
        <ele>1855.1</ele>
        <time>2022-01-27T09:43:13Z</time>
      </trkpt>
      <trkpt lat="45.30417" lon="6.17827">
        <ele>1855.1</ele>
        <time>2022-01-27T09:43:16Z</time>
      </trkpt>
      <trkpt lat="45.30418" lon="6.17826">
        <ele>1856.8</ele>
        <time>2022-01-27T09:43:18Z</time>
      </trkpt>
      <trkpt lat="45.30419" lon="6.17826">
        <ele>1856.8</ele>
        <time>2022-01-27T09:43:20Z</time>
      </trkpt>
      <trkpt lat="45.3042" lon="6.17826">
        <ele>1856.8</ele>
        <time>2022-01-27T09:43:22Z</time>
      </trkpt>
      <trkpt lat="45.30421" lon="6.17826">
        <ele>1857.9</ele>
        <time>2022-01-27T09:43:24Z</time>
      </trkpt>
      <trkpt lat="45.30423" lon="6.17826">
        <ele>1857.9</ele>
        <time>2022-01-27T09:43:28Z</time>
      </trkpt>
      <trkpt lat="45.30424" lon="6.17827">
        <ele>1858.2</ele>
        <time>2022-01-27T09:43:30Z</time>
      </trkpt>
      <trkpt lat="45.30425" lon="6.17827">
        <ele>1858.2</ele>
        <time>2022-01-27T09:43:32Z</time>
      </trkpt>
      <trkpt lat="45.30426" lon="6.17827">
        <ele>1858.2</ele>
        <time>2022-01-27T09:43:34Z</time>
      </trkpt>
      <trkpt lat="45.30427" lon="6.17828">
        <ele>1859.2</ele>
        <time>2022-01-27T09:43:37Z</time>
      </trkpt>
      <trkpt lat="45.30428" lon="6.17828">
        <ele>1859.2</ele>
        <time>2022-01-27T09:43:39Z</time>
      </trkpt>
      <trkpt lat="45.30429" lon="6.17828">
        <ele>1859.2</ele>
        <time>2022-01-27T09:43:43Z</time>
      </trkpt>
      <trkpt lat="45.30428" lon="6.17827">
        <ele>1859.2</ele>
        <time>2022-01-27T09:43:44Z</time>
      </trkpt>
      <trkpt lat="45.30428" lon="6.17826">
        <ele>1859.9</ele>
        <time>2022-01-27T09:43:47Z</time>
      </trkpt>
      <trkpt lat="45.30427" lon="6.17825">
        <ele>1859.9</ele>
        <time>2022-01-27T09:43:48Z</time>
      </trkpt>
      <trkpt lat="45.30427" lon="6.17824">
        <ele>1859.9</ele>
        <time>2022-01-27T09:43:50Z</time>
      </trkpt>
      <trkpt lat="45.30427" lon="6.17823">
        <ele>1859.9</ele>
        <time>2022-01-27T09:43:52Z</time>
      </trkpt>
      <trkpt lat="45.30427" lon="6.17822">
        <ele>1860.6</ele>
        <time>2022-01-27T09:43:53Z</time>
      </trkpt>
      <trkpt lat="45.30426" lon="6.17821">
        <ele>1859.6</ele>
        <time>2022-01-27T09:43:54Z</time>
      </trkpt>
      <trkpt lat="45.30426" lon="6.1782">
        <ele>1859.6</ele>
        <time>2022-01-27T09:43:56Z</time>
      </trkpt>
      <trkpt lat="45.30425" lon="6.17819">
        <ele>1859.6</ele>
        <time>2022-01-27T09:43:57Z</time>
      </trkpt>
      <trkpt lat="45.30425" lon="6.17818">
        <ele>1859.6</ele>
        <time>2022-01-27T09:43:58Z</time>
      </trkpt>
      <trkpt lat="45.30425" lon="6.17817">
        <ele>1860.3</ele>
        <time>2022-01-27T09:44:00Z</time>
      </trkpt>
      <trkpt lat="45.30424" lon="6.17816">
        <ele>1860.3</ele>
        <time>2022-01-27T09:44:02Z</time>
      </trkpt>
      <trkpt lat="45.30424" lon="6.17815">
        <ele>1860.3</ele>
        <time>2022-01-27T09:44:03Z</time>
      </trkpt>
      <trkpt lat="45.30424" lon="6.17814">
        <ele>1860.3</ele>
        <time>2022-01-27T09:44:05Z</time>
      </trkpt>
      <trkpt lat="45.30424" lon="6.17813">
        <ele>1861.1</ele>
        <time>2022-01-27T09:44:06Z</time>
      </trkpt>
      <trkpt lat="45.30424" lon="6.17812">
        <ele>1861.1</ele>
        <time>2022-01-27T09:44:08Z</time>
      </trkpt>
      <trkpt lat="45.30425" lon="6.17812">
        <ele>1861.1</ele>
        <time>2022-01-27T09:44:09Z</time>
      </trkpt>
      <trkpt lat="45.30426" lon="6.17812">
        <ele>1861.1</ele>
        <time>2022-01-27T09:44:11Z</time>
      </trkpt>
      <trkpt lat="45.30427" lon="6.17813">
        <ele>1862.1</ele>
        <time>2022-01-27T09:44:13Z</time>
      </trkpt>
      <trkpt lat="45.30428" lon="6.17813">
        <ele>1862.1</ele>
        <time>2022-01-27T09:44:16Z</time>
      </trkpt>
      <trkpt lat="45.30429" lon="6.17814">
        <ele>1861.3</ele>
        <time>2022-01-27T09:44:18Z</time>
      </trkpt>
      <trkpt lat="45.3043" lon="6.17814">
        <ele>1862.3</ele>
        <time>2022-01-27T09:44:19Z</time>
      </trkpt>
      <trkpt lat="45.30431" lon="6.17814">
        <ele>1862.3</ele>
        <time>2022-01-27T09:44:21Z</time>
      </trkpt>
      <trkpt lat="45.30431" lon="6.17815">
        <ele>1862.3</ele>
        <time>2022-01-27T09:44:22Z</time>
      </trkpt>
      <trkpt lat="45.30432" lon="6.17815">
        <ele>1862.3</ele>
        <time>2022-01-27T09:44:23Z</time>
      </trkpt>
      <trkpt lat="45.30433" lon="6.17815">
        <ele>1863.3</ele>
        <time>2022-01-27T09:44:24Z</time>
      </trkpt>
      <trkpt lat="45.30433" lon="6.17816">
        <ele>1863.3</ele>
        <time>2022-01-27T09:44:25Z</time>
      </trkpt>
      <trkpt lat="45.30434" lon="6.17816">
        <ele>1863.3</ele>
        <time>2022-01-27T09:44:26Z</time>
      </trkpt>
      <trkpt lat="45.30435" lon="6.17817">
        <ele>1863.3</ele>
        <time>2022-01-27T09:44:28Z</time>
      </trkpt>
      <trkpt lat="45.30436" lon="6.17817">
        <ele>1864.3</ele>
        <time>2022-01-27T09:44:30Z</time>
      </trkpt>
      <trkpt lat="45.30437" lon="6.17818">
        <ele>1863.6</ele>
        <time>2022-01-27T09:44:34Z</time>
      </trkpt>
      <trkpt lat="45.30438" lon="6.17819">
        <ele>1863.6</ele>
        <time>2022-01-27T09:44:35Z</time>
      </trkpt>
      <trkpt lat="45.30439" lon="6.1782">
        <ele>1864.7</ele>
        <time>2022-01-27T09:44:38Z</time>
      </trkpt>
      <trkpt lat="45.3044" lon="6.1782">
        <ele>1864.7</ele>
        <time>2022-01-27T09:44:40Z</time>
      </trkpt>
      <trkpt lat="45.3044" lon="6.17821">
        <ele>1864.7</ele>
        <time>2022-01-27T09:44:41Z</time>
      </trkpt>
      <trkpt lat="45.30441" lon="6.17821">
        <ele>1864.7</ele>
        <time>2022-01-27T09:44:43Z</time>
      </trkpt>
      <trkpt lat="45.30442" lon="6.1782">
        <ele>1865.9</ele>
        <time>2022-01-27T09:44:46Z</time>
      </trkpt>
      <trkpt lat="45.30442" lon="6.17818">
        <ele>1865.9</ele>
        <time>2022-01-27T09:44:49Z</time>
      </trkpt>
      <trkpt lat="45.30442" lon="6.17817">
        <ele>1866.5</ele>
        <time>2022-01-27T09:44:51Z</time>
      </trkpt>
      <trkpt lat="45.30442" lon="6.17816">
        <ele>1866.5</ele>
        <time>2022-01-27T09:44:52Z</time>
      </trkpt>
      <trkpt lat="45.30442" lon="6.17815">
        <ele>1866.5</ele>
        <time>2022-01-27T09:44:54Z</time>
      </trkpt>
      <trkpt lat="45.30442" lon="6.17814">
        <ele>1866.5</ele>
        <time>2022-01-27T09:44:55Z</time>
      </trkpt>
      <trkpt lat="45.30441" lon="6.17813">
        <ele>1866</ele>
        <time>2022-01-27T09:44:56Z</time>
      </trkpt>
      <trkpt lat="45.30441" lon="6.17812">
        <ele>1866</ele>
        <time>2022-01-27T09:44:57Z</time>
      </trkpt>
      <trkpt lat="45.30441" lon="6.1781">
        <ele>1866</ele>
        <time>2022-01-27T09:44:59Z</time>
      </trkpt>
      <trkpt lat="45.30441" lon="6.17809">
        <ele>1866.7</ele>
        <time>2022-01-27T09:45:00Z</time>
      </trkpt>
      <trkpt lat="45.30441" lon="6.17808">
        <ele>1866.7</ele>
        <time>2022-01-27T09:45:01Z</time>
      </trkpt>
      <trkpt lat="45.3044" lon="6.17808">
        <ele>1866.7</ele>
        <time>2022-01-27T09:45:02Z</time>
      </trkpt>
      <trkpt lat="45.3044" lon="6.17807">
        <ele>1866.7</ele>
        <time>2022-01-27T09:45:05Z</time>
      </trkpt>
      <trkpt lat="45.30439" lon="6.17806">
        <ele>1866.7</ele>
        <time>2022-01-27T09:45:08Z</time>
      </trkpt>
      <trkpt lat="45.30439" lon="6.17805">
        <ele>1866.7</ele>
        <time>2022-01-27T09:45:09Z</time>
      </trkpt>
      <trkpt lat="45.30439" lon="6.17804">
        <ele>1867.3</ele>
        <time>2022-01-27T09:45:11Z</time>
      </trkpt>
      <trkpt lat="45.30439" lon="6.17803">
        <ele>1867.3</ele>
        <time>2022-01-27T09:45:14Z</time>
      </trkpt>
      <trkpt lat="45.30438" lon="6.17801">
        <ele>1867.3</ele>
        <time>2022-01-27T09:45:15Z</time>
      </trkpt>
      <trkpt lat="45.30438" lon="6.178">
        <ele>1867</ele>
        <time>2022-01-27T09:45:18Z</time>
      </trkpt>
      <trkpt lat="45.30437" lon="6.17798">
        <ele>1867</ele>
        <time>2022-01-27T09:45:19Z</time>
      </trkpt>
      <trkpt lat="45.30437" lon="6.17797">
        <ele>1867</ele>
        <time>2022-01-27T09:45:21Z</time>
      </trkpt>
      <trkpt lat="45.30436" lon="6.17796">
        <ele>1867.6</ele>
        <time>2022-01-27T09:45:22Z</time>
      </trkpt>
      <trkpt lat="45.30436" lon="6.17795">
        <ele>1867.6</ele>
        <time>2022-01-27T09:45:24Z</time>
      </trkpt>
      <trkpt lat="45.30436" lon="6.17794">
        <ele>1867.6</ele>
        <time>2022-01-27T09:45:26Z</time>
      </trkpt>
      <trkpt lat="45.30435" lon="6.17793">
        <ele>1866.7</ele>
        <time>2022-01-27T09:45:27Z</time>
      </trkpt>
      <trkpt lat="45.30435" lon="6.17792">
        <ele>1866.7</ele>
        <time>2022-01-27T09:45:28Z</time>
      </trkpt>
      <trkpt lat="45.30434" lon="6.17791">
        <ele>1867.4</ele>
        <time>2022-01-27T09:45:30Z</time>
      </trkpt>
      <trkpt lat="45.30434" lon="6.1779">
        <ele>1867.4</ele>
        <time>2022-01-27T09:45:32Z</time>
      </trkpt>
      <trkpt lat="45.30434" lon="6.17789">
        <ele>1867.4</ele>
        <time>2022-01-27T09:45:34Z</time>
      </trkpt>
      <trkpt lat="45.30434" lon="6.17788">
        <ele>1867.4</ele>
        <time>2022-01-27T09:45:35Z</time>
      </trkpt>
      <trkpt lat="45.30435" lon="6.17788">
        <ele>1868.1</ele>
        <time>2022-01-27T09:45:36Z</time>
      </trkpt>
      <trkpt lat="45.30436" lon="6.17788">
        <ele>1869</ele>
        <time>2022-01-27T09:45:38Z</time>
      </trkpt>
      <trkpt lat="45.30437" lon="6.17788">
        <ele>1869</ele>
        <time>2022-01-27T09:45:39Z</time>
      </trkpt>
      <trkpt lat="45.30438" lon="6.17788">
        <ele>1868.3</ele>
        <time>2022-01-27T09:45:42Z</time>
      </trkpt>
      <trkpt lat="45.30439" lon="6.17789">
        <ele>1869.2</ele>
        <time>2022-01-27T09:45:44Z</time>
      </trkpt>
      <trkpt lat="45.3044" lon="6.17789">
        <ele>1869.2</ele>
        <time>2022-01-27T09:45:45Z</time>
      </trkpt>
      <trkpt lat="45.3044" lon="6.1779">
        <ele>1869.2</ele>
        <time>2022-01-27T09:45:47Z</time>
      </trkpt>
      <trkpt lat="45.30441" lon="6.1779">
        <ele>1869.2</ele>
        <time>2022-01-27T09:45:48Z</time>
      </trkpt>
      <trkpt lat="45.30442" lon="6.17791">
        <ele>1870.3</ele>
        <time>2022-01-27T09:45:49Z</time>
      </trkpt>
      <trkpt lat="45.30443" lon="6.17792">
        <ele>1870.3</ele>
        <time>2022-01-27T09:45:51Z</time>
      </trkpt>
      <trkpt lat="45.30444" lon="6.17793">
        <ele>1869.7</ele>
        <time>2022-01-27T09:45:53Z</time>
      </trkpt>
      <trkpt lat="45.30445" lon="6.17793">
        <ele>1870.9</ele>
        <time>2022-01-27T09:45:54Z</time>
      </trkpt>
      <trkpt lat="45.30446" lon="6.17794">
        <ele>1870.9</ele>
        <time>2022-01-27T09:45:55Z</time>
      </trkpt>
      <trkpt lat="45.30447" lon="6.17795">
        <ele>1870.9</ele>
        <time>2022-01-27T09:45:56Z</time>
      </trkpt>
      <trkpt lat="45.30447" lon="6.17796">
        <ele>1870.9</ele>
        <time>2022-01-27T09:45:57Z</time>
      </trkpt>
      <trkpt lat="45.30449" lon="6.17798">
        <ele>1871.5</ele>
        <time>2022-01-27T09:45:59Z</time>
      </trkpt>
      <trkpt lat="45.3045" lon="6.17799">
        <ele>1871.5</ele>
        <time>2022-01-27T09:46:01Z</time>
      </trkpt>
      <trkpt lat="45.30451" lon="6.178">
        <ele>1872.7</ele>
        <time>2022-01-27T09:46:02Z</time>
      </trkpt>
      <trkpt lat="45.30452" lon="6.17801">
        <ele>1872.2</ele>
        <time>2022-01-27T09:46:04Z</time>
      </trkpt>
      <trkpt lat="45.30453" lon="6.17802">
        <ele>1872.2</ele>
        <time>2022-01-27T09:46:05Z</time>
      </trkpt>
      <trkpt lat="45.30454" lon="6.17801">
        <ele>1873.3</ele>
        <time>2022-01-27T09:46:09Z</time>
      </trkpt>
      <trkpt lat="45.30454" lon="6.178">
        <ele>1873.9</ele>
        <time>2022-01-27T09:46:11Z</time>
      </trkpt>
      <trkpt lat="45.30454" lon="6.17799">
        <ele>1873.9</ele>
        <time>2022-01-27T09:46:12Z</time>
      </trkpt>
      <trkpt lat="45.30454" lon="6.17798">
        <ele>1873.9</ele>
        <time>2022-01-27T09:46:13Z</time>
      </trkpt>
      <trkpt lat="45.30454" lon="6.17797">
        <ele>1873.9</ele>
        <time>2022-01-27T09:46:14Z</time>
      </trkpt>
      <trkpt lat="45.30454" lon="6.17796">
        <ele>1874.4</ele>
        <time>2022-01-27T09:46:15Z</time>
      </trkpt>
      <trkpt lat="45.30454" lon="6.17795">
        <ele>1874.4</ele>
        <time>2022-01-27T09:46:16Z</time>
      </trkpt>
      <trkpt lat="45.30453" lon="6.17795">
        <ele>1873.3</ele>
        <time>2022-01-27T09:46:17Z</time>
      </trkpt>
      <trkpt lat="45.30453" lon="6.17794">
        <ele>1873.3</ele>
        <time>2022-01-27T09:46:18Z</time>
      </trkpt>
      <trkpt lat="45.30453" lon="6.17792">
        <ele>1873.3</ele>
        <time>2022-01-27T09:46:19Z</time>
      </trkpt>
      <trkpt lat="45.30452" lon="6.17791">
        <ele>1873.9</ele>
        <time>2022-01-27T09:46:21Z</time>
      </trkpt>
      <trkpt lat="45.30452" lon="6.1779">
        <ele>1873.9</ele>
        <time>2022-01-27T09:46:22Z</time>
      </trkpt>
      <trkpt lat="45.30452" lon="6.17789">
        <ele>1873.9</ele>
        <time>2022-01-27T09:46:23Z</time>
      </trkpt>
      <trkpt lat="45.30451" lon="6.17788">
        <ele>1874.5</ele>
        <time>2022-01-27T09:46:24Z</time>
      </trkpt>
      <trkpt lat="45.30451" lon="6.17787">
        <ele>1874.5</ele>
        <time>2022-01-27T09:46:25Z</time>
      </trkpt>
      <trkpt lat="45.30451" lon="6.17786">
        <ele>1874.5</ele>
        <time>2022-01-27T09:46:26Z</time>
      </trkpt>
      <trkpt lat="45.3045" lon="6.17786">
        <ele>1873.3</ele>
        <time>2022-01-27T09:46:27Z</time>
      </trkpt>
      <trkpt lat="45.3045" lon="6.17785">
        <ele>1873.3</ele>
        <time>2022-01-27T09:46:28Z</time>
      </trkpt>
      <trkpt lat="45.30449" lon="6.17784">
        <ele>1873.3</ele>
        <time>2022-01-27T09:46:29Z</time>
      </trkpt>
      <trkpt lat="45.30449" lon="6.17783">
        <ele>1874</ele>
        <time>2022-01-27T09:46:30Z</time>
      </trkpt>
      <trkpt lat="45.30448" lon="6.17783">
        <ele>1874</ele>
        <time>2022-01-27T09:46:32Z</time>
      </trkpt>
      <trkpt lat="45.30447" lon="6.17782">
        <ele>1872.8</ele>
        <time>2022-01-27T09:46:34Z</time>
      </trkpt>
      <trkpt lat="45.30446" lon="6.17782">
        <ele>1872.8</ele>
        <time>2022-01-27T09:46:38Z</time>
      </trkpt>
      <trkpt lat="45.30447" lon="6.17781">
        <ele>1872.8</ele>
        <time>2022-01-27T09:46:39Z</time>
      </trkpt>
      <trkpt lat="45.30447" lon="6.1778">
        <ele>1872.8</ele>
        <time>2022-01-27T09:46:42Z</time>
      </trkpt>
      <trkpt lat="45.30448" lon="6.1778">
        <ele>1874</ele>
        <time>2022-01-27T09:46:45Z</time>
      </trkpt>
      <trkpt lat="45.30449" lon="6.1778">
        <ele>1874</ele>
        <time>2022-01-27T09:46:49Z</time>
      </trkpt>
      <trkpt lat="45.3045" lon="6.1778">
        <ele>1874</ele>
        <time>2022-01-27T09:46:51Z</time>
      </trkpt>
      <trkpt lat="45.30451" lon="6.1778">
        <ele>1875.2</ele>
        <time>2022-01-27T09:46:53Z</time>
      </trkpt>
      <trkpt lat="45.30452" lon="6.1778">
        <ele>1875.2</ele>
        <time>2022-01-27T09:46:54Z</time>
      </trkpt>
      <trkpt lat="45.30453" lon="6.1778">
        <ele>1875.2</ele>
        <time>2022-01-27T09:46:57Z</time>
      </trkpt>
      <trkpt lat="45.30454" lon="6.1778">
        <ele>1876.3</ele>
        <time>2022-01-27T09:46:58Z</time>
      </trkpt>
      <trkpt lat="45.30455" lon="6.1778">
        <ele>1876.3</ele>
        <time>2022-01-27T09:47:00Z</time>
      </trkpt>
      <trkpt lat="45.30456" lon="6.1778">
        <ele>1876.3</ele>
        <time>2022-01-27T09:47:02Z</time>
      </trkpt>
      <trkpt lat="45.30457" lon="6.17781">
        <ele>1877.3</ele>
        <time>2022-01-27T09:47:04Z</time>
      </trkpt>
      <trkpt lat="45.30458" lon="6.17782">
        <ele>1877.3</ele>
        <time>2022-01-27T09:47:06Z</time>
      </trkpt>
      <trkpt lat="45.30459" lon="6.17782">
        <ele>1877.3</ele>
        <time>2022-01-27T09:47:07Z</time>
      </trkpt>
      <trkpt lat="45.3046" lon="6.17782">
        <ele>1877.3</ele>
        <time>2022-01-27T09:47:08Z</time>
      </trkpt>
      <trkpt lat="45.3046" lon="6.17781">
        <ele>1878.3</ele>
        <time>2022-01-27T09:47:10Z</time>
      </trkpt>
      <trkpt lat="45.3046" lon="6.1778">
        <ele>1878.3</ele>
        <time>2022-01-27T09:47:13Z</time>
      </trkpt>
      <trkpt lat="45.3046" lon="6.17779">
        <ele>1879</ele>
        <time>2022-01-27T09:47:14Z</time>
      </trkpt>
      <trkpt lat="45.30459" lon="6.17779">
        <ele>1878.1</ele>
        <time>2022-01-27T09:47:15Z</time>
      </trkpt>
      <trkpt lat="45.30459" lon="6.17778">
        <ele>1878.1</ele>
        <time>2022-01-27T09:47:16Z</time>
      </trkpt>
      <trkpt lat="45.30459" lon="6.17777">
        <ele>1878.1</ele>
        <time>2022-01-27T09:47:17Z</time>
      </trkpt>
      <trkpt lat="45.30458" lon="6.17776">
        <ele>1878.1</ele>
        <time>2022-01-27T09:47:19Z</time>
      </trkpt>
      <trkpt lat="45.30458" lon="6.17775">
        <ele>1878.9</ele>
        <time>2022-01-27T09:47:20Z</time>
      </trkpt>
      <trkpt lat="45.30458" lon="6.17774">
        <ele>1878.9</ele>
        <time>2022-01-27T09:47:21Z</time>
      </trkpt>
      <trkpt lat="45.30458" lon="6.17773">
        <ele>1878.9</ele>
        <time>2022-01-27T09:47:22Z</time>
      </trkpt>
      <trkpt lat="45.30458" lon="6.17772">
        <ele>1878.9</ele>
        <time>2022-01-27T09:47:23Z</time>
      </trkpt>
      <trkpt lat="45.30457" lon="6.1777">
        <ele>1879.7</ele>
        <time>2022-01-27T09:47:25Z</time>
      </trkpt>
      <trkpt lat="45.30457" lon="6.17769">
        <ele>1879.7</ele>
        <time>2022-01-27T09:47:27Z</time>
      </trkpt>
      <trkpt lat="45.30457" lon="6.17768">
        <ele>1879.7</ele>
        <time>2022-01-27T09:47:28Z</time>
      </trkpt>
      <trkpt lat="45.30456" lon="6.17767">
        <ele>1878.7</ele>
        <time>2022-01-27T09:47:29Z</time>
      </trkpt>
      <trkpt lat="45.30456" lon="6.17765">
        <ele>1879.6</ele>
        <time>2022-01-27T09:47:30Z</time>
      </trkpt>
      <trkpt lat="45.30456" lon="6.17764">
        <ele>1879.6</ele>
        <time>2022-01-27T09:47:31Z</time>
      </trkpt>
      <trkpt lat="45.30456" lon="6.17763">
        <ele>1879.6</ele>
        <time>2022-01-27T09:47:32Z</time>
      </trkpt>
      <trkpt lat="45.30456" lon="6.17762">
        <ele>1880.5</ele>
        <time>2022-01-27T09:47:34Z</time>
      </trkpt>
      <trkpt lat="45.30455" lon="6.17761">
        <ele>1880.5</ele>
        <time>2022-01-27T09:47:35Z</time>
      </trkpt>
      <trkpt lat="45.30455" lon="6.1776">
        <ele>1880.5</ele>
        <time>2022-01-27T09:47:36Z</time>
      </trkpt>
      <trkpt lat="45.30454" lon="6.17759">
        <ele>1880.5</ele>
        <time>2022-01-27T09:47:38Z</time>
      </trkpt>
      <trkpt lat="45.30454" lon="6.17758">
        <ele>1880.5</ele>
        <time>2022-01-27T09:47:39Z</time>
      </trkpt>
      <trkpt lat="45.30453" lon="6.17758">
        <ele>1880.2</ele>
        <time>2022-01-27T09:47:41Z</time>
      </trkpt>
      <trkpt lat="45.30453" lon="6.17757">
        <ele>1880.2</ele>
        <time>2022-01-27T09:47:42Z</time>
      </trkpt>
      <trkpt lat="45.30452" lon="6.17757">
        <ele>1880.2</ele>
        <time>2022-01-27T09:47:45Z</time>
      </trkpt>
      <trkpt lat="45.30452" lon="6.17756">
        <ele>1880.2</ele>
        <time>2022-01-27T09:47:46Z</time>
      </trkpt>
      <trkpt lat="45.30452" lon="6.17755">
        <ele>1880.2</ele>
        <time>2022-01-27T09:47:51Z</time>
      </trkpt>
      <trkpt lat="45.30452" lon="6.17754">
        <ele>1880.2</ele>
        <time>2022-01-27T09:47:54Z</time>
      </trkpt>
      <trkpt lat="45.30453" lon="6.17754">
        <ele>1880.2</ele>
        <time>2022-01-27T09:47:56Z</time>
      </trkpt>
      <trkpt lat="45.30453" lon="6.17753">
        <ele>1881.1</ele>
        <time>2022-01-27T09:47:58Z</time>
      </trkpt>
      <trkpt lat="45.30454" lon="6.17753">
        <ele>1882.2</ele>
        <time>2022-01-27T09:47:59Z</time>
      </trkpt>
      <trkpt lat="45.30454" lon="6.17752">
        <ele>1882.2</ele>
        <time>2022-01-27T09:48:01Z</time>
      </trkpt>
      <trkpt lat="45.30455" lon="6.17752">
        <ele>1882.2</ele>
        <time>2022-01-27T09:48:02Z</time>
      </trkpt>
      <trkpt lat="45.30455" lon="6.17751">
        <ele>1882.2</ele>
        <time>2022-01-27T09:48:04Z</time>
      </trkpt>
      <trkpt lat="45.30456" lon="6.17751">
        <ele>1882.2</ele>
        <time>2022-01-27T09:48:05Z</time>
      </trkpt>
      <trkpt lat="45.30457" lon="6.17751">
        <ele>1882.2</ele>
        <time>2022-01-27T09:48:07Z</time>
      </trkpt>
      <trkpt lat="45.30457" lon="6.1775">
        <ele>1883.2</ele>
        <time>2022-01-27T09:48:08Z</time>
      </trkpt>
      <trkpt lat="45.30458" lon="6.1775">
        <ele>1883.2</ele>
        <time>2022-01-27T09:48:09Z</time>
      </trkpt>
      <trkpt lat="45.30459" lon="6.1775">
        <ele>1883.2</ele>
        <time>2022-01-27T09:48:11Z</time>
      </trkpt>
      <trkpt lat="45.3046" lon="6.1775">
        <ele>1884.2</ele>
        <time>2022-01-27T09:48:12Z</time>
      </trkpt>
      <trkpt lat="45.30461" lon="6.1775">
        <ele>1884.2</ele>
        <time>2022-01-27T09:48:14Z</time>
      </trkpt>
      <trkpt lat="45.30462" lon="6.1775">
        <ele>1884.2</ele>
        <time>2022-01-27T09:48:15Z</time>
      </trkpt>
      <trkpt lat="45.30463" lon="6.17749">
        <ele>1885.3</ele>
        <time>2022-01-27T09:48:17Z</time>
      </trkpt>
      <trkpt lat="45.30464" lon="6.17749">
        <ele>1886.1</ele>
        <time>2022-01-27T09:48:19Z</time>
      </trkpt>
      <trkpt lat="45.30465" lon="6.17749">
        <ele>1885.3</ele>
        <time>2022-01-27T09:48:20Z</time>
      </trkpt>
      <trkpt lat="45.30465" lon="6.1775">
        <ele>1885.3</ele>
        <time>2022-01-27T09:48:21Z</time>
      </trkpt>
      <trkpt lat="45.30466" lon="6.1775">
        <ele>1886.4</ele>
        <time>2022-01-27T09:48:22Z</time>
      </trkpt>
      <trkpt lat="45.30466" lon="6.17751">
        <ele>1886.4</ele>
        <time>2022-01-27T09:48:23Z</time>
      </trkpt>
      <trkpt lat="45.30467" lon="6.17751">
        <ele>1886.4</ele>
        <time>2022-01-27T09:48:24Z</time>
      </trkpt>
      <trkpt lat="45.30468" lon="6.17752">
        <ele>1886.4</ele>
        <time>2022-01-27T09:48:25Z</time>
      </trkpt>
      <trkpt lat="45.30469" lon="6.17754">
        <ele>1887.7</ele>
        <time>2022-01-27T09:48:26Z</time>
      </trkpt>
      <trkpt lat="45.3047" lon="6.17754">
        <ele>1886.8</ele>
        <time>2022-01-27T09:48:28Z</time>
      </trkpt>
      <trkpt lat="45.30471" lon="6.17755">
        <ele>1886.8</ele>
        <time>2022-01-27T09:48:29Z</time>
      </trkpt>
      <trkpt lat="45.30472" lon="6.17755">
        <ele>1888.2</ele>
        <time>2022-01-27T09:48:31Z</time>
      </trkpt>
      <trkpt lat="45.30472" lon="6.17756">
        <ele>1888.2</ele>
        <time>2022-01-27T09:48:32Z</time>
      </trkpt>
      <trkpt lat="45.30473" lon="6.17757">
        <ele>1888.2</ele>
        <time>2022-01-27T09:48:34Z</time>
      </trkpt>
      <trkpt lat="45.30474" lon="6.17756">
        <ele>1888.2</ele>
        <time>2022-01-27T09:48:38Z</time>
      </trkpt>
      <trkpt lat="45.30474" lon="6.17755">
        <ele>1888.2</ele>
        <time>2022-01-27T09:48:40Z</time>
      </trkpt>
      <trkpt lat="45.30475" lon="6.17755">
        <ele>1888.2</ele>
        <time>2022-01-27T09:48:42Z</time>
      </trkpt>
      <trkpt lat="45.30475" lon="6.17754">
        <ele>1888.2</ele>
        <time>2022-01-27T09:48:43Z</time>
      </trkpt>
      <trkpt lat="45.30475" lon="6.17753">
        <ele>1890.4</ele>
        <time>2022-01-27T09:48:44Z</time>
      </trkpt>
      <trkpt lat="45.30475" lon="6.17752">
        <ele>1889.1</ele>
        <time>2022-01-27T09:48:45Z</time>
      </trkpt>
      <trkpt lat="45.30474" lon="6.17751">
        <ele>1889.1</ele>
        <time>2022-01-27T09:48:48Z</time>
      </trkpt>
      <trkpt lat="45.30474" lon="6.17749">
        <ele>1889.1</ele>
        <time>2022-01-27T09:48:50Z</time>
      </trkpt>
      <trkpt lat="45.30473" lon="6.1775">
        <ele>1889.1</ele>
        <time>2022-01-27T09:48:52Z</time>
      </trkpt>
      <trkpt lat="45.30473" lon="6.17749">
        <ele>1889.9</ele>
        <time>2022-01-27T09:48:56Z</time>
      </trkpt>
      <trkpt lat="45.30473" lon="6.17748">
        <ele>1889.9</ele>
        <time>2022-01-27T09:48:58Z</time>
      </trkpt>
      <trkpt lat="45.30474" lon="6.17747">
        <ele>1889.9</ele>
        <time>2022-01-27T09:49:00Z</time>
      </trkpt>
      <trkpt lat="45.30474" lon="6.17746">
        <ele>1889.9</ele>
        <time>2022-01-27T09:49:01Z</time>
      </trkpt>
      <trkpt lat="45.30475" lon="6.17745">
        <ele>1892.2</ele>
        <time>2022-01-27T09:49:04Z</time>
      </trkpt>
      <trkpt lat="45.30475" lon="6.17744">
        <ele>1892.2</ele>
        <time>2022-01-27T09:49:05Z</time>
      </trkpt>
      <trkpt lat="45.30476" lon="6.17744">
        <ele>1892.2</ele>
        <time>2022-01-27T09:49:06Z</time>
      </trkpt>
      <trkpt lat="45.30477" lon="6.17744">
        <ele>1892.2</ele>
        <time>2022-01-27T09:49:08Z</time>
      </trkpt>
      <trkpt lat="45.30477" lon="6.17746">
        <ele>1891.3</ele>
        <time>2022-01-27T09:49:10Z</time>
      </trkpt>
      <trkpt lat="45.30478" lon="6.17746">
        <ele>1892.6</ele>
        <time>2022-01-27T09:49:11Z</time>
      </trkpt>
      <trkpt lat="45.30478" lon="6.17747">
        <ele>1892.6</ele>
        <time>2022-01-27T09:49:12Z</time>
      </trkpt>
      <trkpt lat="45.30479" lon="6.17747">
        <ele>1892.6</ele>
        <time>2022-01-27T09:49:13Z</time>
      </trkpt>
      <trkpt lat="45.30479" lon="6.17748">
        <ele>1892.6</ele>
        <time>2022-01-27T09:49:14Z</time>
      </trkpt>
      <trkpt lat="45.3048" lon="6.17749">
        <ele>1892.6</ele>
        <time>2022-01-27T09:49:15Z</time>
      </trkpt>
      <trkpt lat="45.30481" lon="6.17749">
        <ele>1892.6</ele>
        <time>2022-01-27T09:49:16Z</time>
      </trkpt>
      <trkpt lat="45.30481" lon="6.1775">
        <ele>1893</ele>
        <time>2022-01-27T09:49:17Z</time>
      </trkpt>
      <trkpt lat="45.30482" lon="6.17751">
        <ele>1893</ele>
        <time>2022-01-27T09:49:19Z</time>
      </trkpt>
      <trkpt lat="45.30482" lon="6.17752">
        <ele>1893</ele>
        <time>2022-01-27T09:49:20Z</time>
      </trkpt>
      <trkpt lat="45.30483" lon="6.17752">
        <ele>1893</ele>
        <time>2022-01-27T09:49:21Z</time>
      </trkpt>
      <trkpt lat="45.30484" lon="6.17752">
        <ele>1893</ele>
        <time>2022-01-27T09:49:23Z</time>
      </trkpt>
      <trkpt lat="45.30485" lon="6.17752">
        <ele>1894.3</ele>
        <time>2022-01-27T09:49:25Z</time>
      </trkpt>
      <trkpt lat="45.30485" lon="6.17751">
        <ele>1894.3</ele>
        <time>2022-01-27T09:49:27Z</time>
      </trkpt>
      <trkpt lat="45.30486" lon="6.17751">
        <ele>1894.3</ele>
        <time>2022-01-27T09:49:28Z</time>
      </trkpt>
      <trkpt lat="45.30486" lon="6.1775">
        <ele>1894.3</ele>
        <time>2022-01-27T09:49:29Z</time>
      </trkpt>
      <trkpt lat="45.30487" lon="6.17749">
        <ele>1896.3</ele>
        <time>2022-01-27T09:49:30Z</time>
      </trkpt>
      <trkpt lat="45.30487" lon="6.17748">
        <ele>1896.3</ele>
        <time>2022-01-27T09:49:31Z</time>
      </trkpt>
      <trkpt lat="45.30487" lon="6.17747">
        <ele>1896.3</ele>
        <time>2022-01-27T09:49:32Z</time>
      </trkpt>
      <trkpt lat="45.30487" lon="6.17746">
        <ele>1896.3</ele>
        <time>2022-01-27T09:49:33Z</time>
      </trkpt>
      <trkpt lat="45.30487" lon="6.17744">
        <ele>1897.1</ele>
        <time>2022-01-27T09:49:34Z</time>
      </trkpt>
      <trkpt lat="45.30487" lon="6.17743">
        <ele>1897.1</ele>
        <time>2022-01-27T09:49:38Z</time>
      </trkpt>
      <trkpt lat="45.30487" lon="6.17741">
        <ele>1897.1</ele>
        <time>2022-01-27T09:49:39Z</time>
      </trkpt>
      <trkpt lat="45.30487" lon="6.1774">
        <ele>1898</ele>
        <time>2022-01-27T09:49:42Z</time>
      </trkpt>
      <trkpt lat="45.30487" lon="6.17739">
        <ele>1898</ele>
        <time>2022-01-27T09:49:43Z</time>
      </trkpt>
      <trkpt lat="45.30487" lon="6.1774">
        <ele>1898</ele>
        <time>2022-01-27T09:49:44Z</time>
      </trkpt>
      <trkpt lat="45.30488" lon="6.17739">
        <ele>1898</ele>
        <time>2022-01-27T09:49:46Z</time>
      </trkpt>
      <trkpt lat="45.30488" lon="6.17738">
        <ele>1898</ele>
        <time>2022-01-27T09:49:47Z</time>
      </trkpt>
      <trkpt lat="45.30487" lon="6.17738">
        <ele>1898</ele>
        <time>2022-01-27T09:49:48Z</time>
      </trkpt>
      <trkpt lat="45.30487" lon="6.17737">
        <ele>1898</ele>
        <time>2022-01-27T09:49:49Z</time>
      </trkpt>
      <trkpt lat="45.30487" lon="6.17736">
        <ele>1898</ele>
        <time>2022-01-27T09:49:50Z</time>
      </trkpt>
      <trkpt lat="45.30487" lon="6.17735">
        <ele>1898.8</ele>
        <time>2022-01-27T09:49:52Z</time>
      </trkpt>
      <trkpt lat="45.30487" lon="6.17734">
        <ele>1898.8</ele>
        <time>2022-01-27T09:49:54Z</time>
      </trkpt>
      <trkpt lat="45.30487" lon="6.17733">
        <ele>1898.8</ele>
        <time>2022-01-27T09:49:55Z</time>
      </trkpt>
      <trkpt lat="45.30488" lon="6.17732">
        <ele>1898.8</ele>
        <time>2022-01-27T09:49:57Z</time>
      </trkpt>
      <trkpt lat="45.30488" lon="6.17731">
        <ele>1899.8</ele>
        <time>2022-01-27T09:49:58Z</time>
      </trkpt>
      <trkpt lat="45.30488" lon="6.1773">
        <ele>1899.8</ele>
        <time>2022-01-27T09:50:00Z</time>
      </trkpt>
      <trkpt lat="45.30488" lon="6.17729">
        <ele>1899.8</ele>
        <time>2022-01-27T09:50:01Z</time>
      </trkpt>
      <trkpt lat="45.30488" lon="6.1773">
        <ele>1899.8</ele>
        <time>2022-01-27T09:50:05Z</time>
      </trkpt>
      <trkpt lat="45.30488" lon="6.17729">
        <ele>1899.8</ele>
        <time>2022-01-27T09:50:09Z</time>
      </trkpt>
      <trkpt lat="45.30488" lon="6.17728">
        <ele>1899.8</ele>
        <time>2022-01-27T09:50:11Z</time>
      </trkpt>
      <trkpt lat="45.30495" lon="6.17727">
        <ele>1903.4</ele>
        <time>2022-01-27T09:50:31Z</time>
      </trkpt>
      <trkpt lat="45.30495" lon="6.17728">
        <ele>1903.4</ele>
        <time>2022-01-27T09:50:34Z</time>
      </trkpt>
      <trkpt lat="45.30496" lon="6.17729">
        <ele>1902.5</ele>
        <time>2022-01-27T09:50:37Z</time>
      </trkpt>
      <trkpt lat="45.30496" lon="6.1773">
        <ele>1904</ele>
        <time>2022-01-27T09:50:38Z</time>
      </trkpt>
      <trkpt lat="45.30497" lon="6.17731">
        <ele>1904</ele>
        <time>2022-01-27T09:50:40Z</time>
      </trkpt>
      <trkpt lat="45.30498" lon="6.17732">
        <ele>1904</ele>
        <time>2022-01-27T09:50:42Z</time>
      </trkpt>
      <trkpt lat="45.30499" lon="6.17732">
        <ele>1903.2</ele>
        <time>2022-01-27T09:50:43Z</time>
      </trkpt>
      <trkpt lat="45.30499" lon="6.17733">
        <ele>1904.8</ele>
        <time>2022-01-27T09:50:44Z</time>
      </trkpt>
      <trkpt lat="45.305" lon="6.17734">
        <ele>1904.8</ele>
        <time>2022-01-27T09:50:45Z</time>
      </trkpt>
      <trkpt lat="45.30501" lon="6.17735">
        <ele>1904.8</ele>
        <time>2022-01-27T09:50:46Z</time>
      </trkpt>
      <trkpt lat="45.30502" lon="6.17736">
        <ele>1904.8</ele>
        <time>2022-01-27T09:50:48Z</time>
      </trkpt>
      <trkpt lat="45.30502" lon="6.17737">
        <ele>1905.6</ele>
        <time>2022-01-27T09:50:49Z</time>
      </trkpt>
      <trkpt lat="45.30503" lon="6.17738">
        <ele>1905.6</ele>
        <time>2022-01-27T09:50:50Z</time>
      </trkpt>
      <trkpt lat="45.30504" lon="6.17739">
        <ele>1905.6</ele>
        <time>2022-01-27T09:50:51Z</time>
      </trkpt>
      <trkpt lat="45.30505" lon="6.17739">
        <ele>1907.2</ele>
        <time>2022-01-27T09:50:52Z</time>
      </trkpt>
      <trkpt lat="45.30506" lon="6.1774">
        <ele>1907.2</ele>
        <time>2022-01-27T09:50:53Z</time>
      </trkpt>
      <trkpt lat="45.30507" lon="6.17741">
        <ele>1906.5</ele>
        <time>2022-01-27T09:50:54Z</time>
      </trkpt>
      <trkpt lat="45.30508" lon="6.17742">
        <ele>1906.5</ele>
        <time>2022-01-27T09:50:55Z</time>
      </trkpt>
      <trkpt lat="45.30508" lon="6.17743">
        <ele>1908</ele>
        <time>2022-01-27T09:50:56Z</time>
      </trkpt>
      <trkpt lat="45.30509" lon="6.17744">
        <ele>1908</ele>
        <time>2022-01-27T09:50:57Z</time>
      </trkpt>
      <trkpt lat="45.3051" lon="6.17745">
        <ele>1908</ele>
        <time>2022-01-27T09:50:58Z</time>
      </trkpt>
      <trkpt lat="45.3051" lon="6.17746">
        <ele>1907.4</ele>
        <time>2022-01-27T09:50:59Z</time>
      </trkpt>
      <trkpt lat="45.30512" lon="6.17747">
        <ele>1908.9</ele>
        <time>2022-01-27T09:51:00Z</time>
      </trkpt>
      <trkpt lat="45.30512" lon="6.17748">
        <ele>1908.9</ele>
        <time>2022-01-27T09:51:01Z</time>
      </trkpt>
      <trkpt lat="45.30513" lon="6.17748">
        <ele>1908.9</ele>
        <time>2022-01-27T09:51:02Z</time>
      </trkpt>
      <trkpt lat="45.30514" lon="6.17748">
        <ele>1908.9</ele>
        <time>2022-01-27T09:51:03Z</time>
      </trkpt>
      <trkpt lat="45.30514" lon="6.17747">
        <ele>1910.4</ele>
        <time>2022-01-27T09:51:04Z</time>
      </trkpt>
      <trkpt lat="45.30515" lon="6.17745">
        <ele>1910.4</ele>
        <time>2022-01-27T09:51:06Z</time>
      </trkpt>
      <trkpt lat="45.30515" lon="6.17744">
        <ele>1911</ele>
        <time>2022-01-27T09:51:08Z</time>
      </trkpt>
      <trkpt lat="45.30515" lon="6.17743">
        <ele>1911</ele>
        <time>2022-01-27T09:51:09Z</time>
      </trkpt>
      <trkpt lat="45.30515" lon="6.17741">
        <ele>1911</ele>
        <time>2022-01-27T09:51:10Z</time>
      </trkpt>
      <trkpt lat="45.30515" lon="6.1774">
        <ele>1911.6</ele>
        <time>2022-01-27T09:51:12Z</time>
      </trkpt>
      <trkpt lat="45.30515" lon="6.17739">
        <ele>1911.6</ele>
        <time>2022-01-27T09:51:13Z</time>
      </trkpt>
      <trkpt lat="45.30514" lon="6.17737">
        <ele>1911.6</ele>
        <time>2022-01-27T09:51:15Z</time>
      </trkpt>
      <trkpt lat="45.30514" lon="6.17736">
        <ele>1912.2</ele>
        <time>2022-01-27T09:51:16Z</time>
      </trkpt>
      <trkpt lat="45.30515" lon="6.17735">
        <ele>1912.2</ele>
        <time>2022-01-27T09:51:17Z</time>
      </trkpt>
      <trkpt lat="45.30515" lon="6.17734">
        <ele>1912.2</ele>
        <time>2022-01-27T09:51:18Z</time>
      </trkpt>
      <trkpt lat="45.30515" lon="6.17733">
        <ele>1912.2</ele>
        <time>2022-01-27T09:51:19Z</time>
      </trkpt>
      <trkpt lat="45.30515" lon="6.17731">
        <ele>1912.8</ele>
        <time>2022-01-27T09:51:20Z</time>
      </trkpt>
      <trkpt lat="45.30515" lon="6.1773">
        <ele>1912.8</ele>
        <time>2022-01-27T09:51:21Z</time>
      </trkpt>
      <trkpt lat="45.30515" lon="6.17729">
        <ele>1912.8</ele>
        <time>2022-01-27T09:51:22Z</time>
      </trkpt>
      <trkpt lat="45.30516" lon="6.17726">
        <ele>1913.5</ele>
        <time>2022-01-27T09:51:23Z</time>
      </trkpt>
      <trkpt lat="45.30516" lon="6.17725">
        <ele>1913.5</ele>
        <time>2022-01-27T09:51:24Z</time>
      </trkpt>
      <trkpt lat="45.30516" lon="6.17724">
        <ele>1913.5</ele>
        <time>2022-01-27T09:51:25Z</time>
      </trkpt>
      <trkpt lat="45.30517" lon="6.17723">
        <ele>1914.1</ele>
        <time>2022-01-27T09:51:26Z</time>
      </trkpt>
      <trkpt lat="45.30517" lon="6.17722">
        <ele>1914.1</ele>
        <time>2022-01-27T09:51:27Z</time>
      </trkpt>
      <trkpt lat="45.30517" lon="6.17721">
        <ele>1914.1</ele>
        <time>2022-01-27T09:51:28Z</time>
      </trkpt>
      <trkpt lat="45.30517" lon="6.17719">
        <ele>1916.1</ele>
        <time>2022-01-27T09:51:29Z</time>
      </trkpt>
      <trkpt lat="45.30517" lon="6.17718">
        <ele>1916.1</ele>
        <time>2022-01-27T09:51:31Z</time>
      </trkpt>
      <trkpt lat="45.30517" lon="6.17717">
        <ele>1916.1</ele>
        <time>2022-01-27T09:51:32Z</time>
      </trkpt>
      <trkpt lat="45.30517" lon="6.17716">
        <ele>1916.1</ele>
        <time>2022-01-27T09:51:33Z</time>
      </trkpt>
      <trkpt lat="45.30517" lon="6.17715">
        <ele>1916.6</ele>
        <time>2022-01-27T09:51:35Z</time>
      </trkpt>
      <trkpt lat="45.30518" lon="6.17714">
        <ele>1916.6</ele>
        <time>2022-01-27T09:51:36Z</time>
      </trkpt>
      <trkpt lat="45.30518" lon="6.17713">
        <ele>1916.6</ele>
        <time>2022-01-27T09:51:37Z</time>
      </trkpt>
      <trkpt lat="45.30518" lon="6.17712">
        <ele>1916.6</ele>
        <time>2022-01-27T09:51:38Z</time>
      </trkpt>
      <trkpt lat="45.30518" lon="6.17711">
        <ele>1916.6</ele>
        <time>2022-01-27T09:51:39Z</time>
      </trkpt>
      <trkpt lat="45.30518" lon="6.1771">
        <ele>1917.2</ele>
        <time>2022-01-27T09:51:40Z</time>
      </trkpt>
      <trkpt lat="45.30517" lon="6.1771">
        <ele>1917.2</ele>
        <time>2022-01-27T09:51:42Z</time>
      </trkpt>
      <trkpt lat="45.30517" lon="6.17709">
        <ele>1917.2</ele>
        <time>2022-01-27T09:51:45Z</time>
      </trkpt>
      <trkpt lat="45.30517" lon="6.17708">
        <ele>1917.2</ele>
        <time>2022-01-27T09:51:47Z</time>
      </trkpt>
      <trkpt lat="45.30517" lon="6.17707">
        <ele>1917.2</ele>
        <time>2022-01-27T09:51:49Z</time>
      </trkpt>
      <trkpt lat="45.30519" lon="6.17699">
        <ele>1918.3</ele>
        <time>2022-01-27T09:52:13Z</time>
      </trkpt>
      <trkpt lat="45.3052" lon="6.177">
        <ele>1918.3</ele>
        <time>2022-01-27T09:52:14Z</time>
      </trkpt>
      <trkpt lat="45.30521" lon="6.177">
        <ele>1919.5</ele>
        <time>2022-01-27T09:52:17Z</time>
      </trkpt>
      <trkpt lat="45.30522" lon="6.177">
        <ele>1919.5</ele>
        <time>2022-01-27T09:52:20Z</time>
      </trkpt>
      <trkpt lat="45.30523" lon="6.17699">
        <ele>1919.5</ele>
        <time>2022-01-27T09:52:23Z</time>
      </trkpt>
      <trkpt lat="45.30524" lon="6.17699">
        <ele>1920.7</ele>
        <time>2022-01-27T09:52:25Z</time>
      </trkpt>
      <trkpt lat="45.3053" lon="6.17706">
        <ele>1922.9</ele>
        <time>2022-01-27T09:52:48Z</time>
      </trkpt>
      <trkpt lat="45.30531" lon="6.17707">
        <ele>1922.5</ele>
        <time>2022-01-27T09:52:51Z</time>
      </trkpt>
      <trkpt lat="45.30532" lon="6.17707">
        <ele>1922.5</ele>
        <time>2022-01-27T09:52:53Z</time>
      </trkpt>
      <trkpt lat="45.30532" lon="6.17708">
        <ele>1923.9</ele>
        <time>2022-01-27T09:52:54Z</time>
      </trkpt>
      <trkpt lat="45.30533" lon="6.17709">
        <ele>1923.9</ele>
        <time>2022-01-27T09:52:56Z</time>
      </trkpt>
      <trkpt lat="45.30534" lon="6.17709">
        <ele>1923.9</ele>
        <time>2022-01-27T09:52:57Z</time>
      </trkpt>
      <trkpt lat="45.30535" lon="6.17709">
        <ele>1923.9</ele>
        <time>2022-01-27T09:52:58Z</time>
      </trkpt>
      <trkpt lat="45.30535" lon="6.1771">
        <ele>1925.3</ele>
        <time>2022-01-27T09:52:59Z</time>
      </trkpt>
      <trkpt lat="45.30536" lon="6.1771">
        <ele>1925.3</ele>
        <time>2022-01-27T09:53:00Z</time>
      </trkpt>
      <trkpt lat="45.30537" lon="6.17711">
        <ele>1924.9</ele>
        <time>2022-01-27T09:53:01Z</time>
      </trkpt>
      <trkpt lat="45.30537" lon="6.17712">
        <ele>1924.9</ele>
        <time>2022-01-27T09:53:02Z</time>
      </trkpt>
      <trkpt lat="45.30538" lon="6.17712">
        <ele>1924.9</ele>
        <time>2022-01-27T09:53:03Z</time>
      </trkpt>
      <trkpt lat="45.30538" lon="6.17713">
        <ele>1926.3</ele>
        <time>2022-01-27T09:53:04Z</time>
      </trkpt>
      <trkpt lat="45.30539" lon="6.17714">
        <ele>1926.3</ele>
        <time>2022-01-27T09:53:05Z</time>
      </trkpt>
      <trkpt lat="45.30539" lon="6.17715">
        <ele>1926.3</ele>
        <time>2022-01-27T09:53:06Z</time>
      </trkpt>
      <trkpt lat="45.3054" lon="6.17716">
        <ele>1925.8</ele>
        <time>2022-01-27T09:53:08Z</time>
      </trkpt>
      <trkpt lat="45.3054" lon="6.17717">
        <ele>1925.8</ele>
        <time>2022-01-27T09:53:09Z</time>
      </trkpt>
      <trkpt lat="45.3054" lon="6.17718">
        <ele>1925.8</ele>
        <time>2022-01-27T09:53:11Z</time>
      </trkpt>
      <trkpt lat="45.3054" lon="6.17719">
        <ele>1925.8</ele>
        <time>2022-01-27T09:53:12Z</time>
      </trkpt>
      <trkpt lat="45.30541" lon="6.1772">
        <ele>1925.4</ele>
        <time>2022-01-27T09:53:14Z</time>
      </trkpt>
      <trkpt lat="45.30541" lon="6.17721">
        <ele>1925.4</ele>
        <time>2022-01-27T09:53:15Z</time>
      </trkpt>
      <trkpt lat="45.30541" lon="6.17722">
        <ele>1925.4</ele>
        <time>2022-01-27T09:53:16Z</time>
      </trkpt>
      <trkpt lat="45.30541" lon="6.17723">
        <ele>1925.4</ele>
        <time>2022-01-27T09:53:18Z</time>
      </trkpt>
      <trkpt lat="45.30541" lon="6.17724">
        <ele>1926.3</ele>
        <time>2022-01-27T09:53:19Z</time>
      </trkpt>
      <trkpt lat="45.30542" lon="6.17725">
        <ele>1926.3</ele>
        <time>2022-01-27T09:53:21Z</time>
      </trkpt>
      <trkpt lat="45.30542" lon="6.17726">
        <ele>1926.3</ele>
        <time>2022-01-27T09:53:22Z</time>
      </trkpt>
      <trkpt lat="45.30542" lon="6.17727">
        <ele>1926.3</ele>
        <time>2022-01-27T09:53:23Z</time>
      </trkpt>
      <trkpt lat="45.30543" lon="6.17727">
        <ele>1926.3</ele>
        <time>2022-01-27T09:53:24Z</time>
      </trkpt>
      <trkpt lat="45.30543" lon="6.17728">
        <ele>1925.9</ele>
        <time>2022-01-27T09:53:25Z</time>
      </trkpt>
      <trkpt lat="45.30543" lon="6.17729">
        <ele>1925.9</ele>
        <time>2022-01-27T09:53:26Z</time>
      </trkpt>
      <trkpt lat="45.30543" lon="6.1773">
        <ele>1925.9</ele>
        <time>2022-01-27T09:53:27Z</time>
      </trkpt>
      <trkpt lat="45.30544" lon="6.1773">
        <ele>1925.9</ele>
        <time>2022-01-27T09:53:28Z</time>
      </trkpt>
      <trkpt lat="45.30544" lon="6.17731">
        <ele>1925.9</ele>
        <time>2022-01-27T09:53:29Z</time>
      </trkpt>
      <trkpt lat="45.30544" lon="6.17732">
        <ele>1925.9</ele>
        <time>2022-01-27T09:53:30Z</time>
      </trkpt>
      <trkpt lat="45.30544" lon="6.17733">
        <ele>1927</ele>
        <time>2022-01-27T09:53:31Z</time>
      </trkpt>
      <trkpt lat="45.30545" lon="6.17733">
        <ele>1927</ele>
        <time>2022-01-27T09:53:32Z</time>
      </trkpt>
      <trkpt lat="45.30545" lon="6.17734">
        <ele>1927</ele>
        <time>2022-01-27T09:53:33Z</time>
      </trkpt>
      <trkpt lat="45.30545" lon="6.17735">
        <ele>1927</ele>
        <time>2022-01-27T09:53:34Z</time>
      </trkpt>
      <trkpt lat="45.30546" lon="6.17735">
        <ele>1927</ele>
        <time>2022-01-27T09:53:35Z</time>
      </trkpt>
      <trkpt lat="45.30546" lon="6.17736">
        <ele>1927</ele>
        <time>2022-01-27T09:53:36Z</time>
      </trkpt>
      <trkpt lat="45.30546" lon="6.17737">
        <ele>1926.7</ele>
        <time>2022-01-27T09:53:37Z</time>
      </trkpt>
      <trkpt lat="45.30547" lon="6.17737">
        <ele>1926.7</ele>
        <time>2022-01-27T09:53:38Z</time>
      </trkpt>
      <trkpt lat="45.30547" lon="6.17738">
        <ele>1926.7</ele>
        <time>2022-01-27T09:53:39Z</time>
      </trkpt>
      <trkpt lat="45.30547" lon="6.17739">
        <ele>1928.1</ele>
        <time>2022-01-27T09:53:40Z</time>
      </trkpt>
      <trkpt lat="45.30548" lon="6.17739">
        <ele>1928.1</ele>
        <time>2022-01-27T09:53:41Z</time>
      </trkpt>
      <trkpt lat="45.30548" lon="6.1774">
        <ele>1928.1</ele>
        <time>2022-01-27T09:53:42Z</time>
      </trkpt>
      <trkpt lat="45.30548" lon="6.17741">
        <ele>1928.1</ele>
        <time>2022-01-27T09:53:43Z</time>
      </trkpt>
      <trkpt lat="45.30549" lon="6.17742">
        <ele>1927.9</ele>
        <time>2022-01-27T09:53:45Z</time>
      </trkpt>
      <trkpt lat="45.3055" lon="6.17743">
        <ele>1927.9</ele>
        <time>2022-01-27T09:53:48Z</time>
      </trkpt>
      <trkpt lat="45.30551" lon="6.17744">
        <ele>1929.5</ele>
        <time>2022-01-27T09:53:51Z</time>
      </trkpt>
      <trkpt lat="45.30552" lon="6.17744">
        <ele>1929.5</ele>
        <time>2022-01-27T09:53:53Z</time>
      </trkpt>
      <trkpt lat="45.30553" lon="6.17745">
        <ele>1929.3</ele>
        <time>2022-01-27T09:53:55Z</time>
      </trkpt>
      <trkpt lat="45.30554" lon="6.17746">
        <ele>1931.2</ele>
        <time>2022-01-27T09:53:56Z</time>
      </trkpt>
      <trkpt lat="45.30554" lon="6.17747">
        <ele>1931.2</ele>
        <time>2022-01-27T09:53:57Z</time>
      </trkpt>
      <trkpt lat="45.30555" lon="6.17748">
        <ele>1931.2</ele>
        <time>2022-01-27T09:53:58Z</time>
      </trkpt>
      <trkpt lat="45.30555" lon="6.17749">
        <ele>1931.2</ele>
        <time>2022-01-27T09:53:59Z</time>
      </trkpt>
      <trkpt lat="45.30556" lon="6.1775">
        <ele>1931</ele>
        <time>2022-01-27T09:54:00Z</time>
      </trkpt>
      <trkpt lat="45.30557" lon="6.17751">
        <ele>1933.1</ele>
        <time>2022-01-27T09:54:01Z</time>
      </trkpt>
      <trkpt lat="45.30557" lon="6.17752">
        <ele>1933.1</ele>
        <time>2022-01-27T09:54:02Z</time>
      </trkpt>
      <trkpt lat="45.30557" lon="6.17753">
        <ele>1933.1</ele>
        <time>2022-01-27T09:54:04Z</time>
      </trkpt>
      <trkpt lat="45.30558" lon="6.17754">
        <ele>1932.9</ele>
        <time>2022-01-27T09:54:05Z</time>
      </trkpt>
      <trkpt lat="45.30558" lon="6.17755">
        <ele>1932.9</ele>
        <time>2022-01-27T09:54:06Z</time>
      </trkpt>
      <trkpt lat="45.30558" lon="6.17756">
        <ele>1932.9</ele>
        <time>2022-01-27T09:54:07Z</time>
      </trkpt>
      <trkpt lat="45.30559" lon="6.17757">
        <ele>1932.9</ele>
        <time>2022-01-27T09:54:09Z</time>
      </trkpt>
      <trkpt lat="45.30559" lon="6.17758">
        <ele>1934.8</ele>
        <time>2022-01-27T09:54:11Z</time>
      </trkpt>
      <trkpt lat="45.3056" lon="6.17758">
        <ele>1934.8</ele>
        <time>2022-01-27T09:54:12Z</time>
      </trkpt>
      <trkpt lat="45.3056" lon="6.17759">
        <ele>1934.8</ele>
        <time>2022-01-27T09:54:13Z</time>
      </trkpt>
      <trkpt lat="45.30561" lon="6.1776">
        <ele>1934.8</ele>
        <time>2022-01-27T09:54:15Z</time>
      </trkpt>
      <trkpt lat="45.30561" lon="6.17761">
        <ele>1934.8</ele>
        <time>2022-01-27T09:54:16Z</time>
      </trkpt>
      <trkpt lat="45.30562" lon="6.17762">
        <ele>1934.7</ele>
        <time>2022-01-27T09:54:17Z</time>
      </trkpt>
      <trkpt lat="45.30562" lon="6.17763">
        <ele>1936.7</ele>
        <time>2022-01-27T09:54:18Z</time>
      </trkpt>
      <trkpt lat="45.30563" lon="6.17764">
        <ele>1936.7</ele>
        <time>2022-01-27T09:54:19Z</time>
      </trkpt>
      <trkpt lat="45.30564" lon="6.17766">
        <ele>1936.7</ele>
        <time>2022-01-27T09:54:21Z</time>
      </trkpt>
      <trkpt lat="45.30565" lon="6.17766">
        <ele>1936.7</ele>
        <time>2022-01-27T09:54:24Z</time>
      </trkpt>
      <trkpt lat="45.30565" lon="6.17767">
        <ele>1936.6</ele>
        <time>2022-01-27T09:54:25Z</time>
      </trkpt>
      <trkpt lat="45.30566" lon="6.17767">
        <ele>1938.5</ele>
        <time>2022-01-27T09:54:26Z</time>
      </trkpt>
      <trkpt lat="45.30566" lon="6.17768">
        <ele>1938.5</ele>
        <time>2022-01-27T09:54:28Z</time>
      </trkpt>
      <trkpt lat="45.30567" lon="6.17768">
        <ele>1938.5</ele>
        <time>2022-01-27T09:54:30Z</time>
      </trkpt>
      <trkpt lat="45.30567" lon="6.17769">
        <ele>1938.5</ele>
        <time>2022-01-27T09:54:31Z</time>
      </trkpt>
      <trkpt lat="45.30568" lon="6.17769">
        <ele>1938.5</ele>
        <time>2022-01-27T09:54:32Z</time>
      </trkpt>
      <trkpt lat="45.30569" lon="6.1777">
        <ele>1940.3</ele>
        <time>2022-01-27T09:54:34Z</time>
      </trkpt>
      <trkpt lat="45.3057" lon="6.17771">
        <ele>1940.3</ele>
        <time>2022-01-27T09:54:36Z</time>
      </trkpt>
      <trkpt lat="45.30571" lon="6.17771">
        <ele>1940.3</ele>
        <time>2022-01-27T09:54:37Z</time>
      </trkpt>
      <trkpt lat="45.30572" lon="6.17772">
        <ele>1942.2</ele>
        <time>2022-01-27T09:54:40Z</time>
      </trkpt>
      <trkpt lat="45.30573" lon="6.17772">
        <ele>1942.2</ele>
        <time>2022-01-27T09:54:42Z</time>
      </trkpt>
      <trkpt lat="45.30573" lon="6.17773">
        <ele>1942.2</ele>
        <time>2022-01-27T09:54:43Z</time>
      </trkpt>
      <trkpt lat="45.30574" lon="6.17774">
        <ele>1942.2</ele>
        <time>2022-01-27T09:54:46Z</time>
      </trkpt>
      <trkpt lat="45.30575" lon="6.17775">
        <ele>1944.2</ele>
        <time>2022-01-27T09:54:48Z</time>
      </trkpt>
      <trkpt lat="45.30575" lon="6.17776">
        <ele>1944.2</ele>
        <time>2022-01-27T09:54:49Z</time>
      </trkpt>
      <trkpt lat="45.30576" lon="6.17777">
        <ele>1944.2</ele>
        <time>2022-01-27T09:54:51Z</time>
      </trkpt>
      <trkpt lat="45.30577" lon="6.17778">
        <ele>1944.2</ele>
        <time>2022-01-27T09:54:52Z</time>
      </trkpt>
      <trkpt lat="45.30577" lon="6.17779">
        <ele>1946.5</ele>
        <time>2022-01-27T09:54:53Z</time>
      </trkpt>
      <trkpt lat="45.30578" lon="6.1778">
        <ele>1946.5</ele>
        <time>2022-01-27T09:54:54Z</time>
      </trkpt>
      <trkpt lat="45.30579" lon="6.17781">
        <ele>1946.5</ele>
        <time>2022-01-27T09:54:57Z</time>
      </trkpt>
      <trkpt lat="45.30579" lon="6.17782">
        <ele>1946.5</ele>
        <time>2022-01-27T09:54:59Z</time>
      </trkpt>
      <trkpt lat="45.30579" lon="6.17783">
        <ele>1946.5</ele>
        <time>2022-01-27T09:55:01Z</time>
      </trkpt>
      <trkpt lat="45.3058" lon="6.17784">
        <ele>1946.6</ele>
        <time>2022-01-27T09:55:02Z</time>
      </trkpt>
      <trkpt lat="45.3058" lon="6.17785">
        <ele>1946.6</ele>
        <time>2022-01-27T09:55:04Z</time>
      </trkpt>
      <trkpt lat="45.30581" lon="6.17786">
        <ele>1950.5</ele>
        <time>2022-01-27T09:55:06Z</time>
      </trkpt>
      <trkpt lat="45.30581" lon="6.17787">
        <ele>1950.5</ele>
        <time>2022-01-27T09:55:09Z</time>
      </trkpt>
      <trkpt lat="45.30582" lon="6.17788">
        <ele>1950.5</ele>
        <time>2022-01-27T09:55:12Z</time>
      </trkpt>
      <trkpt lat="45.30583" lon="6.17789">
        <ele>1950.6</ele>
        <time>2022-01-27T09:55:15Z</time>
      </trkpt>
      <trkpt lat="45.30583" lon="6.1779">
        <ele>1950.6</ele>
        <time>2022-01-27T09:55:17Z</time>
      </trkpt>
      <trkpt lat="45.30584" lon="6.1779">
        <ele>1953</ele>
        <time>2022-01-27T09:55:18Z</time>
      </trkpt>
      <trkpt lat="45.30584" lon="6.17791">
        <ele>1953</ele>
        <time>2022-01-27T09:55:19Z</time>
      </trkpt>
      <trkpt lat="45.30585" lon="6.17792">
        <ele>1953</ele>
        <time>2022-01-27T09:55:21Z</time>
      </trkpt>
      <trkpt lat="45.30585" lon="6.17793">
        <ele>1953.2</ele>
        <time>2022-01-27T09:55:23Z</time>
      </trkpt>
      <trkpt lat="45.30586" lon="6.17793">
        <ele>1953.2</ele>
        <time>2022-01-27T09:55:24Z</time>
      </trkpt>
      <trkpt lat="45.30586" lon="6.17794">
        <ele>1953.2</ele>
        <time>2022-01-27T09:55:25Z</time>
      </trkpt>
      <trkpt lat="45.30587" lon="6.17795">
        <ele>1955.5</ele>
        <time>2022-01-27T09:55:27Z</time>
      </trkpt>
      <trkpt lat="45.30588" lon="6.17796">
        <ele>1955.5</ele>
        <time>2022-01-27T09:55:29Z</time>
      </trkpt>
      <trkpt lat="45.30588" lon="6.17797">
        <ele>1955.7</ele>
        <time>2022-01-27T09:55:31Z</time>
      </trkpt>
      <trkpt lat="45.30589" lon="6.17798">
        <ele>1955.7</ele>
        <time>2022-01-27T09:55:33Z</time>
      </trkpt>
      <trkpt lat="45.3059" lon="6.17799">
        <ele>1957.9</ele>
        <time>2022-01-27T09:55:36Z</time>
      </trkpt>
      <trkpt lat="45.3059" lon="6.178">
        <ele>1957.9</ele>
        <time>2022-01-27T09:55:37Z</time>
      </trkpt>
      <trkpt lat="45.3059" lon="6.17801">
        <ele>1957.9</ele>
        <time>2022-01-27T09:55:40Z</time>
      </trkpt>
      <trkpt lat="45.30591" lon="6.17801">
        <ele>1958.1</ele>
        <time>2022-01-27T09:55:41Z</time>
      </trkpt>
      <trkpt lat="45.30592" lon="6.17802">
        <ele>1958.1</ele>
        <time>2022-01-27T09:55:42Z</time>
      </trkpt>
      <trkpt lat="45.30592" lon="6.17803">
        <ele>1960.3</ele>
        <time>2022-01-27T09:55:44Z</time>
      </trkpt>
      <trkpt lat="45.30593" lon="6.17803">
        <ele>1960.3</ele>
        <time>2022-01-27T09:55:45Z</time>
      </trkpt>
      <trkpt lat="45.30593" lon="6.17804">
        <ele>1960.3</ele>
        <time>2022-01-27T09:55:46Z</time>
      </trkpt>
      <trkpt lat="45.30594" lon="6.17804">
        <ele>1960.3</ele>
        <time>2022-01-27T09:55:48Z</time>
      </trkpt>
      <trkpt lat="45.30594" lon="6.17805">
        <ele>1960.3</ele>
        <time>2022-01-27T09:55:49Z</time>
      </trkpt>
      <trkpt lat="45.30595" lon="6.17805">
        <ele>1960.5</ele>
        <time>2022-01-27T09:55:50Z</time>
      </trkpt>
      <trkpt lat="45.30595" lon="6.17806">
        <ele>1960.5</ele>
        <time>2022-01-27T09:55:51Z</time>
      </trkpt>
      <trkpt lat="45.30596" lon="6.17807">
        <ele>1962.7</ele>
        <time>2022-01-27T09:55:53Z</time>
      </trkpt>
      <trkpt lat="45.30596" lon="6.17808">
        <ele>1962.7</ele>
        <time>2022-01-27T09:55:54Z</time>
      </trkpt>
      <trkpt lat="45.30597" lon="6.17809">
        <ele>1962.9</ele>
        <time>2022-01-27T09:55:57Z</time>
      </trkpt>
      <trkpt lat="45.30597" lon="6.1781">
        <ele>1962.9</ele>
        <time>2022-01-27T09:55:58Z</time>
      </trkpt>
      <trkpt lat="45.30597" lon="6.17811">
        <ele>1962.9</ele>
        <time>2022-01-27T09:55:59Z</time>
      </trkpt>
      <trkpt lat="45.30598" lon="6.17811">
        <ele>1962.9</ele>
        <time>2022-01-27T09:56:00Z</time>
      </trkpt>
      <trkpt lat="45.30598" lon="6.17813">
        <ele>1962.9</ele>
        <time>2022-01-27T09:56:01Z</time>
      </trkpt>
      <trkpt lat="45.30599" lon="6.17814">
        <ele>1965.3</ele>
        <time>2022-01-27T09:56:04Z</time>
      </trkpt>
      <trkpt lat="45.306" lon="6.17815">
        <ele>1965.3</ele>
        <time>2022-01-27T09:56:07Z</time>
      </trkpt>
      <trkpt lat="45.306" lon="6.17816">
        <ele>1965.3</ele>
        <time>2022-01-27T09:56:08Z</time>
      </trkpt>
      <trkpt lat="45.30601" lon="6.17817">
        <ele>1965.3</ele>
        <time>2022-01-27T09:56:10Z</time>
      </trkpt>
      <trkpt lat="45.30602" lon="6.17818">
        <ele>1967.5</ele>
        <time>2022-01-27T09:56:13Z</time>
      </trkpt>
      <trkpt lat="45.30602" lon="6.17819">
        <ele>1967.7</ele>
        <time>2022-01-27T09:56:16Z</time>
      </trkpt>
      <trkpt lat="45.30602" lon="6.1782">
        <ele>1967.7</ele>
        <time>2022-01-27T09:56:17Z</time>
      </trkpt>
      <trkpt lat="45.30603" lon="6.1782">
        <ele>1967.7</ele>
        <time>2022-01-27T09:56:18Z</time>
      </trkpt>
      <trkpt lat="45.30603" lon="6.17821">
        <ele>1967.7</ele>
        <time>2022-01-27T09:56:20Z</time>
      </trkpt>
      <trkpt lat="45.30603" lon="6.17822">
        <ele>1967.7</ele>
        <time>2022-01-27T09:56:22Z</time>
      </trkpt>
      <trkpt lat="45.30604" lon="6.17823">
        <ele>1967.8</ele>
        <time>2022-01-27T09:56:24Z</time>
      </trkpt>
      <trkpt lat="45.30604" lon="6.17824">
        <ele>1967.8</ele>
        <time>2022-01-27T09:56:26Z</time>
      </trkpt>
      <trkpt lat="45.30605" lon="6.17825">
        <ele>1970.1</ele>
        <time>2022-01-27T09:56:27Z</time>
      </trkpt>
      <trkpt lat="45.30606" lon="6.17825">
        <ele>1970.1</ele>
        <time>2022-01-27T09:56:29Z</time>
      </trkpt>
      <trkpt lat="45.30606" lon="6.17826">
        <ele>1970.1</ele>
        <time>2022-01-27T09:56:32Z</time>
      </trkpt>
      <trkpt lat="45.30606" lon="6.17827">
        <ele>1970.1</ele>
        <time>2022-01-27T09:56:34Z</time>
      </trkpt>
      <trkpt lat="45.30607" lon="6.17828">
        <ele>1970.1</ele>
        <time>2022-01-27T09:56:35Z</time>
      </trkpt>
      <trkpt lat="45.30607" lon="6.17829">
        <ele>1970.1</ele>
        <time>2022-01-27T09:56:36Z</time>
      </trkpt>
      <trkpt lat="45.30608" lon="6.1783">
        <ele>1972.4</ele>
        <time>2022-01-27T09:56:37Z</time>
      </trkpt>
      <trkpt lat="45.30608" lon="6.17831">
        <ele>1972.4</ele>
        <time>2022-01-27T09:56:39Z</time>
      </trkpt>
      <trkpt lat="45.30609" lon="6.17831">
        <ele>1972.5</ele>
        <time>2022-01-27T09:56:40Z</time>
      </trkpt>
      <trkpt lat="45.30609" lon="6.17832">
        <ele>1972.5</ele>
        <time>2022-01-27T09:56:41Z</time>
      </trkpt>
      <trkpt lat="45.30609" lon="6.17833">
        <ele>1972.5</ele>
        <time>2022-01-27T09:56:42Z</time>
      </trkpt>
      <trkpt lat="45.30609" lon="6.17834">
        <ele>1972.5</ele>
        <time>2022-01-27T09:56:44Z</time>
      </trkpt>
      <trkpt lat="45.30609" lon="6.17835">
        <ele>1972.5</ele>
        <time>2022-01-27T09:56:46Z</time>
      </trkpt>
      <trkpt lat="45.30609" lon="6.17836">
        <ele>1972.5</ele>
        <time>2022-01-27T09:56:48Z</time>
      </trkpt>
      <trkpt lat="45.30609" lon="6.17837">
        <ele>1972.5</ele>
        <time>2022-01-27T09:56:50Z</time>
      </trkpt>
      <trkpt lat="45.3061" lon="6.17838">
        <ele>1972.5</ele>
        <time>2022-01-27T09:56:51Z</time>
      </trkpt>
      <trkpt lat="45.3061" lon="6.17839">
        <ele>1972.5</ele>
        <time>2022-01-27T09:56:53Z</time>
      </trkpt>
      <trkpt lat="45.3061" lon="6.1784">
        <ele>1972.5</ele>
        <time>2022-01-27T09:56:55Z</time>
      </trkpt>
      <trkpt lat="45.30611" lon="6.17841">
        <ele>1974.8</ele>
        <time>2022-01-27T09:56:56Z</time>
      </trkpt>
      <trkpt lat="45.30612" lon="6.17841">
        <ele>1974.8</ele>
        <time>2022-01-27T09:56:59Z</time>
      </trkpt>
      <trkpt lat="45.30612" lon="6.17842">
        <ele>1974.8</ele>
        <time>2022-01-27T09:57:00Z</time>
      </trkpt>
      <trkpt lat="45.30612" lon="6.17843">
        <ele>1974.8</ele>
        <time>2022-01-27T09:57:01Z</time>
      </trkpt>
      <trkpt lat="45.30612" lon="6.17844">
        <ele>1974.8</ele>
        <time>2022-01-27T09:57:02Z</time>
      </trkpt>
      <trkpt lat="45.30613" lon="6.17844">
        <ele>1974.8</ele>
        <time>2022-01-27T09:57:03Z</time>
      </trkpt>
      <trkpt lat="45.30613" lon="6.17845">
        <ele>1974.8</ele>
        <time>2022-01-27T09:57:04Z</time>
      </trkpt>
      <trkpt lat="45.30613" lon="6.17846">
        <ele>1974.8</ele>
        <time>2022-01-27T09:57:06Z</time>
      </trkpt>
      <trkpt lat="45.30613" lon="6.17847">
        <ele>1974.8</ele>
        <time>2022-01-27T09:57:07Z</time>
      </trkpt>
      <trkpt lat="45.30613" lon="6.17848">
        <ele>1974.8</ele>
        <time>2022-01-27T09:57:09Z</time>
      </trkpt>
      <trkpt lat="45.30613" lon="6.17849">
        <ele>1974.9</ele>
        <time>2022-01-27T09:57:11Z</time>
      </trkpt>
      <trkpt lat="45.30614" lon="6.1785">
        <ele>1977.2</ele>
        <time>2022-01-27T09:57:12Z</time>
      </trkpt>
      <trkpt lat="45.30615" lon="6.1785">
        <ele>1977.2</ele>
        <time>2022-01-27T09:57:16Z</time>
      </trkpt>
      <trkpt lat="45.30615" lon="6.17851">
        <ele>1977.2</ele>
        <time>2022-01-27T09:57:17Z</time>
      </trkpt>
      <trkpt lat="45.30616" lon="6.17852">
        <ele>1977.2</ele>
        <time>2022-01-27T09:57:23Z</time>
      </trkpt>
      <trkpt lat="45.30616" lon="6.17853">
        <ele>1977.3</ele>
        <time>2022-01-27T09:57:25Z</time>
      </trkpt>
      <trkpt lat="45.30616" lon="6.17854">
        <ele>1977.3</ele>
        <time>2022-01-27T09:57:27Z</time>
      </trkpt>
      <trkpt lat="45.30617" lon="6.17855">
        <ele>1979.5</ele>
        <time>2022-01-27T09:57:29Z</time>
      </trkpt>
      <trkpt lat="45.30617" lon="6.17856">
        <ele>1979.5</ele>
        <time>2022-01-27T09:57:31Z</time>
      </trkpt>
      <trkpt lat="45.30617" lon="6.17857">
        <ele>1979.6</ele>
        <time>2022-01-27T09:57:32Z</time>
      </trkpt>
      <trkpt lat="45.30617" lon="6.17858">
        <ele>1979.6</ele>
        <time>2022-01-27T09:57:34Z</time>
      </trkpt>
      <trkpt lat="45.30617" lon="6.17859">
        <ele>1979.6</ele>
        <time>2022-01-27T09:57:36Z</time>
      </trkpt>
      <trkpt lat="45.30617" lon="6.1786">
        <ele>1979.6</ele>
        <time>2022-01-27T09:57:37Z</time>
      </trkpt>
      <trkpt lat="45.30617" lon="6.17861">
        <ele>1979.6</ele>
        <time>2022-01-27T09:57:38Z</time>
      </trkpt>
      <trkpt lat="45.30616" lon="6.17862">
        <ele>1977.6</ele>
        <time>2022-01-27T09:57:40Z</time>
      </trkpt>
      <trkpt lat="45.30616" lon="6.17864">
        <ele>1977.6</ele>
        <time>2022-01-27T09:57:42Z</time>
      </trkpt>
      <trkpt lat="45.30616" lon="6.17865">
        <ele>1977.8</ele>
        <time>2022-01-27T09:57:44Z</time>
      </trkpt>
      <trkpt lat="45.30615" lon="6.17866">
        <ele>1977.8</ele>
        <time>2022-01-27T09:57:45Z</time>
      </trkpt>
      <trkpt lat="45.30615" lon="6.17867">
        <ele>1977.8</ele>
        <time>2022-01-27T09:57:46Z</time>
      </trkpt>
      <trkpt lat="45.30615" lon="6.17868">
        <ele>1977.8</ele>
        <time>2022-01-27T09:57:47Z</time>
      </trkpt>
      <trkpt lat="45.30615" lon="6.17869">
        <ele>1977.8</ele>
        <time>2022-01-27T09:57:49Z</time>
      </trkpt>
      <trkpt lat="45.30615" lon="6.1787">
        <ele>1978</ele>
        <time>2022-01-27T09:57:50Z</time>
      </trkpt>
      <trkpt lat="45.30615" lon="6.17872">
        <ele>1978</ele>
        <time>2022-01-27T09:57:52Z</time>
      </trkpt>
      <trkpt lat="45.30615" lon="6.17873">
        <ele>1978</ele>
        <time>2022-01-27T09:57:53Z</time>
      </trkpt>
      <trkpt lat="45.30615" lon="6.17874">
        <ele>1978.2</ele>
        <time>2022-01-27T09:57:55Z</time>
      </trkpt>
      <trkpt lat="45.30615" lon="6.17877">
        <ele>1978.2</ele>
        <time>2022-01-27T09:57:57Z</time>
      </trkpt>
      <trkpt lat="45.30615" lon="6.17878">
        <ele>1978.4</ele>
        <time>2022-01-27T09:57:59Z</time>
      </trkpt>
      <trkpt lat="45.30615" lon="6.17879">
        <ele>1978.4</ele>
        <time>2022-01-27T09:58:00Z</time>
      </trkpt>
      <trkpt lat="45.30615" lon="6.1788">
        <ele>1978.4</ele>
        <time>2022-01-27T09:58:01Z</time>
      </trkpt>
      <trkpt lat="45.30615" lon="6.17882">
        <ele>1978.4</ele>
        <time>2022-01-27T09:58:02Z</time>
      </trkpt>
      <trkpt lat="45.30616" lon="6.17883">
        <ele>1978.7</ele>
        <time>2022-01-27T09:58:04Z</time>
      </trkpt>
      <trkpt lat="45.30616" lon="6.17884">
        <ele>1978.7</ele>
        <time>2022-01-27T09:58:05Z</time>
      </trkpt>
      <trkpt lat="45.30616" lon="6.17885">
        <ele>1978.7</ele>
        <time>2022-01-27T09:58:07Z</time>
      </trkpt>
      <trkpt lat="45.30617" lon="6.17886">
        <ele>1981</ele>
        <time>2022-01-27T09:58:09Z</time>
      </trkpt>
      <trkpt lat="45.30617" lon="6.17887">
        <ele>1981</ele>
        <time>2022-01-27T09:58:10Z</time>
      </trkpt>
      <trkpt lat="45.30617" lon="6.17889">
        <ele>1981.3</ele>
        <time>2022-01-27T09:58:12Z</time>
      </trkpt>
      <trkpt lat="45.30618" lon="6.1789">
        <ele>1981.3</ele>
        <time>2022-01-27T09:58:15Z</time>
      </trkpt>
      <trkpt lat="45.30618" lon="6.17892">
        <ele>1981.6</ele>
        <time>2022-01-27T09:58:18Z</time>
      </trkpt>
      <trkpt lat="45.30618" lon="6.17893">
        <ele>1981.6</ele>
        <time>2022-01-27T09:58:21Z</time>
      </trkpt>
      <trkpt lat="45.30619" lon="6.17894">
        <ele>1981.6</ele>
        <time>2022-01-27T09:58:22Z</time>
      </trkpt>
      <trkpt lat="45.30619" lon="6.17895">
        <ele>1981.6</ele>
        <time>2022-01-27T09:58:23Z</time>
      </trkpt>
      <trkpt lat="45.3062" lon="6.17895">
        <ele>1983.8</ele>
        <time>2022-01-27T09:58:25Z</time>
      </trkpt>
      <trkpt lat="45.3062" lon="6.17894">
        <ele>1983.8</ele>
        <time>2022-01-27T09:58:26Z</time>
      </trkpt>
      <trkpt lat="45.30621" lon="6.17894">
        <ele>1983.8</ele>
        <time>2022-01-27T09:58:27Z</time>
      </trkpt>
      <trkpt lat="45.30621" lon="6.17893">
        <ele>1983.8</ele>
        <time>2022-01-27T09:58:30Z</time>
      </trkpt>
      <trkpt lat="45.30622" lon="6.17893">
        <ele>1983.8</ele>
        <time>2022-01-27T09:58:31Z</time>
      </trkpt>
      <trkpt lat="45.30622" lon="6.17892">
        <ele>1983.8</ele>
        <time>2022-01-27T09:58:33Z</time>
      </trkpt>
      <trkpt lat="45.30622" lon="6.17891">
        <ele>1983.8</ele>
        <time>2022-01-27T09:58:34Z</time>
      </trkpt>
      <trkpt lat="45.30622" lon="6.1789">
        <ele>1983.5</ele>
        <time>2022-01-27T09:58:38Z</time>
      </trkpt>
      <trkpt lat="45.30623" lon="6.17889">
        <ele>1985.6</ele>
        <time>2022-01-27T09:58:40Z</time>
      </trkpt>
      <trkpt lat="45.30623" lon="6.17888">
        <ele>1985.6</ele>
        <time>2022-01-27T09:58:42Z</time>
      </trkpt>
      <trkpt lat="45.30625" lon="6.1789">
        <ele>1985.6</ele>
        <time>2022-01-27T09:58:59Z</time>
      </trkpt>
      <trkpt lat="45.30625" lon="6.17891">
        <ele>1985.6</ele>
        <time>2022-01-27T09:59:00Z</time>
      </trkpt>
      <trkpt lat="45.30625" lon="6.1789">
        <ele>1985.6</ele>
        <time>2022-01-27T09:59:02Z</time>
      </trkpt>
      <trkpt lat="45.30625" lon="6.17889">
        <ele>1985.6</ele>
        <time>2022-01-27T09:59:04Z</time>
      </trkpt>
      <trkpt lat="45.30625" lon="6.17888">
        <ele>1985.6</ele>
        <time>2022-01-27T09:59:06Z</time>
      </trkpt>
      <trkpt lat="45.30625" lon="6.17887">
        <ele>1985.6</ele>
        <time>2022-01-27T09:59:08Z</time>
      </trkpt>
      <trkpt lat="45.30625" lon="6.17886">
        <ele>1985.3</ele>
        <time>2022-01-27T09:59:10Z</time>
      </trkpt>
      <trkpt lat="45.30625" lon="6.17885">
        <ele>1985.3</ele>
        <time>2022-01-27T09:59:11Z</time>
      </trkpt>
      <trkpt lat="45.30625" lon="6.17884">
        <ele>1985.3</ele>
        <time>2022-01-27T09:59:13Z</time>
      </trkpt>
      <trkpt lat="45.30626" lon="6.17883">
        <ele>1985.3</ele>
        <time>2022-01-27T09:59:15Z</time>
      </trkpt>
      <trkpt lat="45.30639" lon="6.17879">
        <ele>1995.3</ele>
        <time>2022-01-27T10:00:18Z</time>
      </trkpt>
      <trkpt lat="45.3064" lon="6.1788">
        <ele>1995.3</ele>
        <time>2022-01-27T10:00:20Z</time>
      </trkpt>
      <trkpt lat="45.3064" lon="6.17881">
        <ele>1995.3</ele>
        <time>2022-01-27T10:00:22Z</time>
      </trkpt>
      <trkpt lat="45.3064" lon="6.17882">
        <ele>1995.3</ele>
        <time>2022-01-27T10:00:23Z</time>
      </trkpt>
      <trkpt lat="45.30641" lon="6.17883">
        <ele>1995.7</ele>
        <time>2022-01-27T10:00:24Z</time>
      </trkpt>
      <trkpt lat="45.30641" lon="6.17884">
        <ele>1997.9</ele>
        <time>2022-01-27T10:00:26Z</time>
      </trkpt>
      <trkpt lat="45.30642" lon="6.17885">
        <ele>1997.9</ele>
        <time>2022-01-27T10:00:28Z</time>
      </trkpt>
      <trkpt lat="45.30642" lon="6.17886">
        <ele>1997.9</ele>
        <time>2022-01-27T10:00:29Z</time>
      </trkpt>
      <trkpt lat="45.30643" lon="6.17886">
        <ele>1997.9</ele>
        <time>2022-01-27T10:00:30Z</time>
      </trkpt>
      <trkpt lat="45.30643" lon="6.17887">
        <ele>1998.2</ele>
        <time>2022-01-27T10:00:31Z</time>
      </trkpt>
      <trkpt lat="45.30643" lon="6.17888">
        <ele>1998.2</ele>
        <time>2022-01-27T10:00:32Z</time>
      </trkpt>
      <trkpt lat="45.30644" lon="6.17888">
        <ele>2000.2</ele>
        <time>2022-01-27T10:00:33Z</time>
      </trkpt>
      <trkpt lat="45.30644" lon="6.17889">
        <ele>2000.2</ele>
        <time>2022-01-27T10:00:34Z</time>
      </trkpt>
      <trkpt lat="45.30645" lon="6.17889">
        <ele>2000.2</ele>
        <time>2022-01-27T10:00:35Z</time>
      </trkpt>
      <trkpt lat="45.30645" lon="6.1789">
        <ele>2000.2</ele>
        <time>2022-01-27T10:00:36Z</time>
      </trkpt>
      <trkpt lat="45.30645" lon="6.17891">
        <ele>2000.2</ele>
        <time>2022-01-27T10:00:37Z</time>
      </trkpt>
      <trkpt lat="45.30646" lon="6.17891">
        <ele>2000.6</ele>
        <time>2022-01-27T10:00:42Z</time>
      </trkpt>
      <trkpt lat="45.30646" lon="6.1789">
        <ele>2000.2</ele>
        <time>2022-01-27T10:00:44Z</time>
      </trkpt>
      <trkpt lat="45.30647" lon="6.17891">
        <ele>2000.2</ele>
        <time>2022-01-27T10:00:47Z</time>
      </trkpt>
      <trkpt lat="45.30648" lon="6.17892">
        <ele>2002.4</ele>
        <time>2022-01-27T10:00:53Z</time>
      </trkpt>
      <trkpt lat="45.30649" lon="6.17892">
        <ele>2002.4</ele>
        <time>2022-01-27T10:00:56Z</time>
      </trkpt>
      <trkpt lat="45.30655" lon="6.17891">
        <ele>2005.5</ele>
        <time>2022-01-27T10:01:48Z</time>
      </trkpt>
      <trkpt lat="45.30655" lon="6.17892">
        <ele>2005.5</ele>
        <time>2022-01-27T10:01:49Z</time>
      </trkpt>
      <trkpt lat="45.30655" lon="6.17893">
        <ele>2005.5</ele>
        <time>2022-01-27T10:01:52Z</time>
      </trkpt>
      <trkpt lat="45.30655" lon="6.17894">
        <ele>2005.5</ele>
        <time>2022-01-27T10:01:54Z</time>
      </trkpt>
      <trkpt lat="45.30655" lon="6.17895">
        <ele>2005.5</ele>
        <time>2022-01-27T10:01:56Z</time>
      </trkpt>
      <trkpt lat="45.30655" lon="6.17896">
        <ele>2005.8</ele>
        <time>2022-01-27T10:01:58Z</time>
      </trkpt>
      <trkpt lat="45.30662" lon="6.17883">
        <ele>2009.8</ele>
        <time>2022-01-27T10:02:55Z</time>
      </trkpt>
      <trkpt lat="45.30662" lon="6.17884">
        <ele>2009.8</ele>
        <time>2022-01-27T10:02:56Z</time>
      </trkpt>
      <trkpt lat="45.30663" lon="6.17885">
        <ele>2009.8</ele>
        <time>2022-01-27T10:02:57Z</time>
      </trkpt>
      <trkpt lat="45.30664" lon="6.17884">
        <ele>2009.8</ele>
        <time>2022-01-27T10:02:58Z</time>
      </trkpt>
      <trkpt lat="45.30665" lon="6.17884">
        <ele>2009.8</ele>
        <time>2022-01-27T10:03:00Z</time>
      </trkpt>
      <trkpt lat="45.30665" lon="6.17883">
        <ele>2011.6</ele>
        <time>2022-01-27T10:03:02Z</time>
      </trkpt>
      <trkpt lat="45.30666" lon="6.17882">
        <ele>2011.6</ele>
        <time>2022-01-27T10:03:03Z</time>
      </trkpt>
      <trkpt lat="45.30667" lon="6.17881">
        <ele>2011.3</ele>
        <time>2022-01-27T10:03:04Z</time>
      </trkpt>
      <trkpt lat="45.30667" lon="6.1788">
        <ele>2011.3</ele>
        <time>2022-01-27T10:03:06Z</time>
      </trkpt>
      <trkpt lat="45.30668" lon="6.1788">
        <ele>2011.3</ele>
        <time>2022-01-27T10:03:07Z</time>
      </trkpt>
      <trkpt lat="45.30668" lon="6.17879">
        <ele>2013</ele>
        <time>2022-01-27T10:03:08Z</time>
      </trkpt>
      <trkpt lat="45.30668" lon="6.1788">
        <ele>2013</ele>
        <time>2022-01-27T10:03:10Z</time>
      </trkpt>
      <trkpt lat="45.30669" lon="6.17879">
        <ele>2013</ele>
        <time>2022-01-27T10:03:14Z</time>
      </trkpt>
      <trkpt lat="45.30677" lon="6.17893">
        <ele>2017.8</ele>
        <time>2022-01-27T10:04:03Z</time>
      </trkpt>
      <trkpt lat="45.30677" lon="6.17894">
        <ele>2017.8</ele>
        <time>2022-01-27T10:04:04Z</time>
      </trkpt>
      <trkpt lat="45.30678" lon="6.17895">
        <ele>2017.8</ele>
        <time>2022-01-27T10:04:05Z</time>
      </trkpt>
      <trkpt lat="45.30678" lon="6.17896">
        <ele>2018.1</ele>
        <time>2022-01-27T10:04:06Z</time>
      </trkpt>
      <trkpt lat="45.30678" lon="6.17897">
        <ele>2018.1</ele>
        <time>2022-01-27T10:04:07Z</time>
      </trkpt>
      <trkpt lat="45.30678" lon="6.17898">
        <ele>2018.1</ele>
        <time>2022-01-27T10:04:08Z</time>
      </trkpt>
      <trkpt lat="45.30678" lon="6.17899">
        <ele>2018.1</ele>
        <time>2022-01-27T10:04:09Z</time>
      </trkpt>
      <trkpt lat="45.30678" lon="6.179">
        <ele>2018.4</ele>
        <time>2022-01-27T10:04:10Z</time>
      </trkpt>
      <trkpt lat="45.30678" lon="6.17901">
        <ele>2018.4</ele>
        <time>2022-01-27T10:04:11Z</time>
      </trkpt>
      <trkpt lat="45.30678" lon="6.17902">
        <ele>2018.4</ele>
        <time>2022-01-27T10:04:12Z</time>
      </trkpt>
      <trkpt lat="45.30679" lon="6.17903">
        <ele>2018.4</ele>
        <time>2022-01-27T10:04:13Z</time>
      </trkpt>
      <trkpt lat="45.30679" lon="6.17904">
        <ele>2018.7</ele>
        <time>2022-01-27T10:04:14Z</time>
      </trkpt>
      <trkpt lat="45.30679" lon="6.17905">
        <ele>2018.7</ele>
        <time>2022-01-27T10:04:16Z</time>
      </trkpt>
      <trkpt lat="45.30679" lon="6.17906">
        <ele>2018.7</ele>
        <time>2022-01-27T10:04:17Z</time>
      </trkpt>
      <trkpt lat="45.30678" lon="6.17906">
        <ele>2018.7</ele>
        <time>2022-01-27T10:04:24Z</time>
      </trkpt>
      <trkpt lat="45.30678" lon="6.17907">
        <ele>2018.7</ele>
        <time>2022-01-27T10:04:27Z</time>
      </trkpt>
      <trkpt lat="45.30678" lon="6.17908">
        <ele>2018.7</ele>
        <time>2022-01-27T10:04:28Z</time>
      </trkpt>
      <trkpt lat="45.30679" lon="6.17908">
        <ele>2019</ele>
        <time>2022-01-27T10:04:29Z</time>
      </trkpt>
      <trkpt lat="45.30679" lon="6.17909">
        <ele>2019</ele>
        <time>2022-01-27T10:04:30Z</time>
      </trkpt>
      <trkpt lat="45.30679" lon="6.1791">
        <ele>2019</ele>
        <time>2022-01-27T10:04:31Z</time>
      </trkpt>
      <trkpt lat="45.30679" lon="6.17911">
        <ele>2019</ele>
        <time>2022-01-27T10:04:32Z</time>
      </trkpt>
      <trkpt lat="45.3068" lon="6.17912">
        <ele>2019</ele>
        <time>2022-01-27T10:04:33Z</time>
      </trkpt>
      <trkpt lat="45.3068" lon="6.17913">
        <ele>2020.5</ele>
        <time>2022-01-27T10:04:35Z</time>
      </trkpt>
      <trkpt lat="45.30681" lon="6.17914">
        <ele>2020.5</ele>
        <time>2022-01-27T10:04:36Z</time>
      </trkpt>
      <trkpt lat="45.30681" lon="6.17915">
        <ele>2020.5</ele>
        <time>2022-01-27T10:04:37Z</time>
      </trkpt>
      <trkpt lat="45.30682" lon="6.17916">
        <ele>2020.5</ele>
        <time>2022-01-27T10:04:39Z</time>
      </trkpt>
      <trkpt lat="45.30682" lon="6.17917">
        <ele>2020.9</ele>
        <time>2022-01-27T10:04:40Z</time>
      </trkpt>
      <trkpt lat="45.30682" lon="6.17918">
        <ele>2020.9</ele>
        <time>2022-01-27T10:04:42Z</time>
      </trkpt>
      <trkpt lat="45.30683" lon="6.17918">
        <ele>2020.9</ele>
        <time>2022-01-27T10:04:43Z</time>
      </trkpt>
      <trkpt lat="45.30683" lon="6.17919">
        <ele>2022</ele>
        <time>2022-01-27T10:04:44Z</time>
      </trkpt>
      <trkpt lat="45.30683" lon="6.1792">
        <ele>2022</ele>
        <time>2022-01-27T10:04:45Z</time>
      </trkpt>
      <trkpt lat="45.30684" lon="6.1792">
        <ele>2022</ele>
        <time>2022-01-27T10:04:46Z</time>
      </trkpt>
      <trkpt lat="45.30684" lon="6.17919">
        <ele>2022</ele>
        <time>2022-01-27T10:04:49Z</time>
      </trkpt>
      <trkpt lat="45.30684" lon="6.1792">
        <ele>2022</ele>
        <time>2022-01-27T10:04:53Z</time>
      </trkpt>
      <trkpt lat="45.30684" lon="6.17919">
        <ele>2022</ele>
        <time>2022-01-27T10:04:57Z</time>
      </trkpt>
      <trkpt lat="45.30684" lon="6.17918">
        <ele>2022</ele>
        <time>2022-01-27T10:04:59Z</time>
      </trkpt>
      <trkpt lat="45.30697" lon="6.17911">
        <ele>2026.8</ele>
        <time>2022-01-27T10:06:12Z</time>
      </trkpt>
      <trkpt lat="45.30698" lon="6.17911">
        <ele>2026.8</ele>
        <time>2022-01-27T10:06:14Z</time>
      </trkpt>
      <trkpt lat="45.30698" lon="6.17912">
        <ele>2026.8</ele>
        <time>2022-01-27T10:06:16Z</time>
      </trkpt>
      <trkpt lat="45.30698" lon="6.17913">
        <ele>2028.2</ele>
        <time>2022-01-27T10:06:19Z</time>
      </trkpt>
      <trkpt lat="45.30699" lon="6.17913">
        <ele>2028.2</ele>
        <time>2022-01-27T10:06:20Z</time>
      </trkpt>
      <trkpt lat="45.30699" lon="6.17914">
        <ele>2028.2</ele>
        <time>2022-01-27T10:06:23Z</time>
      </trkpt>
      <trkpt lat="45.30702" lon="6.17925">
        <ele>2029.6</ele>
        <time>2022-01-27T10:06:54Z</time>
      </trkpt>
      <trkpt lat="45.30703" lon="6.17925">
        <ele>2029.6</ele>
        <time>2022-01-27T10:06:57Z</time>
      </trkpt>
      <trkpt lat="45.30703" lon="6.17924">
        <ele>2029.6</ele>
        <time>2022-01-27T10:07:00Z</time>
      </trkpt>
      <trkpt lat="45.30705" lon="6.17926">
        <ele>2030.8</ele>
        <time>2022-01-27T10:07:32Z</time>
      </trkpt>
      <trkpt lat="45.30705" lon="6.17927">
        <ele>2030.8</ele>
        <time>2022-01-27T10:07:33Z</time>
      </trkpt>
      <trkpt lat="45.30706" lon="6.17928">
        <ele>2030.8</ele>
        <time>2022-01-27T10:07:35Z</time>
      </trkpt>
      <trkpt lat="45.30707" lon="6.17929">
        <ele>2031.8</ele>
        <time>2022-01-27T10:07:37Z</time>
      </trkpt>
      <trkpt lat="45.30708" lon="6.1793">
        <ele>2031.8</ele>
        <time>2022-01-27T10:07:38Z</time>
      </trkpt>
      <trkpt lat="45.30708" lon="6.17931">
        <ele>2031.8</ele>
        <time>2022-01-27T10:07:40Z</time>
      </trkpt>
      <trkpt lat="45.30708" lon="6.17932">
        <ele>2031.8</ele>
        <time>2022-01-27T10:07:41Z</time>
      </trkpt>
      <trkpt lat="45.30709" lon="6.17933">
        <ele>2031.8</ele>
        <time>2022-01-27T10:07:43Z</time>
      </trkpt>
      <trkpt lat="45.30709" lon="6.17934">
        <ele>2031.8</ele>
        <time>2022-01-27T10:07:45Z</time>
      </trkpt>
      <trkpt lat="45.30709" lon="6.17935">
        <ele>2031.8</ele>
        <time>2022-01-27T10:07:46Z</time>
      </trkpt>
      <trkpt lat="45.3071" lon="6.17936">
        <ele>2031.8</ele>
        <time>2022-01-27T10:07:47Z</time>
      </trkpt>
      <trkpt lat="45.30711" lon="6.17937">
        <ele>2032.8</ele>
        <time>2022-01-27T10:07:48Z</time>
      </trkpt>
      <trkpt lat="45.30711" lon="6.17938">
        <ele>2032.8</ele>
        <time>2022-01-27T10:07:49Z</time>
      </trkpt>
      <trkpt lat="45.30712" lon="6.17939">
        <ele>2032.8</ele>
        <time>2022-01-27T10:07:50Z</time>
      </trkpt>
      <trkpt lat="45.30712" lon="6.1794">
        <ele>2032.8</ele>
        <time>2022-01-27T10:07:51Z</time>
      </trkpt>
      <trkpt lat="45.30713" lon="6.1794">
        <ele>2032.8</ele>
        <time>2022-01-27T10:07:52Z</time>
      </trkpt>
      <trkpt lat="45.30713" lon="6.17941">
        <ele>2032.8</ele>
        <time>2022-01-27T10:07:53Z</time>
      </trkpt>
      <trkpt lat="45.30713" lon="6.17942">
        <ele>2033.9</ele>
        <time>2022-01-27T10:07:54Z</time>
      </trkpt>
      <trkpt lat="45.30714" lon="6.17943">
        <ele>2033.9</ele>
        <time>2022-01-27T10:07:55Z</time>
      </trkpt>
      <trkpt lat="45.30714" lon="6.17944">
        <ele>2033.9</ele>
        <time>2022-01-27T10:07:56Z</time>
      </trkpt>
      <trkpt lat="45.30715" lon="6.17945">
        <ele>2033.9</ele>
        <time>2022-01-27T10:07:57Z</time>
      </trkpt>
      <trkpt lat="45.30715" lon="6.17947">
        <ele>2033.9</ele>
        <time>2022-01-27T10:07:58Z</time>
      </trkpt>
      <trkpt lat="45.30716" lon="6.17948">
        <ele>2033.9</ele>
        <time>2022-01-27T10:07:59Z</time>
      </trkpt>
      <trkpt lat="45.30716" lon="6.17949">
        <ele>2033.9</ele>
        <time>2022-01-27T10:08:00Z</time>
      </trkpt>
      <trkpt lat="45.30717" lon="6.1795">
        <ele>2034.9</ele>
        <time>2022-01-27T10:08:01Z</time>
      </trkpt>
      <trkpt lat="45.30717" lon="6.17952">
        <ele>2034.9</ele>
        <time>2022-01-27T10:08:02Z</time>
      </trkpt>
      <trkpt lat="45.30718" lon="6.17953">
        <ele>2034.9</ele>
        <time>2022-01-27T10:08:03Z</time>
      </trkpt>
      <trkpt lat="45.30718" lon="6.17954">
        <ele>2034.9</ele>
        <time>2022-01-27T10:08:04Z</time>
      </trkpt>
      <trkpt lat="45.30719" lon="6.17955">
        <ele>2034.9</ele>
        <time>2022-01-27T10:08:05Z</time>
      </trkpt>
      <trkpt lat="45.3072" lon="6.17957">
        <ele>2036.1</ele>
        <time>2022-01-27T10:08:06Z</time>
      </trkpt>
      <trkpt lat="45.30721" lon="6.17958">
        <ele>2036.1</ele>
        <time>2022-01-27T10:08:07Z</time>
      </trkpt>
      <trkpt lat="45.30721" lon="6.17959">
        <ele>2036.1</ele>
        <time>2022-01-27T10:08:08Z</time>
      </trkpt>
      <trkpt lat="45.30722" lon="6.1796">
        <ele>2036.2</ele>
        <time>2022-01-27T10:08:10Z</time>
      </trkpt>
      <trkpt lat="45.30723" lon="6.17961">
        <ele>2037.4</ele>
        <time>2022-01-27T10:08:11Z</time>
      </trkpt>
      <trkpt lat="45.30724" lon="6.17962">
        <ele>2037.4</ele>
        <time>2022-01-27T10:08:12Z</time>
      </trkpt>
      <trkpt lat="45.30724" lon="6.17963">
        <ele>2037.4</ele>
        <time>2022-01-27T10:08:13Z</time>
      </trkpt>
      <trkpt lat="45.30725" lon="6.17963">
        <ele>2037.4</ele>
        <time>2022-01-27T10:08:14Z</time>
      </trkpt>
      <trkpt lat="45.30726" lon="6.17964">
        <ele>2038.7</ele>
        <time>2022-01-27T10:08:16Z</time>
      </trkpt>
      <trkpt lat="45.30727" lon="6.17965">
        <ele>2038.7</ele>
        <time>2022-01-27T10:08:18Z</time>
      </trkpt>
      <trkpt lat="45.30728" lon="6.17966">
        <ele>2038.7</ele>
        <time>2022-01-27T10:08:20Z</time>
      </trkpt>
      <trkpt lat="45.30729" lon="6.17966">
        <ele>2039.9</ele>
        <time>2022-01-27T10:08:21Z</time>
      </trkpt>
      <trkpt lat="45.30729" lon="6.17967">
        <ele>2039.9</ele>
        <time>2022-01-27T10:08:22Z</time>
      </trkpt>
      <trkpt lat="45.3073" lon="6.17968">
        <ele>2039.9</ele>
        <time>2022-01-27T10:08:23Z</time>
      </trkpt>
      <trkpt lat="45.30731" lon="6.17969">
        <ele>2040</ele>
        <time>2022-01-27T10:08:24Z</time>
      </trkpt>
      <trkpt lat="45.30732" lon="6.1797">
        <ele>2041</ele>
        <time>2022-01-27T10:08:26Z</time>
      </trkpt>
      <trkpt lat="45.30732" lon="6.17971">
        <ele>2041</ele>
        <time>2022-01-27T10:08:27Z</time>
      </trkpt>
      <trkpt lat="45.30733" lon="6.17971">
        <ele>2041</ele>
        <time>2022-01-27T10:08:28Z</time>
      </trkpt>
      <trkpt lat="45.30733" lon="6.17972">
        <ele>2041</ele>
        <time>2022-01-27T10:08:29Z</time>
      </trkpt>
      <trkpt lat="45.30734" lon="6.17973">
        <ele>2041.1</ele>
        <time>2022-01-27T10:08:30Z</time>
      </trkpt>
      <trkpt lat="45.30735" lon="6.17975">
        <ele>2042.1</ele>
        <time>2022-01-27T10:08:32Z</time>
      </trkpt>
      <trkpt lat="45.30736" lon="6.17976">
        <ele>2042.1</ele>
        <time>2022-01-27T10:08:33Z</time>
      </trkpt>
      <trkpt lat="45.30737" lon="6.17976">
        <ele>2042.1</ele>
        <time>2022-01-27T10:08:34Z</time>
      </trkpt>
      <trkpt lat="45.30737" lon="6.17977">
        <ele>2042.2</ele>
        <time>2022-01-27T10:08:35Z</time>
      </trkpt>
      <trkpt lat="45.30738" lon="6.17978">
        <ele>2043.2</ele>
        <time>2022-01-27T10:08:36Z</time>
      </trkpt>
      <trkpt lat="45.30738" lon="6.17979">
        <ele>2043.2</ele>
        <time>2022-01-27T10:08:37Z</time>
      </trkpt>
      <trkpt lat="45.30739" lon="6.1798">
        <ele>2043.2</ele>
        <time>2022-01-27T10:08:39Z</time>
      </trkpt>
      <trkpt lat="45.30739" lon="6.17981">
        <ele>2043.2</ele>
        <time>2022-01-27T10:08:40Z</time>
      </trkpt>
      <trkpt lat="45.3074" lon="6.17982">
        <ele>2043.3</ele>
        <time>2022-01-27T10:08:41Z</time>
      </trkpt>
      <trkpt lat="45.3074" lon="6.17983">
        <ele>2043.3</ele>
        <time>2022-01-27T10:08:42Z</time>
      </trkpt>
      <trkpt lat="45.30741" lon="6.17983">
        <ele>2044.4</ele>
        <time>2022-01-27T10:08:43Z</time>
      </trkpt>
      <trkpt lat="45.30741" lon="6.17984">
        <ele>2044.4</ele>
        <time>2022-01-27T10:08:44Z</time>
      </trkpt>
      <trkpt lat="45.30742" lon="6.17985">
        <ele>2044.4</ele>
        <time>2022-01-27T10:08:45Z</time>
      </trkpt>
      <trkpt lat="45.30742" lon="6.17986">
        <ele>2044.5</ele>
        <time>2022-01-27T10:08:46Z</time>
      </trkpt>
      <trkpt lat="45.30743" lon="6.17987">
        <ele>2044.5</ele>
        <time>2022-01-27T10:08:48Z</time>
      </trkpt>
      <trkpt lat="45.30743" lon="6.17988">
        <ele>2045.7</ele>
        <time>2022-01-27T10:08:51Z</time>
      </trkpt>
      <trkpt lat="45.30744" lon="6.17988">
        <ele>2045.7</ele>
        <time>2022-01-27T10:08:52Z</time>
      </trkpt>
      <trkpt lat="45.30745" lon="6.17988">
        <ele>2045.7</ele>
        <time>2022-01-27T10:08:55Z</time>
      </trkpt>
      <trkpt lat="45.30746" lon="6.17987">
        <ele>2045.7</ele>
        <time>2022-01-27T10:08:57Z</time>
      </trkpt>
      <trkpt lat="45.30747" lon="6.17987">
        <ele>2047.1</ele>
        <time>2022-01-27T10:08:59Z</time>
      </trkpt>
      <trkpt lat="45.30748" lon="6.17986">
        <ele>2047.1</ele>
        <time>2022-01-27T10:09:01Z</time>
      </trkpt>
      <trkpt lat="45.30749" lon="6.17985">
        <ele>2047</ele>
        <time>2022-01-27T10:09:04Z</time>
      </trkpt>
      <trkpt lat="45.3075" lon="6.17983">
        <ele>2048.3</ele>
        <time>2022-01-27T10:09:05Z</time>
      </trkpt>
      <trkpt lat="45.30751" lon="6.17983">
        <ele>2048.3</ele>
        <time>2022-01-27T10:09:07Z</time>
      </trkpt>
      <trkpt lat="45.30751" lon="6.17982">
        <ele>2048.3</ele>
        <time>2022-01-27T10:09:08Z</time>
      </trkpt>
      <trkpt lat="45.30752" lon="6.17982">
        <ele>2048.3</ele>
        <time>2022-01-27T10:09:09Z</time>
      </trkpt>
      <trkpt lat="45.30753" lon="6.17981">
        <ele>2049.7</ele>
        <time>2022-01-27T10:09:11Z</time>
      </trkpt>
      <trkpt lat="45.30754" lon="6.17981">
        <ele>2049.6</ele>
        <time>2022-01-27T10:09:13Z</time>
      </trkpt>
      <trkpt lat="45.30754" lon="6.1798">
        <ele>2049.6</ele>
        <time>2022-01-27T10:09:14Z</time>
      </trkpt>
      <trkpt lat="45.30755" lon="6.1798">
        <ele>2049.6</ele>
        <time>2022-01-27T10:09:15Z</time>
      </trkpt>
      <trkpt lat="45.30755" lon="6.17981">
        <ele>2049.6</ele>
        <time>2022-01-27T10:09:21Z</time>
      </trkpt>
      <trkpt lat="45.30755" lon="6.17982">
        <ele>2049.7</ele>
        <time>2022-01-27T10:09:22Z</time>
      </trkpt>
      <trkpt lat="45.30755" lon="6.17983">
        <ele>2049.7</ele>
        <time>2022-01-27T10:09:23Z</time>
      </trkpt>
      <trkpt lat="45.30755" lon="6.17985">
        <ele>2049.7</ele>
        <time>2022-01-27T10:09:26Z</time>
      </trkpt>
      <trkpt lat="45.30755" lon="6.17986">
        <ele>2049.8</ele>
        <time>2022-01-27T10:09:27Z</time>
      </trkpt>
      <trkpt lat="45.30754" lon="6.17987">
        <ele>2049.8</ele>
        <time>2022-01-27T10:09:28Z</time>
      </trkpt>
      <trkpt lat="45.30754" lon="6.17988">
        <ele>2049.8</ele>
        <time>2022-01-27T10:09:29Z</time>
      </trkpt>
      <trkpt lat="45.30755" lon="6.17988">
        <ele>2049.8</ele>
        <time>2022-01-27T10:09:30Z</time>
      </trkpt>
      <trkpt lat="45.30755" lon="6.17989">
        <ele>2049.8</ele>
        <time>2022-01-27T10:09:31Z</time>
      </trkpt>
      <trkpt lat="45.30754" lon="6.17989">
        <ele>2049.8</ele>
        <time>2022-01-27T10:09:34Z</time>
      </trkpt>
      <trkpt lat="45.30754" lon="6.1799">
        <ele>2050</ele>
        <time>2022-01-27T10:09:35Z</time>
      </trkpt>
      <trkpt lat="45.30753" lon="6.1799">
        <ele>2050</ele>
        <time>2022-01-27T10:09:38Z</time>
      </trkpt>
      <trkpt lat="45.30753" lon="6.17991">
        <ele>2050</ele>
        <time>2022-01-27T10:09:39Z</time>
      </trkpt>
      <trkpt lat="45.30754" lon="6.1799">
        <ele>2050</ele>
        <time>2022-01-27T10:09:42Z</time>
      </trkpt>
      <trkpt lat="45.30753" lon="6.1799">
        <ele>2050</ele>
        <time>2022-01-27T10:09:44Z</time>
      </trkpt>
      <trkpt lat="45.30753" lon="6.17989">
        <ele>2049.8</ele>
        <time>2022-01-27T10:09:47Z</time>
      </trkpt>
      <trkpt lat="45.30752" lon="6.17988">
        <ele>2048.5</ele>
        <time>2022-01-27T10:09:51Z</time>
      </trkpt>
      <trkpt lat="45.30752" lon="6.17983">
        <ele>2048.3</ele>
        <time>2022-01-27T10:10:40Z</time>
      </trkpt>
      <trkpt lat="45.30752" lon="6.17982">
        <ele>2049.7</ele>
        <time>2022-01-27T10:10:41Z</time>
      </trkpt>
      <trkpt lat="45.30753" lon="6.17981">
        <ele>2049.7</ele>
        <time>2022-01-27T10:10:42Z</time>
      </trkpt>
      <trkpt lat="45.30752" lon="6.17982">
        <ele>2048.3</ele>
        <time>2022-01-27T10:10:44Z</time>
      </trkpt>
      <trkpt lat="45.30752" lon="6.17983">
        <ele>2048.3</ele>
        <time>2022-01-27T10:10:45Z</time>
      </trkpt>
      <trkpt lat="45.30751" lon="6.17983">
        <ele>2048.3</ele>
        <time>2022-01-27T10:10:46Z</time>
      </trkpt>
      <trkpt lat="45.30751" lon="6.17984">
        <ele>2048.3</ele>
        <time>2022-01-27T10:10:47Z</time>
      </trkpt>
      <trkpt lat="45.30752" lon="6.17984">
        <ele>2048.3</ele>
        <time>2022-01-27T10:10:49Z</time>
      </trkpt>
      <trkpt lat="45.30752" lon="6.17983">
        <ele>2048.3</ele>
        <time>2022-01-27T10:10:52Z</time>
      </trkpt>
      <trkpt lat="45.3076" lon="6.17976">
        <ele>2052</ele>
        <time>2022-01-27T10:12:43Z</time>
      </trkpt>
      <trkpt lat="45.3076" lon="6.17975">
        <ele>2052</ele>
        <time>2022-01-27T10:12:44Z</time>
      </trkpt>
      <trkpt lat="45.3076" lon="6.17974">
        <ele>2052</ele>
        <time>2022-01-27T10:12:46Z</time>
      </trkpt>
      <trkpt lat="45.3076" lon="6.17975">
        <ele>2052</ele>
        <time>2022-01-27T10:12:48Z</time>
      </trkpt>
      <trkpt lat="45.30759" lon="6.17975">
        <ele>2052</ele>
        <time>2022-01-27T10:12:49Z</time>
      </trkpt>
      <trkpt lat="45.30759" lon="6.17971">
        <ele>2052</ele>
        <time>2022-01-27T10:13:08Z</time>
      </trkpt>
      <trkpt lat="45.30759" lon="6.17969">
        <ele>2052</ele>
        <time>2022-01-27T10:13:09Z</time>
      </trkpt>
      <trkpt lat="45.3076" lon="6.17968">
        <ele>2052</ele>
        <time>2022-01-27T10:13:10Z</time>
      </trkpt>
      <trkpt lat="45.3076" lon="6.1797">
        <ele>2052</ele>
        <time>2022-01-27T10:13:12Z</time>
      </trkpt>
      <trkpt lat="45.30759" lon="6.17972">
        <ele>2052</ele>
        <time>2022-01-27T10:13:13Z</time>
      </trkpt>
      <trkpt lat="45.30757" lon="6.17974">
        <ele>2050.9</ele>
        <time>2022-01-27T10:13:14Z</time>
      </trkpt>
      <trkpt lat="45.30757" lon="6.17975">
        <ele>2050.9</ele>
        <time>2022-01-27T10:13:15Z</time>
      </trkpt>
      <trkpt lat="45.30758" lon="6.17975">
        <ele>2050.9</ele>
        <time>2022-01-27T10:13:17Z</time>
      </trkpt>
      <trkpt lat="45.30757" lon="6.17975">
        <ele>2050.9</ele>
        <time>2022-01-27T10:13:19Z</time>
      </trkpt>
      <trkpt lat="45.30757" lon="6.17976">
        <ele>2050.9</ele>
        <time>2022-01-27T10:13:21Z</time>
      </trkpt>
      <trkpt lat="45.30757" lon="6.17975">
        <ele>2050.9</ele>
        <time>2022-01-27T10:13:23Z</time>
      </trkpt>
      <trkpt lat="45.3076" lon="6.17974">
        <ele>2052</ele>
        <time>2022-01-27T10:15:30Z</time>
      </trkpt>
      <trkpt lat="45.3076" lon="6.17973">
        <ele>2052</ele>
        <time>2022-01-27T10:15:36Z</time>
      </trkpt>
      <trkpt lat="45.30761" lon="6.17973">
        <ele>2052</ele>
        <time>2022-01-27T10:15:38Z</time>
      </trkpt>
      <trkpt lat="45.30757" lon="6.17974">
        <ele>2050.9</ele>
        <time>2022-01-27T10:16:14Z</time>
      </trkpt>
      <trkpt lat="45.30756" lon="6.17974">
        <ele>2050.9</ele>
        <time>2022-01-27T10:16:15Z</time>
      </trkpt>
      <trkpt lat="45.30756" lon="6.17975">
        <ele>2050.9</ele>
        <time>2022-01-27T10:16:16Z</time>
      </trkpt>
      <trkpt lat="45.30755" lon="6.17975">
        <ele>2050.9</ele>
        <time>2022-01-27T10:16:17Z</time>
      </trkpt>
      <trkpt lat="45.30755" lon="6.17976">
        <ele>2049.6</ele>
        <time>2022-01-27T10:16:18Z</time>
      </trkpt>
      <trkpt lat="45.30756" lon="6.17976">
        <ele>2050.9</ele>
        <time>2022-01-27T10:16:20Z</time>
      </trkpt>
      <trkpt lat="45.30756" lon="6.17977">
        <ele>2050.9</ele>
        <time>2022-01-27T10:16:23Z</time>
      </trkpt>
      <trkpt lat="45.30756" lon="6.17978">
        <ele>2050.9</ele>
        <time>2022-01-27T10:16:26Z</time>
      </trkpt>
      <trkpt lat="45.30757" lon="6.17982">
        <ele>2051</ele>
        <time>2022-01-27T10:16:39Z</time>
      </trkpt>
      <trkpt lat="45.30757" lon="6.17983">
        <ele>2051</ele>
        <time>2022-01-27T10:16:40Z</time>
      </trkpt>
      <trkpt lat="45.30758" lon="6.17985">
        <ele>2051</ele>
        <time>2022-01-27T10:16:41Z</time>
      </trkpt>
      <trkpt lat="45.30758" lon="6.17986">
        <ele>2051.1</ele>
        <time>2022-01-27T10:16:42Z</time>
      </trkpt>
      <trkpt lat="45.30759" lon="6.17989">
        <ele>2052.3</ele>
        <time>2022-01-27T10:16:43Z</time>
      </trkpt>
      <trkpt lat="45.3076" lon="6.1799">
        <ele>2052.4</ele>
        <time>2022-01-27T10:16:44Z</time>
      </trkpt>
      <trkpt lat="45.3076" lon="6.17991">
        <ele>2052.4</ele>
        <time>2022-01-27T10:16:45Z</time>
      </trkpt>
      <trkpt lat="45.3076" lon="6.17995">
        <ele>2052.6</ele>
        <time>2022-01-27T10:16:46Z</time>
      </trkpt>
      <trkpt lat="45.3076" lon="6.18001">
        <ele>2052.9</ele>
        <time>2022-01-27T10:16:47Z</time>
      </trkpt>
      <trkpt lat="45.3076" lon="6.18002">
        <ele>2052.9</ele>
        <time>2022-01-27T10:16:48Z</time>
      </trkpt>
      <trkpt lat="45.30761" lon="6.18007">
        <ele>2053.4</ele>
        <time>2022-01-27T10:16:49Z</time>
      </trkpt>
      <trkpt lat="45.30761" lon="6.18011">
        <ele>2053.7</ele>
        <time>2022-01-27T10:16:50Z</time>
      </trkpt>
      <trkpt lat="45.3076" lon="6.18013">
        <ele>2053.7</ele>
        <time>2022-01-27T10:16:51Z</time>
      </trkpt>
      <trkpt lat="45.3076" lon="6.18015">
        <ele>2053.7</ele>
        <time>2022-01-27T10:16:52Z</time>
      </trkpt>
      <trkpt lat="45.3076" lon="6.18017">
        <ele>2054</ele>
        <time>2022-01-27T10:16:53Z</time>
      </trkpt>
      <trkpt lat="45.3076" lon="6.18018">
        <ele>2054</ele>
        <time>2022-01-27T10:16:54Z</time>
      </trkpt>
      <trkpt lat="45.3076" lon="6.1802">
        <ele>2054.4</ele>
        <time>2022-01-27T10:16:55Z</time>
      </trkpt>
      <trkpt lat="45.3076" lon="6.18021">
        <ele>2054.4</ele>
        <time>2022-01-27T10:16:56Z</time>
      </trkpt>
      <trkpt lat="45.3076" lon="6.18023">
        <ele>2054.4</ele>
        <time>2022-01-27T10:16:57Z</time>
      </trkpt>
      <trkpt lat="45.3076" lon="6.18024">
        <ele>2054.7</ele>
        <time>2022-01-27T10:16:58Z</time>
      </trkpt>
      <trkpt lat="45.3076" lon="6.18026">
        <ele>2054.7</ele>
        <time>2022-01-27T10:16:59Z</time>
      </trkpt>
      <trkpt lat="45.30759" lon="6.18027">
        <ele>2054.7</ele>
        <time>2022-01-27T10:17:00Z</time>
      </trkpt>
      <trkpt lat="45.30759" lon="6.18028">
        <ele>2055.1</ele>
        <time>2022-01-27T10:17:01Z</time>
      </trkpt>
      <trkpt lat="45.30759" lon="6.1803">
        <ele>2055.1</ele>
        <time>2022-01-27T10:17:02Z</time>
      </trkpt>
      <trkpt lat="45.30759" lon="6.18031">
        <ele>2055.1</ele>
        <time>2022-01-27T10:17:03Z</time>
      </trkpt>
      <trkpt lat="45.30759" lon="6.18032">
        <ele>2055.1</ele>
        <time>2022-01-27T10:17:04Z</time>
      </trkpt>
      <trkpt lat="45.3076" lon="6.18034">
        <ele>2055.5</ele>
        <time>2022-01-27T10:17:05Z</time>
      </trkpt>
      <trkpt lat="45.3076" lon="6.18036">
        <ele>2055.5</ele>
        <time>2022-01-27T10:17:06Z</time>
      </trkpt>
      <trkpt lat="45.30761" lon="6.18037">
        <ele>2055.5</ele>
        <time>2022-01-27T10:17:07Z</time>
      </trkpt>
      <trkpt lat="45.30761" lon="6.18038">
        <ele>2055.9</ele>
        <time>2022-01-27T10:17:09Z</time>
      </trkpt>
      <trkpt lat="45.30761" lon="6.18039">
        <ele>2057</ele>
        <time>2022-01-27T10:17:10Z</time>
      </trkpt>
      <trkpt lat="45.30762" lon="6.1804">
        <ele>2057</ele>
        <time>2022-01-27T10:17:11Z</time>
      </trkpt>
      <trkpt lat="45.30762" lon="6.18041">
        <ele>2057</ele>
        <time>2022-01-27T10:17:12Z</time>
      </trkpt>
      <trkpt lat="45.30762" lon="6.18042">
        <ele>2057.4</ele>
        <time>2022-01-27T10:17:13Z</time>
      </trkpt>
      <trkpt lat="45.30762" lon="6.18044">
        <ele>2057.4</ele>
        <time>2022-01-27T10:17:15Z</time>
      </trkpt>
      <trkpt lat="45.30763" lon="6.18045">
        <ele>2057.4</ele>
        <time>2022-01-27T10:17:16Z</time>
      </trkpt>
      <trkpt lat="45.30763" lon="6.18046">
        <ele>2057.8</ele>
        <time>2022-01-27T10:17:17Z</time>
      </trkpt>
      <trkpt lat="45.30763" lon="6.18047">
        <ele>2057.8</ele>
        <time>2022-01-27T10:17:18Z</time>
      </trkpt>
      <trkpt lat="45.30763" lon="6.18048">
        <ele>2057.8</ele>
        <time>2022-01-27T10:17:19Z</time>
      </trkpt>
      <trkpt lat="45.30764" lon="6.1805">
        <ele>2058.2</ele>
        <time>2022-01-27T10:17:20Z</time>
      </trkpt>
      <trkpt lat="45.30764" lon="6.18051">
        <ele>2058.2</ele>
        <time>2022-01-27T10:17:21Z</time>
      </trkpt>
      <trkpt lat="45.30764" lon="6.18052">
        <ele>2058.2</ele>
        <time>2022-01-27T10:17:22Z</time>
      </trkpt>
      <trkpt lat="45.30764" lon="6.18054">
        <ele>2058.2</ele>
        <time>2022-01-27T10:17:23Z</time>
      </trkpt>
      <trkpt lat="45.30765" lon="6.18055">
        <ele>2059.7</ele>
        <time>2022-01-27T10:17:24Z</time>
      </trkpt>
      <trkpt lat="45.30765" lon="6.18057">
        <ele>2059.7</ele>
        <time>2022-01-27T10:17:25Z</time>
      </trkpt>
      <trkpt lat="45.30766" lon="6.18058">
        <ele>2059.7</ele>
        <time>2022-01-27T10:17:27Z</time>
      </trkpt>
      <trkpt lat="45.30766" lon="6.18057">
        <ele>2059.7</ele>
        <time>2022-01-27T10:17:28Z</time>
      </trkpt>
      <trkpt lat="45.30767" lon="6.18057">
        <ele>2059.7</ele>
        <time>2022-01-27T10:17:29Z</time>
      </trkpt>
      <trkpt lat="45.30767" lon="6.18058">
        <ele>2059.7</ele>
        <time>2022-01-27T10:17:30Z</time>
      </trkpt>
      <trkpt lat="45.30768" lon="6.18058">
        <ele>2060.9</ele>
        <time>2022-01-27T10:17:31Z</time>
      </trkpt>
      <trkpt lat="45.30768" lon="6.18059">
        <ele>2061.3</ele>
        <time>2022-01-27T10:17:32Z</time>
      </trkpt>
      <trkpt lat="45.30769" lon="6.1806">
        <ele>2061.3</ele>
        <time>2022-01-27T10:17:34Z</time>
      </trkpt>
      <trkpt lat="45.3077" lon="6.18061">
        <ele>2061.3</ele>
        <time>2022-01-27T10:17:35Z</time>
      </trkpt>
      <trkpt lat="45.3077" lon="6.18062">
        <ele>2061.3</ele>
        <time>2022-01-27T10:17:37Z</time>
      </trkpt>
      <trkpt lat="45.30771" lon="6.18062">
        <ele>2062.6</ele>
        <time>2022-01-27T10:17:38Z</time>
      </trkpt>
      <trkpt lat="45.30771" lon="6.18063">
        <ele>2062.9</ele>
        <time>2022-01-27T10:17:40Z</time>
      </trkpt>
      <trkpt lat="45.30772" lon="6.18063">
        <ele>2062.9</ele>
        <time>2022-01-27T10:17:41Z</time>
      </trkpt>
      <trkpt lat="45.30772" lon="6.18064">
        <ele>2062.9</ele>
        <time>2022-01-27T10:17:43Z</time>
      </trkpt>
      <trkpt lat="45.30773" lon="6.18064">
        <ele>2062.9</ele>
        <time>2022-01-27T10:17:44Z</time>
      </trkpt>
      <trkpt lat="45.30773" lon="6.18065">
        <ele>2062.9</ele>
        <time>2022-01-27T10:17:45Z</time>
      </trkpt>
      <trkpt lat="45.30774" lon="6.18065">
        <ele>2064.2</ele>
        <time>2022-01-27T10:17:47Z</time>
      </trkpt>
      <trkpt lat="45.30774" lon="6.18066">
        <ele>2064.2</ele>
        <time>2022-01-27T10:17:48Z</time>
      </trkpt>
      <trkpt lat="45.30775" lon="6.18067">
        <ele>2064.5</ele>
        <time>2022-01-27T10:17:50Z</time>
      </trkpt>
      <trkpt lat="45.30775" lon="6.18068">
        <ele>2064.5</ele>
        <time>2022-01-27T10:17:51Z</time>
      </trkpt>
      <trkpt lat="45.30776" lon="6.18068">
        <ele>2064.5</ele>
        <time>2022-01-27T10:17:52Z</time>
      </trkpt>
      <trkpt lat="45.30776" lon="6.18069">
        <ele>2064.5</ele>
        <time>2022-01-27T10:17:53Z</time>
      </trkpt>
      <trkpt lat="45.30777" lon="6.1807">
        <ele>2065.8</ele>
        <time>2022-01-27T10:17:55Z</time>
      </trkpt>
      <trkpt lat="45.30777" lon="6.18071">
        <ele>2065.8</ele>
        <time>2022-01-27T10:17:56Z</time>
      </trkpt>
      <trkpt lat="45.30777" lon="6.18072">
        <ele>2066.2</ele>
        <time>2022-01-27T10:17:57Z</time>
      </trkpt>
      <trkpt lat="45.30778" lon="6.18072">
        <ele>2066.2</ele>
        <time>2022-01-27T10:17:58Z</time>
      </trkpt>
      <trkpt lat="45.30778" lon="6.18073">
        <ele>2066.2</ele>
        <time>2022-01-27T10:17:59Z</time>
      </trkpt>
      <trkpt lat="45.30779" lon="6.18074">
        <ele>2066.2</ele>
        <time>2022-01-27T10:18:00Z</time>
      </trkpt>
      <trkpt lat="45.30779" lon="6.18075">
        <ele>2066.2</ele>
        <time>2022-01-27T10:18:01Z</time>
      </trkpt>
      <trkpt lat="45.3078" lon="6.18076">
        <ele>2067.8</ele>
        <time>2022-01-27T10:18:03Z</time>
      </trkpt>
      <trkpt lat="45.30781" lon="6.18077">
        <ele>2067.8</ele>
        <time>2022-01-27T10:18:05Z</time>
      </trkpt>
      <trkpt lat="45.30782" lon="6.18078">
        <ele>2067.8</ele>
        <time>2022-01-27T10:18:08Z</time>
      </trkpt>
      <trkpt lat="45.30783" lon="6.18079">
        <ele>2069</ele>
        <time>2022-01-27T10:18:10Z</time>
      </trkpt>
      <trkpt lat="45.30783" lon="6.1808">
        <ele>2069.4</ele>
        <time>2022-01-27T10:18:13Z</time>
      </trkpt>
      <trkpt lat="45.30784" lon="6.1808">
        <ele>2069.4</ele>
        <time>2022-01-27T10:18:14Z</time>
      </trkpt>
      <trkpt lat="45.30784" lon="6.18081">
        <ele>2069.4</ele>
        <time>2022-01-27T10:18:15Z</time>
      </trkpt>
      <trkpt lat="45.30785" lon="6.18082">
        <ele>2069.4</ele>
        <time>2022-01-27T10:18:16Z</time>
      </trkpt>
      <trkpt lat="45.30786" lon="6.18082">
        <ele>2070.6</ele>
        <time>2022-01-27T10:18:18Z</time>
      </trkpt>
      <trkpt lat="45.30786" lon="6.18083">
        <ele>2070.6</ele>
        <time>2022-01-27T10:18:19Z</time>
      </trkpt>
      <trkpt lat="45.30787" lon="6.18084">
        <ele>2070.6</ele>
        <time>2022-01-27T10:18:20Z</time>
      </trkpt>
      <trkpt lat="45.30787" lon="6.18085">
        <ele>2071</ele>
        <time>2022-01-27T10:18:22Z</time>
      </trkpt>
      <trkpt lat="45.30788" lon="6.18085">
        <ele>2071</ele>
        <time>2022-01-27T10:18:23Z</time>
      </trkpt>
      <trkpt lat="45.30788" lon="6.18086">
        <ele>2071</ele>
        <time>2022-01-27T10:18:24Z</time>
      </trkpt>
      <trkpt lat="45.30789" lon="6.18087">
        <ele>2072.1</ele>
        <time>2022-01-27T10:18:25Z</time>
      </trkpt>
      <trkpt lat="45.3079" lon="6.18088">
        <ele>2072.5</ele>
        <time>2022-01-27T10:18:27Z</time>
      </trkpt>
      <trkpt lat="45.3079" lon="6.18089">
        <ele>2072.5</ele>
        <time>2022-01-27T10:18:28Z</time>
      </trkpt>
      <trkpt lat="45.3079" lon="6.1809">
        <ele>2072.5</ele>
        <time>2022-01-27T10:18:29Z</time>
      </trkpt>
      <trkpt lat="45.30791" lon="6.18091">
        <ele>2072.5</ele>
        <time>2022-01-27T10:18:30Z</time>
      </trkpt>
      <trkpt lat="45.30792" lon="6.18091">
        <ele>2073.7</ele>
        <time>2022-01-27T10:18:32Z</time>
      </trkpt>
      <trkpt lat="45.30792" lon="6.18092">
        <ele>2073.7</ele>
        <time>2022-01-27T10:18:33Z</time>
      </trkpt>
      <trkpt lat="45.30793" lon="6.18092">
        <ele>2073.7</ele>
        <time>2022-01-27T10:18:34Z</time>
      </trkpt>
      <trkpt lat="45.30793" lon="6.18093">
        <ele>2074.1</ele>
        <time>2022-01-27T10:18:35Z</time>
      </trkpt>
      <trkpt lat="45.30794" lon="6.18093">
        <ele>2074.1</ele>
        <time>2022-01-27T10:18:36Z</time>
      </trkpt>
      <trkpt lat="45.30794" lon="6.18094">
        <ele>2074.1</ele>
        <time>2022-01-27T10:18:37Z</time>
      </trkpt>
      <trkpt lat="45.30794" lon="6.18095">
        <ele>2074.1</ele>
        <time>2022-01-27T10:18:39Z</time>
      </trkpt>
      <trkpt lat="45.30795" lon="6.18095">
        <ele>2075.3</ele>
        <time>2022-01-27T10:18:40Z</time>
      </trkpt>
      <trkpt lat="45.30795" lon="6.18096">
        <ele>2075.3</ele>
        <time>2022-01-27T10:18:41Z</time>
      </trkpt>
      <trkpt lat="45.30796" lon="6.18096">
        <ele>2075.3</ele>
        <time>2022-01-27T10:18:43Z</time>
      </trkpt>
      <trkpt lat="45.30796" lon="6.18097">
        <ele>2075.3</ele>
        <time>2022-01-27T10:18:44Z</time>
      </trkpt>
      <trkpt lat="45.30796" lon="6.18098">
        <ele>2075.6</ele>
        <time>2022-01-27T10:18:45Z</time>
      </trkpt>
      <trkpt lat="45.30796" lon="6.18099">
        <ele>2075.6</ele>
        <time>2022-01-27T10:18:46Z</time>
      </trkpt>
      <trkpt lat="45.30797" lon="6.181">
        <ele>2075.6</ele>
        <time>2022-01-27T10:18:48Z</time>
      </trkpt>
      <trkpt lat="45.30797" lon="6.18101">
        <ele>2075.6</ele>
        <time>2022-01-27T10:18:50Z</time>
      </trkpt>
      <trkpt lat="45.30798" lon="6.18102">
        <ele>2076</ele>
        <time>2022-01-27T10:18:51Z</time>
      </trkpt>
      <trkpt lat="45.30798" lon="6.18103">
        <ele>2077.3</ele>
        <time>2022-01-27T10:18:53Z</time>
      </trkpt>
      <trkpt lat="45.30799" lon="6.18104">
        <ele>2077.3</ele>
        <time>2022-01-27T10:18:55Z</time>
      </trkpt>
      <trkpt lat="45.30799" lon="6.18105">
        <ele>2077.3</ele>
        <time>2022-01-27T10:18:56Z</time>
      </trkpt>
      <trkpt lat="45.30799" lon="6.18106">
        <ele>2077.6</ele>
        <time>2022-01-27T10:18:57Z</time>
      </trkpt>
      <trkpt lat="45.30799" lon="6.18107">
        <ele>2077.6</ele>
        <time>2022-01-27T10:18:59Z</time>
      </trkpt>
      <trkpt lat="45.308" lon="6.18108">
        <ele>2077.6</ele>
        <time>2022-01-27T10:19:01Z</time>
      </trkpt>
      <trkpt lat="45.308" lon="6.18109">
        <ele>2077.6</ele>
        <time>2022-01-27T10:19:03Z</time>
      </trkpt>
      <trkpt lat="45.308" lon="6.1811">
        <ele>2077.6</ele>
        <time>2022-01-27T10:19:05Z</time>
      </trkpt>
      <trkpt lat="45.308" lon="6.18111">
        <ele>2078</ele>
        <time>2022-01-27T10:19:07Z</time>
      </trkpt>
      <trkpt lat="45.308" lon="6.18112">
        <ele>2078</ele>
        <time>2022-01-27T10:19:08Z</time>
      </trkpt>
      <trkpt lat="45.30801" lon="6.18112">
        <ele>2078</ele>
        <time>2022-01-27T10:19:09Z</time>
      </trkpt>
      <trkpt lat="45.30801" lon="6.18113">
        <ele>2079.4</ele>
        <time>2022-01-27T10:19:10Z</time>
      </trkpt>
      <trkpt lat="45.30801" lon="6.18114">
        <ele>2079.9</ele>
        <time>2022-01-27T10:19:14Z</time>
      </trkpt>
      <trkpt lat="45.30801" lon="6.18115">
        <ele>2079.9</ele>
        <time>2022-01-27T10:19:15Z</time>
      </trkpt>
      <trkpt lat="45.30801" lon="6.18116">
        <ele>2079.9</ele>
        <time>2022-01-27T10:19:16Z</time>
      </trkpt>
      <trkpt lat="45.30801" lon="6.18117">
        <ele>2079.9</ele>
        <time>2022-01-27T10:19:18Z</time>
      </trkpt>
      <trkpt lat="45.30801" lon="6.18118">
        <ele>2079.9</ele>
        <time>2022-01-27T10:19:19Z</time>
      </trkpt>
      <trkpt lat="45.30801" lon="6.18119">
        <ele>2080.5</ele>
        <time>2022-01-27T10:19:20Z</time>
      </trkpt>
      <trkpt lat="45.308" lon="6.18119">
        <ele>2079</ele>
        <time>2022-01-27T10:19:21Z</time>
      </trkpt>
      <trkpt lat="45.308" lon="6.1812">
        <ele>2079</ele>
        <time>2022-01-27T10:19:22Z</time>
      </trkpt>
      <trkpt lat="45.308" lon="6.18121">
        <ele>2079</ele>
        <time>2022-01-27T10:19:23Z</time>
      </trkpt>
      <trkpt lat="45.308" lon="6.18122">
        <ele>2079</ele>
        <time>2022-01-27T10:19:24Z</time>
      </trkpt>
      <trkpt lat="45.308" lon="6.18123">
        <ele>2079.6</ele>
        <time>2022-01-27T10:19:25Z</time>
      </trkpt>
      <trkpt lat="45.308" lon="6.18122">
        <ele>2079</ele>
        <time>2022-01-27T10:19:28Z</time>
      </trkpt>
      <trkpt lat="45.308" lon="6.18121">
        <ele>2079</ele>
        <time>2022-01-27T10:19:29Z</time>
      </trkpt>
      <trkpt lat="45.308" lon="6.18119">
        <ele>2079</ele>
        <time>2022-01-27T10:19:30Z</time>
      </trkpt>
      <trkpt lat="45.308" lon="6.18118">
        <ele>2078.5</ele>
        <time>2022-01-27T10:19:31Z</time>
      </trkpt>
      <trkpt lat="45.308" lon="6.18119">
        <ele>2079</ele>
        <time>2022-01-27T10:19:34Z</time>
      </trkpt>
      <trkpt lat="45.30799" lon="6.18119">
        <ele>2079</ele>
        <time>2022-01-27T10:19:37Z</time>
      </trkpt>
      <trkpt lat="45.308" lon="6.18119">
        <ele>2079</ele>
        <time>2022-01-27T10:19:42Z</time>
      </trkpt>
      <trkpt lat="45.30802" lon="6.18127">
        <ele>2081.8</ele>
        <time>2022-01-27T10:19:57Z</time>
      </trkpt>
      <trkpt lat="45.30802" lon="6.18128">
        <ele>2081.8</ele>
        <time>2022-01-27T10:19:59Z</time>
      </trkpt>
      <trkpt lat="45.30802" lon="6.18129">
        <ele>2081.8</ele>
        <time>2022-01-27T10:20:00Z</time>
      </trkpt>
      <trkpt lat="45.30802" lon="6.1813">
        <ele>2081.8</ele>
        <time>2022-01-27T10:20:02Z</time>
      </trkpt>
      <trkpt lat="45.30801" lon="6.18131">
        <ele>2081.8</ele>
        <time>2022-01-27T10:20:03Z</time>
      </trkpt>
      <trkpt lat="45.30801" lon="6.18132">
        <ele>2082.6</ele>
        <time>2022-01-27T10:20:04Z</time>
      </trkpt>
      <trkpt lat="45.308" lon="6.18134">
        <ele>2081.1</ele>
        <time>2022-01-27T10:20:05Z</time>
      </trkpt>
      <trkpt lat="45.308" lon="6.18135">
        <ele>2081.1</ele>
        <time>2022-01-27T10:20:07Z</time>
      </trkpt>
      <trkpt lat="45.308" lon="6.18138">
        <ele>2082</ele>
        <time>2022-01-27T10:20:09Z</time>
      </trkpt>
      <trkpt lat="45.30799" lon="6.1814">
        <ele>2082.9</ele>
        <time>2022-01-27T10:20:11Z</time>
      </trkpt>
      <trkpt lat="45.30799" lon="6.18141">
        <ele>2082.9</ele>
        <time>2022-01-27T10:20:12Z</time>
      </trkpt>
      <trkpt lat="45.30799" lon="6.18142">
        <ele>2082.9</ele>
        <time>2022-01-27T10:20:13Z</time>
      </trkpt>
      <trkpt lat="45.30799" lon="6.18143">
        <ele>2082.9</ele>
        <time>2022-01-27T10:20:14Z</time>
      </trkpt>
      <trkpt lat="45.30798" lon="6.18145">
        <ele>2083.8</ele>
        <time>2022-01-27T10:20:15Z</time>
      </trkpt>
      <trkpt lat="45.30798" lon="6.18146">
        <ele>2083.8</ele>
        <time>2022-01-27T10:20:17Z</time>
      </trkpt>
      <trkpt lat="45.30798" lon="6.18147">
        <ele>2083.8</ele>
        <time>2022-01-27T10:20:19Z</time>
      </trkpt>
      <trkpt lat="45.30798" lon="6.18148">
        <ele>2083.8</ele>
        <time>2022-01-27T10:20:20Z</time>
      </trkpt>
      <trkpt lat="45.30798" lon="6.18149">
        <ele>2084.7</ele>
        <time>2022-01-27T10:20:21Z</time>
      </trkpt>
      <trkpt lat="45.30798" lon="6.1815">
        <ele>2084.7</ele>
        <time>2022-01-27T10:20:22Z</time>
      </trkpt>
      <trkpt lat="45.30798" lon="6.18151">
        <ele>2084.7</ele>
        <time>2022-01-27T10:20:23Z</time>
      </trkpt>
      <trkpt lat="45.30798" lon="6.18152">
        <ele>2084.7</ele>
        <time>2022-01-27T10:20:24Z</time>
      </trkpt>
      <trkpt lat="45.30798" lon="6.18153">
        <ele>2085.7</ele>
        <time>2022-01-27T10:20:26Z</time>
      </trkpt>
      <trkpt lat="45.30798" lon="6.18154">
        <ele>2085.7</ele>
        <time>2022-01-27T10:20:27Z</time>
      </trkpt>
      <trkpt lat="45.30799" lon="6.18154">
        <ele>2085.7</ele>
        <time>2022-01-27T10:20:29Z</time>
      </trkpt>
      <trkpt lat="45.308" lon="6.18154">
        <ele>2085.7</ele>
        <time>2022-01-27T10:20:31Z</time>
      </trkpt>
      <trkpt lat="45.308" lon="6.18153">
        <ele>2085.7</ele>
        <time>2022-01-27T10:20:32Z</time>
      </trkpt>
      <trkpt lat="45.30801" lon="6.18152">
        <ele>2086.4</ele>
        <time>2022-01-27T10:20:35Z</time>
      </trkpt>
      <trkpt lat="45.30802" lon="6.18152">
        <ele>2086.4</ele>
        <time>2022-01-27T10:20:36Z</time>
      </trkpt>
      <trkpt lat="45.30803" lon="6.18151">
        <ele>2086.4</ele>
        <time>2022-01-27T10:20:38Z</time>
      </trkpt>
      <trkpt lat="45.30804" lon="6.18151">
        <ele>2086.4</ele>
        <time>2022-01-27T10:20:40Z</time>
      </trkpt>
      <trkpt lat="45.30804" lon="6.1815">
        <ele>2088</ele>
        <time>2022-01-27T10:20:41Z</time>
      </trkpt>
      <trkpt lat="45.30805" lon="6.1815">
        <ele>2088</ele>
        <time>2022-01-27T10:20:42Z</time>
      </trkpt>
      <trkpt lat="45.30806" lon="6.1815">
        <ele>2088</ele>
        <time>2022-01-27T10:20:44Z</time>
      </trkpt>
      <trkpt lat="45.30807" lon="6.1815">
        <ele>2089.8</ele>
        <time>2022-01-27T10:20:46Z</time>
      </trkpt>
      <trkpt lat="45.30808" lon="6.1815">
        <ele>2089.8</ele>
        <time>2022-01-27T10:20:48Z</time>
      </trkpt>
      <trkpt lat="45.30809" lon="6.18149">
        <ele>2089.8</ele>
        <time>2022-01-27T10:20:49Z</time>
      </trkpt>
      <trkpt lat="45.3081" lon="6.18149">
        <ele>2089.8</ele>
        <time>2022-01-27T10:20:52Z</time>
      </trkpt>
      <trkpt lat="45.30811" lon="6.18149">
        <ele>2091.5</ele>
        <time>2022-01-27T10:20:56Z</time>
      </trkpt>
      <trkpt lat="45.30812" lon="6.18149">
        <ele>2091.5</ele>
        <time>2022-01-27T10:20:59Z</time>
      </trkpt>
      <trkpt lat="45.30813" lon="6.18149">
        <ele>2091.5</ele>
        <time>2022-01-27T10:21:01Z</time>
      </trkpt>
      <trkpt lat="45.30814" lon="6.18149">
        <ele>2093.1</ele>
        <time>2022-01-27T10:21:02Z</time>
      </trkpt>
      <trkpt lat="45.30815" lon="6.18149">
        <ele>2093.1</ele>
        <time>2022-01-27T10:21:05Z</time>
      </trkpt>
      <trkpt lat="45.30815" lon="6.1815">
        <ele>2093.1</ele>
        <time>2022-01-27T10:21:06Z</time>
      </trkpt>
      <trkpt lat="45.30816" lon="6.1815">
        <ele>2094.6</ele>
        <time>2022-01-27T10:21:07Z</time>
      </trkpt>
      <trkpt lat="45.30817" lon="6.1815">
        <ele>2094.6</ele>
        <time>2022-01-27T10:21:09Z</time>
      </trkpt>
      <trkpt lat="45.30818" lon="6.1815">
        <ele>2094.6</ele>
        <time>2022-01-27T10:21:11Z</time>
      </trkpt>
      <trkpt lat="45.30819" lon="6.1815">
        <ele>2094.6</ele>
        <time>2022-01-27T10:21:13Z</time>
      </trkpt>
      <trkpt lat="45.3082" lon="6.1815">
        <ele>2096</ele>
        <time>2022-01-27T10:21:15Z</time>
      </trkpt>
      <trkpt lat="45.30821" lon="6.1815">
        <ele>2096</ele>
        <time>2022-01-27T10:21:18Z</time>
      </trkpt>
      <trkpt lat="45.30822" lon="6.1815">
        <ele>2097.4</ele>
        <time>2022-01-27T10:21:20Z</time>
      </trkpt>
      <trkpt lat="45.30823" lon="6.1815">
        <ele>2097.4</ele>
        <time>2022-01-27T10:21:22Z</time>
      </trkpt>
      <trkpt lat="45.30824" lon="6.1815">
        <ele>2097.4</ele>
        <time>2022-01-27T10:21:24Z</time>
      </trkpt>
      <trkpt lat="45.30825" lon="6.1815">
        <ele>2097.4</ele>
        <time>2022-01-27T10:21:26Z</time>
      </trkpt>
      <trkpt lat="45.30826" lon="6.1815">
        <ele>2098.9</ele>
        <time>2022-01-27T10:21:29Z</time>
      </trkpt>
      <trkpt lat="45.30827" lon="6.1815">
        <ele>2098.9</ele>
        <time>2022-01-27T10:21:31Z</time>
      </trkpt>
      <trkpt lat="45.30827" lon="6.18151">
        <ele>2098.9</ele>
        <time>2022-01-27T10:21:37Z</time>
      </trkpt>
      <trkpt lat="45.30826" lon="6.18151">
        <ele>2098.9</ele>
        <time>2022-01-27T10:21:39Z</time>
      </trkpt>
      <trkpt lat="45.30826" lon="6.18152">
        <ele>2098.9</ele>
        <time>2022-01-27T10:21:41Z</time>
      </trkpt>
      <trkpt lat="45.30826" lon="6.18153">
        <ele>2098.9</ele>
        <time>2022-01-27T10:21:43Z</time>
      </trkpt>
      <trkpt lat="45.30823" lon="6.1816">
        <ele>2099.7</ele>
        <time>2022-01-27T10:22:09Z</time>
      </trkpt>
      <trkpt lat="45.30823" lon="6.18161">
        <ele>2099.7</ele>
        <time>2022-01-27T10:22:10Z</time>
      </trkpt>
      <trkpt lat="45.30823" lon="6.18162">
        <ele>2100.9</ele>
        <time>2022-01-27T10:22:12Z</time>
      </trkpt>
      <trkpt lat="45.30823" lon="6.18163">
        <ele>2100.9</ele>
        <time>2022-01-27T10:22:13Z</time>
      </trkpt>
      <trkpt lat="45.30822" lon="6.18164">
        <ele>2100.9</ele>
        <time>2022-01-27T10:22:15Z</time>
      </trkpt>
      <trkpt lat="45.30822" lon="6.18166">
        <ele>2100.7</ele>
        <time>2022-01-27T10:22:16Z</time>
      </trkpt>
      <trkpt lat="45.30821" lon="6.18167">
        <ele>2100.7</ele>
        <time>2022-01-27T10:22:17Z</time>
      </trkpt>
      <trkpt lat="45.30821" lon="6.18168">
        <ele>2100.7</ele>
        <time>2022-01-27T10:22:18Z</time>
      </trkpt>
      <trkpt lat="45.30821" lon="6.18169">
        <ele>2100.7</ele>
        <time>2022-01-27T10:22:19Z</time>
      </trkpt>
      <trkpt lat="45.3082" lon="6.1817">
        <ele>2102</ele>
        <time>2022-01-27T10:22:21Z</time>
      </trkpt>
      <trkpt lat="45.3082" lon="6.18171">
        <ele>2102</ele>
        <time>2022-01-27T10:22:22Z</time>
      </trkpt>
      <trkpt lat="45.30819" lon="6.18173">
        <ele>2102</ele>
        <time>2022-01-27T10:22:23Z</time>
      </trkpt>
      <trkpt lat="45.30818" lon="6.18174">
        <ele>2100.5</ele>
        <time>2022-01-27T10:22:24Z</time>
      </trkpt>
      <trkpt lat="45.30818" lon="6.18175">
        <ele>2101.8</ele>
        <time>2022-01-27T10:22:26Z</time>
      </trkpt>
      <trkpt lat="45.30818" lon="6.18176">
        <ele>2101.8</ele>
        <time>2022-01-27T10:22:27Z</time>
      </trkpt>
      <trkpt lat="45.30817" lon="6.18177">
        <ele>2101.8</ele>
        <time>2022-01-27T10:22:28Z</time>
      </trkpt>
      <trkpt lat="45.30817" lon="6.18179">
        <ele>2103.1</ele>
        <time>2022-01-27T10:22:30Z</time>
      </trkpt>
      <trkpt lat="45.30817" lon="6.1818">
        <ele>2103.1</ele>
        <time>2022-01-27T10:22:32Z</time>
      </trkpt>
      <trkpt lat="45.30817" lon="6.18182">
        <ele>2103.1</ele>
        <time>2022-01-27T10:22:34Z</time>
      </trkpt>
      <trkpt lat="45.30816" lon="6.18183">
        <ele>2104.4</ele>
        <time>2022-01-27T10:22:35Z</time>
      </trkpt>
      <trkpt lat="45.30816" lon="6.18184">
        <ele>2104.4</ele>
        <time>2022-01-27T10:22:36Z</time>
      </trkpt>
      <trkpt lat="45.30816" lon="6.18185">
        <ele>2104.4</ele>
        <time>2022-01-27T10:22:37Z</time>
      </trkpt>
      <trkpt lat="45.30816" lon="6.18187">
        <ele>2104.4</ele>
        <time>2022-01-27T10:22:39Z</time>
      </trkpt>
      <trkpt lat="45.30815" lon="6.18188">
        <ele>2104</ele>
        <time>2022-01-27T10:22:41Z</time>
      </trkpt>
      <trkpt lat="45.30815" lon="6.18189">
        <ele>2104</ele>
        <time>2022-01-27T10:22:42Z</time>
      </trkpt>
      <trkpt lat="45.30815" lon="6.1819">
        <ele>2104</ele>
        <time>2022-01-27T10:22:43Z</time>
      </trkpt>
      <trkpt lat="45.30814" lon="6.18191">
        <ele>2105.2</ele>
        <time>2022-01-27T10:22:44Z</time>
      </trkpt>
      <trkpt lat="45.30814" lon="6.18192">
        <ele>2105.2</ele>
        <time>2022-01-27T10:22:45Z</time>
      </trkpt>
      <trkpt lat="45.30814" lon="6.18193">
        <ele>2105.2</ele>
        <time>2022-01-27T10:22:46Z</time>
      </trkpt>
      <trkpt lat="45.30814" lon="6.18194">
        <ele>2105.2</ele>
        <time>2022-01-27T10:22:47Z</time>
      </trkpt>
      <trkpt lat="45.30813" lon="6.18194">
        <ele>2105.2</ele>
        <time>2022-01-27T10:22:51Z</time>
      </trkpt>
      <trkpt lat="45.30813" lon="6.18196">
        <ele>2106.4</ele>
        <time>2022-01-27T10:24:02Z</time>
      </trkpt>
      <trkpt lat="45.30814" lon="6.18197">
        <ele>2106.4</ele>
        <time>2022-01-27T10:24:03Z</time>
      </trkpt>
      <trkpt lat="45.30814" lon="6.18198">
        <ele>2106.4</ele>
        <time>2022-01-27T10:24:04Z</time>
      </trkpt>
      <trkpt lat="45.30814" lon="6.182">
        <ele>2106.4</ele>
        <time>2022-01-27T10:24:05Z</time>
      </trkpt>
      <trkpt lat="45.30813" lon="6.182">
        <ele>2107.6</ele>
        <time>2022-01-27T10:24:06Z</time>
      </trkpt>
      <trkpt lat="45.30813" lon="6.18201">
        <ele>2107.6</ele>
        <time>2022-01-27T10:24:07Z</time>
      </trkpt>
      <trkpt lat="45.30813" lon="6.18202">
        <ele>2107.6</ele>
        <time>2022-01-27T10:24:08Z</time>
      </trkpt>
      <trkpt lat="45.30815" lon="6.18204">
        <ele>2107.6</ele>
        <time>2022-01-27T10:24:10Z</time>
      </trkpt>
      <trkpt lat="45.30816" lon="6.18205">
        <ele>2110.6</ele>
        <time>2022-01-27T10:24:13Z</time>
      </trkpt>
      <trkpt lat="45.30817" lon="6.18205">
        <ele>2110.6</ele>
        <time>2022-01-27T10:24:15Z</time>
      </trkpt>
      <trkpt lat="45.30818" lon="6.18205">
        <ele>2110.6</ele>
        <time>2022-01-27T10:24:19Z</time>
      </trkpt>
      <trkpt lat="45.30819" lon="6.18205">
        <ele>2110.6</ele>
        <time>2022-01-27T10:24:21Z</time>
      </trkpt>
      <trkpt lat="45.30819" lon="6.18204">
        <ele>2112.2</ele>
        <time>2022-01-27T10:24:22Z</time>
      </trkpt>
      <trkpt lat="45.3082" lon="6.18204">
        <ele>2112.2</ele>
        <time>2022-01-27T10:24:23Z</time>
      </trkpt>
      <trkpt lat="45.30821" lon="6.18204">
        <ele>2112.2</ele>
        <time>2022-01-27T10:24:25Z</time>
      </trkpt>
      <trkpt lat="45.30822" lon="6.18204">
        <ele>2113.9</ele>
        <time>2022-01-27T10:24:26Z</time>
      </trkpt>
      <trkpt lat="45.30823" lon="6.18204">
        <ele>2113.9</ele>
        <time>2022-01-27T10:24:27Z</time>
      </trkpt>
      <trkpt lat="45.30824" lon="6.18204">
        <ele>2112.7</ele>
        <time>2022-01-27T10:24:29Z</time>
      </trkpt>
      <trkpt lat="45.30825" lon="6.18204">
        <ele>2112.7</ele>
        <time>2022-01-27T10:24:30Z</time>
      </trkpt>
      <trkpt lat="45.30826" lon="6.18204">
        <ele>2114.4</ele>
        <time>2022-01-27T10:24:32Z</time>
      </trkpt>
      <trkpt lat="45.30827" lon="6.18204">
        <ele>2114.4</ele>
        <time>2022-01-27T10:24:34Z</time>
      </trkpt>
      <trkpt lat="45.30828" lon="6.18203">
        <ele>2114.4</ele>
        <time>2022-01-27T10:24:35Z</time>
      </trkpt>
      <trkpt lat="45.30829" lon="6.18202">
        <ele>2116.3</ele>
        <time>2022-01-27T10:24:38Z</time>
      </trkpt>
      <trkpt lat="45.3083" lon="6.18201">
        <ele>2116.3</ele>
        <time>2022-01-27T10:24:40Z</time>
      </trkpt>
      <trkpt lat="45.30831" lon="6.182">
        <ele>2118.4</ele>
        <time>2022-01-27T10:24:42Z</time>
      </trkpt>
      <trkpt lat="45.30832" lon="6.18199">
        <ele>2117.1</ele>
        <time>2022-01-27T10:24:43Z</time>
      </trkpt>
      <trkpt lat="45.30833" lon="6.18198">
        <ele>2117.1</ele>
        <time>2022-01-27T10:24:45Z</time>
      </trkpt>
      <trkpt lat="45.30834" lon="6.18198">
        <ele>2117.1</ele>
        <time>2022-01-27T10:24:46Z</time>
      </trkpt>
      <trkpt lat="45.30835" lon="6.18197">
        <ele>2119.2</ele>
        <time>2022-01-27T10:24:48Z</time>
      </trkpt>
      <trkpt lat="45.30836" lon="6.18197">
        <ele>2119.2</ele>
        <time>2022-01-27T10:24:50Z</time>
      </trkpt>
      <trkpt lat="45.30837" lon="6.18196">
        <ele>2119.2</ele>
        <time>2022-01-27T10:24:51Z</time>
      </trkpt>
      <trkpt lat="45.30838" lon="6.18196">
        <ele>2121.2</ele>
        <time>2022-01-27T10:24:53Z</time>
      </trkpt>
      <trkpt lat="45.30839" lon="6.18196">
        <ele>2121.2</ele>
        <time>2022-01-27T10:24:54Z</time>
      </trkpt>
      <trkpt lat="45.30839" lon="6.18195">
        <ele>2119.8</ele>
        <time>2022-01-27T10:24:55Z</time>
      </trkpt>
      <trkpt lat="45.3084" lon="6.18195">
        <ele>2119.8</ele>
        <time>2022-01-27T10:24:56Z</time>
      </trkpt>
      <trkpt lat="45.30841" lon="6.18195">
        <ele>2121.6</ele>
        <time>2022-01-27T10:24:58Z</time>
      </trkpt>
      <trkpt lat="45.30842" lon="6.18195">
        <ele>2121.6</ele>
        <time>2022-01-27T10:25:00Z</time>
      </trkpt>
      <trkpt lat="45.30842" lon="6.18196">
        <ele>2123</ele>
        <time>2022-01-27T10:25:02Z</time>
      </trkpt>
      <trkpt lat="45.30843" lon="6.18196">
        <ele>2123</ele>
        <time>2022-01-27T10:25:05Z</time>
      </trkpt>
      <trkpt lat="45.30843" lon="6.18197">
        <ele>2123</ele>
        <time>2022-01-27T10:25:06Z</time>
      </trkpt>
      <trkpt lat="45.30843" lon="6.18198">
        <ele>2123</ele>
        <time>2022-01-27T10:25:08Z</time>
      </trkpt>
      <trkpt lat="45.30842" lon="6.18199">
        <ele>2123</ele>
        <time>2022-01-27T10:25:09Z</time>
      </trkpt>
      <trkpt lat="45.30842" lon="6.182">
        <ele>2124.3</ele>
        <time>2022-01-27T10:25:10Z</time>
      </trkpt>
      <trkpt lat="45.30842" lon="6.18201">
        <ele>2124.3</ele>
        <time>2022-01-27T10:25:11Z</time>
      </trkpt>
      <trkpt lat="45.30842" lon="6.18202">
        <ele>2124.3</ele>
        <time>2022-01-27T10:25:13Z</time>
      </trkpt>
      <trkpt lat="45.30842" lon="6.18203">
        <ele>2124.3</ele>
        <time>2022-01-27T10:25:14Z</time>
      </trkpt>
      <trkpt lat="45.30841" lon="6.18204">
        <ele>2124.3</ele>
        <time>2022-01-27T10:25:16Z</time>
      </trkpt>
      <trkpt lat="45.30841" lon="6.18205">
        <ele>2125.6</ele>
        <time>2022-01-27T10:25:17Z</time>
      </trkpt>
      <trkpt lat="45.30841" lon="6.18206">
        <ele>2125.6</ele>
        <time>2022-01-27T10:25:18Z</time>
      </trkpt>
      <trkpt lat="45.3084" lon="6.18206">
        <ele>2125.6</ele>
        <time>2022-01-27T10:25:19Z</time>
      </trkpt>
      <trkpt lat="45.3084" lon="6.18207">
        <ele>2125.6</ele>
        <time>2022-01-27T10:25:20Z</time>
      </trkpt>
      <trkpt lat="45.3084" lon="6.18208">
        <ele>2123.8</ele>
        <time>2022-01-27T10:25:22Z</time>
      </trkpt>
      <trkpt lat="45.3084" lon="6.18209">
        <ele>2125.1</ele>
        <time>2022-01-27T10:25:24Z</time>
      </trkpt>
      <trkpt lat="45.30839" lon="6.1821">
        <ele>2125.1</ele>
        <time>2022-01-27T10:25:25Z</time>
      </trkpt>
      <trkpt lat="45.30839" lon="6.18211">
        <ele>2125.1</ele>
        <time>2022-01-27T10:25:26Z</time>
      </trkpt>
      <trkpt lat="45.30838" lon="6.18212">
        <ele>2125.1</ele>
        <time>2022-01-27T10:25:27Z</time>
      </trkpt>
      <trkpt lat="45.30838" lon="6.18213">
        <ele>2126.5</ele>
        <time>2022-01-27T10:25:29Z</time>
      </trkpt>
      <trkpt lat="45.30837" lon="6.18214">
        <ele>2126.5</ele>
        <time>2022-01-27T10:25:30Z</time>
      </trkpt>
      <trkpt lat="45.30837" lon="6.18215">
        <ele>2126.5</ele>
        <time>2022-01-27T10:25:31Z</time>
      </trkpt>
      <trkpt lat="45.30836" lon="6.18216">
        <ele>2124.5</ele>
        <time>2022-01-27T10:25:33Z</time>
      </trkpt>
      <trkpt lat="45.30836" lon="6.18217">
        <ele>2124.5</ele>
        <time>2022-01-27T10:25:34Z</time>
      </trkpt>
      <trkpt lat="45.30835" lon="6.18218">
        <ele>2125.9</ele>
        <time>2022-01-27T10:25:36Z</time>
      </trkpt>
      <trkpt lat="45.30835" lon="6.18219">
        <ele>2125.9</ele>
        <time>2022-01-27T10:25:37Z</time>
      </trkpt>
      <trkpt lat="45.30835" lon="6.1822">
        <ele>2125.9</ele>
        <time>2022-01-27T10:25:39Z</time>
      </trkpt>
      <trkpt lat="45.30834" lon="6.18221">
        <ele>2125.9</ele>
        <time>2022-01-27T10:25:40Z</time>
      </trkpt>
      <trkpt lat="45.30834" lon="6.18222">
        <ele>2127.5</ele>
        <time>2022-01-27T10:25:41Z</time>
      </trkpt>
      <trkpt lat="45.30834" lon="6.18223">
        <ele>2125.3</ele>
        <time>2022-01-27T10:25:42Z</time>
      </trkpt>
      <trkpt lat="45.30833" lon="6.18224">
        <ele>2125.3</ele>
        <time>2022-01-27T10:25:44Z</time>
      </trkpt>
      <trkpt lat="45.30833" lon="6.18225">
        <ele>2125.3</ele>
        <time>2022-01-27T10:25:45Z</time>
      </trkpt>
      <trkpt lat="45.30833" lon="6.18226">
        <ele>2125.3</ele>
        <time>2022-01-27T10:25:46Z</time>
      </trkpt>
      <trkpt lat="45.30833" lon="6.18228">
        <ele>2126.8</ele>
        <time>2022-01-27T10:25:48Z</time>
      </trkpt>
      <trkpt lat="45.30832" lon="6.18229">
        <ele>2126.8</ele>
        <time>2022-01-27T10:25:50Z</time>
      </trkpt>
      <trkpt lat="45.30832" lon="6.1823">
        <ele>2128.3</ele>
        <time>2022-01-27T10:25:51Z</time>
      </trkpt>
      <trkpt lat="45.30832" lon="6.18232">
        <ele>2128.3</ele>
        <time>2022-01-27T10:25:52Z</time>
      </trkpt>
      <trkpt lat="45.30832" lon="6.18233">
        <ele>2128.3</ele>
        <time>2022-01-27T10:25:54Z</time>
      </trkpt>
      <trkpt lat="45.30832" lon="6.18234">
        <ele>2129.7</ele>
        <time>2022-01-27T10:25:55Z</time>
      </trkpt>
      <trkpt lat="45.30832" lon="6.18235">
        <ele>2129.7</ele>
        <time>2022-01-27T10:25:56Z</time>
      </trkpt>
      <trkpt lat="45.30832" lon="6.18236">
        <ele>2129.7</ele>
        <time>2022-01-27T10:25:57Z</time>
      </trkpt>
      <trkpt lat="45.30832" lon="6.18237">
        <ele>2129.7</ele>
        <time>2022-01-27T10:25:58Z</time>
      </trkpt>
      <trkpt lat="45.30831" lon="6.18238">
        <ele>2129.7</ele>
        <time>2022-01-27T10:25:59Z</time>
      </trkpt>
      <trkpt lat="45.30831" lon="6.1824">
        <ele>2131.2</ele>
        <time>2022-01-27T10:26:00Z</time>
      </trkpt>
      <trkpt lat="45.30831" lon="6.18242">
        <ele>2131.2</ele>
        <time>2022-01-27T10:26:02Z</time>
      </trkpt>
      <trkpt lat="45.30831" lon="6.18243">
        <ele>2132.8</ele>
        <time>2022-01-27T10:26:04Z</time>
      </trkpt>
      <trkpt lat="45.30831" lon="6.18244">
        <ele>2132.8</ele>
        <time>2022-01-27T10:26:05Z</time>
      </trkpt>
      <trkpt lat="45.30832" lon="6.18245">
        <ele>2132.8</ele>
        <time>2022-01-27T10:26:06Z</time>
      </trkpt>
      <trkpt lat="45.30832" lon="6.18247">
        <ele>2132.8</ele>
        <time>2022-01-27T10:26:08Z</time>
      </trkpt>
      <trkpt lat="45.30833" lon="6.18248">
        <ele>2134.5</ele>
        <time>2022-01-27T10:26:10Z</time>
      </trkpt>
      <trkpt lat="45.30834" lon="6.18248">
        <ele>2134.5</ele>
        <time>2022-01-27T10:26:12Z</time>
      </trkpt>
      <trkpt lat="45.30835" lon="6.18248">
        <ele>2136.7</ele>
        <time>2022-01-27T10:26:15Z</time>
      </trkpt>
      <trkpt lat="45.30835" lon="6.18247">
        <ele>2135</ele>
        <time>2022-01-27T10:26:16Z</time>
      </trkpt>
      <trkpt lat="45.30836" lon="6.18246">
        <ele>2135</ele>
        <time>2022-01-27T10:26:18Z</time>
      </trkpt>
      <trkpt lat="45.30837" lon="6.18246">
        <ele>2135</ele>
        <time>2022-01-27T10:26:19Z</time>
      </trkpt>
      <trkpt lat="45.30837" lon="6.18245">
        <ele>2137.2</ele>
        <time>2022-01-27T10:26:20Z</time>
      </trkpt>
      <trkpt lat="45.30838" lon="6.18244">
        <ele>2137.2</ele>
        <time>2022-01-27T10:26:22Z</time>
      </trkpt>
      <trkpt lat="45.30838" lon="6.18243">
        <ele>2137.2</ele>
        <time>2022-01-27T10:26:23Z</time>
      </trkpt>
      <trkpt lat="45.30838" lon="6.18242">
        <ele>2135.6</ele>
        <time>2022-01-27T10:26:24Z</time>
      </trkpt>
      <trkpt lat="45.30839" lon="6.18241">
        <ele>2135.6</ele>
        <time>2022-01-27T10:26:25Z</time>
      </trkpt>
      <trkpt lat="45.30841" lon="6.1824">
        <ele>2137.7</ele>
        <time>2022-01-27T10:26:28Z</time>
      </trkpt>
      <trkpt lat="45.30841" lon="6.18239">
        <ele>2137.7</ele>
        <time>2022-01-27T10:26:29Z</time>
      </trkpt>
      <trkpt lat="45.30842" lon="6.18238">
        <ele>2136.2</ele>
        <time>2022-01-27T10:26:31Z</time>
      </trkpt>
      <trkpt lat="45.30842" lon="6.18237">
        <ele>2136.2</ele>
        <time>2022-01-27T10:26:33Z</time>
      </trkpt>
      <trkpt lat="45.30843" lon="6.18237">
        <ele>2136.2</ele>
        <time>2022-01-27T10:26:34Z</time>
      </trkpt>
      <trkpt lat="45.30843" lon="6.18236">
        <ele>2138</ele>
        <time>2022-01-27T10:26:35Z</time>
      </trkpt>
      <trkpt lat="45.30844" lon="6.18236">
        <ele>2138</ele>
        <time>2022-01-27T10:26:37Z</time>
      </trkpt>
      <trkpt lat="45.30844" lon="6.18235">
        <ele>2138</ele>
        <time>2022-01-27T10:26:38Z</time>
      </trkpt>
      <trkpt lat="45.30844" lon="6.18234">
        <ele>2138</ele>
        <time>2022-01-27T10:26:40Z</time>
      </trkpt>
      <trkpt lat="45.30845" lon="6.18234">
        <ele>2136.5</ele>
        <time>2022-01-27T10:26:41Z</time>
      </trkpt>
      <trkpt lat="45.30845" lon="6.18233">
        <ele>2136.5</ele>
        <time>2022-01-27T10:26:43Z</time>
      </trkpt>
      <trkpt lat="45.30846" lon="6.18233">
        <ele>2136.5</ele>
        <time>2022-01-27T10:26:44Z</time>
      </trkpt>
      <trkpt lat="45.30846" lon="6.18232">
        <ele>2138.3</ele>
        <time>2022-01-27T10:26:45Z</time>
      </trkpt>
      <trkpt lat="45.30847" lon="6.18231">
        <ele>2138.3</ele>
        <time>2022-01-27T10:26:47Z</time>
      </trkpt>
      <trkpt lat="45.30848" lon="6.1823">
        <ele>2136.7</ele>
        <time>2022-01-27T10:26:49Z</time>
      </trkpt>
      <trkpt lat="45.30848" lon="6.18229">
        <ele>2136.7</ele>
        <time>2022-01-27T10:26:50Z</time>
      </trkpt>
      <trkpt lat="45.30849" lon="6.18229">
        <ele>2136.7</ele>
        <time>2022-01-27T10:26:52Z</time>
      </trkpt>
      <trkpt lat="45.30849" lon="6.18228">
        <ele>2136.7</ele>
        <time>2022-01-27T10:26:53Z</time>
      </trkpt>
      <trkpt lat="45.3085" lon="6.18227">
        <ele>2138.4</ele>
        <time>2022-01-27T10:26:55Z</time>
      </trkpt>
      <trkpt lat="45.3085" lon="6.18226">
        <ele>2138.4</ele>
        <time>2022-01-27T10:26:57Z</time>
      </trkpt>
      <trkpt lat="45.30851" lon="6.18226">
        <ele>2138.4</ele>
        <time>2022-01-27T10:26:59Z</time>
      </trkpt>
      <trkpt lat="45.30851" lon="6.18225">
        <ele>2136.7</ele>
        <time>2022-01-27T10:27:00Z</time>
      </trkpt>
      <trkpt lat="45.30851" lon="6.18224">
        <ele>2136.7</ele>
        <time>2022-01-27T10:27:05Z</time>
      </trkpt>
      <trkpt lat="45.30852" lon="6.18224">
        <ele>2136.7</ele>
        <time>2022-01-27T10:27:07Z</time>
      </trkpt>
      <trkpt lat="45.30852" lon="6.18223">
        <ele>2136.7</ele>
        <time>2022-01-27T10:27:08Z</time>
      </trkpt>
      <trkpt lat="45.30852" lon="6.18222">
        <ele>2138.6</ele>
        <time>2022-01-27T10:27:09Z</time>
      </trkpt>
      <trkpt lat="45.30853" lon="6.18223">
        <ele>2138.6</ele>
        <time>2022-01-27T10:27:11Z</time>
      </trkpt>
      <trkpt lat="45.30853" lon="6.18224">
        <ele>2138.6</ele>
        <time>2022-01-27T10:27:13Z</time>
      </trkpt>
      <trkpt lat="45.30854" lon="6.18224">
        <ele>2138.6</ele>
        <time>2022-01-27T10:27:14Z</time>
      </trkpt>
      <trkpt lat="45.30854" lon="6.18225">
        <ele>2138.6</ele>
        <time>2022-01-27T10:27:15Z</time>
      </trkpt>
      <trkpt lat="45.30854" lon="6.18226">
        <ele>2140.3</ele>
        <time>2022-01-27T10:27:16Z</time>
      </trkpt>
      <trkpt lat="45.30854" lon="6.18227">
        <ele>2140.3</ele>
        <time>2022-01-27T10:27:17Z</time>
      </trkpt>
      <trkpt lat="45.30854" lon="6.18228">
        <ele>2140.3</ele>
        <time>2022-01-27T10:27:19Z</time>
      </trkpt>
      <trkpt lat="45.30854" lon="6.18229">
        <ele>2140.3</ele>
        <time>2022-01-27T10:27:21Z</time>
      </trkpt>
      <trkpt lat="45.30854" lon="6.1823">
        <ele>2140.3</ele>
        <time>2022-01-27T10:27:22Z</time>
      </trkpt>
      <trkpt lat="45.30854" lon="6.18231">
        <ele>2142</ele>
        <time>2022-01-27T10:27:24Z</time>
      </trkpt>
      <trkpt lat="45.30854" lon="6.18232">
        <ele>2142</ele>
        <time>2022-01-27T10:27:26Z</time>
      </trkpt>
      <trkpt lat="45.30854" lon="6.18234">
        <ele>2142</ele>
        <time>2022-01-27T10:27:27Z</time>
      </trkpt>
      <trkpt lat="45.30854" lon="6.18235">
        <ele>2143.8</ele>
        <time>2022-01-27T10:27:30Z</time>
      </trkpt>
      <trkpt lat="45.30854" lon="6.18236">
        <ele>2143.8</ele>
        <time>2022-01-27T10:27:33Z</time>
      </trkpt>
      <trkpt lat="45.30853" lon="6.18237">
        <ele>2143.8</ele>
        <time>2022-01-27T10:27:34Z</time>
      </trkpt>
      <trkpt lat="45.30853" lon="6.18238">
        <ele>2143.8</ele>
        <time>2022-01-27T10:27:36Z</time>
      </trkpt>
      <trkpt lat="45.30853" lon="6.1824">
        <ele>2145.7</ele>
        <time>2022-01-27T10:27:38Z</time>
      </trkpt>
      <trkpt lat="45.30853" lon="6.18241">
        <ele>2145.7</ele>
        <time>2022-01-27T10:27:40Z</time>
      </trkpt>
      <trkpt lat="45.30852" lon="6.18242">
        <ele>2145.7</ele>
        <time>2022-01-27T10:27:42Z</time>
      </trkpt>
      <trkpt lat="45.30852" lon="6.18243">
        <ele>2145.3</ele>
        <time>2022-01-27T10:27:43Z</time>
      </trkpt>
      <trkpt lat="45.30852" lon="6.18244">
        <ele>2145.3</ele>
        <time>2022-01-27T10:27:44Z</time>
      </trkpt>
      <trkpt lat="45.30851" lon="6.18244">
        <ele>2145.3</ele>
        <time>2022-01-27T10:27:45Z</time>
      </trkpt>
      <trkpt lat="45.30851" lon="6.18245">
        <ele>2145.3</ele>
        <time>2022-01-27T10:27:46Z</time>
      </trkpt>
      <trkpt lat="45.30851" lon="6.18246">
        <ele>2145.3</ele>
        <time>2022-01-27T10:27:48Z</time>
      </trkpt>
      <trkpt lat="45.30851" lon="6.18247">
        <ele>2145.3</ele>
        <time>2022-01-27T10:27:49Z</time>
      </trkpt>
      <trkpt lat="45.30851" lon="6.18248">
        <ele>2147.4</ele>
        <time>2022-01-27T10:27:50Z</time>
      </trkpt>
      <trkpt lat="45.30851" lon="6.18249">
        <ele>2147.4</ele>
        <time>2022-01-27T10:27:51Z</time>
      </trkpt>
      <trkpt lat="45.30851" lon="6.18251">
        <ele>2147.4</ele>
        <time>2022-01-27T10:27:52Z</time>
      </trkpt>
      <trkpt lat="45.30851" lon="6.18252">
        <ele>2149.5</ele>
        <time>2022-01-27T10:27:55Z</time>
      </trkpt>
      <trkpt lat="45.30851" lon="6.18253">
        <ele>2149.5</ele>
        <time>2022-01-27T10:27:56Z</time>
      </trkpt>
      <trkpt lat="45.30851" lon="6.18254">
        <ele>2149.5</ele>
        <time>2022-01-27T10:27:57Z</time>
      </trkpt>
      <trkpt lat="45.30851" lon="6.18255">
        <ele>2149.5</ele>
        <time>2022-01-27T10:27:58Z</time>
      </trkpt>
      <trkpt lat="45.30851" lon="6.18256">
        <ele>2151.9</ele>
        <time>2022-01-27T10:28:00Z</time>
      </trkpt>
      <trkpt lat="45.30852" lon="6.18256">
        <ele>2151.9</ele>
        <time>2022-01-27T10:28:01Z</time>
      </trkpt>
      <trkpt lat="45.30853" lon="6.18256">
        <ele>2154.5</ele>
        <time>2022-01-27T10:28:03Z</time>
      </trkpt>
      <trkpt lat="45.30853" lon="6.18255">
        <ele>2152.1</ele>
        <time>2022-01-27T10:28:06Z</time>
      </trkpt>
      <trkpt lat="45.30854" lon="6.18254">
        <ele>2152.1</ele>
        <time>2022-01-27T10:28:08Z</time>
      </trkpt>
      <trkpt lat="45.30855" lon="6.18254">
        <ele>2152.1</ele>
        <time>2022-01-27T10:28:11Z</time>
      </trkpt>
      <trkpt lat="45.30855" lon="6.18253">
        <ele>2154.9</ele>
        <time>2022-01-27T10:28:12Z</time>
      </trkpt>
      <trkpt lat="45.30856" lon="6.18253">
        <ele>2154.9</ele>
        <time>2022-01-27T10:28:13Z</time>
      </trkpt>
      <trkpt lat="45.30856" lon="6.18252">
        <ele>2154.9</ele>
        <time>2022-01-27T10:28:14Z</time>
      </trkpt>
      <trkpt lat="45.30857" lon="6.18251">
        <ele>2154.9</ele>
        <time>2022-01-27T10:28:15Z</time>
      </trkpt>
      <trkpt lat="45.30858" lon="6.1825">
        <ele>2152.5</ele>
        <time>2022-01-27T10:28:17Z</time>
      </trkpt>
      <trkpt lat="45.30859" lon="6.1825">
        <ele>2155.2</ele>
        <time>2022-01-27T10:28:19Z</time>
      </trkpt>
      <trkpt lat="45.30859" lon="6.18249">
        <ele>2155.2</ele>
        <time>2022-01-27T10:28:20Z</time>
      </trkpt>
      <trkpt lat="45.3086" lon="6.18249">
        <ele>2155.2</ele>
        <time>2022-01-27T10:28:21Z</time>
      </trkpt>
      <trkpt lat="45.3086" lon="6.18248">
        <ele>2155.2</ele>
        <time>2022-01-27T10:28:23Z</time>
      </trkpt>
      <trkpt lat="45.30861" lon="6.18248">
        <ele>2155.2</ele>
        <time>2022-01-27T10:28:24Z</time>
      </trkpt>
      <trkpt lat="45.30862" lon="6.18247">
        <ele>2155.3</ele>
        <time>2022-01-27T10:28:26Z</time>
      </trkpt>
      <trkpt lat="45.30863" lon="6.18246">
        <ele>2155.3</ele>
        <time>2022-01-27T10:28:27Z</time>
      </trkpt>
      <trkpt lat="45.30864" lon="6.18245">
        <ele>2155.3</ele>
        <time>2022-01-27T10:28:30Z</time>
      </trkpt>
      <trkpt lat="45.30864" lon="6.18244">
        <ele>2157.7</ele>
        <time>2022-01-27T10:28:31Z</time>
      </trkpt>
      <trkpt lat="45.30865" lon="6.18244">
        <ele>2157.7</ele>
        <time>2022-01-27T10:28:32Z</time>
      </trkpt>
      <trkpt lat="45.30865" lon="6.18243">
        <ele>2157.7</ele>
        <time>2022-01-27T10:28:33Z</time>
      </trkpt>
      <trkpt lat="45.30866" lon="6.18243">
        <ele>2155.1</ele>
        <time>2022-01-27T10:28:34Z</time>
      </trkpt>
      <trkpt lat="45.30866" lon="6.18242">
        <ele>2155.1</ele>
        <time>2022-01-27T10:28:35Z</time>
      </trkpt>
      <trkpt lat="45.30867" lon="6.18242">
        <ele>2155.1</ele>
        <time>2022-01-27T10:28:36Z</time>
      </trkpt>
      <trkpt lat="45.30867" lon="6.18241">
        <ele>2157.2</ele>
        <time>2022-01-27T10:28:37Z</time>
      </trkpt>
      <trkpt lat="45.30868" lon="6.18241">
        <ele>2157.2</ele>
        <time>2022-01-27T10:28:38Z</time>
      </trkpt>
      <trkpt lat="45.30868" lon="6.1824">
        <ele>2157.2</ele>
        <time>2022-01-27T10:28:39Z</time>
      </trkpt>
      <trkpt lat="45.30869" lon="6.18239">
        <ele>2157.2</ele>
        <time>2022-01-27T10:28:40Z</time>
      </trkpt>
      <trkpt lat="45.3087" lon="6.18238">
        <ele>2154.7</ele>
        <time>2022-01-27T10:28:43Z</time>
      </trkpt>
      <trkpt lat="45.30871" lon="6.18238">
        <ele>2156.7</ele>
        <time>2022-01-27T10:28:45Z</time>
      </trkpt>
      <trkpt lat="45.30871" lon="6.18237">
        <ele>2156.7</ele>
        <time>2022-01-27T10:28:46Z</time>
      </trkpt>
      <trkpt lat="45.30872" lon="6.18237">
        <ele>2156.7</ele>
        <time>2022-01-27T10:28:47Z</time>
      </trkpt>
      <trkpt lat="45.30872" lon="6.18236">
        <ele>2156.7</ele>
        <time>2022-01-27T10:28:48Z</time>
      </trkpt>
      <trkpt lat="45.30873" lon="6.18236">
        <ele>2156.7</ele>
        <time>2022-01-27T10:28:49Z</time>
      </trkpt>
      <trkpt lat="45.30874" lon="6.18235">
        <ele>2158.6</ele>
        <time>2022-01-27T10:28:50Z</time>
      </trkpt>
      <trkpt lat="45.30874" lon="6.18234">
        <ele>2156.3</ele>
        <time>2022-01-27T10:28:53Z</time>
      </trkpt>
      <trkpt lat="45.30875" lon="6.18233">
        <ele>2156.3</ele>
        <time>2022-01-27T10:28:55Z</time>
      </trkpt>
      <trkpt lat="45.30875" lon="6.18232">
        <ele>2156.3</ele>
        <time>2022-01-27T10:28:58Z</time>
      </trkpt>
      <trkpt lat="45.30876" lon="6.18231">
        <ele>2156.3</ele>
        <time>2022-01-27T10:28:59Z</time>
      </trkpt>
      <trkpt lat="45.30876" lon="6.1823">
        <ele>2156.3</ele>
        <time>2022-01-27T10:29:02Z</time>
      </trkpt>
      <trkpt lat="45.30877" lon="6.1823">
        <ele>2158.3</ele>
        <time>2022-01-27T10:29:05Z</time>
      </trkpt>
      <trkpt lat="45.30877" lon="6.18231">
        <ele>2158.3</ele>
        <time>2022-01-27T10:29:06Z</time>
      </trkpt>
      <trkpt lat="45.30878" lon="6.18231">
        <ele>2158.3</ele>
        <time>2022-01-27T10:29:09Z</time>
      </trkpt>
      <trkpt lat="45.30878" lon="6.18232">
        <ele>2158.3</ele>
        <time>2022-01-27T10:29:10Z</time>
      </trkpt>
      <trkpt lat="45.30879" lon="6.18232">
        <ele>2158.3</ele>
        <time>2022-01-27T10:29:11Z</time>
      </trkpt>
      <trkpt lat="45.30879" lon="6.18233">
        <ele>2158.3</ele>
        <time>2022-01-27T10:29:12Z</time>
      </trkpt>
      <trkpt lat="45.30879" lon="6.18234">
        <ele>2158.3</ele>
        <time>2022-01-27T10:29:14Z</time>
      </trkpt>
      <trkpt lat="45.30879" lon="6.18235">
        <ele>2162.5</ele>
        <time>2022-01-27T10:29:16Z</time>
      </trkpt>
      <trkpt lat="45.3088" lon="6.18236">
        <ele>2162.5</ele>
        <time>2022-01-27T10:29:17Z</time>
      </trkpt>
      <trkpt lat="45.3088" lon="6.18237">
        <ele>2162.5</ele>
        <time>2022-01-27T10:29:18Z</time>
      </trkpt>
      <trkpt lat="45.3088" lon="6.18238">
        <ele>2162.5</ele>
        <time>2022-01-27T10:29:20Z</time>
      </trkpt>
      <trkpt lat="45.30879" lon="6.18239">
        <ele>2164.8</ele>
        <time>2022-01-27T10:29:21Z</time>
      </trkpt>
      <trkpt lat="45.30879" lon="6.1824">
        <ele>2164.8</ele>
        <time>2022-01-27T10:29:23Z</time>
      </trkpt>
      <trkpt lat="45.30879" lon="6.18241">
        <ele>2164.8</ele>
        <time>2022-01-27T10:29:24Z</time>
      </trkpt>
      <trkpt lat="45.30879" lon="6.18242">
        <ele>2163</ele>
        <time>2022-01-27T10:29:25Z</time>
      </trkpt>
      <trkpt lat="45.30878" lon="6.18243">
        <ele>2165.5</ele>
        <time>2022-01-27T10:29:27Z</time>
      </trkpt>
      <trkpt lat="45.30878" lon="6.18244">
        <ele>2165.5</ele>
        <time>2022-01-27T10:29:28Z</time>
      </trkpt>
      <trkpt lat="45.30878" lon="6.18246">
        <ele>2165.5</ele>
        <time>2022-01-27T10:29:29Z</time>
      </trkpt>
      <trkpt lat="45.30878" lon="6.18247">
        <ele>2165.5</ele>
        <time>2022-01-27T10:29:31Z</time>
      </trkpt>
      <trkpt lat="45.30877" lon="6.18248">
        <ele>2168</ele>
        <time>2022-01-27T10:29:32Z</time>
      </trkpt>
      <trkpt lat="45.30877" lon="6.18249">
        <ele>2168</ele>
        <time>2022-01-27T10:29:33Z</time>
      </trkpt>
      <trkpt lat="45.30876" lon="6.1825">
        <ele>2168</ele>
        <time>2022-01-27T10:29:34Z</time>
      </trkpt>
      <trkpt lat="45.30876" lon="6.18251">
        <ele>2166.4</ele>
        <time>2022-01-27T10:29:35Z</time>
      </trkpt>
      <trkpt lat="45.30875" lon="6.18252">
        <ele>2169</ele>
        <time>2022-01-27T10:29:36Z</time>
      </trkpt>
      <trkpt lat="45.30875" lon="6.18254">
        <ele>2169</ele>
        <time>2022-01-27T10:29:37Z</time>
      </trkpt>
      <trkpt lat="45.30874" lon="6.18255">
        <ele>2169</ele>
        <time>2022-01-27T10:29:38Z</time>
      </trkpt>
      <trkpt lat="45.30874" lon="6.18256">
        <ele>2171.4</ele>
        <time>2022-01-27T10:29:39Z</time>
      </trkpt>
      <trkpt lat="45.30874" lon="6.18257">
        <ele>2171.4</ele>
        <time>2022-01-27T10:29:40Z</time>
      </trkpt>
      <trkpt lat="45.30873" lon="6.18258">
        <ele>2171.4</ele>
        <time>2022-01-27T10:29:41Z</time>
      </trkpt>
      <trkpt lat="45.30873" lon="6.18259">
        <ele>2171.4</ele>
        <time>2022-01-27T10:29:42Z</time>
      </trkpt>
      <trkpt lat="45.30873" lon="6.1826">
        <ele>2169.7</ele>
        <time>2022-01-27T10:29:43Z</time>
      </trkpt>
      <trkpt lat="45.30873" lon="6.18261">
        <ele>2171.8</ele>
        <time>2022-01-27T10:29:44Z</time>
      </trkpt>
      <trkpt lat="45.30872" lon="6.18262">
        <ele>2171.8</ele>
        <time>2022-01-27T10:29:45Z</time>
      </trkpt>
      <trkpt lat="45.30872" lon="6.18263">
        <ele>2171.8</ele>
        <time>2022-01-27T10:29:46Z</time>
      </trkpt>
      <trkpt lat="45.30872" lon="6.18264">
        <ele>2171.8</ele>
        <time>2022-01-27T10:29:47Z</time>
      </trkpt>
      <trkpt lat="45.30871" lon="6.18265">
        <ele>2173.3</ele>
        <time>2022-01-27T10:29:48Z</time>
      </trkpt>
      <trkpt lat="45.30871" lon="6.18266">
        <ele>2173.3</ele>
        <time>2022-01-27T10:29:49Z</time>
      </trkpt>
      <trkpt lat="45.30871" lon="6.18267">
        <ele>2173.3</ele>
        <time>2022-01-27T10:29:50Z</time>
      </trkpt>
      <trkpt lat="45.30871" lon="6.18268">
        <ele>2173.3</ele>
        <time>2022-01-27T10:29:51Z</time>
      </trkpt>
      <trkpt lat="45.30871" lon="6.18269">
        <ele>2174.3</ele>
        <time>2022-01-27T10:29:52Z</time>
      </trkpt>
      <trkpt lat="45.30871" lon="6.1827">
        <ele>2174.3</ele>
        <time>2022-01-27T10:29:55Z</time>
      </trkpt>
      <trkpt lat="45.3087" lon="6.1827">
        <ele>2174.3</ele>
        <time>2022-01-27T10:29:56Z</time>
      </trkpt>
      <trkpt lat="45.3087" lon="6.18271">
        <ele>2174.3</ele>
        <time>2022-01-27T10:29:58Z</time>
      </trkpt>
      <trkpt lat="45.30869" lon="6.18272">
        <ele>2172.6</ele>
        <time>2022-01-27T10:30:03Z</time>
      </trkpt>
      <trkpt lat="45.30874" lon="6.18272">
        <ele>2175.7</ele>
        <time>2022-01-27T10:30:26Z</time>
      </trkpt>
      <trkpt lat="45.30875" lon="6.18271">
        <ele>2175.7</ele>
        <time>2022-01-27T10:30:27Z</time>
      </trkpt>
      <trkpt lat="45.30876" lon="6.1827">
        <ele>2175.7</ele>
        <time>2022-01-27T10:30:28Z</time>
      </trkpt>
      <trkpt lat="45.30876" lon="6.18269">
        <ele>2177</ele>
        <time>2022-01-27T10:30:30Z</time>
      </trkpt>
      <trkpt lat="45.30877" lon="6.18268">
        <ele>2176.1</ele>
        <time>2022-01-27T10:30:31Z</time>
      </trkpt>
      <trkpt lat="45.30878" lon="6.18267">
        <ele>2176.1</ele>
        <time>2022-01-27T10:30:34Z</time>
      </trkpt>
      <trkpt lat="45.30879" lon="6.18266">
        <ele>2176.1</ele>
        <time>2022-01-27T10:30:37Z</time>
      </trkpt>
      <trkpt lat="45.30879" lon="6.18265">
        <ele>2177.2</ele>
        <time>2022-01-27T10:30:41Z</time>
      </trkpt>
      <trkpt lat="45.3088" lon="6.18265">
        <ele>2177.2</ele>
        <time>2022-01-27T10:30:50Z</time>
      </trkpt>
      <trkpt lat="45.30881" lon="6.18265">
        <ele>2177.2</ele>
        <time>2022-01-27T10:30:54Z</time>
      </trkpt>
      <trkpt lat="45.30882" lon="6.18265">
        <ele>2177.2</ele>
        <time>2022-01-27T10:30:56Z</time>
      </trkpt>
      <trkpt lat="45.30883" lon="6.18265">
        <ele>2178.2</ele>
        <time>2022-01-27T10:30:59Z</time>
      </trkpt>
      <trkpt lat="45.30884" lon="6.18265">
        <ele>2178.2</ele>
        <time>2022-01-27T10:31:00Z</time>
      </trkpt>
      <trkpt lat="45.30885" lon="6.18265">
        <ele>2178.2</ele>
        <time>2022-01-27T10:31:02Z</time>
      </trkpt>
      <trkpt lat="45.30886" lon="6.18264">
        <ele>2179</ele>
        <time>2022-01-27T10:31:04Z</time>
      </trkpt>
      <trkpt lat="45.30887" lon="6.18264">
        <ele>2177.5</ele>
        <time>2022-01-27T10:31:11Z</time>
      </trkpt>
      <trkpt lat="45.30888" lon="6.18268">
        <ele>2179</ele>
        <time>2022-01-27T10:31:27Z</time>
      </trkpt>
      <trkpt lat="45.30888" lon="6.18269">
        <ele>2180.5</ele>
        <time>2022-01-27T10:31:28Z</time>
      </trkpt>
      <trkpt lat="45.30888" lon="6.1827">
        <ele>2180.5</ele>
        <time>2022-01-27T10:31:30Z</time>
      </trkpt>
      <trkpt lat="45.30888" lon="6.18271">
        <ele>2180.5</ele>
        <time>2022-01-27T10:31:31Z</time>
      </trkpt>
      <trkpt lat="45.30888" lon="6.18272">
        <ele>2180.5</ele>
        <time>2022-01-27T10:31:32Z</time>
      </trkpt>
      <trkpt lat="45.30888" lon="6.18273">
        <ele>2180.5</ele>
        <time>2022-01-27T10:31:34Z</time>
      </trkpt>
      <trkpt lat="45.30888" lon="6.18274">
        <ele>2181.8</ele>
        <time>2022-01-27T10:31:36Z</time>
      </trkpt>
      <trkpt lat="45.30887" lon="6.18275">
        <ele>2181.8</ele>
        <time>2022-01-27T10:31:37Z</time>
      </trkpt>
      <trkpt lat="45.30887" lon="6.18276">
        <ele>2181.8</ele>
        <time>2022-01-27T10:31:38Z</time>
      </trkpt>
      <trkpt lat="45.30887" lon="6.18277">
        <ele>2183</ele>
        <time>2022-01-27T10:31:40Z</time>
      </trkpt>
      <trkpt lat="45.30887" lon="6.18278">
        <ele>2183</ele>
        <time>2022-01-27T10:31:41Z</time>
      </trkpt>
      <trkpt lat="45.30887" lon="6.18279">
        <ele>2183</ele>
        <time>2022-01-27T10:31:42Z</time>
      </trkpt>
      <trkpt lat="45.30887" lon="6.1828">
        <ele>2183</ele>
        <time>2022-01-27T10:31:43Z</time>
      </trkpt>
      <trkpt lat="45.30886" lon="6.18281">
        <ele>2183</ele>
        <time>2022-01-27T10:31:44Z</time>
      </trkpt>
      <trkpt lat="45.30886" lon="6.18282">
        <ele>2184.3</ele>
        <time>2022-01-27T10:31:46Z</time>
      </trkpt>
      <trkpt lat="45.30886" lon="6.18283">
        <ele>2184.3</ele>
        <time>2022-01-27T10:31:47Z</time>
      </trkpt>
      <trkpt lat="45.30886" lon="6.18284">
        <ele>2184.3</ele>
        <time>2022-01-27T10:31:48Z</time>
      </trkpt>
      <trkpt lat="45.30886" lon="6.18285">
        <ele>2184.3</ele>
        <time>2022-01-27T10:31:50Z</time>
      </trkpt>
      <trkpt lat="45.30886" lon="6.18284">
        <ele>2184.3</ele>
        <time>2022-01-27T10:31:52Z</time>
      </trkpt>
      <trkpt lat="45.30885" lon="6.18285">
        <ele>2184.3</ele>
        <time>2022-01-27T10:31:56Z</time>
      </trkpt>
      <trkpt lat="45.30885" lon="6.18286">
        <ele>2185.7</ele>
        <time>2022-01-27T10:31:57Z</time>
      </trkpt>
      <trkpt lat="45.30885" lon="6.18287">
        <ele>2183.2</ele>
        <time>2022-01-27T10:31:58Z</time>
      </trkpt>
      <trkpt lat="45.30885" lon="6.18288">
        <ele>2183.2</ele>
        <time>2022-01-27T10:31:59Z</time>
      </trkpt>
      <trkpt lat="45.30884" lon="6.18289">
        <ele>2183.2</ele>
        <time>2022-01-27T10:32:01Z</time>
      </trkpt>
      <trkpt lat="45.30884" lon="6.1829">
        <ele>2183.2</ele>
        <time>2022-01-27T10:32:03Z</time>
      </trkpt>
      <trkpt lat="45.30883" lon="6.18291">
        <ele>2184.4</ele>
        <time>2022-01-27T10:32:05Z</time>
      </trkpt>
      <trkpt lat="45.30883" lon="6.18292">
        <ele>2184.4</ele>
        <time>2022-01-27T10:32:07Z</time>
      </trkpt>
      <trkpt lat="45.30882" lon="6.18292">
        <ele>2184.4</ele>
        <time>2022-01-27T10:32:08Z</time>
      </trkpt>
      <trkpt lat="45.30882" lon="6.18293">
        <ele>2181.9</ele>
        <time>2022-01-27T10:32:09Z</time>
      </trkpt>
      <trkpt lat="45.30881" lon="6.18294">
        <ele>2181.9</ele>
        <time>2022-01-27T10:32:11Z</time>
      </trkpt>
      <trkpt lat="45.30881" lon="6.18295">
        <ele>2183.2</ele>
        <time>2022-01-27T10:32:12Z</time>
      </trkpt>
      <trkpt lat="45.3088" lon="6.18295">
        <ele>2183.2</ele>
        <time>2022-01-27T10:32:13Z</time>
      </trkpt>
      <trkpt lat="45.3088" lon="6.18296">
        <ele>2183.2</ele>
        <time>2022-01-27T10:32:14Z</time>
      </trkpt>
      <trkpt lat="45.30879" lon="6.18297">
        <ele>2183.2</ele>
        <time>2022-01-27T10:32:15Z</time>
      </trkpt>
      <trkpt lat="45.30878" lon="6.18298">
        <ele>2181</ele>
        <time>2022-01-27T10:32:16Z</time>
      </trkpt>
      <trkpt lat="45.30878" lon="6.18299">
        <ele>2182.7</ele>
        <time>2022-01-27T10:32:17Z</time>
      </trkpt>
      <trkpt lat="45.30878" lon="6.183">
        <ele>2182.7</ele>
        <time>2022-01-27T10:32:20Z</time>
      </trkpt>
      <trkpt lat="45.30877" lon="6.183">
        <ele>2182.7</ele>
        <time>2022-01-27T10:32:21Z</time>
      </trkpt>
      <trkpt lat="45.30877" lon="6.18301">
        <ele>2182.7</ele>
        <time>2022-01-27T10:32:22Z</time>
      </trkpt>
      <trkpt lat="45.30877" lon="6.18302">
        <ele>2182.7</ele>
        <time>2022-01-27T10:32:24Z</time>
      </trkpt>
      <trkpt lat="45.30877" lon="6.18303">
        <ele>2182.7</ele>
        <time>2022-01-27T10:32:25Z</time>
      </trkpt>
      <trkpt lat="45.30877" lon="6.18304">
        <ele>2184.9</ele>
        <time>2022-01-27T10:32:28Z</time>
      </trkpt>
      <trkpt lat="45.30877" lon="6.18305">
        <ele>2184.9</ele>
        <time>2022-01-27T10:32:29Z</time>
      </trkpt>
      <trkpt lat="45.30877" lon="6.18306">
        <ele>2184.9</ele>
        <time>2022-01-27T10:32:30Z</time>
      </trkpt>
      <trkpt lat="45.30877" lon="6.18307">
        <ele>2187.5</ele>
        <time>2022-01-27T10:32:32Z</time>
      </trkpt>
      <trkpt lat="45.30877" lon="6.18308">
        <ele>2187.5</ele>
        <time>2022-01-27T10:32:33Z</time>
      </trkpt>
      <trkpt lat="45.30876" lon="6.18308">
        <ele>2187.5</ele>
        <time>2022-01-27T10:32:34Z</time>
      </trkpt>
      <trkpt lat="45.30876" lon="6.18309">
        <ele>2187.5</ele>
        <time>2022-01-27T10:32:36Z</time>
      </trkpt>
      <trkpt lat="45.30877" lon="6.1831">
        <ele>2187.5</ele>
        <time>2022-01-27T10:32:39Z</time>
      </trkpt>
      <trkpt lat="45.30877" lon="6.18309">
        <ele>2187.5</ele>
        <time>2022-01-27T10:32:41Z</time>
      </trkpt>
      <trkpt lat="45.30878" lon="6.18309">
        <ele>2187.5</ele>
        <time>2022-01-27T10:32:45Z</time>
      </trkpt>
      <trkpt lat="45.30878" lon="6.1831">
        <ele>2187.5</ele>
        <time>2022-01-27T10:32:47Z</time>
      </trkpt>
      <trkpt lat="45.3089" lon="6.18311">
        <ele>2198.4</ele>
        <time>2022-01-27T10:34:32Z</time>
      </trkpt>
      <trkpt lat="45.3089" lon="6.1831">
        <ele>2198.4</ele>
        <time>2022-01-27T10:34:33Z</time>
      </trkpt>
      <trkpt lat="45.30889" lon="6.18309">
        <ele>2198.4</ele>
        <time>2022-01-27T10:34:34Z</time>
      </trkpt>
      <trkpt lat="45.30889" lon="6.18308">
        <ele>2198.4</ele>
        <time>2022-01-27T10:34:37Z</time>
      </trkpt>
      <trkpt lat="45.30889" lon="6.18307">
        <ele>2196.2</ele>
        <time>2022-01-27T10:34:38Z</time>
      </trkpt>
      <trkpt lat="45.3089" lon="6.18306">
        <ele>2196.2</ele>
        <time>2022-01-27T10:34:39Z</time>
      </trkpt>
      <trkpt lat="45.3089" lon="6.18305">
        <ele>2196.2</ele>
        <time>2022-01-27T10:34:40Z</time>
      </trkpt>
      <trkpt lat="45.30891" lon="6.18305">
        <ele>2196.2</ele>
        <time>2022-01-27T10:34:42Z</time>
      </trkpt>
      <trkpt lat="45.30891" lon="6.18304">
        <ele>2196.2</ele>
        <time>2022-01-27T10:34:47Z</time>
      </trkpt>
      <trkpt lat="45.30892" lon="6.18304">
        <ele>2199.5</ele>
        <time>2022-01-27T10:34:49Z</time>
      </trkpt>
      <trkpt lat="45.30893" lon="6.18303">
        <ele>2199.5</ele>
        <time>2022-01-27T10:34:50Z</time>
      </trkpt>
      <trkpt lat="45.30894" lon="6.18303">
        <ele>2199.5</ele>
        <time>2022-01-27T10:34:52Z</time>
      </trkpt>
      <trkpt lat="45.30895" lon="6.18303">
        <ele>2202.8</ele>
        <time>2022-01-27T10:34:53Z</time>
      </trkpt>
      <trkpt lat="45.30896" lon="6.18303">
        <ele>2202.8</ele>
        <time>2022-01-27T10:34:56Z</time>
      </trkpt>
      <trkpt lat="45.30897" lon="6.18303">
        <ele>2205.9</ele>
        <time>2022-01-27T10:34:57Z</time>
      </trkpt>
      <trkpt lat="45.30899" lon="6.18303">
        <ele>2203.8</ele>
        <time>2022-01-27T10:34:59Z</time>
      </trkpt>
      <trkpt lat="45.309" lon="6.18302">
        <ele>2203.8</ele>
        <time>2022-01-27T10:35:03Z</time>
      </trkpt>
      <trkpt lat="45.30901" lon="6.18302">
        <ele>2206.6</ele>
        <time>2022-01-27T10:35:06Z</time>
      </trkpt>
      <trkpt lat="45.30904" lon="6.18301">
        <ele>2209</ele>
        <time>2022-01-27T10:35:19Z</time>
      </trkpt>
      <trkpt lat="45.30905" lon="6.183">
        <ele>2209</ele>
        <time>2022-01-27T10:35:20Z</time>
      </trkpt>
      <trkpt lat="45.30905" lon="6.18301">
        <ele>2209</ele>
        <time>2022-01-27T10:35:22Z</time>
      </trkpt>
      <trkpt lat="45.30905" lon="6.183">
        <ele>2209</ele>
        <time>2022-01-27T10:35:24Z</time>
      </trkpt>
      <trkpt lat="45.30906" lon="6.183">
        <ele>2209</ele>
        <time>2022-01-27T10:35:26Z</time>
      </trkpt>
      <trkpt lat="45.30907" lon="6.183">
        <ele>2211.2</ele>
        <time>2022-01-27T10:35:29Z</time>
      </trkpt>
      <trkpt lat="45.30906" lon="6.18308">
        <ele>2215.1</ele>
        <time>2022-01-27T10:35:56Z</time>
      </trkpt>
      <trkpt lat="45.30906" lon="6.18309">
        <ele>2213.1</ele>
        <time>2022-01-27T10:35:59Z</time>
      </trkpt>
      <trkpt lat="45.30905" lon="6.1831">
        <ele>2213.1</ele>
        <time>2022-01-27T10:36:01Z</time>
      </trkpt>
      <trkpt lat="45.30905" lon="6.18311">
        <ele>2213.1</ele>
        <time>2022-01-27T10:36:03Z</time>
      </trkpt>
      <trkpt lat="45.30904" lon="6.18311">
        <ele>2213.1</ele>
        <time>2022-01-27T10:36:04Z</time>
      </trkpt>
      <trkpt lat="45.30904" lon="6.18312">
        <ele>2214.8</ele>
        <time>2022-01-27T10:36:05Z</time>
      </trkpt>
      <trkpt lat="45.30903" lon="6.18313">
        <ele>2212.5</ele>
        <time>2022-01-27T10:36:08Z</time>
      </trkpt>
      <trkpt lat="45.30903" lon="6.18314">
        <ele>2212.5</ele>
        <time>2022-01-27T10:36:09Z</time>
      </trkpt>
      <trkpt lat="45.30903" lon="6.18315">
        <ele>2212.5</ele>
        <time>2022-01-27T10:36:11Z</time>
      </trkpt>
      <trkpt lat="45.30902" lon="6.18315">
        <ele>2212.5</ele>
        <time>2022-01-27T10:36:13Z</time>
      </trkpt>
      <trkpt lat="45.30913" lon="6.18311">
        <ele>2218.6</ele>
        <time>2022-01-27T10:37:21Z</time>
      </trkpt>
      <trkpt lat="45.30914" lon="6.18311">
        <ele>2218.6</ele>
        <time>2022-01-27T10:37:23Z</time>
      </trkpt>
      <trkpt lat="45.30915" lon="6.18311">
        <ele>2218.6</ele>
        <time>2022-01-27T10:37:24Z</time>
      </trkpt>
      <trkpt lat="45.30916" lon="6.18311">
        <ele>2220</ele>
        <time>2022-01-27T10:37:25Z</time>
      </trkpt>
      <trkpt lat="45.30916" lon="6.1831">
        <ele>2220</ele>
        <time>2022-01-27T10:37:26Z</time>
      </trkpt>
      <trkpt lat="45.30917" lon="6.1831">
        <ele>2220</ele>
        <time>2022-01-27T10:37:27Z</time>
      </trkpt>
      <trkpt lat="45.30918" lon="6.1831">
        <ele>2220</ele>
        <time>2022-01-27T10:37:28Z</time>
      </trkpt>
      <trkpt lat="45.30919" lon="6.1831">
        <ele>2221.3</ele>
        <time>2022-01-27T10:37:29Z</time>
      </trkpt>
      <trkpt lat="45.3092" lon="6.1831">
        <ele>2221.3</ele>
        <time>2022-01-27T10:37:30Z</time>
      </trkpt>
      <trkpt lat="45.30921" lon="6.1831">
        <ele>2221.3</ele>
        <time>2022-01-27T10:37:32Z</time>
      </trkpt>
      <trkpt lat="45.30922" lon="6.18309">
        <ele>2222.3</ele>
        <time>2022-01-27T10:37:33Z</time>
      </trkpt>
      <trkpt lat="45.30923" lon="6.18309">
        <ele>2222.3</ele>
        <time>2022-01-27T10:37:34Z</time>
      </trkpt>
      <trkpt lat="45.30924" lon="6.18308">
        <ele>2222.3</ele>
        <time>2022-01-27T10:37:35Z</time>
      </trkpt>
      <trkpt lat="45.30925" lon="6.18308">
        <ele>2223.1</ele>
        <time>2022-01-27T10:37:36Z</time>
      </trkpt>
      <trkpt lat="45.30926" lon="6.18308">
        <ele>2223.1</ele>
        <time>2022-01-27T10:37:37Z</time>
      </trkpt>
      <trkpt lat="45.30927" lon="6.18307">
        <ele>2223.1</ele>
        <time>2022-01-27T10:37:38Z</time>
      </trkpt>
      <trkpt lat="45.30927" lon="6.18308">
        <ele>2223.1</ele>
        <time>2022-01-27T10:37:39Z</time>
      </trkpt>
      <trkpt lat="45.30926" lon="6.18308">
        <ele>2223.1</ele>
        <time>2022-01-27T10:37:40Z</time>
      </trkpt>
      <trkpt lat="45.30927" lon="6.18308">
        <ele>2223.1</ele>
        <time>2022-01-27T10:37:41Z</time>
      </trkpt>
      <trkpt lat="45.30927" lon="6.18307">
        <ele>2223.1</ele>
        <time>2022-01-27T10:37:43Z</time>
      </trkpt>
      <trkpt lat="45.30928" lon="6.18307">
        <ele>2221.8</ele>
        <time>2022-01-27T10:37:45Z</time>
      </trkpt>
      <trkpt lat="45.30928" lon="6.18306">
        <ele>2221.8</ele>
        <time>2022-01-27T10:37:46Z</time>
      </trkpt>
      <trkpt lat="45.30929" lon="6.18305">
        <ele>2221.8</ele>
        <time>2022-01-27T10:37:48Z</time>
      </trkpt>
      <trkpt lat="45.30929" lon="6.18304">
        <ele>2221.8</ele>
        <time>2022-01-27T10:37:51Z</time>
      </trkpt>
      <trkpt lat="45.3093" lon="6.18303">
        <ele>2221.8</ele>
        <time>2022-01-27T10:37:52Z</time>
      </trkpt>
      <trkpt lat="45.3093" lon="6.18302">
        <ele>2219.9</ele>
        <time>2022-01-27T10:37:57Z</time>
      </trkpt>
      <trkpt lat="45.30929" lon="6.183">
        <ele>2219.9</ele>
        <time>2022-01-27T10:37:58Z</time>
      </trkpt>
      <trkpt lat="45.30928" lon="6.18298">
        <ele>2218</ele>
        <time>2022-01-27T10:38:00Z</time>
      </trkpt>
      <trkpt lat="45.30927" lon="6.18298">
        <ele>2217.2</ele>
        <time>2022-01-27T10:38:01Z</time>
      </trkpt>
      <trkpt lat="45.30925" lon="6.18298">
        <ele>2217.2</ele>
        <time>2022-01-27T10:38:02Z</time>
      </trkpt>
      <trkpt lat="45.30923" lon="6.18297">
        <ele>2216.3</ele>
        <time>2022-01-27T10:38:03Z</time>
      </trkpt>
      <trkpt lat="45.30922" lon="6.18297">
        <ele>2216.3</ele>
        <time>2022-01-27T10:38:04Z</time>
      </trkpt>
      <trkpt lat="45.30918" lon="6.18299">
        <ele>2217.4</ele>
        <time>2022-01-27T10:38:06Z</time>
      </trkpt>
      <trkpt lat="45.30917" lon="6.183">
        <ele>2216.1</ele>
        <time>2022-01-27T10:38:07Z</time>
      </trkpt>
      <trkpt lat="45.30918" lon="6.18299">
        <ele>2216.1</ele>
        <time>2022-01-27T10:38:11Z</time>
      </trkpt>
      <trkpt lat="45.30919" lon="6.18299">
        <ele>2217.4</ele>
        <time>2022-01-27T10:38:16Z</time>
      </trkpt>
      <trkpt lat="45.3092" lon="6.18299">
        <ele>2217.4</ele>
        <time>2022-01-27T10:38:19Z</time>
      </trkpt>
      <trkpt lat="45.3092" lon="6.183">
        <ele>2217.4</ele>
        <time>2022-01-27T10:38:20Z</time>
      </trkpt>
      <trkpt lat="45.3092" lon="6.18301">
        <ele>2217.4</ele>
        <time>2022-01-27T10:38:21Z</time>
      </trkpt>
      <trkpt lat="45.3092" lon="6.18303">
        <ele>2217.4</ele>
        <time>2022-01-27T10:38:22Z</time>
      </trkpt>
      <trkpt lat="45.3092" lon="6.18304">
        <ele>2219.4</ele>
        <time>2022-01-27T10:38:24Z</time>
      </trkpt>
      <trkpt lat="45.30919" lon="6.18305">
        <ele>2219.4</ele>
        <time>2022-01-27T10:38:25Z</time>
      </trkpt>
      <trkpt lat="45.30918" lon="6.18305">
        <ele>2218.2</ele>
        <time>2022-01-27T10:38:26Z</time>
      </trkpt>
      <trkpt lat="45.30918" lon="6.18307">
        <ele>2218.2</ele>
        <time>2022-01-27T10:38:27Z</time>
      </trkpt>
      <trkpt lat="45.30918" lon="6.18308">
        <ele>2220</ele>
        <time>2022-01-27T10:38:28Z</time>
      </trkpt>
      <trkpt lat="45.30917" lon="6.18308">
        <ele>2220</ele>
        <time>2022-01-27T10:38:29Z</time>
      </trkpt>
      <trkpt lat="45.30917" lon="6.18309">
        <ele>2220</ele>
        <time>2022-01-27T10:38:43Z</time>
      </trkpt>
      <trkpt lat="45.30916" lon="6.18309">
        <ele>2220</ele>
        <time>2022-01-27T10:38:46Z</time>
      </trkpt>
      <trkpt lat="45.30917" lon="6.1831">
        <ele>2220</ele>
        <time>2022-01-27T10:38:47Z</time>
      </trkpt>
      <trkpt lat="45.30917" lon="6.18311">
        <ele>2220</ele>
        <time>2022-01-27T10:38:49Z</time>
      </trkpt>
      <trkpt lat="45.30917" lon="6.18312">
        <ele>2221.8</ele>
        <time>2022-01-27T10:38:51Z</time>
      </trkpt>
      <trkpt lat="45.30916" lon="6.18313">
        <ele>2221.8</ele>
        <time>2022-01-27T10:38:56Z</time>
      </trkpt>
      <trkpt lat="45.30916" lon="6.18314">
        <ele>2221.8</ele>
        <time>2022-01-27T10:38:57Z</time>
      </trkpt>
      <trkpt lat="45.30916" lon="6.18315">
        <ele>2221.8</ele>
        <time>2022-01-27T10:38:58Z</time>
      </trkpt>
      <trkpt lat="45.30915" lon="6.18317">
        <ele>2221.9</ele>
        <time>2022-01-27T10:38:59Z</time>
      </trkpt>
      <trkpt lat="45.30914" lon="6.18318">
        <ele>2221.9</ele>
        <time>2022-01-27T10:39:00Z</time>
      </trkpt>
      <trkpt lat="45.30913" lon="6.18319">
        <ele>2221.9</ele>
        <time>2022-01-27T10:39:01Z</time>
      </trkpt>
      <trkpt lat="45.30912" lon="6.1832">
        <ele>2223.4</ele>
        <time>2022-01-27T10:39:02Z</time>
      </trkpt>
      <trkpt lat="45.30912" lon="6.18321">
        <ele>2221.8</ele>
        <time>2022-01-27T10:39:03Z</time>
      </trkpt>
      <trkpt lat="45.3091" lon="6.18323">
        <ele>2221.8</ele>
        <time>2022-01-27T10:39:04Z</time>
      </trkpt>
      <trkpt lat="45.3091" lon="6.18324">
        <ele>2221.8</ele>
        <time>2022-01-27T10:39:05Z</time>
      </trkpt>
      <trkpt lat="45.3091" lon="6.18325">
        <ele>2223.2</ele>
        <time>2022-01-27T10:39:06Z</time>
      </trkpt>
      <trkpt lat="45.30909" lon="6.18326">
        <ele>2221.5</ele>
        <time>2022-01-27T10:39:07Z</time>
      </trkpt>
      <trkpt lat="45.30909" lon="6.18328">
        <ele>2221.5</ele>
        <time>2022-01-27T10:39:08Z</time>
      </trkpt>
      <trkpt lat="45.30909" lon="6.18329">
        <ele>2223</ele>
        <time>2022-01-27T10:39:09Z</time>
      </trkpt>
      <trkpt lat="45.30909" lon="6.18331">
        <ele>2223</ele>
        <time>2022-01-27T10:39:10Z</time>
      </trkpt>
      <trkpt lat="45.30909" lon="6.18332">
        <ele>2223</ele>
        <time>2022-01-27T10:39:11Z</time>
      </trkpt>
      <trkpt lat="45.30909" lon="6.18333">
        <ele>2223</ele>
        <time>2022-01-27T10:39:12Z</time>
      </trkpt>
      <trkpt lat="45.30909" lon="6.18334">
        <ele>2224.4</ele>
        <time>2022-01-27T10:39:13Z</time>
      </trkpt>
      <trkpt lat="45.30909" lon="6.18336">
        <ele>2224.4</ele>
        <time>2022-01-27T10:39:15Z</time>
      </trkpt>
      <trkpt lat="45.3091" lon="6.18337">
        <ele>2226</ele>
        <time>2022-01-27T10:39:16Z</time>
      </trkpt>
      <trkpt lat="45.30909" lon="6.18338">
        <ele>2227.4</ele>
        <time>2022-01-27T10:39:17Z</time>
      </trkpt>
      <trkpt lat="45.3091" lon="6.18339">
        <ele>2227.4</ele>
        <time>2022-01-27T10:39:18Z</time>
      </trkpt>
      <trkpt lat="45.30911" lon="6.18341">
        <ele>2227.4</ele>
        <time>2022-01-27T10:39:19Z</time>
      </trkpt>
      <trkpt lat="45.30912" lon="6.18341">
        <ele>2227.4</ele>
        <time>2022-01-27T10:39:21Z</time>
      </trkpt>
      <trkpt lat="45.30913" lon="6.18341">
        <ele>2228.8</ele>
        <time>2022-01-27T10:39:22Z</time>
      </trkpt>
      <trkpt lat="45.30914" lon="6.18341">
        <ele>2228.8</ele>
        <time>2022-01-27T10:39:24Z</time>
      </trkpt>
      <trkpt lat="45.30915" lon="6.18342">
        <ele>2230.1</ele>
        <time>2022-01-27T10:39:28Z</time>
      </trkpt>
      <trkpt lat="45.30916" lon="6.18342">
        <ele>2231.4</ele>
        <time>2022-01-27T10:39:31Z</time>
      </trkpt>
      <trkpt lat="45.30917" lon="6.18341">
        <ele>2230</ele>
        <time>2022-01-27T10:39:35Z</time>
      </trkpt>
      <trkpt lat="45.30917" lon="6.1834">
        <ele>2230</ele>
        <time>2022-01-27T10:39:38Z</time>
      </trkpt>
      <trkpt lat="45.30918" lon="6.1834">
        <ele>2230</ele>
        <time>2022-01-27T10:39:39Z</time>
      </trkpt>
      <trkpt lat="45.30919" lon="6.18339">
        <ele>2231.2</ele>
        <time>2022-01-27T10:39:40Z</time>
      </trkpt>
      <trkpt lat="45.3092" lon="6.18339">
        <ele>2231.2</ele>
        <time>2022-01-27T10:39:41Z</time>
      </trkpt>
      <trkpt lat="45.3092" lon="6.18338">
        <ele>2231.2</ele>
        <time>2022-01-27T10:39:42Z</time>
      </trkpt>
      <trkpt lat="45.30921" lon="6.18338">
        <ele>2231.2</ele>
        <time>2022-01-27T10:39:43Z</time>
      </trkpt>
      <trkpt lat="45.30922" lon="6.18338">
        <ele>2232.1</ele>
        <time>2022-01-27T10:39:44Z</time>
      </trkpt>
      <trkpt lat="45.30922" lon="6.18337">
        <ele>2230.9</ele>
        <time>2022-01-27T10:39:46Z</time>
      </trkpt>
      <trkpt lat="45.30923" lon="6.18336">
        <ele>2230.9</ele>
        <time>2022-01-27T10:39:47Z</time>
      </trkpt>
      <trkpt lat="45.30924" lon="6.18336">
        <ele>2230.9</ele>
        <time>2022-01-27T10:39:48Z</time>
      </trkpt>
      <trkpt lat="45.30924" lon="6.18335">
        <ele>2230.9</ele>
        <time>2022-01-27T10:39:49Z</time>
      </trkpt>
      <trkpt lat="45.30925" lon="6.18334">
        <ele>2231.7</ele>
        <time>2022-01-27T10:39:51Z</time>
      </trkpt>
      <trkpt lat="45.30926" lon="6.18333">
        <ele>2231.7</ele>
        <time>2022-01-27T10:39:53Z</time>
      </trkpt>
      <trkpt lat="45.30927" lon="6.18333">
        <ele>2230.5</ele>
        <time>2022-01-27T10:39:56Z</time>
      </trkpt>
      <trkpt lat="45.30927" lon="6.18332">
        <ele>2231.1</ele>
        <time>2022-01-27T10:39:57Z</time>
      </trkpt>
      <trkpt lat="45.30928" lon="6.18332">
        <ele>2231.1</ele>
        <time>2022-01-27T10:39:59Z</time>
      </trkpt>
      <trkpt lat="45.30929" lon="6.18332">
        <ele>2231.1</ele>
        <time>2022-01-27T10:40:02Z</time>
      </trkpt>
      <trkpt lat="45.3093" lon="6.18332">
        <ele>2231.1</ele>
        <time>2022-01-27T10:40:05Z</time>
      </trkpt>
      <trkpt lat="45.3093" lon="6.18331">
        <ele>2231.7</ele>
        <time>2022-01-27T10:40:06Z</time>
      </trkpt>
      <trkpt lat="45.30933" lon="6.1833">
        <ele>2231.7</ele>
        <time>2022-01-27T10:40:10Z</time>
      </trkpt>
      <trkpt lat="45.30934" lon="6.18329">
        <ele>2232.2</ele>
        <time>2022-01-27T10:40:11Z</time>
      </trkpt>
      <trkpt lat="45.30935" lon="6.18329">
        <ele>2232.2</ele>
        <time>2022-01-27T10:40:13Z</time>
      </trkpt>
      <trkpt lat="45.30936" lon="6.18329">
        <ele>2231</ele>
        <time>2022-01-27T10:40:14Z</time>
      </trkpt>
      <trkpt lat="45.30937" lon="6.18329">
        <ele>2231.5</ele>
        <time>2022-01-27T10:40:16Z</time>
      </trkpt>
      <trkpt lat="45.30938" lon="6.18328">
        <ele>2231.5</ele>
        <time>2022-01-27T10:40:17Z</time>
      </trkpt>
      <trkpt lat="45.30938" lon="6.18329">
        <ele>2231.5</ele>
        <time>2022-01-27T10:40:18Z</time>
      </trkpt>
      <trkpt lat="45.30939" lon="6.18328">
        <ele>2231.5</ele>
        <time>2022-01-27T10:40:19Z</time>
      </trkpt>
      <trkpt lat="45.30939" lon="6.18327">
        <ele>2231.5</ele>
        <time>2022-01-27T10:40:25Z</time>
      </trkpt>
      <trkpt lat="45.3094" lon="6.18327">
        <ele>2232</ele>
        <time>2022-01-27T10:40:27Z</time>
      </trkpt>
      <trkpt lat="45.3094" lon="6.18326">
        <ele>2232</ele>
        <time>2022-01-27T10:40:28Z</time>
      </trkpt>
      <trkpt lat="45.30941" lon="6.18326">
        <ele>2232</ele>
        <time>2022-01-27T10:40:30Z</time>
      </trkpt>
      <trkpt lat="45.30941" lon="6.18325">
        <ele>2232</ele>
        <time>2022-01-27T10:40:31Z</time>
      </trkpt>
      <trkpt lat="45.30942" lon="6.18325">
        <ele>2232</ele>
        <time>2022-01-27T10:40:33Z</time>
      </trkpt>
      <trkpt lat="45.30944" lon="6.18325">
        <ele>2232.6</ele>
        <time>2022-01-27T10:40:35Z</time>
      </trkpt>
      <trkpt lat="45.30945" lon="6.18325">
        <ele>2232.6</ele>
        <time>2022-01-27T10:40:37Z</time>
      </trkpt>
      <trkpt lat="45.30945" lon="6.18326">
        <ele>2232.6</ele>
        <time>2022-01-27T10:40:43Z</time>
      </trkpt>
      <trkpt lat="45.30945" lon="6.18327">
        <ele>2232.6</ele>
        <time>2022-01-27T10:40:46Z</time>
      </trkpt>
      <trkpt lat="45.30944" lon="6.18329">
        <ele>2233.8</ele>
        <time>2022-01-27T10:40:48Z</time>
      </trkpt>
      <trkpt lat="45.30944" lon="6.1833">
        <ele>2233.8</ele>
        <time>2022-01-27T10:40:49Z</time>
      </trkpt>
      <trkpt lat="45.30944" lon="6.18331">
        <ele>2233.8</ele>
        <time>2022-01-27T10:40:51Z</time>
      </trkpt>
      <trkpt lat="45.30943" lon="6.18333">
        <ele>2233.8</ele>
        <time>2022-01-27T10:40:52Z</time>
      </trkpt>
      <trkpt lat="45.30943" lon="6.18334">
        <ele>2235.1</ele>
        <time>2022-01-27T10:40:54Z</time>
      </trkpt>
      <trkpt lat="45.30942" lon="6.18335">
        <ele>2234.5</ele>
        <time>2022-01-27T10:40:55Z</time>
      </trkpt>
      <trkpt lat="45.30942" lon="6.18336">
        <ele>2234.5</ele>
        <time>2022-01-27T10:40:56Z</time>
      </trkpt>
      <trkpt lat="45.30941" lon="6.18337">
        <ele>2234.5</ele>
        <time>2022-01-27T10:40:58Z</time>
      </trkpt>
      <trkpt lat="45.30941" lon="6.18338">
        <ele>2235.7</ele>
        <time>2022-01-27T10:40:59Z</time>
      </trkpt>
      <trkpt lat="45.3094" lon="6.18339">
        <ele>2235.7</ele>
        <time>2022-01-27T10:41:01Z</time>
      </trkpt>
      <trkpt lat="45.3094" lon="6.1834">
        <ele>2235.7</ele>
        <time>2022-01-27T10:41:02Z</time>
      </trkpt>
      <trkpt lat="45.30939" lon="6.1834">
        <ele>2235.1</ele>
        <time>2022-01-27T10:41:03Z</time>
      </trkpt>
      <trkpt lat="45.30939" lon="6.18341">
        <ele>2235.1</ele>
        <time>2022-01-27T10:41:04Z</time>
      </trkpt>
      <trkpt lat="45.3094" lon="6.18341">
        <ele>2235.7</ele>
        <time>2022-01-27T10:41:08Z</time>
      </trkpt>
      <trkpt lat="45.30945" lon="6.18335">
        <ele>2235.1</ele>
        <time>2022-01-27T10:41:32Z</time>
      </trkpt>
      <trkpt lat="45.30945" lon="6.18334">
        <ele>2235.1</ele>
        <time>2022-01-27T10:41:33Z</time>
      </trkpt>
      <trkpt lat="45.30946" lon="6.18334">
        <ele>2235.6</ele>
        <time>2022-01-27T10:41:34Z</time>
      </trkpt>
      <trkpt lat="45.30946" lon="6.18333">
        <ele>2235.6</ele>
        <time>2022-01-27T10:41:36Z</time>
      </trkpt>
      <trkpt lat="45.30947" lon="6.18332">
        <ele>2234.4</ele>
        <time>2022-01-27T10:41:38Z</time>
      </trkpt>
      <trkpt lat="45.30947" lon="6.18331">
        <ele>2234.4</ele>
        <time>2022-01-27T10:41:43Z</time>
      </trkpt>
      <trkpt lat="45.30948" lon="6.18331">
        <ele>2234.4</ele>
        <time>2022-01-27T10:41:44Z</time>
      </trkpt>
      <trkpt lat="45.30949" lon="6.18331">
        <ele>2234.8</ele>
        <time>2022-01-27T10:41:53Z</time>
      </trkpt>
      <trkpt lat="45.3095" lon="6.18331">
        <ele>2234.8</ele>
        <time>2022-01-27T10:41:57Z</time>
      </trkpt>
      <trkpt lat="45.3095" lon="6.18332">
        <ele>2234.8</ele>
        <time>2022-01-27T10:42:00Z</time>
      </trkpt>
      <trkpt lat="45.30951" lon="6.18333">
        <ele>2234.8</ele>
        <time>2022-01-27T10:42:04Z</time>
      </trkpt>
      <trkpt lat="45.30951" lon="6.18334">
        <ele>2236.1</ele>
        <time>2022-01-27T10:42:10Z</time>
      </trkpt>
      <trkpt lat="45.30952" lon="6.18334">
        <ele>2236.4</ele>
        <time>2022-01-27T10:42:11Z</time>
      </trkpt>
      <trkpt lat="45.30952" lon="6.18335">
        <ele>2236.4</ele>
        <time>2022-01-27T10:42:13Z</time>
      </trkpt>
      <trkpt lat="45.30953" lon="6.18335">
        <ele>2236.4</ele>
        <time>2022-01-27T10:42:14Z</time>
      </trkpt>
      <trkpt lat="45.30952" lon="6.18336">
        <ele>2236.4</ele>
        <time>2022-01-27T10:42:15Z</time>
      </trkpt>
      <trkpt lat="45.30952" lon="6.18337">
        <ele>2236.4</ele>
        <time>2022-01-27T10:42:17Z</time>
      </trkpt>
      <trkpt lat="45.30951" lon="6.18337">
        <ele>2237.4</ele>
        <time>2022-01-27T10:42:18Z</time>
      </trkpt>
      <trkpt lat="45.3095" lon="6.18338">
        <ele>2237.4</ele>
        <time>2022-01-27T10:42:19Z</time>
      </trkpt>
      <trkpt lat="45.3095" lon="6.18339">
        <ele>2237.4</ele>
        <time>2022-01-27T10:42:20Z</time>
      </trkpt>
      <trkpt lat="45.30949" lon="6.1834">
        <ele>2237.4</ele>
        <time>2022-01-27T10:42:21Z</time>
      </trkpt>
      <trkpt lat="45.30948" lon="6.18341">
        <ele>2236.9</ele>
        <time>2022-01-27T10:42:22Z</time>
      </trkpt>
      <trkpt lat="45.30948" lon="6.18342">
        <ele>2238.3</ele>
        <time>2022-01-27T10:42:23Z</time>
      </trkpt>
      <trkpt lat="45.30947" lon="6.18343">
        <ele>2238.3</ele>
        <time>2022-01-27T10:42:24Z</time>
      </trkpt>
      <trkpt lat="45.30946" lon="6.18344">
        <ele>2238.3</ele>
        <time>2022-01-27T10:42:25Z</time>
      </trkpt>
      <trkpt lat="45.30945" lon="6.18346">
        <ele>2239.1</ele>
        <time>2022-01-27T10:42:27Z</time>
      </trkpt>
      <trkpt lat="45.30945" lon="6.18347">
        <ele>2239.1</ele>
        <time>2022-01-27T10:42:28Z</time>
      </trkpt>
      <trkpt lat="45.30944" lon="6.18347">
        <ele>2239.1</ele>
        <time>2022-01-27T10:42:29Z</time>
      </trkpt>
      <trkpt lat="45.30943" lon="6.18349">
        <ele>2239.1</ele>
        <time>2022-01-27T10:42:31Z</time>
      </trkpt>
      <trkpt lat="45.30942" lon="6.1835">
        <ele>2238.4</ele>
        <time>2022-01-27T10:42:32Z</time>
      </trkpt>
      <trkpt lat="45.30942" lon="6.18351">
        <ele>2240</ele>
        <time>2022-01-27T10:42:33Z</time>
      </trkpt>
      <trkpt lat="45.30941" lon="6.18351">
        <ele>2240</ele>
        <time>2022-01-27T10:42:36Z</time>
      </trkpt>
      <trkpt lat="45.30941" lon="6.18352">
        <ele>2240</ele>
        <time>2022-01-27T10:42:38Z</time>
      </trkpt>
      <trkpt lat="45.3094" lon="6.18352">
        <ele>2240</ele>
        <time>2022-01-27T10:42:39Z</time>
      </trkpt>
      <trkpt lat="45.3094" lon="6.18353">
        <ele>2240</ele>
        <time>2022-01-27T10:42:44Z</time>
      </trkpt>
      <trkpt lat="45.3094" lon="6.18354">
        <ele>2240</ele>
        <time>2022-01-27T10:42:45Z</time>
      </trkpt>
      <trkpt lat="45.3094" lon="6.18353">
        <ele>2240</ele>
        <time>2022-01-27T10:42:47Z</time>
      </trkpt>
      <trkpt lat="45.3094" lon="6.18352">
        <ele>2240</ele>
        <time>2022-01-27T10:42:50Z</time>
      </trkpt>
      <trkpt lat="45.30941" lon="6.18352">
        <ele>2240</ele>
        <time>2022-01-27T10:42:52Z</time>
      </trkpt>
      <trkpt lat="45.30941" lon="6.18351">
        <ele>2240</ele>
        <time>2022-01-27T10:42:54Z</time>
      </trkpt>
      <trkpt lat="45.30942" lon="6.18351">
        <ele>2240</ele>
        <time>2022-01-27T10:42:55Z</time>
      </trkpt>
      <trkpt lat="45.30944" lon="6.18351">
        <ele>2240.7</ele>
        <time>2022-01-27T10:42:56Z</time>
      </trkpt>
      <trkpt lat="45.30945" lon="6.18352">
        <ele>2240.7</ele>
        <time>2022-01-27T10:42:57Z</time>
      </trkpt>
      <trkpt lat="45.30946" lon="6.18352">
        <ele>2241.3</ele>
        <time>2022-01-27T10:42:58Z</time>
      </trkpt>
      <trkpt lat="45.30949" lon="6.18351">
        <ele>2241.8</ele>
        <time>2022-01-27T10:43:00Z</time>
      </trkpt>
      <trkpt lat="45.3095" lon="6.18349">
        <ele>2240.3</ele>
        <time>2022-01-27T10:43:01Z</time>
      </trkpt>
      <trkpt lat="45.30951" lon="6.18348">
        <ele>2240.3</ele>
        <time>2022-01-27T10:43:02Z</time>
      </trkpt>
      <trkpt lat="45.30952" lon="6.18347">
        <ele>2240.7</ele>
        <time>2022-01-27T10:43:03Z</time>
      </trkpt>
      <trkpt lat="45.30953" lon="6.18346">
        <ele>2240.7</ele>
        <time>2022-01-27T10:43:05Z</time>
      </trkpt>
      <trkpt lat="45.30954" lon="6.18345">
        <ele>2239.2</ele>
        <time>2022-01-27T10:43:07Z</time>
      </trkpt>
      <trkpt lat="45.30954" lon="6.18344">
        <ele>2239.2</ele>
        <time>2022-01-27T10:43:08Z</time>
      </trkpt>
      <trkpt lat="45.30955" lon="6.18343">
        <ele>2239.6</ele>
        <time>2022-01-27T10:43:10Z</time>
      </trkpt>
      <trkpt lat="45.30956" lon="6.18342">
        <ele>2239.6</ele>
        <time>2022-01-27T10:43:12Z</time>
      </trkpt>
      <trkpt lat="45.30957" lon="6.18341">
        <ele>2238.1</ele>
        <time>2022-01-27T10:43:14Z</time>
      </trkpt>
      <trkpt lat="45.30957" lon="6.1834">
        <ele>2238.1</ele>
        <time>2022-01-27T10:43:15Z</time>
      </trkpt>
      <trkpt lat="45.30958" lon="6.18339">
        <ele>2238.1</ele>
        <time>2022-01-27T10:43:16Z</time>
      </trkpt>
      <trkpt lat="45.30958" lon="6.18338">
        <ele>2238.4</ele>
        <time>2022-01-27T10:43:17Z</time>
      </trkpt>
      <trkpt lat="45.30959" lon="6.18337">
        <ele>2238.4</ele>
        <time>2022-01-27T10:43:19Z</time>
      </trkpt>
      <trkpt lat="45.30959" lon="6.18336">
        <ele>2237</ele>
        <time>2022-01-27T10:43:21Z</time>
      </trkpt>
      <trkpt lat="45.30958" lon="6.18336">
        <ele>2237</ele>
        <time>2022-01-27T10:43:26Z</time>
      </trkpt>
      <trkpt lat="45.30959" lon="6.18335">
        <ele>2237</ele>
        <time>2022-01-27T10:43:33Z</time>
      </trkpt>
      <trkpt lat="45.30959" lon="6.18334">
        <ele>2237</ele>
        <time>2022-01-27T10:43:34Z</time>
      </trkpt>
      <trkpt lat="45.3096" lon="6.18333">
        <ele>2235.5</ele>
        <time>2022-01-27T10:43:36Z</time>
      </trkpt>
      <trkpt lat="45.30959" lon="6.18333">
        <ele>2237</ele>
        <time>2022-01-27T10:43:39Z</time>
      </trkpt>
      <trkpt lat="45.30959" lon="6.18332">
        <ele>2235.5</ele>
        <time>2022-01-27T10:43:44Z</time>
      </trkpt>
      <trkpt lat="45.3096" lon="6.18331">
        <ele>2235.5</ele>
        <time>2022-01-27T10:43:45Z</time>
      </trkpt>
      <trkpt lat="45.3096" lon="6.18332">
        <ele>2235.5</ele>
        <time>2022-01-27T10:43:46Z</time>
      </trkpt>
      <trkpt lat="45.3096" lon="6.18333">
        <ele>2235.5</ele>
        <time>2022-01-27T10:43:48Z</time>
      </trkpt>
      <trkpt lat="45.3096" lon="6.18334">
        <ele>2237</ele>
        <time>2022-01-27T10:43:50Z</time>
      </trkpt>
      <trkpt lat="45.3096" lon="6.18335">
        <ele>2237</ele>
        <time>2022-01-27T10:43:52Z</time>
      </trkpt>
      <trkpt lat="45.30961" lon="6.18336">
        <ele>2237</ele>
        <time>2022-01-27T10:43:53Z</time>
      </trkpt>
      <trkpt lat="45.3096" lon="6.18337">
        <ele>2237</ele>
        <time>2022-01-27T10:43:55Z</time>
      </trkpt>
      <trkpt lat="45.3096" lon="6.18338">
        <ele>2238.4</ele>
        <time>2022-01-27T10:43:56Z</time>
      </trkpt>
      <trkpt lat="45.3096" lon="6.18339">
        <ele>2238.4</ele>
        <time>2022-01-27T10:43:57Z</time>
      </trkpt>
      <trkpt lat="45.3096" lon="6.1834">
        <ele>2238.4</ele>
        <time>2022-01-27T10:43:58Z</time>
      </trkpt>
      <trkpt lat="45.3096" lon="6.18342">
        <ele>2239.9</ele>
        <time>2022-01-27T10:43:59Z</time>
      </trkpt>
      <trkpt lat="45.30961" lon="6.18346">
        <ele>2241.9</ele>
        <time>2022-01-27T10:44:00Z</time>
      </trkpt>
      <trkpt lat="45.30961" lon="6.18348">
        <ele>2241.9</ele>
        <time>2022-01-27T10:44:01Z</time>
      </trkpt>
      <trkpt lat="45.30961" lon="6.1835">
        <ele>2241.9</ele>
        <time>2022-01-27T10:44:02Z</time>
      </trkpt>
      <trkpt lat="45.30961" lon="6.18351">
        <ele>2243.4</ele>
        <time>2022-01-27T10:44:03Z</time>
      </trkpt>
      <trkpt lat="45.30961" lon="6.18352">
        <ele>2243</ele>
        <time>2022-01-27T10:44:04Z</time>
      </trkpt>
      <trkpt lat="45.3096" lon="6.18353">
        <ele>2243</ele>
        <time>2022-01-27T10:44:05Z</time>
      </trkpt>
      <trkpt lat="45.30959" lon="6.18353">
        <ele>2243</ele>
        <time>2022-01-27T10:44:06Z</time>
      </trkpt>
      <trkpt lat="45.30958" lon="6.18354">
        <ele>2243</ele>
        <time>2022-01-27T10:44:08Z</time>
      </trkpt>
      <trkpt lat="45.30957" lon="6.18354">
        <ele>2242.6</ele>
        <time>2022-01-27T10:44:10Z</time>
      </trkpt>
      <trkpt lat="45.30956" lon="6.18355">
        <ele>2244.2</ele>
        <time>2022-01-27T10:44:11Z</time>
      </trkpt>
      <trkpt lat="45.30956" lon="6.18356">
        <ele>2244.2</ele>
        <time>2022-01-27T10:44:12Z</time>
      </trkpt>
      <trkpt lat="45.30955" lon="6.18356">
        <ele>2244.2</ele>
        <time>2022-01-27T10:44:14Z</time>
      </trkpt>
      <trkpt lat="45.30954" lon="6.18357">
        <ele>2243.9</ele>
        <time>2022-01-27T10:44:16Z</time>
      </trkpt>
      <trkpt lat="45.30953" lon="6.18358">
        <ele>2243.9</ele>
        <time>2022-01-27T10:44:17Z</time>
      </trkpt>
      <trkpt lat="45.30953" lon="6.18357">
        <ele>2243.9</ele>
        <time>2022-01-27T10:44:19Z</time>
      </trkpt>
      <trkpt lat="45.30953" lon="6.18359">
        <ele>2245.5</ele>
        <time>2022-01-27T10:44:22Z</time>
      </trkpt>
      <trkpt lat="45.30954" lon="6.1836">
        <ele>2245.5</ele>
        <time>2022-01-27T10:44:29Z</time>
      </trkpt>
      <trkpt lat="45.30955" lon="6.1836">
        <ele>2245.8</ele>
        <time>2022-01-27T10:44:35Z</time>
      </trkpt>
      <trkpt lat="45.30956" lon="6.1836">
        <ele>2245.8</ele>
        <time>2022-01-27T10:44:39Z</time>
      </trkpt>
      <trkpt lat="45.30957" lon="6.1836">
        <ele>2245.8</ele>
        <time>2022-01-27T10:44:41Z</time>
      </trkpt>
      <trkpt lat="45.30957" lon="6.18359">
        <ele>2245.8</ele>
        <time>2022-01-27T10:44:43Z</time>
      </trkpt>
      <trkpt lat="45.30958" lon="6.18358">
        <ele>2244.6</ele>
        <time>2022-01-27T10:44:45Z</time>
      </trkpt>
      <trkpt lat="45.30958" lon="6.18357">
        <ele>2244.6</ele>
        <time>2022-01-27T10:44:46Z</time>
      </trkpt>
      <trkpt lat="45.30959" lon="6.18356">
        <ele>2244.6</ele>
        <time>2022-01-27T10:44:48Z</time>
      </trkpt>
      <trkpt lat="45.30959" lon="6.18355">
        <ele>2244.6</ele>
        <time>2022-01-27T10:44:49Z</time>
      </trkpt>
      <trkpt lat="45.3096" lon="6.18354">
        <ele>2243</ele>
        <time>2022-01-27T10:44:51Z</time>
      </trkpt>
      <trkpt lat="45.30961" lon="6.18354">
        <ele>2243.4</ele>
        <time>2022-01-27T10:44:54Z</time>
      </trkpt>
      <trkpt lat="45.30961" lon="6.18353">
        <ele>2243.4</ele>
        <time>2022-01-27T10:44:55Z</time>
      </trkpt>
      <trkpt lat="45.30962" lon="6.18353">
        <ele>2243.4</ele>
        <time>2022-01-27T10:44:56Z</time>
      </trkpt>
      <trkpt lat="45.30962" lon="6.18352">
        <ele>2243.4</ele>
        <time>2022-01-27T10:44:57Z</time>
      </trkpt>
      <trkpt lat="45.30963" lon="6.18352">
        <ele>2243.4</ele>
        <time>2022-01-27T10:45:00Z</time>
      </trkpt>
      <trkpt lat="45.30963" lon="6.18351">
        <ele>2243.4</ele>
        <time>2022-01-27T10:45:02Z</time>
      </trkpt>
      <trkpt lat="45.30964" lon="6.1835">
        <ele>2243.9</ele>
        <time>2022-01-27T10:45:05Z</time>
      </trkpt>
      <trkpt lat="45.30964" lon="6.18349">
        <ele>2242.3</ele>
        <time>2022-01-27T10:45:07Z</time>
      </trkpt>
      <trkpt lat="45.30965" lon="6.18348">
        <ele>2242.3</ele>
        <time>2022-01-27T10:45:09Z</time>
      </trkpt>
      <trkpt lat="45.30965" lon="6.18347">
        <ele>2242.3</ele>
        <time>2022-01-27T10:45:11Z</time>
      </trkpt>
      <trkpt lat="45.30966" lon="6.18346">
        <ele>2242.3</ele>
        <time>2022-01-27T10:45:13Z</time>
      </trkpt>
      <trkpt lat="45.30967" lon="6.18346">
        <ele>2242.9</ele>
        <time>2022-01-27T10:45:16Z</time>
      </trkpt>
      <trkpt lat="45.30968" lon="6.18346">
        <ele>2242.9</ele>
        <time>2022-01-27T10:45:18Z</time>
      </trkpt>
      <trkpt lat="45.30968" lon="6.18347">
        <ele>2242.9</ele>
        <time>2022-01-27T10:45:19Z</time>
      </trkpt>
      <trkpt lat="45.30968" lon="6.18348">
        <ele>2242.9</ele>
        <time>2022-01-27T10:45:21Z</time>
      </trkpt>
      <trkpt lat="45.30969" lon="6.18349">
        <ele>2242.9</ele>
        <time>2022-01-27T10:45:22Z</time>
      </trkpt>
      <trkpt lat="45.30968" lon="6.1835">
        <ele>2242.9</ele>
        <time>2022-01-27T10:45:23Z</time>
      </trkpt>
      <trkpt lat="45.30968" lon="6.18351">
        <ele>2244.4</ele>
        <time>2022-01-27T10:45:24Z</time>
      </trkpt>
      <trkpt lat="45.30968" lon="6.18352">
        <ele>2244.4</ele>
        <time>2022-01-27T10:45:25Z</time>
      </trkpt>
      <trkpt lat="45.30968" lon="6.18353">
        <ele>2244.4</ele>
        <time>2022-01-27T10:45:27Z</time>
      </trkpt>
      <trkpt lat="45.30968" lon="6.18354">
        <ele>2244.4</ele>
        <time>2022-01-27T10:45:28Z</time>
      </trkpt>
      <trkpt lat="45.30968" lon="6.18355">
        <ele>2246</ele>
        <time>2022-01-27T10:45:29Z</time>
      </trkpt>
      <trkpt lat="45.30968" lon="6.18356">
        <ele>2246</ele>
        <time>2022-01-27T10:45:31Z</time>
      </trkpt>
      <trkpt lat="45.30967" lon="6.18356">
        <ele>2246</ele>
        <time>2022-01-27T10:45:32Z</time>
      </trkpt>
      <trkpt lat="45.30968" lon="6.18356">
        <ele>2246</ele>
        <time>2022-01-27T10:45:37Z</time>
      </trkpt>
      <trkpt lat="45.3097" lon="6.1835">
        <ele>2243.5</ele>
        <time>2022-01-27T10:46:21Z</time>
      </trkpt>
      <trkpt lat="45.3097" lon="6.18349">
        <ele>2243.5</ele>
        <time>2022-01-27T10:46:24Z</time>
      </trkpt>
      <trkpt lat="45.3097" lon="6.18348">
        <ele>2243.5</ele>
        <time>2022-01-27T10:46:27Z</time>
      </trkpt>
      <trkpt lat="45.3097" lon="6.18347">
        <ele>2243.5</ele>
        <time>2022-01-27T10:46:28Z</time>
      </trkpt>
      <trkpt lat="45.30971" lon="6.18346">
        <ele>2243.5</ele>
        <time>2022-01-27T10:46:30Z</time>
      </trkpt>
      <trkpt lat="45.30971" lon="6.18345">
        <ele>2241.9</ele>
        <time>2022-01-27T10:46:31Z</time>
      </trkpt>
      <trkpt lat="45.30972" lon="6.18345">
        <ele>2241.9</ele>
        <time>2022-01-27T10:46:32Z</time>
      </trkpt>
      <trkpt lat="45.30972" lon="6.18344">
        <ele>2241.9</ele>
        <time>2022-01-27T10:46:33Z</time>
      </trkpt>
      <trkpt lat="45.30972" lon="6.18342">
        <ele>2241.9</ele>
        <time>2022-01-27T10:46:35Z</time>
      </trkpt>
      <trkpt lat="45.30973" lon="6.18341">
        <ele>2240.9</ele>
        <time>2022-01-27T10:46:36Z</time>
      </trkpt>
      <trkpt lat="45.30973" lon="6.1834">
        <ele>2240.9</ele>
        <time>2022-01-27T10:46:38Z</time>
      </trkpt>
      <trkpt lat="45.30973" lon="6.18339">
        <ele>2240.9</ele>
        <time>2022-01-27T10:46:39Z</time>
      </trkpt>
      <trkpt lat="45.30973" lon="6.18338">
        <ele>2240.9</ele>
        <time>2022-01-27T10:46:40Z</time>
      </trkpt>
      <trkpt lat="45.30973" lon="6.18337">
        <ele>2240.9</ele>
        <time>2022-01-27T10:46:41Z</time>
      </trkpt>
      <trkpt lat="45.30974" lon="6.18336">
        <ele>2239.3</ele>
        <time>2022-01-27T10:46:42Z</time>
      </trkpt>
      <trkpt lat="45.30974" lon="6.18335">
        <ele>2239.3</ele>
        <time>2022-01-27T10:46:44Z</time>
      </trkpt>
      <trkpt lat="45.30975" lon="6.18334">
        <ele>2239.3</ele>
        <time>2022-01-27T10:46:46Z</time>
      </trkpt>
      <trkpt lat="45.30985" lon="6.18324">
        <ele>2237.6</ele>
        <time>2022-01-27T10:47:34Z</time>
      </trkpt>
      <trkpt lat="45.30986" lon="6.18323">
        <ele>2236.3</ele>
        <time>2022-01-27T10:47:36Z</time>
      </trkpt>
      <trkpt lat="45.30986" lon="6.18322">
        <ele>2236.3</ele>
        <time>2022-01-27T10:47:37Z</time>
      </trkpt>
      <trkpt lat="45.30987" lon="6.18322">
        <ele>2236.3</ele>
        <time>2022-01-27T10:47:38Z</time>
      </trkpt>
      <trkpt lat="45.30987" lon="6.18321">
        <ele>2236.3</ele>
        <time>2022-01-27T10:47:39Z</time>
      </trkpt>
      <trkpt lat="45.30988" lon="6.1832">
        <ele>2236.3</ele>
        <time>2022-01-27T10:47:40Z</time>
      </trkpt>
      <trkpt lat="45.30989" lon="6.18319">
        <ele>2234.9</ele>
        <time>2022-01-27T10:47:42Z</time>
      </trkpt>
      <trkpt lat="45.30989" lon="6.18318">
        <ele>2234.9</ele>
        <time>2022-01-27T10:47:43Z</time>
      </trkpt>
      <trkpt lat="45.3099" lon="6.18318">
        <ele>2234.9</ele>
        <time>2022-01-27T10:47:44Z</time>
      </trkpt>
      <trkpt lat="45.3099" lon="6.18317">
        <ele>2234.9</ele>
        <time>2022-01-27T10:47:46Z</time>
      </trkpt>
      <trkpt lat="45.30991" lon="6.18317">
        <ele>2234.9</ele>
        <time>2022-01-27T10:47:47Z</time>
      </trkpt>
      <trkpt lat="45.30991" lon="6.18316">
        <ele>2235.4</ele>
        <time>2022-01-27T10:47:48Z</time>
      </trkpt>
      <trkpt lat="45.30992" lon="6.18316">
        <ele>2235.4</ele>
        <time>2022-01-27T10:47:49Z</time>
      </trkpt>
      <trkpt lat="45.30992" lon="6.18315">
        <ele>2233.4</ele>
        <time>2022-01-27T10:47:51Z</time>
      </trkpt>
      <trkpt lat="45.30993" lon="6.18315">
        <ele>2233.4</ele>
        <time>2022-01-27T10:47:52Z</time>
      </trkpt>
      <trkpt lat="45.31005" lon="6.18306">
        <ele>2232.2</ele>
        <time>2022-01-27T10:48:46Z</time>
      </trkpt>
      <trkpt lat="45.31006" lon="6.18305">
        <ele>2233.2</ele>
        <time>2022-01-27T10:48:48Z</time>
      </trkpt>
      <trkpt lat="45.31007" lon="6.18305">
        <ele>2233.2</ele>
        <time>2022-01-27T10:48:49Z</time>
      </trkpt>
      <trkpt lat="45.31009" lon="6.18303">
        <ele>2234.1</ele>
        <time>2022-01-27T10:48:50Z</time>
      </trkpt>
      <trkpt lat="45.3101" lon="6.18303">
        <ele>2232.2</ele>
        <time>2022-01-27T10:48:51Z</time>
      </trkpt>
      <trkpt lat="45.31011" lon="6.18302">
        <ele>2232.2</ele>
        <time>2022-01-27T10:48:52Z</time>
      </trkpt>
      <trkpt lat="45.31012" lon="6.18301">
        <ele>2233.3</ele>
        <time>2022-01-27T10:48:53Z</time>
      </trkpt>
      <trkpt lat="45.31013" lon="6.183">
        <ele>2233.3</ele>
        <time>2022-01-27T10:48:54Z</time>
      </trkpt>
      <trkpt lat="45.31014" lon="6.183">
        <ele>2233.3</ele>
        <time>2022-01-27T10:48:55Z</time>
      </trkpt>
      <trkpt lat="45.31015" lon="6.18298">
        <ele>2232.8</ele>
        <time>2022-01-27T10:48:56Z</time>
      </trkpt>
      <trkpt lat="45.31016" lon="6.18298">
        <ele>2232.8</ele>
        <time>2022-01-27T10:48:57Z</time>
      </trkpt>
      <trkpt lat="45.31017" lon="6.18297">
        <ele>2232.8</ele>
        <time>2022-01-27T10:48:58Z</time>
      </trkpt>
      <trkpt lat="45.31019" lon="6.18297">
        <ele>2234.2</ele>
        <time>2022-01-27T10:48:59Z</time>
      </trkpt>
      <trkpt lat="45.3102" lon="6.18297">
        <ele>2234.2</ele>
        <time>2022-01-27T10:49:00Z</time>
      </trkpt>
      <trkpt lat="45.31022" lon="6.18296">
        <ele>2235.9</ele>
        <time>2022-01-27T10:49:01Z</time>
      </trkpt>
      <trkpt lat="45.31023" lon="6.18296">
        <ele>2235.9</ele>
        <time>2022-01-27T10:49:02Z</time>
      </trkpt>
      <trkpt lat="45.31026" lon="6.18296">
        <ele>2237.8</ele>
        <time>2022-01-27T10:49:04Z</time>
      </trkpt>
      <trkpt lat="45.31027" lon="6.18296">
        <ele>2239.9</ele>
        <time>2022-01-27T10:49:06Z</time>
      </trkpt>
      <trkpt lat="45.31028" lon="6.18296">
        <ele>2239.9</ele>
        <time>2022-01-27T10:49:07Z</time>
      </trkpt>
      <trkpt lat="45.3103" lon="6.18296">
        <ele>2239.9</ele>
        <time>2022-01-27T10:49:08Z</time>
      </trkpt>
      <trkpt lat="45.31031" lon="6.18296">
        <ele>2242</ele>
        <time>2022-01-27T10:49:09Z</time>
      </trkpt>
      <trkpt lat="45.31033" lon="6.18295">
        <ele>2242</ele>
        <time>2022-01-27T10:49:10Z</time>
      </trkpt>
      <trkpt lat="45.31034" lon="6.18295">
        <ele>2244.1</ele>
        <time>2022-01-27T10:49:11Z</time>
      </trkpt>
      <trkpt lat="45.31035" lon="6.18295">
        <ele>2244.1</ele>
        <time>2022-01-27T10:49:12Z</time>
      </trkpt>
      <trkpt lat="45.31036" lon="6.18295">
        <ele>2244.1</ele>
        <time>2022-01-27T10:49:14Z</time>
      </trkpt>
      <trkpt lat="45.31037" lon="6.18295">
        <ele>2245.9</ele>
        <time>2022-01-27T10:49:15Z</time>
      </trkpt>
      <trkpt lat="45.31038" lon="6.18295">
        <ele>2245.9</ele>
        <time>2022-01-27T10:49:17Z</time>
      </trkpt>
      <trkpt lat="45.31039" lon="6.18295">
        <ele>2245.9</ele>
        <time>2022-01-27T10:49:18Z</time>
      </trkpt>
      <trkpt lat="45.3104" lon="6.18295">
        <ele>2247.7</ele>
        <time>2022-01-27T10:49:20Z</time>
      </trkpt>
      <trkpt lat="45.3104" lon="6.18296">
        <ele>2247.7</ele>
        <time>2022-01-27T10:49:23Z</time>
      </trkpt>
      <trkpt lat="45.31041" lon="6.18296">
        <ele>2247.7</ele>
        <time>2022-01-27T10:49:24Z</time>
      </trkpt>
      <trkpt lat="45.3104" lon="6.18297">
        <ele>2247.7</ele>
        <time>2022-01-27T10:49:26Z</time>
      </trkpt>
      <trkpt lat="45.3104" lon="6.18298">
        <ele>2247.7</ele>
        <time>2022-01-27T10:49:30Z</time>
      </trkpt>
      <trkpt lat="45.31039" lon="6.18299">
        <ele>2248.8</ele>
        <time>2022-01-27T10:49:31Z</time>
      </trkpt>
      <trkpt lat="45.31039" lon="6.183">
        <ele>2247</ele>
        <time>2022-01-27T10:49:32Z</time>
      </trkpt>
      <trkpt lat="45.31038" lon="6.183">
        <ele>2247</ele>
        <time>2022-01-27T10:49:33Z</time>
      </trkpt>
      <trkpt lat="45.31037" lon="6.183">
        <ele>2247</ele>
        <time>2022-01-27T10:49:36Z</time>
      </trkpt>
      <trkpt lat="45.31037" lon="6.18299">
        <ele>2247</ele>
        <time>2022-01-27T10:49:39Z</time>
      </trkpt>
      <trkpt lat="45.31036" lon="6.18301">
        <ele>2245.2</ele>
        <time>2022-01-27T10:49:48Z</time>
      </trkpt>
      <trkpt lat="45.31035" lon="6.18301">
        <ele>2245.2</ele>
        <time>2022-01-27T10:49:49Z</time>
      </trkpt>
      <trkpt lat="45.31035" lon="6.18302">
        <ele>2245.2</ele>
        <time>2022-01-27T10:49:50Z</time>
      </trkpt>
      <trkpt lat="45.31034" lon="6.18303">
        <ele>2245.2</ele>
        <time>2022-01-27T10:49:51Z</time>
      </trkpt>
      <trkpt lat="45.31033" lon="6.18304">
        <ele>2246.3</ele>
        <time>2022-01-27T10:49:53Z</time>
      </trkpt>
      <trkpt lat="45.31032" lon="6.18305">
        <ele>2244.5</ele>
        <time>2022-01-27T10:49:55Z</time>
      </trkpt>
      <trkpt lat="45.31032" lon="6.18306">
        <ele>2244.5</ele>
        <time>2022-01-27T10:49:56Z</time>
      </trkpt>
      <trkpt lat="45.31031" lon="6.18306">
        <ele>2244.5</ele>
        <time>2022-01-27T10:49:57Z</time>
      </trkpt>
      <trkpt lat="45.31031" lon="6.18307">
        <ele>2244.5</ele>
        <time>2022-01-27T10:49:58Z</time>
      </trkpt>
      <trkpt lat="45.3103" lon="6.18308">
        <ele>2245.7</ele>
        <time>2022-01-27T10:49:59Z</time>
      </trkpt>
      <trkpt lat="45.31029" lon="6.18309">
        <ele>2244</ele>
        <time>2022-01-27T10:50:01Z</time>
      </trkpt>
      <trkpt lat="45.31029" lon="6.1831">
        <ele>2244</ele>
        <time>2022-01-27T10:50:02Z</time>
      </trkpt>
      <trkpt lat="45.31028" lon="6.1831">
        <ele>2244</ele>
        <time>2022-01-27T10:50:03Z</time>
      </trkpt>
      <trkpt lat="45.31028" lon="6.18311">
        <ele>2244</ele>
        <time>2022-01-27T10:50:04Z</time>
      </trkpt>
      <trkpt lat="45.31027" lon="6.18312">
        <ele>2245.4</ele>
        <time>2022-01-27T10:50:05Z</time>
      </trkpt>
      <trkpt lat="45.31027" lon="6.18313">
        <ele>2243.8</ele>
        <time>2022-01-27T10:50:06Z</time>
      </trkpt>
      <trkpt lat="45.31026" lon="6.18313">
        <ele>2243.8</ele>
        <time>2022-01-27T10:50:09Z</time>
      </trkpt>
      <trkpt lat="45.31027" lon="6.18314">
        <ele>2243.8</ele>
        <time>2022-01-27T10:50:10Z</time>
      </trkpt>
      <trkpt lat="45.31026" lon="6.18314">
        <ele>2243.8</ele>
        <time>2022-01-27T10:50:13Z</time>
      </trkpt>
      <trkpt lat="45.31026" lon="6.18315">
        <ele>2243.8</ele>
        <time>2022-01-27T10:50:14Z</time>
      </trkpt>
      <trkpt lat="45.31026" lon="6.18319">
        <ele>2245.3</ele>
        <time>2022-01-27T10:50:28Z</time>
      </trkpt>
      <trkpt lat="45.31027" lon="6.18319">
        <ele>2246.8</ele>
        <time>2022-01-27T10:50:29Z</time>
      </trkpt>
      <trkpt lat="45.31029" lon="6.18319">
        <ele>2246.8</ele>
        <time>2022-01-27T10:50:30Z</time>
      </trkpt>
      <trkpt lat="45.3103" lon="6.18319">
        <ele>2246.8</ele>
        <time>2022-01-27T10:50:32Z</time>
      </trkpt>
      <trkpt lat="45.3103" lon="6.18318">
        <ele>2248.2</ele>
        <time>2022-01-27T10:50:33Z</time>
      </trkpt>
      <trkpt lat="45.31029" lon="6.18318">
        <ele>2246.8</ele>
        <time>2022-01-27T10:50:34Z</time>
      </trkpt>
      <trkpt lat="45.31028" lon="6.18318">
        <ele>2246.8</ele>
        <time>2022-01-27T10:50:35Z</time>
      </trkpt>
      <trkpt lat="45.31027" lon="6.18318">
        <ele>2245.3</ele>
        <time>2022-01-27T10:50:37Z</time>
      </trkpt>
      <trkpt lat="45.31026" lon="6.18318">
        <ele>2245.3</ele>
        <time>2022-01-27T10:50:39Z</time>
      </trkpt>
      <trkpt lat="45.31033" lon="6.18319">
        <ele>2248.2</ele>
        <time>2022-01-27T10:51:27Z</time>
      </trkpt>
      <trkpt lat="45.31032" lon="6.1832">
        <ele>2248.2</ele>
        <time>2022-01-27T10:51:28Z</time>
      </trkpt>
      <trkpt lat="45.31032" lon="6.18321">
        <ele>2249.5</ele>
        <time>2022-01-27T10:51:29Z</time>
      </trkpt>
      <trkpt lat="45.31033" lon="6.18322">
        <ele>2250.8</ele>
        <time>2022-01-27T10:51:31Z</time>
      </trkpt>
      <trkpt lat="45.31034" lon="6.18322">
        <ele>2250.8</ele>
        <time>2022-01-27T10:51:33Z</time>
      </trkpt>
      <trkpt lat="45.31035" lon="6.18322">
        <ele>2250.8</ele>
        <time>2022-01-27T10:51:34Z</time>
      </trkpt>
      <trkpt lat="45.31035" lon="6.18321">
        <ele>2250.8</ele>
        <time>2022-01-27T10:51:35Z</time>
      </trkpt>
      <trkpt lat="45.31036" lon="6.18321">
        <ele>2250.8</ele>
        <time>2022-01-27T10:51:37Z</time>
      </trkpt>
      <trkpt lat="45.31037" lon="6.18321">
        <ele>2252</ele>
        <time>2022-01-27T10:51:40Z</time>
      </trkpt>
      <trkpt lat="45.31041" lon="6.18318">
        <ele>2252.2</ele>
        <time>2022-01-27T10:51:49Z</time>
      </trkpt>
      <trkpt lat="45.31042" lon="6.18317">
        <ele>2253.5</ele>
        <time>2022-01-27T10:51:50Z</time>
      </trkpt>
      <trkpt lat="45.31043" lon="6.18317">
        <ele>2253.5</ele>
        <time>2022-01-27T10:51:51Z</time>
      </trkpt>
      <trkpt lat="45.31044" lon="6.18316">
        <ele>2253.5</ele>
        <time>2022-01-27T10:51:52Z</time>
      </trkpt>
      <trkpt lat="45.31045" lon="6.18316">
        <ele>2253.5</ele>
        <time>2022-01-27T10:51:53Z</time>
      </trkpt>
      <trkpt lat="45.31046" lon="6.18316">
        <ele>2254.9</ele>
        <time>2022-01-27T10:51:54Z</time>
      </trkpt>
      <trkpt lat="45.31047" lon="6.18317">
        <ele>2254.9</ele>
        <time>2022-01-27T10:51:57Z</time>
      </trkpt>
      <trkpt lat="45.31047" lon="6.18318">
        <ele>2254.9</ele>
        <time>2022-01-27T10:51:59Z</time>
      </trkpt>
      <trkpt lat="45.31047" lon="6.18319">
        <ele>2254.9</ele>
        <time>2022-01-27T10:52:01Z</time>
      </trkpt>
      <trkpt lat="45.31042" lon="6.1833">
        <ele>2255.8</ele>
        <time>2022-01-27T10:52:37Z</time>
      </trkpt>
      <trkpt lat="45.31041" lon="6.1833">
        <ele>2255.8</ele>
        <time>2022-01-27T10:52:39Z</time>
      </trkpt>
      <trkpt lat="45.31041" lon="6.18331">
        <ele>2255.8</ele>
        <time>2022-01-27T10:52:40Z</time>
      </trkpt>
      <trkpt lat="45.31042" lon="6.18331">
        <ele>2255.8</ele>
        <time>2022-01-27T10:52:43Z</time>
      </trkpt>
      <trkpt lat="45.31043" lon="6.18331">
        <ele>2257</ele>
        <time>2022-01-27T10:52:46Z</time>
      </trkpt>
      <trkpt lat="45.31044" lon="6.18332">
        <ele>2257</ele>
        <time>2022-01-27T10:52:49Z</time>
      </trkpt>
      <trkpt lat="45.31045" lon="6.18332">
        <ele>2257</ele>
        <time>2022-01-27T10:52:52Z</time>
      </trkpt>
      <trkpt lat="45.31047" lon="6.18331">
        <ele>2258.4</ele>
        <time>2022-01-27T10:52:56Z</time>
      </trkpt>
      <trkpt lat="45.31047" lon="6.1833">
        <ele>2258.4</ele>
        <time>2022-01-27T10:52:57Z</time>
      </trkpt>
      <trkpt lat="45.31048" lon="6.1833">
        <ele>2258.4</ele>
        <time>2022-01-27T10:52:58Z</time>
      </trkpt>
      <trkpt lat="45.31049" lon="6.18329">
        <ele>2259.8</ele>
        <time>2022-01-27T10:53:00Z</time>
      </trkpt>
      <trkpt lat="45.3105" lon="6.18329">
        <ele>2259.8</ele>
        <time>2022-01-27T10:53:02Z</time>
      </trkpt>
      <trkpt lat="45.31051" lon="6.18328">
        <ele>2258.5</ele>
        <time>2022-01-27T10:53:03Z</time>
      </trkpt>
      <trkpt lat="45.31052" lon="6.18328">
        <ele>2260.1</ele>
        <time>2022-01-27T10:53:05Z</time>
      </trkpt>
      <trkpt lat="45.31052" lon="6.18327">
        <ele>2260.1</ele>
        <time>2022-01-27T10:53:08Z</time>
      </trkpt>
      <trkpt lat="45.31053" lon="6.18327">
        <ele>2260.1</ele>
        <time>2022-01-27T10:53:10Z</time>
      </trkpt>
      <trkpt lat="45.31053" lon="6.18328">
        <ele>2260.1</ele>
        <time>2022-01-27T10:53:14Z</time>
      </trkpt>
      <trkpt lat="45.31054" lon="6.18328">
        <ele>2260.1</ele>
        <time>2022-01-27T10:53:15Z</time>
      </trkpt>
      <trkpt lat="45.31054" lon="6.18327">
        <ele>2261.7</ele>
        <time>2022-01-27T10:53:17Z</time>
      </trkpt>
      <trkpt lat="45.31055" lon="6.18327">
        <ele>2261.7</ele>
        <time>2022-01-27T10:53:18Z</time>
      </trkpt>
      <trkpt lat="45.31056" lon="6.18327">
        <ele>2261.7</ele>
        <time>2022-01-27T10:53:23Z</time>
      </trkpt>
      <trkpt lat="45.31057" lon="6.18327">
        <ele>2261.7</ele>
        <time>2022-01-27T10:53:25Z</time>
      </trkpt>
      <trkpt lat="45.31058" lon="6.18328">
        <ele>2263.3</ele>
        <time>2022-01-27T10:53:26Z</time>
      </trkpt>
      <trkpt lat="45.31058" lon="6.18327">
        <ele>2263.3</ele>
        <time>2022-01-27T10:53:34Z</time>
      </trkpt>
      <trkpt lat="45.31059" lon="6.18327">
        <ele>2263.3</ele>
        <time>2022-01-27T10:53:48Z</time>
      </trkpt>
      <trkpt lat="45.31059" lon="6.18326">
        <ele>2263.3</ele>
        <time>2022-01-27T10:53:50Z</time>
      </trkpt>
      <trkpt lat="45.3106" lon="6.18326">
        <ele>2263.3</ele>
        <time>2022-01-27T10:53:53Z</time>
      </trkpt>
      <trkpt lat="45.31059" lon="6.18327">
        <ele>2263.3</ele>
        <time>2022-01-27T10:53:54Z</time>
      </trkpt>
      <trkpt lat="45.31059" lon="6.18328">
        <ele>2263.3</ele>
        <time>2022-01-27T10:53:58Z</time>
      </trkpt>
      <trkpt lat="45.31059" lon="6.18329">
        <ele>2263.3</ele>
        <time>2022-01-27T10:54:02Z</time>
      </trkpt>
      <trkpt lat="45.31057" lon="6.18331">
        <ele>2264.6</ele>
        <time>2022-01-27T10:54:12Z</time>
      </trkpt>
      <trkpt lat="45.31057" lon="6.18332">
        <ele>2263</ele>
        <time>2022-01-27T10:54:13Z</time>
      </trkpt>
      <trkpt lat="45.31056" lon="6.18333">
        <ele>2263</ele>
        <time>2022-01-27T10:54:14Z</time>
      </trkpt>
      <trkpt lat="45.31055" lon="6.18333">
        <ele>2264.4</ele>
        <time>2022-01-27T10:54:15Z</time>
      </trkpt>
      <trkpt lat="45.31055" lon="6.18334">
        <ele>2264.4</ele>
        <time>2022-01-27T10:54:16Z</time>
      </trkpt>
      <trkpt lat="45.31054" lon="6.18336">
        <ele>2262.8</ele>
        <time>2022-01-27T10:54:17Z</time>
      </trkpt>
      <trkpt lat="45.31053" lon="6.18337">
        <ele>2262.8</ele>
        <time>2022-01-27T10:54:18Z</time>
      </trkpt>
      <trkpt lat="45.31053" lon="6.18338">
        <ele>2264.4</ele>
        <time>2022-01-27T10:54:19Z</time>
      </trkpt>
      <trkpt lat="45.31052" lon="6.18339">
        <ele>2264.4</ele>
        <time>2022-01-27T10:54:20Z</time>
      </trkpt>
      <trkpt lat="45.31052" lon="6.1834">
        <ele>2264.4</ele>
        <time>2022-01-27T10:54:21Z</time>
      </trkpt>
      <trkpt lat="45.31051" lon="6.18342">
        <ele>2264.6</ele>
        <time>2022-01-27T10:54:23Z</time>
      </trkpt>
      <trkpt lat="45.3105" lon="6.18344">
        <ele>2264.6</ele>
        <time>2022-01-27T10:54:24Z</time>
      </trkpt>
      <trkpt lat="45.31049" lon="6.18346">
        <ele>2264.6</ele>
        <time>2022-01-27T10:54:25Z</time>
      </trkpt>
      <trkpt lat="45.31049" lon="6.18347">
        <ele>2266.4</ele>
        <time>2022-01-27T10:54:26Z</time>
      </trkpt>
      <trkpt lat="45.31048" lon="6.18349">
        <ele>2265</ele>
        <time>2022-01-27T10:54:28Z</time>
      </trkpt>
      <trkpt lat="45.31048" lon="6.1835">
        <ele>2266.7</ele>
        <time>2022-01-27T10:54:29Z</time>
      </trkpt>
      <trkpt lat="45.31047" lon="6.18351">
        <ele>2266.7</ele>
        <time>2022-01-27T10:54:30Z</time>
      </trkpt>
      <trkpt lat="45.31047" lon="6.18352">
        <ele>2266.7</ele>
        <time>2022-01-27T10:54:31Z</time>
      </trkpt>
      <trkpt lat="45.31047" lon="6.18353">
        <ele>2266.7</ele>
        <time>2022-01-27T10:54:33Z</time>
      </trkpt>
      <trkpt lat="45.31046" lon="6.18354">
        <ele>2266.7</ele>
        <time>2022-01-27T10:54:38Z</time>
      </trkpt>
      <trkpt lat="45.31046" lon="6.18355">
        <ele>2268.3</ele>
        <time>2022-01-27T10:54:43Z</time>
      </trkpt>
      <trkpt lat="45.31045" lon="6.18355">
        <ele>2268.3</ele>
        <time>2022-01-27T10:54:46Z</time>
      </trkpt>
      <trkpt lat="45.31045" lon="6.18356">
        <ele>2267.1</ele>
        <time>2022-01-27T10:54:48Z</time>
      </trkpt>
      <trkpt lat="45.31044" lon="6.18357">
        <ele>2267.1</ele>
        <time>2022-01-27T10:54:49Z</time>
      </trkpt>
      <trkpt lat="45.31045" lon="6.18357">
        <ele>2267.1</ele>
        <time>2022-01-27T10:54:53Z</time>
      </trkpt>
      <trkpt lat="45.31045" lon="6.18358">
        <ele>2268.3</ele>
        <time>2022-01-27T10:54:59Z</time>
      </trkpt>
      <trkpt lat="45.31044" lon="6.18368">
        <ele>2271.7</ele>
        <time>2022-01-27T10:56:00Z</time>
      </trkpt>
      <trkpt lat="45.31045" lon="6.18369">
        <ele>2271.7</ele>
        <time>2022-01-27T10:56:01Z</time>
      </trkpt>
      <trkpt lat="45.31045" lon="6.18371">
        <ele>2271.7</ele>
        <time>2022-01-27T10:56:02Z</time>
      </trkpt>
      <trkpt lat="45.31045" lon="6.18372">
        <ele>2274.2</ele>
        <time>2022-01-27T10:56:03Z</time>
      </trkpt>
      <trkpt lat="45.31046" lon="6.18373">
        <ele>2274.2</ele>
        <time>2022-01-27T10:56:04Z</time>
      </trkpt>
      <trkpt lat="45.31046" lon="6.18375">
        <ele>2274.2</ele>
        <time>2022-01-27T10:56:05Z</time>
      </trkpt>
      <trkpt lat="45.31046" lon="6.18376">
        <ele>2275.6</ele>
        <time>2022-01-27T10:56:06Z</time>
      </trkpt>
      <trkpt lat="45.31047" lon="6.18378">
        <ele>2275.6</ele>
        <time>2022-01-27T10:56:07Z</time>
      </trkpt>
      <trkpt lat="45.31048" lon="6.18379">
        <ele>2275.6</ele>
        <time>2022-01-27T10:56:08Z</time>
      </trkpt>
      <trkpt lat="45.31049" lon="6.1838">
        <ele>2278.1</ele>
        <time>2022-01-27T10:56:10Z</time>
      </trkpt>
      <trkpt lat="45.3105" lon="6.18383">
        <ele>2278.1</ele>
        <time>2022-01-27T10:56:12Z</time>
      </trkpt>
      <trkpt lat="45.31051" lon="6.18383">
        <ele>2278.1</ele>
        <time>2022-01-27T10:56:13Z</time>
      </trkpt>
      <trkpt lat="45.31051" lon="6.18384">
        <ele>2280.7</ele>
        <time>2022-01-27T10:56:14Z</time>
      </trkpt>
      <trkpt lat="45.31052" lon="6.18386">
        <ele>2280.7</ele>
        <time>2022-01-27T10:56:15Z</time>
      </trkpt>
      <trkpt lat="45.31053" lon="6.18387">
        <ele>2280.7</ele>
        <time>2022-01-27T10:56:16Z</time>
      </trkpt>
      <trkpt lat="45.31053" lon="6.18388">
        <ele>2280.7</ele>
        <time>2022-01-27T10:56:17Z</time>
      </trkpt>
      <trkpt lat="45.31054" lon="6.18389">
        <ele>2280.7</ele>
        <time>2022-01-27T10:56:18Z</time>
      </trkpt>
      <trkpt lat="45.31055" lon="6.1839">
        <ele>2283.3</ele>
        <time>2022-01-27T10:56:20Z</time>
      </trkpt>
      <trkpt lat="45.31056" lon="6.18391">
        <ele>2283.3</ele>
        <time>2022-01-27T10:56:21Z</time>
      </trkpt>
      <trkpt lat="45.31056" lon="6.18392">
        <ele>2283.3</ele>
        <time>2022-01-27T10:56:22Z</time>
      </trkpt>
      <trkpt lat="45.31057" lon="6.18392">
        <ele>2283.3</ele>
        <time>2022-01-27T10:56:23Z</time>
      </trkpt>
      <trkpt lat="45.31057" lon="6.18393">
        <ele>2285.9</ele>
        <time>2022-01-27T10:56:24Z</time>
      </trkpt>
      <trkpt lat="45.31058" lon="6.18393">
        <ele>2285.9</ele>
        <time>2022-01-27T10:56:25Z</time>
      </trkpt>
      <trkpt lat="45.31058" lon="6.18394">
        <ele>2285.9</ele>
        <time>2022-01-27T10:56:26Z</time>
      </trkpt>
      <trkpt lat="45.31059" lon="6.18395">
        <ele>2285.9</ele>
        <time>2022-01-27T10:56:27Z</time>
      </trkpt>
      <trkpt lat="45.3106" lon="6.18396">
        <ele>2285.9</ele>
        <time>2022-01-27T10:56:28Z</time>
      </trkpt>
      <trkpt lat="45.31061" lon="6.18397">
        <ele>2287.1</ele>
        <time>2022-01-27T10:56:30Z</time>
      </trkpt>
      <trkpt lat="45.31061" lon="6.18398">
        <ele>2288.4</ele>
        <time>2022-01-27T10:56:31Z</time>
      </trkpt>
      <trkpt lat="45.31062" lon="6.18398">
        <ele>2288.4</ele>
        <time>2022-01-27T10:56:34Z</time>
      </trkpt>
      <trkpt lat="45.31062" lon="6.18399">
        <ele>2288.4</ele>
        <time>2022-01-27T10:56:35Z</time>
      </trkpt>
      <trkpt lat="45.31063" lon="6.184">
        <ele>2288.4</ele>
        <time>2022-01-27T10:56:38Z</time>
      </trkpt>
      <trkpt lat="45.31065" lon="6.18402">
        <ele>2289.5</ele>
        <time>2022-01-27T10:56:43Z</time>
      </trkpt>
      <trkpt lat="45.31066" lon="6.18403">
        <ele>2290.8</ele>
        <time>2022-01-27T10:56:45Z</time>
      </trkpt>
      <trkpt lat="45.31066" lon="6.18404">
        <ele>2291.9</ele>
        <time>2022-01-27T10:56:46Z</time>
      </trkpt>
      <trkpt lat="45.31067" lon="6.18405">
        <ele>2291.9</ele>
        <time>2022-01-27T10:56:47Z</time>
      </trkpt>
      <trkpt lat="45.31068" lon="6.18405">
        <ele>2291.9</ele>
        <time>2022-01-27T10:56:49Z</time>
      </trkpt>
      <trkpt lat="45.31069" lon="6.18405">
        <ele>2291.9</ele>
        <time>2022-01-27T10:56:52Z</time>
      </trkpt>
      <trkpt lat="45.31069" lon="6.18404">
        <ele>2291.9</ele>
        <time>2022-01-27T10:56:53Z</time>
      </trkpt>
      <trkpt lat="45.3107" lon="6.18404">
        <ele>2293.1</ele>
        <time>2022-01-27T10:56:54Z</time>
      </trkpt>
      <trkpt lat="45.31071" lon="6.18404">
        <ele>2293.1</ele>
        <time>2022-01-27T10:56:56Z</time>
      </trkpt>
      <trkpt lat="45.31071" lon="6.18405">
        <ele>2293.1</ele>
        <time>2022-01-27T10:56:57Z</time>
      </trkpt>
      <trkpt lat="45.31072" lon="6.18405">
        <ele>2293.1</ele>
        <time>2022-01-27T10:56:58Z</time>
      </trkpt>
      <trkpt lat="45.31072" lon="6.18406">
        <ele>2293.1</ele>
        <time>2022-01-27T10:57:00Z</time>
      </trkpt>
      <trkpt lat="45.31072" lon="6.18407">
        <ele>2295.5</ele>
        <time>2022-01-27T10:57:02Z</time>
      </trkpt>
      <trkpt lat="45.31073" lon="6.18408">
        <ele>2295.5</ele>
        <time>2022-01-27T10:57:03Z</time>
      </trkpt>
      <trkpt lat="45.31073" lon="6.18409">
        <ele>2295.5</ele>
        <time>2022-01-27T10:57:06Z</time>
      </trkpt>
      <trkpt lat="45.31071" lon="6.1841">
        <ele>2294.3</ele>
        <time>2022-01-27T10:57:48Z</time>
      </trkpt>
      <trkpt lat="45.3107" lon="6.18412">
        <ele>2295.4</ele>
        <time>2022-01-27T10:57:49Z</time>
      </trkpt>
      <trkpt lat="45.3107" lon="6.18413">
        <ele>2295.4</ele>
        <time>2022-01-27T10:57:50Z</time>
      </trkpt>
      <trkpt lat="45.3107" lon="6.18415">
        <ele>2296.5</ele>
        <time>2022-01-27T10:57:51Z</time>
      </trkpt>
      <trkpt lat="45.3107" lon="6.18417">
        <ele>2296.5</ele>
        <time>2022-01-27T10:57:52Z</time>
      </trkpt>
      <trkpt lat="45.31071" lon="6.18418">
        <ele>2296.5</ele>
        <time>2022-01-27T10:57:53Z</time>
      </trkpt>
      <trkpt lat="45.31071" lon="6.18419">
        <ele>2297.7</ele>
        <time>2022-01-27T10:57:54Z</time>
      </trkpt>
      <trkpt lat="45.31072" lon="6.1842">
        <ele>2297.7</ele>
        <time>2022-01-27T10:57:55Z</time>
      </trkpt>
      <trkpt lat="45.31073" lon="6.18421">
        <ele>2298.8</ele>
        <time>2022-01-27T10:57:57Z</time>
      </trkpt>
      <trkpt lat="45.31073" lon="6.18422">
        <ele>2298.8</ele>
        <time>2022-01-27T10:57:59Z</time>
      </trkpt>
      <trkpt lat="45.31074" lon="6.18423">
        <ele>2299.8</ele>
        <time>2022-01-27T10:58:00Z</time>
      </trkpt>
      <trkpt lat="45.31074" lon="6.18425">
        <ele>2299.8</ele>
        <time>2022-01-27T10:58:01Z</time>
      </trkpt>
      <trkpt lat="45.31075" lon="6.18426">
        <ele>2299.8</ele>
        <time>2022-01-27T10:58:03Z</time>
      </trkpt>
      <trkpt lat="45.31075" lon="6.18427">
        <ele>2301</ele>
        <time>2022-01-27T10:58:04Z</time>
      </trkpt>
      <trkpt lat="45.31077" lon="6.18429">
        <ele>2302</ele>
        <time>2022-01-27T10:58:05Z</time>
      </trkpt>
      <trkpt lat="45.31077" lon="6.1843">
        <ele>2302</ele>
        <time>2022-01-27T10:58:07Z</time>
      </trkpt>
      <trkpt lat="45.31077" lon="6.18431">
        <ele>2302</ele>
        <time>2022-01-27T10:58:08Z</time>
      </trkpt>
      <trkpt lat="45.31078" lon="6.18432">
        <ele>2302</ele>
        <time>2022-01-27T10:58:09Z</time>
      </trkpt>
      <trkpt lat="45.31079" lon="6.18434">
        <ele>2304.3</ele>
        <time>2022-01-27T10:58:11Z</time>
      </trkpt>
      <trkpt lat="45.31083" lon="6.18438">
        <ele>2306.7</ele>
        <time>2022-01-27T10:58:27Z</time>
      </trkpt>
      <trkpt lat="45.31083" lon="6.18437">
        <ele>2306.7</ele>
        <time>2022-01-27T10:58:30Z</time>
      </trkpt>
      <trkpt lat="45.31084" lon="6.18437">
        <ele>2306.7</ele>
        <time>2022-01-27T10:58:39Z</time>
      </trkpt>
      <trkpt lat="45.31085" lon="6.18437">
        <ele>2308</ele>
        <time>2022-01-27T10:58:47Z</time>
      </trkpt>
      <trkpt lat="45.31085" lon="6.18438">
        <ele>2308</ele>
        <time>2022-01-27T10:58:49Z</time>
      </trkpt>
      <trkpt lat="45.31085" lon="6.18439">
        <ele>2308</ele>
        <time>2022-01-27T10:58:50Z</time>
      </trkpt>
      <trkpt lat="45.31085" lon="6.1844">
        <ele>2308</ele>
        <time>2022-01-27T10:58:51Z</time>
      </trkpt>
      <trkpt lat="45.31086" lon="6.1844">
        <ele>2308</ele>
        <time>2022-01-27T10:58:58Z</time>
      </trkpt>
      <trkpt lat="45.31086" lon="6.18439">
        <ele>2308</ele>
        <time>2022-01-27T10:59:02Z</time>
      </trkpt>
      <trkpt lat="45.31087" lon="6.18438">
        <ele>2308</ele>
        <time>2022-01-27T10:59:03Z</time>
      </trkpt>
      <trkpt lat="45.31088" lon="6.18438">
        <ele>2309.4</ele>
        <time>2022-01-27T10:59:06Z</time>
      </trkpt>
      <trkpt lat="45.31095" lon="6.18446">
        <ele>2314.2</ele>
        <time>2022-01-27T10:59:39Z</time>
      </trkpt>
      <trkpt lat="45.31095" lon="6.18448">
        <ele>2314.2</ele>
        <time>2022-01-27T10:59:40Z</time>
      </trkpt>
      <trkpt lat="45.31095" lon="6.18449">
        <ele>2314.2</ele>
        <time>2022-01-27T10:59:41Z</time>
      </trkpt>
      <trkpt lat="45.31095" lon="6.1845">
        <ele>2315.3</ele>
        <time>2022-01-27T10:59:42Z</time>
      </trkpt>
      <trkpt lat="45.31095" lon="6.18451">
        <ele>2315.3</ele>
        <time>2022-01-27T10:59:43Z</time>
      </trkpt>
      <trkpt lat="45.31095" lon="6.18452">
        <ele>2315.3</ele>
        <time>2022-01-27T10:59:44Z</time>
      </trkpt>
      <trkpt lat="45.31096" lon="6.18454">
        <ele>2316.5</ele>
        <time>2022-01-27T10:59:45Z</time>
      </trkpt>
      <trkpt lat="45.31096" lon="6.18455">
        <ele>2316.5</ele>
        <time>2022-01-27T10:59:47Z</time>
      </trkpt>
      <trkpt lat="45.31096" lon="6.18456">
        <ele>2316.5</ele>
        <time>2022-01-27T10:59:49Z</time>
      </trkpt>
      <trkpt lat="45.31096" lon="6.18457">
        <ele>2316.5</ele>
        <time>2022-01-27T10:59:50Z</time>
      </trkpt>
      <trkpt lat="45.31096" lon="6.18458">
        <ele>2318.6</ele>
        <time>2022-01-27T10:59:51Z</time>
      </trkpt>
      <trkpt lat="45.31097" lon="6.18459">
        <ele>2318.6</ele>
        <time>2022-01-27T10:59:52Z</time>
      </trkpt>
      <trkpt lat="45.31097" lon="6.1846">
        <ele>2318.6</ele>
        <time>2022-01-27T10:59:53Z</time>
      </trkpt>
      <trkpt lat="45.31101" lon="6.18475">
        <ele>2323.8</ele>
        <time>2022-01-27T11:00:20Z</time>
      </trkpt>
      <trkpt lat="45.31101" lon="6.18476">
        <ele>2323.8</ele>
        <time>2022-01-27T11:00:22Z</time>
      </trkpt>
      <trkpt lat="45.31101" lon="6.18477">
        <ele>2323.8</ele>
        <time>2022-01-27T11:00:23Z</time>
      </trkpt>
      <trkpt lat="45.31101" lon="6.18478">
        <ele>2323.8</ele>
        <time>2022-01-27T11:00:24Z</time>
      </trkpt>
      <trkpt lat="45.31102" lon="6.18479">
        <ele>2325</ele>
        <time>2022-01-27T11:00:25Z</time>
      </trkpt>
      <trkpt lat="45.31103" lon="6.1848">
        <ele>2325.9</ele>
        <time>2022-01-27T11:00:26Z</time>
      </trkpt>
      <trkpt lat="45.31103" lon="6.18481">
        <ele>2325.9</ele>
        <time>2022-01-27T11:00:27Z</time>
      </trkpt>
      <trkpt lat="45.31104" lon="6.18483">
        <ele>2325.9</ele>
        <time>2022-01-27T11:00:29Z</time>
      </trkpt>
      <trkpt lat="45.31106" lon="6.18485">
        <ele>2328</ele>
        <time>2022-01-27T11:00:30Z</time>
      </trkpt>
      <trkpt lat="45.31106" lon="6.18486">
        <ele>2328</ele>
        <time>2022-01-27T11:00:31Z</time>
      </trkpt>
      <trkpt lat="45.31107" lon="6.18487">
        <ele>2328</ele>
        <time>2022-01-27T11:00:32Z</time>
      </trkpt>
      <trkpt lat="45.31108" lon="6.18488">
        <ele>2329.2</ele>
        <time>2022-01-27T11:00:33Z</time>
      </trkpt>
      <trkpt lat="45.31109" lon="6.18489">
        <ele>2330.2</ele>
        <time>2022-01-27T11:00:34Z</time>
      </trkpt>
      <trkpt lat="45.31109" lon="6.1849">
        <ele>2330.2</ele>
        <time>2022-01-27T11:00:35Z</time>
      </trkpt>
      <trkpt lat="45.3111" lon="6.18491">
        <ele>2330.2</ele>
        <time>2022-01-27T11:00:36Z</time>
      </trkpt>
      <trkpt lat="45.31111" lon="6.18492">
        <ele>2331.4</ele>
        <time>2022-01-27T11:00:38Z</time>
      </trkpt>
      <trkpt lat="45.31111" lon="6.18493">
        <ele>2331.4</ele>
        <time>2022-01-27T11:00:39Z</time>
      </trkpt>
      <trkpt lat="45.31112" lon="6.18494">
        <ele>2332.4</ele>
        <time>2022-01-27T11:00:41Z</time>
      </trkpt>
      <trkpt lat="45.31113" lon="6.18495">
        <ele>2332.4</ele>
        <time>2022-01-27T11:00:42Z</time>
      </trkpt>
      <trkpt lat="45.31114" lon="6.18495">
        <ele>2332.4</ele>
        <time>2022-01-27T11:00:43Z</time>
      </trkpt>
      <trkpt lat="45.31115" lon="6.18495">
        <ele>2333.4</ele>
        <time>2022-01-27T11:00:46Z</time>
      </trkpt>
      <trkpt lat="45.31115" lon="6.18496">
        <ele>2333.4</ele>
        <time>2022-01-27T11:00:47Z</time>
      </trkpt>
      <trkpt lat="45.31116" lon="6.18495">
        <ele>2333.4</ele>
        <time>2022-01-27T11:00:53Z</time>
      </trkpt>
      <trkpt lat="45.31117" lon="6.18495">
        <ele>2333.4</ele>
        <time>2022-01-27T11:00:57Z</time>
      </trkpt>
      <trkpt lat="45.31115" lon="6.18495">
        <ele>2333.4</ele>
        <time>2022-01-27T11:01:06Z</time>
      </trkpt>
      <trkpt lat="45.31114" lon="6.18495">
        <ele>2332.4</ele>
        <time>2022-01-27T11:01:07Z</time>
      </trkpt>
      <trkpt lat="45.31113" lon="6.18496">
        <ele>2332.4</ele>
        <time>2022-01-27T11:01:08Z</time>
      </trkpt>
      <trkpt lat="45.31112" lon="6.18495">
        <ele>2332.4</ele>
        <time>2022-01-27T11:01:09Z</time>
      </trkpt>
      <trkpt lat="45.31115" lon="6.18493">
        <ele>2333.4</ele>
        <time>2022-01-27T11:02:05Z</time>
      </trkpt>
      <trkpt lat="45.31117" lon="6.18493">
        <ele>2333.4</ele>
        <time>2022-01-27T11:02:06Z</time>
      </trkpt>
      <trkpt lat="45.31118" lon="6.18493">
        <ele>2334.4</ele>
        <time>2022-01-27T11:02:07Z</time>
      </trkpt>
      <trkpt lat="45.31119" lon="6.18493">
        <ele>2334.4</ele>
        <time>2022-01-27T11:02:10Z</time>
      </trkpt>
      <trkpt lat="45.3112" lon="6.18494">
        <ele>2334.4</ele>
        <time>2022-01-27T11:02:11Z</time>
      </trkpt>
      <trkpt lat="45.31121" lon="6.18495">
        <ele>2335.3</ele>
        <time>2022-01-27T11:02:12Z</time>
      </trkpt>
      <trkpt lat="45.31121" lon="6.18496">
        <ele>2336.3</ele>
        <time>2022-01-27T11:02:13Z</time>
      </trkpt>
      <trkpt lat="45.31122" lon="6.18497">
        <ele>2336.3</ele>
        <time>2022-01-27T11:02:14Z</time>
      </trkpt>
      <trkpt lat="45.31122" lon="6.18498">
        <ele>2336.3</ele>
        <time>2022-01-27T11:02:15Z</time>
      </trkpt>
      <trkpt lat="45.31123" lon="6.18498">
        <ele>2336.3</ele>
        <time>2022-01-27T11:02:16Z</time>
      </trkpt>
      <trkpt lat="45.31123" lon="6.185">
        <ele>2336.3</ele>
        <time>2022-01-27T11:02:18Z</time>
      </trkpt>
      <trkpt lat="45.31124" lon="6.185">
        <ele>2337.2</ele>
        <time>2022-01-27T11:02:19Z</time>
      </trkpt>
      <trkpt lat="45.31124" lon="6.18501">
        <ele>2338</ele>
        <time>2022-01-27T11:02:20Z</time>
      </trkpt>
      <trkpt lat="45.31125" lon="6.18501">
        <ele>2338</ele>
        <time>2022-01-27T11:02:21Z</time>
      </trkpt>
      <trkpt lat="45.31125" lon="6.18502">
        <ele>2338</ele>
        <time>2022-01-27T11:02:22Z</time>
      </trkpt>
      <trkpt lat="45.31126" lon="6.18502">
        <ele>2338</ele>
        <time>2022-01-27T11:02:23Z</time>
      </trkpt>
      <trkpt lat="45.31127" lon="6.18502">
        <ele>2338.8</ele>
        <time>2022-01-27T11:02:25Z</time>
      </trkpt>
      <trkpt lat="45.31128" lon="6.18502">
        <ele>2338.8</ele>
        <time>2022-01-27T11:02:26Z</time>
      </trkpt>
      <trkpt lat="45.31129" lon="6.18502">
        <ele>2338.8</ele>
        <time>2022-01-27T11:02:28Z</time>
      </trkpt>
      <trkpt lat="45.3113" lon="6.18502">
        <ele>2339.8</ele>
        <time>2022-01-27T11:02:30Z</time>
      </trkpt>
      <trkpt lat="45.31131" lon="6.18502">
        <ele>2339.8</ele>
        <time>2022-01-27T11:02:32Z</time>
      </trkpt>
      <trkpt lat="45.31132" lon="6.18503">
        <ele>2339.8</ele>
        <time>2022-01-27T11:02:33Z</time>
      </trkpt>
      <trkpt lat="45.31133" lon="6.18502">
        <ele>2340.9</ele>
        <time>2022-01-27T11:02:36Z</time>
      </trkpt>
      <trkpt lat="45.31134" lon="6.18502">
        <ele>2340.9</ele>
        <time>2022-01-27T11:02:37Z</time>
      </trkpt>
      <trkpt lat="45.31135" lon="6.18502">
        <ele>2340.9</ele>
        <time>2022-01-27T11:02:39Z</time>
      </trkpt>
      <trkpt lat="45.31134" lon="6.18501">
        <ele>2340.9</ele>
        <time>2022-01-27T11:02:40Z</time>
      </trkpt>
      <trkpt lat="45.31134" lon="6.185">
        <ele>2340.9</ele>
        <time>2022-01-27T11:02:42Z</time>
      </trkpt>
      <trkpt lat="45.31134" lon="6.18499">
        <ele>2340.2</ele>
        <time>2022-01-27T11:02:44Z</time>
      </trkpt>
      <trkpt lat="45.31133" lon="6.18499">
        <ele>2340.2</ele>
        <time>2022-01-27T11:02:45Z</time>
      </trkpt>
      <trkpt lat="45.31133" lon="6.18498">
        <ele>2340.2</ele>
        <time>2022-01-27T11:02:46Z</time>
      </trkpt>
      <trkpt lat="45.31132" lon="6.18498">
        <ele>2339.1</ele>
        <time>2022-01-27T11:02:47Z</time>
      </trkpt>
      <trkpt lat="45.31132" lon="6.18497">
        <ele>2339.1</ele>
        <time>2022-01-27T11:02:48Z</time>
      </trkpt>
      <trkpt lat="45.31133" lon="6.18498">
        <ele>2340.2</ele>
        <time>2022-01-27T11:02:51Z</time>
      </trkpt>
      <trkpt lat="45.31134" lon="6.18498">
        <ele>2340.2</ele>
        <time>2022-01-27T11:02:55Z</time>
      </trkpt>
      <trkpt lat="45.31134" lon="6.18499">
        <ele>2340.2</ele>
        <time>2022-01-27T11:02:57Z</time>
      </trkpt>
      <trkpt lat="45.31135" lon="6.18499">
        <ele>2340.2</ele>
        <time>2022-01-27T11:02:59Z</time>
      </trkpt>
      <trkpt lat="45.31135" lon="6.185">
        <ele>2340.2</ele>
        <time>2022-01-27T11:03:00Z</time>
      </trkpt>
      <trkpt lat="45.31135" lon="6.18501">
        <ele>2340.9</ele>
        <time>2022-01-27T11:03:02Z</time>
      </trkpt>
      <trkpt lat="45.31135" lon="6.18502">
        <ele>2340.9</ele>
        <time>2022-01-27T11:03:04Z</time>
      </trkpt>
      <trkpt lat="45.31135" lon="6.18503">
        <ele>2340.9</ele>
        <time>2022-01-27T11:03:05Z</time>
      </trkpt>
      <trkpt lat="45.31135" lon="6.18505">
        <ele>2341.6</ele>
        <time>2022-01-27T11:03:06Z</time>
      </trkpt>
      <trkpt lat="45.31135" lon="6.18507">
        <ele>2341.6</ele>
        <time>2022-01-27T11:03:07Z</time>
      </trkpt>
      <trkpt lat="45.31135" lon="6.1851">
        <ele>2342.2</ele>
        <time>2022-01-27T11:03:09Z</time>
      </trkpt>
      <trkpt lat="45.31135" lon="6.18512">
        <ele>2342.2</ele>
        <time>2022-01-27T11:03:10Z</time>
      </trkpt>
      <trkpt lat="45.31135" lon="6.18514">
        <ele>2342.7</ele>
        <time>2022-01-27T11:03:11Z</time>
      </trkpt>
      <trkpt lat="45.31135" lon="6.18516">
        <ele>2342.7</ele>
        <time>2022-01-27T11:03:13Z</time>
      </trkpt>
      <trkpt lat="45.31135" lon="6.18517">
        <ele>2342.7</ele>
        <time>2022-01-27T11:03:14Z</time>
      </trkpt>
      <trkpt lat="45.31135" lon="6.18518">
        <ele>2343.3</ele>
        <time>2022-01-27T11:03:15Z</time>
      </trkpt>
      <trkpt lat="45.31135" lon="6.18519">
        <ele>2343.3</ele>
        <time>2022-01-27T11:03:17Z</time>
      </trkpt>
      <trkpt lat="45.31135" lon="6.1852">
        <ele>2343.3</ele>
        <time>2022-01-27T11:03:19Z</time>
      </trkpt>
      <trkpt lat="45.31135" lon="6.18521">
        <ele>2343.3</ele>
        <time>2022-01-27T11:03:20Z</time>
      </trkpt>
      <trkpt lat="45.31135" lon="6.18522">
        <ele>2343.9</ele>
        <time>2022-01-27T11:03:21Z</time>
      </trkpt>
      <trkpt lat="45.31135" lon="6.18523">
        <ele>2343.9</ele>
        <time>2022-01-27T11:03:22Z</time>
      </trkpt>
      <trkpt lat="45.31135" lon="6.18524">
        <ele>2343.9</ele>
        <time>2022-01-27T11:03:23Z</time>
      </trkpt>
      <trkpt lat="45.31135" lon="6.18527">
        <ele>2344.5</ele>
        <time>2022-01-27T11:03:26Z</time>
      </trkpt>
      <trkpt lat="45.31135" lon="6.18528">
        <ele>2344.5</ele>
        <time>2022-01-27T11:03:27Z</time>
      </trkpt>
      <trkpt lat="45.31134" lon="6.18529">
        <ele>2344.5</ele>
        <time>2022-01-27T11:03:28Z</time>
      </trkpt>
      <trkpt lat="45.31134" lon="6.18531">
        <ele>2345.6</ele>
        <time>2022-01-27T11:03:29Z</time>
      </trkpt>
      <trkpt lat="45.31134" lon="6.18532">
        <ele>2345.6</ele>
        <time>2022-01-27T11:03:30Z</time>
      </trkpt>
      <trkpt lat="45.31134" lon="6.18533">
        <ele>2345.6</ele>
        <time>2022-01-27T11:03:31Z</time>
      </trkpt>
      <trkpt lat="45.31134" lon="6.18534">
        <ele>2345.6</ele>
        <time>2022-01-27T11:03:32Z</time>
      </trkpt>
      <trkpt lat="45.31134" lon="6.18535">
        <ele>2346.2</ele>
        <time>2022-01-27T11:03:33Z</time>
      </trkpt>
      <trkpt lat="45.31133" lon="6.18535">
        <ele>2346.2</ele>
        <time>2022-01-27T11:03:34Z</time>
      </trkpt>
      <trkpt lat="45.31133" lon="6.18536">
        <ele>2346.2</ele>
        <time>2022-01-27T11:03:35Z</time>
      </trkpt>
      <trkpt lat="45.31133" lon="6.18537">
        <ele>2346.2</ele>
        <time>2022-01-27T11:03:36Z</time>
      </trkpt>
      <trkpt lat="45.31133" lon="6.18538">
        <ele>2346.2</ele>
        <time>2022-01-27T11:03:38Z</time>
      </trkpt>
      <trkpt lat="45.31133" lon="6.18539">
        <ele>2346.2</ele>
        <time>2022-01-27T11:03:39Z</time>
      </trkpt>
      <trkpt lat="45.31132" lon="6.1854">
        <ele>2346.3</ele>
        <time>2022-01-27T11:03:41Z</time>
      </trkpt>
      <trkpt lat="45.31131" lon="6.18552">
        <ele>2348.4</ele>
        <time>2022-01-27T11:04:01Z</time>
      </trkpt>
      <trkpt lat="45.3113" lon="6.18553">
        <ele>2348.4</ele>
        <time>2022-01-27T11:04:02Z</time>
      </trkpt>
      <trkpt lat="45.3113" lon="6.18554">
        <ele>2348.4</ele>
        <time>2022-01-27T11:04:04Z</time>
      </trkpt>
      <trkpt lat="45.3113" lon="6.18555">
        <ele>2348.4</ele>
        <time>2022-01-27T11:04:06Z</time>
      </trkpt>
      <trkpt lat="45.3113" lon="6.18556">
        <ele>2348.4</ele>
        <time>2022-01-27T11:04:07Z</time>
      </trkpt>
      <trkpt lat="45.3113" lon="6.18557">
        <ele>2349.1</ele>
        <time>2022-01-27T11:04:09Z</time>
      </trkpt>
      <trkpt lat="45.3113" lon="6.18558">
        <ele>2349.1</ele>
        <time>2022-01-27T11:04:10Z</time>
      </trkpt>
      <trkpt lat="45.3113" lon="6.18559">
        <ele>2348.9</ele>
        <time>2022-01-27T11:04:14Z</time>
      </trkpt>
      <trkpt lat="45.31129" lon="6.18559">
        <ele>2348.9</ele>
        <time>2022-01-27T11:04:16Z</time>
      </trkpt>
      <trkpt lat="45.31129" lon="6.1856">
        <ele>2348.9</ele>
        <time>2022-01-27T11:04:17Z</time>
      </trkpt>
      <trkpt lat="45.31129" lon="6.18561">
        <ele>2349.7</ele>
        <time>2022-01-27T11:04:20Z</time>
      </trkpt>
      <trkpt lat="45.3113" lon="6.18567">
        <ele>2350.8</ele>
        <time>2022-01-27T11:04:48Z</time>
      </trkpt>
      <trkpt lat="45.31131" lon="6.18568">
        <ele>2350.8</ele>
        <time>2022-01-27T11:04:50Z</time>
      </trkpt>
      <trkpt lat="45.31132" lon="6.18568">
        <ele>2350.8</ele>
        <time>2022-01-27T11:04:51Z</time>
      </trkpt>
      <trkpt lat="45.31133" lon="6.18568">
        <ele>2351</ele>
        <time>2022-01-27T11:04:52Z</time>
      </trkpt>
      <trkpt lat="45.31134" lon="6.18568">
        <ele>2351</ele>
        <time>2022-01-27T11:04:54Z</time>
      </trkpt>
      <trkpt lat="45.31135" lon="6.18568">
        <ele>2351</ele>
        <time>2022-01-27T11:04:56Z</time>
      </trkpt>
      <trkpt lat="45.31135" lon="6.18569">
        <ele>2351</ele>
        <time>2022-01-27T11:04:57Z</time>
      </trkpt>
      <trkpt lat="45.31136" lon="6.18569">
        <ele>2351.3</ele>
        <time>2022-01-27T11:04:58Z</time>
      </trkpt>
      <trkpt lat="45.31137" lon="6.18569">
        <ele>2351.3</ele>
        <time>2022-01-27T11:04:59Z</time>
      </trkpt>
      <trkpt lat="45.31138" lon="6.18569">
        <ele>2351.3</ele>
        <time>2022-01-27T11:05:00Z</time>
      </trkpt>
      <trkpt lat="45.31139" lon="6.18569">
        <ele>2352.3</ele>
        <time>2022-01-27T11:05:01Z</time>
      </trkpt>
      <trkpt lat="45.3114" lon="6.18569">
        <ele>2352.6</ele>
        <time>2022-01-27T11:05:02Z</time>
      </trkpt>
      <trkpt lat="45.31141" lon="6.18569">
        <ele>2352.6</ele>
        <time>2022-01-27T11:05:04Z</time>
      </trkpt>
      <trkpt lat="45.31142" lon="6.18569">
        <ele>2352.6</ele>
        <time>2022-01-27T11:05:06Z</time>
      </trkpt>
      <trkpt lat="45.31143" lon="6.18569">
        <ele>2353</ele>
        <time>2022-01-27T11:05:08Z</time>
      </trkpt>
      <trkpt lat="45.31144" lon="6.1857">
        <ele>2353</ele>
        <time>2022-01-27T11:05:10Z</time>
      </trkpt>
      <trkpt lat="45.31145" lon="6.18569">
        <ele>2353.5</ele>
        <time>2022-01-27T11:05:12Z</time>
      </trkpt>
      <trkpt lat="45.31147" lon="6.18569">
        <ele>2352.7</ele>
        <time>2022-01-27T11:05:18Z</time>
      </trkpt>
      <trkpt lat="45.31148" lon="6.18568">
        <ele>2352.7</ele>
        <time>2022-01-27T11:05:19Z</time>
      </trkpt>
      <trkpt lat="45.31149" lon="6.18567">
        <ele>2353.3</ele>
        <time>2022-01-27T11:05:23Z</time>
      </trkpt>
      <trkpt lat="45.31149" lon="6.18568">
        <ele>2353.3</ele>
        <time>2022-01-27T11:05:24Z</time>
      </trkpt>
      <trkpt lat="45.31148" lon="6.18569">
        <ele>2353.3</ele>
        <time>2022-01-27T11:05:25Z</time>
      </trkpt>
      <trkpt lat="45.31148" lon="6.1857">
        <ele>2354</ele>
        <time>2022-01-27T11:05:26Z</time>
      </trkpt>
      <trkpt lat="45.31148" lon="6.18571">
        <ele>2353.5</ele>
        <time>2022-01-27T11:05:28Z</time>
      </trkpt>
      <trkpt lat="45.31148" lon="6.18572">
        <ele>2354</ele>
        <time>2022-01-27T11:05:30Z</time>
      </trkpt>
      <trkpt lat="45.31149" lon="6.18573">
        <ele>2354</ele>
        <time>2022-01-27T11:05:32Z</time>
      </trkpt>
      <trkpt lat="45.31178" lon="6.18564">
        <ele>2363</ele>
        <time>2022-01-27T11:06:49Z</time>
      </trkpt>
      <trkpt lat="45.31179" lon="6.18564">
        <ele>2364.6</ele>
        <time>2022-01-27T11:06:50Z</time>
      </trkpt>
      <trkpt lat="45.3118" lon="6.18563">
        <ele>2364.6</ele>
        <time>2022-01-27T11:06:51Z</time>
      </trkpt>
      <trkpt lat="45.31181" lon="6.18562">
        <ele>2366.1</ele>
        <time>2022-01-27T11:06:53Z</time>
      </trkpt>
      <trkpt lat="45.31182" lon="6.18561">
        <ele>2366.1</ele>
        <time>2022-01-27T11:06:55Z</time>
      </trkpt>
      <trkpt lat="45.31183" lon="6.18561">
        <ele>2366.1</ele>
        <time>2022-01-27T11:06:56Z</time>
      </trkpt>
      <trkpt lat="45.31183" lon="6.1856">
        <ele>2365.9</ele>
        <time>2022-01-27T11:06:57Z</time>
      </trkpt>
      <trkpt lat="45.31184" lon="6.1856">
        <ele>2367.5</ele>
        <time>2022-01-27T11:06:58Z</time>
      </trkpt>
      <trkpt lat="45.31185" lon="6.18559">
        <ele>2367.5</ele>
        <time>2022-01-27T11:06:59Z</time>
      </trkpt>
      <trkpt lat="45.31186" lon="6.18558">
        <ele>2367.5</ele>
        <time>2022-01-27T11:07:01Z</time>
      </trkpt>
      <trkpt lat="45.31187" lon="6.18558">
        <ele>2367.5</ele>
        <time>2022-01-27T11:07:02Z</time>
      </trkpt>
      <trkpt lat="45.31187" lon="6.18557">
        <ele>2369.1</ele>
        <time>2022-01-27T11:07:03Z</time>
      </trkpt>
      <trkpt lat="45.31188" lon="6.18556">
        <ele>2369.1</ele>
        <time>2022-01-27T11:07:04Z</time>
      </trkpt>
      <trkpt lat="45.31189" lon="6.18554">
        <ele>2369</ele>
        <time>2022-01-27T11:07:06Z</time>
      </trkpt>
      <trkpt lat="45.3119" lon="6.18554">
        <ele>2369</ele>
        <time>2022-01-27T11:07:07Z</time>
      </trkpt>
      <trkpt lat="45.3119" lon="6.18553">
        <ele>2370.9</ele>
        <time>2022-01-27T11:07:08Z</time>
      </trkpt>
      <trkpt lat="45.31191" lon="6.18552">
        <ele>2370.9</ele>
        <time>2022-01-27T11:07:09Z</time>
      </trkpt>
      <trkpt lat="45.31191" lon="6.18551">
        <ele>2370.8</ele>
        <time>2022-01-27T11:07:11Z</time>
      </trkpt>
      <trkpt lat="45.31192" lon="6.1855">
        <ele>2370.8</ele>
        <time>2022-01-27T11:07:12Z</time>
      </trkpt>
      <trkpt lat="45.31192" lon="6.18549">
        <ele>2370.8</ele>
        <time>2022-01-27T11:07:13Z</time>
      </trkpt>
      <trkpt lat="45.31192" lon="6.18548">
        <ele>2370.8</ele>
        <time>2022-01-27T11:07:14Z</time>
      </trkpt>
      <trkpt lat="45.31193" lon="6.18547">
        <ele>2370.8</ele>
        <time>2022-01-27T11:07:15Z</time>
      </trkpt>
      <trkpt lat="45.31193" lon="6.18546">
        <ele>2372.7</ele>
        <time>2022-01-27T11:07:16Z</time>
      </trkpt>
      <trkpt lat="45.31193" lon="6.18545">
        <ele>2372.7</ele>
        <time>2022-01-27T11:07:17Z</time>
      </trkpt>
      <trkpt lat="45.31194" lon="6.18544">
        <ele>2372.7</ele>
        <time>2022-01-27T11:07:18Z</time>
      </trkpt>
      <trkpt lat="45.31193" lon="6.18544">
        <ele>2372.7</ele>
        <time>2022-01-27T11:07:21Z</time>
      </trkpt>
      <trkpt lat="45.31197" lon="6.18546">
        <ele>2374.8</ele>
        <time>2022-01-27T11:07:50Z</time>
      </trkpt>
      <trkpt lat="45.31197" lon="6.18547">
        <ele>2374.8</ele>
        <time>2022-01-27T11:07:54Z</time>
      </trkpt>
      <trkpt lat="45.31198" lon="6.18547">
        <ele>2374.8</ele>
        <time>2022-01-27T11:07:55Z</time>
      </trkpt>
      <trkpt lat="45.31198" lon="6.18548">
        <ele>2374.8</ele>
        <time>2022-01-27T11:07:56Z</time>
      </trkpt>
      <trkpt lat="45.31199" lon="6.18549">
        <ele>2374.8</ele>
        <time>2022-01-27T11:07:57Z</time>
      </trkpt>
      <trkpt lat="45.312" lon="6.18551">
        <ele>2376.8</ele>
        <time>2022-01-27T11:07:59Z</time>
      </trkpt>
      <trkpt lat="45.312" lon="6.18552">
        <ele>2376.9</ele>
        <time>2022-01-27T11:08:00Z</time>
      </trkpt>
      <trkpt lat="45.312" lon="6.18553">
        <ele>2376.9</ele>
        <time>2022-01-27T11:08:01Z</time>
      </trkpt>
      <trkpt lat="45.312" lon="6.18554">
        <ele>2376.9</ele>
        <time>2022-01-27T11:08:02Z</time>
      </trkpt>
      <trkpt lat="45.312" lon="6.18556">
        <ele>2376.9</ele>
        <time>2022-01-27T11:08:03Z</time>
      </trkpt>
      <trkpt lat="45.312" lon="6.18557">
        <ele>2377</ele>
        <time>2022-01-27T11:08:04Z</time>
      </trkpt>
      <trkpt lat="45.312" lon="6.18558">
        <ele>2377</ele>
        <time>2022-01-27T11:08:05Z</time>
      </trkpt>
      <trkpt lat="45.312" lon="6.18559">
        <ele>2377</ele>
        <time>2022-01-27T11:08:06Z</time>
      </trkpt>
      <trkpt lat="45.312" lon="6.1856">
        <ele>2377</ele>
        <time>2022-01-27T11:08:07Z</time>
      </trkpt>
      <trkpt lat="45.312" lon="6.18562">
        <ele>2377.1</ele>
        <time>2022-01-27T11:08:08Z</time>
      </trkpt>
      <trkpt lat="45.312" lon="6.18563">
        <ele>2377.1</ele>
        <time>2022-01-27T11:08:09Z</time>
      </trkpt>
      <trkpt lat="45.31199" lon="6.18563">
        <ele>2377.1</ele>
        <time>2022-01-27T11:08:10Z</time>
      </trkpt>
      <trkpt lat="45.31199" lon="6.18564">
        <ele>2377.1</ele>
        <time>2022-01-27T11:08:11Z</time>
      </trkpt>
      <trkpt lat="45.31198" lon="6.18565">
        <ele>2375.1</ele>
        <time>2022-01-27T11:08:15Z</time>
      </trkpt>
      <trkpt lat="45.31198" lon="6.18566">
        <ele>2375.3</ele>
        <time>2022-01-27T11:08:20Z</time>
      </trkpt>
      <trkpt lat="45.31198" lon="6.18567">
        <ele>2375.3</ele>
        <time>2022-01-27T11:08:23Z</time>
      </trkpt>
      <trkpt lat="45.31198" lon="6.18568">
        <ele>2375.3</ele>
        <time>2022-01-27T11:08:25Z</time>
      </trkpt>
      <trkpt lat="45.31198" lon="6.18569">
        <ele>2375.5</ele>
        <time>2022-01-27T11:08:26Z</time>
      </trkpt>
      <trkpt lat="45.31199" lon="6.18571">
        <ele>2375.5</ele>
        <time>2022-01-27T11:08:27Z</time>
      </trkpt>
      <trkpt lat="45.31199" lon="6.18572">
        <ele>2375.5</ele>
        <time>2022-01-27T11:08:29Z</time>
      </trkpt>
      <trkpt lat="45.31199" lon="6.1857">
        <ele>2375.5</ele>
        <time>2022-01-27T11:08:31Z</time>
      </trkpt>
      <trkpt lat="45.31198" lon="6.18573">
        <ele>2375.9</ele>
        <time>2022-01-27T11:08:46Z</time>
      </trkpt>
      <trkpt lat="45.31198" lon="6.18574">
        <ele>2375.9</ele>
        <time>2022-01-27T11:08:47Z</time>
      </trkpt>
      <trkpt lat="45.31198" lon="6.18575">
        <ele>2375.9</ele>
        <time>2022-01-27T11:08:48Z</time>
      </trkpt>
      <trkpt lat="45.31198" lon="6.18576">
        <ele>2375.9</ele>
        <time>2022-01-27T11:08:49Z</time>
      </trkpt>
      <trkpt lat="45.31198" lon="6.18577">
        <ele>2375.9</ele>
        <time>2022-01-27T11:08:50Z</time>
      </trkpt>
      <trkpt lat="45.31198" lon="6.18579">
        <ele>2376.3</ele>
        <time>2022-01-27T11:08:51Z</time>
      </trkpt>
      <trkpt lat="45.31198" lon="6.1858">
        <ele>2376.3</ele>
        <time>2022-01-27T11:08:52Z</time>
      </trkpt>
      <trkpt lat="45.31199" lon="6.18581">
        <ele>2376.3</ele>
        <time>2022-01-27T11:08:53Z</time>
      </trkpt>
      <trkpt lat="45.31199" lon="6.18582">
        <ele>2376.8</ele>
        <time>2022-01-27T11:08:54Z</time>
      </trkpt>
      <trkpt lat="45.31199" lon="6.18583">
        <ele>2378.7</ele>
        <time>2022-01-27T11:08:55Z</time>
      </trkpt>
      <trkpt lat="45.31199" lon="6.18584">
        <ele>2378.7</ele>
        <time>2022-01-27T11:08:56Z</time>
      </trkpt>
      <trkpt lat="45.312" lon="6.18585">
        <ele>2378.7</ele>
        <time>2022-01-27T11:08:57Z</time>
      </trkpt>
      <trkpt lat="45.312" lon="6.18587">
        <ele>2379.2</ele>
        <time>2022-01-27T11:08:58Z</time>
      </trkpt>
      <trkpt lat="45.312" lon="6.18589">
        <ele>2379.2</ele>
        <time>2022-01-27T11:09:00Z</time>
      </trkpt>
      <trkpt lat="45.312" lon="6.1859">
        <ele>2379.2</ele>
        <time>2022-01-27T11:09:01Z</time>
      </trkpt>
      <trkpt lat="45.31201" lon="6.18591">
        <ele>2379.7</ele>
        <time>2022-01-27T11:09:02Z</time>
      </trkpt>
      <trkpt lat="45.31201" lon="6.18592">
        <ele>2379.7</ele>
        <time>2022-01-27T11:09:03Z</time>
      </trkpt>
      <trkpt lat="45.31201" lon="6.18593">
        <ele>2379.7</ele>
        <time>2022-01-27T11:09:04Z</time>
      </trkpt>
      <trkpt lat="45.31201" lon="6.18594">
        <ele>2379.7</ele>
        <time>2022-01-27T11:09:05Z</time>
      </trkpt>
      <trkpt lat="45.31201" lon="6.18595">
        <ele>2380.3</ele>
        <time>2022-01-27T11:09:06Z</time>
      </trkpt>
      <trkpt lat="45.31201" lon="6.18596">
        <ele>2380.3</ele>
        <time>2022-01-27T11:09:07Z</time>
      </trkpt>
      <trkpt lat="45.312" lon="6.18598">
        <ele>2380.3</ele>
        <time>2022-01-27T11:09:08Z</time>
      </trkpt>
      <trkpt lat="45.312" lon="6.18599">
        <ele>2380.3</ele>
        <time>2022-01-27T11:09:09Z</time>
      </trkpt>
      <trkpt lat="45.312" lon="6.186">
        <ele>2380.8</ele>
        <time>2022-01-27T11:09:10Z</time>
      </trkpt>
      <trkpt lat="45.312" lon="6.18602">
        <ele>2380.8</ele>
        <time>2022-01-27T11:09:11Z</time>
      </trkpt>
      <trkpt lat="45.31199" lon="6.18603">
        <ele>2380.8</ele>
        <time>2022-01-27T11:09:12Z</time>
      </trkpt>
      <trkpt lat="45.31199" lon="6.18604">
        <ele>2381.5</ele>
        <time>2022-01-27T11:09:13Z</time>
      </trkpt>
      <trkpt lat="45.31199" lon="6.18605">
        <ele>2381.5</ele>
        <time>2022-01-27T11:09:14Z</time>
      </trkpt>
      <trkpt lat="45.31199" lon="6.18606">
        <ele>2379.8</ele>
        <time>2022-01-27T11:09:15Z</time>
      </trkpt>
      <trkpt lat="45.31199" lon="6.18607">
        <ele>2379.8</ele>
        <time>2022-01-27T11:09:17Z</time>
      </trkpt>
      <trkpt lat="45.31199" lon="6.18608">
        <ele>2380.6</ele>
        <time>2022-01-27T11:09:18Z</time>
      </trkpt>
      <trkpt lat="45.31198" lon="6.18609">
        <ele>2380.6</ele>
        <time>2022-01-27T11:09:19Z</time>
      </trkpt>
      <trkpt lat="45.31198" lon="6.1861">
        <ele>2380.6</ele>
        <time>2022-01-27T11:09:21Z</time>
      </trkpt>
      <trkpt lat="45.31198" lon="6.18611">
        <ele>2380.6</ele>
        <time>2022-01-27T11:09:22Z</time>
      </trkpt>
      <trkpt lat="45.31198" lon="6.18613">
        <ele>2381.5</ele>
        <time>2022-01-27T11:09:23Z</time>
      </trkpt>
      <trkpt lat="45.31198" lon="6.18614">
        <ele>2381.5</ele>
        <time>2022-01-27T11:09:24Z</time>
      </trkpt>
      <trkpt lat="45.31198" lon="6.18615">
        <ele>2381.5</ele>
        <time>2022-01-27T11:09:26Z</time>
      </trkpt>
      <trkpt lat="45.31197" lon="6.18617">
        <ele>2382.6</ele>
        <time>2022-01-27T11:09:28Z</time>
      </trkpt>
      <trkpt lat="45.31197" lon="6.18619">
        <ele>2382.6</ele>
        <time>2022-01-27T11:09:29Z</time>
      </trkpt>
      <trkpt lat="45.31197" lon="6.1862">
        <ele>2382.6</ele>
        <time>2022-01-27T11:09:30Z</time>
      </trkpt>
      <trkpt lat="45.31197" lon="6.18621">
        <ele>2383.7</ele>
        <time>2022-01-27T11:09:32Z</time>
      </trkpt>
      <trkpt lat="45.31197" lon="6.18622">
        <ele>2383.7</ele>
        <time>2022-01-27T11:09:33Z</time>
      </trkpt>
      <trkpt lat="45.31197" lon="6.18623">
        <ele>2383.7</ele>
        <time>2022-01-27T11:09:34Z</time>
      </trkpt>
      <trkpt lat="45.31196" lon="6.18623">
        <ele>2383.7</ele>
        <time>2022-01-27T11:09:35Z</time>
      </trkpt>
      <trkpt lat="45.31196" lon="6.18624">
        <ele>2383.7</ele>
        <time>2022-01-27T11:09:36Z</time>
      </trkpt>
      <trkpt lat="45.31196" lon="6.18625">
        <ele>2385</ele>
        <time>2022-01-27T11:09:38Z</time>
      </trkpt>
      <trkpt lat="45.31196" lon="6.18626">
        <ele>2383.5</ele>
        <time>2022-01-27T11:09:39Z</time>
      </trkpt>
      <trkpt lat="45.31196" lon="6.18627">
        <ele>2383.5</ele>
        <time>2022-01-27T11:09:40Z</time>
      </trkpt>
      <trkpt lat="45.31195" lon="6.18628">
        <ele>2383.5</ele>
        <time>2022-01-27T11:09:43Z</time>
      </trkpt>
      <trkpt lat="45.31195" lon="6.18629">
        <ele>2383.5</ele>
        <time>2022-01-27T11:09:46Z</time>
      </trkpt>
      <trkpt lat="45.31195" lon="6.1863">
        <ele>2384.9</ele>
        <time>2022-01-27T11:09:48Z</time>
      </trkpt>
      <trkpt lat="45.31195" lon="6.18631">
        <ele>2384.9</ele>
        <time>2022-01-27T11:09:49Z</time>
      </trkpt>
      <trkpt lat="45.31194" lon="6.18631">
        <ele>2384.9</ele>
        <time>2022-01-27T11:09:50Z</time>
      </trkpt>
      <trkpt lat="45.31209" lon="6.18614">
        <ele>2387.7</ele>
        <time>2022-01-27T11:11:16Z</time>
      </trkpt>
      <trkpt lat="45.31208" lon="6.18612">
        <ele>2387.7</ele>
        <time>2022-01-27T11:11:17Z</time>
      </trkpt>
      <trkpt lat="45.31208" lon="6.1861">
        <ele>2387</ele>
        <time>2022-01-27T11:11:18Z</time>
      </trkpt>
      <trkpt lat="45.31208" lon="6.18609">
        <ele>2387</ele>
        <time>2022-01-27T11:11:19Z</time>
      </trkpt>
      <trkpt lat="45.31209" lon="6.18609">
        <ele>2387</ele>
        <time>2022-01-27T11:11:20Z</time>
      </trkpt>
      <trkpt lat="45.31209" lon="6.1861">
        <ele>2387</ele>
        <time>2022-01-27T11:11:22Z</time>
      </trkpt>
      <trkpt lat="45.3121" lon="6.1861">
        <ele>2387</ele>
        <time>2022-01-27T11:11:23Z</time>
      </trkpt>
      <trkpt lat="45.3121" lon="6.18611">
        <ele>2387</ele>
        <time>2022-01-27T11:11:24Z</time>
      </trkpt>
      <trkpt lat="45.3121" lon="6.1861">
        <ele>2387</ele>
        <time>2022-01-27T11:11:28Z</time>
      </trkpt>
      <trkpt lat="45.3121" lon="6.18611">
        <ele>2387</ele>
        <time>2022-01-27T11:11:32Z</time>
      </trkpt>
      <trkpt lat="45.31211" lon="6.1861">
        <ele>2388.6</ele>
        <time>2022-01-27T11:11:41Z</time>
      </trkpt>
      <trkpt lat="45.31212" lon="6.18609">
        <ele>2388.6</ele>
        <time>2022-01-27T11:11:42Z</time>
      </trkpt>
      <trkpt lat="45.31212" lon="6.18608">
        <ele>2387.9</ele>
        <time>2022-01-27T11:11:43Z</time>
      </trkpt>
      <trkpt lat="45.31212" lon="6.18607">
        <ele>2387.9</ele>
        <time>2022-01-27T11:11:44Z</time>
      </trkpt>
      <trkpt lat="45.31212" lon="6.18606">
        <ele>2387.9</ele>
        <time>2022-01-27T11:11:45Z</time>
      </trkpt>
      <trkpt lat="45.31212" lon="6.18605">
        <ele>2387.9</ele>
        <time>2022-01-27T11:11:47Z</time>
      </trkpt>
      <trkpt lat="45.31213" lon="6.18604">
        <ele>2387.9</ele>
        <time>2022-01-27T11:11:49Z</time>
      </trkpt>
      <trkpt lat="45.31214" lon="6.18603">
        <ele>2387.4</ele>
        <time>2022-01-27T11:11:51Z</time>
      </trkpt>
      <trkpt lat="45.31214" lon="6.18602">
        <ele>2387.4</ele>
        <time>2022-01-27T11:11:52Z</time>
      </trkpt>
      <trkpt lat="45.31215" lon="6.18601">
        <ele>2389.2</ele>
        <time>2022-01-27T11:11:53Z</time>
      </trkpt>
      <trkpt lat="45.31216" lon="6.18601">
        <ele>2389.2</ele>
        <time>2022-01-27T11:11:54Z</time>
      </trkpt>
      <trkpt lat="45.31217" lon="6.186">
        <ele>2389.2</ele>
        <time>2022-01-27T11:11:56Z</time>
      </trkpt>
      <trkpt lat="45.31218" lon="6.18599">
        <ele>2391.1</ele>
        <time>2022-01-27T11:11:57Z</time>
      </trkpt>
      <trkpt lat="45.31219" lon="6.18598">
        <ele>2390.7</ele>
        <time>2022-01-27T11:11:58Z</time>
      </trkpt>
      <trkpt lat="45.3122" lon="6.18597">
        <ele>2390.7</ele>
        <time>2022-01-27T11:12:00Z</time>
      </trkpt>
      <trkpt lat="45.31221" lon="6.18597">
        <ele>2392.7</ele>
        <time>2022-01-27T11:12:01Z</time>
      </trkpt>
      <trkpt lat="45.31222" lon="6.18596">
        <ele>2392.7</ele>
        <time>2022-01-27T11:12:02Z</time>
      </trkpt>
      <trkpt lat="45.31223" lon="6.18596">
        <ele>2392.7</ele>
        <time>2022-01-27T11:12:03Z</time>
      </trkpt>
      <trkpt lat="45.31224" lon="6.18595">
        <ele>2394.8</ele>
        <time>2022-01-27T11:12:04Z</time>
      </trkpt>
      <trkpt lat="45.31225" lon="6.18595">
        <ele>2394.4</ele>
        <time>2022-01-27T11:12:05Z</time>
      </trkpt>
      <trkpt lat="45.31225" lon="6.18594">
        <ele>2394.4</ele>
        <time>2022-01-27T11:12:06Z</time>
      </trkpt>
      <trkpt lat="45.31226" lon="6.18594">
        <ele>2396.4</ele>
        <time>2022-01-27T11:12:07Z</time>
      </trkpt>
      <trkpt lat="45.31227" lon="6.18594">
        <ele>2396.4</ele>
        <time>2022-01-27T11:12:08Z</time>
      </trkpt>
      <trkpt lat="45.31228" lon="6.18594">
        <ele>2396.4</ele>
        <time>2022-01-27T11:12:09Z</time>
      </trkpt>
      <trkpt lat="45.31228" lon="6.18593">
        <ele>2396.4</ele>
        <time>2022-01-27T11:12:10Z</time>
      </trkpt>
      <trkpt lat="45.31229" lon="6.18593">
        <ele>2396.4</ele>
        <time>2022-01-27T11:12:11Z</time>
      </trkpt>
      <trkpt lat="45.31229" lon="6.18592">
        <ele>2396.4</ele>
        <time>2022-01-27T11:12:13Z</time>
      </trkpt>
      <trkpt lat="45.31229" lon="6.18593">
        <ele>2396.4</ele>
        <time>2022-01-27T11:12:15Z</time>
      </trkpt>
      <trkpt lat="45.31229" lon="6.18592">
        <ele>2398.3</ele>
        <time>2022-01-27T11:12:17Z</time>
      </trkpt>
      <trkpt lat="45.3123" lon="6.18592">
        <ele>2398.3</ele>
        <time>2022-01-27T11:12:21Z</time>
      </trkpt>
      <trkpt lat="45.3123" lon="6.1859">
        <ele>2398</ele>
        <time>2022-01-27T11:12:29Z</time>
      </trkpt>
      <trkpt lat="45.3123" lon="6.18589">
        <ele>2398</ele>
        <time>2022-01-27T11:12:31Z</time>
      </trkpt>
      <trkpt lat="45.31231" lon="6.18589">
        <ele>2398</ele>
        <time>2022-01-27T11:12:32Z</time>
      </trkpt>
      <trkpt lat="45.31231" lon="6.1859">
        <ele>2398</ele>
        <time>2022-01-27T11:12:34Z</time>
      </trkpt>
      <trkpt lat="45.3123" lon="6.18593">
        <ele>2398.3</ele>
        <time>2022-01-27T11:12:35Z</time>
      </trkpt>
      <trkpt lat="45.3123" lon="6.18594">
        <ele>2398.3</ele>
        <time>2022-01-27T11:12:36Z</time>
      </trkpt>
      <trkpt lat="45.31233" lon="6.18592">
        <ele>2400.1</ele>
        <time>2022-01-27T11:13:04Z</time>
      </trkpt>
      <trkpt lat="45.31234" lon="6.18591">
        <ele>2400.1</ele>
        <time>2022-01-27T11:13:07Z</time>
      </trkpt>
      <trkpt lat="45.31235" lon="6.18591">
        <ele>2400.1</ele>
        <time>2022-01-27T11:13:08Z</time>
      </trkpt>
      <trkpt lat="45.31235" lon="6.1859">
        <ele>2399.8</ele>
        <time>2022-01-27T11:13:09Z</time>
      </trkpt>
      <trkpt lat="45.31236" lon="6.18589">
        <ele>2401.6</ele>
        <time>2022-01-27T11:13:10Z</time>
      </trkpt>
      <trkpt lat="45.31237" lon="6.18588">
        <ele>2401.6</ele>
        <time>2022-01-27T11:13:12Z</time>
      </trkpt>
      <trkpt lat="45.31237" lon="6.18587">
        <ele>2401.6</ele>
        <time>2022-01-27T11:13:13Z</time>
      </trkpt>
      <trkpt lat="45.31238" lon="6.18586">
        <ele>2401.4</ele>
        <time>2022-01-27T11:13:14Z</time>
      </trkpt>
      <trkpt lat="45.31238" lon="6.18585">
        <ele>2401.4</ele>
        <time>2022-01-27T11:13:15Z</time>
      </trkpt>
      <trkpt lat="45.31239" lon="6.18584">
        <ele>2403.2</ele>
        <time>2022-01-27T11:13:16Z</time>
      </trkpt>
      <trkpt lat="45.31239" lon="6.18583">
        <ele>2403.2</ele>
        <time>2022-01-27T11:13:17Z</time>
      </trkpt>
      <trkpt lat="45.31239" lon="6.18582">
        <ele>2403</ele>
        <time>2022-01-27T11:13:18Z</time>
      </trkpt>
      <trkpt lat="45.3124" lon="6.1858">
        <ele>2403</ele>
        <time>2022-01-27T11:13:19Z</time>
      </trkpt>
      <trkpt lat="45.3124" lon="6.18579">
        <ele>2403</ele>
        <time>2022-01-27T11:13:20Z</time>
      </trkpt>
      <trkpt lat="45.3124" lon="6.18578">
        <ele>2403</ele>
        <time>2022-01-27T11:13:21Z</time>
      </trkpt>
      <trkpt lat="45.31241" lon="6.18576">
        <ele>2402.8</ele>
        <time>2022-01-27T11:13:22Z</time>
      </trkpt>
      <trkpt lat="45.31241" lon="6.18574">
        <ele>2402.8</ele>
        <time>2022-01-27T11:13:23Z</time>
      </trkpt>
      <trkpt lat="45.31242" lon="6.18572">
        <ele>2404.6</ele>
        <time>2022-01-27T11:13:25Z</time>
      </trkpt>
      <trkpt lat="45.31242" lon="6.18571">
        <ele>2404.6</ele>
        <time>2022-01-27T11:13:27Z</time>
      </trkpt>
      <trkpt lat="45.31242" lon="6.1857">
        <ele>2404.6</ele>
        <time>2022-01-27T11:13:28Z</time>
      </trkpt>
      <trkpt lat="45.31242" lon="6.18569">
        <ele>2404.5</ele>
        <time>2022-01-27T11:13:29Z</time>
      </trkpt>
      <trkpt lat="45.31242" lon="6.18568">
        <ele>2404.5</ele>
        <time>2022-01-27T11:13:30Z</time>
      </trkpt>
      <trkpt lat="45.31243" lon="6.18567">
        <ele>2404.5</ele>
        <time>2022-01-27T11:13:31Z</time>
      </trkpt>
      <trkpt lat="45.31243" lon="6.18566">
        <ele>2404.5</ele>
        <time>2022-01-27T11:13:32Z</time>
      </trkpt>
      <trkpt lat="45.31243" lon="6.18565">
        <ele>2404.5</ele>
        <time>2022-01-27T11:13:33Z</time>
      </trkpt>
      <trkpt lat="45.31243" lon="6.18564">
        <ele>2404.4</ele>
        <time>2022-01-27T11:13:34Z</time>
      </trkpt>
      <trkpt lat="45.31243" lon="6.18563">
        <ele>2404.4</ele>
        <time>2022-01-27T11:13:35Z</time>
      </trkpt>
      <trkpt lat="45.31243" lon="6.18561">
        <ele>2404.4</ele>
        <time>2022-01-27T11:13:36Z</time>
      </trkpt>
      <trkpt lat="45.31243" lon="6.1856">
        <ele>2404.3</ele>
        <time>2022-01-27T11:13:37Z</time>
      </trkpt>
      <trkpt lat="45.31243" lon="6.18559">
        <ele>2404.3</ele>
        <time>2022-01-27T11:13:38Z</time>
      </trkpt>
      <trkpt lat="45.31243" lon="6.18558">
        <ele>2404.3</ele>
        <time>2022-01-27T11:13:39Z</time>
      </trkpt>
      <trkpt lat="45.31243" lon="6.18557">
        <ele>2404.3</ele>
        <time>2022-01-27T11:13:40Z</time>
      </trkpt>
      <trkpt lat="45.31244" lon="6.18557">
        <ele>2404.3</ele>
        <time>2022-01-27T11:13:43Z</time>
      </trkpt>
      <trkpt lat="45.31245" lon="6.18557">
        <ele>2406.4</ele>
        <time>2022-01-27T11:13:44Z</time>
      </trkpt>
      <trkpt lat="45.31246" lon="6.18559">
        <ele>2406.4</ele>
        <time>2022-01-27T11:13:45Z</time>
      </trkpt>
      <trkpt lat="45.31246" lon="6.1856">
        <ele>2406.4</ele>
        <time>2022-01-27T11:13:46Z</time>
      </trkpt>
      <trkpt lat="45.31246" lon="6.18562">
        <ele>2406.4</ele>
        <time>2022-01-27T11:13:47Z</time>
      </trkpt>
      <trkpt lat="45.31246" lon="6.18563">
        <ele>2406.4</ele>
        <time>2022-01-27T11:13:48Z</time>
      </trkpt>
      <trkpt lat="45.31247" lon="6.18564">
        <ele>2406.4</ele>
        <time>2022-01-27T11:13:49Z</time>
      </trkpt>
      <trkpt lat="45.31247" lon="6.18567">
        <ele>2406.5</ele>
        <time>2022-01-27T11:13:51Z</time>
      </trkpt>
      <trkpt lat="45.31246" lon="6.18568">
        <ele>2406.5</ele>
        <time>2022-01-27T11:13:52Z</time>
      </trkpt>
      <trkpt lat="45.31246" lon="6.18569">
        <ele>2406.6</ele>
        <time>2022-01-27T11:13:53Z</time>
      </trkpt>
      <trkpt lat="45.31246" lon="6.18571">
        <ele>2406.6</ele>
        <time>2022-01-27T11:13:54Z</time>
      </trkpt>
      <trkpt lat="45.31246" lon="6.18572">
        <ele>2406.6</ele>
        <time>2022-01-27T11:13:55Z</time>
      </trkpt>
      <trkpt lat="45.31245" lon="6.18575">
        <ele>2406.8</ele>
        <time>2022-01-27T11:13:57Z</time>
      </trkpt>
      <trkpt lat="45.31245" lon="6.18577">
        <ele>2406.8</ele>
        <time>2022-01-27T11:13:59Z</time>
      </trkpt>
      <trkpt lat="45.31244" lon="6.1858">
        <ele>2407</ele>
        <time>2022-01-27T11:14:00Z</time>
      </trkpt>
      <trkpt lat="45.31244" lon="6.18581">
        <ele>2405</ele>
        <time>2022-01-27T11:14:02Z</time>
      </trkpt>
      <trkpt lat="45.31244" lon="6.18582">
        <ele>2405.2</ele>
        <time>2022-01-27T11:14:03Z</time>
      </trkpt>
      <trkpt lat="45.31243" lon="6.18583">
        <ele>2405.2</ele>
        <time>2022-01-27T11:14:05Z</time>
      </trkpt>
      <trkpt lat="45.31243" lon="6.18582">
        <ele>2405.2</ele>
        <time>2022-01-27T11:14:11Z</time>
      </trkpt>
      <trkpt lat="45.31244" lon="6.18582">
        <ele>2405.2</ele>
        <time>2022-01-27T11:14:14Z</time>
      </trkpt>
      <trkpt lat="45.31244" lon="6.18586">
        <ele>2405.2</ele>
        <time>2022-01-27T11:14:22Z</time>
      </trkpt>
      <trkpt lat="45.31244" lon="6.18587">
        <ele>2405.5</ele>
        <time>2022-01-27T11:14:23Z</time>
      </trkpt>
      <trkpt lat="45.31244" lon="6.18588">
        <ele>2405.5</ele>
        <time>2022-01-27T11:14:24Z</time>
      </trkpt>
      <trkpt lat="45.31244" lon="6.18589">
        <ele>2405.5</ele>
        <time>2022-01-27T11:14:25Z</time>
      </trkpt>
      <trkpt lat="45.31244" lon="6.1859">
        <ele>2405.5</ele>
        <time>2022-01-27T11:14:26Z</time>
      </trkpt>
      <trkpt lat="45.31244" lon="6.18591">
        <ele>2405.7</ele>
        <time>2022-01-27T11:14:27Z</time>
      </trkpt>
      <trkpt lat="45.31244" lon="6.18594">
        <ele>2405.7</ele>
        <time>2022-01-27T11:14:29Z</time>
      </trkpt>
      <trkpt lat="45.31244" lon="6.18597">
        <ele>2406</ele>
        <time>2022-01-27T11:14:31Z</time>
      </trkpt>
      <trkpt lat="45.31244" lon="6.18599">
        <ele>2406.4</ele>
        <time>2022-01-27T11:14:32Z</time>
      </trkpt>
      <trkpt lat="45.31244" lon="6.18602">
        <ele>2406.4</ele>
        <time>2022-01-27T11:14:33Z</time>
      </trkpt>
      <trkpt lat="45.31244" lon="6.18604">
        <ele>2406.8</ele>
        <time>2022-01-27T11:14:34Z</time>
      </trkpt>
      <trkpt lat="45.31244" lon="6.18606">
        <ele>2406.8</ele>
        <time>2022-01-27T11:14:36Z</time>
      </trkpt>
      <trkpt lat="45.31245" lon="6.18608">
        <ele>2409.3</ele>
        <time>2022-01-27T11:14:37Z</time>
      </trkpt>
      <trkpt lat="45.31245" lon="6.1861">
        <ele>2409.3</ele>
        <time>2022-01-27T11:14:38Z</time>
      </trkpt>
      <trkpt lat="45.31246" lon="6.18611">
        <ele>2409.3</ele>
        <time>2022-01-27T11:14:40Z</time>
      </trkpt>
      <trkpt lat="45.31246" lon="6.18612">
        <ele>2409.9</ele>
        <time>2022-01-27T11:14:41Z</time>
      </trkpt>
      <trkpt lat="45.31246" lon="6.18613">
        <ele>2409.9</ele>
        <time>2022-01-27T11:14:42Z</time>
      </trkpt>
      <trkpt lat="45.31246" lon="6.18614">
        <ele>2409.9</ele>
        <time>2022-01-27T11:14:43Z</time>
      </trkpt>
      <trkpt lat="45.31247" lon="6.18614">
        <ele>2409.9</ele>
        <time>2022-01-27T11:14:44Z</time>
      </trkpt>
      <trkpt lat="45.31247" lon="6.18615">
        <ele>2409.9</ele>
        <time>2022-01-27T11:14:45Z</time>
      </trkpt>
      <trkpt lat="45.31247" lon="6.18616">
        <ele>2409.9</ele>
        <time>2022-01-27T11:14:46Z</time>
      </trkpt>
      <trkpt lat="45.31247" lon="6.18617">
        <ele>2410.6</ele>
        <time>2022-01-27T11:14:48Z</time>
      </trkpt>
      <trkpt lat="45.31252" lon="6.18632">
        <ele>2416.9</ele>
        <time>2022-01-27T11:15:10Z</time>
      </trkpt>
      <trkpt lat="45.31252" lon="6.18633">
        <ele>2417.8</ele>
        <time>2022-01-27T11:15:11Z</time>
      </trkpt>
      <trkpt lat="45.31252" lon="6.18635">
        <ele>2417.8</ele>
        <time>2022-01-27T11:15:12Z</time>
      </trkpt>
      <trkpt lat="45.31252" lon="6.18636">
        <ele>2417.8</ele>
        <time>2022-01-27T11:15:13Z</time>
      </trkpt>
      <trkpt lat="45.31253" lon="6.18638">
        <ele>2418.8</ele>
        <time>2022-01-27T11:15:14Z</time>
      </trkpt>
      <trkpt lat="45.31253" lon="6.1864">
        <ele>2418.8</ele>
        <time>2022-01-27T11:15:15Z</time>
      </trkpt>
      <trkpt lat="45.31253" lon="6.18641">
        <ele>2418.8</ele>
        <time>2022-01-27T11:15:16Z</time>
      </trkpt>
      <trkpt lat="45.31253" lon="6.18643">
        <ele>2419.7</ele>
        <time>2022-01-27T11:15:17Z</time>
      </trkpt>
      <trkpt lat="45.31253" lon="6.18644">
        <ele>2419.7</ele>
        <time>2022-01-27T11:15:18Z</time>
      </trkpt>
      <trkpt lat="45.31252" lon="6.18645">
        <ele>2419.7</ele>
        <time>2022-01-27T11:15:19Z</time>
      </trkpt>
      <trkpt lat="45.31252" lon="6.18646">
        <ele>2419.7</ele>
        <time>2022-01-27T11:15:24Z</time>
      </trkpt>
      <trkpt lat="45.31253" lon="6.18647">
        <ele>2420.6</ele>
        <time>2022-01-27T11:15:26Z</time>
      </trkpt>
      <trkpt lat="45.31253" lon="6.18648">
        <ele>2420.6</ele>
        <time>2022-01-27T11:15:27Z</time>
      </trkpt>
      <trkpt lat="45.31253" lon="6.18649">
        <ele>2420.6</ele>
        <time>2022-01-27T11:15:28Z</time>
      </trkpt>
      <trkpt lat="45.31253" lon="6.18651">
        <ele>2421.5</ele>
        <time>2022-01-27T11:15:29Z</time>
      </trkpt>
      <trkpt lat="45.31253" lon="6.18652">
        <ele>2421.5</ele>
        <time>2022-01-27T11:15:31Z</time>
      </trkpt>
      <trkpt lat="45.31253" lon="6.18653">
        <ele>2421.5</ele>
        <time>2022-01-27T11:15:32Z</time>
      </trkpt>
      <trkpt lat="45.31254" lon="6.18654">
        <ele>2423.1</ele>
        <time>2022-01-27T11:15:35Z</time>
      </trkpt>
      <trkpt lat="45.31255" lon="6.18654">
        <ele>2423.1</ele>
        <time>2022-01-27T11:15:37Z</time>
      </trkpt>
      <trkpt lat="45.31256" lon="6.18653">
        <ele>2423.1</ele>
        <time>2022-01-27T11:15:41Z</time>
      </trkpt>
      <trkpt lat="45.31261" lon="6.1865">
        <ele>2425.3</ele>
        <time>2022-01-27T11:16:22Z</time>
      </trkpt>
      <trkpt lat="45.31262" lon="6.18649">
        <ele>2426.8</ele>
        <time>2022-01-27T11:16:24Z</time>
      </trkpt>
      <trkpt lat="45.31263" lon="6.18649">
        <ele>2426.8</ele>
        <time>2022-01-27T11:16:25Z</time>
      </trkpt>
      <trkpt lat="45.31264" lon="6.18649">
        <ele>2426.8</ele>
        <time>2022-01-27T11:16:26Z</time>
      </trkpt>
      <trkpt lat="45.31266" lon="6.18648">
        <ele>2428.3</ele>
        <time>2022-01-27T11:16:27Z</time>
      </trkpt>
      <trkpt lat="45.31267" lon="6.18647">
        <ele>2428.3</ele>
        <time>2022-01-27T11:16:28Z</time>
      </trkpt>
      <trkpt lat="45.31267" lon="6.18646">
        <ele>2427.6</ele>
        <time>2022-01-27T11:16:29Z</time>
      </trkpt>
      <trkpt lat="45.31268" lon="6.18645">
        <ele>2429.2</ele>
        <time>2022-01-27T11:16:31Z</time>
      </trkpt>
      <trkpt lat="45.31269" lon="6.18643">
        <ele>2429.2</ele>
        <time>2022-01-27T11:16:32Z</time>
      </trkpt>
      <trkpt lat="45.3127" lon="6.18643">
        <ele>2429.2</ele>
        <time>2022-01-27T11:16:33Z</time>
      </trkpt>
      <trkpt lat="45.3127" lon="6.18641">
        <ele>2428.5</ele>
        <time>2022-01-27T11:16:34Z</time>
      </trkpt>
      <trkpt lat="45.31271" lon="6.1864">
        <ele>2428.5</ele>
        <time>2022-01-27T11:16:35Z</time>
      </trkpt>
      <trkpt lat="45.31272" lon="6.18639">
        <ele>2430.1</ele>
        <time>2022-01-27T11:16:36Z</time>
      </trkpt>
      <trkpt lat="45.31272" lon="6.18637">
        <ele>2429.6</ele>
        <time>2022-01-27T11:16:37Z</time>
      </trkpt>
      <trkpt lat="45.31273" lon="6.18635">
        <ele>2429.6</ele>
        <time>2022-01-27T11:16:38Z</time>
      </trkpt>
      <trkpt lat="45.31273" lon="6.18634">
        <ele>2429.6</ele>
        <time>2022-01-27T11:16:40Z</time>
      </trkpt>
      <trkpt lat="45.31273" lon="6.18633">
        <ele>2429</ele>
        <time>2022-01-27T11:16:41Z</time>
      </trkpt>
      <trkpt lat="45.31274" lon="6.18632">
        <ele>2429</ele>
        <time>2022-01-27T11:16:42Z</time>
      </trkpt>
      <trkpt lat="45.31274" lon="6.18631">
        <ele>2429</ele>
        <time>2022-01-27T11:16:43Z</time>
      </trkpt>
      <trkpt lat="45.31274" lon="6.1863">
        <ele>2429</ele>
        <time>2022-01-27T11:16:44Z</time>
      </trkpt>
      <trkpt lat="45.31274" lon="6.18629">
        <ele>2428.4</ele>
        <time>2022-01-27T11:16:45Z</time>
      </trkpt>
      <trkpt lat="45.31275" lon="6.18628">
        <ele>2430.2</ele>
        <time>2022-01-27T11:16:46Z</time>
      </trkpt>
      <trkpt lat="45.31275" lon="6.18627">
        <ele>2430.2</ele>
        <time>2022-01-27T11:16:47Z</time>
      </trkpt>
      <trkpt lat="45.31275" lon="6.18626">
        <ele>2430.2</ele>
        <time>2022-01-27T11:16:48Z</time>
      </trkpt>
      <trkpt lat="45.31275" lon="6.18625">
        <ele>2430.2</ele>
        <time>2022-01-27T11:16:49Z</time>
      </trkpt>
      <trkpt lat="45.31275" lon="6.18624">
        <ele>2429.7</ele>
        <time>2022-01-27T11:16:50Z</time>
      </trkpt>
      <trkpt lat="45.31275" lon="6.18623">
        <ele>2429.7</ele>
        <time>2022-01-27T11:16:51Z</time>
      </trkpt>
      <trkpt lat="45.31275" lon="6.18622">
        <ele>2429.7</ele>
        <time>2022-01-27T11:16:52Z</time>
      </trkpt>
      <trkpt lat="45.31275" lon="6.18621">
        <ele>2429.7</ele>
        <time>2022-01-27T11:16:53Z</time>
      </trkpt>
      <trkpt lat="45.31275" lon="6.18618">
        <ele>2429.2</ele>
        <time>2022-01-27T11:16:55Z</time>
      </trkpt>
      <trkpt lat="45.31275" lon="6.18617">
        <ele>2429.2</ele>
        <time>2022-01-27T11:16:56Z</time>
      </trkpt>
      <trkpt lat="45.31275" lon="6.18616">
        <ele>2428.8</ele>
        <time>2022-01-27T11:16:57Z</time>
      </trkpt>
      <trkpt lat="45.31275" lon="6.18615">
        <ele>2428.8</ele>
        <time>2022-01-27T11:16:58Z</time>
      </trkpt>
      <trkpt lat="45.31275" lon="6.18613">
        <ele>2428.8</ele>
        <time>2022-01-27T11:16:59Z</time>
      </trkpt>
      <trkpt lat="45.31275" lon="6.18611">
        <ele>2428.3</ele>
        <time>2022-01-27T11:17:01Z</time>
      </trkpt>
      <trkpt lat="45.31275" lon="6.1861">
        <ele>2428.3</ele>
        <time>2022-01-27T11:17:02Z</time>
      </trkpt>
      <trkpt lat="45.31275" lon="6.18609">
        <ele>2428.3</ele>
        <time>2022-01-27T11:17:03Z</time>
      </trkpt>
      <trkpt lat="45.31275" lon="6.18608">
        <ele>2427.9</ele>
        <time>2022-01-27T11:17:04Z</time>
      </trkpt>
      <trkpt lat="45.31275" lon="6.18606">
        <ele>2427.9</ele>
        <time>2022-01-27T11:17:05Z</time>
      </trkpt>
      <trkpt lat="45.31276" lon="6.18605">
        <ele>2427.9</ele>
        <time>2022-01-27T11:17:06Z</time>
      </trkpt>
      <trkpt lat="45.31276" lon="6.18604">
        <ele>2427.9</ele>
        <time>2022-01-27T11:17:07Z</time>
      </trkpt>
      <trkpt lat="45.31276" lon="6.18602">
        <ele>2427.6</ele>
        <time>2022-01-27T11:17:08Z</time>
      </trkpt>
      <trkpt lat="45.31277" lon="6.18601">
        <ele>2427.6</ele>
        <time>2022-01-27T11:17:10Z</time>
      </trkpt>
      <trkpt lat="45.31277" lon="6.186">
        <ele>2427.6</ele>
        <time>2022-01-27T11:17:11Z</time>
      </trkpt>
      <trkpt lat="45.31278" lon="6.18599">
        <ele>2429.6</ele>
        <time>2022-01-27T11:17:12Z</time>
      </trkpt>
      <trkpt lat="45.31278" lon="6.18598">
        <ele>2429.3</ele>
        <time>2022-01-27T11:17:13Z</time>
      </trkpt>
      <trkpt lat="45.31279" lon="6.18598">
        <ele>2429.3</ele>
        <time>2022-01-27T11:17:14Z</time>
      </trkpt>
      <trkpt lat="45.31279" lon="6.18597">
        <ele>2429.3</ele>
        <time>2022-01-27T11:17:15Z</time>
      </trkpt>
      <trkpt lat="45.31279" lon="6.18596">
        <ele>2429.3</ele>
        <time>2022-01-27T11:17:16Z</time>
      </trkpt>
      <trkpt lat="45.3128" lon="6.18596">
        <ele>2429.3</ele>
        <time>2022-01-27T11:17:17Z</time>
      </trkpt>
      <trkpt lat="45.31281" lon="6.18594">
        <ele>2431.1</ele>
        <time>2022-01-27T11:17:18Z</time>
      </trkpt>
      <trkpt lat="45.31281" lon="6.18593">
        <ele>2431.1</ele>
        <time>2022-01-27T11:17:20Z</time>
      </trkpt>
      <trkpt lat="45.31282" lon="6.18593">
        <ele>2431.1</ele>
        <time>2022-01-27T11:17:21Z</time>
      </trkpt>
      <trkpt lat="45.31282" lon="6.18592">
        <ele>2431.1</ele>
        <time>2022-01-27T11:17:22Z</time>
      </trkpt>
      <trkpt lat="45.31282" lon="6.18591">
        <ele>2431.1</ele>
        <time>2022-01-27T11:17:23Z</time>
      </trkpt>
      <trkpt lat="45.31283" lon="6.18591">
        <ele>2431.1</ele>
        <time>2022-01-27T11:17:24Z</time>
      </trkpt>
      <trkpt lat="45.31283" lon="6.1859">
        <ele>2430.9</ele>
        <time>2022-01-27T11:17:25Z</time>
      </trkpt>
      <trkpt lat="45.31283" lon="6.18589">
        <ele>2430.9</ele>
        <time>2022-01-27T11:17:26Z</time>
      </trkpt>
      <trkpt lat="45.31283" lon="6.18588">
        <ele>2430.9</ele>
        <time>2022-01-27T11:17:27Z</time>
      </trkpt>
      <trkpt lat="45.31284" lon="6.18587">
        <ele>2432.9</ele>
        <time>2022-01-27T11:17:28Z</time>
      </trkpt>
      <trkpt lat="45.31284" lon="6.18586">
        <ele>2432.7</ele>
        <time>2022-01-27T11:17:31Z</time>
      </trkpt>
      <trkpt lat="45.31284" lon="6.18587">
        <ele>2432.9</ele>
        <time>2022-01-27T11:17:33Z</time>
      </trkpt>
      <trkpt lat="45.31283" lon="6.18587">
        <ele>2430.9</ele>
        <time>2022-01-27T11:17:35Z</time>
      </trkpt>
      <trkpt lat="45.31283" lon="6.18588">
        <ele>2430.9</ele>
        <time>2022-01-27T11:17:37Z</time>
      </trkpt>
      <trkpt lat="45.31283" lon="6.18587">
        <ele>2430.9</ele>
        <time>2022-01-27T11:17:40Z</time>
      </trkpt>
      <trkpt lat="45.31284" lon="6.18587">
        <ele>2432.9</ele>
        <time>2022-01-27T11:17:41Z</time>
      </trkpt>
      <trkpt lat="45.31284" lon="6.18586">
        <ele>2432.9</ele>
        <time>2022-01-27T11:17:42Z</time>
      </trkpt>
      <trkpt lat="45.31285" lon="6.18586">
        <ele>2432.7</ele>
        <time>2022-01-27T11:17:44Z</time>
      </trkpt>
      <trkpt lat="45.31285" lon="6.18585">
        <ele>2432.7</ele>
        <time>2022-01-27T11:17:45Z</time>
      </trkpt>
      <trkpt lat="45.31285" lon="6.18586">
        <ele>2432.7</ele>
        <time>2022-01-27T11:17:46Z</time>
      </trkpt>
      <trkpt lat="45.31286" lon="6.18586">
        <ele>2432.7</ele>
        <time>2022-01-27T11:17:48Z</time>
      </trkpt>
      <trkpt lat="45.31287" lon="6.18586">
        <ele>2432.9</ele>
        <time>2022-01-27T11:17:51Z</time>
      </trkpt>
      <trkpt lat="45.31287" lon="6.18587">
        <ele>2434.7</ele>
        <time>2022-01-27T11:17:52Z</time>
      </trkpt>
      <trkpt lat="45.31287" lon="6.18588">
        <ele>2434.7</ele>
        <time>2022-01-27T11:17:53Z</time>
      </trkpt>
      <trkpt lat="45.31288" lon="6.18589">
        <ele>2434.7</ele>
        <time>2022-01-27T11:17:55Z</time>
      </trkpt>
      <trkpt lat="45.31288" lon="6.1859">
        <ele>2434.9</ele>
        <time>2022-01-27T11:17:56Z</time>
      </trkpt>
      <trkpt lat="45.31288" lon="6.18591">
        <ele>2434.9</ele>
        <time>2022-01-27T11:17:58Z</time>
      </trkpt>
      <trkpt lat="45.31288" lon="6.18592">
        <ele>2434.9</ele>
        <time>2022-01-27T11:17:59Z</time>
      </trkpt>
      <trkpt lat="45.31288" lon="6.18593">
        <ele>2434.9</ele>
        <time>2022-01-27T11:18:00Z</time>
      </trkpt>
      <trkpt lat="45.31288" lon="6.18594">
        <ele>2434.9</ele>
        <time>2022-01-27T11:18:01Z</time>
      </trkpt>
      <trkpt lat="45.31289" lon="6.18595">
        <ele>2434.9</ele>
        <time>2022-01-27T11:18:02Z</time>
      </trkpt>
      <trkpt lat="45.31289" lon="6.18596">
        <ele>2435.1</ele>
        <time>2022-01-27T11:18:04Z</time>
      </trkpt>
      <trkpt lat="45.31289" lon="6.18598">
        <ele>2435.1</ele>
        <time>2022-01-27T11:18:06Z</time>
      </trkpt>
      <trkpt lat="45.31289" lon="6.186">
        <ele>2435.4</ele>
        <time>2022-01-27T11:18:08Z</time>
      </trkpt>
      <trkpt lat="45.31289" lon="6.18601">
        <ele>2435.4</ele>
        <time>2022-01-27T11:18:09Z</time>
      </trkpt>
      <trkpt lat="45.31289" lon="6.18602">
        <ele>2435.4</ele>
        <time>2022-01-27T11:18:10Z</time>
      </trkpt>
      <trkpt lat="45.31289" lon="6.18603">
        <ele>2435.4</ele>
        <time>2022-01-27T11:18:11Z</time>
      </trkpt>
      <trkpt lat="45.31289" lon="6.18604">
        <ele>2435.7</ele>
        <time>2022-01-27T11:18:12Z</time>
      </trkpt>
      <trkpt lat="45.31289" lon="6.18605">
        <ele>2435.7</ele>
        <time>2022-01-27T11:18:13Z</time>
      </trkpt>
      <trkpt lat="45.31289" lon="6.18606">
        <ele>2435.7</ele>
        <time>2022-01-27T11:18:14Z</time>
      </trkpt>
      <trkpt lat="45.3129" lon="6.18607">
        <ele>2437.3</ele>
        <time>2022-01-27T11:18:15Z</time>
      </trkpt>
      <trkpt lat="45.3129" lon="6.18608">
        <ele>2437.6</ele>
        <time>2022-01-27T11:18:16Z</time>
      </trkpt>
      <trkpt lat="45.3129" lon="6.18609">
        <ele>2437.6</ele>
        <time>2022-01-27T11:18:17Z</time>
      </trkpt>
      <trkpt lat="45.31291" lon="6.18611">
        <ele>2437.6</ele>
        <time>2022-01-27T11:18:19Z</time>
      </trkpt>
      <trkpt lat="45.31291" lon="6.18612">
        <ele>2437.6</ele>
        <time>2022-01-27T11:18:20Z</time>
      </trkpt>
      <trkpt lat="45.31292" lon="6.18613">
        <ele>2437.9</ele>
        <time>2022-01-27T11:18:22Z</time>
      </trkpt>
      <trkpt lat="45.31292" lon="6.18614">
        <ele>2437.9</ele>
        <time>2022-01-27T11:18:23Z</time>
      </trkpt>
      <trkpt lat="45.31293" lon="6.18615">
        <ele>2437.9</ele>
        <time>2022-01-27T11:18:24Z</time>
      </trkpt>
      <trkpt lat="45.31293" lon="6.18616">
        <ele>2439.8</ele>
        <time>2022-01-27T11:18:26Z</time>
      </trkpt>
      <trkpt lat="45.31294" lon="6.18617">
        <ele>2439.8</ele>
        <time>2022-01-27T11:18:27Z</time>
      </trkpt>
      <trkpt lat="45.31295" lon="6.18617">
        <ele>2439.8</ele>
        <time>2022-01-27T11:18:28Z</time>
      </trkpt>
      <trkpt lat="45.31296" lon="6.18616">
        <ele>2441.3</ele>
        <time>2022-01-27T11:18:30Z</time>
      </trkpt>
      <trkpt lat="45.31296" lon="6.18615">
        <ele>2441</ele>
        <time>2022-01-27T11:18:31Z</time>
      </trkpt>
      <trkpt lat="45.31296" lon="6.18613">
        <ele>2441</ele>
        <time>2022-01-27T11:18:33Z</time>
      </trkpt>
      <trkpt lat="45.31297" lon="6.18612">
        <ele>2441</ele>
        <time>2022-01-27T11:18:35Z</time>
      </trkpt>
      <trkpt lat="45.31297" lon="6.18611">
        <ele>2440.6</ele>
        <time>2022-01-27T11:18:37Z</time>
      </trkpt>
      <trkpt lat="45.31298" lon="6.1861">
        <ele>2440.6</ele>
        <time>2022-01-27T11:18:38Z</time>
      </trkpt>
      <trkpt lat="45.31299" lon="6.18608">
        <ele>2442.3</ele>
        <time>2022-01-27T11:18:40Z</time>
      </trkpt>
      <trkpt lat="45.313" lon="6.18607">
        <ele>2442</ele>
        <time>2022-01-27T11:18:42Z</time>
      </trkpt>
      <trkpt lat="45.313" lon="6.18606">
        <ele>2442</ele>
        <time>2022-01-27T11:18:44Z</time>
      </trkpt>
      <trkpt lat="45.31301" lon="6.18605">
        <ele>2442</ele>
        <time>2022-01-27T11:18:45Z</time>
      </trkpt>
      <trkpt lat="45.31301" lon="6.18604">
        <ele>2442</ele>
        <time>2022-01-27T11:18:47Z</time>
      </trkpt>
      <trkpt lat="45.31301" lon="6.18603">
        <ele>2441.8</ele>
        <time>2022-01-27T11:18:48Z</time>
      </trkpt>
      <trkpt lat="45.31301" lon="6.18602">
        <ele>2441.8</ele>
        <time>2022-01-27T11:18:49Z</time>
      </trkpt>
      <trkpt lat="45.31302" lon="6.18601">
        <ele>2441.8</ele>
        <time>2022-01-27T11:18:50Z</time>
      </trkpt>
      <trkpt lat="45.31301" lon="6.186">
        <ele>2441.8</ele>
        <time>2022-01-27T11:18:51Z</time>
      </trkpt>
      <trkpt lat="45.31302" lon="6.18599">
        <ele>2441.8</ele>
        <time>2022-01-27T11:18:52Z</time>
      </trkpt>
      <trkpt lat="45.31301" lon="6.18598">
        <ele>2441.6</ele>
        <time>2022-01-27T11:18:53Z</time>
      </trkpt>
      <trkpt lat="45.31301" lon="6.18597">
        <ele>2441.6</ele>
        <time>2022-01-27T11:18:54Z</time>
      </trkpt>
      <trkpt lat="45.31301" lon="6.18595">
        <ele>2441.6</ele>
        <time>2022-01-27T11:18:55Z</time>
      </trkpt>
      <trkpt lat="45.31302" lon="6.18594">
        <ele>2441.4</ele>
        <time>2022-01-27T11:18:56Z</time>
      </trkpt>
      <trkpt lat="45.31302" lon="6.18593">
        <ele>2441.4</ele>
        <time>2022-01-27T11:18:57Z</time>
      </trkpt>
      <trkpt lat="45.31302" lon="6.18592">
        <ele>2443.3</ele>
        <time>2022-01-27T11:18:58Z</time>
      </trkpt>
      <trkpt lat="45.31302" lon="6.18591">
        <ele>2443.3</ele>
        <time>2022-01-27T11:18:59Z</time>
      </trkpt>
      <trkpt lat="45.31302" lon="6.1859">
        <ele>2443.1</ele>
        <time>2022-01-27T11:19:00Z</time>
      </trkpt>
      <trkpt lat="45.31302" lon="6.18589">
        <ele>2443.1</ele>
        <time>2022-01-27T11:19:01Z</time>
      </trkpt>
      <trkpt lat="45.31302" lon="6.18587">
        <ele>2443.1</ele>
        <time>2022-01-27T11:19:02Z</time>
      </trkpt>
      <trkpt lat="45.31302" lon="6.18586">
        <ele>2443.1</ele>
        <time>2022-01-27T11:19:03Z</time>
      </trkpt>
      <trkpt lat="45.31302" lon="6.18585">
        <ele>2443</ele>
        <time>2022-01-27T11:19:04Z</time>
      </trkpt>
      <trkpt lat="45.31302" lon="6.18584">
        <ele>2443</ele>
        <time>2022-01-27T11:19:05Z</time>
      </trkpt>
      <trkpt lat="45.31303" lon="6.18583">
        <ele>2443</ele>
        <time>2022-01-27T11:19:07Z</time>
      </trkpt>
      <trkpt lat="45.31304" lon="6.18583">
        <ele>2443</ele>
        <time>2022-01-27T11:19:10Z</time>
      </trkpt>
      <trkpt lat="45.31304" lon="6.18584">
        <ele>2443</ele>
        <time>2022-01-27T11:19:12Z</time>
      </trkpt>
      <trkpt lat="45.31304" lon="6.18585">
        <ele>2443</ele>
        <time>2022-01-27T11:19:14Z</time>
      </trkpt>
      <trkpt lat="45.31304" lon="6.18586">
        <ele>2443</ele>
        <time>2022-01-27T11:19:16Z</time>
      </trkpt>
      <trkpt lat="45.31304" lon="6.18588">
        <ele>2443.1</ele>
        <time>2022-01-27T11:19:19Z</time>
      </trkpt>
      <trkpt lat="45.31304" lon="6.18589">
        <ele>2443.1</ele>
        <time>2022-01-27T11:19:21Z</time>
      </trkpt>
      <trkpt lat="45.31305" lon="6.18589">
        <ele>2443.1</ele>
        <time>2022-01-27T11:19:22Z</time>
      </trkpt>
      <trkpt lat="45.31305" lon="6.1859">
        <ele>2445.2</ele>
        <time>2022-01-27T11:19:23Z</time>
      </trkpt>
      <trkpt lat="45.31305" lon="6.18591">
        <ele>2445.2</ele>
        <time>2022-01-27T11:19:24Z</time>
      </trkpt>
      <trkpt lat="45.31305" lon="6.18592">
        <ele>2445.2</ele>
        <time>2022-01-27T11:19:25Z</time>
      </trkpt>
      <trkpt lat="45.31306" lon="6.18594">
        <ele>2445.2</ele>
        <time>2022-01-27T11:19:26Z</time>
      </trkpt>
      <trkpt lat="45.31306" lon="6.18596">
        <ele>2445.4</ele>
        <time>2022-01-27T11:19:28Z</time>
      </trkpt>
      <trkpt lat="45.31306" lon="6.18597">
        <ele>2445.4</ele>
        <time>2022-01-27T11:19:29Z</time>
      </trkpt>
      <trkpt lat="45.31307" lon="6.18598">
        <ele>2445.4</ele>
        <time>2022-01-27T11:19:31Z</time>
      </trkpt>
      <trkpt lat="45.31307" lon="6.18599">
        <ele>2445.6</ele>
        <time>2022-01-27T11:19:32Z</time>
      </trkpt>
      <trkpt lat="45.31307" lon="6.186">
        <ele>2445.6</ele>
        <time>2022-01-27T11:19:33Z</time>
      </trkpt>
      <trkpt lat="45.31307" lon="6.18601">
        <ele>2445.6</ele>
        <time>2022-01-27T11:19:34Z</time>
      </trkpt>
      <trkpt lat="45.31307" lon="6.18602">
        <ele>2445.6</ele>
        <time>2022-01-27T11:19:35Z</time>
      </trkpt>
      <trkpt lat="45.31307" lon="6.18603">
        <ele>2445.8</ele>
        <time>2022-01-27T11:19:36Z</time>
      </trkpt>
      <trkpt lat="45.31307" lon="6.18605">
        <ele>2445.8</ele>
        <time>2022-01-27T11:19:37Z</time>
      </trkpt>
      <trkpt lat="45.31308" lon="6.18606">
        <ele>2445.8</ele>
        <time>2022-01-27T11:19:39Z</time>
      </trkpt>
      <trkpt lat="45.31308" lon="6.18607">
        <ele>2447.7</ele>
        <time>2022-01-27T11:19:40Z</time>
      </trkpt>
      <trkpt lat="45.31308" lon="6.18608">
        <ele>2447.9</ele>
        <time>2022-01-27T11:19:41Z</time>
      </trkpt>
      <trkpt lat="45.31309" lon="6.18608">
        <ele>2447.9</ele>
        <time>2022-01-27T11:19:42Z</time>
      </trkpt>
      <trkpt lat="45.3131" lon="6.18607">
        <ele>2447.7</ele>
        <time>2022-01-27T11:19:44Z</time>
      </trkpt>
      <trkpt lat="45.31311" lon="6.18606">
        <ele>2447.7</ele>
        <time>2022-01-27T11:19:45Z</time>
      </trkpt>
      <trkpt lat="45.31311" lon="6.18605">
        <ele>2449.4</ele>
        <time>2022-01-27T11:19:47Z</time>
      </trkpt>
      <trkpt lat="45.31312" lon="6.18603">
        <ele>2449.4</ele>
        <time>2022-01-27T11:19:49Z</time>
      </trkpt>
      <trkpt lat="45.31312" lon="6.18602">
        <ele>2449.2</ele>
        <time>2022-01-27T11:19:51Z</time>
      </trkpt>
      <trkpt lat="45.31312" lon="6.18601">
        <ele>2449.2</ele>
        <time>2022-01-27T11:19:52Z</time>
      </trkpt>
      <trkpt lat="45.31313" lon="6.186">
        <ele>2449.2</ele>
        <time>2022-01-27T11:19:53Z</time>
      </trkpt>
      <trkpt lat="45.31313" lon="6.18598">
        <ele>2449</ele>
        <time>2022-01-27T11:19:55Z</time>
      </trkpt>
      <trkpt lat="45.31313" lon="6.18597">
        <ele>2449</ele>
        <time>2022-01-27T11:19:56Z</time>
      </trkpt>
      <trkpt lat="45.31313" lon="6.18596">
        <ele>2449</ele>
        <time>2022-01-27T11:19:58Z</time>
      </trkpt>
      <trkpt lat="45.31313" lon="6.18595">
        <ele>2449</ele>
        <time>2022-01-27T11:19:59Z</time>
      </trkpt>
      <trkpt lat="45.31313" lon="6.18594">
        <ele>2448.9</ele>
        <time>2022-01-27T11:20:00Z</time>
      </trkpt>
      <trkpt lat="45.31313" lon="6.18593">
        <ele>2448.9</ele>
        <time>2022-01-27T11:20:02Z</time>
      </trkpt>
      <trkpt lat="45.31313" lon="6.18592">
        <ele>2448.9</ele>
        <time>2022-01-27T11:20:03Z</time>
      </trkpt>
      <trkpt lat="45.31313" lon="6.1859">
        <ele>2448.9</ele>
        <time>2022-01-27T11:20:04Z</time>
      </trkpt>
      <trkpt lat="45.31313" lon="6.18589">
        <ele>2448.8</ele>
        <time>2022-01-27T11:20:05Z</time>
      </trkpt>
      <trkpt lat="45.31313" lon="6.18588">
        <ele>2448.8</ele>
        <time>2022-01-27T11:20:06Z</time>
      </trkpt>
      <trkpt lat="45.31313" lon="6.18587">
        <ele>2448.8</ele>
        <time>2022-01-27T11:20:08Z</time>
      </trkpt>
      <trkpt lat="45.31314" lon="6.18587">
        <ele>2450.4</ele>
        <time>2022-01-27T11:20:11Z</time>
      </trkpt>
      <trkpt lat="45.31315" lon="6.18586">
        <ele>2450.4</ele>
        <time>2022-01-27T11:20:12Z</time>
      </trkpt>
      <trkpt lat="45.31315" lon="6.18587">
        <ele>2450.4</ele>
        <time>2022-01-27T11:20:13Z</time>
      </trkpt>
      <trkpt lat="45.31315" lon="6.18588">
        <ele>2450.4</ele>
        <time>2022-01-27T11:20:14Z</time>
      </trkpt>
      <trkpt lat="45.31316" lon="6.18589">
        <ele>2450.4</ele>
        <time>2022-01-27T11:20:15Z</time>
      </trkpt>
      <trkpt lat="45.31316" lon="6.1859">
        <ele>2450.4</ele>
        <time>2022-01-27T11:20:17Z</time>
      </trkpt>
      <trkpt lat="45.31317" lon="6.18592">
        <ele>2452</ele>
        <time>2022-01-27T11:20:19Z</time>
      </trkpt>
      <trkpt lat="45.31317" lon="6.18593">
        <ele>2452</ele>
        <time>2022-01-27T11:20:20Z</time>
      </trkpt>
      <trkpt lat="45.31318" lon="6.18594">
        <ele>2452</ele>
        <time>2022-01-27T11:20:21Z</time>
      </trkpt>
      <trkpt lat="45.31318" lon="6.18595">
        <ele>2452.2</ele>
        <time>2022-01-27T11:20:22Z</time>
      </trkpt>
      <trkpt lat="45.31319" lon="6.18596">
        <ele>2452.2</ele>
        <time>2022-01-27T11:20:23Z</time>
      </trkpt>
      <trkpt lat="45.31319" lon="6.18597">
        <ele>2452.2</ele>
        <time>2022-01-27T11:20:24Z</time>
      </trkpt>
      <trkpt lat="45.31319" lon="6.18598">
        <ele>2452.2</ele>
        <time>2022-01-27T11:20:25Z</time>
      </trkpt>
      <trkpt lat="45.3132" lon="6.18599">
        <ele>2453.7</ele>
        <time>2022-01-27T11:20:27Z</time>
      </trkpt>
      <trkpt lat="45.3132" lon="6.186">
        <ele>2453.9</ele>
        <time>2022-01-27T11:20:28Z</time>
      </trkpt>
      <trkpt lat="45.31321" lon="6.18601">
        <ele>2453.9</ele>
        <time>2022-01-27T11:20:29Z</time>
      </trkpt>
      <trkpt lat="45.31321" lon="6.18602">
        <ele>2453.9</ele>
        <time>2022-01-27T11:20:31Z</time>
      </trkpt>
      <trkpt lat="45.31321" lon="6.18603">
        <ele>2454.1</ele>
        <time>2022-01-27T11:20:32Z</time>
      </trkpt>
      <trkpt lat="45.31322" lon="6.18604">
        <ele>2454.1</ele>
        <time>2022-01-27T11:20:33Z</time>
      </trkpt>
      <trkpt lat="45.31322" lon="6.18605">
        <ele>2454.1</ele>
        <time>2022-01-27T11:20:34Z</time>
      </trkpt>
      <trkpt lat="45.31323" lon="6.18606">
        <ele>2454.1</ele>
        <time>2022-01-27T11:20:35Z</time>
      </trkpt>
      <trkpt lat="45.31324" lon="6.18606">
        <ele>2455.7</ele>
        <time>2022-01-27T11:20:37Z</time>
      </trkpt>
      <trkpt lat="45.31324" lon="6.18605">
        <ele>2455.7</ele>
        <time>2022-01-27T11:20:38Z</time>
      </trkpt>
      <trkpt lat="45.31325" lon="6.18605">
        <ele>2455.7</ele>
        <time>2022-01-27T11:20:40Z</time>
      </trkpt>
      <trkpt lat="45.31325" lon="6.18604">
        <ele>2455.7</ele>
        <time>2022-01-27T11:20:41Z</time>
      </trkpt>
      <trkpt lat="45.31325" lon="6.18603">
        <ele>2455.7</ele>
        <time>2022-01-27T11:20:42Z</time>
      </trkpt>
      <trkpt lat="45.31325" lon="6.18602">
        <ele>2455.4</ele>
        <time>2022-01-27T11:20:44Z</time>
      </trkpt>
      <trkpt lat="45.31325" lon="6.18601">
        <ele>2455.4</ele>
        <time>2022-01-27T11:20:45Z</time>
      </trkpt>
      <trkpt lat="45.31325" lon="6.186">
        <ele>2455.4</ele>
        <time>2022-01-27T11:20:46Z</time>
      </trkpt>
      <trkpt lat="45.31326" lon="6.18599">
        <ele>2455.2</ele>
        <time>2022-01-27T11:20:48Z</time>
      </trkpt>
      <trkpt lat="45.31326" lon="6.18598">
        <ele>2455.2</ele>
        <time>2022-01-27T11:20:49Z</time>
      </trkpt>
      <trkpt lat="45.31326" lon="6.18596">
        <ele>2456.9</ele>
        <time>2022-01-27T11:20:50Z</time>
      </trkpt>
      <trkpt lat="45.31327" lon="6.18595">
        <ele>2456.9</ele>
        <time>2022-01-27T11:20:52Z</time>
      </trkpt>
      <trkpt lat="45.31327" lon="6.18594">
        <ele>2456.7</ele>
        <time>2022-01-27T11:20:53Z</time>
      </trkpt>
      <trkpt lat="45.31327" lon="6.18593">
        <ele>2456.7</ele>
        <time>2022-01-27T11:20:54Z</time>
      </trkpt>
      <trkpt lat="45.31327" lon="6.18592">
        <ele>2456.7</ele>
        <time>2022-01-27T11:20:55Z</time>
      </trkpt>
      <trkpt lat="45.31328" lon="6.18591">
        <ele>2456.7</ele>
        <time>2022-01-27T11:20:56Z</time>
      </trkpt>
      <trkpt lat="45.31328" lon="6.1859">
        <ele>2456.6</ele>
        <time>2022-01-27T11:20:58Z</time>
      </trkpt>
      <trkpt lat="45.31328" lon="6.18589">
        <ele>2456.6</ele>
        <time>2022-01-27T11:20:59Z</time>
      </trkpt>
      <trkpt lat="45.31328" lon="6.18588">
        <ele>2456.6</ele>
        <time>2022-01-27T11:21:02Z</time>
      </trkpt>
      <trkpt lat="45.31327" lon="6.18589">
        <ele>2456.6</ele>
        <time>2022-01-27T11:21:03Z</time>
      </trkpt>
      <trkpt lat="45.31327" lon="6.18588">
        <ele>2456.6</ele>
        <time>2022-01-27T11:21:11Z</time>
      </trkpt>
      <trkpt lat="45.31327" lon="6.18587">
        <ele>2456.6</ele>
        <time>2022-01-27T11:21:12Z</time>
      </trkpt>
      <trkpt lat="45.31327" lon="6.18586">
        <ele>2456.4</ele>
        <time>2022-01-27T11:21:15Z</time>
      </trkpt>
      <trkpt lat="45.31327" lon="6.18585">
        <ele>2456.4</ele>
        <time>2022-01-27T11:21:17Z</time>
      </trkpt>
      <trkpt lat="45.31327" lon="6.18584">
        <ele>2456.4</ele>
        <time>2022-01-27T11:21:18Z</time>
      </trkpt>
      <trkpt lat="45.31327" lon="6.18583">
        <ele>2456.4</ele>
        <time>2022-01-27T11:21:19Z</time>
      </trkpt>
      <trkpt lat="45.31327" lon="6.18582">
        <ele>2456.4</ele>
        <time>2022-01-27T11:21:20Z</time>
      </trkpt>
      <trkpt lat="45.31327" lon="6.18581">
        <ele>2456.3</ele>
        <time>2022-01-27T11:21:21Z</time>
      </trkpt>
      <trkpt lat="45.31327" lon="6.1858">
        <ele>2456.3</ele>
        <time>2022-01-27T11:21:22Z</time>
      </trkpt>
      <trkpt lat="45.31326" lon="6.18579">
        <ele>2456.3</ele>
        <time>2022-01-27T11:21:23Z</time>
      </trkpt>
      <trkpt lat="45.31326" lon="6.18578">
        <ele>2456.3</ele>
        <time>2022-01-27T11:21:24Z</time>
      </trkpt>
      <trkpt lat="45.31326" lon="6.18577">
        <ele>2454.6</ele>
        <time>2022-01-27T11:21:25Z</time>
      </trkpt>
      <trkpt lat="45.31325" lon="6.18576">
        <ele>2454.6</ele>
        <time>2022-01-27T11:21:26Z</time>
      </trkpt>
      <trkpt lat="45.31325" lon="6.18575">
        <ele>2454.6</ele>
        <time>2022-01-27T11:21:27Z</time>
      </trkpt>
      <trkpt lat="45.31324" lon="6.18573">
        <ele>2454.6</ele>
        <time>2022-01-27T11:21:28Z</time>
      </trkpt>
      <trkpt lat="45.31324" lon="6.18571">
        <ele>2454.5</ele>
        <time>2022-01-27T11:21:29Z</time>
      </trkpt>
      <trkpt lat="45.31324" lon="6.1857">
        <ele>2454.5</ele>
        <time>2022-01-27T11:21:31Z</time>
      </trkpt>
      <trkpt lat="45.31324" lon="6.18568">
        <ele>2454.5</ele>
        <time>2022-01-27T11:21:32Z</time>
      </trkpt>
      <trkpt lat="45.31324" lon="6.18567">
        <ele>2454.5</ele>
        <time>2022-01-27T11:21:33Z</time>
      </trkpt>
      <trkpt lat="45.31324" lon="6.18566">
        <ele>2454.5</ele>
        <time>2022-01-27T11:21:34Z</time>
      </trkpt>
      <trkpt lat="45.31324" lon="6.18565">
        <ele>2454.4</ele>
        <time>2022-01-27T11:21:35Z</time>
      </trkpt>
      <trkpt lat="45.31324" lon="6.18564">
        <ele>2454.4</ele>
        <time>2022-01-27T11:21:36Z</time>
      </trkpt>
      <trkpt lat="45.31324" lon="6.18563">
        <ele>2454.4</ele>
        <time>2022-01-27T11:21:37Z</time>
      </trkpt>
      <trkpt lat="45.31325" lon="6.18562">
        <ele>2454.4</ele>
        <time>2022-01-27T11:21:38Z</time>
      </trkpt>
      <trkpt lat="45.31325" lon="6.1856">
        <ele>2454.4</ele>
        <time>2022-01-27T11:21:39Z</time>
      </trkpt>
      <trkpt lat="45.31325" lon="6.18559">
        <ele>2454.4</ele>
        <time>2022-01-27T11:21:41Z</time>
      </trkpt>
      <trkpt lat="45.31326" lon="6.18558">
        <ele>2456</ele>
        <time>2022-01-27T11:21:42Z</time>
      </trkpt>
      <trkpt lat="45.31326" lon="6.18557">
        <ele>2456</ele>
        <time>2022-01-27T11:21:43Z</time>
      </trkpt>
      <trkpt lat="45.31327" lon="6.18556">
        <ele>2456.1</ele>
        <time>2022-01-27T11:21:44Z</time>
      </trkpt>
      <trkpt lat="45.31327" lon="6.18555">
        <ele>2456.1</ele>
        <time>2022-01-27T11:21:45Z</time>
      </trkpt>
      <trkpt lat="45.31328" lon="6.18555">
        <ele>2456.1</ele>
        <time>2022-01-27T11:21:46Z</time>
      </trkpt>
      <trkpt lat="45.31328" lon="6.18554">
        <ele>2456.1</ele>
        <time>2022-01-27T11:21:47Z</time>
      </trkpt>
      <trkpt lat="45.31329" lon="6.18554">
        <ele>2456.1</ele>
        <time>2022-01-27T11:21:48Z</time>
      </trkpt>
      <trkpt lat="45.31329" lon="6.18553">
        <ele>2457.7</ele>
        <time>2022-01-27T11:21:49Z</time>
      </trkpt>
      <trkpt lat="45.3133" lon="6.18552">
        <ele>2457.7</ele>
        <time>2022-01-27T11:21:51Z</time>
      </trkpt>
      <trkpt lat="45.31331" lon="6.1855">
        <ele>2457.7</ele>
        <time>2022-01-27T11:21:53Z</time>
      </trkpt>
      <trkpt lat="45.31331" lon="6.18549">
        <ele>2457.7</ele>
        <time>2022-01-27T11:21:54Z</time>
      </trkpt>
      <trkpt lat="45.31331" lon="6.18548">
        <ele>2457.7</ele>
        <time>2022-01-27T11:21:55Z</time>
      </trkpt>
      <trkpt lat="45.31331" lon="6.18547">
        <ele>2457.8</ele>
        <time>2022-01-27T11:21:57Z</time>
      </trkpt>
      <trkpt lat="45.31331" lon="6.18546">
        <ele>2457.8</ele>
        <time>2022-01-27T11:21:58Z</time>
      </trkpt>
      <trkpt lat="45.31331" lon="6.18544">
        <ele>2457.8</ele>
        <time>2022-01-27T11:21:59Z</time>
      </trkpt>
      <trkpt lat="45.31332" lon="6.18542">
        <ele>2458</ele>
        <time>2022-01-27T11:22:00Z</time>
      </trkpt>
      <trkpt lat="45.31332" lon="6.18541">
        <ele>2458</ele>
        <time>2022-01-27T11:22:02Z</time>
      </trkpt>
      <trkpt lat="45.31332" lon="6.1854">
        <ele>2459.5</ele>
        <time>2022-01-27T11:22:03Z</time>
      </trkpt>
      <trkpt lat="45.31332" lon="6.18539">
        <ele>2459.7</ele>
        <time>2022-01-27T11:22:04Z</time>
      </trkpt>
      <trkpt lat="45.31332" lon="6.18538">
        <ele>2459.7</ele>
        <time>2022-01-27T11:22:05Z</time>
      </trkpt>
      <trkpt lat="45.31332" lon="6.18536">
        <ele>2459.7</ele>
        <time>2022-01-27T11:22:07Z</time>
      </trkpt>
      <trkpt lat="45.31332" lon="6.18535">
        <ele>2459.7</ele>
        <time>2022-01-27T11:22:08Z</time>
      </trkpt>
      <trkpt lat="45.31332" lon="6.18534">
        <ele>2459.9</ele>
        <time>2022-01-27T11:22:09Z</time>
      </trkpt>
      <trkpt lat="45.31332" lon="6.18532">
        <ele>2459.9</ele>
        <time>2022-01-27T11:22:11Z</time>
      </trkpt>
      <trkpt lat="45.31332" lon="6.18531">
        <ele>2459.9</ele>
        <time>2022-01-27T11:22:12Z</time>
      </trkpt>
      <trkpt lat="45.31332" lon="6.18529">
        <ele>2460.3</ele>
        <time>2022-01-27T11:22:15Z</time>
      </trkpt>
      <trkpt lat="45.31332" lon="6.18528">
        <ele>2460.3</ele>
        <time>2022-01-27T11:22:16Z</time>
      </trkpt>
      <trkpt lat="45.31332" lon="6.18527">
        <ele>2460.3</ele>
        <time>2022-01-27T11:22:18Z</time>
      </trkpt>
      <trkpt lat="45.31333" lon="6.18526">
        <ele>2460.3</ele>
        <time>2022-01-27T11:22:20Z</time>
      </trkpt>
      <trkpt lat="45.31334" lon="6.18526">
        <ele>2460.3</ele>
        <time>2022-01-27T11:22:21Z</time>
      </trkpt>
      <trkpt lat="45.31335" lon="6.18526">
        <ele>2461.7</ele>
        <time>2022-01-27T11:22:22Z</time>
      </trkpt>
      <trkpt lat="45.31337" lon="6.18527">
        <ele>2461.7</ele>
        <time>2022-01-27T11:22:24Z</time>
      </trkpt>
      <trkpt lat="45.31338" lon="6.18527">
        <ele>2461.7</ele>
        <time>2022-01-27T11:22:26Z</time>
      </trkpt>
      <trkpt lat="45.31338" lon="6.18528">
        <ele>2463.1</ele>
        <time>2022-01-27T11:22:27Z</time>
      </trkpt>
      <trkpt lat="45.31338" lon="6.18529">
        <ele>2463.1</ele>
        <time>2022-01-27T11:22:30Z</time>
      </trkpt>
      <trkpt lat="45.31338" lon="6.1853">
        <ele>2463.1</ele>
        <time>2022-01-27T11:22:32Z</time>
      </trkpt>
      <trkpt lat="45.31339" lon="6.1853">
        <ele>2462.8</ele>
        <time>2022-01-27T11:22:35Z</time>
      </trkpt>
      <trkpt lat="45.31339" lon="6.18531">
        <ele>2462.8</ele>
        <time>2022-01-27T11:22:36Z</time>
      </trkpt>
      <trkpt lat="45.31342" lon="6.18533">
        <ele>2464.1</ele>
        <time>2022-01-27T11:22:48Z</time>
      </trkpt>
      <trkpt lat="45.31342" lon="6.18534">
        <ele>2464.1</ele>
        <time>2022-01-27T11:22:49Z</time>
      </trkpt>
      <trkpt lat="45.31343" lon="6.18535">
        <ele>2463.9</ele>
        <time>2022-01-27T11:22:50Z</time>
      </trkpt>
      <trkpt lat="45.31343" lon="6.18536">
        <ele>2463.9</ele>
        <time>2022-01-27T11:22:51Z</time>
      </trkpt>
      <trkpt lat="45.31344" lon="6.18537">
        <ele>2463.9</ele>
        <time>2022-01-27T11:22:52Z</time>
      </trkpt>
      <trkpt lat="45.31344" lon="6.18538">
        <ele>2465.2</ele>
        <time>2022-01-27T11:22:53Z</time>
      </trkpt>
      <trkpt lat="45.31345" lon="6.18538">
        <ele>2465.2</ele>
        <time>2022-01-27T11:22:54Z</time>
      </trkpt>
      <trkpt lat="45.31346" lon="6.1854">
        <ele>2465.2</ele>
        <time>2022-01-27T11:22:55Z</time>
      </trkpt>
      <trkpt lat="45.31347" lon="6.18541">
        <ele>2466.5</ele>
        <time>2022-01-27T11:22:57Z</time>
      </trkpt>
      <trkpt lat="45.31348" lon="6.18542">
        <ele>2466.5</ele>
        <time>2022-01-27T11:22:58Z</time>
      </trkpt>
      <trkpt lat="45.31349" lon="6.18543">
        <ele>2466.5</ele>
        <time>2022-01-27T11:23:00Z</time>
      </trkpt>
      <trkpt lat="45.3135" lon="6.18543">
        <ele>2466.5</ele>
        <time>2022-01-27T11:23:01Z</time>
      </trkpt>
      <trkpt lat="45.3135" lon="6.18544">
        <ele>2467.8</ele>
        <time>2022-01-27T11:23:02Z</time>
      </trkpt>
      <trkpt lat="45.31351" lon="6.18545">
        <ele>2467.8</ele>
        <time>2022-01-27T11:23:03Z</time>
      </trkpt>
      <trkpt lat="45.31351" lon="6.18546">
        <ele>2467.8</ele>
        <time>2022-01-27T11:23:04Z</time>
      </trkpt>
      <trkpt lat="45.31352" lon="6.18547">
        <ele>2467.8</ele>
        <time>2022-01-27T11:23:06Z</time>
      </trkpt>
      <trkpt lat="45.31352" lon="6.18548">
        <ele>2467.9</ele>
        <time>2022-01-27T11:23:07Z</time>
      </trkpt>
      <trkpt lat="45.31353" lon="6.18548">
        <ele>2467.9</ele>
        <time>2022-01-27T11:23:08Z</time>
      </trkpt>
      <trkpt lat="45.31354" lon="6.18548">
        <ele>2470.1</ele>
        <time>2022-01-27T11:23:10Z</time>
      </trkpt>
      <trkpt lat="45.31355" lon="6.18547">
        <ele>2469.9</ele>
        <time>2022-01-27T11:23:12Z</time>
      </trkpt>
      <trkpt lat="45.31355" lon="6.18546">
        <ele>2469.9</ele>
        <time>2022-01-27T11:23:14Z</time>
      </trkpt>
      <trkpt lat="45.31356" lon="6.18545">
        <ele>2471.3</ele>
        <time>2022-01-27T11:23:15Z</time>
      </trkpt>
      <trkpt lat="45.31356" lon="6.18544">
        <ele>2471.3</ele>
        <time>2022-01-27T11:23:16Z</time>
      </trkpt>
      <trkpt lat="45.31357" lon="6.18543">
        <ele>2471.3</ele>
        <time>2022-01-27T11:23:17Z</time>
      </trkpt>
      <trkpt lat="45.31357" lon="6.18542">
        <ele>2471.2</ele>
        <time>2022-01-27T11:23:19Z</time>
      </trkpt>
      <trkpt lat="45.31358" lon="6.1854">
        <ele>2471.2</ele>
        <time>2022-01-27T11:23:21Z</time>
      </trkpt>
      <trkpt lat="45.31358" lon="6.18539">
        <ele>2471.2</ele>
        <time>2022-01-27T11:23:23Z</time>
      </trkpt>
      <trkpt lat="45.31358" lon="6.18538">
        <ele>2471.1</ele>
        <time>2022-01-27T11:23:24Z</time>
      </trkpt>
      <trkpt lat="45.31358" lon="6.18537">
        <ele>2471.1</ele>
        <time>2022-01-27T11:23:25Z</time>
      </trkpt>
      <trkpt lat="45.31359" lon="6.18536">
        <ele>2471.1</ele>
        <time>2022-01-27T11:23:26Z</time>
      </trkpt>
      <trkpt lat="45.31359" lon="6.18535">
        <ele>2472.5</ele>
        <time>2022-01-27T11:23:28Z</time>
      </trkpt>
      <trkpt lat="45.31359" lon="6.18534">
        <ele>2472.4</ele>
        <time>2022-01-27T11:23:29Z</time>
      </trkpt>
      <trkpt lat="45.3136" lon="6.18533">
        <ele>2472.4</ele>
        <time>2022-01-27T11:23:30Z</time>
      </trkpt>
      <trkpt lat="45.3136" lon="6.18532">
        <ele>2472.4</ele>
        <time>2022-01-27T11:23:31Z</time>
      </trkpt>
      <trkpt lat="45.3136" lon="6.18531">
        <ele>2472.4</ele>
        <time>2022-01-27T11:23:32Z</time>
      </trkpt>
      <trkpt lat="45.3136" lon="6.1853">
        <ele>2472.2</ele>
        <time>2022-01-27T11:23:33Z</time>
      </trkpt>
      <trkpt lat="45.3136" lon="6.18529">
        <ele>2472.2</ele>
        <time>2022-01-27T11:23:34Z</time>
      </trkpt>
      <trkpt lat="45.3136" lon="6.18528">
        <ele>2472.2</ele>
        <time>2022-01-27T11:23:35Z</time>
      </trkpt>
      <trkpt lat="45.3136" lon="6.18527">
        <ele>2472.2</ele>
        <time>2022-01-27T11:23:36Z</time>
      </trkpt>
      <trkpt lat="45.3136" lon="6.18525">
        <ele>2472.1</ele>
        <time>2022-01-27T11:23:38Z</time>
      </trkpt>
      <trkpt lat="45.3136" lon="6.18524">
        <ele>2472.1</ele>
        <time>2022-01-27T11:23:39Z</time>
      </trkpt>
      <trkpt lat="45.3136" lon="6.18523">
        <ele>2472.1</ele>
        <time>2022-01-27T11:23:40Z</time>
      </trkpt>
      <trkpt lat="45.3136" lon="6.18522">
        <ele>2472.1</ele>
        <time>2022-01-27T11:23:41Z</time>
      </trkpt>
      <trkpt lat="45.3136" lon="6.18521">
        <ele>2471.9</ele>
        <time>2022-01-27T11:23:42Z</time>
      </trkpt>
      <trkpt lat="45.3136" lon="6.1852">
        <ele>2471.9</ele>
        <time>2022-01-27T11:23:43Z</time>
      </trkpt>
      <trkpt lat="45.3136" lon="6.18519">
        <ele>2471.9</ele>
        <time>2022-01-27T11:23:44Z</time>
      </trkpt>
      <trkpt lat="45.3136" lon="6.18518">
        <ele>2471.9</ele>
        <time>2022-01-27T11:23:45Z</time>
      </trkpt>
      <trkpt lat="45.31359" lon="6.18517">
        <ele>2471.8</ele>
        <time>2022-01-27T11:23:46Z</time>
      </trkpt>
      <trkpt lat="45.31359" lon="6.18515">
        <ele>2471.8</ele>
        <time>2022-01-27T11:23:48Z</time>
      </trkpt>
      <trkpt lat="45.31359" lon="6.18514">
        <ele>2470.7</ele>
        <time>2022-01-27T11:23:51Z</time>
      </trkpt>
      <trkpt lat="45.31359" lon="6.18515">
        <ele>2470.7</ele>
        <time>2022-01-27T11:23:54Z</time>
      </trkpt>
      <trkpt lat="45.31359" lon="6.18513">
        <ele>2471.8</ele>
        <time>2022-01-27T11:24:16Z</time>
      </trkpt>
      <trkpt lat="45.31359" lon="6.18512">
        <ele>2470.6</ele>
        <time>2022-01-27T11:24:19Z</time>
      </trkpt>
      <trkpt lat="45.31359" lon="6.18511">
        <ele>2470.6</ele>
        <time>2022-01-27T11:24:20Z</time>
      </trkpt>
      <trkpt lat="45.31359" lon="6.1851">
        <ele>2470.6</ele>
        <time>2022-01-27T11:24:21Z</time>
      </trkpt>
      <trkpt lat="45.31359" lon="6.18509">
        <ele>2470.5</ele>
        <time>2022-01-27T11:24:23Z</time>
      </trkpt>
      <trkpt lat="45.31359" lon="6.18508">
        <ele>2470.5</ele>
        <time>2022-01-27T11:24:24Z</time>
      </trkpt>
      <trkpt lat="45.31359" lon="6.18507">
        <ele>2471.5</ele>
        <time>2022-01-27T11:24:25Z</time>
      </trkpt>
      <trkpt lat="45.31359" lon="6.18506">
        <ele>2471.5</ele>
        <time>2022-01-27T11:24:26Z</time>
      </trkpt>
      <trkpt lat="45.31359" lon="6.18505">
        <ele>2471.5</ele>
        <time>2022-01-27T11:24:27Z</time>
      </trkpt>
      <trkpt lat="45.31359" lon="6.18504">
        <ele>2471.4</ele>
        <time>2022-01-27T11:24:28Z</time>
      </trkpt>
      <trkpt lat="45.3136" lon="6.18504">
        <ele>2471.4</ele>
        <time>2022-01-27T11:24:29Z</time>
      </trkpt>
      <trkpt lat="45.3136" lon="6.18503">
        <ele>2471.4</ele>
        <time>2022-01-27T11:24:30Z</time>
      </trkpt>
      <trkpt lat="45.31361" lon="6.18502">
        <ele>2471.4</ele>
        <time>2022-01-27T11:24:31Z</time>
      </trkpt>
      <trkpt lat="45.31362" lon="6.18502">
        <ele>2471.4</ele>
        <time>2022-01-27T11:24:32Z</time>
      </trkpt>
      <trkpt lat="45.31363" lon="6.18502">
        <ele>2472.4</ele>
        <time>2022-01-27T11:24:34Z</time>
      </trkpt>
      <trkpt lat="45.31364" lon="6.18502">
        <ele>2472.4</ele>
        <time>2022-01-27T11:24:36Z</time>
      </trkpt>
      <trkpt lat="45.31365" lon="6.18502">
        <ele>2472.4</ele>
        <time>2022-01-27T11:24:37Z</time>
      </trkpt>
      <trkpt lat="45.31366" lon="6.18503">
        <ele>2473.4</ele>
        <time>2022-01-27T11:24:39Z</time>
      </trkpt>
      <trkpt lat="45.31367" lon="6.18503">
        <ele>2473.4</ele>
        <time>2022-01-27T11:24:40Z</time>
      </trkpt>
      <trkpt lat="45.31368" lon="6.18503">
        <ele>2474.3</ele>
        <time>2022-01-27T11:24:42Z</time>
      </trkpt>
      <trkpt lat="45.31369" lon="6.18503">
        <ele>2474.3</ele>
        <time>2022-01-27T11:24:43Z</time>
      </trkpt>
      <trkpt lat="45.3137" lon="6.18503">
        <ele>2474.3</ele>
        <time>2022-01-27T11:24:44Z</time>
      </trkpt>
      <trkpt lat="45.3137" lon="6.18504">
        <ele>2474.3</ele>
        <time>2022-01-27T11:24:45Z</time>
      </trkpt>
      <trkpt lat="45.31371" lon="6.18504">
        <ele>2474.3</ele>
        <time>2022-01-27T11:24:46Z</time>
      </trkpt>
      <trkpt lat="45.31372" lon="6.18504">
        <ele>2475.2</ele>
        <time>2022-01-27T11:24:47Z</time>
      </trkpt>
      <trkpt lat="45.31373" lon="6.18504">
        <ele>2475.2</ele>
        <time>2022-01-27T11:24:48Z</time>
      </trkpt>
      <trkpt lat="45.31374" lon="6.18504">
        <ele>2475.2</ele>
        <time>2022-01-27T11:24:50Z</time>
      </trkpt>
      <trkpt lat="45.31374" lon="6.18503">
        <ele>2475.9</ele>
        <time>2022-01-27T11:24:51Z</time>
      </trkpt>
      <trkpt lat="45.31375" lon="6.18503">
        <ele>2475.9</ele>
        <time>2022-01-27T11:24:52Z</time>
      </trkpt>
      <trkpt lat="45.31376" lon="6.18503">
        <ele>2475.9</ele>
        <time>2022-01-27T11:24:53Z</time>
      </trkpt>
      <trkpt lat="45.31378" lon="6.18503">
        <ele>2476.6</ele>
        <time>2022-01-27T11:24:55Z</time>
      </trkpt>
      <trkpt lat="45.31379" lon="6.18502">
        <ele>2476.6</ele>
        <time>2022-01-27T11:24:57Z</time>
      </trkpt>
      <trkpt lat="45.3138" lon="6.18502">
        <ele>2476.6</ele>
        <time>2022-01-27T11:24:59Z</time>
      </trkpt>
      <trkpt lat="45.31381" lon="6.18501">
        <ele>2477.5</ele>
        <time>2022-01-27T11:25:00Z</time>
      </trkpt>
      <trkpt lat="45.31382" lon="6.185">
        <ele>2477.5</ele>
        <time>2022-01-27T11:25:03Z</time>
      </trkpt>
      <trkpt lat="45.31384" lon="6.185">
        <ele>2478.1</ele>
        <time>2022-01-27T11:25:04Z</time>
      </trkpt>
      <trkpt lat="45.31385" lon="6.18499">
        <ele>2478.1</ele>
        <time>2022-01-27T11:25:06Z</time>
      </trkpt>
      <trkpt lat="45.31386" lon="6.18499">
        <ele>2478.1</ele>
        <time>2022-01-27T11:25:07Z</time>
      </trkpt>
      <trkpt lat="45.31387" lon="6.18498">
        <ele>2479.2</ele>
        <time>2022-01-27T11:25:08Z</time>
      </trkpt>
      <trkpt lat="45.31388" lon="6.18498">
        <ele>2479.2</ele>
        <time>2022-01-27T11:25:10Z</time>
      </trkpt>
      <trkpt lat="45.31389" lon="6.18498">
        <ele>2480.3</ele>
        <time>2022-01-27T11:25:11Z</time>
      </trkpt>
      <trkpt lat="45.3139" lon="6.18497">
        <ele>2480.3</ele>
        <time>2022-01-27T11:25:13Z</time>
      </trkpt>
      <trkpt lat="45.31391" lon="6.18497">
        <ele>2480.3</ele>
        <time>2022-01-27T11:25:14Z</time>
      </trkpt>
      <trkpt lat="45.31392" lon="6.18496">
        <ele>2480.3</ele>
        <time>2022-01-27T11:25:16Z</time>
      </trkpt>
      <trkpt lat="45.31393" lon="6.18496">
        <ele>2481.4</ele>
        <time>2022-01-27T11:25:17Z</time>
      </trkpt>
      <trkpt lat="45.31394" lon="6.18495">
        <ele>2481.1</ele>
        <time>2022-01-27T11:25:19Z</time>
      </trkpt>
      <trkpt lat="45.31396" lon="6.18493">
        <ele>2482</ele>
        <time>2022-01-27T11:25:26Z</time>
      </trkpt>
      <trkpt lat="45.31397" lon="6.18493">
        <ele>2482</ele>
        <time>2022-01-27T11:25:27Z</time>
      </trkpt>
      <trkpt lat="45.31398" lon="6.18493">
        <ele>2482</ele>
        <time>2022-01-27T11:25:28Z</time>
      </trkpt>
      <trkpt lat="45.31399" lon="6.18493">
        <ele>2482.9</ele>
        <time>2022-01-27T11:25:30Z</time>
      </trkpt>
      <trkpt lat="45.31399" lon="6.18492">
        <ele>2482.9</ele>
        <time>2022-01-27T11:25:31Z</time>
      </trkpt>
      <trkpt lat="45.314" lon="6.18492">
        <ele>2482.9</ele>
        <time>2022-01-27T11:25:32Z</time>
      </trkpt>
      <trkpt lat="45.314" lon="6.18491">
        <ele>2482.6</ele>
        <time>2022-01-27T11:25:33Z</time>
      </trkpt>
      <trkpt lat="45.31402" lon="6.1849">
        <ele>2483.4</ele>
        <time>2022-01-27T11:25:35Z</time>
      </trkpt>
      <trkpt lat="45.31402" lon="6.18489">
        <ele>2483.4</ele>
        <time>2022-01-27T11:25:36Z</time>
      </trkpt>
      <trkpt lat="45.31403" lon="6.18489">
        <ele>2483.4</ele>
        <time>2022-01-27T11:25:37Z</time>
      </trkpt>
      <trkpt lat="45.31404" lon="6.18488">
        <ele>2483.4</ele>
        <time>2022-01-27T11:25:38Z</time>
      </trkpt>
      <trkpt lat="45.31405" lon="6.18486">
        <ele>2484.1</ele>
        <time>2022-01-27T11:25:39Z</time>
      </trkpt>
      <trkpt lat="45.31406" lon="6.18485">
        <ele>2484.1</ele>
        <time>2022-01-27T11:25:40Z</time>
      </trkpt>
      <trkpt lat="45.31407" lon="6.18484">
        <ele>2484.1</ele>
        <time>2022-01-27T11:25:42Z</time>
      </trkpt>
      <trkpt lat="45.31407" lon="6.18483">
        <ele>2484.8</ele>
        <time>2022-01-27T11:25:43Z</time>
      </trkpt>
      <trkpt lat="45.31408" lon="6.18482">
        <ele>2484.8</ele>
        <time>2022-01-27T11:25:44Z</time>
      </trkpt>
      <trkpt lat="45.31409" lon="6.18481">
        <ele>2484.8</ele>
        <time>2022-01-27T11:25:45Z</time>
      </trkpt>
      <trkpt lat="45.3141" lon="6.1848">
        <ele>2484.8</ele>
        <time>2022-01-27T11:25:46Z</time>
      </trkpt>
      <trkpt lat="45.3141" lon="6.18479">
        <ele>2485.9</ele>
        <time>2022-01-27T11:25:47Z</time>
      </trkpt>
      <trkpt lat="45.31411" lon="6.18479">
        <ele>2485.9</ele>
        <time>2022-01-27T11:25:48Z</time>
      </trkpt>
      <trkpt lat="45.31412" lon="6.18478">
        <ele>2485.7</ele>
        <time>2022-01-27T11:25:49Z</time>
      </trkpt>
      <trkpt lat="45.31413" lon="6.18478">
        <ele>2485.7</ele>
        <time>2022-01-27T11:25:50Z</time>
      </trkpt>
      <trkpt lat="45.31414" lon="6.18477">
        <ele>2486.9</ele>
        <time>2022-01-27T11:25:51Z</time>
      </trkpt>
      <trkpt lat="45.31415" lon="6.18477">
        <ele>2486.9</ele>
        <time>2022-01-27T11:25:58Z</time>
      </trkpt>
      <trkpt lat="45.31415" lon="6.18476">
        <ele>2486.9</ele>
        <time>2022-01-27T11:26:00Z</time>
      </trkpt>
      <trkpt lat="45.31417" lon="6.18473">
        <ele>2487.9</ele>
        <time>2022-01-27T11:26:08Z</time>
      </trkpt>
      <trkpt lat="45.31418" lon="6.18472">
        <ele>2487.9</ele>
        <time>2022-01-27T11:26:10Z</time>
      </trkpt>
      <trkpt lat="45.31419" lon="6.18472">
        <ele>2487.9</ele>
        <time>2022-01-27T11:26:11Z</time>
      </trkpt>
      <trkpt lat="45.31419" lon="6.18471">
        <ele>2489.1</ele>
        <time>2022-01-27T11:26:12Z</time>
      </trkpt>
      <trkpt lat="45.3142" lon="6.1847">
        <ele>2488.9</ele>
        <time>2022-01-27T11:26:13Z</time>
      </trkpt>
      <trkpt lat="45.3142" lon="6.18469">
        <ele>2488.9</ele>
        <time>2022-01-27T11:26:14Z</time>
      </trkpt>
      <trkpt lat="45.31421" lon="6.18468">
        <ele>2488.9</ele>
        <time>2022-01-27T11:26:15Z</time>
      </trkpt>
      <trkpt lat="45.31421" lon="6.18467">
        <ele>2488.9</ele>
        <time>2022-01-27T11:26:16Z</time>
      </trkpt>
      <trkpt lat="45.31421" lon="6.18466">
        <ele>2488.9</ele>
        <time>2022-01-27T11:26:17Z</time>
      </trkpt>
      <trkpt lat="45.31422" lon="6.18465">
        <ele>2488.7</ele>
        <time>2022-01-27T11:26:18Z</time>
      </trkpt>
      <trkpt lat="45.31422" lon="6.18464">
        <ele>2488.7</ele>
        <time>2022-01-27T11:26:19Z</time>
      </trkpt>
      <trkpt lat="45.31422" lon="6.18463">
        <ele>2488.7</ele>
        <time>2022-01-27T11:26:20Z</time>
      </trkpt>
      <trkpt lat="45.31422" lon="6.18462">
        <ele>2488.7</ele>
        <time>2022-01-27T11:26:21Z</time>
      </trkpt>
      <trkpt lat="45.31423" lon="6.18461">
        <ele>2489.8</ele>
        <time>2022-01-27T11:26:23Z</time>
      </trkpt>
      <trkpt lat="45.31423" lon="6.1846">
        <ele>2489.8</ele>
        <time>2022-01-27T11:26:24Z</time>
      </trkpt>
      <trkpt lat="45.31423" lon="6.18459">
        <ele>2489.8</ele>
        <time>2022-01-27T11:26:25Z</time>
      </trkpt>
      <trkpt lat="45.31423" lon="6.18458">
        <ele>2489.8</ele>
        <time>2022-01-27T11:26:26Z</time>
      </trkpt>
      <trkpt lat="45.31423" lon="6.18457">
        <ele>2489.7</ele>
        <time>2022-01-27T11:26:27Z</time>
      </trkpt>
      <trkpt lat="45.31424" lon="6.18457">
        <ele>2489.7</ele>
        <time>2022-01-27T11:26:28Z</time>
      </trkpt>
      <trkpt lat="45.31424" lon="6.18456">
        <ele>2489.7</ele>
        <time>2022-01-27T11:26:29Z</time>
      </trkpt>
      <trkpt lat="45.31424" lon="6.18455">
        <ele>2489.7</ele>
        <time>2022-01-27T11:26:30Z</time>
      </trkpt>
      <trkpt lat="45.31424" lon="6.18454">
        <ele>2489.7</ele>
        <time>2022-01-27T11:26:31Z</time>
      </trkpt>
      <trkpt lat="45.31424" lon="6.18453">
        <ele>2489.7</ele>
        <time>2022-01-27T11:26:32Z</time>
      </trkpt>
      <trkpt lat="45.31424" lon="6.18452">
        <ele>2489.7</ele>
        <time>2022-01-27T11:26:33Z</time>
      </trkpt>
      <trkpt lat="45.31424" lon="6.18451">
        <ele>2489.7</ele>
        <time>2022-01-27T11:26:34Z</time>
      </trkpt>
      <trkpt lat="45.31425" lon="6.1845">
        <ele>2489.7</ele>
        <time>2022-01-27T11:26:36Z</time>
      </trkpt>
      <trkpt lat="45.31425" lon="6.18449">
        <ele>2489.7</ele>
        <time>2022-01-27T11:26:37Z</time>
      </trkpt>
      <trkpt lat="45.31425" lon="6.18448">
        <ele>2490.9</ele>
        <time>2022-01-27T11:26:39Z</time>
      </trkpt>
      <trkpt lat="45.31426" lon="6.18447">
        <ele>2490.9</ele>
        <time>2022-01-27T11:26:41Z</time>
      </trkpt>
      <trkpt lat="45.31427" lon="6.18447">
        <ele>2490.9</ele>
        <time>2022-01-27T11:26:42Z</time>
      </trkpt>
      <trkpt lat="45.31428" lon="6.18446">
        <ele>2490.9</ele>
        <time>2022-01-27T11:26:43Z</time>
      </trkpt>
      <trkpt lat="45.31428" lon="6.18445">
        <ele>2490.9</ele>
        <time>2022-01-27T11:26:44Z</time>
      </trkpt>
      <trkpt lat="45.31429" lon="6.18445">
        <ele>2492.2</ele>
        <time>2022-01-27T11:26:46Z</time>
      </trkpt>
      <trkpt lat="45.3143" lon="6.18444">
        <ele>2492.2</ele>
        <time>2022-01-27T11:26:47Z</time>
      </trkpt>
      <trkpt lat="45.31431" lon="6.18444">
        <ele>2492.2</ele>
        <time>2022-01-27T11:26:49Z</time>
      </trkpt>
      <trkpt lat="45.31432" lon="6.18444">
        <ele>2493.6</ele>
        <time>2022-01-27T11:26:50Z</time>
      </trkpt>
      <trkpt lat="45.31433" lon="6.18444">
        <ele>2493.6</ele>
        <time>2022-01-27T11:26:51Z</time>
      </trkpt>
      <trkpt lat="45.31434" lon="6.18444">
        <ele>2493.6</ele>
        <time>2022-01-27T11:26:54Z</time>
      </trkpt>
      <trkpt lat="45.31435" lon="6.18444">
        <ele>2495.2</ele>
        <time>2022-01-27T11:26:58Z</time>
      </trkpt>
      <trkpt lat="45.31436" lon="6.18444">
        <ele>2495.2</ele>
        <time>2022-01-27T11:27:01Z</time>
      </trkpt>
      <trkpt lat="45.31437" lon="6.18444">
        <ele>2495.2</ele>
        <time>2022-01-27T11:27:03Z</time>
      </trkpt>
      <trkpt lat="45.31438" lon="6.18444">
        <ele>2496.8</ele>
        <time>2022-01-27T11:27:06Z</time>
      </trkpt>
      <trkpt lat="45.31439" lon="6.18444">
        <ele>2496.8</ele>
        <time>2022-01-27T11:27:17Z</time>
      </trkpt>
      <trkpt lat="45.3144" lon="6.18444">
        <ele>2496.8</ele>
        <time>2022-01-27T11:27:19Z</time>
      </trkpt>
      <trkpt lat="45.31441" lon="6.18444">
        <ele>2498.6</ele>
        <time>2022-01-27T11:27:21Z</time>
      </trkpt>
      <trkpt lat="45.31442" lon="6.18444">
        <ele>2498.6</ele>
        <time>2022-01-27T11:27:25Z</time>
      </trkpt>
      <trkpt lat="45.31443" lon="6.18444">
        <ele>2498.6</ele>
        <time>2022-01-27T11:27:26Z</time>
      </trkpt>
      <trkpt lat="45.31443" lon="6.18443">
        <ele>2498.6</ele>
        <time>2022-01-27T11:27:28Z</time>
      </trkpt>
      <trkpt lat="45.31444" lon="6.18443">
        <ele>2500.5</ele>
        <time>2022-01-27T11:27:29Z</time>
      </trkpt>
      <trkpt lat="45.31445" lon="6.18443">
        <ele>2500.5</ele>
        <time>2022-01-27T11:27:32Z</time>
      </trkpt>
      <trkpt lat="45.31445" lon="6.18442">
        <ele>2500.5</ele>
        <time>2022-01-27T11:27:33Z</time>
      </trkpt>
      <trkpt lat="45.31446" lon="6.18442">
        <ele>2500.5</ele>
        <time>2022-01-27T11:27:34Z</time>
      </trkpt>
      <trkpt lat="45.31447" lon="6.18441">
        <ele>2502.4</ele>
        <time>2022-01-27T11:27:36Z</time>
      </trkpt>
      <trkpt lat="45.31448" lon="6.18441">
        <ele>2502.4</ele>
        <time>2022-01-27T11:27:37Z</time>
      </trkpt>
      <trkpt lat="45.31449" lon="6.18441">
        <ele>2502.4</ele>
        <time>2022-01-27T11:27:39Z</time>
      </trkpt>
      <trkpt lat="45.31449" lon="6.1844">
        <ele>2502.4</ele>
        <time>2022-01-27T11:27:40Z</time>
      </trkpt>
      <trkpt lat="45.3145" lon="6.1844">
        <ele>2504.3</ele>
        <time>2022-01-27T11:27:41Z</time>
      </trkpt>
      <trkpt lat="45.31451" lon="6.1844">
        <ele>2504.3</ele>
        <time>2022-01-27T11:27:42Z</time>
      </trkpt>
      <trkpt lat="45.31452" lon="6.18439">
        <ele>2504.3</ele>
        <time>2022-01-27T11:28:01Z</time>
      </trkpt>
      <trkpt lat="45.31453" lon="6.18439">
        <ele>2506.2</ele>
        <time>2022-01-27T11:28:03Z</time>
      </trkpt>
      <trkpt lat="45.31454" lon="6.18438">
        <ele>2506.2</ele>
        <time>2022-01-27T11:28:05Z</time>
      </trkpt>
      <trkpt lat="45.31455" lon="6.18438">
        <ele>2506.2</ele>
        <time>2022-01-27T11:28:07Z</time>
      </trkpt>
      <trkpt lat="45.31456" lon="6.18438">
        <ele>2508.1</ele>
        <time>2022-01-27T11:28:10Z</time>
      </trkpt>
      <trkpt lat="45.31457" lon="6.18438">
        <ele>2508.1</ele>
        <time>2022-01-27T11:28:11Z</time>
      </trkpt>
      <trkpt lat="45.31457" lon="6.18439">
        <ele>2508.1</ele>
        <time>2022-01-27T11:28:13Z</time>
      </trkpt>
      <trkpt lat="45.31458" lon="6.18439">
        <ele>2508.1</ele>
        <time>2022-01-27T11:28:14Z</time>
      </trkpt>
      <trkpt lat="45.31459" lon="6.1844">
        <ele>2509.9</ele>
        <time>2022-01-27T11:28:16Z</time>
      </trkpt>
      <trkpt lat="45.3146" lon="6.18441">
        <ele>2510</ele>
        <time>2022-01-27T11:28:17Z</time>
      </trkpt>
      <trkpt lat="45.31461" lon="6.18442">
        <ele>2510</ele>
        <time>2022-01-27T11:28:19Z</time>
      </trkpt>
      <trkpt lat="45.31462" lon="6.18442">
        <ele>2511.9</ele>
        <time>2022-01-27T11:28:21Z</time>
      </trkpt>
      <trkpt lat="45.31462" lon="6.18443">
        <ele>2511.9</ele>
        <time>2022-01-27T11:28:22Z</time>
      </trkpt>
      <trkpt lat="45.31463" lon="6.18443">
        <ele>2511.9</ele>
        <time>2022-01-27T11:28:24Z</time>
      </trkpt>
      <trkpt lat="45.31463" lon="6.18444">
        <ele>2511.9</ele>
        <time>2022-01-27T11:28:26Z</time>
      </trkpt>
      <trkpt lat="45.31464" lon="6.18444">
        <ele>2511.9</ele>
        <time>2022-01-27T11:28:28Z</time>
      </trkpt>
      <trkpt lat="45.31464" lon="6.18445">
        <ele>2512.1</ele>
        <time>2022-01-27T11:28:30Z</time>
      </trkpt>
      <trkpt lat="45.31465" lon="6.18445">
        <ele>2514</ele>
        <time>2022-01-27T11:28:31Z</time>
      </trkpt>
      <trkpt lat="45.31465" lon="6.18446">
        <ele>2514</ele>
        <time>2022-01-27T11:28:33Z</time>
      </trkpt>
      <trkpt lat="45.31465" lon="6.18447">
        <ele>2514</ele>
        <time>2022-01-27T11:29:17Z</time>
      </trkpt>
      <trkpt lat="45.31465" lon="6.18445">
        <ele>2514</ele>
        <time>2022-01-27T11:29:19Z</time>
      </trkpt>
      <trkpt lat="45.31466" lon="6.18444">
        <ele>2513.8</ele>
        <time>2022-01-27T11:29:20Z</time>
      </trkpt>
      <trkpt lat="45.31467" lon="6.18444">
        <ele>2513.8</ele>
        <time>2022-01-27T11:29:21Z</time>
      </trkpt>
      <trkpt lat="45.31467" lon="6.18443">
        <ele>2513.8</ele>
        <time>2022-01-27T11:29:23Z</time>
      </trkpt>
      <trkpt lat="45.31468" lon="6.18443">
        <ele>2515.8</ele>
        <time>2022-01-27T11:29:24Z</time>
      </trkpt>
      <trkpt lat="45.31469" lon="6.18442">
        <ele>2515.8</ele>
        <time>2022-01-27T11:29:25Z</time>
      </trkpt>
      <trkpt lat="45.3147" lon="6.18441">
        <ele>2515.8</ele>
        <time>2022-01-27T11:29:26Z</time>
      </trkpt>
      <trkpt lat="45.31471" lon="6.1844">
        <ele>2518</ele>
        <time>2022-01-27T11:29:28Z</time>
      </trkpt>
      <trkpt lat="45.31472" lon="6.18439">
        <ele>2517.7</ele>
        <time>2022-01-27T11:29:29Z</time>
      </trkpt>
      <trkpt lat="45.31473" lon="6.18436">
        <ele>2517.7</ele>
        <time>2022-01-27T11:29:31Z</time>
      </trkpt>
      <trkpt lat="45.31473" lon="6.18435">
        <ele>2517.5</ele>
        <time>2022-01-27T11:29:32Z</time>
      </trkpt>
      <trkpt lat="45.31473" lon="6.18434">
        <ele>2517.5</ele>
        <time>2022-01-27T11:29:34Z</time>
      </trkpt>
      <trkpt lat="45.31473" lon="6.18432">
        <ele>2517.5</ele>
        <time>2022-01-27T11:29:36Z</time>
      </trkpt>
      <trkpt lat="45.31474" lon="6.18431">
        <ele>2519.3</ele>
        <time>2022-01-27T11:29:37Z</time>
      </trkpt>
      <trkpt lat="45.31474" lon="6.1843">
        <ele>2519.3</ele>
        <time>2022-01-27T11:29:38Z</time>
      </trkpt>
      <trkpt lat="45.31475" lon="6.18428">
        <ele>2519.3</ele>
        <time>2022-01-27T11:29:42Z</time>
      </trkpt>
      <trkpt lat="45.31475" lon="6.18427">
        <ele>2519</ele>
        <time>2022-01-27T11:29:44Z</time>
      </trkpt>
      <trkpt lat="45.31475" lon="6.18426">
        <ele>2519</ele>
        <time>2022-01-27T11:29:45Z</time>
      </trkpt>
      <trkpt lat="45.31476" lon="6.18424">
        <ele>2519</ele>
        <time>2022-01-27T11:29:46Z</time>
      </trkpt>
      <trkpt lat="45.31476" lon="6.18423">
        <ele>2519</ele>
        <time>2022-01-27T11:29:48Z</time>
      </trkpt>
      <trkpt lat="45.31476" lon="6.18422">
        <ele>2518.7</ele>
        <time>2022-01-27T11:29:50Z</time>
      </trkpt>
      <trkpt lat="45.31475" lon="6.18422">
        <ele>2518.7</ele>
        <time>2022-01-27T11:29:52Z</time>
      </trkpt>
      <trkpt lat="45.31475" lon="6.18423">
        <ele>2518.7</ele>
        <time>2022-01-27T11:29:53Z</time>
      </trkpt>
      <trkpt lat="45.31474" lon="6.18424">
        <ele>2519</ele>
        <time>2022-01-27T11:29:55Z</time>
      </trkpt>
      <trkpt lat="45.31475" lon="6.18425">
        <ele>2519</ele>
        <time>2022-01-27T11:29:57Z</time>
      </trkpt>
      <trkpt lat="45.31475" lon="6.18424">
        <ele>2519</ele>
        <time>2022-01-27T11:30:03Z</time>
      </trkpt>
      <trkpt lat="45.31476" lon="6.18422">
        <ele>2518.7</ele>
        <time>2022-01-27T11:30:07Z</time>
      </trkpt>
      <trkpt lat="45.31476" lon="6.18421">
        <ele>2518.7</ele>
        <time>2022-01-27T11:30:09Z</time>
      </trkpt>
      <trkpt lat="45.31477" lon="6.1842">
        <ele>2520.5</ele>
        <time>2022-01-27T11:30:12Z</time>
      </trkpt>
      <trkpt lat="45.31478" lon="6.18421">
        <ele>2520.5</ele>
        <time>2022-01-27T11:30:19Z</time>
      </trkpt>
      <trkpt lat="45.3148" lon="6.18422">
        <ele>2520.5</ele>
        <time>2022-01-27T11:30:22Z</time>
      </trkpt>
      <trkpt lat="45.31481" lon="6.18423">
        <ele>2522.6</ele>
        <time>2022-01-27T11:30:24Z</time>
      </trkpt>
      <trkpt lat="45.31482" lon="6.18424">
        <ele>2522.6</ele>
        <time>2022-01-27T11:30:25Z</time>
      </trkpt>
      <trkpt lat="45.31483" lon="6.18426">
        <ele>2524.2</ele>
        <time>2022-01-27T11:30:27Z</time>
      </trkpt>
      <trkpt lat="45.31484" lon="6.18427">
        <ele>2524.2</ele>
        <time>2022-01-27T11:30:28Z</time>
      </trkpt>
      <trkpt lat="45.31485" lon="6.18428">
        <ele>2524.6</ele>
        <time>2022-01-27T11:30:29Z</time>
      </trkpt>
      <trkpt lat="45.31485" lon="6.18429">
        <ele>2524.6</ele>
        <time>2022-01-27T11:30:30Z</time>
      </trkpt>
      <trkpt lat="45.31486" lon="6.18432">
        <ele>2526.6</ele>
        <time>2022-01-27T11:30:32Z</time>
      </trkpt>
      <trkpt lat="45.31487" lon="6.18433">
        <ele>2526.6</ele>
        <time>2022-01-27T11:30:33Z</time>
      </trkpt>
      <trkpt lat="45.31487" lon="6.18434">
        <ele>2526.6</ele>
        <time>2022-01-27T11:30:35Z</time>
      </trkpt>
      <trkpt lat="45.31487" lon="6.18436">
        <ele>2527</ele>
        <time>2022-01-27T11:30:37Z</time>
      </trkpt>
      <trkpt lat="45.31488" lon="6.18438">
        <ele>2527</ele>
        <time>2022-01-27T11:30:38Z</time>
      </trkpt>
      <trkpt lat="45.31488" lon="6.18439">
        <ele>2527</ele>
        <time>2022-01-27T11:30:39Z</time>
      </trkpt>
      <trkpt lat="45.31488" lon="6.1844">
        <ele>2527</ele>
        <time>2022-01-27T11:30:40Z</time>
      </trkpt>
      <trkpt lat="45.31489" lon="6.18441">
        <ele>2529.1</ele>
        <time>2022-01-27T11:30:42Z</time>
      </trkpt>
      <trkpt lat="45.31489" lon="6.18442">
        <ele>2529.1</ele>
        <time>2022-01-27T11:30:43Z</time>
      </trkpt>
      <trkpt lat="45.3149" lon="6.18443">
        <ele>2529.1</ele>
        <time>2022-01-27T11:30:44Z</time>
      </trkpt>
      <trkpt lat="45.31492" lon="6.18441">
        <ele>2530.9</ele>
        <time>2022-01-27T11:30:47Z</time>
      </trkpt>
      <trkpt lat="45.31493" lon="6.1844">
        <ele>2530.9</ele>
        <time>2022-01-27T11:30:48Z</time>
      </trkpt>
      <trkpt lat="45.31493" lon="6.18439">
        <ele>2530.5</ele>
        <time>2022-01-27T11:30:50Z</time>
      </trkpt>
      <trkpt lat="45.31493" lon="6.18438">
        <ele>2530.5</ele>
        <time>2022-01-27T11:30:51Z</time>
      </trkpt>
      <trkpt lat="45.31493" lon="6.18437">
        <ele>2530.5</ele>
        <time>2022-01-27T11:30:53Z</time>
      </trkpt>
      <trkpt lat="45.31493" lon="6.18436">
        <ele>2530.5</ele>
        <time>2022-01-27T11:30:54Z</time>
      </trkpt>
      <trkpt lat="45.31493" lon="6.18434">
        <ele>2530</ele>
        <time>2022-01-27T11:30:56Z</time>
      </trkpt>
      <trkpt lat="45.31494" lon="6.18433">
        <ele>2530</ele>
        <time>2022-01-27T11:30:57Z</time>
      </trkpt>
      <trkpt lat="45.31494" lon="6.18432">
        <ele>2530</ele>
        <time>2022-01-27T11:30:58Z</time>
      </trkpt>
      <trkpt lat="45.31494" lon="6.18431">
        <ele>2529.5</ele>
        <time>2022-01-27T11:31:00Z</time>
      </trkpt>
      <trkpt lat="45.31495" lon="6.1843">
        <ele>2529.5</ele>
        <time>2022-01-27T11:31:01Z</time>
      </trkpt>
      <trkpt lat="45.31495" lon="6.18428">
        <ele>2531.3</ele>
        <time>2022-01-27T11:31:02Z</time>
      </trkpt>
      <trkpt lat="45.31495" lon="6.18427">
        <ele>2530.8</ele>
        <time>2022-01-27T11:31:03Z</time>
      </trkpt>
      <trkpt lat="45.31496" lon="6.18426">
        <ele>2530.8</ele>
        <time>2022-01-27T11:31:04Z</time>
      </trkpt>
      <trkpt lat="45.31496" lon="6.18424">
        <ele>2530.8</ele>
        <time>2022-01-27T11:31:05Z</time>
      </trkpt>
      <trkpt lat="45.31496" lon="6.18422">
        <ele>2530.2</ele>
        <time>2022-01-27T11:31:06Z</time>
      </trkpt>
      <trkpt lat="45.31496" lon="6.18421">
        <ele>2530.2</ele>
        <time>2022-01-27T11:31:07Z</time>
      </trkpt>
      <trkpt lat="45.31496" lon="6.1842">
        <ele>2530.2</ele>
        <time>2022-01-27T11:31:08Z</time>
      </trkpt>
      <trkpt lat="45.31496" lon="6.18419">
        <ele>2530.2</ele>
        <time>2022-01-27T11:31:09Z</time>
      </trkpt>
      <trkpt lat="45.31496" lon="6.18417">
        <ele>2529.6</ele>
        <time>2022-01-27T11:31:11Z</time>
      </trkpt>
      <trkpt lat="45.31496" lon="6.18415">
        <ele>2529.6</ele>
        <time>2022-01-27T11:31:12Z</time>
      </trkpt>
      <trkpt lat="45.31496" lon="6.18414">
        <ele>2529</ele>
        <time>2022-01-27T11:31:13Z</time>
      </trkpt>
      <trkpt lat="45.31496" lon="6.18413">
        <ele>2529</ele>
        <time>2022-01-27T11:31:14Z</time>
      </trkpt>
      <trkpt lat="45.31496" lon="6.18412">
        <ele>2529</ele>
        <time>2022-01-27T11:31:15Z</time>
      </trkpt>
      <trkpt lat="45.31496" lon="6.18411">
        <ele>2529</ele>
        <time>2022-01-27T11:31:16Z</time>
      </trkpt>
      <trkpt lat="45.31497" lon="6.1841">
        <ele>2528.3</ele>
        <time>2022-01-27T11:31:17Z</time>
      </trkpt>
      <trkpt lat="45.31497" lon="6.18409">
        <ele>2528.3</ele>
        <time>2022-01-27T11:31:18Z</time>
      </trkpt>
      <trkpt lat="45.31497" lon="6.18408">
        <ele>2528.3</ele>
        <time>2022-01-27T11:31:20Z</time>
      </trkpt>
      <trkpt lat="45.31497" lon="6.1841">
        <ele>2528.3</ele>
        <time>2022-01-27T11:31:22Z</time>
      </trkpt>
      <trkpt lat="45.31497" lon="6.18411">
        <ele>2529</ele>
        <time>2022-01-27T11:31:25Z</time>
      </trkpt>
      <trkpt lat="45.315" lon="6.18408">
        <ele>2529.9</ele>
        <time>2022-01-27T11:31:39Z</time>
      </trkpt>
      <trkpt lat="45.315" lon="6.18407">
        <ele>2529.9</ele>
        <time>2022-01-27T11:31:40Z</time>
      </trkpt>
      <trkpt lat="45.31501" lon="6.18406">
        <ele>2530.7</ele>
        <time>2022-01-27T11:31:41Z</time>
      </trkpt>
      <trkpt lat="45.31502" lon="6.18405">
        <ele>2530.7</ele>
        <time>2022-01-27T11:31:42Z</time>
      </trkpt>
      <trkpt lat="45.31503" lon="6.18404">
        <ele>2530.7</ele>
        <time>2022-01-27T11:31:44Z</time>
      </trkpt>
      <trkpt lat="45.31504" lon="6.18403">
        <ele>2532.1</ele>
        <time>2022-01-27T11:31:46Z</time>
      </trkpt>
      <trkpt lat="45.31504" lon="6.18402">
        <ele>2532.1</ele>
        <time>2022-01-27T11:31:47Z</time>
      </trkpt>
      <trkpt lat="45.31505" lon="6.18402">
        <ele>2531.2</ele>
        <time>2022-01-27T11:31:48Z</time>
      </trkpt>
      <trkpt lat="45.31505" lon="6.18401">
        <ele>2531.2</ele>
        <time>2022-01-27T11:31:49Z</time>
      </trkpt>
      <trkpt lat="45.31506" lon="6.184">
        <ele>2531.2</ele>
        <time>2022-01-27T11:31:52Z</time>
      </trkpt>
      <trkpt lat="45.31507" lon="6.184">
        <ele>2531.2</ele>
        <time>2022-01-27T11:31:53Z</time>
      </trkpt>
      <trkpt lat="45.31507" lon="6.18399">
        <ele>2532.4</ele>
        <time>2022-01-27T11:31:54Z</time>
      </trkpt>
      <trkpt lat="45.31508" lon="6.18399">
        <ele>2532.4</ele>
        <time>2022-01-27T11:31:56Z</time>
      </trkpt>
      <trkpt lat="45.31508" lon="6.18398">
        <ele>2532.4</ele>
        <time>2022-01-27T11:31:57Z</time>
      </trkpt>
      <trkpt lat="45.31509" lon="6.18398">
        <ele>2532.4</ele>
        <time>2022-01-27T11:31:59Z</time>
      </trkpt>
      <trkpt lat="45.31509" lon="6.18397">
        <ele>2531.4</ele>
        <time>2022-01-27T11:32:00Z</time>
      </trkpt>
      <trkpt lat="45.31509" lon="6.18396">
        <ele>2531.4</ele>
        <time>2022-01-27T11:32:01Z</time>
      </trkpt>
      <trkpt lat="45.31509" lon="6.18395">
        <ele>2531.4</ele>
        <time>2022-01-27T11:32:03Z</time>
      </trkpt>
      <trkpt lat="45.3151" lon="6.18393">
        <ele>2531.4</ele>
        <time>2022-01-27T11:32:07Z</time>
      </trkpt>
      <trkpt lat="45.3151" lon="6.18392">
        <ele>2530.5</ele>
        <time>2022-01-27T11:32:08Z</time>
      </trkpt>
      <trkpt lat="45.3151" lon="6.18391">
        <ele>2530.5</ele>
        <time>2022-01-27T11:32:10Z</time>
      </trkpt>
      <trkpt lat="45.3151" lon="6.1839">
        <ele>2531.4</ele>
        <time>2022-01-27T11:32:12Z</time>
      </trkpt>
      <trkpt lat="45.3151" lon="6.18389">
        <ele>2531.4</ele>
        <time>2022-01-27T11:32:13Z</time>
      </trkpt>
      <trkpt lat="45.3151" lon="6.18388">
        <ele>2530.4</ele>
        <time>2022-01-27T11:32:14Z</time>
      </trkpt>
      <trkpt lat="45.31511" lon="6.18387">
        <ele>2530.4</ele>
        <time>2022-01-27T11:32:16Z</time>
      </trkpt>
      <trkpt lat="45.31511" lon="6.18386">
        <ele>2530.4</ele>
        <time>2022-01-27T11:32:17Z</time>
      </trkpt>
      <trkpt lat="45.31512" lon="6.18385">
        <ele>2530.4</ele>
        <time>2022-01-27T11:32:19Z</time>
      </trkpt>
      <trkpt lat="45.31512" lon="6.18384">
        <ele>2529.5</ele>
        <time>2022-01-27T11:32:21Z</time>
      </trkpt>
      <trkpt lat="45.31513" lon="6.18383">
        <ele>2530.3</ele>
        <time>2022-01-27T11:32:23Z</time>
      </trkpt>
      <trkpt lat="45.31514" lon="6.18382">
        <ele>2530.3</ele>
        <time>2022-01-27T11:32:25Z</time>
      </trkpt>
      <trkpt lat="45.31515" lon="6.18381">
        <ele>2530.3</ele>
        <time>2022-01-27T11:32:27Z</time>
      </trkpt>
      <trkpt lat="45.31515" lon="6.1838">
        <ele>2530.3</ele>
        <time>2022-01-27T11:32:28Z</time>
      </trkpt>
      <trkpt lat="45.31516" lon="6.1838">
        <ele>2529.3</ele>
        <time>2022-01-27T11:32:29Z</time>
      </trkpt>
      <trkpt lat="45.31516" lon="6.18379">
        <ele>2530.2</ele>
        <time>2022-01-27T11:32:30Z</time>
      </trkpt>
      <trkpt lat="45.31516" lon="6.18378">
        <ele>2530.2</ele>
        <time>2022-01-27T11:32:31Z</time>
      </trkpt>
      <trkpt lat="45.31517" lon="6.18377">
        <ele>2530.2</ele>
        <time>2022-01-27T11:32:32Z</time>
      </trkpt>
      <trkpt lat="45.31517" lon="6.18376">
        <ele>2530.2</ele>
        <time>2022-01-27T11:32:33Z</time>
      </trkpt>
      <trkpt lat="45.31518" lon="6.18376">
        <ele>2529.2</ele>
        <time>2022-01-27T11:32:34Z</time>
      </trkpt>
      <trkpt lat="45.31518" lon="6.18375">
        <ele>2529.2</ele>
        <time>2022-01-27T11:32:35Z</time>
      </trkpt>
      <trkpt lat="45.31518" lon="6.18374">
        <ele>2529.2</ele>
        <time>2022-01-27T11:32:36Z</time>
      </trkpt>
      <trkpt lat="45.31519" lon="6.18373">
        <ele>2530.1</ele>
        <time>2022-01-27T11:32:37Z</time>
      </trkpt>
      <trkpt lat="45.31519" lon="6.18372">
        <ele>2530.1</ele>
        <time>2022-01-27T11:32:38Z</time>
      </trkpt>
      <trkpt lat="45.3152" lon="6.18371">
        <ele>2529</ele>
        <time>2022-01-27T11:32:39Z</time>
      </trkpt>
      <trkpt lat="45.3152" lon="6.1837">
        <ele>2529</ele>
        <time>2022-01-27T11:32:40Z</time>
      </trkpt>
      <trkpt lat="45.31521" lon="6.18368">
        <ele>2529</ele>
        <time>2022-01-27T11:32:42Z</time>
      </trkpt>
      <trkpt lat="45.31521" lon="6.18367">
        <ele>2527.9</ele>
        <time>2022-01-27T11:32:44Z</time>
      </trkpt>
      <trkpt lat="45.31522" lon="6.18366">
        <ele>2527.9</ele>
        <time>2022-01-27T11:32:45Z</time>
      </trkpt>
      <trkpt lat="45.31522" lon="6.18365">
        <ele>2528.8</ele>
        <time>2022-01-27T11:32:46Z</time>
      </trkpt>
      <trkpt lat="45.31523" lon="6.18364">
        <ele>2528.8</ele>
        <time>2022-01-27T11:32:47Z</time>
      </trkpt>
      <trkpt lat="45.31523" lon="6.18363">
        <ele>2528.8</ele>
        <time>2022-01-27T11:32:49Z</time>
      </trkpt>
      <trkpt lat="45.31524" lon="6.18363">
        <ele>2528.8</ele>
        <time>2022-01-27T11:32:50Z</time>
      </trkpt>
      <trkpt lat="45.31523" lon="6.18363">
        <ele>2528.8</ele>
        <time>2022-01-27T11:32:55Z</time>
      </trkpt>
      <trkpt lat="45.31523" lon="6.18364">
        <ele>2528.8</ele>
        <time>2022-01-27T11:33:03Z</time>
      </trkpt>
      <trkpt lat="45.31523" lon="6.18365">
        <ele>2528.8</ele>
        <time>2022-01-27T11:33:04Z</time>
      </trkpt>
      <trkpt lat="45.31525" lon="6.18366">
        <ele>2529.7</ele>
        <time>2022-01-27T11:33:28Z</time>
      </trkpt>
      <trkpt lat="45.31526" lon="6.18367">
        <ele>2529.7</ele>
        <time>2022-01-27T11:33:29Z</time>
      </trkpt>
      <trkpt lat="45.31527" lon="6.18367">
        <ele>2529.7</ele>
        <time>2022-01-27T11:33:30Z</time>
      </trkpt>
      <trkpt lat="45.31527" lon="6.18368">
        <ele>2530.9</ele>
        <time>2022-01-27T11:33:31Z</time>
      </trkpt>
      <trkpt lat="45.31528" lon="6.18369">
        <ele>2530.9</ele>
        <time>2022-01-27T11:33:32Z</time>
      </trkpt>
      <trkpt lat="45.31528" lon="6.1837">
        <ele>2531.8</ele>
        <time>2022-01-27T11:33:33Z</time>
      </trkpt>
      <trkpt lat="45.31529" lon="6.18371">
        <ele>2531.8</ele>
        <time>2022-01-27T11:33:34Z</time>
      </trkpt>
      <trkpt lat="45.31529" lon="6.18372">
        <ele>2532.9</ele>
        <time>2022-01-27T11:33:35Z</time>
      </trkpt>
      <trkpt lat="45.31529" lon="6.18373">
        <ele>2532.9</ele>
        <time>2022-01-27T11:33:36Z</time>
      </trkpt>
      <trkpt lat="45.31529" lon="6.18374">
        <ele>2532.9</ele>
        <time>2022-01-27T11:33:37Z</time>
      </trkpt>
      <trkpt lat="45.31528" lon="6.18376">
        <ele>2534</ele>
        <time>2022-01-27T11:33:40Z</time>
      </trkpt>
      <trkpt lat="45.31528" lon="6.18377">
        <ele>2534</ele>
        <time>2022-01-27T11:33:41Z</time>
      </trkpt>
      <trkpt lat="45.31528" lon="6.18378">
        <ele>2534</ele>
        <time>2022-01-27T11:33:42Z</time>
      </trkpt>
      <trkpt lat="45.31528" lon="6.18379">
        <ele>2533.1</ele>
        <time>2022-01-27T11:33:44Z</time>
      </trkpt>
      <trkpt lat="45.31528" lon="6.1838">
        <ele>2534.2</ele>
        <time>2022-01-27T11:33:45Z</time>
      </trkpt>
      <trkpt lat="45.31528" lon="6.18381">
        <ele>2534.2</ele>
        <time>2022-01-27T11:33:46Z</time>
      </trkpt>
      <trkpt lat="45.31527" lon="6.18382">
        <ele>2534.2</ele>
        <time>2022-01-27T11:33:47Z</time>
      </trkpt>
      <trkpt lat="45.31527" lon="6.18383">
        <ele>2534.2</ele>
        <time>2022-01-27T11:33:49Z</time>
      </trkpt>
      <trkpt lat="45.31527" lon="6.18387">
        <ele>2535.3</ele>
        <time>2022-01-27T11:33:51Z</time>
      </trkpt>
      <trkpt lat="45.31527" lon="6.18388">
        <ele>2535.3</ele>
        <time>2022-01-27T11:33:52Z</time>
      </trkpt>
      <trkpt lat="45.31528" lon="6.18389">
        <ele>2535.3</ele>
        <time>2022-01-27T11:33:53Z</time>
      </trkpt>
      <trkpt lat="45.31528" lon="6.1839">
        <ele>2537.6</ele>
        <time>2022-01-27T11:33:54Z</time>
      </trkpt>
      <trkpt lat="45.31529" lon="6.18391">
        <ele>2537.6</ele>
        <time>2022-01-27T11:33:56Z</time>
      </trkpt>
      <trkpt lat="45.31529" lon="6.18392">
        <ele>2537.6</ele>
        <time>2022-01-27T11:33:57Z</time>
      </trkpt>
      <trkpt lat="45.31529" lon="6.18393">
        <ele>2538.9</ele>
        <time>2022-01-27T11:33:58Z</time>
      </trkpt>
      <trkpt lat="45.3153" lon="6.18394">
        <ele>2538.9</ele>
        <time>2022-01-27T11:33:59Z</time>
      </trkpt>
      <trkpt lat="45.3153" lon="6.18396">
        <ele>2538.9</ele>
        <time>2022-01-27T11:34:00Z</time>
      </trkpt>
      <trkpt lat="45.3153" lon="6.18398">
        <ele>2540.2</ele>
        <time>2022-01-27T11:34:01Z</time>
      </trkpt>
      <trkpt lat="45.3153" lon="6.18399">
        <ele>2540.2</ele>
        <time>2022-01-27T11:34:02Z</time>
      </trkpt>
      <trkpt lat="45.31531" lon="6.184">
        <ele>2540.2</ele>
        <time>2022-01-27T11:34:04Z</time>
      </trkpt>
      <trkpt lat="45.31531" lon="6.18402">
        <ele>2541.4</ele>
        <time>2022-01-27T11:34:05Z</time>
      </trkpt>
      <trkpt lat="45.31531" lon="6.18403">
        <ele>2542.6</ele>
        <time>2022-01-27T11:34:06Z</time>
      </trkpt>
      <trkpt lat="45.31531" lon="6.18404">
        <ele>2542.6</ele>
        <time>2022-01-27T11:34:07Z</time>
      </trkpt>
      <trkpt lat="45.31532" lon="6.18405">
        <ele>2542.6</ele>
        <time>2022-01-27T11:34:09Z</time>
      </trkpt>
      <trkpt lat="45.31532" lon="6.18407">
        <ele>2543.9</ele>
        <time>2022-01-27T11:34:10Z</time>
      </trkpt>
      <trkpt lat="45.31532" lon="6.18408">
        <ele>2543.9</ele>
        <time>2022-01-27T11:34:11Z</time>
      </trkpt>
      <trkpt lat="45.31533" lon="6.18409">
        <ele>2543.9</ele>
        <time>2022-01-27T11:34:12Z</time>
      </trkpt>
      <trkpt lat="45.31533" lon="6.1841">
        <ele>2543.9</ele>
        <time>2022-01-27T11:34:13Z</time>
      </trkpt>
      <trkpt lat="45.31533" lon="6.18411">
        <ele>2545.2</ele>
        <time>2022-01-27T11:34:14Z</time>
      </trkpt>
      <trkpt lat="45.31533" lon="6.18412">
        <ele>2545.2</ele>
        <time>2022-01-27T11:34:16Z</time>
      </trkpt>
      <trkpt lat="45.31533" lon="6.18413">
        <ele>2545.2</ele>
        <time>2022-01-27T11:34:17Z</time>
      </trkpt>
      <trkpt lat="45.31533" lon="6.18412">
        <ele>2545.2</ele>
        <time>2022-01-27T11:34:18Z</time>
      </trkpt>
      <trkpt lat="45.31533" lon="6.18411">
        <ele>2545.2</ele>
        <time>2022-01-27T11:34:20Z</time>
      </trkpt>
      <trkpt lat="45.31536" lon="6.18413">
        <ele>2546.5</ele>
        <time>2022-01-27T11:34:36Z</time>
      </trkpt>
      <trkpt lat="45.31537" lon="6.18412">
        <ele>2546.5</ele>
        <time>2022-01-27T11:34:37Z</time>
      </trkpt>
      <trkpt lat="45.31537" lon="6.18411">
        <ele>2547.8</ele>
        <time>2022-01-27T11:34:38Z</time>
      </trkpt>
      <trkpt lat="45.31539" lon="6.18409">
        <ele>2546.4</ele>
        <time>2022-01-27T11:34:40Z</time>
      </trkpt>
      <trkpt lat="45.31539" lon="6.18408">
        <ele>2546.4</ele>
        <time>2022-01-27T11:34:41Z</time>
      </trkpt>
      <trkpt lat="45.3154" lon="6.18405">
        <ele>2546.1</ele>
        <time>2022-01-27T11:34:43Z</time>
      </trkpt>
      <trkpt lat="45.31541" lon="6.18404">
        <ele>2546.1</ele>
        <time>2022-01-27T11:34:45Z</time>
      </trkpt>
      <trkpt lat="45.31542" lon="6.18403">
        <ele>2546.1</ele>
        <time>2022-01-27T11:34:46Z</time>
      </trkpt>
      <trkpt lat="45.31542" lon="6.18402">
        <ele>2546.1</ele>
        <time>2022-01-27T11:34:47Z</time>
      </trkpt>
      <trkpt lat="45.31542" lon="6.18401">
        <ele>2544.6</ele>
        <time>2022-01-27T11:34:48Z</time>
      </trkpt>
      <trkpt lat="45.31543" lon="6.184">
        <ele>2544.6</ele>
        <time>2022-01-27T11:34:49Z</time>
      </trkpt>
      <trkpt lat="45.31544" lon="6.18399">
        <ele>2545.7</ele>
        <time>2022-01-27T11:34:50Z</time>
      </trkpt>
      <trkpt lat="45.31544" lon="6.18398">
        <ele>2545.7</ele>
        <time>2022-01-27T11:34:51Z</time>
      </trkpt>
      <trkpt lat="45.31545" lon="6.18397">
        <ele>2544.1</ele>
        <time>2022-01-27T11:34:52Z</time>
      </trkpt>
      <trkpt lat="45.31545" lon="6.18396">
        <ele>2544.1</ele>
        <time>2022-01-27T11:34:53Z</time>
      </trkpt>
      <trkpt lat="45.31546" lon="6.18396">
        <ele>2544.1</ele>
        <time>2022-01-27T11:34:54Z</time>
      </trkpt>
      <trkpt lat="45.31547" lon="6.18395">
        <ele>2545.2</ele>
        <time>2022-01-27T11:34:56Z</time>
      </trkpt>
      <trkpt lat="45.31548" lon="6.18394">
        <ele>2545.2</ele>
        <time>2022-01-27T11:34:58Z</time>
      </trkpt>
      <trkpt lat="45.31549" lon="6.18394">
        <ele>2545.2</ele>
        <time>2022-01-27T11:34:59Z</time>
      </trkpt>
      <trkpt lat="45.3155" lon="6.18394">
        <ele>2546.4</ele>
        <time>2022-01-27T11:35:00Z</time>
      </trkpt>
      <trkpt lat="45.31551" lon="6.18394">
        <ele>2546.4</ele>
        <time>2022-01-27T11:35:02Z</time>
      </trkpt>
      <trkpt lat="45.31552" lon="6.18395">
        <ele>2546.4</ele>
        <time>2022-01-27T11:35:04Z</time>
      </trkpt>
      <trkpt lat="45.31553" lon="6.18396">
        <ele>2547.8</ele>
        <time>2022-01-27T11:35:05Z</time>
      </trkpt>
      <trkpt lat="45.31554" lon="6.18397">
        <ele>2547.8</ele>
        <time>2022-01-27T11:35:07Z</time>
      </trkpt>
      <trkpt lat="45.31554" lon="6.18398">
        <ele>2549.4</ele>
        <time>2022-01-27T11:35:08Z</time>
      </trkpt>
      <trkpt lat="45.31553" lon="6.18399">
        <ele>2549.4</ele>
        <time>2022-01-27T11:35:09Z</time>
      </trkpt>
      <trkpt lat="45.31553" lon="6.18401">
        <ele>2549.4</ele>
        <time>2022-01-27T11:35:10Z</time>
      </trkpt>
      <trkpt lat="45.31552" lon="6.18402">
        <ele>2551.1</ele>
        <time>2022-01-27T11:35:11Z</time>
      </trkpt>
      <trkpt lat="45.31552" lon="6.18403">
        <ele>2549.7</ele>
        <time>2022-01-27T11:35:12Z</time>
      </trkpt>
      <trkpt lat="45.31552" lon="6.18404">
        <ele>2549.7</ele>
        <time>2022-01-27T11:35:13Z</time>
      </trkpt>
      <trkpt lat="45.31551" lon="6.18405">
        <ele>2549.7</ele>
        <time>2022-01-27T11:35:14Z</time>
      </trkpt>
      <trkpt lat="45.31551" lon="6.18406">
        <ele>2551.3</ele>
        <time>2022-01-27T11:35:16Z</time>
      </trkpt>
      <trkpt lat="45.3155" lon="6.18407">
        <ele>2551.3</ele>
        <time>2022-01-27T11:35:17Z</time>
      </trkpt>
      <trkpt lat="45.3155" lon="6.18408">
        <ele>2551.3</ele>
        <time>2022-01-27T11:35:18Z</time>
      </trkpt>
      <trkpt lat="45.31549" lon="6.18409">
        <ele>2551.3</ele>
        <time>2022-01-27T11:35:20Z</time>
      </trkpt>
      <trkpt lat="45.31548" lon="6.1841">
        <ele>2551.5</ele>
        <time>2022-01-27T11:35:21Z</time>
      </trkpt>
      <trkpt lat="45.31548" lon="6.18411">
        <ele>2551.5</ele>
        <time>2022-01-27T11:35:22Z</time>
      </trkpt>
      <trkpt lat="45.31547" lon="6.18412">
        <ele>2551.5</ele>
        <time>2022-01-27T11:35:23Z</time>
      </trkpt>
      <trkpt lat="45.31547" lon="6.18413">
        <ele>2551.5</ele>
        <time>2022-01-27T11:35:24Z</time>
      </trkpt>
      <trkpt lat="45.31547" lon="6.18414">
        <ele>2551.5</ele>
        <time>2022-01-27T11:35:26Z</time>
      </trkpt>
      <trkpt lat="45.31546" lon="6.18415">
        <ele>2553</ele>
        <time>2022-01-27T11:35:27Z</time>
      </trkpt>
      <trkpt lat="45.31546" lon="6.18416">
        <ele>2553</ele>
        <time>2022-01-27T11:35:29Z</time>
      </trkpt>
      <trkpt lat="45.31546" lon="6.18417">
        <ele>2553</ele>
        <time>2022-01-27T11:35:30Z</time>
      </trkpt>
      <trkpt lat="45.31546" lon="6.18418">
        <ele>2553</ele>
        <time>2022-01-27T11:35:32Z</time>
      </trkpt>
      <trkpt lat="45.31546" lon="6.18419">
        <ele>2554.5</ele>
        <time>2022-01-27T11:35:33Z</time>
      </trkpt>
      <trkpt lat="45.31546" lon="6.1842">
        <ele>2554.5</ele>
        <time>2022-01-27T11:35:34Z</time>
      </trkpt>
      <trkpt lat="45.31546" lon="6.18421">
        <ele>2554.5</ele>
        <time>2022-01-27T11:35:35Z</time>
      </trkpt>
      <trkpt lat="45.31547" lon="6.18422">
        <ele>2554.5</ele>
        <time>2022-01-27T11:35:37Z</time>
      </trkpt>
      <trkpt lat="45.31547" lon="6.18423">
        <ele>2555.9</ele>
        <time>2022-01-27T11:35:38Z</time>
      </trkpt>
      <trkpt lat="45.31547" lon="6.18424">
        <ele>2555.9</ele>
        <time>2022-01-27T11:35:39Z</time>
      </trkpt>
      <trkpt lat="45.31547" lon="6.18423">
        <ele>2555.9</ele>
        <time>2022-01-27T11:35:42Z</time>
      </trkpt>
      <trkpt lat="45.31548" lon="6.18424">
        <ele>2555.9</ele>
        <time>2022-01-27T11:35:56Z</time>
      </trkpt>
      <trkpt lat="45.31548" lon="6.18425">
        <ele>2555.9</ele>
        <time>2022-01-27T11:35:57Z</time>
      </trkpt>
      <trkpt lat="45.31548" lon="6.18426">
        <ele>2555.9</ele>
        <time>2022-01-27T11:35:58Z</time>
      </trkpt>
      <trkpt lat="45.31548" lon="6.18427">
        <ele>2555.9</ele>
        <time>2022-01-27T11:36:00Z</time>
      </trkpt>
      <trkpt lat="45.31549" lon="6.18428">
        <ele>2557.4</ele>
        <time>2022-01-27T11:36:01Z</time>
      </trkpt>
      <trkpt lat="45.31549" lon="6.18429">
        <ele>2558.9</ele>
        <time>2022-01-27T11:36:04Z</time>
      </trkpt>
      <trkpt lat="45.3155" lon="6.1843">
        <ele>2558.9</ele>
        <time>2022-01-27T11:36:06Z</time>
      </trkpt>
      <trkpt lat="45.3155" lon="6.18431">
        <ele>2558.9</ele>
        <time>2022-01-27T11:36:07Z</time>
      </trkpt>
      <trkpt lat="45.31551" lon="6.18431">
        <ele>2558.9</ele>
        <time>2022-01-27T11:36:08Z</time>
      </trkpt>
      <trkpt lat="45.31551" lon="6.18432">
        <ele>2560.6</ele>
        <time>2022-01-27T11:36:09Z</time>
      </trkpt>
      <trkpt lat="45.31552" lon="6.18433">
        <ele>2560.6</ele>
        <time>2022-01-27T11:36:11Z</time>
      </trkpt>
      <trkpt lat="45.31552" lon="6.18434">
        <ele>2560.6</ele>
        <time>2022-01-27T11:36:12Z</time>
      </trkpt>
      <trkpt lat="45.31553" lon="6.18435">
        <ele>2562.2</ele>
        <time>2022-01-27T11:36:14Z</time>
      </trkpt>
      <trkpt lat="45.31553" lon="6.18436">
        <ele>2562.2</ele>
        <time>2022-01-27T11:36:15Z</time>
      </trkpt>
      <trkpt lat="45.31554" lon="6.18437">
        <ele>2564</ele>
        <time>2022-01-27T11:36:16Z</time>
      </trkpt>
      <trkpt lat="45.31554" lon="6.18438">
        <ele>2564</ele>
        <time>2022-01-27T11:36:18Z</time>
      </trkpt>
      <trkpt lat="45.31555" lon="6.18438">
        <ele>2564</ele>
        <time>2022-01-27T11:36:19Z</time>
      </trkpt>
      <trkpt lat="45.31555" lon="6.18439">
        <ele>2564</ele>
        <time>2022-01-27T11:36:20Z</time>
      </trkpt>
      <trkpt lat="45.31556" lon="6.1844">
        <ele>2565.8</ele>
        <time>2022-01-27T11:36:21Z</time>
      </trkpt>
      <trkpt lat="45.31557" lon="6.18441">
        <ele>2567.8</ele>
        <time>2022-01-27T11:36:24Z</time>
      </trkpt>
      <trkpt lat="45.31556" lon="6.18441">
        <ele>2567.8</ele>
        <time>2022-01-27T11:36:25Z</time>
      </trkpt>
      <trkpt lat="45.31556" lon="6.1844">
        <ele>2567.8</ele>
        <time>2022-01-27T11:36:27Z</time>
      </trkpt>
      <trkpt lat="45.31555" lon="6.1844">
        <ele>2565.8</ele>
        <time>2022-01-27T11:36:28Z</time>
      </trkpt>
      <trkpt lat="45.31555" lon="6.18441">
        <ele>2565.9</ele>
        <time>2022-01-27T11:36:34Z</time>
      </trkpt>
      <trkpt lat="45.31556" lon="6.18442">
        <ele>2567.8</ele>
        <time>2022-01-27T11:36:36Z</time>
      </trkpt>
      <trkpt lat="45.31556" lon="6.18443">
        <ele>2567.8</ele>
        <time>2022-01-27T11:36:37Z</time>
      </trkpt>
      <trkpt lat="45.31556" lon="6.18444">
        <ele>2567.8</ele>
        <time>2022-01-27T11:36:39Z</time>
      </trkpt>
      <trkpt lat="45.31557" lon="6.18445">
        <ele>2569.8</ele>
        <time>2022-01-27T11:36:41Z</time>
      </trkpt>
      <trkpt lat="45.31558" lon="6.18445">
        <ele>2569.8</ele>
        <time>2022-01-27T11:36:42Z</time>
      </trkpt>
      <trkpt lat="45.31559" lon="6.18445">
        <ele>2571.7</ele>
        <time>2022-01-27T11:36:44Z</time>
      </trkpt>
      <trkpt lat="45.31559" lon="6.18444">
        <ele>2569.6</ele>
        <time>2022-01-27T11:36:45Z</time>
      </trkpt>
      <trkpt lat="45.3156" lon="6.18443">
        <ele>2569.6</ele>
        <time>2022-01-27T11:36:46Z</time>
      </trkpt>
      <trkpt lat="45.3156" lon="6.18442">
        <ele>2569.6</ele>
        <time>2022-01-27T11:36:47Z</time>
      </trkpt>
      <trkpt lat="45.3156" lon="6.18441">
        <ele>2569.6</ele>
        <time>2022-01-27T11:36:48Z</time>
      </trkpt>
      <trkpt lat="45.3156" lon="6.1844">
        <ele>2567.6</ele>
        <time>2022-01-27T11:36:50Z</time>
      </trkpt>
      <trkpt lat="45.3156" lon="6.18439">
        <ele>2567.6</ele>
        <time>2022-01-27T11:36:51Z</time>
      </trkpt>
      <trkpt lat="45.31561" lon="6.18438">
        <ele>2567.6</ele>
        <time>2022-01-27T11:36:53Z</time>
      </trkpt>
      <trkpt lat="45.31561" lon="6.18437">
        <ele>2567.6</ele>
        <time>2022-01-27T11:36:54Z</time>
      </trkpt>
      <trkpt lat="45.31561" lon="6.18436">
        <ele>2567.6</ele>
        <time>2022-01-27T11:36:55Z</time>
      </trkpt>
      <trkpt lat="45.31561" lon="6.18434">
        <ele>2565.8</ele>
        <time>2022-01-27T11:36:56Z</time>
      </trkpt>
      <trkpt lat="45.31561" lon="6.18433">
        <ele>2565.8</ele>
        <time>2022-01-27T11:36:58Z</time>
      </trkpt>
      <trkpt lat="45.31561" lon="6.18432">
        <ele>2567.4</ele>
        <time>2022-01-27T11:36:59Z</time>
      </trkpt>
      <trkpt lat="45.31561" lon="6.18431">
        <ele>2565.7</ele>
        <time>2022-01-27T11:37:00Z</time>
      </trkpt>
      <trkpt lat="45.31562" lon="6.1843">
        <ele>2565.7</ele>
        <time>2022-01-27T11:37:01Z</time>
      </trkpt>
      <trkpt lat="45.31562" lon="6.18429">
        <ele>2565.7</ele>
        <time>2022-01-27T11:37:03Z</time>
      </trkpt>
      <trkpt lat="45.31562" lon="6.1843">
        <ele>2565.7</ele>
        <time>2022-01-27T11:37:07Z</time>
      </trkpt>
      <trkpt lat="45.31564" lon="6.18427">
        <ele>2564</ele>
        <time>2022-01-27T11:37:23Z</time>
      </trkpt>
      <trkpt lat="45.31564" lon="6.18426">
        <ele>2564</ele>
        <time>2022-01-27T11:37:24Z</time>
      </trkpt>
      <trkpt lat="45.31565" lon="6.18426">
        <ele>2565.5</ele>
        <time>2022-01-27T11:37:27Z</time>
      </trkpt>
      <trkpt lat="45.31566" lon="6.18426">
        <ele>2565.5</ele>
        <time>2022-01-27T11:37:29Z</time>
      </trkpt>
      <trkpt lat="45.31566" lon="6.18427">
        <ele>2565.5</ele>
        <time>2022-01-27T11:37:30Z</time>
      </trkpt>
      <trkpt lat="45.31567" lon="6.18427">
        <ele>2565.5</ele>
        <time>2022-01-27T11:37:31Z</time>
      </trkpt>
      <trkpt lat="45.31568" lon="6.18428">
        <ele>2568.6</ele>
        <time>2022-01-27T11:37:32Z</time>
      </trkpt>
      <trkpt lat="45.31568" lon="6.18429">
        <ele>2568.6</ele>
        <time>2022-01-27T11:37:33Z</time>
      </trkpt>
      <trkpt lat="45.31569" lon="6.18429">
        <ele>2568.6</ele>
        <time>2022-01-27T11:37:34Z</time>
      </trkpt>
      <trkpt lat="45.3157" lon="6.18429">
        <ele>2568.6</ele>
        <time>2022-01-27T11:37:36Z</time>
      </trkpt>
      <trkpt lat="45.31571" lon="6.18429">
        <ele>2570</ele>
        <time>2022-01-27T11:37:37Z</time>
      </trkpt>
      <trkpt lat="45.31572" lon="6.18429">
        <ele>2570</ele>
        <time>2022-01-27T11:37:39Z</time>
      </trkpt>
      <trkpt lat="45.31573" lon="6.1843">
        <ele>2570</ele>
        <time>2022-01-27T11:37:40Z</time>
      </trkpt>
      <trkpt lat="45.31574" lon="6.1843">
        <ele>2571.4</ele>
        <time>2022-01-27T11:37:42Z</time>
      </trkpt>
      <trkpt lat="45.31575" lon="6.1843">
        <ele>2571.4</ele>
        <time>2022-01-27T11:37:44Z</time>
      </trkpt>
      <trkpt lat="45.31575" lon="6.18431">
        <ele>2571.4</ele>
        <time>2022-01-27T11:37:45Z</time>
      </trkpt>
      <trkpt lat="45.31576" lon="6.18431">
        <ele>2571.4</ele>
        <time>2022-01-27T11:37:46Z</time>
      </trkpt>
      <trkpt lat="45.31577" lon="6.18431">
        <ele>2573</ele>
        <time>2022-01-27T11:37:47Z</time>
      </trkpt>
      <trkpt lat="45.31578" lon="6.18432">
        <ele>2574.7</ele>
        <time>2022-01-27T11:37:49Z</time>
      </trkpt>
      <trkpt lat="45.31579" lon="6.18432">
        <ele>2574.7</ele>
        <time>2022-01-27T11:37:51Z</time>
      </trkpt>
      <trkpt lat="45.3158" lon="6.18432">
        <ele>2576.4</ele>
        <time>2022-01-27T11:37:52Z</time>
      </trkpt>
      <trkpt lat="45.31581" lon="6.18433">
        <ele>2576.4</ele>
        <time>2022-01-27T11:37:53Z</time>
      </trkpt>
      <trkpt lat="45.31582" lon="6.18433">
        <ele>2576.4</ele>
        <time>2022-01-27T11:37:55Z</time>
      </trkpt>
      <trkpt lat="45.31582" lon="6.18434">
        <ele>2578.1</ele>
        <time>2022-01-27T11:37:56Z</time>
      </trkpt>
      <trkpt lat="45.31583" lon="6.18434">
        <ele>2578.1</ele>
        <time>2022-01-27T11:37:57Z</time>
      </trkpt>
      <trkpt lat="45.31584" lon="6.18434">
        <ele>2578.1</ele>
        <time>2022-01-27T11:37:58Z</time>
      </trkpt>
      <trkpt lat="45.31584" lon="6.18435">
        <ele>2578.1</ele>
        <time>2022-01-27T11:37:59Z</time>
      </trkpt>
      <trkpt lat="45.31585" lon="6.18435">
        <ele>2578.1</ele>
        <time>2022-01-27T11:38:00Z</time>
      </trkpt>
      <trkpt lat="45.31586" lon="6.18435">
        <ele>2579.7</ele>
        <time>2022-01-27T11:38:02Z</time>
      </trkpt>
      <trkpt lat="45.31586" lon="6.18436">
        <ele>2579.7</ele>
        <time>2022-01-27T11:38:04Z</time>
      </trkpt>
      <trkpt lat="45.31587" lon="6.18436">
        <ele>2581.6</ele>
        <time>2022-01-27T11:38:05Z</time>
      </trkpt>
      <trkpt lat="45.31588" lon="6.18436">
        <ele>2581.6</ele>
        <time>2022-01-27T11:38:07Z</time>
      </trkpt>
      <trkpt lat="45.31589" lon="6.18436">
        <ele>2583.1</ele>
        <time>2022-01-27T11:38:09Z</time>
      </trkpt>
      <trkpt lat="45.31589" lon="6.18437">
        <ele>2583.1</ele>
        <time>2022-01-27T11:38:10Z</time>
      </trkpt>
      <trkpt lat="45.3159" lon="6.18437">
        <ele>2583.1</ele>
        <time>2022-01-27T11:38:12Z</time>
      </trkpt>
      <trkpt lat="45.31591" lon="6.18437">
        <ele>2583.1</ele>
        <time>2022-01-27T11:38:14Z</time>
      </trkpt>
      <trkpt lat="45.31608" lon="6.18432">
        <ele>2589.7</ele>
        <time>2022-01-27T11:39:03Z</time>
      </trkpt>
      <trkpt lat="45.3161" lon="6.18431">
        <ele>2589.7</ele>
        <time>2022-01-27T11:39:05Z</time>
      </trkpt>
      <trkpt lat="45.31611" lon="6.18431">
        <ele>2589.7</ele>
        <time>2022-01-27T11:39:07Z</time>
      </trkpt>
      <trkpt lat="45.31613" lon="6.18431">
        <ele>2591.2</ele>
        <time>2022-01-27T11:39:08Z</time>
      </trkpt>
      <trkpt lat="45.31614" lon="6.18431">
        <ele>2591.2</ele>
        <time>2022-01-27T11:39:10Z</time>
      </trkpt>
      <trkpt lat="45.31615" lon="6.18432">
        <ele>2591.2</ele>
        <time>2022-01-27T11:39:11Z</time>
      </trkpt>
      <trkpt lat="45.31616" lon="6.18432">
        <ele>2592.7</ele>
        <time>2022-01-27T11:39:12Z</time>
      </trkpt>
      <trkpt lat="45.31617" lon="6.18432">
        <ele>2594.2</ele>
        <time>2022-01-27T11:39:13Z</time>
      </trkpt>
      <trkpt lat="45.31618" lon="6.18432">
        <ele>2594.2</ele>
        <time>2022-01-27T11:39:14Z</time>
      </trkpt>
      <trkpt lat="45.31619" lon="6.18432">
        <ele>2595.6</ele>
        <time>2022-01-27T11:39:15Z</time>
      </trkpt>
      <trkpt lat="45.3162" lon="6.18432">
        <ele>2595.6</ele>
        <time>2022-01-27T11:39:17Z</time>
      </trkpt>
      <trkpt lat="45.31621" lon="6.18433">
        <ele>2595.6</ele>
        <time>2022-01-27T11:39:18Z</time>
      </trkpt>
      <trkpt lat="45.31622" lon="6.18433">
        <ele>2596.9</ele>
        <time>2022-01-27T11:39:20Z</time>
      </trkpt>
      <trkpt lat="45.31623" lon="6.18433">
        <ele>2596.9</ele>
        <time>2022-01-27T11:39:21Z</time>
      </trkpt>
      <trkpt lat="45.31624" lon="6.18433">
        <ele>2596.9</ele>
        <time>2022-01-27T11:39:22Z</time>
      </trkpt>
      <trkpt lat="45.31625" lon="6.18433">
        <ele>2598.3</ele>
        <time>2022-01-27T11:39:24Z</time>
      </trkpt>
      <trkpt lat="45.31626" lon="6.18433">
        <ele>2598.3</ele>
        <time>2022-01-27T11:39:25Z</time>
      </trkpt>
      <trkpt lat="45.31627" lon="6.18433">
        <ele>2598.3</ele>
        <time>2022-01-27T11:39:26Z</time>
      </trkpt>
      <trkpt lat="45.31628" lon="6.18433">
        <ele>2598.3</ele>
        <time>2022-01-27T11:39:27Z</time>
      </trkpt>
      <trkpt lat="45.31628" lon="6.18432">
        <ele>2599.6</ele>
        <time>2022-01-27T11:39:28Z</time>
      </trkpt>
      <trkpt lat="45.31629" lon="6.18432">
        <ele>2599.6</ele>
        <time>2022-01-27T11:39:29Z</time>
      </trkpt>
      <trkpt lat="45.3163" lon="6.18431">
        <ele>2598.2</ele>
        <time>2022-01-27T11:39:31Z</time>
      </trkpt>
      <trkpt lat="45.31631" lon="6.18431">
        <ele>2599.6</ele>
        <time>2022-01-27T11:39:33Z</time>
      </trkpt>
      <trkpt lat="45.31632" lon="6.1843">
        <ele>2599.6</ele>
        <time>2022-01-27T11:39:34Z</time>
      </trkpt>
      <trkpt lat="45.31633" lon="6.1843">
        <ele>2599.6</ele>
        <time>2022-01-27T11:39:36Z</time>
      </trkpt>
      <trkpt lat="45.31633" lon="6.18429">
        <ele>2599.6</ele>
        <time>2022-01-27T11:39:37Z</time>
      </trkpt>
      <trkpt lat="45.31634" lon="6.18429">
        <ele>2601</ele>
        <time>2022-01-27T11:39:38Z</time>
      </trkpt>
      <trkpt lat="45.31634" lon="6.18428">
        <ele>2601</ele>
        <time>2022-01-27T11:39:39Z</time>
      </trkpt>
      <trkpt lat="45.31635" lon="6.18427">
        <ele>2599.8</ele>
        <time>2022-01-27T11:39:40Z</time>
      </trkpt>
      <trkpt lat="45.31636" lon="6.18426">
        <ele>2599.8</ele>
        <time>2022-01-27T11:39:42Z</time>
      </trkpt>
      <trkpt lat="45.31637" lon="6.18425">
        <ele>2601.3</ele>
        <time>2022-01-27T11:39:44Z</time>
      </trkpt>
      <trkpt lat="45.31638" lon="6.18425">
        <ele>2601.3</ele>
        <time>2022-01-27T11:39:46Z</time>
      </trkpt>
      <trkpt lat="45.31638" lon="6.18424">
        <ele>2601.3</ele>
        <time>2022-01-27T11:39:47Z</time>
      </trkpt>
      <trkpt lat="45.31639" lon="6.18424">
        <ele>2601.3</ele>
        <time>2022-01-27T11:39:48Z</time>
      </trkpt>
      <trkpt lat="45.31638" lon="6.18424">
        <ele>2601.3</ele>
        <time>2022-01-27T11:39:50Z</time>
      </trkpt>
      <trkpt lat="45.31638" lon="6.18423">
        <ele>2601.3</ele>
        <time>2022-01-27T11:39:52Z</time>
      </trkpt>
      <trkpt lat="45.31637" lon="6.18423">
        <ele>2600.1</ele>
        <time>2022-01-27T11:39:55Z</time>
      </trkpt>
      <trkpt lat="45.31637" lon="6.18422">
        <ele>2600.1</ele>
        <time>2022-01-27T11:39:56Z</time>
      </trkpt>
      <trkpt lat="45.31654" lon="6.18409">
        <ele>2604.3</ele>
        <time>2022-01-27T11:40:36Z</time>
      </trkpt>
      <trkpt lat="45.31654" lon="6.18408">
        <ele>2604.3</ele>
        <time>2022-01-27T11:40:37Z</time>
      </trkpt>
      <trkpt lat="45.31655" lon="6.18407">
        <ele>2605.7</ele>
        <time>2022-01-27T11:40:38Z</time>
      </trkpt>
      <trkpt lat="45.31656" lon="6.18406">
        <ele>2604.7</ele>
        <time>2022-01-27T11:40:39Z</time>
      </trkpt>
      <trkpt lat="45.31656" lon="6.18405">
        <ele>2604.7</ele>
        <time>2022-01-27T11:40:40Z</time>
      </trkpt>
      <trkpt lat="45.31657" lon="6.18404">
        <ele>2604.7</ele>
        <time>2022-01-27T11:40:41Z</time>
      </trkpt>
      <trkpt lat="45.31657" lon="6.18403">
        <ele>2604.7</ele>
        <time>2022-01-27T11:40:42Z</time>
      </trkpt>
      <trkpt lat="45.31657" lon="6.18402">
        <ele>2604.7</ele>
        <time>2022-01-27T11:40:43Z</time>
      </trkpt>
      <trkpt lat="45.31658" lon="6.18401">
        <ele>2605.2</ele>
        <time>2022-01-27T11:40:44Z</time>
      </trkpt>
      <trkpt lat="45.31658" lon="6.184">
        <ele>2605.2</ele>
        <time>2022-01-27T11:40:45Z</time>
      </trkpt>
      <trkpt lat="45.31659" lon="6.18399">
        <ele>2605.2</ele>
        <time>2022-01-27T11:40:46Z</time>
      </trkpt>
      <trkpt lat="45.31659" lon="6.18398">
        <ele>2605.2</ele>
        <time>2022-01-27T11:40:47Z</time>
      </trkpt>
      <trkpt lat="45.31659" lon="6.18397">
        <ele>2605.2</ele>
        <time>2022-01-27T11:40:48Z</time>
      </trkpt>
      <trkpt lat="45.3166" lon="6.18396">
        <ele>2604.3</ele>
        <time>2022-01-27T11:40:49Z</time>
      </trkpt>
      <trkpt lat="45.3166" lon="6.18395">
        <ele>2604.3</ele>
        <time>2022-01-27T11:40:50Z</time>
      </trkpt>
      <trkpt lat="45.3166" lon="6.18394">
        <ele>2604.3</ele>
        <time>2022-01-27T11:40:51Z</time>
      </trkpt>
      <trkpt lat="45.3166" lon="6.18393">
        <ele>2604.3</ele>
        <time>2022-01-27T11:40:52Z</time>
      </trkpt>
      <trkpt lat="45.3166" lon="6.18392">
        <ele>2603.4</ele>
        <time>2022-01-27T11:40:53Z</time>
      </trkpt>
      <trkpt lat="45.3166" lon="6.18391">
        <ele>2603.4</ele>
        <time>2022-01-27T11:40:54Z</time>
      </trkpt>
      <trkpt lat="45.31661" lon="6.1839">
        <ele>2603.4</ele>
        <time>2022-01-27T11:40:55Z</time>
      </trkpt>
      <trkpt lat="45.31661" lon="6.18389">
        <ele>2603.4</ele>
        <time>2022-01-27T11:40:56Z</time>
      </trkpt>
      <trkpt lat="45.31661" lon="6.18388">
        <ele>2602.5</ele>
        <time>2022-01-27T11:40:57Z</time>
      </trkpt>
      <trkpt lat="45.31661" lon="6.18387">
        <ele>2602.5</ele>
        <time>2022-01-27T11:40:59Z</time>
      </trkpt>
      <trkpt lat="45.31661" lon="6.18388">
        <ele>2604.4</ele>
        <time>2022-01-27T11:41:03Z</time>
      </trkpt>
      <trkpt lat="45.31662" lon="6.18388">
        <ele>2604.4</ele>
        <time>2022-01-27T11:41:06Z</time>
      </trkpt>
      <trkpt lat="45.31662" lon="6.18389">
        <ele>2604.4</ele>
        <time>2022-01-27T11:41:07Z</time>
      </trkpt>
      <trkpt lat="45.31663" lon="6.18389">
        <ele>2605.2</ele>
        <time>2022-01-27T11:41:14Z</time>
      </trkpt>
      <trkpt lat="45.31663" lon="6.18388">
        <ele>2604.4</ele>
        <time>2022-01-27T11:41:18Z</time>
      </trkpt>
      <trkpt lat="45.31664" lon="6.18387">
        <ele>2604.4</ele>
        <time>2022-01-27T11:41:19Z</time>
      </trkpt>
      <trkpt lat="45.31664" lon="6.18386">
        <ele>2606.4</ele>
        <time>2022-01-27T11:41:21Z</time>
      </trkpt>
      <trkpt lat="45.31664" lon="6.18384">
        <ele>2605.7</ele>
        <time>2022-01-27T11:41:23Z</time>
      </trkpt>
      <trkpt lat="45.31664" lon="6.18383">
        <ele>2605.7</ele>
        <time>2022-01-27T11:41:24Z</time>
      </trkpt>
      <trkpt lat="45.31664" lon="6.18381">
        <ele>2605.7</ele>
        <time>2022-01-27T11:41:25Z</time>
      </trkpt>
      <trkpt lat="45.31664" lon="6.1838">
        <ele>2605.1</ele>
        <time>2022-01-27T11:41:27Z</time>
      </trkpt>
      <trkpt lat="45.31664" lon="6.18379">
        <ele>2605.1</ele>
        <time>2022-01-27T11:41:28Z</time>
      </trkpt>
      <trkpt lat="45.31665" lon="6.18378">
        <ele>2605.1</ele>
        <time>2022-01-27T11:41:29Z</time>
      </trkpt>
      <trkpt lat="45.31665" lon="6.18377">
        <ele>2605.1</ele>
        <time>2022-01-27T11:41:30Z</time>
      </trkpt>
      <trkpt lat="45.31665" lon="6.18376">
        <ele>2605.1</ele>
        <time>2022-01-27T11:41:32Z</time>
      </trkpt>
      <trkpt lat="45.31665" lon="6.18375">
        <ele>2604.6</ele>
        <time>2022-01-27T11:41:33Z</time>
      </trkpt>
      <trkpt lat="45.31665" lon="6.18374">
        <ele>2604.6</ele>
        <time>2022-01-27T11:41:36Z</time>
      </trkpt>
      <trkpt lat="45.31666" lon="6.18373">
        <ele>2604.6</ele>
        <time>2022-01-27T11:41:38Z</time>
      </trkpt>
      <trkpt lat="45.31666" lon="6.18372">
        <ele>2604.6</ele>
        <time>2022-01-27T11:41:39Z</time>
      </trkpt>
      <trkpt lat="45.31666" lon="6.18371">
        <ele>2604</ele>
        <time>2022-01-27T11:41:41Z</time>
      </trkpt>
      <trkpt lat="45.31666" lon="6.1837">
        <ele>2604</ele>
        <time>2022-01-27T11:41:43Z</time>
      </trkpt>
      <trkpt lat="45.31667" lon="6.18368">
        <ele>2604</ele>
        <time>2022-01-27T11:41:45Z</time>
      </trkpt>
      <trkpt lat="45.31667" lon="6.18367">
        <ele>2606.3</ele>
        <time>2022-01-27T11:41:46Z</time>
      </trkpt>
      <trkpt lat="45.31667" lon="6.18366">
        <ele>2605.8</ele>
        <time>2022-01-27T11:41:48Z</time>
      </trkpt>
      <trkpt lat="45.31667" lon="6.18365">
        <ele>2605.8</ele>
        <time>2022-01-27T11:41:50Z</time>
      </trkpt>
      <trkpt lat="45.31668" lon="6.18364">
        <ele>2605.8</ele>
        <time>2022-01-27T11:41:51Z</time>
      </trkpt>
      <trkpt lat="45.31668" lon="6.18363">
        <ele>2605.3</ele>
        <time>2022-01-27T11:41:52Z</time>
      </trkpt>
      <trkpt lat="45.31668" lon="6.18362">
        <ele>2605.3</ele>
        <time>2022-01-27T11:41:53Z</time>
      </trkpt>
      <trkpt lat="45.31668" lon="6.18361">
        <ele>2605.3</ele>
        <time>2022-01-27T11:41:54Z</time>
      </trkpt>
      <trkpt lat="45.31668" lon="6.1836">
        <ele>2605.3</ele>
        <time>2022-01-27T11:41:55Z</time>
      </trkpt>
      <trkpt lat="45.31668" lon="6.18359">
        <ele>2605.3</ele>
        <time>2022-01-27T11:41:56Z</time>
      </trkpt>
      <trkpt lat="45.31668" lon="6.18358">
        <ele>2604.8</ele>
        <time>2022-01-27T11:41:57Z</time>
      </trkpt>
      <trkpt lat="45.31669" lon="6.18358">
        <ele>2604.8</ele>
        <time>2022-01-27T11:41:58Z</time>
      </trkpt>
      <trkpt lat="45.31669" lon="6.18359">
        <ele>2604.8</ele>
        <time>2022-01-27T11:42:00Z</time>
      </trkpt>
      <trkpt lat="45.3167" lon="6.18359">
        <ele>2607.6</ele>
        <time>2022-01-27T11:42:02Z</time>
      </trkpt>
      <trkpt lat="45.31671" lon="6.18359">
        <ele>2607.6</ele>
        <time>2022-01-27T11:42:03Z</time>
      </trkpt>
      <trkpt lat="45.31671" lon="6.1836">
        <ele>2607.6</ele>
        <time>2022-01-27T11:42:04Z</time>
      </trkpt>
      <trkpt lat="45.31671" lon="6.18361">
        <ele>2607.6</ele>
        <time>2022-01-27T11:42:06Z</time>
      </trkpt>
      <trkpt lat="45.31672" lon="6.18362">
        <ele>2607.6</ele>
        <time>2022-01-27T11:42:08Z</time>
      </trkpt>
      <trkpt lat="45.31672" lon="6.18363">
        <ele>2607.6</ele>
        <time>2022-01-27T11:42:12Z</time>
      </trkpt>
      <trkpt lat="45.31673" lon="6.18363">
        <ele>2608</ele>
        <time>2022-01-27T11:42:14Z</time>
      </trkpt>
      <trkpt lat="45.31673" lon="6.18364">
        <ele>2610</ele>
        <time>2022-01-27T11:42:15Z</time>
      </trkpt>
      <trkpt lat="45.31674" lon="6.18365">
        <ele>2610</ele>
        <time>2022-01-27T11:42:17Z</time>
      </trkpt>
      <trkpt lat="45.31675" lon="6.18366">
        <ele>2610</ele>
        <time>2022-01-27T11:42:19Z</time>
      </trkpt>
      <trkpt lat="45.31675" lon="6.18367">
        <ele>2610</ele>
        <time>2022-01-27T11:42:20Z</time>
      </trkpt>
      <trkpt lat="45.31676" lon="6.18367">
        <ele>2612.2</ele>
        <time>2022-01-27T11:42:21Z</time>
      </trkpt>
      <trkpt lat="45.31677" lon="6.18368">
        <ele>2612.2</ele>
        <time>2022-01-27T11:42:22Z</time>
      </trkpt>
      <trkpt lat="45.31677" lon="6.18369">
        <ele>2612.2</ele>
        <time>2022-01-27T11:42:23Z</time>
      </trkpt>
      <trkpt lat="45.31678" lon="6.1837">
        <ele>2612.2</ele>
        <time>2022-01-27T11:42:24Z</time>
      </trkpt>
      <trkpt lat="45.31679" lon="6.18371">
        <ele>2613.9</ele>
        <time>2022-01-27T11:42:26Z</time>
      </trkpt>
      <trkpt lat="45.3168" lon="6.18372">
        <ele>2614.2</ele>
        <time>2022-01-27T11:42:27Z</time>
      </trkpt>
      <trkpt lat="45.3168" lon="6.18373">
        <ele>2614.2</ele>
        <time>2022-01-27T11:42:28Z</time>
      </trkpt>
      <trkpt lat="45.31681" lon="6.18374">
        <ele>2614.2</ele>
        <time>2022-01-27T11:42:29Z</time>
      </trkpt>
      <trkpt lat="45.31682" lon="6.18375">
        <ele>2614.2</ele>
        <time>2022-01-27T11:42:30Z</time>
      </trkpt>
      <trkpt lat="45.31682" lon="6.18376">
        <ele>2615.9</ele>
        <time>2022-01-27T11:42:31Z</time>
      </trkpt>
      <trkpt lat="45.31683" lon="6.18376">
        <ele>2616.3</ele>
        <time>2022-01-27T11:42:32Z</time>
      </trkpt>
      <trkpt lat="45.31683" lon="6.18378">
        <ele>2616.3</ele>
        <time>2022-01-27T11:42:33Z</time>
      </trkpt>
      <trkpt lat="45.31684" lon="6.18379">
        <ele>2616.3</ele>
        <time>2022-01-27T11:42:34Z</time>
      </trkpt>
      <trkpt lat="45.31684" lon="6.1838">
        <ele>2616.3</ele>
        <time>2022-01-27T11:42:35Z</time>
      </trkpt>
      <trkpt lat="45.31684" lon="6.18381">
        <ele>2616.6</ele>
        <time>2022-01-27T11:42:36Z</time>
      </trkpt>
      <trkpt lat="45.31684" lon="6.18382">
        <ele>2616.6</ele>
        <time>2022-01-27T11:42:37Z</time>
      </trkpt>
      <trkpt lat="45.31685" lon="6.18383">
        <ele>2616.6</ele>
        <time>2022-01-27T11:42:38Z</time>
      </trkpt>
      <trkpt lat="45.31686" lon="6.18384">
        <ele>2618.3</ele>
        <time>2022-01-27T11:42:40Z</time>
      </trkpt>
      <trkpt lat="45.31687" lon="6.18383">
        <ele>2618.3</ele>
        <time>2022-01-27T11:42:42Z</time>
      </trkpt>
      <trkpt lat="45.31687" lon="6.18382">
        <ele>2618.3</ele>
        <time>2022-01-27T11:42:44Z</time>
      </trkpt>
      <trkpt lat="45.31687" lon="6.1838">
        <ele>2618.3</ele>
        <time>2022-01-27T11:42:45Z</time>
      </trkpt>
      <trkpt lat="45.31687" lon="6.18379">
        <ele>2618</ele>
        <time>2022-01-27T11:42:47Z</time>
      </trkpt>
      <trkpt lat="45.31687" lon="6.18378">
        <ele>2618</ele>
        <time>2022-01-27T11:42:48Z</time>
      </trkpt>
      <trkpt lat="45.31687" lon="6.18377">
        <ele>2618</ele>
        <time>2022-01-27T11:42:49Z</time>
      </trkpt>
      <trkpt lat="45.31687" lon="6.18376">
        <ele>2618</ele>
        <time>2022-01-27T11:42:50Z</time>
      </trkpt>
      <trkpt lat="45.31687" lon="6.18375">
        <ele>2617.8</ele>
        <time>2022-01-27T11:42:51Z</time>
      </trkpt>
      <trkpt lat="45.31687" lon="6.18374">
        <ele>2617.8</ele>
        <time>2022-01-27T11:42:52Z</time>
      </trkpt>
      <trkpt lat="45.31687" lon="6.18373">
        <ele>2617.8</ele>
        <time>2022-01-27T11:42:53Z</time>
      </trkpt>
      <trkpt lat="45.31687" lon="6.18372">
        <ele>2617.8</ele>
        <time>2022-01-27T11:42:55Z</time>
      </trkpt>
      <trkpt lat="45.31686" lon="6.1837">
        <ele>2617.6</ele>
        <time>2022-01-27T11:42:56Z</time>
      </trkpt>
      <trkpt lat="45.31686" lon="6.18368">
        <ele>2617.6</ele>
        <time>2022-01-27T11:42:58Z</time>
      </trkpt>
      <trkpt lat="45.31686" lon="6.18367">
        <ele>2617.3</ele>
        <time>2022-01-27T11:42:59Z</time>
      </trkpt>
      <trkpt lat="45.31686" lon="6.18366">
        <ele>2617.3</ele>
        <time>2022-01-27T11:43:00Z</time>
      </trkpt>
      <trkpt lat="45.31686" lon="6.18365">
        <ele>2617.3</ele>
        <time>2022-01-27T11:43:01Z</time>
      </trkpt>
      <trkpt lat="45.31686" lon="6.18364">
        <ele>2617.3</ele>
        <time>2022-01-27T11:43:02Z</time>
      </trkpt>
      <trkpt lat="45.31686" lon="6.18363">
        <ele>2617.1</ele>
        <time>2022-01-27T11:43:04Z</time>
      </trkpt>
      <trkpt lat="45.31686" lon="6.18362">
        <ele>2617.1</ele>
        <time>2022-01-27T11:43:05Z</time>
      </trkpt>
      <trkpt lat="45.31685" lon="6.18361">
        <ele>2617.1</ele>
        <time>2022-01-27T11:43:06Z</time>
      </trkpt>
      <trkpt lat="45.31685" lon="6.1836">
        <ele>2617.1</ele>
        <time>2022-01-27T11:43:08Z</time>
      </trkpt>
      <trkpt lat="45.31685" lon="6.18359">
        <ele>2617.1</ele>
        <time>2022-01-27T11:43:09Z</time>
      </trkpt>
      <trkpt lat="45.31684" lon="6.18359">
        <ele>2615.1</ele>
        <time>2022-01-27T11:43:12Z</time>
      </trkpt>
      <trkpt lat="45.31684" lon="6.1836">
        <ele>2615.1</ele>
        <time>2022-01-27T11:43:15Z</time>
      </trkpt>
      <trkpt lat="45.31688" lon="6.1836">
        <ele>2617.1</ele>
        <time>2022-01-27T11:43:40Z</time>
      </trkpt>
      <trkpt lat="45.31689" lon="6.1836">
        <ele>2619.3</ele>
        <time>2022-01-27T11:43:41Z</time>
      </trkpt>
      <trkpt lat="45.31689" lon="6.18361">
        <ele>2619.3</ele>
        <time>2022-01-27T11:43:42Z</time>
      </trkpt>
      <trkpt lat="45.3169" lon="6.18362">
        <ele>2619.3</ele>
        <time>2022-01-27T11:43:44Z</time>
      </trkpt>
      <trkpt lat="45.31691" lon="6.18362">
        <ele>2619.3</ele>
        <time>2022-01-27T11:43:45Z</time>
      </trkpt>
      <trkpt lat="45.31691" lon="6.18363">
        <ele>2621.5</ele>
        <time>2022-01-27T11:43:46Z</time>
      </trkpt>
      <trkpt lat="45.31692" lon="6.18363">
        <ele>2621.6</ele>
        <time>2022-01-27T11:43:47Z</time>
      </trkpt>
      <trkpt lat="45.31692" lon="6.18364">
        <ele>2621.6</ele>
        <time>2022-01-27T11:43:48Z</time>
      </trkpt>
      <trkpt lat="45.31693" lon="6.18365">
        <ele>2621.6</ele>
        <time>2022-01-27T11:43:50Z</time>
      </trkpt>
      <trkpt lat="45.31693" lon="6.18366">
        <ele>2621.6</ele>
        <time>2022-01-27T11:43:51Z</time>
      </trkpt>
      <trkpt lat="45.31694" lon="6.18367">
        <ele>2621.6</ele>
        <time>2022-01-27T11:43:52Z</time>
      </trkpt>
      <trkpt lat="45.31695" lon="6.18368">
        <ele>2623.8</ele>
        <time>2022-01-27T11:43:54Z</time>
      </trkpt>
      <trkpt lat="45.31695" lon="6.18369">
        <ele>2623.8</ele>
        <time>2022-01-27T11:43:55Z</time>
      </trkpt>
      <trkpt lat="45.31696" lon="6.1837">
        <ele>2623.8</ele>
        <time>2022-01-27T11:43:56Z</time>
      </trkpt>
      <trkpt lat="45.31696" lon="6.18371">
        <ele>2623.8</ele>
        <time>2022-01-27T11:43:58Z</time>
      </trkpt>
      <trkpt lat="45.31697" lon="6.18372">
        <ele>2623.9</ele>
        <time>2022-01-27T11:43:59Z</time>
      </trkpt>
      <trkpt lat="45.31698" lon="6.18373">
        <ele>2626</ele>
        <time>2022-01-27T11:44:01Z</time>
      </trkpt>
      <trkpt lat="45.31698" lon="6.18374">
        <ele>2626</ele>
        <time>2022-01-27T11:44:02Z</time>
      </trkpt>
      <trkpt lat="45.31699" lon="6.18375">
        <ele>2626</ele>
        <time>2022-01-27T11:44:04Z</time>
      </trkpt>
      <trkpt lat="45.31699" lon="6.18376">
        <ele>2626</ele>
        <time>2022-01-27T11:44:05Z</time>
      </trkpt>
      <trkpt lat="45.317" lon="6.18377">
        <ele>2626</ele>
        <time>2022-01-27T11:44:07Z</time>
      </trkpt>
      <trkpt lat="45.317" lon="6.18378">
        <ele>2628</ele>
        <time>2022-01-27T11:44:08Z</time>
      </trkpt>
      <trkpt lat="45.31701" lon="6.18377">
        <ele>2628</ele>
        <time>2022-01-27T11:44:09Z</time>
      </trkpt>
      <trkpt lat="45.31701" lon="6.18376">
        <ele>2628</ele>
        <time>2022-01-27T11:44:12Z</time>
      </trkpt>
      <trkpt lat="45.31701" lon="6.18375">
        <ele>2628</ele>
        <time>2022-01-27T11:44:14Z</time>
      </trkpt>
      <trkpt lat="45.31701" lon="6.18374">
        <ele>2628</ele>
        <time>2022-01-27T11:44:15Z</time>
      </trkpt>
      <trkpt lat="45.31701" lon="6.18373">
        <ele>2628</ele>
        <time>2022-01-27T11:44:17Z</time>
      </trkpt>
      <trkpt lat="45.31701" lon="6.18372">
        <ele>2628</ele>
        <time>2022-01-27T11:44:18Z</time>
      </trkpt>
      <trkpt lat="45.31701" lon="6.18371">
        <ele>2628</ele>
        <time>2022-01-27T11:44:19Z</time>
      </trkpt>
      <trkpt lat="45.31701" lon="6.1837">
        <ele>2628</ele>
        <time>2022-01-27T11:44:20Z</time>
      </trkpt>
      <trkpt lat="45.31702" lon="6.18369">
        <ele>2628</ele>
        <time>2022-01-27T11:44:21Z</time>
      </trkpt>
      <trkpt lat="45.31702" lon="6.18368">
        <ele>2628</ele>
        <time>2022-01-27T11:44:23Z</time>
      </trkpt>
      <trkpt lat="45.31702" lon="6.18365">
        <ele>2628</ele>
        <time>2022-01-27T11:44:24Z</time>
      </trkpt>
      <trkpt lat="45.31702" lon="6.18364">
        <ele>2628</ele>
        <time>2022-01-27T11:44:25Z</time>
      </trkpt>
      <trkpt lat="45.31702" lon="6.18363">
        <ele>2628.1</ele>
        <time>2022-01-27T11:44:26Z</time>
      </trkpt>
      <trkpt lat="45.31702" lon="6.18361">
        <ele>2628.1</ele>
        <time>2022-01-27T11:44:27Z</time>
      </trkpt>
      <trkpt lat="45.31701" lon="6.1836">
        <ele>2628.1</ele>
        <time>2022-01-27T11:44:28Z</time>
      </trkpt>
      <trkpt lat="45.31701" lon="6.18359">
        <ele>2628.1</ele>
        <time>2022-01-27T11:44:29Z</time>
      </trkpt>
      <trkpt lat="45.31701" lon="6.18357">
        <ele>2628.1</ele>
        <time>2022-01-27T11:44:30Z</time>
      </trkpt>
      <trkpt lat="45.31701" lon="6.18356">
        <ele>2628.1</ele>
        <time>2022-01-27T11:44:31Z</time>
      </trkpt>
      <trkpt lat="45.31701" lon="6.18355">
        <ele>2628.1</ele>
        <time>2022-01-27T11:44:32Z</time>
      </trkpt>
      <trkpt lat="45.31701" lon="6.18354">
        <ele>2628.2</ele>
        <time>2022-01-27T11:44:33Z</time>
      </trkpt>
      <trkpt lat="45.317" lon="6.18353">
        <ele>2628.2</ele>
        <time>2022-01-27T11:44:35Z</time>
      </trkpt>
      <trkpt lat="45.317" lon="6.18351">
        <ele>2628.2</ele>
        <time>2022-01-27T11:44:36Z</time>
      </trkpt>
      <trkpt lat="45.317" lon="6.1835">
        <ele>2628.2</ele>
        <time>2022-01-27T11:44:37Z</time>
      </trkpt>
      <trkpt lat="45.317" lon="6.18349">
        <ele>2626</ele>
        <time>2022-01-27T11:44:39Z</time>
      </trkpt>
      <trkpt lat="45.317" lon="6.18348">
        <ele>2626</ele>
        <time>2022-01-27T11:44:40Z</time>
      </trkpt>
      <trkpt lat="45.31699" lon="6.18348">
        <ele>2626</ele>
        <time>2022-01-27T11:44:41Z</time>
      </trkpt>
      <trkpt lat="45.31699" lon="6.18347">
        <ele>2626</ele>
        <time>2022-01-27T11:44:42Z</time>
      </trkpt>
      <trkpt lat="45.31699" lon="6.18346">
        <ele>2626</ele>
        <time>2022-01-27T11:44:43Z</time>
      </trkpt>
      <trkpt lat="45.31698" lon="6.18345">
        <ele>2626</ele>
        <time>2022-01-27T11:44:45Z</time>
      </trkpt>
      <trkpt lat="45.31698" lon="6.18346">
        <ele>2626</ele>
        <time>2022-01-27T11:44:47Z</time>
      </trkpt>
      <trkpt lat="45.31697" lon="6.18341">
        <ele>2623.7</ele>
        <time>2022-01-27T11:45:05Z</time>
      </trkpt>
      <trkpt lat="45.31697" lon="6.1834">
        <ele>2623.7</ele>
        <time>2022-01-27T11:45:06Z</time>
      </trkpt>
      <trkpt lat="45.31696" lon="6.18339">
        <ele>2623.7</ele>
        <time>2022-01-27T11:45:07Z</time>
      </trkpt>
      <trkpt lat="45.31696" lon="6.18338">
        <ele>2623.7</ele>
        <time>2022-01-27T11:45:09Z</time>
      </trkpt>
      <trkpt lat="45.31696" lon="6.18337">
        <ele>2623.7</ele>
        <time>2022-01-27T11:45:10Z</time>
      </trkpt>
      <trkpt lat="45.31695" lon="6.18337">
        <ele>2623.6</ele>
        <time>2022-01-27T11:45:12Z</time>
      </trkpt>
      <trkpt lat="45.31695" lon="6.18336">
        <ele>2623.6</ele>
        <time>2022-01-27T11:45:14Z</time>
      </trkpt>
      <trkpt lat="45.31695" lon="6.18335">
        <ele>2623.6</ele>
        <time>2022-01-27T11:45:15Z</time>
      </trkpt>
      <trkpt lat="45.31695" lon="6.18334">
        <ele>2623.6</ele>
        <time>2022-01-27T11:45:16Z</time>
      </trkpt>
      <trkpt lat="45.31695" lon="6.18333">
        <ele>2623.6</ele>
        <time>2022-01-27T11:45:17Z</time>
      </trkpt>
      <trkpt lat="45.31695" lon="6.18332">
        <ele>2623.5</ele>
        <time>2022-01-27T11:45:19Z</time>
      </trkpt>
      <trkpt lat="45.31696" lon="6.18332">
        <ele>2623.5</ele>
        <time>2022-01-27T11:45:21Z</time>
      </trkpt>
      <trkpt lat="45.31697" lon="6.18332">
        <ele>2623.5</ele>
        <time>2022-01-27T11:45:23Z</time>
      </trkpt>
      <trkpt lat="45.31698" lon="6.18332">
        <ele>2626</ele>
        <time>2022-01-27T11:45:29Z</time>
      </trkpt>
      <trkpt lat="45.31698" lon="6.18333">
        <ele>2626</ele>
        <time>2022-01-27T11:45:30Z</time>
      </trkpt>
      <trkpt lat="45.31699" lon="6.18333">
        <ele>2626</ele>
        <time>2022-01-27T11:45:31Z</time>
      </trkpt>
      <trkpt lat="45.317" lon="6.18334">
        <ele>2626</ele>
        <time>2022-01-27T11:45:32Z</time>
      </trkpt>
      <trkpt lat="45.31701" lon="6.18335">
        <ele>2628.4</ele>
        <time>2022-01-27T11:45:34Z</time>
      </trkpt>
      <trkpt lat="45.31702" lon="6.18335">
        <ele>2628.4</ele>
        <time>2022-01-27T11:45:35Z</time>
      </trkpt>
      <trkpt lat="45.31703" lon="6.18336">
        <ele>2628.4</ele>
        <time>2022-01-27T11:45:36Z</time>
      </trkpt>
      <trkpt lat="45.31704" lon="6.18337">
        <ele>2630.7</ele>
        <time>2022-01-27T11:45:38Z</time>
      </trkpt>
      <trkpt lat="45.31705" lon="6.18338">
        <ele>2630.6</ele>
        <time>2022-01-27T11:45:39Z</time>
      </trkpt>
      <trkpt lat="45.31706" lon="6.18338">
        <ele>2630.6</ele>
        <time>2022-01-27T11:45:40Z</time>
      </trkpt>
      <trkpt lat="45.31706" lon="6.18339">
        <ele>2632.9</ele>
        <time>2022-01-27T11:45:41Z</time>
      </trkpt>
      <trkpt lat="45.31707" lon="6.18339">
        <ele>2632.9</ele>
        <time>2022-01-27T11:45:42Z</time>
      </trkpt>
      <trkpt lat="45.31707" lon="6.1834">
        <ele>2632.9</ele>
        <time>2022-01-27T11:45:43Z</time>
      </trkpt>
      <trkpt lat="45.31708" lon="6.18341">
        <ele>2632.9</ele>
        <time>2022-01-27T11:45:44Z</time>
      </trkpt>
      <trkpt lat="45.31708" lon="6.18342">
        <ele>2632.8</ele>
        <time>2022-01-27T11:45:45Z</time>
      </trkpt>
      <trkpt lat="45.31709" lon="6.18343">
        <ele>2632.8</ele>
        <time>2022-01-27T11:45:46Z</time>
      </trkpt>
      <trkpt lat="45.3171" lon="6.18344">
        <ele>2635.1</ele>
        <time>2022-01-27T11:45:48Z</time>
      </trkpt>
      <trkpt lat="45.3171" lon="6.18345">
        <ele>2635.1</ele>
        <time>2022-01-27T11:45:49Z</time>
      </trkpt>
      <trkpt lat="45.31711" lon="6.18346">
        <ele>2635.1</ele>
        <time>2022-01-27T11:45:50Z</time>
      </trkpt>
      <trkpt lat="45.31712" lon="6.18347">
        <ele>2634.9</ele>
        <time>2022-01-27T11:45:52Z</time>
      </trkpt>
      <trkpt lat="45.31713" lon="6.18348">
        <ele>2637.2</ele>
        <time>2022-01-27T11:45:53Z</time>
      </trkpt>
      <trkpt lat="45.31714" lon="6.18349">
        <ele>2637.2</ele>
        <time>2022-01-27T11:45:55Z</time>
      </trkpt>
      <trkpt lat="45.31714" lon="6.1835">
        <ele>2637.2</ele>
        <time>2022-01-27T11:45:56Z</time>
      </trkpt>
      <trkpt lat="45.31715" lon="6.1835">
        <ele>2637.1</ele>
        <time>2022-01-27T11:45:57Z</time>
      </trkpt>
      <trkpt lat="45.31715" lon="6.18351">
        <ele>2637.1</ele>
        <time>2022-01-27T11:45:58Z</time>
      </trkpt>
      <trkpt lat="45.31715" lon="6.1835">
        <ele>2637.1</ele>
        <time>2022-01-27T11:46:01Z</time>
      </trkpt>
      <trkpt lat="45.31715" lon="6.18349">
        <ele>2637.2</ele>
        <time>2022-01-27T11:46:04Z</time>
      </trkpt>
      <trkpt lat="45.31714" lon="6.18349">
        <ele>2637.2</ele>
        <time>2022-01-27T11:46:05Z</time>
      </trkpt>
      <trkpt lat="45.31715" lon="6.1835">
        <ele>2637.2</ele>
        <time>2022-01-27T11:46:09Z</time>
      </trkpt>
      <trkpt lat="45.31715" lon="6.18349">
        <ele>2639.6</ele>
        <time>2022-01-27T11:46:11Z</time>
      </trkpt>
      <trkpt lat="45.31716" lon="6.18349">
        <ele>2639.6</ele>
        <time>2022-01-27T11:46:12Z</time>
      </trkpt>
      <trkpt lat="45.31716" lon="6.18348">
        <ele>2639.6</ele>
        <time>2022-01-27T11:46:14Z</time>
      </trkpt>
      <trkpt lat="45.31716" lon="6.18346">
        <ele>2639.6</ele>
        <time>2022-01-27T11:46:16Z</time>
      </trkpt>
      <trkpt lat="45.31717" lon="6.18345">
        <ele>2639.8</ele>
        <time>2022-01-27T11:46:18Z</time>
      </trkpt>
      <trkpt lat="45.31717" lon="6.18344">
        <ele>2639.8</ele>
        <time>2022-01-27T11:46:19Z</time>
      </trkpt>
      <trkpt lat="45.31717" lon="6.18343">
        <ele>2639.8</ele>
        <time>2022-01-27T11:46:20Z</time>
      </trkpt>
      <trkpt lat="45.31716" lon="6.18342">
        <ele>2639.8</ele>
        <time>2022-01-27T11:46:21Z</time>
      </trkpt>
      <trkpt lat="45.31716" lon="6.18341">
        <ele>2639.9</ele>
        <time>2022-01-27T11:46:22Z</time>
      </trkpt>
      <trkpt lat="45.31716" lon="6.1834">
        <ele>2639.9</ele>
        <time>2022-01-27T11:46:23Z</time>
      </trkpt>
      <trkpt lat="45.31716" lon="6.18339">
        <ele>2639.9</ele>
        <time>2022-01-27T11:46:24Z</time>
      </trkpt>
      <trkpt lat="45.31716" lon="6.18338">
        <ele>2639.9</ele>
        <time>2022-01-27T11:46:25Z</time>
      </trkpt>
      <trkpt lat="45.31716" lon="6.18337">
        <ele>2639.9</ele>
        <time>2022-01-27T11:46:26Z</time>
      </trkpt>
      <trkpt lat="45.31716" lon="6.18336">
        <ele>2640</ele>
        <time>2022-01-27T11:46:27Z</time>
      </trkpt>
      <trkpt lat="45.31716" lon="6.18335">
        <ele>2640</ele>
        <time>2022-01-27T11:46:28Z</time>
      </trkpt>
      <trkpt lat="45.31715" lon="6.18334">
        <ele>2640</ele>
        <time>2022-01-27T11:46:29Z</time>
      </trkpt>
      <trkpt lat="45.31715" lon="6.18333">
        <ele>2640</ele>
        <time>2022-01-27T11:46:30Z</time>
      </trkpt>
      <trkpt lat="45.31715" lon="6.18332">
        <ele>2637.6</ele>
        <time>2022-01-27T11:46:31Z</time>
      </trkpt>
      <trkpt lat="45.31715" lon="6.18331">
        <ele>2637.6</ele>
        <time>2022-01-27T11:46:32Z</time>
      </trkpt>
      <trkpt lat="45.31715" lon="6.1833">
        <ele>2637.6</ele>
        <time>2022-01-27T11:46:33Z</time>
      </trkpt>
      <trkpt lat="45.31714" lon="6.18329">
        <ele>2637.6</ele>
        <time>2022-01-27T11:46:35Z</time>
      </trkpt>
      <trkpt lat="45.31714" lon="6.18328">
        <ele>2637.6</ele>
        <time>2022-01-27T11:46:36Z</time>
      </trkpt>
      <trkpt lat="45.31714" lon="6.18326">
        <ele>2637.6</ele>
        <time>2022-01-27T11:46:37Z</time>
      </trkpt>
      <trkpt lat="45.31713" lon="6.18325">
        <ele>2637.6</ele>
        <time>2022-01-27T11:46:38Z</time>
      </trkpt>
      <trkpt lat="45.31713" lon="6.18324">
        <ele>2637.6</ele>
        <time>2022-01-27T11:46:39Z</time>
      </trkpt>
      <trkpt lat="45.31713" lon="6.18323">
        <ele>2637.4</ele>
        <time>2022-01-27T11:46:40Z</time>
      </trkpt>
      <trkpt lat="45.31712" lon="6.18322">
        <ele>2637.4</ele>
        <time>2022-01-27T11:46:42Z</time>
      </trkpt>
      <trkpt lat="45.31712" lon="6.18321">
        <ele>2637.4</ele>
        <time>2022-01-27T11:46:43Z</time>
      </trkpt>
      <trkpt lat="45.31712" lon="6.18322">
        <ele>2637.4</ele>
        <time>2022-01-27T11:46:44Z</time>
      </trkpt>
      <trkpt lat="45.31712" lon="6.18323">
        <ele>2637.4</ele>
        <time>2022-01-27T11:46:47Z</time>
      </trkpt>
      <trkpt lat="45.31713" lon="6.18323">
        <ele>2637.4</ele>
        <time>2022-01-27T11:46:50Z</time>
      </trkpt>
      <trkpt lat="45.31713" lon="6.18322">
        <ele>2637.4</ele>
        <time>2022-01-27T11:46:53Z</time>
      </trkpt>
      <trkpt lat="45.31712" lon="6.18321">
        <ele>2637.4</ele>
        <time>2022-01-27T11:46:54Z</time>
      </trkpt>
      <trkpt lat="45.31712" lon="6.1832">
        <ele>2637.4</ele>
        <time>2022-01-27T11:46:55Z</time>
      </trkpt>
      <trkpt lat="45.31712" lon="6.18319">
        <ele>2637.2</ele>
        <time>2022-01-27T11:46:57Z</time>
      </trkpt>
      <trkpt lat="45.31712" lon="6.18318">
        <ele>2634.8</ele>
        <time>2022-01-27T11:46:58Z</time>
      </trkpt>
      <trkpt lat="45.31712" lon="6.18317">
        <ele>2634.8</ele>
        <time>2022-01-27T11:46:59Z</time>
      </trkpt>
      <trkpt lat="45.31712" lon="6.18316">
        <ele>2634.8</ele>
        <time>2022-01-27T11:47:00Z</time>
      </trkpt>
      <trkpt lat="45.31711" lon="6.18315">
        <ele>2634.6</ele>
        <time>2022-01-27T11:47:01Z</time>
      </trkpt>
      <trkpt lat="45.31711" lon="6.18314">
        <ele>2634.6</ele>
        <time>2022-01-27T11:47:03Z</time>
      </trkpt>
      <trkpt lat="45.31711" lon="6.18313">
        <ele>2634.6</ele>
        <time>2022-01-27T11:47:04Z</time>
      </trkpt>
      <trkpt lat="45.31711" lon="6.18312">
        <ele>2634.6</ele>
        <time>2022-01-27T11:47:05Z</time>
      </trkpt>
      <trkpt lat="45.3171" lon="6.18311">
        <ele>2634.3</ele>
        <time>2022-01-27T11:47:06Z</time>
      </trkpt>
      <trkpt lat="45.3171" lon="6.1831">
        <ele>2634.3</ele>
        <time>2022-01-27T11:47:08Z</time>
      </trkpt>
      <trkpt lat="45.3171" lon="6.18309">
        <ele>2634.3</ele>
        <time>2022-01-27T11:47:09Z</time>
      </trkpt>
      <trkpt lat="45.3171" lon="6.18308">
        <ele>2634.3</ele>
        <time>2022-01-27T11:47:10Z</time>
      </trkpt>
      <trkpt lat="45.3171" lon="6.18307">
        <ele>2634.3</ele>
        <time>2022-01-27T11:47:11Z</time>
      </trkpt>
      <trkpt lat="45.31709" lon="6.18306">
        <ele>2633.9</ele>
        <time>2022-01-27T11:47:13Z</time>
      </trkpt>
      <trkpt lat="45.31709" lon="6.18305">
        <ele>2633.9</ele>
        <time>2022-01-27T11:47:14Z</time>
      </trkpt>
      <trkpt lat="45.3171" lon="6.18305">
        <ele>2633.9</ele>
        <time>2022-01-27T11:47:16Z</time>
      </trkpt>
      <trkpt lat="45.31711" lon="6.18305">
        <ele>2633.9</ele>
        <time>2022-01-27T11:47:18Z</time>
      </trkpt>
      <trkpt lat="45.31712" lon="6.18305">
        <ele>2633.9</ele>
        <time>2022-01-27T11:47:21Z</time>
      </trkpt>
      <trkpt lat="45.31711" lon="6.18306">
        <ele>2633.9</ele>
        <time>2022-01-27T11:47:23Z</time>
      </trkpt>
      <trkpt lat="45.31712" lon="6.18306">
        <ele>2633.9</ele>
        <time>2022-01-27T11:47:27Z</time>
      </trkpt>
      <trkpt lat="45.31713" lon="6.18306">
        <ele>2636.3</ele>
        <time>2022-01-27T11:47:30Z</time>
      </trkpt>
      <trkpt lat="45.31713" lon="6.18307">
        <ele>2636.3</ele>
        <time>2022-01-27T11:47:31Z</time>
      </trkpt>
      <trkpt lat="45.31714" lon="6.18307">
        <ele>2636.7</ele>
        <time>2022-01-27T11:47:32Z</time>
      </trkpt>
      <trkpt lat="45.31714" lon="6.18308">
        <ele>2636.7</ele>
        <time>2022-01-27T11:47:33Z</time>
      </trkpt>
      <trkpt lat="45.31715" lon="6.18308">
        <ele>2636.7</ele>
        <time>2022-01-27T11:47:34Z</time>
      </trkpt>
      <trkpt lat="45.31715" lon="6.18309">
        <ele>2639.1</ele>
        <time>2022-01-27T11:47:35Z</time>
      </trkpt>
      <trkpt lat="45.31716" lon="6.1831">
        <ele>2639.1</ele>
        <time>2022-01-27T11:47:36Z</time>
      </trkpt>
      <trkpt lat="45.31716" lon="6.18311">
        <ele>2639.1</ele>
        <time>2022-01-27T11:47:38Z</time>
      </trkpt>
      <trkpt lat="45.31717" lon="6.18311">
        <ele>2639.1</ele>
        <time>2022-01-27T11:47:39Z</time>
      </trkpt>
      <trkpt lat="45.31717" lon="6.18312">
        <ele>2639.4</ele>
        <time>2022-01-27T11:47:40Z</time>
      </trkpt>
      <trkpt lat="45.31717" lon="6.18313">
        <ele>2639.4</ele>
        <time>2022-01-27T11:47:41Z</time>
      </trkpt>
      <trkpt lat="45.31718" lon="6.18313">
        <ele>2639.4</ele>
        <time>2022-01-27T11:47:42Z</time>
      </trkpt>
      <trkpt lat="45.31718" lon="6.18314">
        <ele>2641.9</ele>
        <time>2022-01-27T11:47:43Z</time>
      </trkpt>
      <trkpt lat="45.31719" lon="6.18314">
        <ele>2641.9</ele>
        <time>2022-01-27T11:47:44Z</time>
      </trkpt>
      <trkpt lat="45.3172" lon="6.18316">
        <ele>2642.1</ele>
        <time>2022-01-27T11:47:45Z</time>
      </trkpt>
      <trkpt lat="45.31721" lon="6.18316">
        <ele>2642.1</ele>
        <time>2022-01-27T11:47:46Z</time>
      </trkpt>
      <trkpt lat="45.31722" lon="6.18317">
        <ele>2644.5</ele>
        <time>2022-01-27T11:47:47Z</time>
      </trkpt>
      <trkpt lat="45.31722" lon="6.18318">
        <ele>2644.5</ele>
        <time>2022-01-27T11:47:48Z</time>
      </trkpt>
      <trkpt lat="45.31723" lon="6.18319">
        <ele>2644.5</ele>
        <time>2022-01-27T11:47:50Z</time>
      </trkpt>
      <trkpt lat="45.31724" lon="6.18319">
        <ele>2644.5</ele>
        <time>2022-01-27T11:47:51Z</time>
      </trkpt>
      <trkpt lat="45.31724" lon="6.1832">
        <ele>2646.8</ele>
        <time>2022-01-27T11:47:52Z</time>
      </trkpt>
      <trkpt lat="45.31725" lon="6.1832">
        <ele>2647</ele>
        <time>2022-01-27T11:47:53Z</time>
      </trkpt>
      <trkpt lat="45.31725" lon="6.18321">
        <ele>2647</ele>
        <time>2022-01-27T11:47:54Z</time>
      </trkpt>
      <trkpt lat="45.31725" lon="6.1832">
        <ele>2647</ele>
        <time>2022-01-27T11:47:55Z</time>
      </trkpt>
      <trkpt lat="45.31725" lon="6.18319">
        <ele>2646.8</ele>
        <time>2022-01-27T11:47:56Z</time>
      </trkpt>
      <trkpt lat="45.31725" lon="6.18318">
        <ele>2646.8</ele>
        <time>2022-01-27T11:47:58Z</time>
      </trkpt>
      <trkpt lat="45.31725" lon="6.18317">
        <ele>2646.8</ele>
        <time>2022-01-27T11:48:00Z</time>
      </trkpt>
      <trkpt lat="45.31726" lon="6.18317">
        <ele>2646.8</ele>
        <time>2022-01-27T11:48:04Z</time>
      </trkpt>
      <trkpt lat="45.31726" lon="6.18318">
        <ele>2646.8</ele>
        <time>2022-01-27T11:48:05Z</time>
      </trkpt>
      <trkpt lat="45.31727" lon="6.18319">
        <ele>2646.8</ele>
        <time>2022-01-27T11:48:07Z</time>
      </trkpt>
      <trkpt lat="45.31727" lon="6.1832">
        <ele>2646.8</ele>
        <time>2022-01-27T11:48:08Z</time>
      </trkpt>
      <trkpt lat="45.31728" lon="6.1832">
        <ele>2649.1</ele>
        <time>2022-01-27T11:48:09Z</time>
      </trkpt>
      <trkpt lat="45.31728" lon="6.18321">
        <ele>2649.3</ele>
        <time>2022-01-27T11:48:10Z</time>
      </trkpt>
      <trkpt lat="45.31729" lon="6.18321">
        <ele>2649.3</ele>
        <time>2022-01-27T11:48:11Z</time>
      </trkpt>
      <trkpt lat="45.31729" lon="6.18322">
        <ele>2649.3</ele>
        <time>2022-01-27T11:48:17Z</time>
      </trkpt>
      <trkpt lat="45.3173" lon="6.18323">
        <ele>2649.3</ele>
        <time>2022-01-27T11:48:19Z</time>
      </trkpt>
      <trkpt lat="45.3173" lon="6.18324">
        <ele>2651.5</ele>
        <time>2022-01-27T11:48:20Z</time>
      </trkpt>
      <trkpt lat="45.31731" lon="6.18324">
        <ele>2651.6</ele>
        <time>2022-01-27T11:48:21Z</time>
      </trkpt>
      <trkpt lat="45.31731" lon="6.18325">
        <ele>2651.6</ele>
        <time>2022-01-27T11:48:22Z</time>
      </trkpt>
      <trkpt lat="45.31732" lon="6.18326">
        <ele>2651.6</ele>
        <time>2022-01-27T11:48:23Z</time>
      </trkpt>
      <trkpt lat="45.31732" lon="6.18327">
        <ele>2651.6</ele>
        <time>2022-01-27T11:48:24Z</time>
      </trkpt>
      <trkpt lat="45.31733" lon="6.18327">
        <ele>2651.6</ele>
        <time>2022-01-27T11:48:25Z</time>
      </trkpt>
      <trkpt lat="45.31733" lon="6.18328">
        <ele>2651.6</ele>
        <time>2022-01-27T11:48:26Z</time>
      </trkpt>
      <trkpt lat="45.31734" lon="6.18329">
        <ele>2653.7</ele>
        <time>2022-01-27T11:48:27Z</time>
      </trkpt>
      <trkpt lat="45.31734" lon="6.1833">
        <ele>2653.7</ele>
        <time>2022-01-27T11:48:28Z</time>
      </trkpt>
      <trkpt lat="45.31735" lon="6.1833">
        <ele>2653.7</ele>
        <time>2022-01-27T11:48:29Z</time>
      </trkpt>
      <trkpt lat="45.31735" lon="6.18331">
        <ele>2653.7</ele>
        <time>2022-01-27T11:48:30Z</time>
      </trkpt>
      <trkpt lat="45.31736" lon="6.18331">
        <ele>2653.7</ele>
        <time>2022-01-27T11:48:31Z</time>
      </trkpt>
      <trkpt lat="45.31736" lon="6.18332">
        <ele>2655.6</ele>
        <time>2022-01-27T11:48:32Z</time>
      </trkpt>
      <trkpt lat="45.31737" lon="6.18333">
        <ele>2655.6</ele>
        <time>2022-01-27T11:48:33Z</time>
      </trkpt>
      <trkpt lat="45.31738" lon="6.18334">
        <ele>2655.6</ele>
        <time>2022-01-27T11:48:34Z</time>
      </trkpt>
      <trkpt lat="45.31738" lon="6.18335">
        <ele>2655.6</ele>
        <time>2022-01-27T11:48:35Z</time>
      </trkpt>
      <trkpt lat="45.31739" lon="6.18336">
        <ele>2655.6</ele>
        <time>2022-01-27T11:48:36Z</time>
      </trkpt>
      <trkpt lat="45.31739" lon="6.18337">
        <ele>2657.4</ele>
        <time>2022-01-27T11:48:37Z</time>
      </trkpt>
      <trkpt lat="45.3174" lon="6.18338">
        <ele>2657.4</ele>
        <time>2022-01-27T11:48:38Z</time>
      </trkpt>
      <trkpt lat="45.31741" lon="6.18338">
        <ele>2657.4</ele>
        <time>2022-01-27T11:48:39Z</time>
      </trkpt>
      <trkpt lat="45.31741" lon="6.18339">
        <ele>2657.4</ele>
        <time>2022-01-27T11:48:40Z</time>
      </trkpt>
      <trkpt lat="45.31741" lon="6.1834">
        <ele>2657.4</ele>
        <time>2022-01-27T11:48:41Z</time>
      </trkpt>
      <trkpt lat="45.31742" lon="6.1834">
        <ele>2657.4</ele>
        <time>2022-01-27T11:48:42Z</time>
      </trkpt>
      <trkpt lat="45.31742" lon="6.18341">
        <ele>2657.4</ele>
        <time>2022-01-27T11:48:43Z</time>
      </trkpt>
      <trkpt lat="45.31743" lon="6.18341">
        <ele>2659.1</ele>
        <time>2022-01-27T11:48:44Z</time>
      </trkpt>
      <trkpt lat="45.31743" lon="6.18342">
        <ele>2659</ele>
        <time>2022-01-27T11:48:45Z</time>
      </trkpt>
      <trkpt lat="45.31743" lon="6.18343">
        <ele>2659</ele>
        <time>2022-01-27T11:48:46Z</time>
      </trkpt>
      <trkpt lat="45.31744" lon="6.18344">
        <ele>2659</ele>
        <time>2022-01-27T11:48:48Z</time>
      </trkpt>
      <trkpt lat="45.31744" lon="6.18345">
        <ele>2659</ele>
        <time>2022-01-27T11:48:49Z</time>
      </trkpt>
      <trkpt lat="45.31744" lon="6.18346">
        <ele>2659</ele>
        <time>2022-01-27T11:48:50Z</time>
      </trkpt>
      <trkpt lat="45.31743" lon="6.18346">
        <ele>2658.9</ele>
        <time>2022-01-27T11:48:55Z</time>
      </trkpt>
      <trkpt lat="45.31743" lon="6.18347">
        <ele>2658.9</ele>
        <time>2022-01-27T11:48:58Z</time>
      </trkpt>
      <trkpt lat="45.31743" lon="6.18348">
        <ele>2658.9</ele>
        <time>2022-01-27T11:48:59Z</time>
      </trkpt>
      <trkpt lat="45.31743" lon="6.18349">
        <ele>2658.9</ele>
        <time>2022-01-27T11:49:00Z</time>
      </trkpt>
      <trkpt lat="45.31743" lon="6.1835">
        <ele>2658.7</ele>
        <time>2022-01-27T11:49:02Z</time>
      </trkpt>
      <trkpt lat="45.31743" lon="6.18352">
        <ele>2658.7</ele>
        <time>2022-01-27T11:49:04Z</time>
      </trkpt>
      <trkpt lat="45.31743" lon="6.18353">
        <ele>2658.7</ele>
        <time>2022-01-27T11:49:05Z</time>
      </trkpt>
      <trkpt lat="45.31743" lon="6.18354">
        <ele>2658.7</ele>
        <time>2022-01-27T11:49:06Z</time>
      </trkpt>
      <trkpt lat="45.31743" lon="6.18355">
        <ele>2658.4</ele>
        <time>2022-01-27T11:49:07Z</time>
      </trkpt>
      <trkpt lat="45.31743" lon="6.18357">
        <ele>2658.4</ele>
        <time>2022-01-27T11:49:08Z</time>
      </trkpt>
      <trkpt lat="45.31744" lon="6.18359">
        <ele>2658.4</ele>
        <time>2022-01-27T11:49:10Z</time>
      </trkpt>
      <trkpt lat="45.31744" lon="6.1836">
        <ele>2658.1</ele>
        <time>2022-01-27T11:49:11Z</time>
      </trkpt>
      <trkpt lat="45.31744" lon="6.18361">
        <ele>2658.1</ele>
        <time>2022-01-27T11:49:12Z</time>
      </trkpt>
      <trkpt lat="45.31744" lon="6.18362">
        <ele>2658.1</ele>
        <time>2022-01-27T11:49:13Z</time>
      </trkpt>
      <trkpt lat="45.31745" lon="6.18363">
        <ele>2658.1</ele>
        <time>2022-01-27T11:49:14Z</time>
      </trkpt>
      <trkpt lat="45.31745" lon="6.18364">
        <ele>2657.7</ele>
        <time>2022-01-27T11:49:15Z</time>
      </trkpt>
      <trkpt lat="45.31745" lon="6.18365">
        <ele>2657.7</ele>
        <time>2022-01-27T11:49:16Z</time>
      </trkpt>
      <trkpt lat="45.31746" lon="6.18366">
        <ele>2659.4</ele>
        <time>2022-01-27T11:49:18Z</time>
      </trkpt>
      <trkpt lat="45.31746" lon="6.18367">
        <ele>2659.4</ele>
        <time>2022-01-27T11:49:19Z</time>
      </trkpt>
      <trkpt lat="45.31746" lon="6.18368">
        <ele>2659</ele>
        <time>2022-01-27T11:49:20Z</time>
      </trkpt>
      <trkpt lat="45.31747" lon="6.18369">
        <ele>2659</ele>
        <time>2022-01-27T11:49:21Z</time>
      </trkpt>
      <trkpt lat="45.31747" lon="6.1837">
        <ele>2659</ele>
        <time>2022-01-27T11:49:22Z</time>
      </trkpt>
      <trkpt lat="45.31747" lon="6.18371">
        <ele>2659</ele>
        <time>2022-01-27T11:49:24Z</time>
      </trkpt>
      <trkpt lat="45.31747" lon="6.18372">
        <ele>2658.5</ele>
        <time>2022-01-27T11:49:25Z</time>
      </trkpt>
      <trkpt lat="45.31747" lon="6.18373">
        <ele>2658.5</ele>
        <time>2022-01-27T11:49:26Z</time>
      </trkpt>
      <trkpt lat="45.31747" lon="6.18374">
        <ele>2658.5</ele>
        <time>2022-01-27T11:49:27Z</time>
      </trkpt>
      <trkpt lat="45.31747" lon="6.18375">
        <ele>2658.5</ele>
        <time>2022-01-27T11:49:28Z</time>
      </trkpt>
      <trkpt lat="45.31748" lon="6.18378">
        <ele>2658</ele>
        <time>2022-01-27T11:49:29Z</time>
      </trkpt>
      <trkpt lat="45.31748" lon="6.18379">
        <ele>2658</ele>
        <time>2022-01-27T11:49:31Z</time>
      </trkpt>
      <trkpt lat="45.31749" lon="6.1838">
        <ele>2659.7</ele>
        <time>2022-01-27T11:49:33Z</time>
      </trkpt>
      <trkpt lat="45.31749" lon="6.18381">
        <ele>2659.1</ele>
        <time>2022-01-27T11:49:35Z</time>
      </trkpt>
      <trkpt lat="45.31749" lon="6.18382">
        <ele>2659.1</ele>
        <time>2022-01-27T11:49:37Z</time>
      </trkpt>
      <trkpt lat="45.3175" lon="6.18383">
        <ele>2659.1</ele>
        <time>2022-01-27T11:49:39Z</time>
      </trkpt>
      <trkpt lat="45.3175" lon="6.18384">
        <ele>2659.1</ele>
        <time>2022-01-27T11:49:41Z</time>
      </trkpt>
      <trkpt lat="45.31751" lon="6.18385">
        <ele>2658.4</ele>
        <time>2022-01-27T11:49:42Z</time>
      </trkpt>
      <trkpt lat="45.31751" lon="6.18386">
        <ele>2658.4</ele>
        <time>2022-01-27T11:49:43Z</time>
      </trkpt>
      <trkpt lat="45.31752" lon="6.18388">
        <ele>2660</ele>
        <time>2022-01-27T11:49:44Z</time>
      </trkpt>
      <trkpt lat="45.31752" lon="6.18389">
        <ele>2660</ele>
        <time>2022-01-27T11:49:47Z</time>
      </trkpt>
      <trkpt lat="45.31753" lon="6.18389">
        <ele>2659.3</ele>
        <time>2022-01-27T11:49:49Z</time>
      </trkpt>
      <trkpt lat="45.31754" lon="6.18389">
        <ele>2659.3</ele>
        <time>2022-01-27T11:49:51Z</time>
      </trkpt>
      <trkpt lat="45.31754" lon="6.18388">
        <ele>2660</ele>
        <time>2022-01-27T11:49:53Z</time>
      </trkpt>
      <trkpt lat="45.31755" lon="6.18387">
        <ele>2661.4</ele>
        <time>2022-01-27T11:49:57Z</time>
      </trkpt>
      <trkpt lat="45.31755" lon="6.18386">
        <ele>2661.4</ele>
        <time>2022-01-27T11:49:58Z</time>
      </trkpt>
      <trkpt lat="45.31756" lon="6.18384">
        <ele>2662.1</ele>
        <time>2022-01-27T11:49:59Z</time>
      </trkpt>
      <trkpt lat="45.31756" lon="6.18383">
        <ele>2662.1</ele>
        <time>2022-01-27T11:50:00Z</time>
      </trkpt>
      <trkpt lat="45.31756" lon="6.18382">
        <ele>2662.1</ele>
        <time>2022-01-27T11:50:01Z</time>
      </trkpt>
      <trkpt lat="45.31756" lon="6.18381">
        <ele>2662.1</ele>
        <time>2022-01-27T11:50:03Z</time>
      </trkpt>
      <trkpt lat="45.31756" lon="6.1838">
        <ele>2662.1</ele>
        <time>2022-01-27T11:50:04Z</time>
      </trkpt>
      <trkpt lat="45.31757" lon="6.18379">
        <ele>2662.7</ele>
        <time>2022-01-27T11:50:05Z</time>
      </trkpt>
      <trkpt lat="45.31757" lon="6.18378">
        <ele>2662.7</ele>
        <time>2022-01-27T11:50:06Z</time>
      </trkpt>
      <trkpt lat="45.31757" lon="6.18377">
        <ele>2663.9</ele>
        <time>2022-01-27T11:50:09Z</time>
      </trkpt>
      <trkpt lat="45.31757" lon="6.18376">
        <ele>2664.5</ele>
        <time>2022-01-27T11:50:10Z</time>
      </trkpt>
      <trkpt lat="45.31757" lon="6.18375">
        <ele>2664.5</ele>
        <time>2022-01-27T11:50:11Z</time>
      </trkpt>
      <trkpt lat="45.31757" lon="6.18374">
        <ele>2664.5</ele>
        <time>2022-01-27T11:50:12Z</time>
      </trkpt>
      <trkpt lat="45.31758" lon="6.18372">
        <ele>2664.5</ele>
        <time>2022-01-27T11:50:30Z</time>
      </trkpt>
      <trkpt lat="45.31758" lon="6.18371">
        <ele>2664.9</ele>
        <time>2022-01-27T11:50:31Z</time>
      </trkpt>
      <trkpt lat="45.31758" lon="6.18369">
        <ele>2664.9</ele>
        <time>2022-01-27T11:50:33Z</time>
      </trkpt>
      <trkpt lat="45.31758" lon="6.18367">
        <ele>2665.4</ele>
        <time>2022-01-27T11:50:35Z</time>
      </trkpt>
      <trkpt lat="45.31758" lon="6.18366">
        <ele>2665.4</ele>
        <time>2022-01-27T11:50:36Z</time>
      </trkpt>
      <trkpt lat="45.31758" lon="6.18365">
        <ele>2665.4</ele>
        <time>2022-01-27T11:50:37Z</time>
      </trkpt>
      <trkpt lat="45.31758" lon="6.18364">
        <ele>2665.4</ele>
        <time>2022-01-27T11:50:39Z</time>
      </trkpt>
      <trkpt lat="45.31758" lon="6.18363">
        <ele>2665.4</ele>
        <time>2022-01-27T11:50:40Z</time>
      </trkpt>
      <trkpt lat="45.31758" lon="6.18362">
        <ele>2665.7</ele>
        <time>2022-01-27T11:50:41Z</time>
      </trkpt>
      <trkpt lat="45.31759" lon="6.18361">
        <ele>2665.7</ele>
        <time>2022-01-27T11:50:42Z</time>
      </trkpt>
      <trkpt lat="45.31759" lon="6.1836">
        <ele>2665.7</ele>
        <time>2022-01-27T11:50:44Z</time>
      </trkpt>
      <trkpt lat="45.31759" lon="6.18359">
        <ele>2665.7</ele>
        <time>2022-01-27T11:50:46Z</time>
      </trkpt>
      <trkpt lat="45.3176" lon="6.18359">
        <ele>2666</ele>
        <time>2022-01-27T11:50:50Z</time>
      </trkpt>
      <trkpt lat="45.31761" lon="6.18359">
        <ele>2666.7</ele>
        <time>2022-01-27T11:50:53Z</time>
      </trkpt>
      <trkpt lat="45.3176" lon="6.18359">
        <ele>2666.7</ele>
        <time>2022-01-27T11:50:55Z</time>
      </trkpt>
      <trkpt lat="45.3176" lon="6.1836">
        <ele>2665.7</ele>
        <time>2022-01-27T11:50:56Z</time>
      </trkpt>
      <trkpt lat="45.31761" lon="6.1836">
        <ele>2666.7</ele>
        <time>2022-01-27T11:50:58Z</time>
      </trkpt>
      <trkpt lat="45.31761" lon="6.18361">
        <ele>2666.7</ele>
        <time>2022-01-27T11:50:59Z</time>
      </trkpt>
      <trkpt lat="45.31762" lon="6.18361">
        <ele>2666.7</ele>
        <time>2022-01-27T11:51:01Z</time>
      </trkpt>
      <trkpt lat="45.31762" lon="6.18362">
        <ele>2666.7</ele>
        <time>2022-01-27T11:51:02Z</time>
      </trkpt>
      <trkpt lat="45.31762" lon="6.18363">
        <ele>2666.7</ele>
        <time>2022-01-27T11:51:03Z</time>
      </trkpt>
      <trkpt lat="45.31763" lon="6.18364">
        <ele>2666.4</ele>
        <time>2022-01-27T11:51:04Z</time>
      </trkpt>
      <trkpt lat="45.31763" lon="6.18365">
        <ele>2666.4</ele>
        <time>2022-01-27T11:51:05Z</time>
      </trkpt>
      <trkpt lat="45.31763" lon="6.18366">
        <ele>2666.4</ele>
        <time>2022-01-27T11:51:06Z</time>
      </trkpt>
      <trkpt lat="45.31764" lon="6.18367">
        <ele>2667.3</ele>
        <time>2022-01-27T11:51:07Z</time>
      </trkpt>
      <trkpt lat="45.31764" lon="6.18368">
        <ele>2666.9</ele>
        <time>2022-01-27T11:51:08Z</time>
      </trkpt>
      <trkpt lat="45.31764" lon="6.1837">
        <ele>2666.9</ele>
        <time>2022-01-27T11:51:09Z</time>
      </trkpt>
      <trkpt lat="45.31764" lon="6.18371">
        <ele>2666.9</ele>
        <time>2022-01-27T11:51:10Z</time>
      </trkpt>
      <trkpt lat="45.31764" lon="6.18372">
        <ele>2666.5</ele>
        <time>2022-01-27T11:51:11Z</time>
      </trkpt>
      <trkpt lat="45.31764" lon="6.18373">
        <ele>2666.5</ele>
        <time>2022-01-27T11:51:12Z</time>
      </trkpt>
      <trkpt lat="45.31765" lon="6.18374">
        <ele>2666.5</ele>
        <time>2022-01-27T11:51:13Z</time>
      </trkpt>
      <trkpt lat="45.31765" lon="6.18375">
        <ele>2666.5</ele>
        <time>2022-01-27T11:51:14Z</time>
      </trkpt>
      <trkpt lat="45.31765" lon="6.18376">
        <ele>2666</ele>
        <time>2022-01-27T11:51:15Z</time>
      </trkpt>
      <trkpt lat="45.31765" lon="6.18377">
        <ele>2666</ele>
        <time>2022-01-27T11:51:16Z</time>
      </trkpt>
      <trkpt lat="45.31765" lon="6.18378">
        <ele>2666</ele>
        <time>2022-01-27T11:51:17Z</time>
      </trkpt>
      <trkpt lat="45.31765" lon="6.18379">
        <ele>2666</ele>
        <time>2022-01-27T11:51:18Z</time>
      </trkpt>
      <trkpt lat="45.31765" lon="6.1838">
        <ele>2666</ele>
        <time>2022-01-27T11:51:19Z</time>
      </trkpt>
      <trkpt lat="45.31764" lon="6.18379">
        <ele>2666</ele>
        <time>2022-01-27T11:51:22Z</time>
      </trkpt>
      <trkpt lat="45.31763" lon="6.18379">
        <ele>2666</ele>
        <time>2022-01-27T11:51:26Z</time>
      </trkpt>
      <trkpt lat="45.31763" lon="6.1838">
        <ele>2665</ele>
        <time>2022-01-27T11:51:27Z</time>
      </trkpt>
      <trkpt lat="45.31763" lon="6.18381">
        <ele>2665.4</ele>
        <time>2022-01-27T11:51:30Z</time>
      </trkpt>
      <trkpt lat="45.31764" lon="6.18382">
        <ele>2665.4</ele>
        <time>2022-01-27T11:51:31Z</time>
      </trkpt>
      <trkpt lat="45.31764" lon="6.18383">
        <ele>2665.4</ele>
        <time>2022-01-27T11:51:33Z</time>
      </trkpt>
      <trkpt lat="45.31764" lon="6.18384">
        <ele>2665.4</ele>
        <time>2022-01-27T11:51:34Z</time>
      </trkpt>
      <trkpt lat="45.31764" lon="6.18385">
        <ele>2664.7</ele>
        <time>2022-01-27T11:51:35Z</time>
      </trkpt>
      <trkpt lat="45.31765" lon="6.18386">
        <ele>2664.7</ele>
        <time>2022-01-27T11:51:36Z</time>
      </trkpt>
      <trkpt lat="45.31766" lon="6.18386">
        <ele>2664.7</ele>
        <time>2022-01-27T11:51:38Z</time>
      </trkpt>
      <trkpt lat="45.31767" lon="6.18386">
        <ele>2665.5</ele>
        <time>2022-01-27T11:51:40Z</time>
      </trkpt>
      <trkpt lat="45.31767" lon="6.18385">
        <ele>2665.5</ele>
        <time>2022-01-27T11:51:41Z</time>
      </trkpt>
      <trkpt lat="45.31768" lon="6.18384">
        <ele>2666.2</ele>
        <time>2022-01-27T11:51:42Z</time>
      </trkpt>
      <trkpt lat="45.31768" lon="6.18383">
        <ele>2666.2</ele>
        <time>2022-01-27T11:51:44Z</time>
      </trkpt>
      <trkpt lat="45.31769" lon="6.18382">
        <ele>2666.2</ele>
        <time>2022-01-27T11:51:46Z</time>
      </trkpt>
      <trkpt lat="45.31769" lon="6.18381">
        <ele>2666.2</ele>
        <time>2022-01-27T11:51:47Z</time>
      </trkpt>
      <trkpt lat="45.31769" lon="6.1838">
        <ele>2666.2</ele>
        <time>2022-01-27T11:51:48Z</time>
      </trkpt>
      <trkpt lat="45.31769" lon="6.18379">
        <ele>2666.8</ele>
        <time>2022-01-27T11:51:49Z</time>
      </trkpt>
      <trkpt lat="45.31769" lon="6.18378">
        <ele>2666.8</ele>
        <time>2022-01-27T11:51:50Z</time>
      </trkpt>
      <trkpt lat="45.31769" lon="6.18377">
        <ele>2666.8</ele>
        <time>2022-01-27T11:51:52Z</time>
      </trkpt>
      <trkpt lat="45.31769" lon="6.18376">
        <ele>2666.8</ele>
        <time>2022-01-27T11:51:53Z</time>
      </trkpt>
      <trkpt lat="45.31769" lon="6.18375">
        <ele>2667.3</ele>
        <time>2022-01-27T11:51:54Z</time>
      </trkpt>
      <trkpt lat="45.31769" lon="6.18374">
        <ele>2667.3</ele>
        <time>2022-01-27T11:51:56Z</time>
      </trkpt>
      <trkpt lat="45.31769" lon="6.18373">
        <ele>2667.3</ele>
        <time>2022-01-27T11:51:57Z</time>
      </trkpt>
      <trkpt lat="45.31769" lon="6.18372">
        <ele>2667.3</ele>
        <time>2022-01-27T11:51:58Z</time>
      </trkpt>
      <trkpt lat="45.31769" lon="6.18371">
        <ele>2667.7</ele>
        <time>2022-01-27T11:51:59Z</time>
      </trkpt>
      <trkpt lat="45.31769" lon="6.1837">
        <ele>2667.7</ele>
        <time>2022-01-27T11:52:00Z</time>
      </trkpt>
      <trkpt lat="45.31769" lon="6.18369">
        <ele>2668.5</ele>
        <time>2022-01-27T11:52:01Z</time>
      </trkpt>
      <trkpt lat="45.3177" lon="6.18368">
        <ele>2668.5</ele>
        <time>2022-01-27T11:52:02Z</time>
      </trkpt>
      <trkpt lat="45.3177" lon="6.18367">
        <ele>2668.8</ele>
        <time>2022-01-27T11:52:03Z</time>
      </trkpt>
      <trkpt lat="45.31769" lon="6.18366">
        <ele>2668.8</ele>
        <time>2022-01-27T11:52:04Z</time>
      </trkpt>
      <trkpt lat="45.31769" lon="6.18365">
        <ele>2668.1</ele>
        <time>2022-01-27T11:52:11Z</time>
      </trkpt>
      <trkpt lat="45.31769" lon="6.18364">
        <ele>2668.1</ele>
        <time>2022-01-27T11:52:13Z</time>
      </trkpt>
      <trkpt lat="45.31769" lon="6.18363">
        <ele>2668.4</ele>
        <time>2022-01-27T11:52:14Z</time>
      </trkpt>
      <trkpt lat="45.31769" lon="6.18362">
        <ele>2668.4</ele>
        <time>2022-01-27T11:52:15Z</time>
      </trkpt>
      <trkpt lat="45.31769" lon="6.18361">
        <ele>2668.4</ele>
        <time>2022-01-27T11:52:16Z</time>
      </trkpt>
      <trkpt lat="45.31769" lon="6.1836">
        <ele>2668.4</ele>
        <time>2022-01-27T11:52:17Z</time>
      </trkpt>
      <trkpt lat="45.31768" lon="6.18359">
        <ele>2668.4</ele>
        <time>2022-01-27T11:52:18Z</time>
      </trkpt>
      <trkpt lat="45.31768" lon="6.18358">
        <ele>2668.6</ele>
        <time>2022-01-27T11:52:19Z</time>
      </trkpt>
      <trkpt lat="45.31768" lon="6.18357">
        <ele>2668.6</ele>
        <time>2022-01-27T11:52:27Z</time>
      </trkpt>
      <trkpt lat="45.31768" lon="6.18356">
        <ele>2668.6</ele>
        <time>2022-01-27T11:52:28Z</time>
      </trkpt>
      <trkpt lat="45.31768" lon="6.18357">
        <ele>2668.6</ele>
        <time>2022-01-27T11:52:30Z</time>
      </trkpt>
      <trkpt lat="45.31769" lon="6.18358">
        <ele>2668.6</ele>
        <time>2022-01-27T11:52:36Z</time>
      </trkpt>
      <trkpt lat="45.31769" lon="6.18359">
        <ele>2668.6</ele>
        <time>2022-01-27T11:52:39Z</time>
      </trkpt>
      <trkpt lat="45.31769" lon="6.1836">
        <ele>2669.1</ele>
        <time>2022-01-27T11:52:41Z</time>
      </trkpt>
      <trkpt lat="45.3177" lon="6.18361">
        <ele>2669.1</ele>
        <time>2022-01-27T11:52:42Z</time>
      </trkpt>
      <trkpt lat="45.3177" lon="6.18362">
        <ele>2669.1</ele>
        <time>2022-01-27T11:52:44Z</time>
      </trkpt>
      <trkpt lat="45.3177" lon="6.18363">
        <ele>2669.1</ele>
        <time>2022-01-27T11:52:45Z</time>
      </trkpt>
      <trkpt lat="45.3177" lon="6.18364">
        <ele>2668.8</ele>
        <time>2022-01-27T11:52:46Z</time>
      </trkpt>
      <trkpt lat="45.31771" lon="6.18365">
        <ele>2668.8</ele>
        <time>2022-01-27T11:52:48Z</time>
      </trkpt>
      <trkpt lat="45.31771" lon="6.18367">
        <ele>2668.8</ele>
        <time>2022-01-27T11:52:50Z</time>
      </trkpt>
      <trkpt lat="45.31771" lon="6.18368">
        <ele>2668.5</ele>
        <time>2022-01-27T11:52:52Z</time>
      </trkpt>
      <trkpt lat="45.31772" lon="6.18369">
        <ele>2668.5</ele>
        <time>2022-01-27T11:52:53Z</time>
      </trkpt>
      <trkpt lat="45.31772" lon="6.18371">
        <ele>2668.5</ele>
        <time>2022-01-27T11:52:55Z</time>
      </trkpt>
      <trkpt lat="45.31773" lon="6.18372">
        <ele>2668.7</ele>
        <time>2022-01-27T11:52:56Z</time>
      </trkpt>
      <trkpt lat="45.31773" lon="6.18373">
        <ele>2668.7</ele>
        <time>2022-01-27T11:52:58Z</time>
      </trkpt>
      <trkpt lat="45.31773" lon="6.18374">
        <ele>2668.7</ele>
        <time>2022-01-27T11:52:59Z</time>
      </trkpt>
      <trkpt lat="45.31773" lon="6.18375">
        <ele>2668.7</ele>
        <time>2022-01-27T11:53:01Z</time>
      </trkpt>
      <trkpt lat="45.31774" lon="6.18376">
        <ele>2668.7</ele>
        <time>2022-01-27T11:53:02Z</time>
      </trkpt>
      <trkpt lat="45.31774" lon="6.18377">
        <ele>2668.2</ele>
        <time>2022-01-27T11:53:04Z</time>
      </trkpt>
      <trkpt lat="45.31774" lon="6.18378">
        <ele>2668.2</ele>
        <time>2022-01-27T11:53:07Z</time>
      </trkpt>
      <trkpt lat="45.31775" lon="6.18377">
        <ele>2668.2</ele>
        <time>2022-01-27T11:53:08Z</time>
      </trkpt>
      <trkpt lat="45.31776" lon="6.18377">
        <ele>2668.8</ele>
        <time>2022-01-27T11:53:10Z</time>
      </trkpt>
      <trkpt lat="45.31775" lon="6.18377">
        <ele>2668.8</ele>
        <time>2022-01-27T11:53:11Z</time>
      </trkpt>
      <trkpt lat="45.31776" lon="6.18376">
        <ele>2668.8</ele>
        <time>2022-01-27T11:53:13Z</time>
      </trkpt>
      <trkpt lat="45.31777" lon="6.18375">
        <ele>2669.3</ele>
        <time>2022-01-27T11:53:16Z</time>
      </trkpt>
      <trkpt lat="45.31777" lon="6.18374">
        <ele>2669.3</ele>
        <time>2022-01-27T11:53:18Z</time>
      </trkpt>
      <trkpt lat="45.31777" lon="6.18373">
        <ele>2669.3</ele>
        <time>2022-01-27T11:53:19Z</time>
      </trkpt>
      <trkpt lat="45.31777" lon="6.18372">
        <ele>2669.3</ele>
        <time>2022-01-27T11:53:20Z</time>
      </trkpt>
      <trkpt lat="45.31777" lon="6.1837">
        <ele>2669.7</ele>
        <time>2022-01-27T11:53:21Z</time>
      </trkpt>
      <trkpt lat="45.31776" lon="6.18368">
        <ele>2669.7</ele>
        <time>2022-01-27T11:53:24Z</time>
      </trkpt>
      <trkpt lat="45.31776" lon="6.18367">
        <ele>2670</ele>
        <time>2022-01-27T11:53:25Z</time>
      </trkpt>
      <trkpt lat="45.31776" lon="6.18366">
        <ele>2670</ele>
        <time>2022-01-27T11:53:26Z</time>
      </trkpt>
      <trkpt lat="45.31776" lon="6.18365">
        <ele>2670</ele>
        <time>2022-01-27T11:53:27Z</time>
      </trkpt>
      <trkpt lat="45.31776" lon="6.18364">
        <ele>2670</ele>
        <time>2022-01-27T11:53:28Z</time>
      </trkpt>
      <trkpt lat="45.31776" lon="6.18363">
        <ele>2670.2</ele>
        <time>2022-01-27T11:53:29Z</time>
      </trkpt>
      <trkpt lat="45.31776" lon="6.18362">
        <ele>2670.2</ele>
        <time>2022-01-27T11:53:30Z</time>
      </trkpt>
      <trkpt lat="45.31776" lon="6.18361">
        <ele>2670.2</ele>
        <time>2022-01-27T11:53:31Z</time>
      </trkpt>
      <trkpt lat="45.31776" lon="6.1836">
        <ele>2670.2</ele>
        <time>2022-01-27T11:53:32Z</time>
      </trkpt>
      <trkpt lat="45.31776" lon="6.18359">
        <ele>2670.2</ele>
        <time>2022-01-27T11:53:33Z</time>
      </trkpt>
      <trkpt lat="45.31776" lon="6.18358">
        <ele>2670.3</ele>
        <time>2022-01-27T11:53:34Z</time>
      </trkpt>
      <trkpt lat="45.31776" lon="6.18357">
        <ele>2670.3</ele>
        <time>2022-01-27T11:53:36Z</time>
      </trkpt>
      <trkpt lat="45.31776" lon="6.18356">
        <ele>2670.3</ele>
        <time>2022-01-27T11:53:40Z</time>
      </trkpt>
      <trkpt lat="45.31775" lon="6.18355">
        <ele>2670.3</ele>
        <time>2022-01-27T11:53:41Z</time>
      </trkpt>
      <trkpt lat="45.31776" lon="6.18354">
        <ele>2670.4</ele>
        <time>2022-01-27T11:53:43Z</time>
      </trkpt>
      <trkpt lat="45.31775" lon="6.18354">
        <ele>2670.4</ele>
        <time>2022-01-27T11:53:44Z</time>
      </trkpt>
      <trkpt lat="45.31776" lon="6.18353">
        <ele>2670.4</ele>
        <time>2022-01-27T11:53:46Z</time>
      </trkpt>
      <trkpt lat="45.31776" lon="6.18354">
        <ele>2670.4</ele>
        <time>2022-01-27T11:53:49Z</time>
      </trkpt>
      <trkpt lat="45.31777" lon="6.18354">
        <ele>2670.4</ele>
        <time>2022-01-27T11:53:54Z</time>
      </trkpt>
      <trkpt lat="45.31777" lon="6.18355">
        <ele>2670.3</ele>
        <time>2022-01-27T11:53:56Z</time>
      </trkpt>
      <trkpt lat="45.31777" lon="6.18356">
        <ele>2670.3</ele>
        <time>2022-01-27T11:54:00Z</time>
      </trkpt>
      <trkpt lat="45.31777" lon="6.18357">
        <ele>2670.3</ele>
        <time>2022-01-27T11:54:02Z</time>
      </trkpt>
      <trkpt lat="45.31778" lon="6.18357">
        <ele>2670.3</ele>
        <time>2022-01-27T11:54:03Z</time>
      </trkpt>
      <trkpt lat="45.31778" lon="6.18358">
        <ele>2670.3</ele>
        <time>2022-01-27T11:54:04Z</time>
      </trkpt>
      <trkpt lat="45.31778" lon="6.1836">
        <ele>2670.2</ele>
        <time>2022-01-27T11:54:07Z</time>
      </trkpt>
      <trkpt lat="45.31778" lon="6.18361">
        <ele>2670.2</ele>
        <time>2022-01-27T11:54:09Z</time>
      </trkpt>
      <trkpt lat="45.31779" lon="6.18362">
        <ele>2670.6</ele>
        <time>2022-01-27T11:54:10Z</time>
      </trkpt>
      <trkpt lat="45.31779" lon="6.18363">
        <ele>2670.3</ele>
        <time>2022-01-27T11:54:11Z</time>
      </trkpt>
      <trkpt lat="45.31779" lon="6.18364">
        <ele>2670.3</ele>
        <time>2022-01-27T11:54:12Z</time>
      </trkpt>
      <trkpt lat="45.31779" lon="6.18365">
        <ele>2670.3</ele>
        <time>2022-01-27T11:54:13Z</time>
      </trkpt>
      <trkpt lat="45.3178" lon="6.18365">
        <ele>2670.3</ele>
        <time>2022-01-27T11:54:14Z</time>
      </trkpt>
      <trkpt lat="45.31779" lon="6.18365">
        <ele>2670.3</ele>
        <time>2022-01-27T11:54:15Z</time>
      </trkpt>
      <trkpt lat="45.31779" lon="6.18366">
        <ele>2670.3</ele>
        <time>2022-01-27T11:54:20Z</time>
      </trkpt>
      <trkpt lat="45.31779" lon="6.18367">
        <ele>2670.3</ele>
        <time>2022-01-27T11:54:23Z</time>
      </trkpt>
      <trkpt lat="45.3178" lon="6.18368">
        <ele>2670.1</ele>
        <time>2022-01-27T11:54:25Z</time>
      </trkpt>
      <trkpt lat="45.3178" lon="6.18369">
        <ele>2670.1</ele>
        <time>2022-01-27T11:54:26Z</time>
      </trkpt>
      <trkpt lat="45.3178" lon="6.1837">
        <ele>2670.1</ele>
        <time>2022-01-27T11:54:27Z</time>
      </trkpt>
      <trkpt lat="45.31781" lon="6.1837">
        <ele>2670.1</ele>
        <time>2022-01-27T11:54:28Z</time>
      </trkpt>
      <trkpt lat="45.31781" lon="6.18371">
        <ele>2670.1</ele>
        <time>2022-01-27T11:54:29Z</time>
      </trkpt>
      <trkpt lat="45.31781" lon="6.18372">
        <ele>2669.7</ele>
        <time>2022-01-27T11:54:30Z</time>
      </trkpt>
      <trkpt lat="45.31781" lon="6.18373">
        <ele>2669.7</ele>
        <time>2022-01-27T11:54:32Z</time>
      </trkpt>
      <trkpt lat="45.31782" lon="6.18374">
        <ele>2669.9</ele>
        <time>2022-01-27T11:54:37Z</time>
      </trkpt>
      <trkpt lat="45.31782" lon="6.18373">
        <ele>2669.9</ele>
        <time>2022-01-27T11:54:43Z</time>
      </trkpt>
      <trkpt lat="45.31783" lon="6.18372">
        <ele>2669.9</ele>
        <time>2022-01-27T11:54:47Z</time>
      </trkpt>
      <trkpt lat="45.31783" lon="6.18371">
        <ele>2670.3</ele>
        <time>2022-01-27T11:54:50Z</time>
      </trkpt>
      <trkpt lat="45.31783" lon="6.1837">
        <ele>2670.3</ele>
        <time>2022-01-27T11:54:52Z</time>
      </trkpt>
      <trkpt lat="45.31782" lon="6.18369">
        <ele>2670.3</ele>
        <time>2022-01-27T11:54:53Z</time>
      </trkpt>
      <trkpt lat="45.31782" lon="6.18368">
        <ele>2670.3</ele>
        <time>2022-01-27T11:54:55Z</time>
      </trkpt>
      <trkpt lat="45.31782" lon="6.18367">
        <ele>2670.3</ele>
        <time>2022-01-27T11:54:58Z</time>
      </trkpt>
      <trkpt lat="45.31781" lon="6.18367">
        <ele>2670.1</ele>
        <time>2022-01-27T11:54:59Z</time>
      </trkpt>
      <trkpt lat="45.31781" lon="6.18366">
        <ele>2670.3</ele>
        <time>2022-01-27T11:55:03Z</time>
      </trkpt>
      <trkpt lat="45.31777" lon="6.18359">
        <ele>2670.2</ele>
        <time>2022-01-27T11:55:31Z</time>
      </trkpt>
      <trkpt lat="45.31777" lon="6.1836">
        <ele>2670.2</ele>
        <time>2022-01-27T11:55:34Z</time>
      </trkpt>
      <trkpt lat="45.31778" lon="6.1836">
        <ele>2670.2</ele>
        <time>2022-01-27T11:55:35Z</time>
      </trkpt>
      <trkpt lat="45.31778" lon="6.18361">
        <ele>2670.2</ele>
        <time>2022-01-27T11:55:36Z</time>
      </trkpt>
      <trkpt lat="45.31781" lon="6.18366">
        <ele>2670.3</ele>
        <time>2022-01-27T11:56:37Z</time>
      </trkpt>
      <trkpt lat="45.31782" lon="6.18365">
        <ele>2670.6</ele>
        <time>2022-01-27T11:56:39Z</time>
      </trkpt>
      <trkpt lat="45.31783" lon="6.18365">
        <ele>2670.6</ele>
        <time>2022-01-27T11:56:41Z</time>
      </trkpt>
      <trkpt lat="45.31782" lon="6.18365">
        <ele>2670.6</ele>
        <time>2022-01-27T11:56:47Z</time>
      </trkpt>
      <trkpt lat="45.31805" lon="6.18365">
        <ele>2668.2</ele>
        <time>2022-01-27T12:05:22Z</time>
      </trkpt>
      <trkpt lat="45.31729" lon="6.18278">
        <ele>2650.1</ele>
      </trkpt>
      <trkpt lat="45.31673" lon="6.18286">
        <ele>2609.4</ele>
      </trkpt>
      <trkpt lat="45.31623" lon="6.18335">
        <ele>2562.6</ele>
      </trkpt>
      <trkpt lat="45.3157" lon="6.18338">
        <ele>2527</ele>
      </trkpt>
      <trkpt lat="45.31531" lon="6.1829">
        <ele>2498.6</ele>
      </trkpt>
      <trkpt lat="45.31466" lon="6.1822">
        <ele>2458</ele>
      </trkpt>
      <trkpt lat="45.31386" lon="6.18155">
        <ele>2439.7</ele>
      </trkpt>
      <trkpt lat="45.31293" lon="6.18112">
        <ele>2379.9</ele>
      </trkpt>
      <trkpt lat="45.31259" lon="6.18114">
        <ele>2356.7</ele>
      </trkpt>
      <trkpt lat="45.3122" lon="6.18108">
        <ele>2317.5</ele>
      </trkpt>
      <trkpt lat="45.31157" lon="6.18106">
        <ele>2262.9</ele>
      </trkpt>
      <trkpt lat="45.31092" lon="6.18106">
        <ele>2210.9</ele>
      </trkpt>
      <trkpt lat="45.31025" lon="6.18112">
        <ele>2167.9</ele>
      </trkpt>
      <trkpt lat="45.30942" lon="6.18089">
        <ele>2129</ele>
      </trkpt>
      <trkpt lat="45.30892" lon="6.18063">
        <ele>2107.1</ele>
      </trkpt>
      <trkpt lat="45.3096" lon="6.17962">
        <ele>2145.9</ele>
      </trkpt>
      <trkpt lat="45.31042" lon="6.17904">
        <ele>2203.4</ele>
      </trkpt>
      <trkpt lat="45.31123" lon="6.17808">
        <ele>2253.9</ele>
      </trkpt>
      <trkpt lat="45.31202" lon="6.17657">
        <ele>2306.4</ele>
      </trkpt>
      <trkpt lat="45.3128" lon="6.17514">
        <ele>2338</ele>
      </trkpt>
      <trkpt lat="45.31398" lon="6.17383">
        <ele>2396.2</ele>
      </trkpt>
      <trkpt lat="45.31494" lon="6.17271">
        <ele>2452.5</ele>
      </trkpt>
      <trkpt lat="45.31536" lon="6.17213">
        <ele>2476.1</ele>
      </trkpt>
      <trkpt lat="45.31311" lon="6.17421">
        <ele>2359.8</ele>
      </trkpt>
      <trkpt lat="45.31207" lon="6.17573">
        <ele>2322.4</ele>
      </trkpt>
      <trkpt lat="45.31086" lon="6.17791">
        <ele>2243.6</ele>
      </trkpt>
      <trkpt lat="45.30935" lon="6.17948">
        <ele>2133.8</ele>
      </trkpt>
      <trkpt lat="45.30855" lon="6.17969">
        <ele>2088.6</ele>
      </trkpt>
      <trkpt lat="45.30767" lon="6.17899">
        <ele>2049.8</ele>
      </trkpt>
      <trkpt lat="45.30634" lon="6.1779">
        <ele>1968.5</ele>
      </trkpt>
      <trkpt lat="45.30543" lon="6.17644">
        <ele>1929.5</ele>
      </trkpt>
      <trkpt lat="45.3046" lon="6.17627">
        <ele>1909.4</ele>
      </trkpt>
      <trkpt lat="45.30291" lon="6.17756">
        <ele>1814.1</ele>
      </trkpt>
      <trkpt lat="45.30164" lon="6.18">
        <ele>1736.7</ele>
      </trkpt>
      <trkpt lat="45.3009" lon="6.1832">
        <ele>1676.6</ele>
      </trkpt>
      <trkpt lat="45.30042" lon="6.18614">
        <ele>1614.8</ele>
      </trkpt>
      <trkpt lat="45.29867" lon="6.19285">
        <ele>1503.5</ele>
      </trkpt>
      <trkpt lat="45.29742" lon="6.19545">
        <ele>1489.5</ele>
      </trkpt>
      <trkpt lat="45.29539" lon="6.19918">
        <ele>1427.4</ele>
      </trkpt>
      <trkpt lat="45.29474" lon="6.20144">
        <ele>1395.9</ele>
      </trkpt>
      <trkpt lat="45.29421" lon="6.20412">
        <ele>1369</ele>
      </trkpt>
      <trkpt lat="45.29373" lon="6.20742">
        <ele>1338.1</ele>
      </trkpt>
      <trkpt lat="45.29354" lon="6.21126">
        <ele>1272.1</ele>
      </trkpt>
      <trkpt lat="45.29331" lon="6.21321">
        <ele>1246.3</ele>
      </trkpt>
      <trkpt lat="45.29259" lon="6.21435">
        <ele>1202</ele>
      </trkpt>
      <trkpt lat="45.29167" lon="6.21559">
        <ele>1169.3</ele>
      </trkpt>
      <trkpt lat="45.29109" lon="6.21652">
        <ele>1150.9</ele>
      </trkpt>
      <trkpt lat="45.2904" lon="6.21748">
        <ele>1133.7</ele>
      </trkpt>
      <trkpt lat="45.29001" lon="6.21737">
        <ele>1140.1</ele>
      </trkpt>
    </trkseg>
  </trk>
</gpx>